<?xml version="1.0" encoding="utf-8"?>
<gpx xmlns:xsi="http://www.w3.org/2001/XMLSchema-instance" xmlns:xsd="http://www.w3.org/2001/XMLSchema" version="1.1" creator="Shapelink.com" xmlns="http://www.topografix.com/GPX/1/1" xmlns:gpxtpx="http://www.garmin.com/xmlschemas/TrackPointExtension/v1">
  <metadata>
    <name>Övrigt 8.06 km, 2016-07-04</name>
    <desc></desc>
    <author><name>Stein Falk-Larssen</name></author> 
    <time>1970-01-01T01:00:00Z</time>
  </metadata>
  <trk>
    <name>Övrigt 8.06 km, 2016-07-04</name>
    <trkseg>
      <trkpt lat="63.41776983" lon="10.33892617">
        <ele>0</ele>
        <time>1970-01-01T01:00:00Z</time>
      </trkpt>
      <trkpt lat="63.41776983" lon="10.33892617">
        <ele>0</ele>
        <time>1970-01-01T01:00:00Z</time>
      </trkpt>
      <trkpt lat="63.41777833" lon="10.33891217">
        <ele>0</ele>
        <time>1970-01-01T01:00:00Z</time>
      </trkpt>
      <trkpt lat="63.41778717" lon="10.33889617">
        <ele>0</ele>
        <time>1970-01-01T01:00:00Z</time>
      </trkpt>
      <trkpt lat="63.41779233" lon="10.3388805">
        <ele>0</ele>
        <time>1970-01-01T01:00:00Z</time>
      </trkpt>
      <trkpt lat="63.41779617" lon="10.33886367">
        <ele>0</ele>
        <time>1970-01-01T01:00:00Z</time>
      </trkpt>
      <trkpt lat="63.41779783" lon="10.3388475">
        <ele>0</ele>
        <time>1970-01-01T01:00:00Z</time>
      </trkpt>
      <trkpt lat="63.41779783" lon="10.33882967">
        <ele>0</ele>
        <time>1970-01-01T01:00:00Z</time>
      </trkpt>
      <trkpt lat="63.417797" lon="10.33880517">
        <ele>0</ele>
        <time>1970-01-01T01:00:00Z</time>
      </trkpt>
      <trkpt lat="63.41779683" lon="10.33877617">
        <ele>0</ele>
        <time>1970-01-01T01:00:00Z</time>
      </trkpt>
      <trkpt lat="63.41779733" lon="10.33874783">
        <ele>0</ele>
        <time>1970-01-01T01:00:00Z</time>
      </trkpt>
      <trkpt lat="63.41779683" lon="10.338725">
        <ele>0</ele>
        <time>1970-01-01T01:00:00Z</time>
      </trkpt>
      <trkpt lat="63.417796" lon="10.3387015">
        <ele>0</ele>
        <time>1970-01-01T01:00:00Z</time>
      </trkpt>
      <trkpt lat="63.41779467" lon="10.3386765">
        <ele>0</ele>
        <time>1970-01-01T01:00:00Z</time>
      </trkpt>
      <trkpt lat="63.4177925" lon="10.33865">
        <ele>0</ele>
        <time>1970-01-01T01:00:00Z</time>
      </trkpt>
      <trkpt lat="63.41779117" lon="10.33862367">
        <ele>0</ele>
        <time>1970-01-01T01:00:00Z</time>
      </trkpt>
      <trkpt lat="63.41779117" lon="10.33859633">
        <ele>0</ele>
        <time>1970-01-01T01:00:00Z</time>
      </trkpt>
      <trkpt lat="63.41779383" lon="10.33856983">
        <ele>0</ele>
        <time>1970-01-01T01:00:00Z</time>
      </trkpt>
      <trkpt lat="63.4177965" lon="10.33854817">
        <ele>0</ele>
        <time>1970-01-01T01:00:00Z</time>
      </trkpt>
      <trkpt lat="63.41779917" lon="10.3385275">
        <ele>0</ele>
        <time>1970-01-01T01:00:00Z</time>
      </trkpt>
      <trkpt lat="63.41780183" lon="10.33850983">
        <ele>0</ele>
        <time>1970-01-01T01:00:00Z</time>
      </trkpt>
      <trkpt lat="63.417804" lon="10.3384895">
        <ele>0</ele>
        <time>1970-01-01T01:00:00Z</time>
      </trkpt>
      <trkpt lat="63.41780583" lon="10.33846983">
        <ele>0</ele>
        <time>1970-01-01T01:00:00Z</time>
      </trkpt>
      <trkpt lat="63.417809" lon="10.3384485">
        <ele>0</ele>
        <time>1970-01-01T01:00:00Z</time>
      </trkpt>
      <trkpt lat="63.41781217" lon="10.33843033">
        <ele>0</ele>
        <time>1970-01-01T01:00:00Z</time>
      </trkpt>
      <trkpt lat="63.41781583" lon="10.33841333">
        <ele>0</ele>
        <time>1970-01-01T01:00:00Z</time>
      </trkpt>
      <trkpt lat="63.41781833" lon="10.33839617">
        <ele>0</ele>
        <time>1970-01-01T01:00:00Z</time>
      </trkpt>
      <trkpt lat="63.41782083" lon="10.3383755">
        <ele>0</ele>
        <time>1970-01-01T01:00:00Z</time>
      </trkpt>
      <trkpt lat="63.41782467" lon="10.338355">
        <ele>0</ele>
        <time>1970-01-01T01:00:00Z</time>
      </trkpt>
      <trkpt lat="63.41782867" lon="10.33833317">
        <ele>0</ele>
        <time>1970-01-01T01:00:00Z</time>
      </trkpt>
      <trkpt lat="63.417834" lon="10.33831467">
        <ele>0</ele>
        <time>1970-01-01T01:00:00Z</time>
      </trkpt>
      <trkpt lat="63.41784183" lon="10.33829233">
        <ele>0</ele>
        <time>1970-01-01T01:00:00Z</time>
      </trkpt>
      <trkpt lat="63.4178495" lon="10.33826783">
        <ele>0</ele>
        <time>1970-01-01T01:00:00Z</time>
      </trkpt>
      <trkpt lat="63.417856" lon="10.33823733">
        <ele>0</ele>
        <time>1970-01-01T01:00:00Z</time>
      </trkpt>
      <trkpt lat="63.41786" lon="10.33820633">
        <ele>0</ele>
        <time>1970-01-01T01:00:00Z</time>
      </trkpt>
      <trkpt lat="63.417862" lon="10.33817433">
        <ele>0</ele>
        <time>1970-01-01T01:00:00Z</time>
      </trkpt>
      <trkpt lat="63.417863" lon="10.33814383">
        <ele>0</ele>
        <time>1970-01-01T01:00:00Z</time>
      </trkpt>
      <trkpt lat="63.41786033" lon="10.33811333">
        <ele>0</ele>
        <time>1970-01-01T01:00:00Z</time>
      </trkpt>
      <trkpt lat="63.41785517" lon="10.338084">
        <ele>0</ele>
        <time>1970-01-01T01:00:00Z</time>
      </trkpt>
      <trkpt lat="63.41785033" lon="10.3380555">
        <ele>0</ele>
        <time>1970-01-01T01:00:00Z</time>
      </trkpt>
      <trkpt lat="63.4178475" lon="10.338031">
        <ele>0</ele>
        <time>1970-01-01T01:00:00Z</time>
      </trkpt>
      <trkpt lat="63.41784533" lon="10.3380085">
        <ele>0</ele>
        <time>1970-01-01T01:00:00Z</time>
      </trkpt>
      <trkpt lat="63.417841" lon="10.33798583">
        <ele>0</ele>
        <time>1970-01-01T01:00:00Z</time>
      </trkpt>
      <trkpt lat="63.417836" lon="10.33796367">
        <ele>0</ele>
        <time>1970-01-01T01:00:00Z</time>
      </trkpt>
      <trkpt lat="63.41783317" lon="10.33793967">
        <ele>0</ele>
        <time>1970-01-01T01:00:00Z</time>
      </trkpt>
      <trkpt lat="63.41783167" lon="10.337917">
        <ele>0</ele>
        <time>1970-01-01T01:00:00Z</time>
      </trkpt>
      <trkpt lat="63.41782967" lon="10.33788617">
        <ele>0</ele>
        <time>1970-01-01T01:00:00Z</time>
      </trkpt>
      <trkpt lat="63.4178265" lon="10.33785367">
        <ele>0</ele>
        <time>1970-01-01T01:00:00Z</time>
      </trkpt>
      <trkpt lat="63.4178235" lon="10.3378205">
        <ele>0</ele>
        <time>1970-01-01T01:00:00Z</time>
      </trkpt>
      <trkpt lat="63.41781983" lon="10.33779183">
        <ele>169.014</ele>
        <time>1970-01-01T01:00:00Z</time>
      </trkpt>
      <trkpt lat="63.417817" lon="10.33776767">
        <ele>169.014</ele>
        <time>1970-01-01T01:00:00Z</time>
      </trkpt>
      <trkpt lat="63.4178115" lon="10.33774367">
        <ele>169.014</ele>
        <time>1970-01-01T01:00:00Z</time>
      </trkpt>
      <trkpt lat="63.41780717" lon="10.33772083">
        <ele>169.014</ele>
        <time>1970-01-01T01:00:00Z</time>
      </trkpt>
      <trkpt lat="63.4178005" lon="10.33769417">
        <ele>168.861</ele>
        <time>1970-01-01T01:00:00Z</time>
      </trkpt>
      <trkpt lat="63.41779233" lon="10.33766783">
        <ele>168.861</ele>
        <time>1970-01-01T01:00:00Z</time>
      </trkpt>
      <trkpt lat="63.4177845" lon="10.33764067">
        <ele>168.861</ele>
        <time>1970-01-01T01:00:00Z</time>
      </trkpt>
      <trkpt lat="63.417779" lon="10.33762033">
        <ele>168.861</ele>
        <time>1970-01-01T01:00:00Z</time>
      </trkpt>
      <trkpt lat="63.417779" lon="10.337598">
        <ele>168.861</ele>
        <time>1970-01-01T01:00:00Z</time>
      </trkpt>
      <trkpt lat="63.41777933" lon="10.337575">
        <ele>168.861</ele>
        <time>1970-01-01T01:00:00Z</time>
      </trkpt>
      <trkpt lat="63.41777933" lon="10.3375495">
        <ele>168.861</ele>
        <time>1970-01-01T01:00:00Z</time>
      </trkpt>
      <trkpt lat="63.41777467" lon="10.33752567">
        <ele>168.861</ele>
        <time>1970-01-01T01:00:00Z</time>
      </trkpt>
      <trkpt lat="63.41777033" lon="10.3374995">
        <ele>168.861</ele>
        <time>1970-01-01T01:00:00Z</time>
      </trkpt>
      <trkpt lat="63.41776567" lon="10.3374695">
        <ele>168.861</ele>
        <time>1970-01-01T01:00:00Z</time>
      </trkpt>
      <trkpt lat="63.41776233" lon="10.33743817">
        <ele>169.014</ele>
        <time>1970-01-01T01:00:00Z</time>
      </trkpt>
      <trkpt lat="63.41775883" lon="10.337409">
        <ele>169.014</ele>
        <time>1970-01-01T01:00:00Z</time>
      </trkpt>
      <trkpt lat="63.41775617" lon="10.33738267">
        <ele>169.014</ele>
        <time>1970-01-01T01:00:00Z</time>
      </trkpt>
      <trkpt lat="63.417755" lon="10.3373575">
        <ele>169.014</ele>
        <time>1970-01-01T01:00:00Z</time>
      </trkpt>
      <trkpt lat="63.417753" lon="10.33733">
        <ele>169.166</ele>
        <time>1970-01-01T01:00:00Z</time>
      </trkpt>
      <trkpt lat="63.41774967" lon="10.33730083">
        <ele>169.166</ele>
        <time>1970-01-01T01:00:00Z</time>
      </trkpt>
      <trkpt lat="63.41774567" lon="10.33726933">
        <ele>169.318</ele>
        <time>1970-01-01T01:00:00Z</time>
      </trkpt>
      <trkpt lat="63.4177405" lon="10.33724">
        <ele>169.318</ele>
        <time>1970-01-01T01:00:00Z</time>
      </trkpt>
      <trkpt lat="63.41773467" lon="10.33721183">
        <ele>169.471</ele>
        <time>1970-01-01T01:00:00Z</time>
      </trkpt>
      <trkpt lat="63.417728" lon="10.33718567">
        <ele>169.471</ele>
        <time>1970-01-01T01:00:00Z</time>
      </trkpt>
      <trkpt lat="63.4177225" lon="10.337159">
        <ele>169.623</ele>
        <time>1970-01-01T01:00:00Z</time>
      </trkpt>
      <trkpt lat="63.417718" lon="10.33713133">
        <ele>169.623</ele>
        <time>1970-01-01T01:00:00Z</time>
      </trkpt>
      <trkpt lat="63.41771367" lon="10.33710167">
        <ele>169.776</ele>
        <time>1970-01-01T01:00:00Z</time>
      </trkpt>
      <trkpt lat="63.41770817" lon="10.33707517">
        <ele>169.776</ele>
        <time>1970-01-01T01:00:00Z</time>
      </trkpt>
      <trkpt lat="63.41770183" lon="10.33705117">
        <ele>169.928</ele>
        <time>1970-01-01T01:00:00Z</time>
      </trkpt>
      <trkpt lat="63.41769567" lon="10.337028">
        <ele>169.928</ele>
        <time>1970-01-01T01:00:00Z</time>
      </trkpt>
      <trkpt lat="63.4176895" lon="10.336999">
        <ele>170.233</ele>
        <time>1970-01-01T01:00:00Z</time>
      </trkpt>
      <trkpt lat="63.4176845" lon="10.33696533">
        <ele>170.233</ele>
        <time>1970-01-01T01:00:00Z</time>
      </trkpt>
      <trkpt lat="63.41768" lon="10.33693017">
        <ele>170.385</ele>
        <time>1970-01-01T01:00:00Z</time>
      </trkpt>
      <trkpt lat="63.41767767" lon="10.33689583">
        <ele>170.385</ele>
        <time>1970-01-01T01:00:00Z</time>
      </trkpt>
      <trkpt lat="63.41767517" lon="10.336863">
        <ele>170.69</ele>
        <time>1970-01-01T01:00:00Z</time>
      </trkpt>
      <trkpt lat="63.41767167" lon="10.33683267">
        <ele>170.69</ele>
        <time>1970-01-01T01:00:00Z</time>
      </trkpt>
      <trkpt lat="63.41766567" lon="10.33680533">
        <ele>170.842</ele>
        <time>1970-01-01T01:00:00Z</time>
      </trkpt>
      <trkpt lat="63.41766017" lon="10.33677117">
        <ele>170.842</ele>
        <time>1970-01-01T01:00:00Z</time>
      </trkpt>
      <trkpt lat="63.4176555" lon="10.33673367">
        <ele>171.147</ele>
        <time>1970-01-01T01:00:00Z</time>
      </trkpt>
      <trkpt lat="63.417652" lon="10.336693">
        <ele>171.147</ele>
        <time>1970-01-01T01:00:00Z</time>
      </trkpt>
      <trkpt lat="63.41764833" lon="10.33665783">
        <ele>171.452</ele>
        <time>1970-01-01T01:00:00Z</time>
      </trkpt>
      <trkpt lat="63.4176425" lon="10.33662233">
        <ele>171.452</ele>
        <time>1970-01-01T01:00:00Z</time>
      </trkpt>
      <trkpt lat="63.41763583" lon="10.33658183">
        <ele>171.757</ele>
        <time>1970-01-01T01:00:00Z</time>
      </trkpt>
      <trkpt lat="63.41762667" lon="10.33653967">
        <ele>171.757</ele>
        <time>1970-01-01T01:00:00Z</time>
      </trkpt>
      <trkpt lat="63.41761917" lon="10.33649867">
        <ele>172.062</ele>
        <time>1970-01-01T01:00:00Z</time>
      </trkpt>
      <trkpt lat="63.41761233" lon="10.33646433">
        <ele>172.062</ele>
        <time>1970-01-01T01:00:00Z</time>
      </trkpt>
      <trkpt lat="63.41760883" lon="10.3364325">
        <ele>172.366</ele>
        <time>1970-01-01T01:00:00Z</time>
      </trkpt>
      <trkpt lat="63.417604" lon="10.336403">
        <ele>172.366</ele>
        <time>1970-01-01T01:00:00Z</time>
      </trkpt>
      <trkpt lat="63.417599" lon="10.3363725">
        <ele>172.519</ele>
        <time>1970-01-01T01:00:00Z</time>
      </trkpt>
      <trkpt lat="63.41759367" lon="10.3363455">
        <ele>172.519</ele>
        <time>1970-01-01T01:00:00Z</time>
      </trkpt>
      <trkpt lat="63.41759167" lon="10.336316">
        <ele>172.366</ele>
        <time>1970-01-01T01:00:00Z</time>
      </trkpt>
      <trkpt lat="63.4175905" lon="10.33628617">
        <ele>172.366</ele>
        <time>1970-01-01T01:00:00Z</time>
      </trkpt>
      <trkpt lat="63.4175895" lon="10.3362525">
        <ele>172.062</ele>
        <time>1970-01-01T01:00:00Z</time>
      </trkpt>
      <trkpt lat="63.4175855" lon="10.3362195">
        <ele>172.062</ele>
        <time>1970-01-01T01:00:00Z</time>
      </trkpt>
      <trkpt lat="63.417583" lon="10.33618533">
        <ele>171.604</ele>
        <time>1970-01-01T01:00:00Z</time>
      </trkpt>
      <trkpt lat="63.41758067" lon="10.33615217">
        <ele>171.604</ele>
        <time>1970-01-01T01:00:00Z</time>
      </trkpt>
      <trkpt lat="63.41758" lon="10.33611683">
        <ele>170.995</ele>
        <time>1970-01-01T01:00:00Z</time>
      </trkpt>
      <trkpt lat="63.41757733" lon="10.33608267">
        <ele>170.995</ele>
        <time>1970-01-01T01:00:00Z</time>
      </trkpt>
      <trkpt lat="63.41757517" lon="10.33604867">
        <ele>170.385</ele>
        <time>1970-01-01T01:00:00Z</time>
      </trkpt>
      <trkpt lat="63.41757283" lon="10.33601933">
        <ele>170.385</ele>
        <time>1970-01-01T01:00:00Z</time>
      </trkpt>
      <trkpt lat="63.41757283" lon="10.33599167">
        <ele>169.776</ele>
        <time>1970-01-01T01:00:00Z</time>
      </trkpt>
      <trkpt lat="63.417573" lon="10.33596267">
        <ele>169.776</ele>
        <time>1970-01-01T01:00:00Z</time>
      </trkpt>
      <trkpt lat="63.41757367" lon="10.33593083">
        <ele>169.166</ele>
        <time>1970-01-01T01:00:00Z</time>
      </trkpt>
      <trkpt lat="63.417573" lon="10.33590033">
        <ele>169.166</ele>
        <time>1970-01-01T01:00:00Z</time>
      </trkpt>
      <trkpt lat="63.4175715" lon="10.33587233">
        <ele>168.556</ele>
        <time>1970-01-01T01:00:00Z</time>
      </trkpt>
      <trkpt lat="63.4175685" lon="10.33584383">
        <ele>168.556</ele>
        <time>1970-01-01T01:00:00Z</time>
      </trkpt>
      <trkpt lat="63.41756767" lon="10.33581167">
        <ele>167.794</ele>
        <time>1970-01-01T01:00:00Z</time>
      </trkpt>
      <trkpt lat="63.41756817" lon="10.335779">
        <ele>167.794</ele>
        <time>1970-01-01T01:00:00Z</time>
      </trkpt>
      <trkpt lat="63.41756967" lon="10.33574683">
        <ele>167.185</ele>
        <time>1970-01-01T01:00:00Z</time>
      </trkpt>
      <trkpt lat="63.41756983" lon="10.33571617">
        <ele>167.185</ele>
        <time>1970-01-01T01:00:00Z</time>
      </trkpt>
      <trkpt lat="63.41757017" lon="10.33568483">
        <ele>166.575</ele>
        <time>1970-01-01T01:00:00Z</time>
      </trkpt>
      <trkpt lat="63.417572" lon="10.3356535">
        <ele>166.575</ele>
        <time>1970-01-01T01:00:00Z</time>
      </trkpt>
      <trkpt lat="63.41757433" lon="10.33562183">
        <ele>165.966</ele>
        <time>1970-01-01T01:00:00Z</time>
      </trkpt>
      <trkpt lat="63.4175745" lon="10.33558783">
        <ele>165.966</ele>
        <time>1970-01-01T01:00:00Z</time>
      </trkpt>
      <trkpt lat="63.4175735" lon="10.33555367">
        <ele>165.356</ele>
        <time>1970-01-01T01:00:00Z</time>
      </trkpt>
      <trkpt lat="63.41757" lon="10.3355215">
        <ele>165.356</ele>
        <time>1970-01-01T01:00:00Z</time>
      </trkpt>
      <trkpt lat="63.417566" lon="10.33549283">
        <ele>164.746</ele>
        <time>1970-01-01T01:00:00Z</time>
      </trkpt>
      <trkpt lat="63.41756217" lon="10.33546417">
        <ele>164.746</ele>
        <time>1970-01-01T01:00:00Z</time>
      </trkpt>
      <trkpt lat="63.41755717" lon="10.33543683">
        <ele>164.289</ele>
        <time>1970-01-01T01:00:00Z</time>
      </trkpt>
      <trkpt lat="63.41755217" lon="10.33540783">
        <ele>164.289</ele>
        <time>1970-01-01T01:00:00Z</time>
      </trkpt>
      <trkpt lat="63.41754817" lon="10.33537867">
        <ele>163.68</ele>
        <time>1970-01-01T01:00:00Z</time>
      </trkpt>
      <trkpt lat="63.41754567" lon="10.33534567">
        <ele>163.68</ele>
        <time>1970-01-01T01:00:00Z</time>
      </trkpt>
      <trkpt lat="63.41754317" lon="10.33531167">
        <ele>163.07</ele>
        <time>1970-01-01T01:00:00Z</time>
      </trkpt>
      <trkpt lat="63.41753667" lon="10.335277">
        <ele>163.07</ele>
        <time>1970-01-01T01:00:00Z</time>
      </trkpt>
      <trkpt lat="63.41753033" lon="10.3352395">
        <ele>162.308</ele>
        <time>1970-01-01T01:00:00Z</time>
      </trkpt>
      <trkpt lat="63.41752283" lon="10.33520083">
        <ele>162.308</ele>
        <time>1970-01-01T01:00:00Z</time>
      </trkpt>
      <trkpt lat="63.41751767" lon="10.33516533">
        <ele>161.546</ele>
        <time>1970-01-01T01:00:00Z</time>
      </trkpt>
      <trkpt lat="63.41751167" lon="10.3351315">
        <ele>161.546</ele>
        <time>1970-01-01T01:00:00Z</time>
      </trkpt>
      <trkpt lat="63.41750883" lon="10.33510033">
        <ele>160.936</ele>
        <time>1970-01-01T01:00:00Z</time>
      </trkpt>
      <trkpt lat="63.41750633" lon="10.33506833">
        <ele>160.936</ele>
        <time>1970-01-01T01:00:00Z</time>
      </trkpt>
      <trkpt lat="63.41750583" lon="10.335039">
        <ele>160.174</ele>
        <time>1970-01-01T01:00:00Z</time>
      </trkpt>
      <trkpt lat="63.41750533" lon="10.33500967">
        <ele>160.174</ele>
        <time>1970-01-01T01:00:00Z</time>
      </trkpt>
      <trkpt lat="63.417505" lon="10.33498067">
        <ele>159.717</ele>
        <time>1970-01-01T01:00:00Z</time>
      </trkpt>
      <trkpt lat="63.41750517" lon="10.33495333">
        <ele>159.717</ele>
        <time>1970-01-01T01:00:00Z</time>
      </trkpt>
      <trkpt lat="63.41750633" lon="10.33492383">
        <ele>159.26</ele>
        <time>1970-01-01T01:00:00Z</time>
      </trkpt>
      <trkpt lat="63.41750633" lon="10.33489467">
        <ele>159.26</ele>
        <time>1970-01-01T01:00:00Z</time>
      </trkpt>
      <trkpt lat="63.41750333" lon="10.33486367">
        <ele>158.803</ele>
        <time>1970-01-01T01:00:00Z</time>
      </trkpt>
      <trkpt lat="63.41749783" lon="10.3348345">
        <ele>158.803</ele>
        <time>1970-01-01T01:00:00Z</time>
      </trkpt>
      <trkpt lat="63.4174935" lon="10.33480633">
        <ele>158.498</ele>
        <time>1970-01-01T01:00:00Z</time>
      </trkpt>
      <trkpt lat="63.4174905" lon="10.3347775">
        <ele>158.498</ele>
        <time>1970-01-01T01:00:00Z</time>
      </trkpt>
      <trkpt lat="63.41748683" lon="10.33474883">
        <ele>158.346</ele>
        <time>1970-01-01T01:00:00Z</time>
      </trkpt>
      <trkpt lat="63.41748183" lon="10.33471683">
        <ele>158.346</ele>
        <time>1970-01-01T01:00:00Z</time>
      </trkpt>
      <trkpt lat="63.4174775" lon="10.33468617">
        <ele>158.193</ele>
        <time>1970-01-01T01:00:00Z</time>
      </trkpt>
      <trkpt lat="63.41747433" lon="10.334657">
        <ele>158.193</ele>
        <time>1970-01-01T01:00:00Z</time>
      </trkpt>
      <trkpt lat="63.41747233" lon="10.33462967">
        <ele>158.193</ele>
        <time>1970-01-01T01:00:00Z</time>
      </trkpt>
      <trkpt lat="63.41747017" lon="10.33460233">
        <ele>158.193</ele>
        <time>1970-01-01T01:00:00Z</time>
      </trkpt>
      <trkpt lat="63.417469" lon="10.3345755">
        <ele>158.193</ele>
        <time>1970-01-01T01:00:00Z</time>
      </trkpt>
      <trkpt lat="63.41746733" lon="10.33454917">
        <ele>158.193</ele>
        <time>1970-01-01T01:00:00Z</time>
      </trkpt>
      <trkpt lat="63.41746517" lon="10.334525">
        <ele>158.346</ele>
        <time>1970-01-01T01:00:00Z</time>
      </trkpt>
      <trkpt lat="63.41746283" lon="10.3344995">
        <ele>158.346</ele>
        <time>1970-01-01T01:00:00Z</time>
      </trkpt>
      <trkpt lat="63.41746067" lon="10.33447283">
        <ele>158.65</ele>
        <time>1970-01-01T01:00:00Z</time>
      </trkpt>
      <trkpt lat="63.41745833" lon="10.33444467">
        <ele>158.65</ele>
        <time>1970-01-01T01:00:00Z</time>
      </trkpt>
      <trkpt lat="63.4174555" lon="10.3344195">
        <ele>158.955</ele>
        <time>1970-01-01T01:00:00Z</time>
      </trkpt>
      <trkpt lat="63.41745383" lon="10.33439483">
        <ele>158.955</ele>
        <time>1970-01-01T01:00:00Z</time>
      </trkpt>
      <trkpt lat="63.41745333" lon="10.3343705">
        <ele>159.412</ele>
        <time>1970-01-01T01:00:00Z</time>
      </trkpt>
      <trkpt lat="63.41745383" lon="10.334346">
        <ele>159.412</ele>
        <time>1970-01-01T01:00:00Z</time>
      </trkpt>
      <trkpt lat="63.41745367" lon="10.334323">
        <ele>159.87</ele>
        <time>1970-01-01T01:00:00Z</time>
      </trkpt>
      <trkpt lat="63.4174545" lon="10.334297">
        <ele>159.87</ele>
        <time>1970-01-01T01:00:00Z</time>
      </trkpt>
      <trkpt lat="63.4174565" lon="10.33426767">
        <ele>160.632</ele>
        <time>1970-01-01T01:00:00Z</time>
      </trkpt>
      <trkpt lat="63.41745967" lon="10.33424">
        <ele>160.632</ele>
        <time>1970-01-01T01:00:00Z</time>
      </trkpt>
      <trkpt lat="63.41746217" lon="10.33421183">
        <ele>161.394</ele>
        <time>1970-01-01T01:00:00Z</time>
      </trkpt>
      <trkpt lat="63.417465" lon="10.33418667">
        <ele>161.394</ele>
        <time>1970-01-01T01:00:00Z</time>
      </trkpt>
      <trkpt lat="63.41746817" lon="10.33416183">
        <ele>162.156</ele>
        <time>1970-01-01T01:00:00Z</time>
      </trkpt>
      <trkpt lat="63.41747167" lon="10.334142">
        <ele>162.156</ele>
        <time>1970-01-01T01:00:00Z</time>
      </trkpt>
      <trkpt lat="63.41747467" lon="10.33412">
        <ele>163.07</ele>
        <time>1970-01-01T01:00:00Z</time>
      </trkpt>
      <trkpt lat="63.41747633" lon="10.334094">
        <ele>163.07</ele>
        <time>1970-01-01T01:00:00Z</time>
      </trkpt>
      <trkpt lat="63.41747783" lon="10.33406667">
        <ele>163.984</ele>
        <time>1970-01-01T01:00:00Z</time>
      </trkpt>
      <trkpt lat="63.41747933" lon="10.33403967">
        <ele>163.984</ele>
        <time>1970-01-01T01:00:00Z</time>
      </trkpt>
      <trkpt lat="63.41748317" lon="10.33401133">
        <ele>164.899</ele>
        <time>1970-01-01T01:00:00Z</time>
      </trkpt>
      <trkpt lat="63.41748733" lon="10.3339835">
        <ele>164.899</ele>
        <time>1970-01-01T01:00:00Z</time>
      </trkpt>
      <trkpt lat="63.41749283" lon="10.33395617">
        <ele>165.966</ele>
        <time>1970-01-01T01:00:00Z</time>
      </trkpt>
      <trkpt lat="63.41749817" lon="10.33393217">
        <ele>165.966</ele>
        <time>1970-01-01T01:00:00Z</time>
      </trkpt>
      <trkpt lat="63.4175065" lon="10.33390867">
        <ele>166.88</ele>
        <time>1970-01-01T01:00:00Z</time>
      </trkpt>
      <trkpt lat="63.41751583" lon="10.33388583">
        <ele>166.88</ele>
        <time>1970-01-01T01:00:00Z</time>
      </trkpt>
      <trkpt lat="63.41752467" lon="10.333863">
        <ele>167.794</ele>
        <time>1970-01-01T01:00:00Z</time>
      </trkpt>
      <trkpt lat="63.417531" lon="10.33383883">
        <ele>167.794</ele>
        <time>1970-01-01T01:00:00Z</time>
      </trkpt>
      <trkpt lat="63.41753733" lon="10.33381367">
        <ele>168.556</ele>
        <time>1970-01-01T01:00:00Z</time>
      </trkpt>
      <trkpt lat="63.41754367" lon="10.33379183">
        <ele>168.556</ele>
        <time>1970-01-01T01:00:00Z</time>
      </trkpt>
      <trkpt lat="63.41755033" lon="10.33377167">
        <ele>169.318</ele>
        <time>1970-01-01T01:00:00Z</time>
      </trkpt>
      <trkpt lat="63.41755517" lon="10.33375">
        <ele>169.318</ele>
        <time>1970-01-01T01:00:00Z</time>
      </trkpt>
      <trkpt lat="63.41755917" lon="10.33372217">
        <ele>170.08</ele>
        <time>1970-01-01T01:00:00Z</time>
      </trkpt>
      <trkpt lat="63.417563" lon="10.33368683">
        <ele>170.08</ele>
        <time>1970-01-01T01:00:00Z</time>
      </trkpt>
      <trkpt lat="63.4175655" lon="10.33365017">
        <ele>170.69</ele>
        <time>1970-01-01T01:00:00Z</time>
      </trkpt>
      <trkpt lat="63.41756933" lon="10.33361017">
        <ele>170.69</ele>
        <time>1970-01-01T01:00:00Z</time>
      </trkpt>
      <trkpt lat="63.41757233" lon="10.33357167">
        <ele>171.3</ele>
        <time>1970-01-01T01:00:00Z</time>
      </trkpt>
      <trkpt lat="63.4175765" lon="10.33353467">
        <ele>171.3</ele>
        <time>1970-01-01T01:00:00Z</time>
      </trkpt>
      <trkpt lat="63.417579" lon="10.33349983">
        <ele>171.452</ele>
        <time>1970-01-01T01:00:00Z</time>
      </trkpt>
      <trkpt lat="63.41758233" lon="10.33346833">
        <ele>171.452</ele>
        <time>1970-01-01T01:00:00Z</time>
      </trkpt>
      <trkpt lat="63.41758467" lon="10.3334355">
        <ele>171.604</ele>
        <time>1970-01-01T01:00:00Z</time>
      </trkpt>
      <trkpt lat="63.417585" lon="10.33340267">
        <ele>171.604</ele>
        <time>1970-01-01T01:00:00Z</time>
      </trkpt>
      <trkpt lat="63.41758433" lon="10.33336933">
        <ele>171.604</ele>
        <time>1970-01-01T01:00:00Z</time>
      </trkpt>
      <trkpt lat="63.41758317" lon="10.3333385">
        <ele>171.604</ele>
        <time>1970-01-01T01:00:00Z</time>
      </trkpt>
      <trkpt lat="63.4175815" lon="10.33330967">
        <ele>171.604</ele>
        <time>1970-01-01T01:00:00Z</time>
      </trkpt>
      <trkpt lat="63.417579" lon="10.33328033">
        <ele>171.604</ele>
        <time>1970-01-01T01:00:00Z</time>
      </trkpt>
      <trkpt lat="63.41757567" lon="10.33324683">
        <ele>171.604</ele>
        <time>1970-01-01T01:00:00Z</time>
      </trkpt>
      <trkpt lat="63.41757283" lon="10.33321033">
        <ele>171.604</ele>
        <time>1970-01-01T01:00:00Z</time>
      </trkpt>
      <trkpt lat="63.41757167" lon="10.33317633">
        <ele>171.604</ele>
        <time>1970-01-01T01:00:00Z</time>
      </trkpt>
      <trkpt lat="63.41757267" lon="10.3331435">
        <ele>171.604</ele>
        <time>1970-01-01T01:00:00Z</time>
      </trkpt>
      <trkpt lat="63.41757483" lon="10.3331115">
        <ele>171.452</ele>
        <time>1970-01-01T01:00:00Z</time>
      </trkpt>
      <trkpt lat="63.41757633" lon="10.33307783">
        <ele>171.452</ele>
        <time>1970-01-01T01:00:00Z</time>
      </trkpt>
      <trkpt lat="63.4175765" lon="10.33304567">
        <ele>171.452</ele>
        <time>1970-01-01T01:00:00Z</time>
      </trkpt>
      <trkpt lat="63.41757617" lon="10.33301533">
        <ele>171.452</ele>
        <time>1970-01-01T01:00:00Z</time>
      </trkpt>
      <trkpt lat="63.41757467" lon="10.33298617">
        <ele>171.3</ele>
        <time>1970-01-01T01:00:00Z</time>
      </trkpt>
      <trkpt lat="63.41757467" lon="10.332958">
        <ele>171.3</ele>
        <time>1970-01-01T01:00:00Z</time>
      </trkpt>
      <trkpt lat="63.41757483" lon="10.3329295">
        <ele>171.147</ele>
        <time>1970-01-01T01:00:00Z</time>
      </trkpt>
      <trkpt lat="63.41757417" lon="10.332902">
        <ele>171.147</ele>
        <time>1970-01-01T01:00:00Z</time>
      </trkpt>
      <trkpt lat="63.41757267" lon="10.33287083">
        <ele>171.147</ele>
        <time>1970-01-01T01:00:00Z</time>
      </trkpt>
      <trkpt lat="63.41756883" lon="10.33284067">
        <ele>171.147</ele>
        <time>1970-01-01T01:00:00Z</time>
      </trkpt>
      <trkpt lat="63.41756767" lon="10.33280967">
        <ele>170.995</ele>
        <time>1970-01-01T01:00:00Z</time>
      </trkpt>
      <trkpt lat="63.41756617" lon="10.33277967">
        <ele>170.995</ele>
        <time>1970-01-01T01:00:00Z</time>
      </trkpt>
      <trkpt lat="63.417567" lon="10.3327465">
        <ele>170.842</ele>
        <time>1970-01-01T01:00:00Z</time>
      </trkpt>
      <trkpt lat="63.41756683" lon="10.33271">
        <ele>170.842</ele>
        <time>1970-01-01T01:00:00Z</time>
      </trkpt>
      <trkpt lat="63.41756517" lon="10.3326745">
        <ele>170.69</ele>
        <time>1970-01-01T01:00:00Z</time>
      </trkpt>
      <trkpt lat="63.41756217" lon="10.3326405">
        <ele>170.69</ele>
        <time>1970-01-01T01:00:00Z</time>
      </trkpt>
      <trkpt lat="63.417559" lon="10.332606">
        <ele>170.69</ele>
        <time>1970-01-01T01:00:00Z</time>
      </trkpt>
      <trkpt lat="63.41755783" lon="10.33257017">
        <ele>170.69</ele>
        <time>1970-01-01T01:00:00Z</time>
      </trkpt>
      <trkpt lat="63.41755883" lon="10.332535">
        <ele>170.538</ele>
        <time>1970-01-01T01:00:00Z</time>
      </trkpt>
      <trkpt lat="63.41756117" lon="10.33250117">
        <ele>170.538</ele>
        <time>1970-01-01T01:00:00Z</time>
      </trkpt>
      <trkpt lat="63.41756433" lon="10.33247117">
        <ele>170.385</ele>
        <time>1970-01-01T01:00:00Z</time>
      </trkpt>
      <trkpt lat="63.41756733" lon="10.33244217">
        <ele>170.385</ele>
        <time>1970-01-01T01:00:00Z</time>
      </trkpt>
      <trkpt lat="63.41756967" lon="10.33241433">
        <ele>170.385</ele>
        <time>1970-01-01T01:00:00Z</time>
      </trkpt>
      <trkpt lat="63.41757233" lon="10.332385">
        <ele>170.385</ele>
        <time>1970-01-01T01:00:00Z</time>
      </trkpt>
      <trkpt lat="63.41757667" lon="10.33235083">
        <ele>170.233</ele>
        <time>1970-01-01T01:00:00Z</time>
      </trkpt>
      <trkpt lat="63.41758183" lon="10.33231817">
        <ele>170.233</ele>
        <time>1970-01-01T01:00:00Z</time>
      </trkpt>
      <trkpt lat="63.4175865" lon="10.3322885">
        <ele>170.233</ele>
        <time>1970-01-01T01:00:00Z</time>
      </trkpt>
      <trkpt lat="63.417589" lon="10.33226133">
        <ele>170.233</ele>
        <time>1970-01-01T01:00:00Z</time>
      </trkpt>
      <trkpt lat="63.41759083" lon="10.33223333">
        <ele>170.08</ele>
        <time>1970-01-01T01:00:00Z</time>
      </trkpt>
      <trkpt lat="63.417592" lon="10.33220083">
        <ele>170.08</ele>
        <time>1970-01-01T01:00:00Z</time>
      </trkpt>
      <trkpt lat="63.4175925" lon="10.33217117">
        <ele>170.08</ele>
        <time>1970-01-01T01:00:00Z</time>
      </trkpt>
      <trkpt lat="63.4175925" lon="10.3321415">
        <ele>170.08</ele>
        <time>1970-01-01T01:00:00Z</time>
      </trkpt>
      <trkpt lat="63.417594" lon="10.33211567">
        <ele>170.08</ele>
        <time>1970-01-01T01:00:00Z</time>
      </trkpt>
      <trkpt lat="63.41759667" lon="10.3320875">
        <ele>170.08</ele>
        <time>1970-01-01T01:00:00Z</time>
      </trkpt>
      <trkpt lat="63.41760133" lon="10.3320625">
        <ele>169.928</ele>
        <time>1970-01-01T01:00:00Z</time>
      </trkpt>
      <trkpt lat="63.41760517" lon="10.332036">
        <ele>169.928</ele>
        <time>1970-01-01T01:00:00Z</time>
      </trkpt>
      <trkpt lat="63.417608" lon="10.33201117">
        <ele>169.928</ele>
        <time>1970-01-01T01:00:00Z</time>
      </trkpt>
      <trkpt lat="63.41760917" lon="10.3319825">
        <ele>169.928</ele>
        <time>1970-01-01T01:00:00Z</time>
      </trkpt>
      <trkpt lat="63.4176095" lon="10.331954">
        <ele>169.928</ele>
        <time>1970-01-01T01:00:00Z</time>
      </trkpt>
      <trkpt lat="63.41761183" lon="10.33192517">
        <ele>169.928</ele>
        <time>1970-01-01T01:00:00Z</time>
      </trkpt>
      <trkpt lat="63.417615" lon="10.33189933">
        <ele>169.928</ele>
        <time>1970-01-01T01:00:00Z</time>
      </trkpt>
      <trkpt lat="63.41761717" lon="10.33187233">
        <ele>169.928</ele>
        <time>1970-01-01T01:00:00Z</time>
      </trkpt>
      <trkpt lat="63.41761783" lon="10.33184333">
        <ele>169.928</ele>
        <time>1970-01-01T01:00:00Z</time>
      </trkpt>
      <trkpt lat="63.41761817" lon="10.33181117">
        <ele>169.928</ele>
        <time>1970-01-01T01:00:00Z</time>
      </trkpt>
      <trkpt lat="63.41761933" lon="10.3317795">
        <ele>169.928</ele>
        <time>1970-01-01T01:00:00Z</time>
      </trkpt>
      <trkpt lat="63.41762233" lon="10.33174767">
        <ele>169.928</ele>
        <time>1970-01-01T01:00:00Z</time>
      </trkpt>
      <trkpt lat="63.41762567" lon="10.33171467">
        <ele>169.928</ele>
        <time>1970-01-01T01:00:00Z</time>
      </trkpt>
      <trkpt lat="63.417628" lon="10.33168033">
        <ele>169.928</ele>
        <time>1970-01-01T01:00:00Z</time>
      </trkpt>
      <trkpt lat="63.41762567" lon="10.33164517">
        <ele>169.928</ele>
        <time>1970-01-01T01:00:00Z</time>
      </trkpt>
      <trkpt lat="63.41762283" lon="10.3316145">
        <ele>169.928</ele>
        <time>1970-01-01T01:00:00Z</time>
      </trkpt>
      <trkpt lat="63.4176195" lon="10.33158867">
        <ele>169.928</ele>
        <time>1970-01-01T01:00:00Z</time>
      </trkpt>
      <trkpt lat="63.41761617" lon="10.33156367">
        <ele>169.928</ele>
        <time>1970-01-01T01:00:00Z</time>
      </trkpt>
      <trkpt lat="63.41761017" lon="10.331539">
        <ele>169.928</ele>
        <time>1970-01-01T01:00:00Z</time>
      </trkpt>
      <trkpt lat="63.41760367" lon="10.33150983">
        <ele>169.928</ele>
        <time>1970-01-01T01:00:00Z</time>
      </trkpt>
      <trkpt lat="63.41759917" lon="10.33148567">
        <ele>169.928</ele>
        <time>1970-01-01T01:00:00Z</time>
      </trkpt>
      <trkpt lat="63.41759467" lon="10.33146233">
        <ele>169.928</ele>
        <time>1970-01-01T01:00:00Z</time>
      </trkpt>
      <trkpt lat="63.4175885" lon="10.33144133">
        <ele>169.928</ele>
        <time>1970-01-01T01:00:00Z</time>
      </trkpt>
      <trkpt lat="63.4175835" lon="10.33142083">
        <ele>169.928</ele>
        <time>1970-01-01T01:00:00Z</time>
      </trkpt>
      <trkpt lat="63.41757917" lon="10.3313985">
        <ele>169.928</ele>
        <time>1970-01-01T01:00:00Z</time>
      </trkpt>
      <trkpt lat="63.417578" lon="10.33137417">
        <ele>169.928</ele>
        <time>1970-01-01T01:00:00Z</time>
      </trkpt>
      <trkpt lat="63.41757583" lon="10.33134517">
        <ele>169.928</ele>
        <time>1970-01-01T01:00:00Z</time>
      </trkpt>
      <trkpt lat="63.41757533" lon="10.33131067">
        <ele>169.928</ele>
        <time>1970-01-01T01:00:00Z</time>
      </trkpt>
      <trkpt lat="63.41757433" lon="10.33127467">
        <ele>169.928</ele>
        <time>1970-01-01T01:00:00Z</time>
      </trkpt>
      <trkpt lat="63.41757533" lon="10.3312405">
        <ele>169.928</ele>
        <time>1970-01-01T01:00:00Z</time>
      </trkpt>
      <trkpt lat="63.4175775" lon="10.331209">
        <ele>169.776</ele>
        <time>1970-01-01T01:00:00Z</time>
      </trkpt>
      <trkpt lat="63.41758183" lon="10.33118033">
        <ele>169.776</ele>
        <time>1970-01-01T01:00:00Z</time>
      </trkpt>
      <trkpt lat="63.4175865" lon="10.3311545">
        <ele>169.776</ele>
        <time>1970-01-01T01:00:00Z</time>
      </trkpt>
      <trkpt lat="63.4175905" lon="10.331133">
        <ele>169.776</ele>
        <time>1970-01-01T01:00:00Z</time>
      </trkpt>
      <trkpt lat="63.417595" lon="10.33111483">
        <ele>169.623</ele>
        <time>1970-01-01T01:00:00Z</time>
      </trkpt>
      <trkpt lat="63.41760033" lon="10.33110133">
        <ele>169.623</ele>
        <time>1970-01-01T01:00:00Z</time>
      </trkpt>
      <trkpt lat="63.41760783" lon="10.3310885">
        <ele>169.623</ele>
        <time>1970-01-01T01:00:00Z</time>
      </trkpt>
      <trkpt lat="63.417615" lon="10.33107533">
        <ele>169.623</ele>
        <time>1970-01-01T01:00:00Z</time>
      </trkpt>
      <trkpt lat="63.41762217" lon="10.33106133">
        <ele>169.471</ele>
        <time>1970-01-01T01:00:00Z</time>
      </trkpt>
      <trkpt lat="63.41763" lon="10.33104617">
        <ele>169.471</ele>
        <time>1970-01-01T01:00:00Z</time>
      </trkpt>
      <trkpt lat="63.4176385" lon="10.33102833">
        <ele>169.471</ele>
        <time>1970-01-01T01:00:00Z</time>
      </trkpt>
      <trkpt lat="63.41764683" lon="10.33100583">
        <ele>169.471</ele>
        <time>1970-01-01T01:00:00Z</time>
      </trkpt>
      <trkpt lat="63.41765417" lon="10.33098083">
        <ele>169.471</ele>
        <time>1970-01-01T01:00:00Z</time>
      </trkpt>
      <trkpt lat="63.41766033" lon="10.33096133">
        <ele>169.471</ele>
        <time>1970-01-01T01:00:00Z</time>
      </trkpt>
      <trkpt lat="63.41766617" lon="10.33094683">
        <ele>169.471</ele>
        <time>1970-01-01T01:00:00Z</time>
      </trkpt>
      <trkpt lat="63.41767067" lon="10.33093567">
        <ele>169.471</ele>
        <time>1970-01-01T01:00:00Z</time>
      </trkpt>
      <trkpt lat="63.417675" lon="10.3309165">
        <ele>169.318</ele>
        <time>1970-01-01T01:00:00Z</time>
      </trkpt>
      <trkpt lat="63.41767833" lon="10.3308885">
        <ele>169.318</ele>
        <time>1970-01-01T01:00:00Z</time>
      </trkpt>
      <trkpt lat="63.417682" lon="10.33085867">
        <ele>169.318</ele>
        <time>1970-01-01T01:00:00Z</time>
      </trkpt>
      <trkpt lat="63.4176855" lon="10.33083067">
        <ele>169.318</ele>
        <time>1970-01-01T01:00:00Z</time>
      </trkpt>
      <trkpt lat="63.41768833" lon="10.33080583">
        <ele>169.318</ele>
        <time>1970-01-01T01:00:00Z</time>
      </trkpt>
      <trkpt lat="63.41768983" lon="10.330779">
        <ele>169.318</ele>
        <time>1970-01-01T01:00:00Z</time>
      </trkpt>
      <trkpt lat="63.41769167" lon="10.330751">
        <ele>169.318</ele>
        <time>1970-01-01T01:00:00Z</time>
      </trkpt>
      <trkpt lat="63.41769333" lon="10.330725">
        <ele>169.318</ele>
        <time>1970-01-01T01:00:00Z</time>
      </trkpt>
      <trkpt lat="63.41769617" lon="10.3307005">
        <ele>169.318</ele>
        <time>1970-01-01T01:00:00Z</time>
      </trkpt>
      <trkpt lat="63.417698" lon="10.33067733">
        <ele>169.318</ele>
        <time>1970-01-01T01:00:00Z</time>
      </trkpt>
      <trkpt lat="63.41770067" lon="10.3306555">
        <ele>169.471</ele>
        <time>1970-01-01T01:00:00Z</time>
      </trkpt>
      <trkpt lat="63.41770267" lon="10.33063417">
        <ele>169.471</ele>
        <time>1970-01-01T01:00:00Z</time>
      </trkpt>
      <trkpt lat="63.41770617" lon="10.33061483">
        <ele>169.471</ele>
        <time>1970-01-01T01:00:00Z</time>
      </trkpt>
      <trkpt lat="63.41771083" lon="10.33059683">
        <ele>169.471</ele>
        <time>1970-01-01T01:00:00Z</time>
      </trkpt>
      <trkpt lat="63.41771533" lon="10.33058467">
        <ele>169.471</ele>
        <time>1970-01-01T01:00:00Z</time>
      </trkpt>
      <trkpt lat="63.41771917" lon="10.3305735">
        <ele>169.471</ele>
        <time>1970-01-01T01:00:00Z</time>
      </trkpt>
      <trkpt lat="63.41772333" lon="10.33055767">
        <ele>169.623</ele>
        <time>1970-01-01T01:00:00Z</time>
      </trkpt>
      <trkpt lat="63.41772717" lon="10.33053367">
        <ele>169.623</ele>
        <time>1970-01-01T01:00:00Z</time>
      </trkpt>
      <trkpt lat="63.41773017" lon="10.33050917">
        <ele>169.623</ele>
        <time>1970-01-01T01:00:00Z</time>
      </trkpt>
      <trkpt lat="63.41773167" lon="10.330486">
        <ele>169.623</ele>
        <time>1970-01-01T01:00:00Z</time>
      </trkpt>
      <trkpt lat="63.41773383" lon="10.33046767">
        <ele>169.776</ele>
        <time>1970-01-01T01:00:00Z</time>
      </trkpt>
      <trkpt lat="63.417737" lon="10.3304455">
        <ele>169.776</ele>
        <time>1970-01-01T01:00:00Z</time>
      </trkpt>
      <trkpt lat="63.4177425" lon="10.33042317">
        <ele>169.928</ele>
        <time>1970-01-01T01:00:00Z</time>
      </trkpt>
      <trkpt lat="63.41774817" lon="10.33039967">
        <ele>169.928</ele>
        <time>1970-01-01T01:00:00Z</time>
      </trkpt>
      <trkpt lat="63.41775333" lon="10.33037817">
        <ele>170.08</ele>
        <time>1970-01-01T01:00:00Z</time>
      </trkpt>
      <trkpt lat="63.4177575" lon="10.3303565">
        <ele>170.08</ele>
        <time>1970-01-01T01:00:00Z</time>
      </trkpt>
      <trkpt lat="63.417762" lon="10.3303335">
        <ele>170.233</ele>
        <time>1970-01-01T01:00:00Z</time>
      </trkpt>
      <trkpt lat="63.4177685" lon="10.330312">
        <ele>170.233</ele>
        <time>1970-01-01T01:00:00Z</time>
      </trkpt>
      <trkpt lat="63.41777417" lon="10.33029033">
        <ele>170.385</ele>
        <time>1970-01-01T01:00:00Z</time>
      </trkpt>
      <trkpt lat="63.41778" lon="10.33026833">
        <ele>170.385</ele>
        <time>1970-01-01T01:00:00Z</time>
      </trkpt>
      <trkpt lat="63.41778367" lon="10.33024267">
        <ele>170.538</ele>
        <time>1970-01-01T01:00:00Z</time>
      </trkpt>
      <trkpt lat="63.41778833" lon="10.33021617">
        <ele>170.538</ele>
        <time>1970-01-01T01:00:00Z</time>
      </trkpt>
      <trkpt lat="63.41779333" lon="10.33019017">
        <ele>170.69</ele>
        <time>1970-01-01T01:00:00Z</time>
      </trkpt>
      <trkpt lat="63.4178" lon="10.33016667">
        <ele>170.69</ele>
        <time>1970-01-01T01:00:00Z</time>
      </trkpt>
      <trkpt lat="63.41780633" lon="10.33014533">
        <ele>170.842</ele>
        <time>1970-01-01T01:00:00Z</time>
      </trkpt>
      <trkpt lat="63.417813" lon="10.3301275">
        <ele>170.842</ele>
        <time>1970-01-01T01:00:00Z</time>
      </trkpt>
      <trkpt lat="63.41781983" lon="10.33011117">
        <ele>171.147</ele>
        <time>1970-01-01T01:00:00Z</time>
      </trkpt>
      <trkpt lat="63.4178255" lon="10.330093">
        <ele>171.147</ele>
        <time>1970-01-01T01:00:00Z</time>
      </trkpt>
      <trkpt lat="63.41783117" lon="10.33007017">
        <ele>171.3</ele>
        <time>1970-01-01T01:00:00Z</time>
      </trkpt>
      <trkpt lat="63.41783683" lon="10.33004583">
        <ele>171.3</ele>
        <time>1970-01-01T01:00:00Z</time>
      </trkpt>
      <trkpt lat="63.41784283" lon="10.33002333">
        <ele>171.452</ele>
        <time>1970-01-01T01:00:00Z</time>
      </trkpt>
      <trkpt lat="63.41784817" lon="10.3300035">
        <ele>171.452</ele>
        <time>1970-01-01T01:00:00Z</time>
      </trkpt>
      <trkpt lat="63.41785317" lon="10.32998683">
        <ele>171.757</ele>
        <time>1970-01-01T01:00:00Z</time>
      </trkpt>
      <trkpt lat="63.41785933" lon="10.32997167">
        <ele>171.757</ele>
        <time>1970-01-01T01:00:00Z</time>
      </trkpt>
      <trkpt lat="63.41786967" lon="10.32995817">
        <ele>171.909</ele>
        <time>1970-01-01T01:00:00Z</time>
      </trkpt>
      <trkpt lat="63.41788217" lon="10.3299415">
        <ele>171.909</ele>
        <time>1970-01-01T01:00:00Z</time>
      </trkpt>
      <trkpt lat="63.41789617" lon="10.32992533">
        <ele>172.214</ele>
        <time>1970-01-01T01:00:00Z</time>
      </trkpt>
      <trkpt lat="63.41790683" lon="10.32990717">
        <ele>172.214</ele>
        <time>1970-01-01T01:00:00Z</time>
      </trkpt>
      <trkpt lat="63.41791667" lon="10.32989083">
        <ele>172.519</ele>
        <time>1970-01-01T01:00:00Z</time>
      </trkpt>
      <trkpt lat="63.41792583" lon="10.32987567">
        <ele>172.519</ele>
        <time>1970-01-01T01:00:00Z</time>
      </trkpt>
      <trkpt lat="63.41793617" lon="10.32986183">
        <ele>172.671</ele>
        <time>1970-01-01T01:00:00Z</time>
      </trkpt>
      <trkpt lat="63.41794567" lon="10.3298455">
        <ele>172.671</ele>
        <time>1970-01-01T01:00:00Z</time>
      </trkpt>
      <trkpt lat="63.41795517" lon="10.32982533">
        <ele>172.976</ele>
        <time>1970-01-01T01:00:00Z</time>
      </trkpt>
      <trkpt lat="63.41796317" lon="10.3298035">
        <ele>172.976</ele>
        <time>1970-01-01T01:00:00Z</time>
      </trkpt>
      <trkpt lat="63.41796917" lon="10.32978333">
        <ele>173.281</ele>
        <time>1970-01-01T01:00:00Z</time>
      </trkpt>
      <trkpt lat="63.41797433" lon="10.32976467">
        <ele>173.281</ele>
        <time>1970-01-01T01:00:00Z</time>
      </trkpt>
      <trkpt lat="63.41797833" lon="10.329746">
        <ele>173.586</ele>
        <time>1970-01-01T01:00:00Z</time>
      </trkpt>
      <trkpt lat="63.41798183" lon="10.3297235">
        <ele>173.586</ele>
        <time>1970-01-01T01:00:00Z</time>
      </trkpt>
      <trkpt lat="63.41798567" lon="10.32969567">
        <ele>173.891</ele>
        <time>1970-01-01T01:00:00Z</time>
      </trkpt>
      <trkpt lat="63.417989" lon="10.32966767">
        <ele>173.891</ele>
        <time>1970-01-01T01:00:00Z</time>
      </trkpt>
      <trkpt lat="63.41799383" lon="10.32964033">
        <ele>174.043</ele>
        <time>1970-01-01T01:00:00Z</time>
      </trkpt>
      <trkpt lat="63.4179985" lon="10.3296155">
        <ele>174.043</ele>
        <time>1970-01-01T01:00:00Z</time>
      </trkpt>
      <trkpt lat="63.4180015" lon="10.32958733">
        <ele>174.348</ele>
        <time>1970-01-01T01:00:00Z</time>
      </trkpt>
      <trkpt lat="63.41800383" lon="10.32955817">
        <ele>174.348</ele>
        <time>1970-01-01T01:00:00Z</time>
      </trkpt>
      <trkpt lat="63.418005" lon="10.32952917">
        <ele>174.653</ele>
        <time>1970-01-01T01:00:00Z</time>
      </trkpt>
      <trkpt lat="63.41800917" lon="10.32950167">
        <ele>174.653</ele>
        <time>1970-01-01T01:00:00Z</time>
      </trkpt>
      <trkpt lat="63.41801383" lon="10.329475">
        <ele>174.805</ele>
        <time>1970-01-01T01:00:00Z</time>
      </trkpt>
      <trkpt lat="63.418019" lon="10.32945133">
        <ele>174.805</ele>
        <time>1970-01-01T01:00:00Z</time>
      </trkpt>
      <trkpt lat="63.418023" lon="10.3294265">
        <ele>175.11</ele>
        <time>1970-01-01T01:00:00Z</time>
      </trkpt>
      <trkpt lat="63.4180255" lon="10.32939983">
        <ele>175.11</ele>
        <time>1970-01-01T01:00:00Z</time>
      </trkpt>
      <trkpt lat="63.4180265" lon="10.32936667">
        <ele>175.262</ele>
        <time>1970-01-01T01:00:00Z</time>
      </trkpt>
      <trkpt lat="63.41802683" lon="10.32933433">
        <ele>175.262</ele>
        <time>1970-01-01T01:00:00Z</time>
      </trkpt>
      <trkpt lat="63.4180265" lon="10.3293025">
        <ele>175.567</ele>
        <time>1970-01-01T01:00:00Z</time>
      </trkpt>
      <trkpt lat="63.41802667" lon="10.32926867">
        <ele>175.567</ele>
        <time>1970-01-01T01:00:00Z</time>
      </trkpt>
      <trkpt lat="63.41802617" lon="10.32923233">
        <ele>175.719</ele>
        <time>1970-01-01T01:00:00Z</time>
      </trkpt>
      <trkpt lat="63.41802633" lon="10.329196">
        <ele>175.719</ele>
        <time>1970-01-01T01:00:00Z</time>
      </trkpt>
      <trkpt lat="63.41802717" lon="10.32916167">
        <ele>176.024</ele>
        <time>1970-01-01T01:00:00Z</time>
      </trkpt>
      <trkpt lat="63.41802833" lon="10.32913067">
        <ele>176.024</ele>
        <time>1970-01-01T01:00:00Z</time>
      </trkpt>
      <trkpt lat="63.41803017" lon="10.3291">
        <ele>176.177</ele>
        <time>1970-01-01T01:00:00Z</time>
      </trkpt>
      <trkpt lat="63.41803133" lon="10.32907083">
        <ele>176.177</ele>
        <time>1970-01-01T01:00:00Z</time>
      </trkpt>
      <trkpt lat="63.41803317" lon="10.3290395">
        <ele>176.481</ele>
        <time>1970-01-01T01:00:00Z</time>
      </trkpt>
      <trkpt lat="63.4180355" lon="10.32900917">
        <ele>176.481</ele>
        <time>1970-01-01T01:00:00Z</time>
      </trkpt>
      <trkpt lat="63.41803783" lon="10.32898">
        <ele>176.634</ele>
        <time>1970-01-01T01:00:00Z</time>
      </trkpt>
      <trkpt lat="63.41804033" lon="10.3289545">
        <ele>176.634</ele>
        <time>1970-01-01T01:00:00Z</time>
      </trkpt>
      <trkpt lat="63.41804267" lon="10.32893067">
        <ele>176.939</ele>
        <time>1970-01-01T01:00:00Z</time>
      </trkpt>
      <trkpt lat="63.41804533" lon="10.32890383">
        <ele>176.939</ele>
        <time>1970-01-01T01:00:00Z</time>
      </trkpt>
      <trkpt lat="63.41804817" lon="10.32887233">
        <ele>177.091</ele>
        <time>1970-01-01T01:00:00Z</time>
      </trkpt>
      <trkpt lat="63.418053" lon="10.3288375">
        <ele>177.091</ele>
        <time>1970-01-01T01:00:00Z</time>
      </trkpt>
      <trkpt lat="63.41805817" lon="10.328808">
        <ele>177.243</ele>
        <time>1970-01-01T01:00:00Z</time>
      </trkpt>
      <trkpt lat="63.4180635" lon="10.32877933">
        <ele>177.243</ele>
        <time>1970-01-01T01:00:00Z</time>
      </trkpt>
      <trkpt lat="63.4180665" lon="10.32875083">
        <ele>177.548</ele>
        <time>1970-01-01T01:00:00Z</time>
      </trkpt>
      <trkpt lat="63.41807067" lon="10.3287205">
        <ele>177.548</ele>
        <time>1970-01-01T01:00:00Z</time>
      </trkpt>
      <trkpt lat="63.41807533" lon="10.32869067">
        <ele>177.701</ele>
        <time>1970-01-01T01:00:00Z</time>
      </trkpt>
      <trkpt lat="63.41808083" lon="10.32866117">
        <ele>177.701</ele>
        <time>1970-01-01T01:00:00Z</time>
      </trkpt>
      <trkpt lat="63.41808583" lon="10.3286345">
        <ele>177.853</ele>
        <time>1970-01-01T01:00:00Z</time>
      </trkpt>
      <trkpt lat="63.418091" lon="10.32861033">
        <ele>177.853</ele>
        <time>1970-01-01T01:00:00Z</time>
      </trkpt>
      <trkpt lat="63.41809433" lon="10.328582">
        <ele>178.005</ele>
        <time>1970-01-01T01:00:00Z</time>
      </trkpt>
      <trkpt lat="63.41809633" lon="10.32854917">
        <ele>178.005</ele>
        <time>1970-01-01T01:00:00Z</time>
      </trkpt>
      <trkpt lat="63.41809783" lon="10.32851333">
        <ele>178.31</ele>
        <time>1970-01-01T01:00:00Z</time>
      </trkpt>
      <trkpt lat="63.4181005" lon="10.32848283">
        <ele>178.31</ele>
        <time>1970-01-01T01:00:00Z</time>
      </trkpt>
      <trkpt lat="63.41810367" lon="10.3284525">
        <ele>178.463</ele>
        <time>1970-01-01T01:00:00Z</time>
      </trkpt>
      <trkpt lat="63.41810717" lon="10.32842317">
        <ele>178.463</ele>
        <time>1970-01-01T01:00:00Z</time>
      </trkpt>
      <trkpt lat="63.41811183" lon="10.32839367">
        <ele>178.615</ele>
        <time>1970-01-01T01:00:00Z</time>
      </trkpt>
      <trkpt lat="63.4181165" lon="10.32836583">
        <ele>178.615</ele>
        <time>1970-01-01T01:00:00Z</time>
      </trkpt>
      <trkpt lat="63.41812333" lon="10.3283385">
        <ele>178.767</ele>
        <time>1970-01-01T01:00:00Z</time>
      </trkpt>
      <trkpt lat="63.41813" lon="10.32831083">
        <ele>178.767</ele>
        <time>1970-01-01T01:00:00Z</time>
      </trkpt>
      <trkpt lat="63.41813483" lon="10.32828083">
        <ele>179.072</ele>
        <time>1970-01-01T01:00:00Z</time>
      </trkpt>
      <trkpt lat="63.41813733" lon="10.32825167">
        <ele>179.072</ele>
        <time>1970-01-01T01:00:00Z</time>
      </trkpt>
      <trkpt lat="63.41813867" lon="10.3282235">
        <ele>179.225</ele>
        <time>1970-01-01T01:00:00Z</time>
      </trkpt>
      <trkpt lat="63.41813917" lon="10.3281965">
        <ele>179.225</ele>
        <time>1970-01-01T01:00:00Z</time>
      </trkpt>
      <trkpt lat="63.41813917" lon="10.32816767">
        <ele>179.377</ele>
        <time>1970-01-01T01:00:00Z</time>
      </trkpt>
      <trkpt lat="63.418138" lon="10.32813933">
        <ele>179.377</ele>
        <time>1970-01-01T01:00:00Z</time>
      </trkpt>
      <trkpt lat="63.41813867" lon="10.32811367">
        <ele>179.682</ele>
        <time>1970-01-01T01:00:00Z</time>
      </trkpt>
      <trkpt lat="63.41814067" lon="10.32808767">
        <ele>179.682</ele>
        <time>1970-01-01T01:00:00Z</time>
      </trkpt>
      <trkpt lat="63.41814417" lon="10.3280635">
        <ele>179.834</ele>
        <time>1970-01-01T01:00:00Z</time>
      </trkpt>
      <trkpt lat="63.41814917" lon="10.32804167">
        <ele>179.834</ele>
        <time>1970-01-01T01:00:00Z</time>
      </trkpt>
      <trkpt lat="63.4181535" lon="10.32802567">
        <ele>180.139</ele>
        <time>1970-01-01T01:00:00Z</time>
      </trkpt>
      <trkpt lat="63.41815883" lon="10.32801167">
        <ele>180.139</ele>
        <time>1970-01-01T01:00:00Z</time>
      </trkpt>
      <trkpt lat="63.41816383" lon="10.32799533">
        <ele>180.291</ele>
        <time>1970-01-01T01:00:00Z</time>
      </trkpt>
      <trkpt lat="63.41816967" lon="10.32797567">
        <ele>180.291</ele>
        <time>1970-01-01T01:00:00Z</time>
      </trkpt>
      <trkpt lat="63.41817317" lon="10.32795383">
        <ele>180.596</ele>
        <time>1970-01-01T01:00:00Z</time>
      </trkpt>
      <trkpt lat="63.41817967" lon="10.32793417">
        <ele>180.596</ele>
        <time>1970-01-01T01:00:00Z</time>
      </trkpt>
      <trkpt lat="63.418187" lon="10.32791567">
        <ele>180.901</ele>
        <time>1970-01-01T01:00:00Z</time>
      </trkpt>
      <trkpt lat="63.418197" lon="10.32789683">
        <ele>180.901</ele>
        <time>1970-01-01T01:00:00Z</time>
      </trkpt>
      <trkpt lat="63.41820467" lon="10.32788033">
        <ele>181.206</ele>
        <time>1970-01-01T01:00:00Z</time>
      </trkpt>
      <trkpt lat="63.418211" lon="10.32786533">
        <ele>181.206</ele>
        <time>1970-01-01T01:00:00Z</time>
      </trkpt>
      <trkpt lat="63.418211" lon="10.32785117">
        <ele>181.358</ele>
        <time>1970-01-01T01:00:00Z</time>
      </trkpt>
      <trkpt lat="63.41820967" lon="10.32783333">
        <ele>181.358</ele>
        <time>1970-01-01T01:00:00Z</time>
      </trkpt>
      <trkpt lat="63.41820833" lon="10.327813">
        <ele>181.663</ele>
        <time>1970-01-01T01:00:00Z</time>
      </trkpt>
      <trkpt lat="63.41821167" lon="10.32779133">
        <ele>181.663</ele>
        <time>1970-01-01T01:00:00Z</time>
      </trkpt>
      <trkpt lat="63.418217" lon="10.327768">
        <ele>181.968</ele>
        <time>1970-01-01T01:00:00Z</time>
      </trkpt>
      <trkpt lat="63.4182215" lon="10.3277445">
        <ele>181.968</ele>
        <time>1970-01-01T01:00:00Z</time>
      </trkpt>
      <trkpt lat="63.4182195" lon="10.32772567">
        <ele>182.273</ele>
        <time>1970-01-01T01:00:00Z</time>
      </trkpt>
      <trkpt lat="63.41821583" lon="10.32770917">
        <ele>182.273</ele>
        <time>1970-01-01T01:00:00Z</time>
      </trkpt>
      <trkpt lat="63.418213" lon="10.32769133">
        <ele>182.577</ele>
        <time>1970-01-01T01:00:00Z</time>
      </trkpt>
      <trkpt lat="63.4182205" lon="10.32766883">
        <ele>182.577</ele>
        <time>1970-01-01T01:00:00Z</time>
      </trkpt>
      <trkpt lat="63.41822967" lon="10.32764133">
        <ele>182.882</ele>
        <time>1970-01-01T01:00:00Z</time>
      </trkpt>
      <trkpt lat="63.41823967" lon="10.32761683">
        <ele>182.882</ele>
        <time>1970-01-01T01:00:00Z</time>
      </trkpt>
      <trkpt lat="63.41824517" lon="10.32759">
        <ele>183.187</ele>
        <time>1970-01-01T01:00:00Z</time>
      </trkpt>
      <trkpt lat="63.418251" lon="10.3275645">
        <ele>183.187</ele>
        <time>1970-01-01T01:00:00Z</time>
      </trkpt>
      <trkpt lat="63.41825617" lon="10.32753917">
        <ele>183.492</ele>
        <time>1970-01-01T01:00:00Z</time>
      </trkpt>
      <trkpt lat="63.41826333" lon="10.32751217">
        <ele>183.492</ele>
        <time>1970-01-01T01:00:00Z</time>
      </trkpt>
      <trkpt lat="63.4182695" lon="10.32748317">
        <ele>183.644</ele>
        <time>1970-01-01T01:00:00Z</time>
      </trkpt>
      <trkpt lat="63.41827817" lon="10.32745233">
        <ele>183.644</ele>
        <time>1970-01-01T01:00:00Z</time>
      </trkpt>
      <trkpt lat="63.41828833" lon="10.32742417">
        <ele>183.949</ele>
        <time>1970-01-01T01:00:00Z</time>
      </trkpt>
      <trkpt lat="63.4183005" lon="10.327399">
        <ele>183.949</ele>
        <time>1970-01-01T01:00:00Z</time>
      </trkpt>
      <trkpt lat="63.418312" lon="10.327373">
        <ele>184.254</ele>
        <time>1970-01-01T01:00:00Z</time>
      </trkpt>
      <trkpt lat="63.41832317" lon="10.32734983">
        <ele>184.254</ele>
        <time>1970-01-01T01:00:00Z</time>
      </trkpt>
      <trkpt lat="63.41833783" lon="10.32733">
        <ele>184.559</ele>
        <time>1970-01-01T01:00:00Z</time>
      </trkpt>
      <trkpt lat="63.41835283" lon="10.32731567">
        <ele>184.559</ele>
        <time>1970-01-01T01:00:00Z</time>
      </trkpt>
      <trkpt lat="63.41836733" lon="10.32730367">
        <ele>184.863</ele>
        <time>1970-01-01T01:00:00Z</time>
      </trkpt>
      <trkpt lat="63.41837917" lon="10.327293">
        <ele>184.863</ele>
        <time>1970-01-01T01:00:00Z</time>
      </trkpt>
      <trkpt lat="63.41838867" lon="10.3272815">
        <ele>185.168</ele>
        <time>1970-01-01T01:00:00Z</time>
      </trkpt>
      <trkpt lat="63.4183965" lon="10.32727033">
        <ele>185.168</ele>
        <time>1970-01-01T01:00:00Z</time>
      </trkpt>
      <trkpt lat="63.41840183" lon="10.3272575">
        <ele>185.473</ele>
        <time>1970-01-01T01:00:00Z</time>
      </trkpt>
      <trkpt lat="63.41840683" lon="10.32724517">
        <ele>185.473</ele>
        <time>1970-01-01T01:00:00Z</time>
      </trkpt>
      <trkpt lat="63.41841467" lon="10.32723033">
        <ele>185.778</ele>
        <time>1970-01-01T01:00:00Z</time>
      </trkpt>
      <trkpt lat="63.41842367" lon="10.32721517">
        <ele>185.778</ele>
        <time>1970-01-01T01:00:00Z</time>
      </trkpt>
      <trkpt lat="63.418433" lon="10.32719317">
        <ele>186.083</ele>
        <time>1970-01-01T01:00:00Z</time>
      </trkpt>
      <trkpt lat="63.4184405" lon="10.32716983">
        <ele>186.083</ele>
        <time>1970-01-01T01:00:00Z</time>
      </trkpt>
      <trkpt lat="63.41844867" lon="10.32714783">
        <ele>186.387</ele>
        <time>1970-01-01T01:00:00Z</time>
      </trkpt>
      <trkpt lat="63.41845717" lon="10.32712917">
        <ele>186.387</ele>
        <time>1970-01-01T01:00:00Z</time>
      </trkpt>
      <trkpt lat="63.41846583" lon="10.32711333">
        <ele>186.692</ele>
        <time>1970-01-01T01:00:00Z</time>
      </trkpt>
      <trkpt lat="63.418473" lon="10.32709567">
        <ele>186.692</ele>
        <time>1970-01-01T01:00:00Z</time>
      </trkpt>
      <trkpt lat="63.41848283" lon="10.32707717">
        <ele>186.997</ele>
        <time>1970-01-01T01:00:00Z</time>
      </trkpt>
      <trkpt lat="63.41849183" lon="10.32705533">
        <ele>186.997</ele>
        <time>1970-01-01T01:00:00Z</time>
      </trkpt>
      <trkpt lat="63.41850067" lon="10.32703183">
        <ele>187.302</ele>
        <time>1970-01-01T01:00:00Z</time>
      </trkpt>
      <trkpt lat="63.41850533" lon="10.32701133">
        <ele>187.302</ele>
        <time>1970-01-01T01:00:00Z</time>
      </trkpt>
      <trkpt lat="63.41850717" lon="10.32699283">
        <ele>187.454</ele>
        <time>1970-01-01T01:00:00Z</time>
      </trkpt>
      <trkpt lat="63.41850867" lon="10.32697333">
        <ele>187.454</ele>
        <time>1970-01-01T01:00:00Z</time>
      </trkpt>
      <trkpt lat="63.41851217" lon="10.326953">
        <ele>187.759</ele>
        <time>1970-01-01T01:00:00Z</time>
      </trkpt>
      <trkpt lat="63.41851817" lon="10.326926">
        <ele>187.759</ele>
        <time>1970-01-01T01:00:00Z</time>
      </trkpt>
      <trkpt lat="63.41852333" lon="10.32690083">
        <ele>187.911</ele>
        <time>1970-01-01T01:00:00Z</time>
      </trkpt>
      <trkpt lat="63.41852683" lon="10.3268745">
        <ele>187.911</ele>
        <time>1970-01-01T01:00:00Z</time>
      </trkpt>
      <trkpt lat="63.41853283" lon="10.32685333">
        <ele>188.064</ele>
        <time>1970-01-01T01:00:00Z</time>
      </trkpt>
      <trkpt lat="63.418542" lon="10.32683633">
        <ele>188.064</ele>
        <time>1970-01-01T01:00:00Z</time>
      </trkpt>
      <trkpt lat="63.4185515" lon="10.32682283">
        <ele>188.216</ele>
        <time>1970-01-01T01:00:00Z</time>
      </trkpt>
      <trkpt lat="63.41856267" lon="10.3268105">
        <ele>188.216</ele>
        <time>1970-01-01T01:00:00Z</time>
      </trkpt>
      <trkpt lat="63.41857233" lon="10.32679567">
        <ele>188.369</ele>
        <time>1970-01-01T01:00:00Z</time>
      </trkpt>
      <trkpt lat="63.41858233" lon="10.326779">
        <ele>188.369</ele>
        <time>1970-01-01T01:00:00Z</time>
      </trkpt>
      <trkpt lat="63.418591" lon="10.326763">
        <ele>188.521</ele>
        <time>1970-01-01T01:00:00Z</time>
      </trkpt>
      <trkpt lat="63.41860033" lon="10.32674817">
        <ele>188.521</ele>
        <time>1970-01-01T01:00:00Z</time>
      </trkpt>
      <trkpt lat="63.41861167" lon="10.32673583">
        <ele>188.673</ele>
        <time>1970-01-01T01:00:00Z</time>
      </trkpt>
      <trkpt lat="63.41862267" lon="10.32672667">
        <ele>188.673</ele>
        <time>1970-01-01T01:00:00Z</time>
      </trkpt>
      <trkpt lat="63.4186335" lon="10.32671917">
        <ele>188.826</ele>
        <time>1970-01-01T01:00:00Z</time>
      </trkpt>
      <trkpt lat="63.41864183" lon="10.32670983">
        <ele>188.826</ele>
        <time>1970-01-01T01:00:00Z</time>
      </trkpt>
      <trkpt lat="63.418651" lon="10.3266895">
        <ele>188.978</ele>
        <time>1970-01-01T01:00:00Z</time>
      </trkpt>
      <trkpt lat="63.4186595" lon="10.3266665">
        <ele>188.978</ele>
        <time>1970-01-01T01:00:00Z</time>
      </trkpt>
      <trkpt lat="63.41867017" lon="10.3266395">
        <ele>188.978</ele>
        <time>1970-01-01T01:00:00Z</time>
      </trkpt>
      <trkpt lat="63.41867967" lon="10.3266185">
        <ele>188.978</ele>
        <time>1970-01-01T01:00:00Z</time>
      </trkpt>
      <trkpt lat="63.41868883" lon="10.326598">
        <ele>189.131</ele>
        <time>1970-01-01T01:00:00Z</time>
      </trkpt>
      <trkpt lat="63.4186965" lon="10.32658">
        <ele>189.131</ele>
        <time>1970-01-01T01:00:00Z</time>
      </trkpt>
      <trkpt lat="63.418704" lon="10.326564">
        <ele>189.283</ele>
        <time>1970-01-01T01:00:00Z</time>
      </trkpt>
      <trkpt lat="63.4187145" lon="10.32654583">
        <ele>189.283</ele>
        <time>1970-01-01T01:00:00Z</time>
      </trkpt>
      <trkpt lat="63.418726" lon="10.32653067">
        <ele>189.436</ele>
        <time>1970-01-01T01:00:00Z</time>
      </trkpt>
      <trkpt lat="63.41873683" lon="10.3265135">
        <ele>189.436</ele>
        <time>1970-01-01T01:00:00Z</time>
      </trkpt>
      <trkpt lat="63.418744" lon="10.32649567">
        <ele>189.436</ele>
        <time>1970-01-01T01:00:00Z</time>
      </trkpt>
      <trkpt lat="63.418751" lon="10.3264745">
        <ele>189.436</ele>
        <time>1970-01-01T01:00:00Z</time>
      </trkpt>
      <trkpt lat="63.4187585" lon="10.32645367">
        <ele>189.588</ele>
        <time>1970-01-01T01:00:00Z</time>
      </trkpt>
      <trkpt lat="63.4187665" lon="10.32643633">
        <ele>189.588</ele>
        <time>1970-01-01T01:00:00Z</time>
      </trkpt>
      <trkpt lat="63.41877483" lon="10.32642333">
        <ele>189.74</ele>
        <time>1970-01-01T01:00:00Z</time>
      </trkpt>
      <trkpt lat="63.41878533" lon="10.32641">
        <ele>189.74</ele>
        <time>1970-01-01T01:00:00Z</time>
      </trkpt>
      <trkpt lat="63.41879517" lon="10.32639817">
        <ele>189.893</ele>
        <time>1970-01-01T01:00:00Z</time>
      </trkpt>
      <trkpt lat="63.41880433" lon="10.32638267">
        <ele>189.893</ele>
        <time>1970-01-01T01:00:00Z</time>
      </trkpt>
      <trkpt lat="63.41881217" lon="10.32636917">
        <ele>190.045</ele>
        <time>1970-01-01T01:00:00Z</time>
      </trkpt>
      <trkpt lat="63.41882133" lon="10.32635583">
        <ele>190.045</ele>
        <time>1970-01-01T01:00:00Z</time>
      </trkpt>
      <trkpt lat="63.41883" lon="10.3263445">
        <ele>190.198</ele>
        <time>1970-01-01T01:00:00Z</time>
      </trkpt>
      <trkpt lat="63.4188395" lon="10.3263365">
        <ele>190.198</ele>
        <time>1970-01-01T01:00:00Z</time>
      </trkpt>
      <trkpt lat="63.41885167" lon="10.32632983">
        <ele>190.35</ele>
        <time>1970-01-01T01:00:00Z</time>
      </trkpt>
      <trkpt lat="63.41886717" lon="10.3263255">
        <ele>190.35</ele>
        <time>1970-01-01T01:00:00Z</time>
      </trkpt>
      <trkpt lat="63.41888267" lon="10.3263185">
        <ele>190.502</ele>
        <time>1970-01-01T01:00:00Z</time>
      </trkpt>
      <trkpt lat="63.418898" lon="10.3263115">
        <ele>190.502</ele>
        <time>1970-01-01T01:00:00Z</time>
      </trkpt>
      <trkpt lat="63.41890967" lon="10.32630283">
        <ele>190.655</ele>
        <time>1970-01-01T01:00:00Z</time>
      </trkpt>
      <trkpt lat="63.41892" lon="10.32629533">
        <ele>190.655</ele>
        <time>1970-01-01T01:00:00Z</time>
      </trkpt>
      <trkpt lat="63.418929" lon="10.32628883">
        <ele>190.96</ele>
        <time>1970-01-01T01:00:00Z</time>
      </trkpt>
      <trkpt lat="63.41894033" lon="10.32628467">
        <ele>190.96</ele>
        <time>1970-01-01T01:00:00Z</time>
      </trkpt>
      <trkpt lat="63.41895167" lon="10.32628217">
        <ele>191.112</ele>
        <time>1970-01-01T01:00:00Z</time>
      </trkpt>
      <trkpt lat="63.41896383" lon="10.32627917">
        <ele>191.112</ele>
        <time>1970-01-01T01:00:00Z</time>
      </trkpt>
      <trkpt lat="63.41897533" lon="10.32627583">
        <ele>191.264</ele>
        <time>1970-01-01T01:00:00Z</time>
      </trkpt>
      <trkpt lat="63.41898683" lon="10.3262735">
        <ele>191.264</ele>
        <time>1970-01-01T01:00:00Z</time>
      </trkpt>
      <trkpt lat="63.41899717" lon="10.32627117">
        <ele>191.417</ele>
        <time>1970-01-01T01:00:00Z</time>
      </trkpt>
      <trkpt lat="63.4190085" lon="10.32627067">
        <ele>191.417</ele>
        <time>1970-01-01T01:00:00Z</time>
      </trkpt>
      <trkpt lat="63.41902617" lon="10.32627017">
        <ele>191.569</ele>
        <time>1970-01-01T01:00:00Z</time>
      </trkpt>
      <trkpt lat="63.4190455" lon="10.326272">
        <ele>191.569</ele>
        <time>1970-01-01T01:00:00Z</time>
      </trkpt>
      <trkpt lat="63.41906533" lon="10.32627383">
        <ele>191.722</ele>
        <time>1970-01-01T01:00:00Z</time>
      </trkpt>
      <trkpt lat="63.4190805" lon="10.32627867">
        <ele>191.722</ele>
        <time>1970-01-01T01:00:00Z</time>
      </trkpt>
      <trkpt lat="63.41909467" lon="10.3262825">
        <ele>191.874</ele>
        <time>1970-01-01T01:00:00Z</time>
      </trkpt>
      <trkpt lat="63.4191075" lon="10.32628717">
        <ele>191.874</ele>
        <time>1970-01-01T01:00:00Z</time>
      </trkpt>
      <trkpt lat="63.41912117" lon="10.32629167">
        <ele>192.026</ele>
        <time>1970-01-01T01:00:00Z</time>
      </trkpt>
      <trkpt lat="63.41913483" lon="10.32629733">
        <ele>192.026</ele>
        <time>1970-01-01T01:00:00Z</time>
      </trkpt>
      <trkpt lat="63.41914817" lon="10.32630133">
        <ele>192.026</ele>
        <time>1970-01-01T01:00:00Z</time>
      </trkpt>
      <trkpt lat="63.4191595" lon="10.32630533">
        <ele>192.026</ele>
        <time>1970-01-01T01:00:00Z</time>
      </trkpt>
      <trkpt lat="63.41916917" lon="10.32631017">
        <ele>192.026</ele>
        <time>1970-01-01T01:00:00Z</time>
      </trkpt>
      <trkpt lat="63.41917883" lon="10.32631633">
        <ele>192.026</ele>
        <time>1970-01-01T01:00:00Z</time>
      </trkpt>
      <trkpt lat="63.41918783" lon="10.326321">
        <ele>192.179</ele>
        <time>1970-01-01T01:00:00Z</time>
      </trkpt>
      <trkpt lat="63.4191965" lon="10.32632367">
        <ele>192.179</ele>
        <time>1970-01-01T01:00:00Z</time>
      </trkpt>
      <trkpt lat="63.41920817" lon="10.32632667">
        <ele>192.179</ele>
        <time>1970-01-01T01:00:00Z</time>
      </trkpt>
      <trkpt lat="63.419222" lon="10.3263275">
        <ele>192.179</ele>
        <time>1970-01-01T01:00:00Z</time>
      </trkpt>
      <trkpt lat="63.41923717" lon="10.32632783">
        <ele>192.179</ele>
        <time>1970-01-01T01:00:00Z</time>
      </trkpt>
      <trkpt lat="63.419248" lon="10.3263275">
        <ele>192.179</ele>
        <time>1970-01-01T01:00:00Z</time>
      </trkpt>
      <trkpt lat="63.41925817" lon="10.32632483">
        <ele>192.179</ele>
        <time>1970-01-01T01:00:00Z</time>
      </trkpt>
      <trkpt lat="63.41926767" lon="10.3263245">
        <ele>192.179</ele>
        <time>1970-01-01T01:00:00Z</time>
      </trkpt>
      <trkpt lat="63.41927783" lon="10.32632433">
        <ele>192.179</ele>
        <time>1970-01-01T01:00:00Z</time>
      </trkpt>
      <trkpt lat="63.41928833" lon="10.32633167">
        <ele>192.179</ele>
        <time>1970-01-01T01:00:00Z</time>
      </trkpt>
      <trkpt lat="63.419299" lon="10.326338">
        <ele>192.179</ele>
        <time>1970-01-01T01:00:00Z</time>
      </trkpt>
      <trkpt lat="63.41931233" lon="10.3263425">
        <ele>192.179</ele>
        <time>1970-01-01T01:00:00Z</time>
      </trkpt>
      <trkpt lat="63.41932583" lon="10.32634433">
        <ele>192.179</ele>
        <time>1970-01-01T01:00:00Z</time>
      </trkpt>
      <trkpt lat="63.41934283" lon="10.32634683">
        <ele>192.179</ele>
        <time>1970-01-01T01:00:00Z</time>
      </trkpt>
      <trkpt lat="63.41935917" lon="10.32635167">
        <ele>192.179</ele>
        <time>1970-01-01T01:00:00Z</time>
      </trkpt>
      <trkpt lat="63.4193745" lon="10.32635683">
        <ele>192.179</ele>
        <time>1970-01-01T01:00:00Z</time>
      </trkpt>
      <trkpt lat="63.41938883" lon="10.32636217">
        <ele>192.179</ele>
        <time>1970-01-01T01:00:00Z</time>
      </trkpt>
      <trkpt lat="63.41940267" lon="10.32636933">
        <ele>192.179</ele>
        <time>1970-01-01T01:00:00Z</time>
      </trkpt>
      <trkpt lat="63.4194175" lon="10.32637533">
        <ele>192.179</ele>
        <time>1970-01-01T01:00:00Z</time>
      </trkpt>
      <trkpt lat="63.41943117" lon="10.326379">
        <ele>192.179</ele>
        <time>1970-01-01T01:00:00Z</time>
      </trkpt>
      <trkpt lat="63.41944283" lon="10.3263845">
        <ele>192.179</ele>
        <time>1970-01-01T01:00:00Z</time>
      </trkpt>
      <trkpt lat="63.41945417" lon="10.32639733">
        <ele>192.179</ele>
        <time>1970-01-01T01:00:00Z</time>
      </trkpt>
      <trkpt lat="63.41946517" lon="10.32641583">
        <ele>192.179</ele>
        <time>1970-01-01T01:00:00Z</time>
      </trkpt>
      <trkpt lat="63.41947667" lon="10.3264325">
        <ele>192.179</ele>
        <time>1970-01-01T01:00:00Z</time>
      </trkpt>
      <trkpt lat="63.41948633" lon="10.32644633">
        <ele>192.179</ele>
        <time>1970-01-01T01:00:00Z</time>
      </trkpt>
      <trkpt lat="63.41949483" lon="10.32646117">
        <ele>192.179</ele>
        <time>1970-01-01T01:00:00Z</time>
      </trkpt>
      <trkpt lat="63.4195045" lon="10.3264785">
        <ele>192.026</ele>
        <time>1970-01-01T01:00:00Z</time>
      </trkpt>
      <trkpt lat="63.419514" lon="10.3264975">
        <ele>192.026</ele>
        <time>1970-01-01T01:00:00Z</time>
      </trkpt>
      <trkpt lat="63.41952617" lon="10.32651333">
        <ele>192.026</ele>
        <time>1970-01-01T01:00:00Z</time>
      </trkpt>
      <trkpt lat="63.419537" lon="10.32652633">
        <ele>192.026</ele>
        <time>1970-01-01T01:00:00Z</time>
      </trkpt>
      <trkpt lat="63.4195495" lon="10.32653433">
        <ele>191.874</ele>
        <time>1970-01-01T01:00:00Z</time>
      </trkpt>
      <trkpt lat="63.41956033" lon="10.3265425">
        <ele>191.874</ele>
        <time>1970-01-01T01:00:00Z</time>
      </trkpt>
      <trkpt lat="63.41957067" lon="10.32655067">
        <ele>191.874</ele>
        <time>1970-01-01T01:00:00Z</time>
      </trkpt>
      <trkpt lat="63.41958083" lon="10.32656317">
        <ele>191.874</ele>
        <time>1970-01-01T01:00:00Z</time>
      </trkpt>
      <trkpt lat="63.41959033" lon="10.32657517">
        <ele>191.874</ele>
        <time>1970-01-01T01:00:00Z</time>
      </trkpt>
      <trkpt lat="63.41960183" lon="10.32658967">
        <ele>191.874</ele>
        <time>1970-01-01T01:00:00Z</time>
      </trkpt>
      <trkpt lat="63.4196115" lon="10.32660333">
        <ele>191.722</ele>
        <time>1970-01-01T01:00:00Z</time>
      </trkpt>
      <trkpt lat="63.41962283" lon="10.32661883">
        <ele>191.722</ele>
        <time>1970-01-01T01:00:00Z</time>
      </trkpt>
      <trkpt lat="63.41963267" lon="10.326629">
        <ele>191.722</ele>
        <time>1970-01-01T01:00:00Z</time>
      </trkpt>
      <trkpt lat="63.419641" lon="10.326641">
        <ele>191.722</ele>
        <time>1970-01-01T01:00:00Z</time>
      </trkpt>
      <trkpt lat="63.41964567" lon="10.3266555">
        <ele>191.569</ele>
        <time>1970-01-01T01:00:00Z</time>
      </trkpt>
      <trkpt lat="63.4196505" lon="10.32667183">
        <ele>191.569</ele>
        <time>1970-01-01T01:00:00Z</time>
      </trkpt>
      <trkpt lat="63.41965883" lon="10.32668317">
        <ele>191.569</ele>
        <time>1970-01-01T01:00:00Z</time>
      </trkpt>
      <trkpt lat="63.41967383" lon="10.3266915">
        <ele>191.569</ele>
        <time>1970-01-01T01:00:00Z</time>
      </trkpt>
      <trkpt lat="63.4196905" lon="10.32670233">
        <ele>191.417</ele>
        <time>1970-01-01T01:00:00Z</time>
      </trkpt>
      <trkpt lat="63.4197055" lon="10.32671733">
        <ele>191.417</ele>
        <time>1970-01-01T01:00:00Z</time>
      </trkpt>
      <trkpt lat="63.41971733" lon="10.32673567">
        <ele>191.264</ele>
        <time>1970-01-01T01:00:00Z</time>
      </trkpt>
      <trkpt lat="63.419728" lon="10.32675317">
        <ele>191.264</ele>
        <time>1970-01-01T01:00:00Z</time>
      </trkpt>
      <trkpt lat="63.41973733" lon="10.32677033">
        <ele>191.264</ele>
        <time>1970-01-01T01:00:00Z</time>
      </trkpt>
      <trkpt lat="63.4197445" lon="10.3267865">
        <ele>191.264</ele>
        <time>1970-01-01T01:00:00Z</time>
      </trkpt>
      <trkpt lat="63.419751" lon="10.326807">
        <ele>191.112</ele>
        <time>1970-01-01T01:00:00Z</time>
      </trkpt>
      <trkpt lat="63.419758" lon="10.32682967">
        <ele>191.112</ele>
        <time>1970-01-01T01:00:00Z</time>
      </trkpt>
      <trkpt lat="63.419764" lon="10.32685533">
        <ele>190.96</ele>
        <time>1970-01-01T01:00:00Z</time>
      </trkpt>
      <trkpt lat="63.41977017" lon="10.32688183">
        <ele>190.96</ele>
        <time>1970-01-01T01:00:00Z</time>
      </trkpt>
      <trkpt lat="63.419772" lon="10.32690883">
        <ele>190.807</ele>
        <time>1970-01-01T01:00:00Z</time>
      </trkpt>
      <trkpt lat="63.41977183" lon="10.32693367">
        <ele>190.807</ele>
        <time>1970-01-01T01:00:00Z</time>
      </trkpt>
      <trkpt lat="63.41977167" lon="10.32695517">
        <ele>190.655</ele>
        <time>1970-01-01T01:00:00Z</time>
      </trkpt>
      <trkpt lat="63.41977867" lon="10.32697533">
        <ele>190.655</ele>
        <time>1970-01-01T01:00:00Z</time>
      </trkpt>
      <trkpt lat="63.41979" lon="10.32699367">
        <ele>190.502</ele>
        <time>1970-01-01T01:00:00Z</time>
      </trkpt>
      <trkpt lat="63.41980283" lon="10.32701283">
        <ele>190.502</ele>
        <time>1970-01-01T01:00:00Z</time>
      </trkpt>
      <trkpt lat="63.41981417" lon="10.327028">
        <ele>190.502</ele>
        <time>1970-01-01T01:00:00Z</time>
      </trkpt>
      <trkpt lat="63.41982533" lon="10.32704283">
        <ele>190.502</ele>
        <time>1970-01-01T01:00:00Z</time>
      </trkpt>
      <trkpt lat="63.41983633" lon="10.32705283">
        <ele>190.35</ele>
        <time>1970-01-01T01:00:00Z</time>
      </trkpt>
      <trkpt lat="63.41984583" lon="10.32707417">
        <ele>190.35</ele>
        <time>1970-01-01T01:00:00Z</time>
      </trkpt>
      <trkpt lat="63.41985533" lon="10.32709583">
        <ele>190.198</ele>
        <time>1970-01-01T01:00:00Z</time>
      </trkpt>
      <trkpt lat="63.4198635" lon="10.3271235">
        <ele>190.198</ele>
        <time>1970-01-01T01:00:00Z</time>
      </trkpt>
      <trkpt lat="63.41987167" lon="10.32714817">
        <ele>190.198</ele>
        <time>1970-01-01T01:00:00Z</time>
      </trkpt>
      <trkpt lat="63.4198785" lon="10.3271765">
        <ele>190.198</ele>
        <time>1970-01-01T01:00:00Z</time>
      </trkpt>
      <trkpt lat="63.419887" lon="10.32720467">
        <ele>190.045</ele>
        <time>1970-01-01T01:00:00Z</time>
      </trkpt>
      <trkpt lat="63.419894" lon="10.32723017">
        <ele>190.045</ele>
        <time>1970-01-01T01:00:00Z</time>
      </trkpt>
      <trkpt lat="63.41990217" lon="10.32725717">
        <ele>190.045</ele>
        <time>1970-01-01T01:00:00Z</time>
      </trkpt>
      <trkpt lat="63.41990633" lon="10.32728617">
        <ele>190.045</ele>
        <time>1970-01-01T01:00:00Z</time>
      </trkpt>
      <trkpt lat="63.41991167" lon="10.3273155">
        <ele>189.893</ele>
        <time>1970-01-01T01:00:00Z</time>
      </trkpt>
      <trkpt lat="63.41991467" lon="10.32734317">
        <ele>189.893</ele>
        <time>1970-01-01T01:00:00Z</time>
      </trkpt>
      <trkpt lat="63.41992217" lon="10.32737417">
        <ele>189.893</ele>
        <time>1970-01-01T01:00:00Z</time>
      </trkpt>
      <trkpt lat="63.41993133" lon="10.32740583">
        <ele>189.893</ele>
        <time>1970-01-01T01:00:00Z</time>
      </trkpt>
      <trkpt lat="63.41994183" lon="10.32743917">
        <ele>189.74</ele>
        <time>1970-01-01T01:00:00Z</time>
      </trkpt>
      <trkpt lat="63.41995033" lon="10.3274675">
        <ele>189.74</ele>
        <time>1970-01-01T01:00:00Z</time>
      </trkpt>
      <trkpt lat="63.41995967" lon="10.32749583">
        <ele>189.74</ele>
        <time>1970-01-01T01:00:00Z</time>
      </trkpt>
      <trkpt lat="63.41997083" lon="10.32752217">
        <ele>189.74</ele>
        <time>1970-01-01T01:00:00Z</time>
      </trkpt>
      <trkpt lat="63.41998417" lon="10.32754783">
        <ele>189.588</ele>
        <time>1970-01-01T01:00:00Z</time>
      </trkpt>
      <trkpt lat="63.419996" lon="10.32756967">
        <ele>189.588</ele>
        <time>1970-01-01T01:00:00Z</time>
      </trkpt>
      <trkpt lat="63.420008" lon="10.32759017">
        <ele>189.436</ele>
        <time>1970-01-01T01:00:00Z</time>
      </trkpt>
      <trkpt lat="63.42001967" lon="10.3276105">
        <ele>189.436</ele>
        <time>1970-01-01T01:00:00Z</time>
      </trkpt>
      <trkpt lat="63.42003083" lon="10.3276335">
        <ele>189.436</ele>
        <time>1970-01-01T01:00:00Z</time>
      </trkpt>
      <trkpt lat="63.42004" lon="10.327658">
        <ele>189.436</ele>
        <time>1970-01-01T01:00:00Z</time>
      </trkpt>
      <trkpt lat="63.4200475" lon="10.32768167">
        <ele>189.283</ele>
        <time>1970-01-01T01:00:00Z</time>
      </trkpt>
      <trkpt lat="63.42005583" lon="10.3277035">
        <ele>189.283</ele>
        <time>1970-01-01T01:00:00Z</time>
      </trkpt>
      <trkpt lat="63.42006733" lon="10.32771983">
        <ele>189.283</ele>
        <time>1970-01-01T01:00:00Z</time>
      </trkpt>
      <trkpt lat="63.42007967" lon="10.3277395">
        <ele>189.283</ele>
        <time>1970-01-01T01:00:00Z</time>
      </trkpt>
      <trkpt lat="63.4200905" lon="10.32775917">
        <ele>189.131</ele>
        <time>1970-01-01T01:00:00Z</time>
      </trkpt>
      <trkpt lat="63.420098" lon="10.3277845">
        <ele>189.131</ele>
        <time>1970-01-01T01:00:00Z</time>
      </trkpt>
      <trkpt lat="63.42010517" lon="10.32780917">
        <ele>188.978</ele>
        <time>1970-01-01T01:00:00Z</time>
      </trkpt>
      <trkpt lat="63.42011383" lon="10.3278375">
        <ele>188.978</ele>
        <time>1970-01-01T01:00:00Z</time>
      </trkpt>
      <trkpt lat="63.42012483" lon="10.32786517">
        <ele>188.978</ele>
        <time>1970-01-01T01:00:00Z</time>
      </trkpt>
      <trkpt lat="63.42013617" lon="10.32789333">
        <ele>188.978</ele>
        <time>1970-01-01T01:00:00Z</time>
      </trkpt>
      <trkpt lat="63.42014583" lon="10.32792283">
        <ele>188.826</ele>
        <time>1970-01-01T01:00:00Z</time>
      </trkpt>
      <trkpt lat="63.42015533" lon="10.32795417">
        <ele>188.826</ele>
        <time>1970-01-01T01:00:00Z</time>
      </trkpt>
      <trkpt lat="63.42016317" lon="10.32798333">
        <ele>188.826</ele>
        <time>1970-01-01T01:00:00Z</time>
      </trkpt>
      <trkpt lat="63.42017133" lon="10.3280075">
        <ele>188.826</ele>
        <time>1970-01-01T01:00:00Z</time>
      </trkpt>
      <trkpt lat="63.42017817" lon="10.328028">
        <ele>188.826</ele>
        <time>1970-01-01T01:00:00Z</time>
      </trkpt>
      <trkpt lat="63.4201865" lon="10.32804633">
        <ele>188.826</ele>
        <time>1970-01-01T01:00:00Z</time>
      </trkpt>
      <trkpt lat="63.4201965" lon="10.328063">
        <ele>188.826</ele>
        <time>1970-01-01T01:00:00Z</time>
      </trkpt>
      <trkpt lat="63.42020517" lon="10.32808">
        <ele>188.826</ele>
        <time>1970-01-01T01:00:00Z</time>
      </trkpt>
      <trkpt lat="63.42021283" lon="10.32809933">
        <ele>188.826</ele>
        <time>1970-01-01T01:00:00Z</time>
      </trkpt>
      <trkpt lat="63.4202195" lon="10.328123">
        <ele>188.826</ele>
        <time>1970-01-01T01:00:00Z</time>
      </trkpt>
      <trkpt lat="63.4202275" lon="10.32814683">
        <ele>188.978</ele>
        <time>1970-01-01T01:00:00Z</time>
      </trkpt>
      <trkpt lat="63.420236" lon="10.3281685">
        <ele>188.978</ele>
        <time>1970-01-01T01:00:00Z</time>
      </trkpt>
      <trkpt lat="63.42024633" lon="10.32818517">
        <ele>188.978</ele>
        <time>1970-01-01T01:00:00Z</time>
      </trkpt>
      <trkpt lat="63.42025633" lon="10.32819867">
        <ele>188.978</ele>
        <time>1970-01-01T01:00:00Z</time>
      </trkpt>
      <trkpt lat="63.420266" lon="10.32821283">
        <ele>188.978</ele>
        <time>1970-01-01T01:00:00Z</time>
      </trkpt>
      <trkpt lat="63.42027483" lon="10.32822867">
        <ele>188.978</ele>
        <time>1970-01-01T01:00:00Z</time>
      </trkpt>
      <trkpt lat="63.4202845" lon="10.3282465">
        <ele>188.978</ele>
        <time>1970-01-01T01:00:00Z</time>
      </trkpt>
      <trkpt lat="63.42029617" lon="10.32826283">
        <ele>188.978</ele>
        <time>1970-01-01T01:00:00Z</time>
      </trkpt>
      <trkpt lat="63.420308" lon="10.32827533">
        <ele>189.131</ele>
        <time>1970-01-01T01:00:00Z</time>
      </trkpt>
      <trkpt lat="63.4203185" lon="10.32828283">
        <ele>189.131</ele>
        <time>1970-01-01T01:00:00Z</time>
      </trkpt>
      <trkpt lat="63.42032833" lon="10.32828617">
        <ele>189.131</ele>
        <time>1970-01-01T01:00:00Z</time>
      </trkpt>
      <trkpt lat="63.42033733" lon="10.328285">
        <ele>189.131</ele>
        <time>1970-01-01T01:00:00Z</time>
      </trkpt>
      <trkpt lat="63.42034633" lon="10.32828233">
        <ele>189.131</ele>
        <time>1970-01-01T01:00:00Z</time>
      </trkpt>
      <trkpt lat="63.4203545" lon="10.32827733">
        <ele>189.131</ele>
        <time>1970-01-01T01:00:00Z</time>
      </trkpt>
      <trkpt lat="63.42036417" lon="10.32827083">
        <ele>189.131</ele>
        <time>1970-01-01T01:00:00Z</time>
      </trkpt>
      <trkpt lat="63.4203755" lon="10.328265">
        <ele>189.131</ele>
        <time>1970-01-01T01:00:00Z</time>
      </trkpt>
      <trkpt lat="63.420388" lon="10.32825883">
        <ele>189.283</ele>
        <time>1970-01-01T01:00:00Z</time>
      </trkpt>
      <trkpt lat="63.42040017" lon="10.32825517">
        <ele>189.283</ele>
        <time>1970-01-01T01:00:00Z</time>
      </trkpt>
      <trkpt lat="63.420413" lon="10.32824933">
        <ele>189.283</ele>
        <time>1970-01-01T01:00:00Z</time>
      </trkpt>
      <trkpt lat="63.420428" lon="10.32824167">
        <ele>189.283</ele>
        <time>1970-01-01T01:00:00Z</time>
      </trkpt>
      <trkpt lat="63.42044233" lon="10.32823467">
        <ele>189.283</ele>
        <time>1970-01-01T01:00:00Z</time>
      </trkpt>
      <trkpt lat="63.42045567" lon="10.32822817">
        <ele>189.283</ele>
        <time>1970-01-01T01:00:00Z</time>
      </trkpt>
      <trkpt lat="63.4204675" lon="10.32822317">
        <ele>189.436</ele>
        <time>1970-01-01T01:00:00Z</time>
      </trkpt>
      <trkpt lat="63.42047933" lon="10.32821433">
        <ele>189.436</ele>
        <time>1970-01-01T01:00:00Z</time>
      </trkpt>
      <trkpt lat="63.420489" lon="10.32820733">
        <ele>189.588</ele>
        <time>1970-01-01T01:00:00Z</time>
      </trkpt>
      <trkpt lat="63.42049717" lon="10.3281985">
        <ele>189.588</ele>
        <time>1970-01-01T01:00:00Z</time>
      </trkpt>
      <trkpt lat="63.42050467" lon="10.32819267">
        <ele>189.588</ele>
        <time>1970-01-01T01:00:00Z</time>
      </trkpt>
      <trkpt lat="63.42051383" lon="10.32818417">
        <ele>189.588</ele>
        <time>1970-01-01T01:00:00Z</time>
      </trkpt>
      <trkpt lat="63.420524" lon="10.32818083">
        <ele>189.74</ele>
        <time>1970-01-01T01:00:00Z</time>
      </trkpt>
      <trkpt lat="63.420534" lon="10.32818367">
        <ele>189.74</ele>
        <time>1970-01-01T01:00:00Z</time>
      </trkpt>
      <trkpt lat="63.42054383" lon="10.32819267">
        <ele>189.893</ele>
        <time>1970-01-01T01:00:00Z</time>
      </trkpt>
      <trkpt lat="63.42055183" lon="10.32820083">
        <ele>189.893</ele>
        <time>1970-01-01T01:00:00Z</time>
      </trkpt>
      <trkpt lat="63.420561" lon="10.328207">
        <ele>190.045</ele>
        <time>1970-01-01T01:00:00Z</time>
      </trkpt>
      <trkpt lat="63.42057017" lon="10.32821133">
        <ele>190.045</ele>
        <time>1970-01-01T01:00:00Z</time>
      </trkpt>
      <trkpt lat="63.4205825" lon="10.32821733">
        <ele>190.198</ele>
        <time>1970-01-01T01:00:00Z</time>
      </trkpt>
      <trkpt lat="63.42059583" lon="10.32822133">
        <ele>190.198</ele>
        <time>1970-01-01T01:00:00Z</time>
      </trkpt>
      <trkpt lat="63.42061033" lon="10.328226">
        <ele>190.35</ele>
        <time>1970-01-01T01:00:00Z</time>
      </trkpt>
      <trkpt lat="63.4206235" lon="10.328231">
        <ele>190.35</ele>
        <time>1970-01-01T01:00:00Z</time>
      </trkpt>
      <trkpt lat="63.42063783" lon="10.32823667">
        <ele>190.502</ele>
        <time>1970-01-01T01:00:00Z</time>
      </trkpt>
      <trkpt lat="63.42065267" lon="10.32824067">
        <ele>190.502</ele>
        <time>1970-01-01T01:00:00Z</time>
      </trkpt>
      <trkpt lat="63.4206655" lon="10.32824217">
        <ele>190.655</ele>
        <time>1970-01-01T01:00:00Z</time>
      </trkpt>
      <trkpt lat="63.42067583" lon="10.32824233">
        <ele>190.655</ele>
        <time>1970-01-01T01:00:00Z</time>
      </trkpt>
      <trkpt lat="63.42068533" lon="10.3282425">
        <ele>190.807</ele>
        <time>1970-01-01T01:00:00Z</time>
      </trkpt>
      <trkpt lat="63.4206975" lon="10.32824033">
        <ele>190.807</ele>
        <time>1970-01-01T01:00:00Z</time>
      </trkpt>
      <trkpt lat="63.42071083" lon="10.32823767">
        <ele>190.96</ele>
        <time>1970-01-01T01:00:00Z</time>
      </trkpt>
      <trkpt lat="63.42072433" lon="10.328235">
        <ele>190.96</ele>
        <time>1970-01-01T01:00:00Z</time>
      </trkpt>
      <trkpt lat="63.42073617" lon="10.32823533">
        <ele>191.112</ele>
        <time>1970-01-01T01:00:00Z</time>
      </trkpt>
      <trkpt lat="63.420748" lon="10.32823933">
        <ele>191.112</ele>
        <time>1970-01-01T01:00:00Z</time>
      </trkpt>
      <trkpt lat="63.42076133" lon="10.32825">
        <ele>191.264</ele>
        <time>1970-01-01T01:00:00Z</time>
      </trkpt>
      <trkpt lat="63.42077517" lon="10.3282655">
        <ele>191.264</ele>
        <time>1970-01-01T01:00:00Z</time>
      </trkpt>
      <trkpt lat="63.4207875" lon="10.32828583">
        <ele>191.417</ele>
        <time>1970-01-01T01:00:00Z</time>
      </trkpt>
      <trkpt lat="63.42079633" lon="10.32830867">
        <ele>191.417</ele>
        <time>1970-01-01T01:00:00Z</time>
      </trkpt>
      <trkpt lat="63.42080417" lon="10.328339">
        <ele>191.569</ele>
        <time>1970-01-01T01:00:00Z</time>
      </trkpt>
      <trkpt lat="63.420812" lon="10.32836983">
        <ele>191.569</ele>
        <time>1970-01-01T01:00:00Z</time>
      </trkpt>
      <trkpt lat="63.4208205" lon="10.32840033">
        <ele>191.722</ele>
        <time>1970-01-01T01:00:00Z</time>
      </trkpt>
      <trkpt lat="63.42083333" lon="10.32842883">
        <ele>191.722</ele>
        <time>1970-01-01T01:00:00Z</time>
      </trkpt>
      <trkpt lat="63.42084533" lon="10.328458">
        <ele>191.874</ele>
        <time>1970-01-01T01:00:00Z</time>
      </trkpt>
      <trkpt lat="63.420857" lon="10.32848783">
        <ele>191.874</ele>
        <time>1970-01-01T01:00:00Z</time>
      </trkpt>
      <trkpt lat="63.420866" lon="10.32851683">
        <ele>192.026</ele>
        <time>1970-01-01T01:00:00Z</time>
      </trkpt>
      <trkpt lat="63.42087317" lon="10.32854533">
        <ele>192.026</ele>
        <time>1970-01-01T01:00:00Z</time>
      </trkpt>
      <trkpt lat="63.42087917" lon="10.3285735">
        <ele>192.179</ele>
        <time>1970-01-01T01:00:00Z</time>
      </trkpt>
      <trkpt lat="63.420884" lon="10.32859967">
        <ele>192.179</ele>
        <time>1970-01-01T01:00:00Z</time>
      </trkpt>
      <trkpt lat="63.42089117" lon="10.32862567">
        <ele>192.331</ele>
        <time>1970-01-01T01:00:00Z</time>
      </trkpt>
      <trkpt lat="63.42089933" lon="10.32865133">
        <ele>192.331</ele>
        <time>1970-01-01T01:00:00Z</time>
      </trkpt>
      <trkpt lat="63.420907" lon="10.3286755">
        <ele>192.484</ele>
        <time>1970-01-01T01:00:00Z</time>
      </trkpt>
      <trkpt lat="63.42091017" lon="10.3287025">
        <ele>192.484</ele>
        <time>1970-01-01T01:00:00Z</time>
      </trkpt>
      <trkpt lat="63.42091317" lon="10.32872983">
        <ele>192.636</ele>
        <time>1970-01-01T01:00:00Z</time>
      </trkpt>
      <trkpt lat="63.42091517" lon="10.32876067">
        <ele>192.636</ele>
        <time>1970-01-01T01:00:00Z</time>
      </trkpt>
      <trkpt lat="63.42091967" lon="10.32879017">
        <ele>192.788</ele>
        <time>1970-01-01T01:00:00Z</time>
      </trkpt>
      <trkpt lat="63.42092083" lon="10.32882017">
        <ele>192.788</ele>
        <time>1970-01-01T01:00:00Z</time>
      </trkpt>
      <trkpt lat="63.42092083" lon="10.32884783">
        <ele>192.941</ele>
        <time>1970-01-01T01:00:00Z</time>
      </trkpt>
      <trkpt lat="63.42092133" lon="10.3288735">
        <ele>192.941</ele>
        <time>1970-01-01T01:00:00Z</time>
      </trkpt>
      <trkpt lat="63.42092567" lon="10.32889783">
        <ele>192.941</ele>
        <time>1970-01-01T01:00:00Z</time>
      </trkpt>
      <trkpt lat="63.42092967" lon="10.32892383">
        <ele>192.941</ele>
        <time>1970-01-01T01:00:00Z</time>
      </trkpt>
      <trkpt lat="63.420931" lon="10.32895217">
        <ele>193.093</ele>
        <time>1970-01-01T01:00:00Z</time>
      </trkpt>
      <trkpt lat="63.42093167" lon="10.32898133">
        <ele>193.093</ele>
        <time>1970-01-01T01:00:00Z</time>
      </trkpt>
      <trkpt lat="63.42093417" lon="10.32901033">
        <ele>193.246</ele>
        <time>1970-01-01T01:00:00Z</time>
      </trkpt>
      <trkpt lat="63.42093983" lon="10.32903983">
        <ele>193.246</ele>
        <time>1970-01-01T01:00:00Z</time>
      </trkpt>
      <trkpt lat="63.4209455" lon="10.32907067">
        <ele>193.246</ele>
        <time>1970-01-01T01:00:00Z</time>
      </trkpt>
      <trkpt lat="63.42095133" lon="10.32910333">
        <ele>193.246</ele>
        <time>1970-01-01T01:00:00Z</time>
      </trkpt>
      <trkpt lat="63.4209555" lon="10.32913383">
        <ele>193.398</ele>
        <time>1970-01-01T01:00:00Z</time>
      </trkpt>
      <trkpt lat="63.4209575" lon="10.32916267">
        <ele>193.398</ele>
        <time>1970-01-01T01:00:00Z</time>
      </trkpt>
      <trkpt lat="63.420959" lon="10.32918967">
        <ele>193.55</ele>
        <time>1970-01-01T01:00:00Z</time>
      </trkpt>
      <trkpt lat="63.4209605" lon="10.32921733">
        <ele>193.55</ele>
        <time>1970-01-01T01:00:00Z</time>
      </trkpt>
      <trkpt lat="63.4209605" lon="10.32924583">
        <ele>193.55</ele>
        <time>1970-01-01T01:00:00Z</time>
      </trkpt>
      <trkpt lat="63.420962" lon="10.32927883">
        <ele>193.55</ele>
        <time>1970-01-01T01:00:00Z</time>
      </trkpt>
      <trkpt lat="63.42096483" lon="10.32931317">
        <ele>193.703</ele>
        <time>1970-01-01T01:00:00Z</time>
      </trkpt>
      <trkpt lat="63.42097083" lon="10.32934617">
        <ele>193.703</ele>
        <time>1970-01-01T01:00:00Z</time>
      </trkpt>
      <trkpt lat="63.4209775" lon="10.3293735">
        <ele>193.855</ele>
        <time>1970-01-01T01:00:00Z</time>
      </trkpt>
      <trkpt lat="63.42098433" lon="10.32939833">
        <ele>193.855</ele>
        <time>1970-01-01T01:00:00Z</time>
      </trkpt>
      <trkpt lat="63.42099017" lon="10.32942533">
        <ele>193.855</ele>
        <time>1970-01-01T01:00:00Z</time>
      </trkpt>
      <trkpt lat="63.42099383" lon="10.32945117">
        <ele>193.855</ele>
        <time>1970-01-01T01:00:00Z</time>
      </trkpt>
      <trkpt lat="63.42099617" lon="10.32947867">
        <ele>194.008</ele>
        <time>1970-01-01T01:00:00Z</time>
      </trkpt>
      <trkpt lat="63.42099983" lon="10.32950467">
        <ele>194.008</ele>
        <time>1970-01-01T01:00:00Z</time>
      </trkpt>
      <trkpt lat="63.4210045" lon="10.32953133">
        <ele>194.16</ele>
        <time>1970-01-01T01:00:00Z</time>
      </trkpt>
      <trkpt lat="63.42101233" lon="10.32955817">
        <ele>194.16</ele>
        <time>1970-01-01T01:00:00Z</time>
      </trkpt>
      <trkpt lat="63.42101917" lon="10.32958617">
        <ele>194.16</ele>
        <time>1970-01-01T01:00:00Z</time>
      </trkpt>
      <trkpt lat="63.421025" lon="10.32961367">
        <ele>194.16</ele>
        <time>1970-01-01T01:00:00Z</time>
      </trkpt>
      <trkpt lat="63.42102917" lon="10.32963833">
        <ele>194.312</ele>
        <time>1970-01-01T01:00:00Z</time>
      </trkpt>
      <trkpt lat="63.42103467" lon="10.32966167">
        <ele>194.312</ele>
        <time>1970-01-01T01:00:00Z</time>
      </trkpt>
      <trkpt lat="63.4210405" lon="10.329686">
        <ele>194.312</ele>
        <time>1970-01-01T01:00:00Z</time>
      </trkpt>
      <trkpt lat="63.42104883" lon="10.32971317">
        <ele>194.312</ele>
        <time>1970-01-01T01:00:00Z</time>
      </trkpt>
      <trkpt lat="63.42105683" lon="10.329743">
        <ele>194.312</ele>
        <time>1970-01-01T01:00:00Z</time>
      </trkpt>
      <trkpt lat="63.42106383" lon="10.32977067">
        <ele>194.312</ele>
        <time>1970-01-01T01:00:00Z</time>
      </trkpt>
      <trkpt lat="63.42106667" lon="10.32979683">
        <ele>194.312</ele>
        <time>1970-01-01T01:00:00Z</time>
      </trkpt>
      <trkpt lat="63.42106833" lon="10.32981933">
        <ele>194.312</ele>
        <time>1970-01-01T01:00:00Z</time>
      </trkpt>
      <trkpt lat="63.42107133" lon="10.32984417">
        <ele>194.465</ele>
        <time>1970-01-01T01:00:00Z</time>
      </trkpt>
      <trkpt lat="63.4210755" lon="10.3298675">
        <ele>194.465</ele>
        <time>1970-01-01T01:00:00Z</time>
      </trkpt>
      <trkpt lat="63.42108067" lon="10.32989067">
        <ele>194.465</ele>
        <time>1970-01-01T01:00:00Z</time>
      </trkpt>
      <trkpt lat="63.42108467" lon="10.3299125">
        <ele>194.465</ele>
        <time>1970-01-01T01:00:00Z</time>
      </trkpt>
      <trkpt lat="63.42108867" lon="10.32993533">
        <ele>194.465</ele>
        <time>1970-01-01T01:00:00Z</time>
      </trkpt>
      <trkpt lat="63.42109167" lon="10.32995983">
        <ele>194.465</ele>
        <time>1970-01-01T01:00:00Z</time>
      </trkpt>
      <trkpt lat="63.42109233" lon="10.32998583">
        <ele>194.465</ele>
        <time>1970-01-01T01:00:00Z</time>
      </trkpt>
      <trkpt lat="63.4210925" lon="10.33001467">
        <ele>194.465</ele>
        <time>1970-01-01T01:00:00Z</time>
      </trkpt>
      <trkpt lat="63.42109283" lon="10.33004217">
        <ele>194.465</ele>
        <time>1970-01-01T01:00:00Z</time>
      </trkpt>
      <trkpt lat="63.42109483" lon="10.33007267">
        <ele>194.465</ele>
        <time>1970-01-01T01:00:00Z</time>
      </trkpt>
      <trkpt lat="63.421099" lon="10.33010367">
        <ele>194.465</ele>
        <time>1970-01-01T01:00:00Z</time>
      </trkpt>
      <trkpt lat="63.42110483" lon="10.330136">
        <ele>194.465</ele>
        <time>1970-01-01T01:00:00Z</time>
      </trkpt>
      <trkpt lat="63.42111033" lon="10.3301675">
        <ele>194.465</ele>
        <time>1970-01-01T01:00:00Z</time>
      </trkpt>
      <trkpt lat="63.421114" lon="10.33019767">
        <ele>194.465</ele>
        <time>1970-01-01T01:00:00Z</time>
      </trkpt>
      <trkpt lat="63.42111767" lon="10.3302285">
        <ele>194.617</ele>
        <time>1970-01-01T01:00:00Z</time>
      </trkpt>
      <trkpt lat="63.42112383" lon="10.33025733">
        <ele>194.617</ele>
        <time>1970-01-01T01:00:00Z</time>
      </trkpt>
      <trkpt lat="63.42113217" lon="10.330285">
        <ele>194.617</ele>
        <time>1970-01-01T01:00:00Z</time>
      </trkpt>
      <trkpt lat="63.4211405" lon="10.33031033">
        <ele>194.617</ele>
        <time>1970-01-01T01:00:00Z</time>
      </trkpt>
      <trkpt lat="63.42114967" lon="10.3303345">
        <ele>194.77</ele>
        <time>1970-01-01T01:00:00Z</time>
      </trkpt>
      <trkpt lat="63.42115683" lon="10.33035783">
        <ele>194.77</ele>
        <time>1970-01-01T01:00:00Z</time>
      </trkpt>
      <trkpt lat="63.4211635" lon="10.33038333">
        <ele>194.922</ele>
        <time>1970-01-01T01:00:00Z</time>
      </trkpt>
      <trkpt lat="63.42116883" lon="10.3304095">
        <ele>194.922</ele>
        <time>1970-01-01T01:00:00Z</time>
      </trkpt>
      <trkpt lat="63.42117367" lon="10.33043683">
        <ele>195.074</ele>
        <time>1970-01-01T01:00:00Z</time>
      </trkpt>
      <trkpt lat="63.42117833" lon="10.330465">
        <ele>195.074</ele>
        <time>1970-01-01T01:00:00Z</time>
      </trkpt>
      <trkpt lat="63.42118267" lon="10.3304945">
        <ele>195.074</ele>
        <time>1970-01-01T01:00:00Z</time>
      </trkpt>
      <trkpt lat="63.42118883" lon="10.33052117">
        <ele>195.074</ele>
        <time>1970-01-01T01:00:00Z</time>
      </trkpt>
      <trkpt lat="63.42119617" lon="10.3305495">
        <ele>195.227</ele>
        <time>1970-01-01T01:00:00Z</time>
      </trkpt>
      <trkpt lat="63.42120417" lon="10.3305765">
        <ele>195.227</ele>
        <time>1970-01-01T01:00:00Z</time>
      </trkpt>
      <trkpt lat="63.4212105" lon="10.330606">
        <ele>195.379</ele>
        <time>1970-01-01T01:00:00Z</time>
      </trkpt>
      <trkpt lat="63.42121633" lon="10.33063267">
        <ele>195.379</ele>
        <time>1970-01-01T01:00:00Z</time>
      </trkpt>
      <trkpt lat="63.42122033" lon="10.33066033">
        <ele>195.532</ele>
        <time>1970-01-01T01:00:00Z</time>
      </trkpt>
      <trkpt lat="63.4212245" lon="10.330688">
        <ele>195.532</ele>
        <time>1970-01-01T01:00:00Z</time>
      </trkpt>
      <trkpt lat="63.42122867" lon="10.3307135">
        <ele>195.684</ele>
        <time>1970-01-01T01:00:00Z</time>
      </trkpt>
      <trkpt lat="63.421234" lon="10.33073833">
        <ele>195.684</ele>
        <time>1970-01-01T01:00:00Z</time>
      </trkpt>
      <trkpt lat="63.42123967" lon="10.33076267">
        <ele>195.684</ele>
        <time>1970-01-01T01:00:00Z</time>
      </trkpt>
      <trkpt lat="63.4212445" lon="10.33079083">
        <ele>195.684</ele>
        <time>1970-01-01T01:00:00Z</time>
      </trkpt>
      <trkpt lat="63.421251" lon="10.3308185">
        <ele>195.836</ele>
        <time>1970-01-01T01:00:00Z</time>
      </trkpt>
      <trkpt lat="63.42125633" lon="10.330846">
        <ele>195.836</ele>
        <time>1970-01-01T01:00:00Z</time>
      </trkpt>
      <trkpt lat="63.42126267" lon="10.33087017">
        <ele>195.989</ele>
        <time>1970-01-01T01:00:00Z</time>
      </trkpt>
      <trkpt lat="63.42126817" lon="10.3308975">
        <ele>195.989</ele>
        <time>1970-01-01T01:00:00Z</time>
      </trkpt>
      <trkpt lat="63.42127267" lon="10.3309235">
        <ele>195.989</ele>
        <time>1970-01-01T01:00:00Z</time>
      </trkpt>
      <trkpt lat="63.421277" lon="10.3309545">
        <ele>195.989</ele>
        <time>1970-01-01T01:00:00Z</time>
      </trkpt>
      <trkpt lat="63.42128033" lon="10.33098267">
        <ele>196.141</ele>
        <time>1970-01-01T01:00:00Z</time>
      </trkpt>
      <trkpt lat="63.42128533" lon="10.33101233">
        <ele>196.141</ele>
        <time>1970-01-01T01:00:00Z</time>
      </trkpt>
      <trkpt lat="63.4212895" lon="10.3310395">
        <ele>196.141</ele>
        <time>1970-01-01T01:00:00Z</time>
      </trkpt>
      <trkpt lat="63.42129567" lon="10.33106017">
        <ele>196.141</ele>
        <time>1970-01-01T01:00:00Z</time>
      </trkpt>
      <trkpt lat="63.42130267" lon="10.33107767">
        <ele>196.141</ele>
        <time>1970-01-01T01:00:00Z</time>
      </trkpt>
      <trkpt lat="63.421311" lon="10.331091">
        <ele>196.141</ele>
        <time>1970-01-01T01:00:00Z</time>
      </trkpt>
      <trkpt lat="63.42132" lon="10.3311065">
        <ele>196.141</ele>
        <time>1970-01-01T01:00:00Z</time>
      </trkpt>
      <trkpt lat="63.42133017" lon="10.33112317">
        <ele>196.141</ele>
        <time>1970-01-01T01:00:00Z</time>
      </trkpt>
      <trkpt lat="63.42133967" lon="10.3311375">
        <ele>196.141</ele>
        <time>1970-01-01T01:00:00Z</time>
      </trkpt>
      <trkpt lat="63.42134983" lon="10.3311465">
        <ele>196.141</ele>
        <time>1970-01-01T01:00:00Z</time>
      </trkpt>
      <trkpt lat="63.42135917" lon="10.3311515">
        <ele>196.141</ele>
        <time>1970-01-01T01:00:00Z</time>
      </trkpt>
      <trkpt lat="63.42137" lon="10.33115583">
        <ele>196.141</ele>
        <time>1970-01-01T01:00:00Z</time>
      </trkpt>
      <trkpt lat="63.42137833" lon="10.33115933">
        <ele>196.141</ele>
        <time>1970-01-01T01:00:00Z</time>
      </trkpt>
      <trkpt lat="63.421388" lon="10.33115933">
        <ele>196.141</ele>
        <time>1970-01-01T01:00:00Z</time>
      </trkpt>
      <trkpt lat="63.42139683" lon="10.33115683">
        <ele>196.141</ele>
        <time>1970-01-01T01:00:00Z</time>
      </trkpt>
      <trkpt lat="63.42140733" lon="10.3311565">
        <ele>196.141</ele>
        <time>1970-01-01T01:00:00Z</time>
      </trkpt>
      <trkpt lat="63.42141733" lon="10.331157">
        <ele>195.989</ele>
        <time>1970-01-01T01:00:00Z</time>
      </trkpt>
      <trkpt lat="63.42142683" lon="10.33115783">
        <ele>195.989</ele>
        <time>1970-01-01T01:00:00Z</time>
      </trkpt>
      <trkpt lat="63.4214365" lon="10.3311575">
        <ele>195.989</ele>
        <time>1970-01-01T01:00:00Z</time>
      </trkpt>
      <trkpt lat="63.42144683" lon="10.3311565">
        <ele>195.989</ele>
        <time>1970-01-01T01:00:00Z</time>
      </trkpt>
      <trkpt lat="63.42145867" lon="10.33115467">
        <ele>195.989</ele>
        <time>1970-01-01T01:00:00Z</time>
      </trkpt>
      <trkpt lat="63.42147033" lon="10.3311515">
        <ele>195.989</ele>
        <time>1970-01-01T01:00:00Z</time>
      </trkpt>
      <trkpt lat="63.42148167" lon="10.33114733">
        <ele>195.989</ele>
        <time>1970-01-01T01:00:00Z</time>
      </trkpt>
      <trkpt lat="63.42149167" lon="10.3311425">
        <ele>195.989</ele>
        <time>1970-01-01T01:00:00Z</time>
      </trkpt>
      <trkpt lat="63.42150167" lon="10.33113883">
        <ele>195.989</ele>
        <time>1970-01-01T01:00:00Z</time>
      </trkpt>
      <trkpt lat="63.42151067" lon="10.33113933">
        <ele>195.989</ele>
        <time>1970-01-01T01:00:00Z</time>
      </trkpt>
      <trkpt lat="63.42151833" lon="10.33114233">
        <ele>195.989</ele>
        <time>1970-01-01T01:00:00Z</time>
      </trkpt>
      <trkpt lat="63.42152667" lon="10.33114667">
        <ele>195.989</ele>
        <time>1970-01-01T01:00:00Z</time>
      </trkpt>
      <trkpt lat="63.42153483" lon="10.33114783">
        <ele>195.989</ele>
        <time>1970-01-01T01:00:00Z</time>
      </trkpt>
      <trkpt lat="63.42154483" lon="10.33114883">
        <ele>195.989</ele>
        <time>1970-01-01T01:00:00Z</time>
      </trkpt>
      <trkpt lat="63.42155383" lon="10.33114833">
        <ele>196.141</ele>
        <time>1970-01-01T01:00:00Z</time>
      </trkpt>
      <trkpt lat="63.42156317" lon="10.33114717">
        <ele>196.141</ele>
        <time>1970-01-01T01:00:00Z</time>
      </trkpt>
      <trkpt lat="63.421572" lon="10.331143">
        <ele>196.141</ele>
        <time>1970-01-01T01:00:00Z</time>
      </trkpt>
      <trkpt lat="63.4215825" lon="10.33113367">
        <ele>196.141</ele>
        <time>1970-01-01T01:00:00Z</time>
      </trkpt>
      <trkpt lat="63.42159383" lon="10.33111933">
        <ele>196.141</ele>
        <time>1970-01-01T01:00:00Z</time>
      </trkpt>
      <trkpt lat="63.42160267" lon="10.33110583">
        <ele>196.141</ele>
        <time>1970-01-01T01:00:00Z</time>
      </trkpt>
      <trkpt lat="63.4216095" lon="10.3310965">
        <ele>196.294</ele>
        <time>1970-01-01T01:00:00Z</time>
      </trkpt>
      <trkpt lat="63.4216155" lon="10.3310915">
        <ele>196.294</ele>
        <time>1970-01-01T01:00:00Z</time>
      </trkpt>
      <trkpt lat="63.421623" lon="10.33108483">
        <ele>196.294</ele>
        <time>1970-01-01T01:00:00Z</time>
      </trkpt>
      <trkpt lat="63.421631" lon="10.33107133">
        <ele>196.294</ele>
        <time>1970-01-01T01:00:00Z</time>
      </trkpt>
      <trkpt lat="63.42163833" lon="10.331053">
        <ele>196.446</ele>
        <time>1970-01-01T01:00:00Z</time>
      </trkpt>
      <trkpt lat="63.421645" lon="10.331032">
        <ele>196.446</ele>
        <time>1970-01-01T01:00:00Z</time>
      </trkpt>
      <trkpt lat="63.42165183" lon="10.33101317">
        <ele>196.598</ele>
        <time>1970-01-01T01:00:00Z</time>
      </trkpt>
      <trkpt lat="63.4216595" lon="10.330996">
        <ele>196.598</ele>
        <time>1970-01-01T01:00:00Z</time>
      </trkpt>
      <trkpt lat="63.42166967" lon="10.33097867">
        <ele>196.751</ele>
        <time>1970-01-01T01:00:00Z</time>
      </trkpt>
      <trkpt lat="63.421681" lon="10.33096283">
        <ele>196.751</ele>
        <time>1970-01-01T01:00:00Z</time>
      </trkpt>
      <trkpt lat="63.42169217" lon="10.33094317">
        <ele>196.903</ele>
        <time>1970-01-01T01:00:00Z</time>
      </trkpt>
      <trkpt lat="63.42170167" lon="10.33092317">
        <ele>196.903</ele>
        <time>1970-01-01T01:00:00Z</time>
      </trkpt>
      <trkpt lat="63.42170933" lon="10.33090233">
        <ele>197.056</ele>
        <time>1970-01-01T01:00:00Z</time>
      </trkpt>
      <trkpt lat="63.42171667" lon="10.33088817">
        <ele>197.056</ele>
        <time>1970-01-01T01:00:00Z</time>
      </trkpt>
      <trkpt lat="63.42172483" lon="10.3308785">
        <ele>197.208</ele>
        <time>1970-01-01T01:00:00Z</time>
      </trkpt>
      <trkpt lat="63.42173283" lon="10.33087067">
        <ele>197.208</ele>
        <time>1970-01-01T01:00:00Z</time>
      </trkpt>
      <trkpt lat="63.4217425" lon="10.33086383">
        <ele>197.513</ele>
        <time>1970-01-01T01:00:00Z</time>
      </trkpt>
      <trkpt lat="63.42175333" lon="10.33085633">
        <ele>197.513</ele>
        <time>1970-01-01T01:00:00Z</time>
      </trkpt>
      <trkpt lat="63.42176767" lon="10.33085283">
        <ele>197.665</ele>
        <time>1970-01-01T01:00:00Z</time>
      </trkpt>
      <trkpt lat="63.421782" lon="10.330848">
        <ele>197.665</ele>
        <time>1970-01-01T01:00:00Z</time>
      </trkpt>
      <trkpt lat="63.421794" lon="10.330845">
        <ele>197.97</ele>
        <time>1970-01-01T01:00:00Z</time>
      </trkpt>
      <trkpt lat="63.4218015" lon="10.330835">
        <ele>197.97</ele>
        <time>1970-01-01T01:00:00Z</time>
      </trkpt>
      <trkpt lat="63.42180767" lon="10.3308245">
        <ele>198.122</ele>
        <time>1970-01-01T01:00:00Z</time>
      </trkpt>
      <trkpt lat="63.42181433" lon="10.330814">
        <ele>198.122</ele>
        <time>1970-01-01T01:00:00Z</time>
      </trkpt>
      <trkpt lat="63.421823" lon="10.33080917">
        <ele>198.427</ele>
        <time>1970-01-01T01:00:00Z</time>
      </trkpt>
      <trkpt lat="63.42183533" lon="10.33080767">
        <ele>198.427</ele>
        <time>1970-01-01T01:00:00Z</time>
      </trkpt>
      <trkpt lat="63.4218495" lon="10.3308055">
        <ele>198.58</ele>
        <time>1970-01-01T01:00:00Z</time>
      </trkpt>
      <trkpt lat="63.42186483" lon="10.33080633">
        <ele>198.58</ele>
        <time>1970-01-01T01:00:00Z</time>
      </trkpt>
      <trkpt lat="63.42187633" lon="10.330806">
        <ele>198.732</ele>
        <time>1970-01-01T01:00:00Z</time>
      </trkpt>
      <trkpt lat="63.42188783" lon="10.33080683">
        <ele>198.732</ele>
        <time>1970-01-01T01:00:00Z</time>
      </trkpt>
      <trkpt lat="63.42189667" lon="10.33080217">
        <ele>199.037</ele>
        <time>1970-01-01T01:00:00Z</time>
      </trkpt>
      <trkpt lat="63.4219055" lon="10.33079817">
        <ele>199.037</ele>
        <time>1970-01-01T01:00:00Z</time>
      </trkpt>
      <trkpt lat="63.42191317" lon="10.3307975">
        <ele>199.189</ele>
        <time>1970-01-01T01:00:00Z</time>
      </trkpt>
      <trkpt lat="63.42192317" lon="10.330802">
        <ele>199.189</ele>
        <time>1970-01-01T01:00:00Z</time>
      </trkpt>
      <trkpt lat="63.42193583" lon="10.3308065">
        <ele>199.494</ele>
        <time>1970-01-01T01:00:00Z</time>
      </trkpt>
      <trkpt lat="63.42194933" lon="10.33080933">
        <ele>199.494</ele>
        <time>1970-01-01T01:00:00Z</time>
      </trkpt>
      <trkpt lat="63.4219615" lon="10.3308105">
        <ele>199.646</ele>
        <time>1970-01-01T01:00:00Z</time>
      </trkpt>
      <trkpt lat="63.42197267" lon="10.33081233">
        <ele>199.646</ele>
        <time>1970-01-01T01:00:00Z</time>
      </trkpt>
      <trkpt lat="63.421984" lon="10.33081367">
        <ele>199.951</ele>
        <time>1970-01-01T01:00:00Z</time>
      </trkpt>
      <trkpt lat="63.42199667" lon="10.33081433">
        <ele>199.951</ele>
        <time>1970-01-01T01:00:00Z</time>
      </trkpt>
      <trkpt lat="63.42201317" lon="10.3308155">
        <ele>200.104</ele>
        <time>1970-01-01T01:00:00Z</time>
      </trkpt>
      <trkpt lat="63.422029" lon="10.3308165">
        <ele>200.104</ele>
        <time>1970-01-01T01:00:00Z</time>
      </trkpt>
      <trkpt lat="63.42204383" lon="10.33081683">
        <ele>200.408</ele>
        <time>1970-01-01T01:00:00Z</time>
      </trkpt>
      <trkpt lat="63.42205233" lon="10.33081783">
        <ele>200.408</ele>
        <time>1970-01-01T01:00:00Z</time>
      </trkpt>
      <trkpt lat="63.422061" lon="10.33081733">
        <ele>200.713</ele>
        <time>1970-01-01T01:00:00Z</time>
      </trkpt>
      <trkpt lat="63.4220695" lon="10.33081783">
        <ele>200.713</ele>
        <time>1970-01-01T01:00:00Z</time>
      </trkpt>
      <trkpt lat="63.42207833" lon="10.33081683">
        <ele>201.018</ele>
        <time>1970-01-01T01:00:00Z</time>
      </trkpt>
      <trkpt lat="63.422087" lon="10.33081517">
        <ele>201.018</ele>
        <time>1970-01-01T01:00:00Z</time>
      </trkpt>
      <trkpt lat="63.42209567" lon="10.33081333">
        <ele>201.323</ele>
        <time>1970-01-01T01:00:00Z</time>
      </trkpt>
      <trkpt lat="63.42210583" lon="10.33081067">
        <ele>201.323</ele>
        <time>1970-01-01T01:00:00Z</time>
      </trkpt>
      <trkpt lat="63.42211667" lon="10.33080783">
        <ele>201.628</ele>
        <time>1970-01-01T01:00:00Z</time>
      </trkpt>
      <trkpt lat="63.422127" lon="10.330805">
        <ele>201.628</ele>
        <time>1970-01-01T01:00:00Z</time>
      </trkpt>
      <trkpt lat="63.42213533" lon="10.330801">
        <ele>201.932</ele>
        <time>1970-01-01T01:00:00Z</time>
      </trkpt>
      <trkpt lat="63.42214267" lon="10.33079867">
        <ele>201.932</ele>
        <time>1970-01-01T01:00:00Z</time>
      </trkpt>
      <trkpt lat="63.42214883" lon="10.33079517">
        <ele>202.237</ele>
        <time>1970-01-01T01:00:00Z</time>
      </trkpt>
      <trkpt lat="63.42215567" lon="10.33078833">
        <ele>202.237</ele>
        <time>1970-01-01T01:00:00Z</time>
      </trkpt>
      <trkpt lat="63.42216233" lon="10.33077817">
        <ele>202.542</ele>
        <time>1970-01-01T01:00:00Z</time>
      </trkpt>
      <trkpt lat="63.4221685" lon="10.330766">
        <ele>202.542</ele>
        <time>1970-01-01T01:00:00Z</time>
      </trkpt>
      <trkpt lat="63.422174" lon="10.33075633">
        <ele>202.847</ele>
        <time>1970-01-01T01:00:00Z</time>
      </trkpt>
      <trkpt lat="63.422178" lon="10.33074383">
        <ele>202.847</ele>
        <time>1970-01-01T01:00:00Z</time>
      </trkpt>
      <trkpt lat="63.42218183" lon="10.33072717">
        <ele>203.152</ele>
        <time>1970-01-01T01:00:00Z</time>
      </trkpt>
      <trkpt lat="63.42218567" lon="10.33070667">
        <ele>203.152</ele>
        <time>1970-01-01T01:00:00Z</time>
      </trkpt>
      <trkpt lat="63.42218933" lon="10.33068817">
        <ele>203.456</ele>
        <time>1970-01-01T01:00:00Z</time>
      </trkpt>
      <trkpt lat="63.42219283" lon="10.33067033">
        <ele>203.456</ele>
        <time>1970-01-01T01:00:00Z</time>
      </trkpt>
      <trkpt lat="63.42219583" lon="10.33065333">
        <ele>203.761</ele>
        <time>1970-01-01T01:00:00Z</time>
      </trkpt>
      <trkpt lat="63.42219983" lon="10.33063467">
        <ele>203.761</ele>
        <time>1970-01-01T01:00:00Z</time>
      </trkpt>
      <trkpt lat="63.4222075" lon="10.33061783">
        <ele>204.066</ele>
        <time>1970-01-01T01:00:00Z</time>
      </trkpt>
      <trkpt lat="63.42221617" lon="10.3306015">
        <ele>204.066</ele>
        <time>1970-01-01T01:00:00Z</time>
      </trkpt>
      <trkpt lat="63.422224" lon="10.330585">
        <ele>204.523</ele>
        <time>1970-01-01T01:00:00Z</time>
      </trkpt>
      <trkpt lat="63.42222967" lon="10.33056683">
        <ele>204.523</ele>
        <time>1970-01-01T01:00:00Z</time>
      </trkpt>
      <trkpt lat="63.42223483" lon="10.3305475">
        <ele>204.828</ele>
        <time>1970-01-01T01:00:00Z</time>
      </trkpt>
      <trkpt lat="63.4222405" lon="10.33052483">
        <ele>204.828</ele>
        <time>1970-01-01T01:00:00Z</time>
      </trkpt>
      <trkpt lat="63.422247" lon="10.33050317">
        <ele>205.285</ele>
        <time>1970-01-01T01:00:00Z</time>
      </trkpt>
      <trkpt lat="63.42225467" lon="10.33048167">
        <ele>205.285</ele>
        <time>1970-01-01T01:00:00Z</time>
      </trkpt>
      <trkpt lat="63.422263" lon="10.33046283">
        <ele>205.59</ele>
        <time>1970-01-01T01:00:00Z</time>
      </trkpt>
      <trkpt lat="63.42227" lon="10.33044767">
        <ele>205.59</ele>
        <time>1970-01-01T01:00:00Z</time>
      </trkpt>
      <trkpt lat="63.42227717" lon="10.33043417">
        <ele>205.895</ele>
        <time>1970-01-01T01:00:00Z</time>
      </trkpt>
      <trkpt lat="63.42228517" lon="10.33042283">
        <ele>205.895</ele>
        <time>1970-01-01T01:00:00Z</time>
      </trkpt>
      <trkpt lat="63.4222945" lon="10.33041167">
        <ele>206.2</ele>
        <time>1970-01-01T01:00:00Z</time>
      </trkpt>
      <trkpt lat="63.42230317" lon="10.33040083">
        <ele>206.2</ele>
        <time>1970-01-01T01:00:00Z</time>
      </trkpt>
      <trkpt lat="63.422312" lon="10.3303875">
        <ele>206.505</ele>
        <time>1970-01-01T01:00:00Z</time>
      </trkpt>
      <trkpt lat="63.4223205" lon="10.330372">
        <ele>206.505</ele>
        <time>1970-01-01T01:00:00Z</time>
      </trkpt>
      <trkpt lat="63.42232933" lon="10.330356">
        <ele>206.809</ele>
        <time>1970-01-01T01:00:00Z</time>
      </trkpt>
      <trkpt lat="63.4223385" lon="10.330343">
        <ele>206.809</ele>
        <time>1970-01-01T01:00:00Z</time>
      </trkpt>
      <trkpt lat="63.42234667" lon="10.33033167">
        <ele>207.114</ele>
        <time>1970-01-01T01:00:00Z</time>
      </trkpt>
      <trkpt lat="63.42235433" lon="10.3303215">
        <ele>207.114</ele>
        <time>1970-01-01T01:00:00Z</time>
      </trkpt>
      <trkpt lat="63.42236033" lon="10.3303095">
        <ele>207.419</ele>
        <time>1970-01-01T01:00:00Z</time>
      </trkpt>
      <trkpt lat="63.42236667" lon="10.33029583">
        <ele>207.419</ele>
        <time>1970-01-01T01:00:00Z</time>
      </trkpt>
      <trkpt lat="63.42237167" lon="10.33027633">
        <ele>207.724</ele>
        <time>1970-01-01T01:00:00Z</time>
      </trkpt>
      <trkpt lat="63.42237517" lon="10.33025283">
        <ele>207.724</ele>
        <time>1970-01-01T01:00:00Z</time>
      </trkpt>
      <trkpt lat="63.42237617" lon="10.33022233">
        <ele>207.876</ele>
        <time>1970-01-01T01:00:00Z</time>
      </trkpt>
      <trkpt lat="63.42237667" lon="10.3301935">
        <ele>207.876</ele>
        <time>1970-01-01T01:00:00Z</time>
      </trkpt>
      <trkpt lat="63.42237717" lon="10.33016633">
        <ele>208.181</ele>
        <time>1970-01-01T01:00:00Z</time>
      </trkpt>
      <trkpt lat="63.422379" lon="10.33014567">
        <ele>208.181</ele>
        <time>1970-01-01T01:00:00Z</time>
      </trkpt>
      <trkpt lat="63.4223805" lon="10.33012733">
        <ele>208.333</ele>
        <time>1970-01-01T01:00:00Z</time>
      </trkpt>
      <trkpt lat="63.42238317" lon="10.33010933">
        <ele>208.333</ele>
        <time>1970-01-01T01:00:00Z</time>
      </trkpt>
      <trkpt lat="63.422387" lon="10.33008783">
        <ele>208.486</ele>
        <time>1970-01-01T01:00:00Z</time>
      </trkpt>
      <trkpt lat="63.42239033" lon="10.330063">
        <ele>208.486</ele>
        <time>1970-01-01T01:00:00Z</time>
      </trkpt>
      <trkpt lat="63.4223925" lon="10.33003767">
        <ele>208.638</ele>
        <time>1970-01-01T01:00:00Z</time>
      </trkpt>
      <trkpt lat="63.42239167" lon="10.33001517">
        <ele>208.638</ele>
        <time>1970-01-01T01:00:00Z</time>
      </trkpt>
      <trkpt lat="63.42239117" lon="10.32999183">
        <ele>208.791</ele>
        <time>1970-01-01T01:00:00Z</time>
      </trkpt>
      <trkpt lat="63.4223895" lon="10.3299685">
        <ele>208.791</ele>
        <time>1970-01-01T01:00:00Z</time>
      </trkpt>
      <trkpt lat="63.42238917" lon="10.32994167">
        <ele>208.791</ele>
        <time>1970-01-01T01:00:00Z</time>
      </trkpt>
      <trkpt lat="63.42239083" lon="10.329915">
        <ele>208.791</ele>
        <time>1970-01-01T01:00:00Z</time>
      </trkpt>
      <trkpt lat="63.42239333" lon="10.32988883">
        <ele>208.943</ele>
        <time>1970-01-01T01:00:00Z</time>
      </trkpt>
      <trkpt lat="63.42239467" lon="10.329864">
        <ele>208.943</ele>
        <time>1970-01-01T01:00:00Z</time>
      </trkpt>
      <trkpt lat="63.42239583" lon="10.32983867">
        <ele>208.943</ele>
        <time>1970-01-01T01:00:00Z</time>
      </trkpt>
      <trkpt lat="63.42239717" lon="10.329811">
        <ele>208.943</ele>
        <time>1970-01-01T01:00:00Z</time>
      </trkpt>
      <trkpt lat="63.42240067" lon="10.32978367">
        <ele>208.943</ele>
        <time>1970-01-01T01:00:00Z</time>
      </trkpt>
      <trkpt lat="63.42240233" lon="10.3297605">
        <ele>208.943</ele>
        <time>1970-01-01T01:00:00Z</time>
      </trkpt>
      <trkpt lat="63.42240617" lon="10.3297375">
        <ele>208.791</ele>
        <time>1970-01-01T01:00:00Z</time>
      </trkpt>
      <trkpt lat="63.42241067" lon="10.32971333">
        <ele>208.791</ele>
        <time>1970-01-01T01:00:00Z</time>
      </trkpt>
      <trkpt lat="63.42241833" lon="10.32968633">
        <ele>208.791</ele>
        <time>1970-01-01T01:00:00Z</time>
      </trkpt>
      <trkpt lat="63.4224245" lon="10.32966717">
        <ele>208.791</ele>
        <time>1970-01-01T01:00:00Z</time>
      </trkpt>
      <trkpt lat="63.4224315" lon="10.329649">
        <ele>208.791</ele>
        <time>1970-01-01T01:00:00Z</time>
      </trkpt>
      <trkpt lat="63.42243767" lon="10.32963517">
        <ele>208.791</ele>
        <time>1970-01-01T01:00:00Z</time>
      </trkpt>
      <trkpt lat="63.42244533" lon="10.32961883">
        <ele>208.638</ele>
        <time>1970-01-01T01:00:00Z</time>
      </trkpt>
      <trkpt lat="63.4224535" lon="10.32960367">
        <ele>208.638</ele>
        <time>1970-01-01T01:00:00Z</time>
      </trkpt>
      <trkpt lat="63.42246267" lon="10.3295865">
        <ele>208.638</ele>
        <time>1970-01-01T01:00:00Z</time>
      </trkpt>
      <trkpt lat="63.42247" lon="10.32956083">
        <ele>208.638</ele>
        <time>1970-01-01T01:00:00Z</time>
      </trkpt>
      <trkpt lat="63.42247617" lon="10.32953333">
        <ele>208.638</ele>
        <time>1970-01-01T01:00:00Z</time>
      </trkpt>
      <trkpt lat="63.422482" lon="10.32950567">
        <ele>208.638</ele>
        <time>1970-01-01T01:00:00Z</time>
      </trkpt>
      <trkpt lat="63.4224895" lon="10.32948467">
        <ele>208.638</ele>
        <time>1970-01-01T01:00:00Z</time>
      </trkpt>
      <trkpt lat="63.42249733" lon="10.32946583">
        <ele>208.638</ele>
        <time>1970-01-01T01:00:00Z</time>
      </trkpt>
      <trkpt lat="63.42250567" lon="10.32944583">
        <ele>208.638</ele>
        <time>1970-01-01T01:00:00Z</time>
      </trkpt>
      <trkpt lat="63.4225145" lon="10.329429">
        <ele>208.638</ele>
        <time>1970-01-01T01:00:00Z</time>
      </trkpt>
      <trkpt lat="63.42252367" lon="10.32941167">
        <ele>208.638</ele>
        <time>1970-01-01T01:00:00Z</time>
      </trkpt>
      <trkpt lat="63.42253417" lon="10.32939633">
        <ele>208.638</ele>
        <time>1970-01-01T01:00:00Z</time>
      </trkpt>
      <trkpt lat="63.42254483" lon="10.32937767">
        <ele>208.791</ele>
        <time>1970-01-01T01:00:00Z</time>
      </trkpt>
      <trkpt lat="63.422556" lon="10.329359">
        <ele>208.791</ele>
        <time>1970-01-01T01:00:00Z</time>
      </trkpt>
      <trkpt lat="63.42256533" lon="10.3293405">
        <ele>208.791</ele>
        <time>1970-01-01T01:00:00Z</time>
      </trkpt>
      <trkpt lat="63.42257417" lon="10.32932267">
        <ele>208.791</ele>
        <time>1970-01-01T01:00:00Z</time>
      </trkpt>
      <trkpt lat="63.4225825" lon="10.32930783">
        <ele>208.943</ele>
        <time>1970-01-01T01:00:00Z</time>
      </trkpt>
      <trkpt lat="63.42259067" lon="10.329292">
        <ele>208.943</ele>
        <time>1970-01-01T01:00:00Z</time>
      </trkpt>
      <trkpt lat="63.42260033" lon="10.32927267">
        <ele>208.943</ele>
        <time>1970-01-01T01:00:00Z</time>
      </trkpt>
      <trkpt lat="63.42260983" lon="10.32924983">
        <ele>208.943</ele>
        <time>1970-01-01T01:00:00Z</time>
      </trkpt>
      <trkpt lat="63.42261867" lon="10.3292275">
        <ele>209.095</ele>
        <time>1970-01-01T01:00:00Z</time>
      </trkpt>
      <trkpt lat="63.4226255" lon="10.32920867">
        <ele>209.095</ele>
        <time>1970-01-01T01:00:00Z</time>
      </trkpt>
      <trkpt lat="63.42263183" lon="10.329189">
        <ele>209.095</ele>
        <time>1970-01-01T01:00:00Z</time>
      </trkpt>
      <trkpt lat="63.4226405" lon="10.32916617">
        <ele>209.095</ele>
        <time>1970-01-01T01:00:00Z</time>
      </trkpt>
      <trkpt lat="63.42264917" lon="10.32914217">
        <ele>209.248</ele>
        <time>1970-01-01T01:00:00Z</time>
      </trkpt>
      <trkpt lat="63.4226585" lon="10.32912">
        <ele>209.248</ele>
        <time>1970-01-01T01:00:00Z</time>
      </trkpt>
      <trkpt lat="63.42266617" lon="10.3291">
        <ele>209.248</ele>
        <time>1970-01-01T01:00:00Z</time>
      </trkpt>
      <trkpt lat="63.42267433" lon="10.32907617">
        <ele>209.248</ele>
        <time>1970-01-01T01:00:00Z</time>
      </trkpt>
      <trkpt lat="63.42268167" lon="10.32904767">
        <ele>209.4</ele>
        <time>1970-01-01T01:00:00Z</time>
      </trkpt>
      <trkpt lat="63.4226895" lon="10.32901567">
        <ele>209.4</ele>
        <time>1970-01-01T01:00:00Z</time>
      </trkpt>
      <trkpt lat="63.42269433" lon="10.32898867">
        <ele>209.553</ele>
        <time>1970-01-01T01:00:00Z</time>
      </trkpt>
      <trkpt lat="63.42269833" lon="10.32896533">
        <ele>209.553</ele>
        <time>1970-01-01T01:00:00Z</time>
      </trkpt>
      <trkpt lat="63.422701" lon="10.32894517">
        <ele>209.553</ele>
        <time>1970-01-01T01:00:00Z</time>
      </trkpt>
      <trkpt lat="63.422705" lon="10.32892083">
        <ele>209.553</ele>
        <time>1970-01-01T01:00:00Z</time>
      </trkpt>
      <trkpt lat="63.4227095" lon="10.3288945">
        <ele>209.857</ele>
        <time>1970-01-01T01:00:00Z</time>
      </trkpt>
      <trkpt lat="63.42271283" lon="10.328869">
        <ele>209.857</ele>
        <time>1970-01-01T01:00:00Z</time>
      </trkpt>
      <trkpt lat="63.42271667" lon="10.32883883">
        <ele>210.01</ele>
        <time>1970-01-01T01:00:00Z</time>
      </trkpt>
      <trkpt lat="63.42272083" lon="10.32881033">
        <ele>210.01</ele>
        <time>1970-01-01T01:00:00Z</time>
      </trkpt>
      <trkpt lat="63.42272317" lon="10.32877817">
        <ele>210.162</ele>
        <time>1970-01-01T01:00:00Z</time>
      </trkpt>
      <trkpt lat="63.422724" lon="10.3287515">
        <ele>210.162</ele>
        <time>1970-01-01T01:00:00Z</time>
      </trkpt>
      <trkpt lat="63.42272417" lon="10.32872233">
        <ele>210.467</ele>
        <time>1970-01-01T01:00:00Z</time>
      </trkpt>
      <trkpt lat="63.422727" lon="10.32869717">
        <ele>210.467</ele>
        <time>1970-01-01T01:00:00Z</time>
      </trkpt>
      <trkpt lat="63.42273033" lon="10.32867333">
        <ele>210.619</ele>
        <time>1970-01-01T01:00:00Z</time>
      </trkpt>
      <trkpt lat="63.422734" lon="10.32865167">
        <ele>210.619</ele>
        <time>1970-01-01T01:00:00Z</time>
      </trkpt>
      <trkpt lat="63.422737" lon="10.3286315">
        <ele>210.924</ele>
        <time>1970-01-01T01:00:00Z</time>
      </trkpt>
      <trkpt lat="63.42273983" lon="10.32860983">
        <ele>210.924</ele>
        <time>1970-01-01T01:00:00Z</time>
      </trkpt>
      <trkpt lat="63.4227425" lon="10.32858833">
        <ele>211.077</ele>
        <time>1970-01-01T01:00:00Z</time>
      </trkpt>
      <trkpt lat="63.42274533" lon="10.3285615">
        <ele>211.077</ele>
        <time>1970-01-01T01:00:00Z</time>
      </trkpt>
      <trkpt lat="63.422747" lon="10.32853117">
        <ele>211.381</ele>
        <time>1970-01-01T01:00:00Z</time>
      </trkpt>
      <trkpt lat="63.42274817" lon="10.3285015">
        <ele>211.381</ele>
        <time>1970-01-01T01:00:00Z</time>
      </trkpt>
      <trkpt lat="63.42274917" lon="10.32847383">
        <ele>211.686</ele>
        <time>1970-01-01T01:00:00Z</time>
      </trkpt>
      <trkpt lat="63.42275133" lon="10.32845033">
        <ele>211.686</ele>
        <time>1970-01-01T01:00:00Z</time>
      </trkpt>
      <trkpt lat="63.42275533" lon="10.3284255">
        <ele>211.839</ele>
        <time>1970-01-01T01:00:00Z</time>
      </trkpt>
      <trkpt lat="63.42275933" lon="10.32840017">
        <ele>211.839</ele>
        <time>1970-01-01T01:00:00Z</time>
      </trkpt>
      <trkpt lat="63.42276267" lon="10.32837067">
        <ele>212.143</ele>
        <time>1970-01-01T01:00:00Z</time>
      </trkpt>
      <trkpt lat="63.42276483" lon="10.32834483">
        <ele>212.143</ele>
        <time>1970-01-01T01:00:00Z</time>
      </trkpt>
      <trkpt lat="63.42276667" lon="10.32832083">
        <ele>212.448</ele>
        <time>1970-01-01T01:00:00Z</time>
      </trkpt>
      <trkpt lat="63.42276933" lon="10.32830067">
        <ele>212.448</ele>
        <time>1970-01-01T01:00:00Z</time>
      </trkpt>
      <trkpt lat="63.42276983" lon="10.32827817">
        <ele>212.753</ele>
        <time>1970-01-01T01:00:00Z</time>
      </trkpt>
      <trkpt lat="63.42277017" lon="10.328255">
        <ele>212.753</ele>
        <time>1970-01-01T01:00:00Z</time>
      </trkpt>
      <trkpt lat="63.4227705" lon="10.32823133">
        <ele>212.905</ele>
        <time>1970-01-01T01:00:00Z</time>
      </trkpt>
      <trkpt lat="63.42277267" lon="10.328204">
        <ele>212.905</ele>
        <time>1970-01-01T01:00:00Z</time>
      </trkpt>
      <trkpt lat="63.42277417" lon="10.3281755">
        <ele>213.21</ele>
        <time>1970-01-01T01:00:00Z</time>
      </trkpt>
      <trkpt lat="63.42277367" lon="10.328153">
        <ele>213.21</ele>
        <time>1970-01-01T01:00:00Z</time>
      </trkpt>
      <trkpt lat="63.42277283" lon="10.32813883">
        <ele>213.515</ele>
        <time>1970-01-01T01:00:00Z</time>
      </trkpt>
      <trkpt lat="63.422772" lon="10.328133">
        <ele>213.515</ele>
        <time>1970-01-01T01:00:00Z</time>
      </trkpt>
      <trkpt lat="63.42277317" lon="10.32812617">
        <ele>213.82</ele>
        <time>1970-01-01T01:00:00Z</time>
      </trkpt>
      <trkpt lat="63.422774" lon="10.32812183">
        <ele>213.82</ele>
        <time>1970-01-01T01:00:00Z</time>
      </trkpt>
      <trkpt lat="63.4227755" lon="10.3281175">
        <ele>214.125</ele>
        <time>1970-01-01T01:00:00Z</time>
      </trkpt>
      <trkpt lat="63.4227775" lon="10.32811567">
        <ele>214.125</ele>
        <time>1970-01-01T01:00:00Z</time>
      </trkpt>
      <trkpt lat="63.4227795" lon="10.32811017">
        <ele>214.277</ele>
        <time>1970-01-01T01:00:00Z</time>
      </trkpt>
      <trkpt lat="63.42278267" lon="10.32809733">
        <ele>214.277</ele>
        <time>1970-01-01T01:00:00Z</time>
      </trkpt>
      <trkpt lat="63.422785" lon="10.32808067">
        <ele>214.582</ele>
        <time>1970-01-01T01:00:00Z</time>
      </trkpt>
      <trkpt lat="63.42278767" lon="10.32805733">
        <ele>214.582</ele>
        <time>1970-01-01T01:00:00Z</time>
      </trkpt>
      <trkpt lat="63.42278983" lon="10.3280335">
        <ele>214.887</ele>
        <time>1970-01-01T01:00:00Z</time>
      </trkpt>
      <trkpt lat="63.422791" lon="10.32800633">
        <ele>214.887</ele>
        <time>1970-01-01T01:00:00Z</time>
      </trkpt>
      <trkpt lat="63.42279083" lon="10.32798133">
        <ele>215.191</ele>
        <time>1970-01-01T01:00:00Z</time>
      </trkpt>
      <trkpt lat="63.4227895" lon="10.3279545">
        <ele>215.191</ele>
        <time>1970-01-01T01:00:00Z</time>
      </trkpt>
      <trkpt lat="63.42278783" lon="10.32792733">
        <ele>215.496</ele>
        <time>1970-01-01T01:00:00Z</time>
      </trkpt>
      <trkpt lat="63.42278567" lon="10.3278985">
        <ele>215.496</ele>
        <time>1970-01-01T01:00:00Z</time>
      </trkpt>
      <trkpt lat="63.422783" lon="10.32786967">
        <ele>215.801</ele>
        <time>1970-01-01T01:00:00Z</time>
      </trkpt>
      <trkpt lat="63.42277917" lon="10.32784017">
        <ele>215.801</ele>
        <time>1970-01-01T01:00:00Z</time>
      </trkpt>
      <trkpt lat="63.42277633" lon="10.32781033">
        <ele>216.106</ele>
        <time>1970-01-01T01:00:00Z</time>
      </trkpt>
      <trkpt lat="63.42277483" lon="10.32778083">
        <ele>216.106</ele>
        <time>1970-01-01T01:00:00Z</time>
      </trkpt>
      <trkpt lat="63.42277417" lon="10.32774733">
        <ele>216.258</ele>
        <time>1970-01-01T01:00:00Z</time>
      </trkpt>
      <trkpt lat="63.42277483" lon="10.32771417">
        <ele>216.258</ele>
        <time>1970-01-01T01:00:00Z</time>
      </trkpt>
      <trkpt lat="63.42277333" lon="10.327682">
        <ele>216.563</ele>
        <time>1970-01-01T01:00:00Z</time>
      </trkpt>
      <trkpt lat="63.42277333" lon="10.3276535">
        <ele>216.563</ele>
        <time>1970-01-01T01:00:00Z</time>
      </trkpt>
      <trkpt lat="63.42277117" lon="10.32762583">
        <ele>216.868</ele>
        <time>1970-01-01T01:00:00Z</time>
      </trkpt>
      <trkpt lat="63.42277067" lon="10.327599">
        <ele>216.868</ele>
        <time>1970-01-01T01:00:00Z</time>
      </trkpt>
      <trkpt lat="63.42276933" lon="10.32757583">
        <ele>217.02</ele>
        <time>1970-01-01T01:00:00Z</time>
      </trkpt>
      <trkpt lat="63.42276767" lon="10.3275515">
        <ele>217.02</ele>
        <time>1970-01-01T01:00:00Z</time>
      </trkpt>
      <trkpt lat="63.4227665" lon="10.3275285">
        <ele>217.325</ele>
        <time>1970-01-01T01:00:00Z</time>
      </trkpt>
      <trkpt lat="63.4227675" lon="10.32750283">
        <ele>217.325</ele>
        <time>1970-01-01T01:00:00Z</time>
      </trkpt>
      <trkpt lat="63.422772" lon="10.32748117">
        <ele>217.63</ele>
        <time>1970-01-01T01:00:00Z</time>
      </trkpt>
      <trkpt lat="63.42277733" lon="10.32745933">
        <ele>217.63</ele>
        <time>1970-01-01T01:00:00Z</time>
      </trkpt>
      <trkpt lat="63.42278233" lon="10.3274375">
        <ele>217.782</ele>
        <time>1970-01-01T01:00:00Z</time>
      </trkpt>
      <trkpt lat="63.42278583" lon="10.32741633">
        <ele>217.782</ele>
        <time>1970-01-01T01:00:00Z</time>
      </trkpt>
      <trkpt lat="63.4227935" lon="10.327396">
        <ele>218.087</ele>
        <time>1970-01-01T01:00:00Z</time>
      </trkpt>
      <trkpt lat="63.42280017" lon="10.3273765">
        <ele>218.087</ele>
        <time>1970-01-01T01:00:00Z</time>
      </trkpt>
      <trkpt lat="63.42280733" lon="10.32735567">
        <ele>218.392</ele>
        <time>1970-01-01T01:00:00Z</time>
      </trkpt>
      <trkpt lat="63.4228095" lon="10.3273355">
        <ele>218.392</ele>
        <time>1970-01-01T01:00:00Z</time>
      </trkpt>
      <trkpt lat="63.42281067" lon="10.32731467">
        <ele>218.697</ele>
        <time>1970-01-01T01:00:00Z</time>
      </trkpt>
      <trkpt lat="63.42281083" lon="10.32729433">
        <ele>218.697</ele>
        <time>1970-01-01T01:00:00Z</time>
      </trkpt>
      <trkpt lat="63.4228085" lon="10.3272705">
        <ele>219.001</ele>
        <time>1970-01-01T01:00:00Z</time>
      </trkpt>
      <trkpt lat="63.4228055" lon="10.32725017">
        <ele>219.001</ele>
        <time>1970-01-01T01:00:00Z</time>
      </trkpt>
      <trkpt lat="63.42280133" lon="10.32723317">
        <ele>219.306</ele>
        <time>1970-01-01T01:00:00Z</time>
      </trkpt>
      <trkpt lat="63.4227985" lon="10.32721833">
        <ele>219.306</ele>
        <time>1970-01-01T01:00:00Z</time>
      </trkpt>
      <trkpt lat="63.422796" lon="10.32720183">
        <ele>219.611</ele>
        <time>1970-01-01T01:00:00Z</time>
      </trkpt>
      <trkpt lat="63.42279517" lon="10.32718217">
        <ele>219.611</ele>
        <time>1970-01-01T01:00:00Z</time>
      </trkpt>
      <trkpt lat="63.422795" lon="10.327162">
        <ele>219.916</ele>
        <time>1970-01-01T01:00:00Z</time>
      </trkpt>
      <trkpt lat="63.422797" lon="10.32713917">
        <ele>219.916</ele>
        <time>1970-01-01T01:00:00Z</time>
      </trkpt>
      <trkpt lat="63.42279833" lon="10.32711533">
        <ele>220.221</ele>
        <time>1970-01-01T01:00:00Z</time>
      </trkpt>
      <trkpt lat="63.42280217" lon="10.32709167">
        <ele>220.221</ele>
        <time>1970-01-01T01:00:00Z</time>
      </trkpt>
      <trkpt lat="63.42280367" lon="10.32706967">
        <ele>220.525</ele>
        <time>1970-01-01T01:00:00Z</time>
      </trkpt>
      <trkpt lat="63.42280483" lon="10.32704617">
        <ele>220.525</ele>
        <time>1970-01-01T01:00:00Z</time>
      </trkpt>
      <trkpt lat="63.42280333" lon="10.32702">
        <ele>220.83</ele>
        <time>1970-01-01T01:00:00Z</time>
      </trkpt>
      <trkpt lat="63.42280183" lon="10.32699317">
        <ele>220.83</ele>
        <time>1970-01-01T01:00:00Z</time>
      </trkpt>
      <trkpt lat="63.4228005" lon="10.3269705">
        <ele>221.135</ele>
        <time>1970-01-01T01:00:00Z</time>
      </trkpt>
      <trkpt lat="63.42279983" lon="10.32694817">
        <ele>221.135</ele>
        <time>1970-01-01T01:00:00Z</time>
      </trkpt>
      <trkpt lat="63.42279933" lon="10.32692717">
        <ele>221.592</ele>
        <time>1970-01-01T01:00:00Z</time>
      </trkpt>
      <trkpt lat="63.422799" lon="10.326902">
        <ele>221.592</ele>
        <time>1970-01-01T01:00:00Z</time>
      </trkpt>
      <trkpt lat="63.42279717" lon="10.32687917">
        <ele>221.897</ele>
        <time>1970-01-01T01:00:00Z</time>
      </trkpt>
      <trkpt lat="63.422792" lon="10.3268545">
        <ele>221.897</ele>
        <time>1970-01-01T01:00:00Z</time>
      </trkpt>
      <trkpt lat="63.42278767" lon="10.3268325">
        <ele>222.202</ele>
        <time>1970-01-01T01:00:00Z</time>
      </trkpt>
      <trkpt lat="63.4227835" lon="10.32681133">
        <ele>222.202</ele>
        <time>1970-01-01T01:00:00Z</time>
      </trkpt>
      <trkpt lat="63.422781" lon="10.32679167">
        <ele>222.507</ele>
        <time>1970-01-01T01:00:00Z</time>
      </trkpt>
      <trkpt lat="63.42277667" lon="10.32677233">
        <ele>222.507</ele>
        <time>1970-01-01T01:00:00Z</time>
      </trkpt>
      <trkpt lat="63.42277283" lon="10.32674983">
        <ele>222.964</ele>
        <time>1970-01-01T01:00:00Z</time>
      </trkpt>
      <trkpt lat="63.42277067" lon="10.32672917">
        <ele>222.964</ele>
        <time>1970-01-01T01:00:00Z</time>
      </trkpt>
      <trkpt lat="63.42276933" lon="10.326708">
        <ele>223.269</ele>
        <time>1970-01-01T01:00:00Z</time>
      </trkpt>
      <trkpt lat="63.422769" lon="10.32669017">
        <ele>223.269</ele>
        <time>1970-01-01T01:00:00Z</time>
      </trkpt>
      <trkpt lat="63.42277083" lon="10.32667267">
        <ele>223.574</ele>
        <time>1970-01-01T01:00:00Z</time>
      </trkpt>
      <trkpt lat="63.4227735" lon="10.326658">
        <ele>223.574</ele>
        <time>1970-01-01T01:00:00Z</time>
      </trkpt>
      <trkpt lat="63.42277667" lon="10.32664433">
        <ele>223.878</ele>
        <time>1970-01-01T01:00:00Z</time>
      </trkpt>
      <trkpt lat="63.4227805" lon="10.326635">
        <ele>223.878</ele>
        <time>1970-01-01T01:00:00Z</time>
      </trkpt>
      <trkpt lat="63.42278733" lon="10.32662217">
        <ele>224.336</ele>
        <time>1970-01-01T01:00:00Z</time>
      </trkpt>
      <trkpt lat="63.42279533" lon="10.32660717">
        <ele>224.336</ele>
        <time>1970-01-01T01:00:00Z</time>
      </trkpt>
      <trkpt lat="63.42280267" lon="10.3265885">
        <ele>224.64</ele>
        <time>1970-01-01T01:00:00Z</time>
      </trkpt>
      <trkpt lat="63.42280767" lon="10.32656883">
        <ele>224.64</ele>
        <time>1970-01-01T01:00:00Z</time>
      </trkpt>
      <trkpt lat="63.422812" lon="10.32654883">
        <ele>224.945</ele>
        <time>1970-01-01T01:00:00Z</time>
      </trkpt>
      <trkpt lat="63.422815" lon="10.326527">
        <ele>224.945</ele>
        <time>1970-01-01T01:00:00Z</time>
      </trkpt>
      <trkpt lat="63.422817" lon="10.32650467">
        <ele>225.25</ele>
        <time>1970-01-01T01:00:00Z</time>
      </trkpt>
      <trkpt lat="63.422819" lon="10.32648333">
        <ele>225.25</ele>
        <time>1970-01-01T01:00:00Z</time>
      </trkpt>
      <trkpt lat="63.422821" lon="10.3264625">
        <ele>225.707</ele>
        <time>1970-01-01T01:00:00Z</time>
      </trkpt>
      <trkpt lat="63.42282417" lon="10.32644567">
        <ele>225.707</ele>
        <time>1970-01-01T01:00:00Z</time>
      </trkpt>
      <trkpt lat="63.42282733" lon="10.32642867">
        <ele>226.164</ele>
        <time>1970-01-01T01:00:00Z</time>
      </trkpt>
      <trkpt lat="63.42282717" lon="10.32640867">
        <ele>226.164</ele>
        <time>1970-01-01T01:00:00Z</time>
      </trkpt>
      <trkpt lat="63.422828" lon="10.32638767">
        <ele>226.469</ele>
        <time>1970-01-01T01:00:00Z</time>
      </trkpt>
      <trkpt lat="63.42282717" lon="10.32636733">
        <ele>226.469</ele>
        <time>1970-01-01T01:00:00Z</time>
      </trkpt>
      <trkpt lat="63.4228295" lon="10.326348">
        <ele>226.926</ele>
        <time>1970-01-01T01:00:00Z</time>
      </trkpt>
      <trkpt lat="63.42283233" lon="10.32632517">
        <ele>226.926</ele>
        <time>1970-01-01T01:00:00Z</time>
      </trkpt>
      <trkpt lat="63.42283583" lon="10.3263025">
        <ele>227.384</ele>
        <time>1970-01-01T01:00:00Z</time>
      </trkpt>
      <trkpt lat="63.42284183" lon="10.32627267">
        <ele>227.384</ele>
        <time>1970-01-01T01:00:00Z</time>
      </trkpt>
      <trkpt lat="63.42284767" lon="10.32624117">
        <ele>227.841</ele>
        <time>1970-01-01T01:00:00Z</time>
      </trkpt>
      <trkpt lat="63.42285433" lon="10.32620733">
        <ele>227.841</ele>
        <time>1970-01-01T01:00:00Z</time>
      </trkpt>
      <trkpt lat="63.4228585" lon="10.32617983">
        <ele>228.298</ele>
        <time>1970-01-01T01:00:00Z</time>
      </trkpt>
      <trkpt lat="63.42286117" lon="10.32615633">
        <ele>228.298</ele>
        <time>1970-01-01T01:00:00Z</time>
      </trkpt>
      <trkpt lat="63.42286617" lon="10.3261315">
        <ele>228.603</ele>
        <time>1970-01-01T01:00:00Z</time>
      </trkpt>
      <trkpt lat="63.42287183" lon="10.32611017">
        <ele>228.603</ele>
        <time>1970-01-01T01:00:00Z</time>
      </trkpt>
      <trkpt lat="63.42287667" lon="10.32608867">
        <ele>229.06</ele>
        <time>1970-01-01T01:00:00Z</time>
      </trkpt>
      <trkpt lat="63.42287917" lon="10.326067">
        <ele>229.06</ele>
        <time>1970-01-01T01:00:00Z</time>
      </trkpt>
      <trkpt lat="63.422882" lon="10.32604233">
        <ele>229.517</ele>
        <time>1970-01-01T01:00:00Z</time>
      </trkpt>
      <trkpt lat="63.42288617" lon="10.326016">
        <ele>229.517</ele>
        <time>1970-01-01T01:00:00Z</time>
      </trkpt>
      <trkpt lat="63.4228885" lon="10.32599067">
        <ele>229.822</ele>
        <time>1970-01-01T01:00:00Z</time>
      </trkpt>
      <trkpt lat="63.42288883" lon="10.32596483">
        <ele>229.822</ele>
        <time>1970-01-01T01:00:00Z</time>
      </trkpt>
      <trkpt lat="63.42288817" lon="10.32593633">
        <ele>230.279</ele>
        <time>1970-01-01T01:00:00Z</time>
      </trkpt>
      <trkpt lat="63.42288783" lon="10.3259065">
        <ele>230.279</ele>
        <time>1970-01-01T01:00:00Z</time>
      </trkpt>
      <trkpt lat="63.42288733" lon="10.3258775">
        <ele>230.584</ele>
        <time>1970-01-01T01:00:00Z</time>
      </trkpt>
      <trkpt lat="63.4228865" lon="10.32584983">
        <ele>230.584</ele>
        <time>1970-01-01T01:00:00Z</time>
      </trkpt>
      <trkpt lat="63.42288367" lon="10.325821">
        <ele>231.041</ele>
        <time>1970-01-01T01:00:00Z</time>
      </trkpt>
      <trkpt lat="63.4228815" lon="10.32578883">
        <ele>231.041</ele>
        <time>1970-01-01T01:00:00Z</time>
      </trkpt>
      <trkpt lat="63.42288017" lon="10.32575817">
        <ele>231.498</ele>
        <time>1970-01-01T01:00:00Z</time>
      </trkpt>
      <trkpt lat="63.42288017" lon="10.325728">
        <ele>231.498</ele>
        <time>1970-01-01T01:00:00Z</time>
      </trkpt>
      <trkpt lat="63.4228795" lon="10.32570317">
        <ele>231.956</ele>
        <time>1970-01-01T01:00:00Z</time>
      </trkpt>
      <trkpt lat="63.4228775" lon="10.3256785">
        <ele>231.956</ele>
        <time>1970-01-01T01:00:00Z</time>
      </trkpt>
      <trkpt lat="63.4228755" lon="10.32565567">
        <ele>232.413</ele>
        <time>1970-01-01T01:00:00Z</time>
      </trkpt>
      <trkpt lat="63.42287533" lon="10.32563367">
        <ele>232.413</ele>
        <time>1970-01-01T01:00:00Z</time>
      </trkpt>
      <trkpt lat="63.4228765" lon="10.32561483">
        <ele>232.87</ele>
        <time>1970-01-01T01:00:00Z</time>
      </trkpt>
      <trkpt lat="63.4228815" lon="10.32560067">
        <ele>232.87</ele>
        <time>1970-01-01T01:00:00Z</time>
      </trkpt>
      <trkpt lat="63.42288667" lon="10.32558433">
        <ele>233.327</ele>
        <time>1970-01-01T01:00:00Z</time>
      </trkpt>
      <trkpt lat="63.42289133" lon="10.32556733">
        <ele>233.327</ele>
        <time>1970-01-01T01:00:00Z</time>
      </trkpt>
      <trkpt lat="63.4228945" lon="10.32554417">
        <ele>233.784</ele>
        <time>1970-01-01T01:00:00Z</time>
      </trkpt>
      <trkpt lat="63.42289717" lon="10.3255215">
        <ele>233.784</ele>
        <time>1970-01-01T01:00:00Z</time>
      </trkpt>
      <trkpt lat="63.4228995" lon="10.32549733">
        <ele>234.242</ele>
        <time>1970-01-01T01:00:00Z</time>
      </trkpt>
      <trkpt lat="63.4229005" lon="10.32547833">
        <ele>234.242</ele>
        <time>1970-01-01T01:00:00Z</time>
      </trkpt>
      <trkpt lat="63.42290067" lon="10.32545317">
        <ele>234.699</ele>
        <time>1970-01-01T01:00:00Z</time>
      </trkpt>
      <trkpt lat="63.42290233" lon="10.32542817">
        <ele>234.699</ele>
        <time>1970-01-01T01:00:00Z</time>
      </trkpt>
      <trkpt lat="63.422905" lon="10.32539717">
        <ele>235.156</ele>
        <time>1970-01-01T01:00:00Z</time>
      </trkpt>
      <trkpt lat="63.42290867" lon="10.32537217">
        <ele>235.156</ele>
        <time>1970-01-01T01:00:00Z</time>
      </trkpt>
      <trkpt lat="63.42290917" lon="10.32534483">
        <ele>235.613</ele>
        <time>1970-01-01T01:00:00Z</time>
      </trkpt>
      <trkpt lat="63.42291" lon="10.3253155">
        <ele>235.613</ele>
        <time>1970-01-01T01:00:00Z</time>
      </trkpt>
      <trkpt lat="63.42291117" lon="10.32528367">
        <ele>236.07</ele>
        <time>1970-01-01T01:00:00Z</time>
      </trkpt>
      <trkpt lat="63.42291317" lon="10.32525183">
        <ele>236.07</ele>
        <time>1970-01-01T01:00:00Z</time>
      </trkpt>
      <trkpt lat="63.42291383" lon="10.32522517">
        <ele>236.528</ele>
        <time>1970-01-01T01:00:00Z</time>
      </trkpt>
      <trkpt lat="63.42291317" lon="10.32520067">
        <ele>236.528</ele>
        <time>1970-01-01T01:00:00Z</time>
      </trkpt>
      <trkpt lat="63.422913" lon="10.325178">
        <ele>236.832</ele>
        <time>1970-01-01T01:00:00Z</time>
      </trkpt>
      <trkpt lat="63.42291233" lon="10.32515383">
        <ele>236.832</ele>
        <time>1970-01-01T01:00:00Z</time>
      </trkpt>
      <trkpt lat="63.42291083" lon="10.32512933">
        <ele>237.29</ele>
        <time>1970-01-01T01:00:00Z</time>
      </trkpt>
      <trkpt lat="63.42291117" lon="10.32510633">
        <ele>237.29</ele>
        <time>1970-01-01T01:00:00Z</time>
      </trkpt>
      <trkpt lat="63.42291267" lon="10.32508333">
        <ele>237.747</ele>
        <time>1970-01-01T01:00:00Z</time>
      </trkpt>
      <trkpt lat="63.42291367" lon="10.32506067">
        <ele>237.747</ele>
        <time>1970-01-01T01:00:00Z</time>
      </trkpt>
      <trkpt lat="63.42291267" lon="10.32503333">
        <ele>238.052</ele>
        <time>1970-01-01T01:00:00Z</time>
      </trkpt>
      <trkpt lat="63.42291117" lon="10.32500817">
        <ele>238.052</ele>
        <time>1970-01-01T01:00:00Z</time>
      </trkpt>
      <trkpt lat="63.4229105" lon="10.32498333">
        <ele>238.356</ele>
        <time>1970-01-01T01:00:00Z</time>
      </trkpt>
      <trkpt lat="63.42290933" lon="10.324963">
        <ele>238.356</ele>
        <time>1970-01-01T01:00:00Z</time>
      </trkpt>
      <trkpt lat="63.42290617" lon="10.3249405">
        <ele>238.814</ele>
        <time>1970-01-01T01:00:00Z</time>
      </trkpt>
      <trkpt lat="63.42290317" lon="10.324914">
        <ele>238.814</ele>
        <time>1970-01-01T01:00:00Z</time>
      </trkpt>
      <trkpt lat="63.42289967" lon="10.3248835">
        <ele>239.118</ele>
        <time>1970-01-01T01:00:00Z</time>
      </trkpt>
      <trkpt lat="63.42289467" lon="10.32485183">
        <ele>239.118</ele>
        <time>1970-01-01T01:00:00Z</time>
      </trkpt>
      <trkpt lat="63.42288833" lon="10.32482483">
        <ele>239.423</ele>
        <time>1970-01-01T01:00:00Z</time>
      </trkpt>
      <trkpt lat="63.42288117" lon="10.324798">
        <ele>239.423</ele>
        <time>1970-01-01T01:00:00Z</time>
      </trkpt>
      <trkpt lat="63.42287283" lon="10.32477017">
        <ele>239.728</ele>
        <time>1970-01-01T01:00:00Z</time>
      </trkpt>
      <trkpt lat="63.422865" lon="10.32473933">
        <ele>239.728</ele>
        <time>1970-01-01T01:00:00Z</time>
      </trkpt>
      <trkpt lat="63.42285817" lon="10.32471033">
        <ele>240.185</ele>
        <time>1970-01-01T01:00:00Z</time>
      </trkpt>
      <trkpt lat="63.42285433" lon="10.32468133">
        <ele>240.185</ele>
        <time>1970-01-01T01:00:00Z</time>
      </trkpt>
      <trkpt lat="63.4228525" lon="10.32465217">
        <ele>240.49</ele>
        <time>1970-01-01T01:00:00Z</time>
      </trkpt>
      <trkpt lat="63.42285033" lon="10.32462483">
        <ele>240.49</ele>
        <time>1970-01-01T01:00:00Z</time>
      </trkpt>
      <trkpt lat="63.42284733" lon="10.3246015">
        <ele>240.795</ele>
        <time>1970-01-01T01:00:00Z</time>
      </trkpt>
      <trkpt lat="63.422843" lon="10.324581">
        <ele>240.795</ele>
        <time>1970-01-01T01:00:00Z</time>
      </trkpt>
      <trkpt lat="63.422839" lon="10.3245545">
        <ele>241.1</ele>
        <time>1970-01-01T01:00:00Z</time>
      </trkpt>
      <trkpt lat="63.4228355" lon="10.3245245">
        <ele>241.1</ele>
        <time>1970-01-01T01:00:00Z</time>
      </trkpt>
      <trkpt lat="63.42283017" lon="10.3244935">
        <ele>241.557</ele>
        <time>1970-01-01T01:00:00Z</time>
      </trkpt>
      <trkpt lat="63.42282817" lon="10.32446633">
        <ele>241.557</ele>
        <time>1970-01-01T01:00:00Z</time>
      </trkpt>
      <trkpt lat="63.42282667" lon="10.3244395">
        <ele>241.862</ele>
        <time>1970-01-01T01:00:00Z</time>
      </trkpt>
      <trkpt lat="63.42282717" lon="10.3244125">
        <ele>241.862</ele>
        <time>1970-01-01T01:00:00Z</time>
      </trkpt>
      <trkpt lat="63.42282517" lon="10.324386">
        <ele>242.319</ele>
        <time>1970-01-01T01:00:00Z</time>
      </trkpt>
      <trkpt lat="63.42282333" lon="10.324362">
        <ele>242.319</ele>
        <time>1970-01-01T01:00:00Z</time>
      </trkpt>
      <trkpt lat="63.422822" lon="10.32434017">
        <ele>242.624</ele>
        <time>1970-01-01T01:00:00Z</time>
      </trkpt>
      <trkpt lat="63.42282" lon="10.32431517">
        <ele>242.624</ele>
        <time>1970-01-01T01:00:00Z</time>
      </trkpt>
      <trkpt lat="63.42281833" lon="10.324289">
        <ele>243.081</ele>
        <time>1970-01-01T01:00:00Z</time>
      </trkpt>
      <trkpt lat="63.4228185" lon="10.32426433">
        <ele>243.081</ele>
        <time>1970-01-01T01:00:00Z</time>
      </trkpt>
      <trkpt lat="63.4228215" lon="10.3242435">
        <ele>243.386</ele>
        <time>1970-01-01T01:00:00Z</time>
      </trkpt>
      <trkpt lat="63.42282767" lon="10.3242245">
        <ele>243.386</ele>
        <time>1970-01-01T01:00:00Z</time>
      </trkpt>
      <trkpt lat="63.4228335" lon="10.32420133">
        <ele>243.691</ele>
        <time>1970-01-01T01:00:00Z</time>
      </trkpt>
      <trkpt lat="63.42283933" lon="10.3241695">
        <ele>243.691</ele>
        <time>1970-01-01T01:00:00Z</time>
      </trkpt>
      <trkpt lat="63.42284267" lon="10.32413767">
        <ele>243.843</ele>
        <time>1970-01-01T01:00:00Z</time>
      </trkpt>
      <trkpt lat="63.4228445" lon="10.32411083">
        <ele>243.843</ele>
        <time>1970-01-01T01:00:00Z</time>
      </trkpt>
      <trkpt lat="63.422848" lon="10.32408583">
        <ele>243.995</ele>
        <time>1970-01-01T01:00:00Z</time>
      </trkpt>
      <trkpt lat="63.42285033" lon="10.32405183">
        <ele>243.995</ele>
        <time>1970-01-01T01:00:00Z</time>
      </trkpt>
      <trkpt lat="63.4228525" lon="10.3240085">
        <ele>243.995</ele>
        <time>1970-01-01T01:00:00Z</time>
      </trkpt>
      <trkpt lat="63.42284983" lon="10.323968">
        <ele>243.995</ele>
        <time>1970-01-01T01:00:00Z</time>
      </trkpt>
      <trkpt lat="63.42284583" lon="10.323935">
        <ele>243.995</ele>
        <time>1970-01-01T01:00:00Z</time>
      </trkpt>
      <trkpt lat="63.4228425" lon="10.32390417">
        <ele>243.995</ele>
        <time>1970-01-01T01:00:00Z</time>
      </trkpt>
      <trkpt lat="63.42283917" lon="10.32387">
        <ele>243.995</ele>
        <time>1970-01-01T01:00:00Z</time>
      </trkpt>
      <trkpt lat="63.4228385" lon="10.3238345">
        <ele>243.995</ele>
        <time>1970-01-01T01:00:00Z</time>
      </trkpt>
      <trkpt lat="63.4228385" lon="10.3238015">
        <ele>243.843</ele>
        <time>1970-01-01T01:00:00Z</time>
      </trkpt>
      <trkpt lat="63.422838" lon="10.32377433">
        <ele>243.843</ele>
        <time>1970-01-01T01:00:00Z</time>
      </trkpt>
      <trkpt lat="63.422833" lon="10.32374817">
        <ele>243.843</ele>
        <time>1970-01-01T01:00:00Z</time>
      </trkpt>
      <trkpt lat="63.42282867" lon="10.32372233">
        <ele>243.843</ele>
        <time>1970-01-01T01:00:00Z</time>
      </trkpt>
      <trkpt lat="63.42282467" lon="10.32369617">
        <ele>243.691</ele>
        <time>1970-01-01T01:00:00Z</time>
      </trkpt>
      <trkpt lat="63.42282517" lon="10.32367117">
        <ele>243.691</ele>
        <time>1970-01-01T01:00:00Z</time>
      </trkpt>
      <trkpt lat="63.42282533" lon="10.3236465">
        <ele>243.538</ele>
        <time>1970-01-01T01:00:00Z</time>
      </trkpt>
      <trkpt lat="63.42282767" lon="10.32362633">
        <ele>243.538</ele>
        <time>1970-01-01T01:00:00Z</time>
      </trkpt>
      <trkpt lat="63.42282867" lon="10.32360817">
        <ele>243.386</ele>
        <time>1970-01-01T01:00:00Z</time>
      </trkpt>
      <trkpt lat="63.42282967" lon="10.32359">
        <ele>243.386</ele>
        <time>1970-01-01T01:00:00Z</time>
      </trkpt>
      <trkpt lat="63.4228315" lon="10.32356817">
        <ele>243.386</ele>
        <time>1970-01-01T01:00:00Z</time>
      </trkpt>
      <trkpt lat="63.42283283" lon="10.32354433">
        <ele>243.386</ele>
        <time>1970-01-01T01:00:00Z</time>
      </trkpt>
      <trkpt lat="63.422834" lon="10.32351967">
        <ele>243.386</ele>
        <time>1970-01-01T01:00:00Z</time>
      </trkpt>
      <trkpt lat="63.42283317" lon="10.32349617">
        <ele>243.386</ele>
        <time>1970-01-01T01:00:00Z</time>
      </trkpt>
      <trkpt lat="63.42283217" lon="10.323473">
        <ele>243.386</ele>
        <time>1970-01-01T01:00:00Z</time>
      </trkpt>
      <trkpt lat="63.42283333" lon="10.3234505">
        <ele>243.386</ele>
        <time>1970-01-01T01:00:00Z</time>
      </trkpt>
      <trkpt lat="63.42283633" lon="10.32342617">
        <ele>243.386</ele>
        <time>1970-01-01T01:00:00Z</time>
      </trkpt>
      <trkpt lat="63.42284133" lon="10.323401">
        <ele>243.386</ele>
        <time>1970-01-01T01:00:00Z</time>
      </trkpt>
      <trkpt lat="63.422843" lon="10.32337367">
        <ele>243.538</ele>
        <time>1970-01-01T01:00:00Z</time>
      </trkpt>
      <trkpt lat="63.4228425" lon="10.323348">
        <ele>243.538</ele>
        <time>1970-01-01T01:00:00Z</time>
      </trkpt>
      <trkpt lat="63.42284117" lon="10.3233265">
        <ele>243.691</ele>
        <time>1970-01-01T01:00:00Z</time>
      </trkpt>
      <trkpt lat="63.42284083" lon="10.32330883">
        <ele>243.691</ele>
        <time>1970-01-01T01:00:00Z</time>
      </trkpt>
      <trkpt lat="63.42284083" lon="10.32329083">
        <ele>243.843</ele>
        <time>1970-01-01T01:00:00Z</time>
      </trkpt>
      <trkpt lat="63.42284133" lon="10.32327017">
        <ele>243.843</ele>
        <time>1970-01-01T01:00:00Z</time>
      </trkpt>
      <trkpt lat="63.4228435" lon="10.32325267">
        <ele>243.995</ele>
        <time>1970-01-01T01:00:00Z</time>
      </trkpt>
      <trkpt lat="63.4228475" lon="10.3232325">
        <ele>243.995</ele>
        <time>1970-01-01T01:00:00Z</time>
      </trkpt>
      <trkpt lat="63.42285133" lon="10.323214">
        <ele>244.3</ele>
        <time>1970-01-01T01:00:00Z</time>
      </trkpt>
      <trkpt lat="63.42285483" lon="10.3231905">
        <ele>244.3</ele>
        <time>1970-01-01T01:00:00Z</time>
      </trkpt>
      <trkpt lat="63.42285483" lon="10.32316717">
        <ele>244.605</ele>
        <time>1970-01-01T01:00:00Z</time>
      </trkpt>
      <trkpt lat="63.42285317" lon="10.323147">
        <ele>244.605</ele>
        <time>1970-01-01T01:00:00Z</time>
      </trkpt>
      <trkpt lat="63.42285" lon="10.323127">
        <ele>244.91</ele>
        <time>1970-01-01T01:00:00Z</time>
      </trkpt>
      <trkpt lat="63.42284917" lon="10.3231095">
        <ele>244.91</ele>
        <time>1970-01-01T01:00:00Z</time>
      </trkpt>
      <trkpt lat="63.422849" lon="10.32308417">
        <ele>245.215</ele>
        <time>1970-01-01T01:00:00Z</time>
      </trkpt>
      <trkpt lat="63.42284933" lon="10.32305883">
        <ele>245.215</ele>
        <time>1970-01-01T01:00:00Z</time>
      </trkpt>
      <trkpt lat="63.4228495" lon="10.32303">
        <ele>245.519</ele>
        <time>1970-01-01T01:00:00Z</time>
      </trkpt>
      <trkpt lat="63.42285033" lon="10.323003">
        <ele>245.519</ele>
        <time>1970-01-01T01:00:00Z</time>
      </trkpt>
      <trkpt lat="63.4228495" lon="10.32297883">
        <ele>245.824</ele>
        <time>1970-01-01T01:00:00Z</time>
      </trkpt>
      <trkpt lat="63.42284883" lon="10.32295767">
        <ele>245.824</ele>
        <time>1970-01-01T01:00:00Z</time>
      </trkpt>
      <trkpt lat="63.42284783" lon="10.32293517">
        <ele>246.129</ele>
        <time>1970-01-01T01:00:00Z</time>
      </trkpt>
      <trkpt lat="63.42284767" lon="10.32291167">
        <ele>246.129</ele>
        <time>1970-01-01T01:00:00Z</time>
      </trkpt>
      <trkpt lat="63.42284867" lon="10.32289017">
        <ele>246.586</ele>
        <time>1970-01-01T01:00:00Z</time>
      </trkpt>
      <trkpt lat="63.42285067" lon="10.3228715">
        <ele>246.586</ele>
        <time>1970-01-01T01:00:00Z</time>
      </trkpt>
      <trkpt lat="63.42285467" lon="10.32285067">
        <ele>246.891</ele>
        <time>1970-01-01T01:00:00Z</time>
      </trkpt>
      <trkpt lat="63.42285817" lon="10.32283033">
        <ele>246.891</ele>
        <time>1970-01-01T01:00:00Z</time>
      </trkpt>
      <trkpt lat="63.42286233" lon="10.3228105">
        <ele>247.196</ele>
        <time>1970-01-01T01:00:00Z</time>
      </trkpt>
      <trkpt lat="63.422865" lon="10.322791">
        <ele>247.196</ele>
        <time>1970-01-01T01:00:00Z</time>
      </trkpt>
      <trkpt lat="63.422867" lon="10.32276733">
        <ele>247.501</ele>
        <time>1970-01-01T01:00:00Z</time>
      </trkpt>
      <trkpt lat="63.4228695" lon="10.3227425">
        <ele>247.501</ele>
        <time>1970-01-01T01:00:00Z</time>
      </trkpt>
      <trkpt lat="63.42287417" lon="10.32271833">
        <ele>247.805</ele>
        <time>1970-01-01T01:00:00Z</time>
      </trkpt>
      <trkpt lat="63.42287883" lon="10.32269517">
        <ele>247.805</ele>
        <time>1970-01-01T01:00:00Z</time>
      </trkpt>
      <trkpt lat="63.42288183" lon="10.32266833">
        <ele>248.11</ele>
        <time>1970-01-01T01:00:00Z</time>
      </trkpt>
      <trkpt lat="63.4228825" lon="10.32264017">
        <ele>248.11</ele>
        <time>1970-01-01T01:00:00Z</time>
      </trkpt>
      <trkpt lat="63.42288083" lon="10.32261117">
        <ele>248.415</ele>
        <time>1970-01-01T01:00:00Z</time>
      </trkpt>
      <trkpt lat="63.42288033" lon="10.322585">
        <ele>248.415</ele>
        <time>1970-01-01T01:00:00Z</time>
      </trkpt>
      <trkpt lat="63.42288083" lon="10.32256067">
        <ele>248.72</ele>
        <time>1970-01-01T01:00:00Z</time>
      </trkpt>
      <trkpt lat="63.42288383" lon="10.32253767">
        <ele>248.72</ele>
        <time>1970-01-01T01:00:00Z</time>
      </trkpt>
      <trkpt lat="63.42288583" lon="10.322514">
        <ele>249.025</ele>
        <time>1970-01-01T01:00:00Z</time>
      </trkpt>
      <trkpt lat="63.422887" lon="10.32248683">
        <ele>249.025</ele>
        <time>1970-01-01T01:00:00Z</time>
      </trkpt>
      <trkpt lat="63.422889" lon="10.3224625">
        <ele>249.177</ele>
        <time>1970-01-01T01:00:00Z</time>
      </trkpt>
      <trkpt lat="63.42289183" lon="10.32243983">
        <ele>249.177</ele>
        <time>1970-01-01T01:00:00Z</time>
      </trkpt>
      <trkpt lat="63.42289633" lon="10.3224195">
        <ele>249.482</ele>
        <time>1970-01-01T01:00:00Z</time>
      </trkpt>
      <trkpt lat="63.42290117" lon="10.32239433">
        <ele>249.482</ele>
        <time>1970-01-01T01:00:00Z</time>
      </trkpt>
      <trkpt lat="63.42290667" lon="10.322366">
        <ele>249.634</ele>
        <time>1970-01-01T01:00:00Z</time>
      </trkpt>
      <trkpt lat="63.42291117" lon="10.32233483">
        <ele>249.634</ele>
        <time>1970-01-01T01:00:00Z</time>
      </trkpt>
      <trkpt lat="63.42291517" lon="10.32230383">
        <ele>249.787</ele>
        <time>1970-01-01T01:00:00Z</time>
      </trkpt>
      <trkpt lat="63.4229185" lon="10.3222745">
        <ele>249.787</ele>
        <time>1970-01-01T01:00:00Z</time>
      </trkpt>
      <trkpt lat="63.42292417" lon="10.322244">
        <ele>249.939</ele>
        <time>1970-01-01T01:00:00Z</time>
      </trkpt>
      <trkpt lat="63.42292883" lon="10.32221483">
        <ele>249.939</ele>
        <time>1970-01-01T01:00:00Z</time>
      </trkpt>
      <trkpt lat="63.42293217" lon="10.32218633">
        <ele>250.091</ele>
        <time>1970-01-01T01:00:00Z</time>
      </trkpt>
      <trkpt lat="63.422934" lon="10.32216267">
        <ele>250.091</ele>
        <time>1970-01-01T01:00:00Z</time>
      </trkpt>
      <trkpt lat="63.422938" lon="10.32213667">
        <ele>250.091</ele>
        <time>1970-01-01T01:00:00Z</time>
      </trkpt>
      <trkpt lat="63.42294233" lon="10.3221085">
        <ele>250.091</ele>
        <time>1970-01-01T01:00:00Z</time>
      </trkpt>
      <trkpt lat="63.4229435" lon="10.3220785">
        <ele>250.244</ele>
        <time>1970-01-01T01:00:00Z</time>
      </trkpt>
      <trkpt lat="63.42294367" lon="10.3220485">
        <ele>250.244</ele>
        <time>1970-01-01T01:00:00Z</time>
      </trkpt>
      <trkpt lat="63.42294267" lon="10.32201783">
        <ele>250.244</ele>
        <time>1970-01-01T01:00:00Z</time>
      </trkpt>
      <trkpt lat="63.42294317" lon="10.32198517">
        <ele>250.244</ele>
        <time>1970-01-01T01:00:00Z</time>
      </trkpt>
      <trkpt lat="63.42294217" lon="10.32195617">
        <ele>250.244</ele>
        <time>1970-01-01T01:00:00Z</time>
      </trkpt>
      <trkpt lat="63.42294183" lon="10.32192883">
        <ele>250.244</ele>
        <time>1970-01-01T01:00:00Z</time>
      </trkpt>
      <trkpt lat="63.422941" lon="10.3219035">
        <ele>250.244</ele>
        <time>1970-01-01T01:00:00Z</time>
      </trkpt>
      <trkpt lat="63.42294183" lon="10.3218755">
        <ele>250.244</ele>
        <time>1970-01-01T01:00:00Z</time>
      </trkpt>
      <trkpt lat="63.4229435" lon="10.3218475">
        <ele>250.244</ele>
        <time>1970-01-01T01:00:00Z</time>
      </trkpt>
      <trkpt lat="63.42294683" lon="10.32181833">
        <ele>250.244</ele>
        <time>1970-01-01T01:00:00Z</time>
      </trkpt>
      <trkpt lat="63.42294983" lon="10.32179117">
        <ele>250.244</ele>
        <time>1970-01-01T01:00:00Z</time>
      </trkpt>
      <trkpt lat="63.42295317" lon="10.3217625">
        <ele>250.244</ele>
        <time>1970-01-01T01:00:00Z</time>
      </trkpt>
      <trkpt lat="63.42295717" lon="10.3217345">
        <ele>250.244</ele>
        <time>1970-01-01T01:00:00Z</time>
      </trkpt>
      <trkpt lat="63.42296183" lon="10.321705">
        <ele>250.244</ele>
        <time>1970-01-01T01:00:00Z</time>
      </trkpt>
      <trkpt lat="63.42296617" lon="10.3216775">
        <ele>250.396</ele>
        <time>1970-01-01T01:00:00Z</time>
      </trkpt>
      <trkpt lat="63.422968" lon="10.32165133">
        <ele>250.396</ele>
        <time>1970-01-01T01:00:00Z</time>
      </trkpt>
      <trkpt lat="63.42296917" lon="10.3216275">
        <ele>250.396</ele>
        <time>1970-01-01T01:00:00Z</time>
      </trkpt>
      <trkpt lat="63.42297" lon="10.32160083">
        <ele>250.396</ele>
        <time>1970-01-01T01:00:00Z</time>
      </trkpt>
      <trkpt lat="63.422973" lon="10.32157417">
        <ele>250.396</ele>
        <time>1970-01-01T01:00:00Z</time>
      </trkpt>
      <trkpt lat="63.42297783" lon="10.32154783">
        <ele>250.396</ele>
        <time>1970-01-01T01:00:00Z</time>
      </trkpt>
      <trkpt lat="63.42298383" lon="10.32152567">
        <ele>250.396</ele>
        <time>1970-01-01T01:00:00Z</time>
      </trkpt>
      <trkpt lat="63.42298983" lon="10.32150533">
        <ele>250.396</ele>
        <time>1970-01-01T01:00:00Z</time>
      </trkpt>
      <trkpt lat="63.42299433" lon="10.32148667">
        <ele>250.396</ele>
        <time>1970-01-01T01:00:00Z</time>
      </trkpt>
      <trkpt lat="63.42299767" lon="10.32147033">
        <ele>250.396</ele>
        <time>1970-01-01T01:00:00Z</time>
      </trkpt>
      <trkpt lat="63.4230005" lon="10.32145267">
        <ele>250.396</ele>
        <time>1970-01-01T01:00:00Z</time>
      </trkpt>
      <trkpt lat="63.42300367" lon="10.32143283">
        <ele>250.396</ele>
        <time>1970-01-01T01:00:00Z</time>
      </trkpt>
      <trkpt lat="63.42300767" lon="10.32140833">
        <ele>250.396</ele>
        <time>1970-01-01T01:00:00Z</time>
      </trkpt>
      <trkpt lat="63.423009" lon="10.32138417">
        <ele>250.396</ele>
        <time>1970-01-01T01:00:00Z</time>
      </trkpt>
      <trkpt lat="63.42301033" lon="10.3213555">
        <ele>250.396</ele>
        <time>1970-01-01T01:00:00Z</time>
      </trkpt>
      <trkpt lat="63.423012" lon="10.321327">
        <ele>250.396</ele>
        <time>1970-01-01T01:00:00Z</time>
      </trkpt>
      <trkpt lat="63.42301683" lon="10.3212985">
        <ele>250.396</ele>
        <time>1970-01-01T01:00:00Z</time>
      </trkpt>
      <trkpt lat="63.423022" lon="10.32127217">
        <ele>250.396</ele>
        <time>1970-01-01T01:00:00Z</time>
      </trkpt>
      <trkpt lat="63.42302433" lon="10.32124667">
        <ele>250.396</ele>
        <time>1970-01-01T01:00:00Z</time>
      </trkpt>
      <trkpt lat="63.42302717" lon="10.32121917">
        <ele>250.396</ele>
        <time>1970-01-01T01:00:00Z</time>
      </trkpt>
      <trkpt lat="63.423027" lon="10.32119767">
        <ele>250.396</ele>
        <time>1970-01-01T01:00:00Z</time>
      </trkpt>
      <trkpt lat="63.42303033" lon="10.32117767">
        <ele>250.396</ele>
        <time>1970-01-01T01:00:00Z</time>
      </trkpt>
      <trkpt lat="63.42303217" lon="10.3211595">
        <ele>250.396</ele>
        <time>1970-01-01T01:00:00Z</time>
      </trkpt>
      <trkpt lat="63.423038" lon="10.32113567">
        <ele>250.396</ele>
        <time>1970-01-01T01:00:00Z</time>
      </trkpt>
      <trkpt lat="63.423044" lon="10.32111133">
        <ele>250.396</ele>
        <time>1970-01-01T01:00:00Z</time>
      </trkpt>
      <trkpt lat="63.4230505" lon="10.32108517">
        <ele>250.396</ele>
        <time>1970-01-01T01:00:00Z</time>
      </trkpt>
      <trkpt lat="63.423056" lon="10.32106033">
        <ele>250.396</ele>
        <time>1970-01-01T01:00:00Z</time>
      </trkpt>
      <trkpt lat="63.42306067" lon="10.32103533">
        <ele>250.396</ele>
        <time>1970-01-01T01:00:00Z</time>
      </trkpt>
      <trkpt lat="63.42306517" lon="10.32101267">
        <ele>250.396</ele>
        <time>1970-01-01T01:00:00Z</time>
      </trkpt>
      <trkpt lat="63.42307033" lon="10.32098933">
        <ele>250.396</ele>
        <time>1970-01-01T01:00:00Z</time>
      </trkpt>
      <trkpt lat="63.42307683" lon="10.32096667">
        <ele>250.396</ele>
        <time>1970-01-01T01:00:00Z</time>
      </trkpt>
      <trkpt lat="63.4230835" lon="10.32094367">
        <ele>250.396</ele>
        <time>1970-01-01T01:00:00Z</time>
      </trkpt>
      <trkpt lat="63.4230895" lon="10.32092117">
        <ele>250.396</ele>
        <time>1970-01-01T01:00:00Z</time>
      </trkpt>
      <trkpt lat="63.4230945" lon="10.32090083">
        <ele>250.396</ele>
        <time>1970-01-01T01:00:00Z</time>
      </trkpt>
      <trkpt lat="63.42310117" lon="10.32088067">
        <ele>250.549</ele>
        <time>1970-01-01T01:00:00Z</time>
      </trkpt>
      <trkpt lat="63.42310783" lon="10.32086233">
        <ele>250.549</ele>
        <time>1970-01-01T01:00:00Z</time>
      </trkpt>
      <trkpt lat="63.42311467" lon="10.3208415">
        <ele>250.549</ele>
        <time>1970-01-01T01:00:00Z</time>
      </trkpt>
      <trkpt lat="63.42312017" lon="10.32082117">
        <ele>250.549</ele>
        <time>1970-01-01T01:00:00Z</time>
      </trkpt>
      <trkpt lat="63.42312633" lon="10.32079933">
        <ele>250.701</ele>
        <time>1970-01-01T01:00:00Z</time>
      </trkpt>
      <trkpt lat="63.42313283" lon="10.32077833">
        <ele>250.701</ele>
        <time>1970-01-01T01:00:00Z</time>
      </trkpt>
      <trkpt lat="63.42313833" lon="10.32075817">
        <ele>250.701</ele>
        <time>1970-01-01T01:00:00Z</time>
      </trkpt>
      <trkpt lat="63.42314317" lon="10.32073683">
        <ele>250.701</ele>
        <time>1970-01-01T01:00:00Z</time>
      </trkpt>
      <trkpt lat="63.42314667" lon="10.32071183">
        <ele>250.853</ele>
        <time>1970-01-01T01:00:00Z</time>
      </trkpt>
      <trkpt lat="63.42314917" lon="10.32068533">
        <ele>250.853</ele>
        <time>1970-01-01T01:00:00Z</time>
      </trkpt>
      <trkpt lat="63.42315017" lon="10.32066117">
        <ele>251.006</ele>
        <time>1970-01-01T01:00:00Z</time>
      </trkpt>
      <trkpt lat="63.42315067" lon="10.32063933">
        <ele>251.006</ele>
        <time>1970-01-01T01:00:00Z</time>
      </trkpt>
      <trkpt lat="63.4231525" lon="10.320619">
        <ele>251.158</ele>
        <time>1970-01-01T01:00:00Z</time>
      </trkpt>
      <trkpt lat="63.4231565" lon="10.3205965">
        <ele>251.158</ele>
        <time>1970-01-01T01:00:00Z</time>
      </trkpt>
      <trkpt lat="63.4231605" lon="10.32057183">
        <ele>251.158</ele>
        <time>1970-01-01T01:00:00Z</time>
      </trkpt>
      <trkpt lat="63.42316217" lon="10.32054467">
        <ele>251.158</ele>
        <time>1970-01-01T01:00:00Z</time>
      </trkpt>
      <trkpt lat="63.4231625" lon="10.320518">
        <ele>251.311</ele>
        <time>1970-01-01T01:00:00Z</time>
      </trkpt>
      <trkpt lat="63.42316217" lon="10.32049417">
        <ele>251.311</ele>
        <time>1970-01-01T01:00:00Z</time>
      </trkpt>
      <trkpt lat="63.4231635" lon="10.32047083">
        <ele>251.463</ele>
        <time>1970-01-01T01:00:00Z</time>
      </trkpt>
      <trkpt lat="63.42316383" lon="10.32044267">
        <ele>251.463</ele>
        <time>1970-01-01T01:00:00Z</time>
      </trkpt>
      <trkpt lat="63.423163" lon="10.32041183">
        <ele>251.463</ele>
        <time>1970-01-01T01:00:00Z</time>
      </trkpt>
      <trkpt lat="63.42316167" lon="10.32038033">
        <ele>251.463</ele>
        <time>1970-01-01T01:00:00Z</time>
      </trkpt>
      <trkpt lat="63.42315933" lon="10.32035">
        <ele>251.615</ele>
        <time>1970-01-01T01:00:00Z</time>
      </trkpt>
      <trkpt lat="63.423159" lon="10.320321">
        <ele>251.615</ele>
        <time>1970-01-01T01:00:00Z</time>
      </trkpt>
      <trkpt lat="63.42315817" lon="10.32029283">
        <ele>251.768</ele>
        <time>1970-01-01T01:00:00Z</time>
      </trkpt>
      <trkpt lat="63.423159" lon="10.32026767">
        <ele>251.768</ele>
        <time>1970-01-01T01:00:00Z</time>
      </trkpt>
      <trkpt lat="63.42315633" lon="10.32024317">
        <ele>251.92</ele>
        <time>1970-01-01T01:00:00Z</time>
      </trkpt>
      <trkpt lat="63.423151" lon="10.32021417">
        <ele>251.92</ele>
        <time>1970-01-01T01:00:00Z</time>
      </trkpt>
      <trkpt lat="63.4231455" lon="10.320187">
        <ele>251.92</ele>
        <time>1970-01-01T01:00:00Z</time>
      </trkpt>
      <trkpt lat="63.42314367" lon="10.320159">
        <ele>251.92</ele>
        <time>1970-01-01T01:00:00Z</time>
      </trkpt>
      <trkpt lat="63.423145" lon="10.32013583">
        <ele>252.073</ele>
        <time>1970-01-01T01:00:00Z</time>
      </trkpt>
      <trkpt lat="63.42314833" lon="10.32011083">
        <ele>252.073</ele>
        <time>1970-01-01T01:00:00Z</time>
      </trkpt>
      <trkpt lat="63.42314733" lon="10.3200865">
        <ele>252.073</ele>
        <time>1970-01-01T01:00:00Z</time>
      </trkpt>
      <trkpt lat="63.42314483" lon="10.32006067">
        <ele>252.073</ele>
        <time>1970-01-01T01:00:00Z</time>
      </trkpt>
      <trkpt lat="63.42314" lon="10.3200325">
        <ele>252.225</ele>
        <time>1970-01-01T01:00:00Z</time>
      </trkpt>
      <trkpt lat="63.42313883" lon="10.320006">
        <ele>252.225</ele>
        <time>1970-01-01T01:00:00Z</time>
      </trkpt>
      <trkpt lat="63.4231385" lon="10.31998233">
        <ele>252.225</ele>
        <time>1970-01-01T01:00:00Z</time>
      </trkpt>
      <trkpt lat="63.4231365" lon="10.31996317">
        <ele>252.225</ele>
        <time>1970-01-01T01:00:00Z</time>
      </trkpt>
      <trkpt lat="63.42313517" lon="10.31994383">
        <ele>252.225</ele>
        <time>1970-01-01T01:00:00Z</time>
      </trkpt>
      <trkpt lat="63.42313317" lon="10.31992283">
        <ele>252.225</ele>
        <time>1970-01-01T01:00:00Z</time>
      </trkpt>
      <trkpt lat="63.4231345" lon="10.31989717">
        <ele>252.225</ele>
        <time>1970-01-01T01:00:00Z</time>
      </trkpt>
      <trkpt lat="63.423135" lon="10.31986617">
        <ele>252.225</ele>
        <time>1970-01-01T01:00:00Z</time>
      </trkpt>
      <trkpt lat="63.42313683" lon="10.31983633">
        <ele>252.225</ele>
        <time>1970-01-01T01:00:00Z</time>
      </trkpt>
      <trkpt lat="63.42313883" lon="10.31980933">
        <ele>252.225</ele>
        <time>1970-01-01T01:00:00Z</time>
      </trkpt>
      <trkpt lat="63.42314233" lon="10.31978483">
        <ele>252.225</ele>
        <time>1970-01-01T01:00:00Z</time>
      </trkpt>
      <trkpt lat="63.423146" lon="10.31976067">
        <ele>252.225</ele>
        <time>1970-01-01T01:00:00Z</time>
      </trkpt>
      <trkpt lat="63.42314783" lon="10.3197385">
        <ele>252.225</ele>
        <time>1970-01-01T01:00:00Z</time>
      </trkpt>
      <trkpt lat="63.4231485" lon="10.31972167">
        <ele>252.225</ele>
        <time>1970-01-01T01:00:00Z</time>
      </trkpt>
      <trkpt lat="63.4231495" lon="10.3197">
        <ele>252.225</ele>
        <time>1970-01-01T01:00:00Z</time>
      </trkpt>
      <trkpt lat="63.42315033" lon="10.31967917">
        <ele>252.225</ele>
        <time>1970-01-01T01:00:00Z</time>
      </trkpt>
      <trkpt lat="63.42315233" lon="10.31965667">
        <ele>252.225</ele>
        <time>1970-01-01T01:00:00Z</time>
      </trkpt>
      <trkpt lat="63.42315683" lon="10.3196375">
        <ele>252.225</ele>
        <time>1970-01-01T01:00:00Z</time>
      </trkpt>
      <trkpt lat="63.423162" lon="10.31961417">
        <ele>252.225</ele>
        <time>1970-01-01T01:00:00Z</time>
      </trkpt>
      <trkpt lat="63.42316467" lon="10.31958733">
        <ele>252.225</ele>
        <time>1970-01-01T01:00:00Z</time>
      </trkpt>
      <trkpt lat="63.4231675" lon="10.31955767">
        <ele>252.225</ele>
        <time>1970-01-01T01:00:00Z</time>
      </trkpt>
      <trkpt lat="63.4231715" lon="10.31952833">
        <ele>252.225</ele>
        <time>1970-01-01T01:00:00Z</time>
      </trkpt>
      <trkpt lat="63.4231765" lon="10.3195005">
        <ele>252.225</ele>
        <time>1970-01-01T01:00:00Z</time>
      </trkpt>
      <trkpt lat="63.42317883" lon="10.319478">
        <ele>252.225</ele>
        <time>1970-01-01T01:00:00Z</time>
      </trkpt>
      <trkpt lat="63.42318067" lon="10.31945733">
        <ele>252.225</ele>
        <time>1970-01-01T01:00:00Z</time>
      </trkpt>
      <trkpt lat="63.42318333" lon="10.31943717">
        <ele>252.225</ele>
        <time>1970-01-01T01:00:00Z</time>
      </trkpt>
      <trkpt lat="63.42318683" lon="10.31941317">
        <ele>252.225</ele>
        <time>1970-01-01T01:00:00Z</time>
      </trkpt>
      <trkpt lat="63.42318983" lon="10.319387">
        <ele>252.225</ele>
        <time>1970-01-01T01:00:00Z</time>
      </trkpt>
      <trkpt lat="63.42319217" lon="10.319361">
        <ele>252.377</ele>
        <time>1970-01-01T01:00:00Z</time>
      </trkpt>
      <trkpt lat="63.42319383" lon="10.31933333">
        <ele>252.377</ele>
        <time>1970-01-01T01:00:00Z</time>
      </trkpt>
      <trkpt lat="63.42319667" lon="10.31930867">
        <ele>252.377</ele>
        <time>1970-01-01T01:00:00Z</time>
      </trkpt>
      <trkpt lat="63.42320133" lon="10.31928167">
        <ele>252.377</ele>
        <time>1970-01-01T01:00:00Z</time>
      </trkpt>
      <trkpt lat="63.42320683" lon="10.3192575">
        <ele>252.377</ele>
        <time>1970-01-01T01:00:00Z</time>
      </trkpt>
      <trkpt lat="63.423212" lon="10.31923183">
        <ele>252.377</ele>
        <time>1970-01-01T01:00:00Z</time>
      </trkpt>
      <trkpt lat="63.4232155" lon="10.31920667">
        <ele>252.53</ele>
        <time>1970-01-01T01:00:00Z</time>
      </trkpt>
      <trkpt lat="63.42321867" lon="10.3191795">
        <ele>252.53</ele>
        <time>1970-01-01T01:00:00Z</time>
      </trkpt>
      <trkpt lat="63.42322033" lon="10.319152">
        <ele>252.53</ele>
        <time>1970-01-01T01:00:00Z</time>
      </trkpt>
      <trkpt lat="63.42322217" lon="10.31912533">
        <ele>252.53</ele>
        <time>1970-01-01T01:00:00Z</time>
      </trkpt>
      <trkpt lat="63.42322133" lon="10.31909983">
        <ele>252.682</ele>
        <time>1970-01-01T01:00:00Z</time>
      </trkpt>
      <trkpt lat="63.4232195" lon="10.31907233">
        <ele>252.682</ele>
        <time>1970-01-01T01:00:00Z</time>
      </trkpt>
      <trkpt lat="63.42321517" lon="10.31904433">
        <ele>252.682</ele>
        <time>1970-01-01T01:00:00Z</time>
      </trkpt>
      <trkpt lat="63.42321367" lon="10.319018">
        <ele>252.682</ele>
        <time>1970-01-01T01:00:00Z</time>
      </trkpt>
      <trkpt lat="63.42321517" lon="10.318995">
        <ele>252.682</ele>
        <time>1970-01-01T01:00:00Z</time>
      </trkpt>
      <trkpt lat="63.42321917" lon="10.31897483">
        <ele>252.682</ele>
        <time>1970-01-01T01:00:00Z</time>
      </trkpt>
      <trkpt lat="63.42322317" lon="10.31895317">
        <ele>252.682</ele>
        <time>1970-01-01T01:00:00Z</time>
      </trkpt>
      <trkpt lat="63.42322933" lon="10.3189265">
        <ele>252.682</ele>
        <time>1970-01-01T01:00:00Z</time>
      </trkpt>
      <trkpt lat="63.42323667" lon="10.318895">
        <ele>252.682</ele>
        <time>1970-01-01T01:00:00Z</time>
      </trkpt>
      <trkpt lat="63.42324483" lon="10.3188675">
        <ele>252.682</ele>
        <time>1970-01-01T01:00:00Z</time>
      </trkpt>
      <trkpt lat="63.42324983" lon="10.31884017">
        <ele>252.835</ele>
        <time>1970-01-01T01:00:00Z</time>
      </trkpt>
      <trkpt lat="63.42325333" lon="10.31881683">
        <ele>252.835</ele>
        <time>1970-01-01T01:00:00Z</time>
      </trkpt>
      <trkpt lat="63.42325383" lon="10.31878917">
        <ele>252.835</ele>
        <time>1970-01-01T01:00:00Z</time>
      </trkpt>
      <trkpt lat="63.4232545" lon="10.31876417">
        <ele>252.835</ele>
        <time>1970-01-01T01:00:00Z</time>
      </trkpt>
      <trkpt lat="63.4232555" lon="10.31873733">
        <ele>252.835</ele>
        <time>1970-01-01T01:00:00Z</time>
      </trkpt>
      <trkpt lat="63.4232595" lon="10.31871">
        <ele>252.835</ele>
        <time>1970-01-01T01:00:00Z</time>
      </trkpt>
      <trkpt lat="63.42326183" lon="10.31868317">
        <ele>252.835</ele>
        <time>1970-01-01T01:00:00Z</time>
      </trkpt>
      <trkpt lat="63.423264" lon="10.31865817">
        <ele>252.835</ele>
        <time>1970-01-01T01:00:00Z</time>
      </trkpt>
      <trkpt lat="63.42326533" lon="10.31863367">
        <ele>252.987</ele>
        <time>1970-01-01T01:00:00Z</time>
      </trkpt>
      <trkpt lat="63.42326833" lon="10.31860967">
        <ele>252.987</ele>
        <time>1970-01-01T01:00:00Z</time>
      </trkpt>
      <trkpt lat="63.42327233" lon="10.31858583">
        <ele>252.987</ele>
        <time>1970-01-01T01:00:00Z</time>
      </trkpt>
      <trkpt lat="63.42327617" lon="10.318561">
        <ele>252.987</ele>
        <time>1970-01-01T01:00:00Z</time>
      </trkpt>
      <trkpt lat="63.4232795" lon="10.31853783">
        <ele>253.139</ele>
        <time>1970-01-01T01:00:00Z</time>
      </trkpt>
      <trkpt lat="63.42328117" lon="10.3185125">
        <ele>253.139</ele>
        <time>1970-01-01T01:00:00Z</time>
      </trkpt>
      <trkpt lat="63.42328233" lon="10.31848967">
        <ele>253.139</ele>
        <time>1970-01-01T01:00:00Z</time>
      </trkpt>
      <trkpt lat="63.42328283" lon="10.3184645">
        <ele>253.139</ele>
        <time>1970-01-01T01:00:00Z</time>
      </trkpt>
      <trkpt lat="63.423282" lon="10.31842883">
        <ele>253.139</ele>
        <time>1970-01-01T01:00:00Z</time>
      </trkpt>
      <trkpt lat="63.423282" lon="10.31839117">
        <ele>253.139</ele>
        <time>1970-01-01T01:00:00Z</time>
      </trkpt>
      <trkpt lat="63.42328117" lon="10.318352">
        <ele>253.139</ele>
        <time>1970-01-01T01:00:00Z</time>
      </trkpt>
      <trkpt lat="63.4232805" lon="10.31832233">
        <ele>253.139</ele>
        <time>1970-01-01T01:00:00Z</time>
      </trkpt>
      <trkpt lat="63.42327917" lon="10.31829333">
        <ele>253.139</ele>
        <time>1970-01-01T01:00:00Z</time>
      </trkpt>
      <trkpt lat="63.42327733" lon="10.31826383">
        <ele>253.139</ele>
        <time>1970-01-01T01:00:00Z</time>
      </trkpt>
      <trkpt lat="63.42327433" lon="10.318238">
        <ele>252.987</ele>
        <time>1970-01-01T01:00:00Z</time>
      </trkpt>
      <trkpt lat="63.4232705" lon="10.31821117">
        <ele>252.987</ele>
        <time>1970-01-01T01:00:00Z</time>
      </trkpt>
      <trkpt lat="63.423266" lon="10.318183">
        <ele>252.987</ele>
        <time>1970-01-01T01:00:00Z</time>
      </trkpt>
      <trkpt lat="63.42326267" lon="10.31815283">
        <ele>252.987</ele>
        <time>1970-01-01T01:00:00Z</time>
      </trkpt>
      <trkpt lat="63.423259" lon="10.31812183">
        <ele>252.987</ele>
        <time>1970-01-01T01:00:00Z</time>
      </trkpt>
      <trkpt lat="63.42325583" lon="10.3180925">
        <ele>252.987</ele>
        <time>1970-01-01T01:00:00Z</time>
      </trkpt>
      <trkpt lat="63.42325" lon="10.3180655">
        <ele>252.835</ele>
        <time>1970-01-01T01:00:00Z</time>
      </trkpt>
      <trkpt lat="63.42324383" lon="10.31804133">
        <ele>252.835</ele>
        <time>1970-01-01T01:00:00Z</time>
      </trkpt>
      <trkpt lat="63.42323767" lon="10.31801767">
        <ele>252.835</ele>
        <time>1970-01-01T01:00:00Z</time>
      </trkpt>
      <trkpt lat="63.423234" lon="10.31799117">
        <ele>252.835</ele>
        <time>1970-01-01T01:00:00Z</time>
      </trkpt>
      <trkpt lat="63.42323017" lon="10.31796567">
        <ele>252.682</ele>
        <time>1970-01-01T01:00:00Z</time>
      </trkpt>
      <trkpt lat="63.42322567" lon="10.31794367">
        <ele>252.682</ele>
        <time>1970-01-01T01:00:00Z</time>
      </trkpt>
      <trkpt lat="63.42322167" lon="10.31792367">
        <ele>252.53</ele>
        <time>1970-01-01T01:00:00Z</time>
      </trkpt>
      <trkpt lat="63.42321633" lon="10.31790383">
        <ele>252.53</ele>
        <time>1970-01-01T01:00:00Z</time>
      </trkpt>
      <trkpt lat="63.42321117" lon="10.317879">
        <ele>252.377</ele>
        <time>1970-01-01T01:00:00Z</time>
      </trkpt>
      <trkpt lat="63.42320783" lon="10.31785533">
        <ele>252.377</ele>
        <time>1970-01-01T01:00:00Z</time>
      </trkpt>
      <trkpt lat="63.42321067" lon="10.31783317">
        <ele>252.377</ele>
        <time>1970-01-01T01:00:00Z</time>
      </trkpt>
      <trkpt lat="63.42321467" lon="10.31781333">
        <ele>252.377</ele>
        <time>1970-01-01T01:00:00Z</time>
      </trkpt>
      <trkpt lat="63.42322017" lon="10.31779483">
        <ele>252.225</ele>
        <time>1970-01-01T01:00:00Z</time>
      </trkpt>
      <trkpt lat="63.42322067" lon="10.31777733">
        <ele>252.225</ele>
        <time>1970-01-01T01:00:00Z</time>
      </trkpt>
      <trkpt lat="63.423223" lon="10.31776283">
        <ele>252.225</ele>
        <time>1970-01-01T01:00:00Z</time>
      </trkpt>
      <trkpt lat="63.42322117" lon="10.31774717">
        <ele>252.225</ele>
        <time>1970-01-01T01:00:00Z</time>
      </trkpt>
      <trkpt lat="63.423216" lon="10.31772583">
        <ele>252.377</ele>
        <time>1970-01-01T01:00:00Z</time>
      </trkpt>
      <trkpt lat="63.42320583" lon="10.31770167">
        <ele>252.377</ele>
        <time>1970-01-01T01:00:00Z</time>
      </trkpt>
      <trkpt lat="63.42319767" lon="10.317677">
        <ele>252.53</ele>
        <time>1970-01-01T01:00:00Z</time>
      </trkpt>
      <trkpt lat="63.4231935" lon="10.31765967">
        <ele>252.53</ele>
        <time>1970-01-01T01:00:00Z</time>
      </trkpt>
      <trkpt lat="63.42319167" lon="10.3176455">
        <ele>252.682</ele>
        <time>1970-01-01T01:00:00Z</time>
      </trkpt>
      <trkpt lat="63.42318733" lon="10.31763333">
        <ele>252.682</ele>
        <time>1970-01-01T01:00:00Z</time>
      </trkpt>
      <trkpt lat="63.42318167" lon="10.31762">
        <ele>252.835</ele>
        <time>1970-01-01T01:00:00Z</time>
      </trkpt>
      <trkpt lat="63.42317483" lon="10.31760717">
        <ele>252.835</ele>
        <time>1970-01-01T01:00:00Z</time>
      </trkpt>
      <trkpt lat="63.42316717" lon="10.317596">
        <ele>252.987</ele>
        <time>1970-01-01T01:00:00Z</time>
      </trkpt>
      <trkpt lat="63.42315967" lon="10.31758583">
        <ele>252.987</ele>
        <time>1970-01-01T01:00:00Z</time>
      </trkpt>
      <trkpt lat="63.42315433" lon="10.3175735">
        <ele>253.292</ele>
        <time>1970-01-01T01:00:00Z</time>
      </trkpt>
      <trkpt lat="63.42314967" lon="10.3175595">
        <ele>253.292</ele>
        <time>1970-01-01T01:00:00Z</time>
      </trkpt>
      <trkpt lat="63.42314317" lon="10.3175435">
        <ele>253.444</ele>
        <time>1970-01-01T01:00:00Z</time>
      </trkpt>
      <trkpt lat="63.423135" lon="10.31752517">
        <ele>253.444</ele>
        <time>1970-01-01T01:00:00Z</time>
      </trkpt>
      <trkpt lat="63.42312533" lon="10.3175065">
        <ele>253.749</ele>
        <time>1970-01-01T01:00:00Z</time>
      </trkpt>
      <trkpt lat="63.42312033" lon="10.31748817">
        <ele>253.749</ele>
        <time>1970-01-01T01:00:00Z</time>
      </trkpt>
      <trkpt lat="63.42311533" lon="10.3174715">
        <ele>253.901</ele>
        <time>1970-01-01T01:00:00Z</time>
      </trkpt>
      <trkpt lat="63.42311217" lon="10.31745083">
        <ele>253.901</ele>
        <time>1970-01-01T01:00:00Z</time>
      </trkpt>
      <trkpt lat="63.42310483" lon="10.3174295">
        <ele>254.054</ele>
        <time>1970-01-01T01:00:00Z</time>
      </trkpt>
      <trkpt lat="63.423098" lon="10.317407">
        <ele>254.054</ele>
        <time>1970-01-01T01:00:00Z</time>
      </trkpt>
      <trkpt lat="63.42309033" lon="10.31738667">
        <ele>254.359</ele>
        <time>1970-01-01T01:00:00Z</time>
      </trkpt>
      <trkpt lat="63.42308133" lon="10.31736867">
        <ele>254.359</ele>
        <time>1970-01-01T01:00:00Z</time>
      </trkpt>
      <trkpt lat="63.4230705" lon="10.3173525">
        <ele>254.511</ele>
        <time>1970-01-01T01:00:00Z</time>
      </trkpt>
      <trkpt lat="63.42305767" lon="10.31733733">
        <ele>254.511</ele>
        <time>1970-01-01T01:00:00Z</time>
      </trkpt>
      <trkpt lat="63.42304533" lon="10.317314">
        <ele>254.816</ele>
        <time>1970-01-01T01:00:00Z</time>
      </trkpt>
      <trkpt lat="63.42303367" lon="10.317292">
        <ele>254.816</ele>
        <time>1970-01-01T01:00:00Z</time>
      </trkpt>
      <trkpt lat="63.4230245" lon="10.31726967">
        <ele>255.121</ele>
        <time>1970-01-01T01:00:00Z</time>
      </trkpt>
      <trkpt lat="63.423015" lon="10.31725267">
        <ele>255.121</ele>
        <time>1970-01-01T01:00:00Z</time>
      </trkpt>
      <trkpt lat="63.4230045" lon="10.31723417">
        <ele>255.425</ele>
        <time>1970-01-01T01:00:00Z</time>
      </trkpt>
      <trkpt lat="63.42299283" lon="10.3172155">
        <ele>255.425</ele>
        <time>1970-01-01T01:00:00Z</time>
      </trkpt>
      <trkpt lat="63.4229815" lon="10.3171955">
        <ele>255.73</ele>
        <time>1970-01-01T01:00:00Z</time>
      </trkpt>
      <trkpt lat="63.42297" lon="10.31717183">
        <ele>255.73</ele>
        <time>1970-01-01T01:00:00Z</time>
      </trkpt>
      <trkpt lat="63.42295983" lon="10.31714583">
        <ele>255.883</ele>
        <time>1970-01-01T01:00:00Z</time>
      </trkpt>
      <trkpt lat="63.42295083" lon="10.31712117">
        <ele>255.883</ele>
        <time>1970-01-01T01:00:00Z</time>
      </trkpt>
      <trkpt lat="63.42294233" lon="10.31709383">
        <ele>256.188</ele>
        <time>1970-01-01T01:00:00Z</time>
      </trkpt>
      <trkpt lat="63.42293333" lon="10.317066">
        <ele>256.188</ele>
        <time>1970-01-01T01:00:00Z</time>
      </trkpt>
      <trkpt lat="63.4229235" lon="10.31703433">
        <ele>256.34</ele>
        <time>1970-01-01T01:00:00Z</time>
      </trkpt>
      <trkpt lat="63.4229135" lon="10.31700517">
        <ele>256.34</ele>
        <time>1970-01-01T01:00:00Z</time>
      </trkpt>
      <trkpt lat="63.42290467" lon="10.316976">
        <ele>256.492</ele>
        <time>1970-01-01T01:00:00Z</time>
      </trkpt>
      <trkpt lat="63.42289633" lon="10.316945">
        <ele>256.492</ele>
        <time>1970-01-01T01:00:00Z</time>
      </trkpt>
      <trkpt lat="63.4228885" lon="10.3169125">
        <ele>256.492</ele>
        <time>1970-01-01T01:00:00Z</time>
      </trkpt>
      <trkpt lat="63.42288033" lon="10.316883">
        <ele>256.492</ele>
        <time>1970-01-01T01:00:00Z</time>
      </trkpt>
      <trkpt lat="63.4228735" lon="10.31685683">
        <ele>256.492</ele>
        <time>1970-01-01T01:00:00Z</time>
      </trkpt>
      <trkpt lat="63.422867" lon="10.31683433">
        <ele>256.492</ele>
        <time>1970-01-01T01:00:00Z</time>
      </trkpt>
      <trkpt lat="63.42286117" lon="10.316812">
        <ele>256.492</ele>
        <time>1970-01-01T01:00:00Z</time>
      </trkpt>
      <trkpt lat="63.4228545" lon="10.3167915">
        <ele>256.492</ele>
        <time>1970-01-01T01:00:00Z</time>
      </trkpt>
      <trkpt lat="63.42284933" lon="10.3167745">
        <ele>256.492</ele>
        <time>1970-01-01T01:00:00Z</time>
      </trkpt>
      <trkpt lat="63.42284483" lon="10.31675867">
        <ele>256.492</ele>
        <time>1970-01-01T01:00:00Z</time>
      </trkpt>
      <trkpt lat="63.422841" lon="10.31674017">
        <ele>256.492</ele>
        <time>1970-01-01T01:00:00Z</time>
      </trkpt>
      <trkpt lat="63.42283583" lon="10.31671667">
        <ele>256.492</ele>
        <time>1970-01-01T01:00:00Z</time>
      </trkpt>
      <trkpt lat="63.42282867" lon="10.31668967">
        <ele>256.492</ele>
        <time>1970-01-01T01:00:00Z</time>
      </trkpt>
      <trkpt lat="63.4228225" lon="10.31666533">
        <ele>256.492</ele>
        <time>1970-01-01T01:00:00Z</time>
      </trkpt>
      <trkpt lat="63.42281883" lon="10.31664467">
        <ele>256.34</ele>
        <time>1970-01-01T01:00:00Z</time>
      </trkpt>
      <trkpt lat="63.422817" lon="10.31662633">
        <ele>256.34</ele>
        <time>1970-01-01T01:00:00Z</time>
      </trkpt>
      <trkpt lat="63.42281283" lon="10.31660733">
        <ele>256.34</ele>
        <time>1970-01-01T01:00:00Z</time>
      </trkpt>
      <trkpt lat="63.42280533" lon="10.316588">
        <ele>256.34</ele>
        <time>1970-01-01T01:00:00Z</time>
      </trkpt>
      <trkpt lat="63.422798" lon="10.31657">
        <ele>256.188</ele>
        <time>1970-01-01T01:00:00Z</time>
      </trkpt>
      <trkpt lat="63.42279233" lon="10.3165535">
        <ele>256.188</ele>
        <time>1970-01-01T01:00:00Z</time>
      </trkpt>
      <trkpt lat="63.42278883" lon="10.31653533">
        <ele>256.188</ele>
        <time>1970-01-01T01:00:00Z</time>
      </trkpt>
      <trkpt lat="63.422786" lon="10.31651467">
        <ele>256.188</ele>
        <time>1970-01-01T01:00:00Z</time>
      </trkpt>
      <trkpt lat="63.4227825" lon="10.3164985">
        <ele>256.188</ele>
        <time>1970-01-01T01:00:00Z</time>
      </trkpt>
      <trkpt lat="63.4227765" lon="10.31648217">
        <ele>256.188</ele>
        <time>1970-01-01T01:00:00Z</time>
      </trkpt>
      <trkpt lat="63.42276817" lon="10.31646183">
        <ele>256.188</ele>
        <time>1970-01-01T01:00:00Z</time>
      </trkpt>
      <trkpt lat="63.4227625" lon="10.31643633">
        <ele>256.188</ele>
        <time>1970-01-01T01:00:00Z</time>
      </trkpt>
      <trkpt lat="63.42275867" lon="10.31641283">
        <ele>256.188</ele>
        <time>1970-01-01T01:00:00Z</time>
      </trkpt>
      <trkpt lat="63.42275583" lon="10.31639">
        <ele>256.188</ele>
        <time>1970-01-01T01:00:00Z</time>
      </trkpt>
      <trkpt lat="63.422752" lon="10.316367">
        <ele>256.188</ele>
        <time>1970-01-01T01:00:00Z</time>
      </trkpt>
      <trkpt lat="63.4227475" lon="10.31633733">
        <ele>256.188</ele>
        <time>1970-01-01T01:00:00Z</time>
      </trkpt>
      <trkpt lat="63.42274317" lon="10.3163085">
        <ele>256.188</ele>
        <time>1970-01-01T01:00:00Z</time>
      </trkpt>
      <trkpt lat="63.422738" lon="10.31627533">
        <ele>256.188</ele>
        <time>1970-01-01T01:00:00Z</time>
      </trkpt>
      <trkpt lat="63.4227325" lon="10.316246">
        <ele>256.188</ele>
        <time>1970-01-01T01:00:00Z</time>
      </trkpt>
      <trkpt lat="63.42272567" lon="10.316214">
        <ele>256.188</ele>
        <time>1970-01-01T01:00:00Z</time>
      </trkpt>
      <trkpt lat="63.42272033" lon="10.31618167">
        <ele>256.188</ele>
        <time>1970-01-01T01:00:00Z</time>
      </trkpt>
      <trkpt lat="63.42271683" lon="10.3161495">
        <ele>256.188</ele>
        <time>1970-01-01T01:00:00Z</time>
      </trkpt>
      <trkpt lat="63.42271367" lon="10.316124">
        <ele>256.188</ele>
        <time>1970-01-01T01:00:00Z</time>
      </trkpt>
      <trkpt lat="63.42270817" lon="10.31610117">
        <ele>256.188</ele>
        <time>1970-01-01T01:00:00Z</time>
      </trkpt>
      <trkpt lat="63.4227015" lon="10.31607267">
        <ele>256.188</ele>
        <time>1970-01-01T01:00:00Z</time>
      </trkpt>
      <trkpt lat="63.42269483" lon="10.31603917">
        <ele>256.188</ele>
        <time>1970-01-01T01:00:00Z</time>
      </trkpt>
      <trkpt lat="63.42268983" lon="10.31601033">
        <ele>256.188</ele>
        <time>1970-01-01T01:00:00Z</time>
      </trkpt>
      <trkpt lat="63.42268583" lon="10.31598683">
        <ele>256.188</ele>
        <time>1970-01-01T01:00:00Z</time>
      </trkpt>
      <trkpt lat="63.42268183" lon="10.315967">
        <ele>256.188</ele>
        <time>1970-01-01T01:00:00Z</time>
      </trkpt>
      <trkpt lat="63.42267633" lon="10.31594383">
        <ele>256.188</ele>
        <time>1970-01-01T01:00:00Z</time>
      </trkpt>
      <trkpt lat="63.42266867" lon="10.31592117">
        <ele>256.188</ele>
        <time>1970-01-01T01:00:00Z</time>
      </trkpt>
      <trkpt lat="63.4226605" lon="10.31589783">
        <ele>256.188</ele>
        <time>1970-01-01T01:00:00Z</time>
      </trkpt>
      <trkpt lat="63.42265167" lon="10.315872">
        <ele>256.035</ele>
        <time>1970-01-01T01:00:00Z</time>
      </trkpt>
      <trkpt lat="63.42264417" lon="10.3158455">
        <ele>256.035</ele>
        <time>1970-01-01T01:00:00Z</time>
      </trkpt>
      <trkpt lat="63.422637" lon="10.31581967">
        <ele>256.035</ele>
        <time>1970-01-01T01:00:00Z</time>
      </trkpt>
      <trkpt lat="63.42263033" lon="10.31579933">
        <ele>256.035</ele>
        <time>1970-01-01T01:00:00Z</time>
      </trkpt>
      <trkpt lat="63.42262367" lon="10.31578133">
        <ele>256.035</ele>
        <time>1970-01-01T01:00:00Z</time>
      </trkpt>
      <trkpt lat="63.422617" lon="10.3157635">
        <ele>256.035</ele>
        <time>1970-01-01T01:00:00Z</time>
      </trkpt>
      <trkpt lat="63.42261067" lon="10.31574467">
        <ele>256.035</ele>
        <time>1970-01-01T01:00:00Z</time>
      </trkpt>
      <trkpt lat="63.42260433" lon="10.31572467">
        <ele>256.035</ele>
        <time>1970-01-01T01:00:00Z</time>
      </trkpt>
      <trkpt lat="63.42259917" lon="10.31570417">
        <ele>256.035</ele>
        <time>1970-01-01T01:00:00Z</time>
      </trkpt>
      <trkpt lat="63.42259417" lon="10.315684">
        <ele>256.035</ele>
        <time>1970-01-01T01:00:00Z</time>
      </trkpt>
      <trkpt lat="63.42259033" lon="10.3156605">
        <ele>256.035</ele>
        <time>1970-01-01T01:00:00Z</time>
      </trkpt>
      <trkpt lat="63.4225845" lon="10.31563367">
        <ele>256.035</ele>
        <time>1970-01-01T01:00:00Z</time>
      </trkpt>
      <trkpt lat="63.422578" lon="10.31560417">
        <ele>256.035</ele>
        <time>1970-01-01T01:00:00Z</time>
      </trkpt>
      <trkpt lat="63.42257" lon="10.3155775">
        <ele>256.035</ele>
        <time>1970-01-01T01:00:00Z</time>
      </trkpt>
      <trkpt lat="63.4225615" lon="10.31555133">
        <ele>256.188</ele>
        <time>1970-01-01T01:00:00Z</time>
      </trkpt>
      <trkpt lat="63.4225545" lon="10.31552683">
        <ele>256.188</ele>
        <time>1970-01-01T01:00:00Z</time>
      </trkpt>
      <trkpt lat="63.42254683" lon="10.315505">
        <ele>256.188</ele>
        <time>1970-01-01T01:00:00Z</time>
      </trkpt>
      <trkpt lat="63.42254067" lon="10.31548667">
        <ele>256.188</ele>
        <time>1970-01-01T01:00:00Z</time>
      </trkpt>
      <trkpt lat="63.42253333" lon="10.31546717">
        <ele>256.34</ele>
        <time>1970-01-01T01:00:00Z</time>
      </trkpt>
      <trkpt lat="63.42252533" lon="10.31544733">
        <ele>256.34</ele>
        <time>1970-01-01T01:00:00Z</time>
      </trkpt>
      <trkpt lat="63.42251667" lon="10.31542433">
        <ele>256.34</ele>
        <time>1970-01-01T01:00:00Z</time>
      </trkpt>
      <trkpt lat="63.42250933" lon="10.31540283">
        <ele>256.34</ele>
        <time>1970-01-01T01:00:00Z</time>
      </trkpt>
      <trkpt lat="63.42250417" lon="10.31538">
        <ele>256.492</ele>
        <time>1970-01-01T01:00:00Z</time>
      </trkpt>
      <trkpt lat="63.422502" lon="10.3153555">
        <ele>256.492</ele>
        <time>1970-01-01T01:00:00Z</time>
      </trkpt>
      <trkpt lat="63.42249867" lon="10.31532667">
        <ele>256.645</ele>
        <time>1970-01-01T01:00:00Z</time>
      </trkpt>
      <trkpt lat="63.42249633" lon="10.31529783">
        <ele>256.645</ele>
        <time>1970-01-01T01:00:00Z</time>
      </trkpt>
      <trkpt lat="63.42249117" lon="10.31526667">
        <ele>256.797</ele>
        <time>1970-01-01T01:00:00Z</time>
      </trkpt>
      <trkpt lat="63.422488" lon="10.31523">
        <ele>256.797</ele>
        <time>1970-01-01T01:00:00Z</time>
      </trkpt>
      <trkpt lat="63.42248467" lon="10.31519">
        <ele>256.95</ele>
        <time>1970-01-01T01:00:00Z</time>
      </trkpt>
      <trkpt lat="63.42248433" lon="10.31515117">
        <ele>256.95</ele>
        <time>1970-01-01T01:00:00Z</time>
      </trkpt>
      <trkpt lat="63.4224835" lon="10.31511767">
        <ele>257.102</ele>
        <time>1970-01-01T01:00:00Z</time>
      </trkpt>
      <trkpt lat="63.42248383" lon="10.3150845">
        <ele>257.102</ele>
        <time>1970-01-01T01:00:00Z</time>
      </trkpt>
      <trkpt lat="63.42248367" lon="10.315054">
        <ele>257.254</ele>
        <time>1970-01-01T01:00:00Z</time>
      </trkpt>
      <trkpt lat="63.42248217" lon="10.31503">
        <ele>257.254</ele>
        <time>1970-01-01T01:00:00Z</time>
      </trkpt>
      <trkpt lat="63.42247817" lon="10.31500617">
        <ele>257.254</ele>
        <time>1970-01-01T01:00:00Z</time>
      </trkpt>
      <trkpt lat="63.42247333" lon="10.31498217">
        <ele>257.254</ele>
        <time>1970-01-01T01:00:00Z</time>
      </trkpt>
      <trkpt lat="63.42247067" lon="10.3149555">
        <ele>257.407</ele>
        <time>1970-01-01T01:00:00Z</time>
      </trkpt>
      <trkpt lat="63.42246967" lon="10.31492917">
        <ele>257.407</ele>
        <time>1970-01-01T01:00:00Z</time>
      </trkpt>
      <trkpt lat="63.42246967" lon="10.314903">
        <ele>257.559</ele>
        <time>1970-01-01T01:00:00Z</time>
      </trkpt>
      <trkpt lat="63.42246783" lon="10.31487533">
        <ele>257.559</ele>
        <time>1970-01-01T01:00:00Z</time>
      </trkpt>
      <trkpt lat="63.42246617" lon="10.314847">
        <ele>257.559</ele>
        <time>1970-01-01T01:00:00Z</time>
      </trkpt>
      <trkpt lat="63.422463" lon="10.3148165">
        <ele>257.559</ele>
        <time>1970-01-01T01:00:00Z</time>
      </trkpt>
      <trkpt lat="63.42246117" lon="10.31478317">
        <ele>257.712</ele>
        <time>1970-01-01T01:00:00Z</time>
      </trkpt>
      <trkpt lat="63.42245683" lon="10.3147485">
        <ele>257.712</ele>
        <time>1970-01-01T01:00:00Z</time>
      </trkpt>
      <trkpt lat="63.42245317" lon="10.31471517">
        <ele>257.864</ele>
        <time>1970-01-01T01:00:00Z</time>
      </trkpt>
      <trkpt lat="63.422448" lon="10.31468267">
        <ele>257.864</ele>
        <time>1970-01-01T01:00:00Z</time>
      </trkpt>
      <trkpt lat="63.422444" lon="10.31465083">
        <ele>257.864</ele>
        <time>1970-01-01T01:00:00Z</time>
      </trkpt>
      <trkpt lat="63.42244067" lon="10.314617">
        <ele>257.864</ele>
        <time>1970-01-01T01:00:00Z</time>
      </trkpt>
      <trkpt lat="63.42243833" lon="10.31458367">
        <ele>258.016</ele>
        <time>1970-01-01T01:00:00Z</time>
      </trkpt>
      <trkpt lat="63.42243617" lon="10.314548">
        <ele>258.016</ele>
        <time>1970-01-01T01:00:00Z</time>
      </trkpt>
      <trkpt lat="63.4224325" lon="10.31451717">
        <ele>258.169</ele>
        <time>1970-01-01T01:00:00Z</time>
      </trkpt>
      <trkpt lat="63.42242817" lon="10.31448633">
        <ele>258.169</ele>
        <time>1970-01-01T01:00:00Z</time>
      </trkpt>
      <trkpt lat="63.42242233" lon="10.31445833">
        <ele>258.321</ele>
        <time>1970-01-01T01:00:00Z</time>
      </trkpt>
      <trkpt lat="63.4224175" lon="10.3144295">
        <ele>258.321</ele>
        <time>1970-01-01T01:00:00Z</time>
      </trkpt>
      <trkpt lat="63.42241283" lon="10.31440333">
        <ele>258.321</ele>
        <time>1970-01-01T01:00:00Z</time>
      </trkpt>
      <trkpt lat="63.42241" lon="10.31437717">
        <ele>258.321</ele>
        <time>1970-01-01T01:00:00Z</time>
      </trkpt>
      <trkpt lat="63.42240717" lon="10.31435">
        <ele>258.474</ele>
        <time>1970-01-01T01:00:00Z</time>
      </trkpt>
      <trkpt lat="63.42240383" lon="10.314322">
        <ele>258.474</ele>
        <time>1970-01-01T01:00:00Z</time>
      </trkpt>
      <trkpt lat="63.42239833" lon="10.314295">
        <ele>258.626</ele>
        <time>1970-01-01T01:00:00Z</time>
      </trkpt>
      <trkpt lat="63.42239067" lon="10.31426683">
        <ele>258.626</ele>
        <time>1970-01-01T01:00:00Z</time>
      </trkpt>
      <trkpt lat="63.42238383" lon="10.3142405">
        <ele>258.778</ele>
        <time>1970-01-01T01:00:00Z</time>
      </trkpt>
      <trkpt lat="63.42237883" lon="10.31421317">
        <ele>258.778</ele>
        <time>1970-01-01T01:00:00Z</time>
      </trkpt>
      <trkpt lat="63.422376" lon="10.31418767">
        <ele>258.931</ele>
        <time>1970-01-01T01:00:00Z</time>
      </trkpt>
      <trkpt lat="63.42237217" lon="10.3141615">
        <ele>258.931</ele>
        <time>1970-01-01T01:00:00Z</time>
      </trkpt>
      <trkpt lat="63.42236667" lon="10.3141345">
        <ele>259.083</ele>
        <time>1970-01-01T01:00:00Z</time>
      </trkpt>
      <trkpt lat="63.42236283" lon="10.31410683">
        <ele>259.083</ele>
        <time>1970-01-01T01:00:00Z</time>
      </trkpt>
      <trkpt lat="63.422362" lon="10.31407733">
        <ele>259.083</ele>
        <time>1970-01-01T01:00:00Z</time>
      </trkpt>
      <trkpt lat="63.42236533" lon="10.31404883">
        <ele>259.083</ele>
        <time>1970-01-01T01:00:00Z</time>
      </trkpt>
      <trkpt lat="63.42236717" lon="10.31401967">
        <ele>259.236</ele>
        <time>1970-01-01T01:00:00Z</time>
      </trkpt>
      <trkpt lat="63.42236533" lon="10.31399133">
        <ele>259.236</ele>
        <time>1970-01-01T01:00:00Z</time>
      </trkpt>
      <trkpt lat="63.42236517" lon="10.3139675">
        <ele>259.236</ele>
        <time>1970-01-01T01:00:00Z</time>
      </trkpt>
      <trkpt lat="63.42236683" lon="10.31394217">
        <ele>259.236</ele>
        <time>1970-01-01T01:00:00Z</time>
      </trkpt>
      <trkpt lat="63.42237217" lon="10.313916">
        <ele>259.388</ele>
        <time>1970-01-01T01:00:00Z</time>
      </trkpt>
      <trkpt lat="63.42237583" lon="10.31388383">
        <ele>259.388</ele>
        <time>1970-01-01T01:00:00Z</time>
      </trkpt>
      <trkpt lat="63.422379" lon="10.31385233">
        <ele>259.388</ele>
        <time>1970-01-01T01:00:00Z</time>
      </trkpt>
      <trkpt lat="63.42238317" lon="10.313821">
        <ele>259.388</ele>
        <time>1970-01-01T01:00:00Z</time>
      </trkpt>
      <trkpt lat="63.42238933" lon="10.31378867">
        <ele>259.388</ele>
        <time>1970-01-01T01:00:00Z</time>
      </trkpt>
      <trkpt lat="63.42239467" lon="10.31375783">
        <ele>259.388</ele>
        <time>1970-01-01T01:00:00Z</time>
      </trkpt>
      <trkpt lat="63.42240183" lon="10.31372167">
        <ele>259.388</ele>
        <time>1970-01-01T01:00:00Z</time>
      </trkpt>
      <trkpt lat="63.42240917" lon="10.31368717">
        <ele>259.388</ele>
        <time>1970-01-01T01:00:00Z</time>
      </trkpt>
      <trkpt lat="63.42241967" lon="10.3136515">
        <ele>259.388</ele>
        <time>1970-01-01T01:00:00Z</time>
      </trkpt>
      <trkpt lat="63.42242967" lon="10.31362283">
        <ele>259.388</ele>
        <time>1970-01-01T01:00:00Z</time>
      </trkpt>
      <trkpt lat="63.42244" lon="10.3135955">
        <ele>259.388</ele>
        <time>1970-01-01T01:00:00Z</time>
      </trkpt>
      <trkpt lat="63.42245" lon="10.31357083">
        <ele>259.388</ele>
        <time>1970-01-01T01:00:00Z</time>
      </trkpt>
      <trkpt lat="63.42245783" lon="10.31354583">
        <ele>259.388</ele>
        <time>1970-01-01T01:00:00Z</time>
      </trkpt>
      <trkpt lat="63.42246417" lon="10.31352033">
        <ele>259.388</ele>
        <time>1970-01-01T01:00:00Z</time>
      </trkpt>
      <trkpt lat="63.42246883" lon="10.31349233">
        <ele>259.388</ele>
        <time>1970-01-01T01:00:00Z</time>
      </trkpt>
      <trkpt lat="63.422473" lon="10.31346333">
        <ele>259.388</ele>
        <time>1970-01-01T01:00:00Z</time>
      </trkpt>
      <trkpt lat="63.422478" lon="10.313436">
        <ele>259.388</ele>
        <time>1970-01-01T01:00:00Z</time>
      </trkpt>
      <trkpt lat="63.42248383" lon="10.31341">
        <ele>259.388</ele>
        <time>1970-01-01T01:00:00Z</time>
      </trkpt>
      <trkpt lat="63.42248967" lon="10.31338517">
        <ele>259.236</ele>
        <time>1970-01-01T01:00:00Z</time>
      </trkpt>
      <trkpt lat="63.42249533" lon="10.31336033">
        <ele>259.236</ele>
        <time>1970-01-01T01:00:00Z</time>
      </trkpt>
      <trkpt lat="63.4225015" lon="10.31333633">
        <ele>259.236</ele>
        <time>1970-01-01T01:00:00Z</time>
      </trkpt>
      <trkpt lat="63.42250817" lon="10.31331367">
        <ele>259.236</ele>
        <time>1970-01-01T01:00:00Z</time>
      </trkpt>
      <trkpt lat="63.42251383" lon="10.31329067">
        <ele>259.083</ele>
        <time>1970-01-01T01:00:00Z</time>
      </trkpt>
      <trkpt lat="63.42251933" lon="10.31326733">
        <ele>259.083</ele>
        <time>1970-01-01T01:00:00Z</time>
      </trkpt>
      <trkpt lat="63.4225245" lon="10.3132405">
        <ele>259.083</ele>
        <time>1970-01-01T01:00:00Z</time>
      </trkpt>
      <trkpt lat="63.4225295" lon="10.31321433">
        <ele>259.083</ele>
        <time>1970-01-01T01:00:00Z</time>
      </trkpt>
      <trkpt lat="63.42253383" lon="10.313186">
        <ele>259.083</ele>
        <time>1970-01-01T01:00:00Z</time>
      </trkpt>
      <trkpt lat="63.42253617" lon="10.31316117">
        <ele>259.083</ele>
        <time>1970-01-01T01:00:00Z</time>
      </trkpt>
      <trkpt lat="63.422539" lon="10.3131365">
        <ele>258.931</ele>
        <time>1970-01-01T01:00:00Z</time>
      </trkpt>
      <trkpt lat="63.42254" lon="10.313113">
        <ele>258.931</ele>
        <time>1970-01-01T01:00:00Z</time>
      </trkpt>
      <trkpt lat="63.42254183" lon="10.3130895">
        <ele>258.931</ele>
        <time>1970-01-01T01:00:00Z</time>
      </trkpt>
      <trkpt lat="63.42254417" lon="10.3130685">
        <ele>258.931</ele>
        <time>1970-01-01T01:00:00Z</time>
      </trkpt>
      <trkpt lat="63.422548" lon="10.31305033">
        <ele>258.778</ele>
        <time>1970-01-01T01:00:00Z</time>
      </trkpt>
      <trkpt lat="63.4225525" lon="10.31302967">
        <ele>258.778</ele>
        <time>1970-01-01T01:00:00Z</time>
      </trkpt>
      <trkpt lat="63.42255667" lon="10.3130065">
        <ele>258.778</ele>
        <time>1970-01-01T01:00:00Z</time>
      </trkpt>
      <trkpt lat="63.42256167" lon="10.31298083">
        <ele>258.778</ele>
        <time>1970-01-01T01:00:00Z</time>
      </trkpt>
      <trkpt lat="63.42256767" lon="10.31295733">
        <ele>258.626</ele>
        <time>1970-01-01T01:00:00Z</time>
      </trkpt>
      <trkpt lat="63.42257517" lon="10.31293367">
        <ele>258.626</ele>
        <time>1970-01-01T01:00:00Z</time>
      </trkpt>
      <trkpt lat="63.422583" lon="10.31291217">
        <ele>258.626</ele>
        <time>1970-01-01T01:00:00Z</time>
      </trkpt>
      <trkpt lat="63.4225905" lon="10.31289">
        <ele>258.626</ele>
        <time>1970-01-01T01:00:00Z</time>
      </trkpt>
      <trkpt lat="63.42259567" lon="10.31286867">
        <ele>258.626</ele>
        <time>1970-01-01T01:00:00Z</time>
      </trkpt>
      <trkpt lat="63.42260033" lon="10.31284267">
        <ele>258.626</ele>
        <time>1970-01-01T01:00:00Z</time>
      </trkpt>
      <trkpt lat="63.42260467" lon="10.31281783">
        <ele>258.626</ele>
        <time>1970-01-01T01:00:00Z</time>
      </trkpt>
      <trkpt lat="63.42260883" lon="10.31279467">
        <ele>258.626</ele>
        <time>1970-01-01T01:00:00Z</time>
      </trkpt>
      <trkpt lat="63.422614" lon="10.31277583">
        <ele>258.626</ele>
        <time>1970-01-01T01:00:00Z</time>
      </trkpt>
      <trkpt lat="63.42262" lon="10.31275517">
        <ele>258.626</ele>
        <time>1970-01-01T01:00:00Z</time>
      </trkpt>
      <trkpt lat="63.422627" lon="10.31273467">
        <ele>258.626</ele>
        <time>1970-01-01T01:00:00Z</time>
      </trkpt>
      <trkpt lat="63.422633" lon="10.31271233">
        <ele>258.626</ele>
        <time>1970-01-01T01:00:00Z</time>
      </trkpt>
      <trkpt lat="63.42263733" lon="10.312691">
        <ele>258.626</ele>
        <time>1970-01-01T01:00:00Z</time>
      </trkpt>
      <trkpt lat="63.42264117" lon="10.3126675">
        <ele>258.626</ele>
        <time>1970-01-01T01:00:00Z</time>
      </trkpt>
      <trkpt lat="63.422646" lon="10.31264417">
        <ele>258.626</ele>
        <time>1970-01-01T01:00:00Z</time>
      </trkpt>
      <trkpt lat="63.422651" lon="10.3126185">
        <ele>258.626</ele>
        <time>1970-01-01T01:00:00Z</time>
      </trkpt>
      <trkpt lat="63.422655" lon="10.312595">
        <ele>258.626</ele>
        <time>1970-01-01T01:00:00Z</time>
      </trkpt>
      <trkpt lat="63.422659" lon="10.31256933">
        <ele>258.626</ele>
        <time>1970-01-01T01:00:00Z</time>
      </trkpt>
      <trkpt lat="63.42266217" lon="10.31254467">
        <ele>258.626</ele>
        <time>1970-01-01T01:00:00Z</time>
      </trkpt>
      <trkpt lat="63.422667" lon="10.31251433">
        <ele>258.626</ele>
        <time>1970-01-01T01:00:00Z</time>
      </trkpt>
      <trkpt lat="63.42266917" lon="10.31248417">
        <ele>258.626</ele>
        <time>1970-01-01T01:00:00Z</time>
      </trkpt>
      <trkpt lat="63.42267017" lon="10.31245317">
        <ele>258.626</ele>
        <time>1970-01-01T01:00:00Z</time>
      </trkpt>
      <trkpt lat="63.42266967" lon="10.31242383">
        <ele>258.626</ele>
        <time>1970-01-01T01:00:00Z</time>
      </trkpt>
      <trkpt lat="63.42267167" lon="10.312395">
        <ele>258.626</ele>
        <time>1970-01-01T01:00:00Z</time>
      </trkpt>
      <trkpt lat="63.4226745" lon="10.312368">
        <ele>258.626</ele>
        <time>1970-01-01T01:00:00Z</time>
      </trkpt>
      <trkpt lat="63.42267767" lon="10.31234383">
        <ele>258.626</ele>
        <time>1970-01-01T01:00:00Z</time>
      </trkpt>
      <trkpt lat="63.42267883" lon="10.3123205">
        <ele>258.626</ele>
        <time>1970-01-01T01:00:00Z</time>
      </trkpt>
      <trkpt lat="63.42268067" lon="10.312296">
        <ele>258.626</ele>
        <time>1970-01-01T01:00:00Z</time>
      </trkpt>
      <trkpt lat="63.422683" lon="10.3122655">
        <ele>258.626</ele>
        <time>1970-01-01T01:00:00Z</time>
      </trkpt>
      <trkpt lat="63.42268767" lon="10.312234">
        <ele>258.626</ele>
        <time>1970-01-01T01:00:00Z</time>
      </trkpt>
      <trkpt lat="63.422694" lon="10.31220117">
        <ele>258.626</ele>
        <time>1970-01-01T01:00:00Z</time>
      </trkpt>
      <trkpt lat="63.422701" lon="10.31217033">
        <ele>258.626</ele>
        <time>1970-01-01T01:00:00Z</time>
      </trkpt>
      <trkpt lat="63.42270683" lon="10.31213967">
        <ele>258.474</ele>
        <time>1970-01-01T01:00:00Z</time>
      </trkpt>
      <trkpt lat="63.42271317" lon="10.3121085">
        <ele>258.474</ele>
        <time>1970-01-01T01:00:00Z</time>
      </trkpt>
      <trkpt lat="63.42272033" lon="10.31207867">
        <ele>258.474</ele>
        <time>1970-01-01T01:00:00Z</time>
      </trkpt>
      <trkpt lat="63.42272867" lon="10.31204717">
        <ele>258.474</ele>
        <time>1970-01-01T01:00:00Z</time>
      </trkpt>
      <trkpt lat="63.422735" lon="10.31201567">
        <ele>258.321</ele>
        <time>1970-01-01T01:00:00Z</time>
      </trkpt>
      <trkpt lat="63.42274183" lon="10.31198417">
        <ele>258.321</ele>
        <time>1970-01-01T01:00:00Z</time>
      </trkpt>
      <trkpt lat="63.422748" lon="10.31195283">
        <ele>258.321</ele>
        <time>1970-01-01T01:00:00Z</time>
      </trkpt>
      <trkpt lat="63.42275517" lon="10.31192383">
        <ele>258.321</ele>
        <time>1970-01-01T01:00:00Z</time>
      </trkpt>
      <trkpt lat="63.42276067" lon="10.31189617">
        <ele>258.169</ele>
        <time>1970-01-01T01:00:00Z</time>
      </trkpt>
      <trkpt lat="63.4227675" lon="10.3118715">
        <ele>258.169</ele>
        <time>1970-01-01T01:00:00Z</time>
      </trkpt>
      <trkpt lat="63.42277333" lon="10.31184733">
        <ele>258.016</ele>
        <time>1970-01-01T01:00:00Z</time>
      </trkpt>
      <trkpt lat="63.42277867" lon="10.311826">
        <ele>258.016</ele>
        <time>1970-01-01T01:00:00Z</time>
      </trkpt>
      <trkpt lat="63.42278233" lon="10.31180367">
        <ele>258.016</ele>
        <time>1970-01-01T01:00:00Z</time>
      </trkpt>
      <trkpt lat="63.42278567" lon="10.31178067">
        <ele>258.016</ele>
        <time>1970-01-01T01:00:00Z</time>
      </trkpt>
      <trkpt lat="63.422789" lon="10.31175583">
        <ele>257.864</ele>
        <time>1970-01-01T01:00:00Z</time>
      </trkpt>
      <trkpt lat="63.42279167" lon="10.31172983">
        <ele>257.864</ele>
        <time>1970-01-01T01:00:00Z</time>
      </trkpt>
      <trkpt lat="63.4227925" lon="10.31170367">
        <ele>257.864</ele>
        <time>1970-01-01T01:00:00Z</time>
      </trkpt>
      <trkpt lat="63.42279233" lon="10.311676">
        <ele>257.864</ele>
        <time>1970-01-01T01:00:00Z</time>
      </trkpt>
      <trkpt lat="63.4227915" lon="10.31164983">
        <ele>257.712</ele>
        <time>1970-01-01T01:00:00Z</time>
      </trkpt>
      <trkpt lat="63.42279117" lon="10.31162167">
        <ele>257.712</ele>
        <time>1970-01-01T01:00:00Z</time>
      </trkpt>
      <trkpt lat="63.4227905" lon="10.31159283">
        <ele>257.712</ele>
        <time>1970-01-01T01:00:00Z</time>
      </trkpt>
      <trkpt lat="63.4227905" lon="10.31156317">
        <ele>257.712</ele>
        <time>1970-01-01T01:00:00Z</time>
      </trkpt>
      <trkpt lat="63.4227905" lon="10.3115335">
        <ele>257.559</ele>
        <time>1970-01-01T01:00:00Z</time>
      </trkpt>
      <trkpt lat="63.42278967" lon="10.31150283">
        <ele>257.559</ele>
        <time>1970-01-01T01:00:00Z</time>
      </trkpt>
      <trkpt lat="63.42278883" lon="10.3114705">
        <ele>257.559</ele>
        <time>1970-01-01T01:00:00Z</time>
      </trkpt>
      <trkpt lat="63.42278767" lon="10.3114385">
        <ele>257.559</ele>
        <time>1970-01-01T01:00:00Z</time>
      </trkpt>
      <trkpt lat="63.42278667" lon="10.311408">
        <ele>257.559</ele>
        <time>1970-01-01T01:00:00Z</time>
      </trkpt>
      <trkpt lat="63.42278483" lon="10.31137817">
        <ele>257.559</ele>
        <time>1970-01-01T01:00:00Z</time>
      </trkpt>
      <trkpt lat="63.42278317" lon="10.31135017">
        <ele>257.559</ele>
        <time>1970-01-01T01:00:00Z</time>
      </trkpt>
      <trkpt lat="63.4227825" lon="10.31132333">
        <ele>257.559</ele>
        <time>1970-01-01T01:00:00Z</time>
      </trkpt>
      <trkpt lat="63.4227825" lon="10.31129783">
        <ele>257.559</ele>
        <time>1970-01-01T01:00:00Z</time>
      </trkpt>
      <trkpt lat="63.422783" lon="10.3112705">
        <ele>257.559</ele>
        <time>1970-01-01T01:00:00Z</time>
      </trkpt>
      <trkpt lat="63.42278283" lon="10.31124233">
        <ele>257.559</ele>
        <time>1970-01-01T01:00:00Z</time>
      </trkpt>
      <trkpt lat="63.42278233" lon="10.3112125">
        <ele>257.559</ele>
        <time>1970-01-01T01:00:00Z</time>
      </trkpt>
      <trkpt lat="63.42278167" lon="10.3111815">
        <ele>257.559</ele>
        <time>1970-01-01T01:00:00Z</time>
      </trkpt>
      <trkpt lat="63.422781" lon="10.3111495">
        <ele>257.559</ele>
        <time>1970-01-01T01:00:00Z</time>
      </trkpt>
      <trkpt lat="63.422782" lon="10.31111867">
        <ele>257.559</ele>
        <time>1970-01-01T01:00:00Z</time>
      </trkpt>
      <trkpt lat="63.42278383" lon="10.31108917">
        <ele>257.559</ele>
        <time>1970-01-01T01:00:00Z</time>
      </trkpt>
      <trkpt lat="63.42278567" lon="10.31105933">
        <ele>257.559</ele>
        <time>1970-01-01T01:00:00Z</time>
      </trkpt>
      <trkpt lat="63.42278567" lon="10.31102883">
        <ele>257.559</ele>
        <time>1970-01-01T01:00:00Z</time>
      </trkpt>
      <trkpt lat="63.42278533" lon="10.31099867">
        <ele>257.559</ele>
        <time>1970-01-01T01:00:00Z</time>
      </trkpt>
      <trkpt lat="63.42278517" lon="10.31097083">
        <ele>257.559</ele>
        <time>1970-01-01T01:00:00Z</time>
      </trkpt>
      <trkpt lat="63.42278617" lon="10.31094383">
        <ele>257.712</ele>
        <time>1970-01-01T01:00:00Z</time>
      </trkpt>
      <trkpt lat="63.4227865" lon="10.31091717">
        <ele>257.712</ele>
        <time>1970-01-01T01:00:00Z</time>
      </trkpt>
      <trkpt lat="63.42278667" lon="10.31088917">
        <ele>257.712</ele>
        <time>1970-01-01T01:00:00Z</time>
      </trkpt>
      <trkpt lat="63.42278633" lon="10.31086033">
        <ele>257.712</ele>
        <time>1970-01-01T01:00:00Z</time>
      </trkpt>
      <trkpt lat="63.42278467" lon="10.31083167">
        <ele>257.712</ele>
        <time>1970-01-01T01:00:00Z</time>
      </trkpt>
      <trkpt lat="63.42278367" lon="10.31080267">
        <ele>257.712</ele>
        <time>1970-01-01T01:00:00Z</time>
      </trkpt>
      <trkpt lat="63.4227825" lon="10.31077433">
        <ele>257.712</ele>
        <time>1970-01-01T01:00:00Z</time>
      </trkpt>
      <trkpt lat="63.42278333" lon="10.310744">
        <ele>257.712</ele>
        <time>1970-01-01T01:00:00Z</time>
      </trkpt>
      <trkpt lat="63.42278233" lon="10.310713">
        <ele>257.864</ele>
        <time>1970-01-01T01:00:00Z</time>
      </trkpt>
      <trkpt lat="63.42278067" lon="10.31068167">
        <ele>257.864</ele>
        <time>1970-01-01T01:00:00Z</time>
      </trkpt>
      <trkpt lat="63.4227785" lon="10.31065">
        <ele>257.864</ele>
        <time>1970-01-01T01:00:00Z</time>
      </trkpt>
      <trkpt lat="63.4227765" lon="10.3106175">
        <ele>257.864</ele>
        <time>1970-01-01T01:00:00Z</time>
      </trkpt>
      <trkpt lat="63.42277517" lon="10.31058533">
        <ele>257.864</ele>
        <time>1970-01-01T01:00:00Z</time>
      </trkpt>
      <trkpt lat="63.42277433" lon="10.310553">
        <ele>257.864</ele>
        <time>1970-01-01T01:00:00Z</time>
      </trkpt>
      <trkpt lat="63.42277583" lon="10.31052317">
        <ele>257.864</ele>
        <time>1970-01-01T01:00:00Z</time>
      </trkpt>
      <trkpt lat="63.42277783" lon="10.31049333">
        <ele>257.864</ele>
        <time>1970-01-01T01:00:00Z</time>
      </trkpt>
      <trkpt lat="63.42277917" lon="10.310464">
        <ele>257.864</ele>
        <time>1970-01-01T01:00:00Z</time>
      </trkpt>
      <trkpt lat="63.42277967" lon="10.31043417">
        <ele>257.864</ele>
        <time>1970-01-01T01:00:00Z</time>
      </trkpt>
      <trkpt lat="63.42278033" lon="10.3104045">
        <ele>258.016</ele>
        <time>1970-01-01T01:00:00Z</time>
      </trkpt>
      <trkpt lat="63.42278" lon="10.31037367">
        <ele>258.016</ele>
        <time>1970-01-01T01:00:00Z</time>
      </trkpt>
      <trkpt lat="63.42277817" lon="10.31034167">
        <ele>258.016</ele>
        <time>1970-01-01T01:00:00Z</time>
      </trkpt>
      <trkpt lat="63.42277433" lon="10.31030867">
        <ele>258.016</ele>
        <time>1970-01-01T01:00:00Z</time>
      </trkpt>
      <trkpt lat="63.42277167" lon="10.310277">
        <ele>258.016</ele>
        <time>1970-01-01T01:00:00Z</time>
      </trkpt>
      <trkpt lat="63.42276867" lon="10.31024667">
        <ele>258.016</ele>
        <time>1970-01-01T01:00:00Z</time>
      </trkpt>
      <trkpt lat="63.42276717" lon="10.3102175">
        <ele>258.016</ele>
        <time>1970-01-01T01:00:00Z</time>
      </trkpt>
      <trkpt lat="63.42276633" lon="10.31019">
        <ele>258.016</ele>
        <time>1970-01-01T01:00:00Z</time>
      </trkpt>
      <trkpt lat="63.42276617" lon="10.31016267">
        <ele>258.016</ele>
        <time>1970-01-01T01:00:00Z</time>
      </trkpt>
      <trkpt lat="63.4227665" lon="10.31013417">
        <ele>258.016</ele>
        <time>1970-01-01T01:00:00Z</time>
      </trkpt>
      <trkpt lat="63.42276383" lon="10.31010383">
        <ele>258.016</ele>
        <time>1970-01-01T01:00:00Z</time>
      </trkpt>
      <trkpt lat="63.42275983" lon="10.31007433">
        <ele>258.016</ele>
        <time>1970-01-01T01:00:00Z</time>
      </trkpt>
      <trkpt lat="63.42275533" lon="10.310045">
        <ele>258.016</ele>
        <time>1970-01-01T01:00:00Z</time>
      </trkpt>
      <trkpt lat="63.42275267" lon="10.31001833">
        <ele>258.016</ele>
        <time>1970-01-01T01:00:00Z</time>
      </trkpt>
      <trkpt lat="63.42275083" lon="10.30999217">
        <ele>257.864</ele>
        <time>1970-01-01T01:00:00Z</time>
      </trkpt>
      <trkpt lat="63.422748" lon="10.30996883">
        <ele>257.864</ele>
        <time>1970-01-01T01:00:00Z</time>
      </trkpt>
      <trkpt lat="63.42274467" lon="10.3099455">
        <ele>257.864</ele>
        <time>1970-01-01T01:00:00Z</time>
      </trkpt>
      <trkpt lat="63.422739" lon="10.3099205">
        <ele>257.864</ele>
        <time>1970-01-01T01:00:00Z</time>
      </trkpt>
      <trkpt lat="63.4227335" lon="10.309896">
        <ele>257.864</ele>
        <time>1970-01-01T01:00:00Z</time>
      </trkpt>
      <trkpt lat="63.42272733" lon="10.30987183">
        <ele>257.864</ele>
        <time>1970-01-01T01:00:00Z</time>
      </trkpt>
      <trkpt lat="63.42272317" lon="10.30985033">
        <ele>257.712</ele>
        <time>1970-01-01T01:00:00Z</time>
      </trkpt>
      <trkpt lat="63.42271817" lon="10.30982983">
        <ele>257.712</ele>
        <time>1970-01-01T01:00:00Z</time>
      </trkpt>
      <trkpt lat="63.4227145" lon="10.3098095">
        <ele>257.559</ele>
        <time>1970-01-01T01:00:00Z</time>
      </trkpt>
      <trkpt lat="63.4227105" lon="10.3097885">
        <ele>257.559</ele>
        <time>1970-01-01T01:00:00Z</time>
      </trkpt>
      <trkpt lat="63.42270733" lon="10.30976283">
        <ele>257.559</ele>
        <time>1970-01-01T01:00:00Z</time>
      </trkpt>
      <trkpt lat="63.422703" lon="10.30973783">
        <ele>257.559</ele>
        <time>1970-01-01T01:00:00Z</time>
      </trkpt>
      <trkpt lat="63.42270283" lon="10.3097195">
        <ele>257.407</ele>
        <time>1970-01-01T01:00:00Z</time>
      </trkpt>
      <trkpt lat="63.4227025" lon="10.30970133">
        <ele>257.407</ele>
        <time>1970-01-01T01:00:00Z</time>
      </trkpt>
      <trkpt lat="63.42270367" lon="10.30968083">
        <ele>257.254</ele>
        <time>1970-01-01T01:00:00Z</time>
      </trkpt>
      <trkpt lat="63.422701" lon="10.309653">
        <ele>257.254</ele>
        <time>1970-01-01T01:00:00Z</time>
      </trkpt>
      <trkpt lat="63.422695" lon="10.30962483">
        <ele>257.102</ele>
        <time>1970-01-01T01:00:00Z</time>
      </trkpt>
      <trkpt lat="63.422687" lon="10.309597">
        <ele>257.102</ele>
        <time>1970-01-01T01:00:00Z</time>
      </trkpt>
      <trkpt lat="63.42267867" lon="10.30956733">
        <ele>256.95</ele>
        <time>1970-01-01T01:00:00Z</time>
      </trkpt>
      <trkpt lat="63.42267317" lon="10.30954033">
        <ele>256.95</ele>
        <time>1970-01-01T01:00:00Z</time>
      </trkpt>
      <trkpt lat="63.4226685" lon="10.309512">
        <ele>256.797</ele>
        <time>1970-01-01T01:00:00Z</time>
      </trkpt>
      <trkpt lat="63.42266583" lon="10.3094825">
        <ele>256.797</ele>
        <time>1970-01-01T01:00:00Z</time>
      </trkpt>
      <trkpt lat="63.422663" lon="10.30945">
        <ele>256.645</ele>
        <time>1970-01-01T01:00:00Z</time>
      </trkpt>
      <trkpt lat="63.42265933" lon="10.30941817">
        <ele>256.645</ele>
        <time>1970-01-01T01:00:00Z</time>
      </trkpt>
      <trkpt lat="63.4226545" lon="10.30938667">
        <ele>256.492</ele>
        <time>1970-01-01T01:00:00Z</time>
      </trkpt>
      <trkpt lat="63.42264967" lon="10.309357">
        <ele>256.492</ele>
        <time>1970-01-01T01:00:00Z</time>
      </trkpt>
      <trkpt lat="63.4226465" lon="10.30932767">
        <ele>256.188</ele>
        <time>1970-01-01T01:00:00Z</time>
      </trkpt>
      <trkpt lat="63.42264317" lon="10.309299">
        <ele>256.188</ele>
        <time>1970-01-01T01:00:00Z</time>
      </trkpt>
      <trkpt lat="63.42264133" lon="10.30926817">
        <ele>256.035</ele>
        <time>1970-01-01T01:00:00Z</time>
      </trkpt>
      <trkpt lat="63.42264033" lon="10.30923883">
        <ele>256.035</ele>
        <time>1970-01-01T01:00:00Z</time>
      </trkpt>
      <trkpt lat="63.42263933" lon="10.3092095">
        <ele>255.883</ele>
        <time>1970-01-01T01:00:00Z</time>
      </trkpt>
      <trkpt lat="63.42263967" lon="10.30918083">
        <ele>255.883</ele>
        <time>1970-01-01T01:00:00Z</time>
      </trkpt>
      <trkpt lat="63.4226385" lon="10.30915433">
        <ele>255.578</ele>
        <time>1970-01-01T01:00:00Z</time>
      </trkpt>
      <trkpt lat="63.42263767" lon="10.30913">
        <ele>255.578</ele>
        <time>1970-01-01T01:00:00Z</time>
      </trkpt>
      <trkpt lat="63.42263583" lon="10.30910517">
        <ele>255.425</ele>
        <time>1970-01-01T01:00:00Z</time>
      </trkpt>
      <trkpt lat="63.42263417" lon="10.30907733">
        <ele>255.425</ele>
        <time>1970-01-01T01:00:00Z</time>
      </trkpt>
      <trkpt lat="63.42263383" lon="10.30904833">
        <ele>255.121</ele>
        <time>1970-01-01T01:00:00Z</time>
      </trkpt>
      <trkpt lat="63.42263483" lon="10.30902567">
        <ele>255.121</ele>
        <time>1970-01-01T01:00:00Z</time>
      </trkpt>
      <trkpt lat="63.42263967" lon="10.30900317">
        <ele>254.968</ele>
        <time>1970-01-01T01:00:00Z</time>
      </trkpt>
      <trkpt lat="63.422647" lon="10.3089835">
        <ele>254.968</ele>
        <time>1970-01-01T01:00:00Z</time>
      </trkpt>
      <trkpt lat="63.42265267" lon="10.30896">
        <ele>254.816</ele>
        <time>1970-01-01T01:00:00Z</time>
      </trkpt>
      <trkpt lat="63.42265717" lon="10.308939">
        <ele>254.816</ele>
        <time>1970-01-01T01:00:00Z</time>
      </trkpt>
      <trkpt lat="63.4226605" lon="10.30891783">
        <ele>254.511</ele>
        <time>1970-01-01T01:00:00Z</time>
      </trkpt>
      <trkpt lat="63.42266517" lon="10.308897">
        <ele>254.511</ele>
        <time>1970-01-01T01:00:00Z</time>
      </trkpt>
      <trkpt lat="63.4226705" lon="10.30887433">
        <ele>254.359</ele>
        <time>1970-01-01T01:00:00Z</time>
      </trkpt>
      <trkpt lat="63.422676" lon="10.30885033">
        <ele>254.359</ele>
        <time>1970-01-01T01:00:00Z</time>
      </trkpt>
      <trkpt lat="63.4226825" lon="10.3088245">
        <ele>254.206</ele>
        <time>1970-01-01T01:00:00Z</time>
      </trkpt>
      <trkpt lat="63.42268883" lon="10.30879733">
        <ele>254.206</ele>
        <time>1970-01-01T01:00:00Z</time>
      </trkpt>
      <trkpt lat="63.42269467" lon="10.30876867">
        <ele>254.054</ele>
        <time>1970-01-01T01:00:00Z</time>
      </trkpt>
      <trkpt lat="63.42270117" lon="10.30874">
        <ele>254.054</ele>
        <time>1970-01-01T01:00:00Z</time>
      </trkpt>
      <trkpt lat="63.4227065" lon="10.3087135">
        <ele>253.901</ele>
        <time>1970-01-01T01:00:00Z</time>
      </trkpt>
      <trkpt lat="63.4227105" lon="10.3086875">
        <ele>253.901</ele>
        <time>1970-01-01T01:00:00Z</time>
      </trkpt>
      <trkpt lat="63.42271217" lon="10.308662">
        <ele>253.749</ele>
        <time>1970-01-01T01:00:00Z</time>
      </trkpt>
      <trkpt lat="63.4227145" lon="10.3086375">
        <ele>253.749</ele>
        <time>1970-01-01T01:00:00Z</time>
      </trkpt>
      <trkpt lat="63.4227185" lon="10.3086145">
        <ele>253.597</ele>
        <time>1970-01-01T01:00:00Z</time>
      </trkpt>
      <trkpt lat="63.42272433" lon="10.308592">
        <ele>253.597</ele>
        <time>1970-01-01T01:00:00Z</time>
      </trkpt>
      <trkpt lat="63.42272967" lon="10.308567">
        <ele>253.292</ele>
        <time>1970-01-01T01:00:00Z</time>
      </trkpt>
      <trkpt lat="63.42273283" lon="10.30854183">
        <ele>253.292</ele>
        <time>1970-01-01T01:00:00Z</time>
      </trkpt>
      <trkpt lat="63.42273583" lon="10.30851783">
        <ele>253.139</ele>
        <time>1970-01-01T01:00:00Z</time>
      </trkpt>
      <trkpt lat="63.42273933" lon="10.308496">
        <ele>253.139</ele>
        <time>1970-01-01T01:00:00Z</time>
      </trkpt>
      <trkpt lat="63.42274533" lon="10.30847483">
        <ele>252.987</ele>
        <time>1970-01-01T01:00:00Z</time>
      </trkpt>
      <trkpt lat="63.422751" lon="10.308453">
        <ele>252.987</ele>
        <time>1970-01-01T01:00:00Z</time>
      </trkpt>
      <trkpt lat="63.42275967" lon="10.308428">
        <ele>252.835</ele>
        <time>1970-01-01T01:00:00Z</time>
      </trkpt>
      <trkpt lat="63.42276733" lon="10.30840283">
        <ele>252.835</ele>
        <time>1970-01-01T01:00:00Z</time>
      </trkpt>
      <trkpt lat="63.42277483" lon="10.30838233">
        <ele>252.682</ele>
        <time>1970-01-01T01:00:00Z</time>
      </trkpt>
      <trkpt lat="63.422777" lon="10.30836">
        <ele>252.682</ele>
        <time>1970-01-01T01:00:00Z</time>
      </trkpt>
      <trkpt lat="63.4227785" lon="10.30833433">
        <ele>252.53</ele>
        <time>1970-01-01T01:00:00Z</time>
      </trkpt>
      <trkpt lat="63.42277983" lon="10.30830033">
        <ele>252.53</ele>
        <time>1970-01-01T01:00:00Z</time>
      </trkpt>
      <trkpt lat="63.4227825" lon="10.30826933">
        <ele>252.377</ele>
        <time>1970-01-01T01:00:00Z</time>
      </trkpt>
      <trkpt lat="63.422787" lon="10.308242">
        <ele>252.377</ele>
        <time>1970-01-01T01:00:00Z</time>
      </trkpt>
      <trkpt lat="63.42279217" lon="10.30821467">
        <ele>252.377</ele>
        <time>1970-01-01T01:00:00Z</time>
      </trkpt>
      <trkpt lat="63.4227975" lon="10.30818967">
        <ele>252.377</ele>
        <time>1970-01-01T01:00:00Z</time>
      </trkpt>
      <trkpt lat="63.42280133" lon="10.308163">
        <ele>252.225</ele>
        <time>1970-01-01T01:00:00Z</time>
      </trkpt>
      <trkpt lat="63.42280517" lon="10.30813967">
        <ele>252.225</ele>
        <time>1970-01-01T01:00:00Z</time>
      </trkpt>
      <trkpt lat="63.42280967" lon="10.30811567">
        <ele>252.073</ele>
        <time>1970-01-01T01:00:00Z</time>
      </trkpt>
      <trkpt lat="63.42281467" lon="10.308091">
        <ele>252.073</ele>
        <time>1970-01-01T01:00:00Z</time>
      </trkpt>
      <trkpt lat="63.42282017" lon="10.30806667">
        <ele>252.073</ele>
        <time>1970-01-01T01:00:00Z</time>
      </trkpt>
      <trkpt lat="63.4228235" lon="10.30804017">
        <ele>252.073</ele>
        <time>1970-01-01T01:00:00Z</time>
      </trkpt>
      <trkpt lat="63.42282783" lon="10.30801483">
        <ele>251.92</ele>
        <time>1970-01-01T01:00:00Z</time>
      </trkpt>
      <trkpt lat="63.42283267" lon="10.307989">
        <ele>251.92</ele>
        <time>1970-01-01T01:00:00Z</time>
      </trkpt>
      <trkpt lat="63.42283967" lon="10.30796367">
        <ele>251.92</ele>
        <time>1970-01-01T01:00:00Z</time>
      </trkpt>
      <trkpt lat="63.4228455" lon="10.30793317">
        <ele>251.92</ele>
        <time>1970-01-01T01:00:00Z</time>
      </trkpt>
      <trkpt lat="63.422849" lon="10.30789917">
        <ele>251.768</ele>
        <time>1970-01-01T01:00:00Z</time>
      </trkpt>
      <trkpt lat="63.42285317" lon="10.307866">
        <ele>251.768</ele>
        <time>1970-01-01T01:00:00Z</time>
      </trkpt>
      <trkpt lat="63.42285833" lon="10.30783733">
        <ele>251.768</ele>
        <time>1970-01-01T01:00:00Z</time>
      </trkpt>
      <trkpt lat="63.42286233" lon="10.30780983">
        <ele>251.768</ele>
        <time>1970-01-01T01:00:00Z</time>
      </trkpt>
      <trkpt lat="63.42286267" lon="10.30778">
        <ele>251.768</ele>
        <time>1970-01-01T01:00:00Z</time>
      </trkpt>
      <trkpt lat="63.42286167" lon="10.30774967">
        <ele>251.768</ele>
        <time>1970-01-01T01:00:00Z</time>
      </trkpt>
      <trkpt lat="63.422861" lon="10.30772083">
        <ele>251.615</ele>
        <time>1970-01-01T01:00:00Z</time>
      </trkpt>
      <trkpt lat="63.42286067" lon="10.30769117">
        <ele>251.615</ele>
        <time>1970-01-01T01:00:00Z</time>
      </trkpt>
      <trkpt lat="63.4228585" lon="10.30765783">
        <ele>251.615</ele>
        <time>1970-01-01T01:00:00Z</time>
      </trkpt>
      <trkpt lat="63.42285767" lon="10.30762267">
        <ele>251.615</ele>
        <time>1970-01-01T01:00:00Z</time>
      </trkpt>
      <trkpt lat="63.422856" lon="10.30758683">
        <ele>251.615</ele>
        <time>1970-01-01T01:00:00Z</time>
      </trkpt>
      <trkpt lat="63.42285317" lon="10.3075535">
        <ele>251.615</ele>
        <time>1970-01-01T01:00:00Z</time>
      </trkpt>
      <trkpt lat="63.42284967" lon="10.30752167">
        <ele>251.615</ele>
        <time>1970-01-01T01:00:00Z</time>
      </trkpt>
      <trkpt lat="63.422849" lon="10.30749283">
        <ele>251.615</ele>
        <time>1970-01-01T01:00:00Z</time>
      </trkpt>
      <trkpt lat="63.42284967" lon="10.30746567">
        <ele>251.463</ele>
        <time>1970-01-01T01:00:00Z</time>
      </trkpt>
      <trkpt lat="63.42284933" lon="10.3074415">
        <ele>251.463</ele>
        <time>1970-01-01T01:00:00Z</time>
      </trkpt>
      <trkpt lat="63.42284933" lon="10.30742283">
        <ele>251.463</ele>
        <time>1970-01-01T01:00:00Z</time>
      </trkpt>
      <trkpt lat="63.4228495" lon="10.30741067">
        <ele>251.463</ele>
        <time>1970-01-01T01:00:00Z</time>
      </trkpt>
      <trkpt lat="63.42285167" lon="10.30740033">
        <ele>251.463</ele>
        <time>1970-01-01T01:00:00Z</time>
      </trkpt>
      <trkpt lat="63.422853" lon="10.30738933">
        <ele>251.463</ele>
        <time>1970-01-01T01:00:00Z</time>
      </trkpt>
      <trkpt lat="63.422855" lon="10.30738033">
        <ele>251.615</ele>
        <time>1970-01-01T01:00:00Z</time>
      </trkpt>
      <trkpt lat="63.42285517" lon="10.30737117">
        <ele>251.615</ele>
        <time>1970-01-01T01:00:00Z</time>
      </trkpt>
      <trkpt lat="63.422856" lon="10.30735967">
        <ele>251.615</ele>
        <time>1970-01-01T01:00:00Z</time>
      </trkpt>
      <trkpt lat="63.42285633" lon="10.30734167">
        <ele>251.615</ele>
        <time>1970-01-01T01:00:00Z</time>
      </trkpt>
      <trkpt lat="63.4228595" lon="10.3073195">
        <ele>251.615</ele>
        <time>1970-01-01T01:00:00Z</time>
      </trkpt>
      <trkpt lat="63.422863" lon="10.30729717">
        <ele>251.615</ele>
        <time>1970-01-01T01:00:00Z</time>
      </trkpt>
      <trkpt lat="63.4228685" lon="10.30727367">
        <ele>251.768</ele>
        <time>1970-01-01T01:00:00Z</time>
      </trkpt>
      <trkpt lat="63.42287367" lon="10.30725233">
        <ele>251.768</ele>
        <time>1970-01-01T01:00:00Z</time>
      </trkpt>
      <trkpt lat="63.42288033" lon="10.30723117">
        <ele>251.768</ele>
        <time>1970-01-01T01:00:00Z</time>
      </trkpt>
      <trkpt lat="63.42288617" lon="10.30721133">
        <ele>251.768</ele>
        <time>1970-01-01T01:00:00Z</time>
      </trkpt>
      <trkpt lat="63.42289367" lon="10.30719467">
        <ele>251.92</ele>
        <time>1970-01-01T01:00:00Z</time>
      </trkpt>
      <trkpt lat="63.42290083" lon="10.30717833">
        <ele>251.92</ele>
        <time>1970-01-01T01:00:00Z</time>
      </trkpt>
      <trkpt lat="63.4229085" lon="10.3071615">
        <ele>251.92</ele>
        <time>1970-01-01T01:00:00Z</time>
      </trkpt>
      <trkpt lat="63.42291667" lon="10.30714117">
        <ele>251.92</ele>
        <time>1970-01-01T01:00:00Z</time>
      </trkpt>
      <trkpt lat="63.42292783" lon="10.30712067">
        <ele>252.073</ele>
        <time>1970-01-01T01:00:00Z</time>
      </trkpt>
      <trkpt lat="63.422941" lon="10.3071005">
        <ele>252.073</ele>
        <time>1970-01-01T01:00:00Z</time>
      </trkpt>
      <trkpt lat="63.42295583" lon="10.30708017">
        <ele>252.225</ele>
        <time>1970-01-01T01:00:00Z</time>
      </trkpt>
      <trkpt lat="63.42296983" lon="10.3070605">
        <ele>252.225</ele>
        <time>1970-01-01T01:00:00Z</time>
      </trkpt>
      <trkpt lat="63.42298183" lon="10.307041">
        <ele>252.377</ele>
        <time>1970-01-01T01:00:00Z</time>
      </trkpt>
      <trkpt lat="63.42299183" lon="10.30702367">
        <ele>252.377</ele>
        <time>1970-01-01T01:00:00Z</time>
      </trkpt>
      <trkpt lat="63.42299967" lon="10.307005">
        <ele>252.53</ele>
        <time>1970-01-01T01:00:00Z</time>
      </trkpt>
      <trkpt lat="63.42300667" lon="10.306985">
        <ele>252.53</ele>
        <time>1970-01-01T01:00:00Z</time>
      </trkpt>
      <trkpt lat="63.423014" lon="10.30696383">
        <ele>252.682</ele>
        <time>1970-01-01T01:00:00Z</time>
      </trkpt>
      <trkpt lat="63.42302167" lon="10.30694283">
        <ele>252.682</ele>
        <time>1970-01-01T01:00:00Z</time>
      </trkpt>
      <trkpt lat="63.42302917" lon="10.30692083">
        <ele>252.835</ele>
        <time>1970-01-01T01:00:00Z</time>
      </trkpt>
      <trkpt lat="63.42303533" lon="10.30689717">
        <ele>252.835</ele>
        <time>1970-01-01T01:00:00Z</time>
      </trkpt>
      <trkpt lat="63.42304383" lon="10.3068745">
        <ele>252.987</ele>
        <time>1970-01-01T01:00:00Z</time>
      </trkpt>
      <trkpt lat="63.423054" lon="10.30685283">
        <ele>252.987</ele>
        <time>1970-01-01T01:00:00Z</time>
      </trkpt>
      <trkpt lat="63.4230665" lon="10.3068345">
        <ele>253.139</ele>
        <time>1970-01-01T01:00:00Z</time>
      </trkpt>
      <trkpt lat="63.42307783" lon="10.306818">
        <ele>253.139</ele>
        <time>1970-01-01T01:00:00Z</time>
      </trkpt>
      <trkpt lat="63.42309" lon="10.306806">
        <ele>253.444</ele>
        <time>1970-01-01T01:00:00Z</time>
      </trkpt>
      <trkpt lat="63.42309967" lon="10.30679383">
        <ele>253.444</ele>
        <time>1970-01-01T01:00:00Z</time>
      </trkpt>
      <trkpt lat="63.42310783" lon="10.306783">
        <ele>253.597</ele>
        <time>1970-01-01T01:00:00Z</time>
      </trkpt>
      <trkpt lat="63.423114" lon="10.30676967">
        <ele>253.597</ele>
        <time>1970-01-01T01:00:00Z</time>
      </trkpt>
      <trkpt lat="63.4231215" lon="10.30675683">
        <ele>253.901</ele>
        <time>1970-01-01T01:00:00Z</time>
      </trkpt>
      <trkpt lat="63.4231295" lon="10.30674267">
        <ele>253.901</ele>
        <time>1970-01-01T01:00:00Z</time>
      </trkpt>
      <trkpt lat="63.42313683" lon="10.30672833">
        <ele>254.206</ele>
        <time>1970-01-01T01:00:00Z</time>
      </trkpt>
      <trkpt lat="63.423144" lon="10.306713">
        <ele>254.206</ele>
        <time>1970-01-01T01:00:00Z</time>
      </trkpt>
      <trkpt lat="63.423151" lon="10.3066965">
        <ele>254.511</ele>
        <time>1970-01-01T01:00:00Z</time>
      </trkpt>
      <trkpt lat="63.42315983" lon="10.30668417">
        <ele>254.511</ele>
        <time>1970-01-01T01:00:00Z</time>
      </trkpt>
      <trkpt lat="63.42316717" lon="10.306671">
        <ele>254.816</ele>
        <time>1970-01-01T01:00:00Z</time>
      </trkpt>
      <trkpt lat="63.423175" lon="10.30665817">
        <ele>254.816</ele>
        <time>1970-01-01T01:00:00Z</time>
      </trkpt>
      <trkpt lat="63.42318217" lon="10.30664017">
        <ele>255.121</ele>
        <time>1970-01-01T01:00:00Z</time>
      </trkpt>
      <trkpt lat="63.42319" lon="10.3066245">
        <ele>255.121</ele>
        <time>1970-01-01T01:00:00Z</time>
      </trkpt>
      <trkpt lat="63.42319867" lon="10.30660833">
        <ele>255.425</ele>
        <time>1970-01-01T01:00:00Z</time>
      </trkpt>
      <trkpt lat="63.423207" lon="10.30659217">
        <ele>255.425</ele>
        <time>1970-01-01T01:00:00Z</time>
      </trkpt>
      <trkpt lat="63.4232155" lon="10.30657583">
        <ele>255.73</ele>
        <time>1970-01-01T01:00:00Z</time>
      </trkpt>
      <trkpt lat="63.42322317" lon="10.30656083">
        <ele>255.73</ele>
        <time>1970-01-01T01:00:00Z</time>
      </trkpt>
      <trkpt lat="63.42323183" lon="10.30654517">
        <ele>255.883</ele>
        <time>1970-01-01T01:00:00Z</time>
      </trkpt>
      <trkpt lat="63.42323983" lon="10.30652767">
        <ele>255.883</ele>
        <time>1970-01-01T01:00:00Z</time>
      </trkpt>
      <trkpt lat="63.423248" lon="10.30651033">
        <ele>256.188</ele>
        <time>1970-01-01T01:00:00Z</time>
      </trkpt>
      <trkpt lat="63.42325483" lon="10.30649533">
        <ele>256.188</ele>
        <time>1970-01-01T01:00:00Z</time>
      </trkpt>
      <trkpt lat="63.423263" lon="10.3064825">
        <ele>256.492</ele>
        <time>1970-01-01T01:00:00Z</time>
      </trkpt>
      <trkpt lat="63.42327167" lon="10.30646933">
        <ele>256.492</ele>
        <time>1970-01-01T01:00:00Z</time>
      </trkpt>
      <trkpt lat="63.4232805" lon="10.30645483">
        <ele>256.797</ele>
        <time>1970-01-01T01:00:00Z</time>
      </trkpt>
      <trkpt lat="63.42328967" lon="10.30644017">
        <ele>256.797</ele>
        <time>1970-01-01T01:00:00Z</time>
      </trkpt>
      <trkpt lat="63.4232995" lon="10.30642517">
        <ele>256.95</ele>
        <time>1970-01-01T01:00:00Z</time>
      </trkpt>
      <trkpt lat="63.423311" lon="10.3064105">
        <ele>256.95</ele>
        <time>1970-01-01T01:00:00Z</time>
      </trkpt>
      <trkpt lat="63.42332167" lon="10.30639433">
        <ele>257.254</ele>
        <time>1970-01-01T01:00:00Z</time>
      </trkpt>
      <trkpt lat="63.42333317" lon="10.30637983">
        <ele>257.254</ele>
        <time>1970-01-01T01:00:00Z</time>
      </trkpt>
      <trkpt lat="63.4233445" lon="10.3063655">
        <ele>257.559</ele>
        <time>1970-01-01T01:00:00Z</time>
      </trkpt>
      <trkpt lat="63.42335567" lon="10.30635">
        <ele>257.559</ele>
        <time>1970-01-01T01:00:00Z</time>
      </trkpt>
      <trkpt lat="63.42336567" lon="10.30633283">
        <ele>257.864</ele>
        <time>1970-01-01T01:00:00Z</time>
      </trkpt>
      <trkpt lat="63.42337617" lon="10.30631517">
        <ele>257.864</ele>
        <time>1970-01-01T01:00:00Z</time>
      </trkpt>
      <trkpt lat="63.42338733" lon="10.30629817">
        <ele>258.016</ele>
        <time>1970-01-01T01:00:00Z</time>
      </trkpt>
      <trkpt lat="63.4233985" lon="10.306282">
        <ele>258.016</ele>
        <time>1970-01-01T01:00:00Z</time>
      </trkpt>
      <trkpt lat="63.42340817" lon="10.306265">
        <ele>258.321</ele>
        <time>1970-01-01T01:00:00Z</time>
      </trkpt>
      <trkpt lat="63.423416" lon="10.30624933">
        <ele>258.321</ele>
        <time>1970-01-01T01:00:00Z</time>
      </trkpt>
      <trkpt lat="63.42342183" lon="10.30623317">
        <ele>258.626</ele>
        <time>1970-01-01T01:00:00Z</time>
      </trkpt>
      <trkpt lat="63.42342617" lon="10.306216">
        <ele>258.626</ele>
        <time>1970-01-01T01:00:00Z</time>
      </trkpt>
      <trkpt lat="63.4234305" lon="10.30619633">
        <ele>258.931</ele>
        <time>1970-01-01T01:00:00Z</time>
      </trkpt>
      <trkpt lat="63.4234355" lon="10.30617217">
        <ele>258.931</ele>
        <time>1970-01-01T01:00:00Z</time>
      </trkpt>
      <trkpt lat="63.423441" lon="10.30615067">
        <ele>259.236</ele>
        <time>1970-01-01T01:00:00Z</time>
      </trkpt>
      <trkpt lat="63.42344667" lon="10.30612833">
        <ele>259.236</ele>
        <time>1970-01-01T01:00:00Z</time>
      </trkpt>
      <trkpt lat="63.42345367" lon="10.3061075">
        <ele>259.388</ele>
        <time>1970-01-01T01:00:00Z</time>
      </trkpt>
      <trkpt lat="63.423462" lon="10.3060825">
        <ele>259.388</ele>
        <time>1970-01-01T01:00:00Z</time>
      </trkpt>
      <trkpt lat="63.42347083" lon="10.306058">
        <ele>259.693</ele>
        <time>1970-01-01T01:00:00Z</time>
      </trkpt>
      <trkpt lat="63.42347833" lon="10.3060345">
        <ele>259.693</ele>
        <time>1970-01-01T01:00:00Z</time>
      </trkpt>
      <trkpt lat="63.42348567" lon="10.30601217">
        <ele>259.998</ele>
        <time>1970-01-01T01:00:00Z</time>
      </trkpt>
      <trkpt lat="63.42349367" lon="10.30599183">
        <ele>259.998</ele>
        <time>1970-01-01T01:00:00Z</time>
      </trkpt>
      <trkpt lat="63.42350233" lon="10.30597083">
        <ele>260.302</ele>
        <time>1970-01-01T01:00:00Z</time>
      </trkpt>
      <trkpt lat="63.42350983" lon="10.3059505">
        <ele>260.302</ele>
        <time>1970-01-01T01:00:00Z</time>
      </trkpt>
      <trkpt lat="63.42351633" lon="10.3059285">
        <ele>260.455</ele>
        <time>1970-01-01T01:00:00Z</time>
      </trkpt>
      <trkpt lat="63.42352317" lon="10.305907">
        <ele>260.455</ele>
        <time>1970-01-01T01:00:00Z</time>
      </trkpt>
      <trkpt lat="63.4235305" lon="10.30588617">
        <ele>260.76</ele>
        <time>1970-01-01T01:00:00Z</time>
      </trkpt>
      <trkpt lat="63.4235385" lon="10.30586583">
        <ele>260.76</ele>
        <time>1970-01-01T01:00:00Z</time>
      </trkpt>
      <trkpt lat="63.42354617" lon="10.30584883">
        <ele>260.912</ele>
        <time>1970-01-01T01:00:00Z</time>
      </trkpt>
      <trkpt lat="63.42355383" lon="10.30583417">
        <ele>260.912</ele>
        <time>1970-01-01T01:00:00Z</time>
      </trkpt>
      <trkpt lat="63.42356183" lon="10.305817">
        <ele>261.217</ele>
        <time>1970-01-01T01:00:00Z</time>
      </trkpt>
      <trkpt lat="63.42356983" lon="10.30579767">
        <ele>261.217</ele>
        <time>1970-01-01T01:00:00Z</time>
      </trkpt>
      <trkpt lat="63.42357883" lon="10.30577767">
        <ele>261.369</ele>
        <time>1970-01-01T01:00:00Z</time>
      </trkpt>
      <trkpt lat="63.42358817" lon="10.30576283">
        <ele>261.369</ele>
        <time>1970-01-01T01:00:00Z</time>
      </trkpt>
      <trkpt lat="63.4235975" lon="10.3057485">
        <ele>261.674</ele>
        <time>1970-01-01T01:00:00Z</time>
      </trkpt>
      <trkpt lat="63.4236055" lon="10.3057325">
        <ele>261.674</ele>
        <time>1970-01-01T01:00:00Z</time>
      </trkpt>
      <trkpt lat="63.423612" lon="10.305714">
        <ele>261.979</ele>
        <time>1970-01-01T01:00:00Z</time>
      </trkpt>
      <trkpt lat="63.4236185" lon="10.30569583">
        <ele>261.979</ele>
        <time>1970-01-01T01:00:00Z</time>
      </trkpt>
      <trkpt lat="63.42362633" lon="10.305679">
        <ele>262.131</ele>
        <time>1970-01-01T01:00:00Z</time>
      </trkpt>
      <trkpt lat="63.42363583" lon="10.305662">
        <ele>262.131</ele>
        <time>1970-01-01T01:00:00Z</time>
      </trkpt>
      <trkpt lat="63.4236455" lon="10.30564483">
        <ele>262.436</ele>
        <time>1970-01-01T01:00:00Z</time>
      </trkpt>
      <trkpt lat="63.42365483" lon="10.305628">
        <ele>262.436</ele>
        <time>1970-01-01T01:00:00Z</time>
      </trkpt>
      <trkpt lat="63.42366317" lon="10.30561033">
        <ele>262.741</ele>
        <time>1970-01-01T01:00:00Z</time>
      </trkpt>
      <trkpt lat="63.42367233" lon="10.30559133">
        <ele>262.741</ele>
        <time>1970-01-01T01:00:00Z</time>
      </trkpt>
      <trkpt lat="63.42368133" lon="10.3055725">
        <ele>263.046</ele>
        <time>1970-01-01T01:00:00Z</time>
      </trkpt>
      <trkpt lat="63.42369083" lon="10.305557">
        <ele>263.046</ele>
        <time>1970-01-01T01:00:00Z</time>
      </trkpt>
      <trkpt lat="63.42369833" lon="10.30554317">
        <ele>263.35</ele>
        <time>1970-01-01T01:00:00Z</time>
      </trkpt>
      <trkpt lat="63.42370567" lon="10.305531">
        <ele>263.35</ele>
        <time>1970-01-01T01:00:00Z</time>
      </trkpt>
      <trkpt lat="63.4237125" lon="10.30551683">
        <ele>263.503</ele>
        <time>1970-01-01T01:00:00Z</time>
      </trkpt>
      <trkpt lat="63.42372017" lon="10.30550383">
        <ele>263.503</ele>
        <time>1970-01-01T01:00:00Z</time>
      </trkpt>
      <trkpt lat="63.42372783" lon="10.3054885">
        <ele>263.808</ele>
        <time>1970-01-01T01:00:00Z</time>
      </trkpt>
      <trkpt lat="63.42373517" lon="10.30547467">
        <ele>263.808</ele>
        <time>1970-01-01T01:00:00Z</time>
      </trkpt>
      <trkpt lat="63.42374217" lon="10.30545883">
        <ele>264.112</ele>
        <time>1970-01-01T01:00:00Z</time>
      </trkpt>
      <trkpt lat="63.42374867" lon="10.30544217">
        <ele>264.112</ele>
        <time>1970-01-01T01:00:00Z</time>
      </trkpt>
      <trkpt lat="63.42375717" lon="10.305425">
        <ele>264.417</ele>
        <time>1970-01-01T01:00:00Z</time>
      </trkpt>
      <trkpt lat="63.42376767" lon="10.30540833">
        <ele>264.417</ele>
        <time>1970-01-01T01:00:00Z</time>
      </trkpt>
      <trkpt lat="63.4237795" lon="10.305394">
        <ele>264.722</ele>
        <time>1970-01-01T01:00:00Z</time>
      </trkpt>
      <trkpt lat="63.42379167" lon="10.30538133">
        <ele>264.722</ele>
        <time>1970-01-01T01:00:00Z</time>
      </trkpt>
      <trkpt lat="63.4238025" lon="10.30537067">
        <ele>265.027</ele>
        <time>1970-01-01T01:00:00Z</time>
      </trkpt>
      <trkpt lat="63.423813" lon="10.30536017">
        <ele>265.027</ele>
        <time>1970-01-01T01:00:00Z</time>
      </trkpt>
      <trkpt lat="63.423823" lon="10.30534917">
        <ele>265.179</ele>
        <time>1970-01-01T01:00:00Z</time>
      </trkpt>
      <trkpt lat="63.4238335" lon="10.305335">
        <ele>265.179</ele>
        <time>1970-01-01T01:00:00Z</time>
      </trkpt>
      <trkpt lat="63.42384433" lon="10.3053205">
        <ele>265.484</ele>
        <time>1970-01-01T01:00:00Z</time>
      </trkpt>
      <trkpt lat="63.42385467" lon="10.30530383">
        <ele>265.484</ele>
        <time>1970-01-01T01:00:00Z</time>
      </trkpt>
      <trkpt lat="63.4238655" lon="10.30528917">
        <ele>265.789</ele>
        <time>1970-01-01T01:00:00Z</time>
      </trkpt>
      <trkpt lat="63.4238765" lon="10.30527317">
        <ele>265.789</ele>
        <time>1970-01-01T01:00:00Z</time>
      </trkpt>
      <trkpt lat="63.4238875" lon="10.3052585">
        <ele>266.094</ele>
        <time>1970-01-01T01:00:00Z</time>
      </trkpt>
      <trkpt lat="63.423898" lon="10.30524433">
        <ele>266.094</ele>
        <time>1970-01-01T01:00:00Z</time>
      </trkpt>
      <trkpt lat="63.42390883" lon="10.30523233">
        <ele>266.398</ele>
        <time>1970-01-01T01:00:00Z</time>
      </trkpt>
      <trkpt lat="63.42392133" lon="10.3052195">
        <ele>266.398</ele>
        <time>1970-01-01T01:00:00Z</time>
      </trkpt>
      <trkpt lat="63.4239345" lon="10.3052035">
        <ele>266.551</ele>
        <time>1970-01-01T01:00:00Z</time>
      </trkpt>
      <trkpt lat="63.42394783" lon="10.30518383">
        <ele>266.551</ele>
        <time>1970-01-01T01:00:00Z</time>
      </trkpt>
      <trkpt lat="63.42396017" lon="10.3051655">
        <ele>266.856</ele>
        <time>1970-01-01T01:00:00Z</time>
      </trkpt>
      <trkpt lat="63.423972" lon="10.305149">
        <ele>266.856</ele>
        <time>1970-01-01T01:00:00Z</time>
      </trkpt>
      <trkpt lat="63.42398367" lon="10.30513317">
        <ele>267.008</ele>
        <time>1970-01-01T01:00:00Z</time>
      </trkpt>
      <trkpt lat="63.42399467" lon="10.30511583">
        <ele>267.008</ele>
        <time>1970-01-01T01:00:00Z</time>
      </trkpt>
      <trkpt lat="63.42400633" lon="10.30509817">
        <ele>267.313</ele>
        <time>1970-01-01T01:00:00Z</time>
      </trkpt>
      <trkpt lat="63.42401717" lon="10.30508117">
        <ele>267.313</ele>
        <time>1970-01-01T01:00:00Z</time>
      </trkpt>
      <trkpt lat="63.42402767" lon="10.30506383">
        <ele>267.465</ele>
        <time>1970-01-01T01:00:00Z</time>
      </trkpt>
      <trkpt lat="63.42403717" lon="10.30504633">
        <ele>267.465</ele>
        <time>1970-01-01T01:00:00Z</time>
      </trkpt>
      <trkpt lat="63.424047" lon="10.305029">
        <ele>267.618</ele>
        <time>1970-01-01T01:00:00Z</time>
      </trkpt>
      <trkpt lat="63.424057" lon="10.3050125">
        <ele>267.618</ele>
        <time>1970-01-01T01:00:00Z</time>
      </trkpt>
      <trkpt lat="63.42406633" lon="10.30499367">
        <ele>267.77</ele>
        <time>1970-01-01T01:00:00Z</time>
      </trkpt>
      <trkpt lat="63.42407483" lon="10.3049725">
        <ele>267.77</ele>
        <time>1970-01-01T01:00:00Z</time>
      </trkpt>
      <trkpt lat="63.42408283" lon="10.30494983">
        <ele>267.922</ele>
        <time>1970-01-01T01:00:00Z</time>
      </trkpt>
      <trkpt lat="63.42408983" lon="10.30492617">
        <ele>267.922</ele>
        <time>1970-01-01T01:00:00Z</time>
      </trkpt>
      <trkpt lat="63.42409683" lon="10.304902">
        <ele>268.075</ele>
        <time>1970-01-01T01:00:00Z</time>
      </trkpt>
      <trkpt lat="63.42410433" lon="10.30487667">
        <ele>268.075</ele>
        <time>1970-01-01T01:00:00Z</time>
      </trkpt>
      <trkpt lat="63.42411267" lon="10.3048535">
        <ele>268.075</ele>
        <time>1970-01-01T01:00:00Z</time>
      </trkpt>
      <trkpt lat="63.42412133" lon="10.30483183">
        <ele>268.075</ele>
        <time>1970-01-01T01:00:00Z</time>
      </trkpt>
      <trkpt lat="63.42412967" lon="10.30481183">
        <ele>268.227</ele>
        <time>1970-01-01T01:00:00Z</time>
      </trkpt>
      <trkpt lat="63.42413767" lon="10.30479167">
        <ele>268.227</ele>
        <time>1970-01-01T01:00:00Z</time>
      </trkpt>
      <trkpt lat="63.42414517" lon="10.30476933">
        <ele>268.38</ele>
        <time>1970-01-01T01:00:00Z</time>
      </trkpt>
      <trkpt lat="63.42415183" lon="10.30474317">
        <ele>268.38</ele>
        <time>1970-01-01T01:00:00Z</time>
      </trkpt>
      <trkpt lat="63.42415833" lon="10.30471333">
        <ele>268.38</ele>
        <time>1970-01-01T01:00:00Z</time>
      </trkpt>
      <trkpt lat="63.42416483" lon="10.304683">
        <ele>268.38</ele>
        <time>1970-01-01T01:00:00Z</time>
      </trkpt>
      <trkpt lat="63.42416983" lon="10.30465383">
        <ele>268.532</ele>
        <time>1970-01-01T01:00:00Z</time>
      </trkpt>
      <trkpt lat="63.4241735" lon="10.3046265">
        <ele>268.532</ele>
        <time>1970-01-01T01:00:00Z</time>
      </trkpt>
      <trkpt lat="63.42417633" lon="10.30460017">
        <ele>268.532</ele>
        <time>1970-01-01T01:00:00Z</time>
      </trkpt>
      <trkpt lat="63.42417967" lon="10.304574">
        <ele>268.532</ele>
        <time>1970-01-01T01:00:00Z</time>
      </trkpt>
      <trkpt lat="63.42418367" lon="10.304547">
        <ele>268.532</ele>
        <time>1970-01-01T01:00:00Z</time>
      </trkpt>
      <trkpt lat="63.42418817" lon="10.30451917">
        <ele>268.532</ele>
        <time>1970-01-01T01:00:00Z</time>
      </trkpt>
      <trkpt lat="63.4241935" lon="10.30449067">
        <ele>268.684</ele>
        <time>1970-01-01T01:00:00Z</time>
      </trkpt>
      <trkpt lat="63.424199" lon="10.30446167">
        <ele>268.684</ele>
        <time>1970-01-01T01:00:00Z</time>
      </trkpt>
      <trkpt lat="63.42420417" lon="10.30443317">
        <ele>268.684</ele>
        <time>1970-01-01T01:00:00Z</time>
      </trkpt>
      <trkpt lat="63.42420867" lon="10.3044055">
        <ele>268.684</ele>
        <time>1970-01-01T01:00:00Z</time>
      </trkpt>
      <trkpt lat="63.42421233" lon="10.30438083">
        <ele>268.684</ele>
        <time>1970-01-01T01:00:00Z</time>
      </trkpt>
      <trkpt lat="63.42421533" lon="10.304355">
        <ele>268.684</ele>
        <time>1970-01-01T01:00:00Z</time>
      </trkpt>
      <trkpt lat="63.4242205" lon="10.30432633">
        <ele>268.837</ele>
        <time>1970-01-01T01:00:00Z</time>
      </trkpt>
      <trkpt lat="63.42422667" lon="10.30429617">
        <ele>268.837</ele>
        <time>1970-01-01T01:00:00Z</time>
      </trkpt>
      <trkpt lat="63.42423317" lon="10.30426717">
        <ele>268.837</ele>
        <time>1970-01-01T01:00:00Z</time>
      </trkpt>
      <trkpt lat="63.42423783" lon="10.30424033">
        <ele>268.837</ele>
        <time>1970-01-01T01:00:00Z</time>
      </trkpt>
      <trkpt lat="63.42424167" lon="10.30421233">
        <ele>268.989</ele>
        <time>1970-01-01T01:00:00Z</time>
      </trkpt>
      <trkpt lat="63.424245" lon="10.30418483">
        <ele>268.989</ele>
        <time>1970-01-01T01:00:00Z</time>
      </trkpt>
      <trkpt lat="63.424248" lon="10.30415783">
        <ele>269.142</ele>
        <time>1970-01-01T01:00:00Z</time>
      </trkpt>
      <trkpt lat="63.4242505" lon="10.30413133">
        <ele>269.142</ele>
        <time>1970-01-01T01:00:00Z</time>
      </trkpt>
      <trkpt lat="63.424253" lon="10.3041045">
        <ele>269.294</ele>
        <time>1970-01-01T01:00:00Z</time>
      </trkpt>
      <trkpt lat="63.42425517" lon="10.3040795">
        <ele>269.294</ele>
        <time>1970-01-01T01:00:00Z</time>
      </trkpt>
      <trkpt lat="63.424257" lon="10.304056">
        <ele>269.294</ele>
        <time>1970-01-01T01:00:00Z</time>
      </trkpt>
      <trkpt lat="63.424259" lon="10.304032">
        <ele>269.294</ele>
        <time>1970-01-01T01:00:00Z</time>
      </trkpt>
      <trkpt lat="63.42426067" lon="10.304007">
        <ele>269.446</ele>
        <time>1970-01-01T01:00:00Z</time>
      </trkpt>
      <trkpt lat="63.42426317" lon="10.30398">
        <ele>269.446</ele>
        <time>1970-01-01T01:00:00Z</time>
      </trkpt>
      <trkpt lat="63.42426567" lon="10.30395267">
        <ele>269.599</ele>
        <time>1970-01-01T01:00:00Z</time>
      </trkpt>
      <trkpt lat="63.4242685" lon="10.30392467">
        <ele>269.599</ele>
        <time>1970-01-01T01:00:00Z</time>
      </trkpt>
      <trkpt lat="63.4242715" lon="10.30389817">
        <ele>269.599</ele>
        <time>1970-01-01T01:00:00Z</time>
      </trkpt>
      <trkpt lat="63.424275" lon="10.30387133">
        <ele>269.599</ele>
        <time>1970-01-01T01:00:00Z</time>
      </trkpt>
      <trkpt lat="63.42427933" lon="10.303843">
        <ele>269.751</ele>
        <time>1970-01-01T01:00:00Z</time>
      </trkpt>
      <trkpt lat="63.424283" lon="10.3038145">
        <ele>269.751</ele>
        <time>1970-01-01T01:00:00Z</time>
      </trkpt>
      <trkpt lat="63.42428667" lon="10.30378617">
        <ele>269.904</ele>
        <time>1970-01-01T01:00:00Z</time>
      </trkpt>
      <trkpt lat="63.42429033" lon="10.30375967">
        <ele>269.904</ele>
        <time>1970-01-01T01:00:00Z</time>
      </trkpt>
      <trkpt lat="63.4242945" lon="10.30373183">
        <ele>269.904</ele>
        <time>1970-01-01T01:00:00Z</time>
      </trkpt>
      <trkpt lat="63.42429867" lon="10.30370167">
        <ele>269.904</ele>
        <time>1970-01-01T01:00:00Z</time>
      </trkpt>
      <trkpt lat="63.4243025" lon="10.30366983">
        <ele>270.056</ele>
        <time>1970-01-01T01:00:00Z</time>
      </trkpt>
      <trkpt lat="63.42430517" lon="10.30364">
        <ele>270.056</ele>
        <time>1970-01-01T01:00:00Z</time>
      </trkpt>
      <trkpt lat="63.42430867" lon="10.3036145">
        <ele>270.208</ele>
        <time>1970-01-01T01:00:00Z</time>
      </trkpt>
      <trkpt lat="63.42431233" lon="10.3035885">
        <ele>270.208</ele>
        <time>1970-01-01T01:00:00Z</time>
      </trkpt>
      <trkpt lat="63.424317" lon="10.30356183">
        <ele>270.208</ele>
        <time>1970-01-01T01:00:00Z</time>
      </trkpt>
      <trkpt lat="63.42432067" lon="10.30353167">
        <ele>270.208</ele>
        <time>1970-01-01T01:00:00Z</time>
      </trkpt>
      <trkpt lat="63.42432333" lon="10.30350183">
        <ele>270.361</ele>
        <time>1970-01-01T01:00:00Z</time>
      </trkpt>
      <trkpt lat="63.4243265" lon="10.30347233">
        <ele>270.361</ele>
        <time>1970-01-01T01:00:00Z</time>
      </trkpt>
      <trkpt lat="63.42432967" lon="10.30344483">
        <ele>270.513</ele>
        <time>1970-01-01T01:00:00Z</time>
      </trkpt>
      <trkpt lat="63.42433333" lon="10.30341883">
        <ele>270.513</ele>
        <time>1970-01-01T01:00:00Z</time>
      </trkpt>
      <trkpt lat="63.42433783" lon="10.30339283">
        <ele>270.666</ele>
        <time>1970-01-01T01:00:00Z</time>
      </trkpt>
      <trkpt lat="63.42434317" lon="10.30336567">
        <ele>270.666</ele>
        <time>1970-01-01T01:00:00Z</time>
      </trkpt>
      <trkpt lat="63.42434883" lon="10.3033395">
        <ele>270.818</ele>
        <time>1970-01-01T01:00:00Z</time>
      </trkpt>
      <trkpt lat="63.42435417" lon="10.30331483">
        <ele>270.818</ele>
        <time>1970-01-01T01:00:00Z</time>
      </trkpt>
      <trkpt lat="63.42435967" lon="10.30329117">
        <ele>270.97</ele>
        <time>1970-01-01T01:00:00Z</time>
      </trkpt>
      <trkpt lat="63.42436533" lon="10.30326683">
        <ele>270.97</ele>
        <time>1970-01-01T01:00:00Z</time>
      </trkpt>
      <trkpt lat="63.42437117" lon="10.3032405">
        <ele>271.123</ele>
        <time>1970-01-01T01:00:00Z</time>
      </trkpt>
      <trkpt lat="63.42437783" lon="10.30321583">
        <ele>271.123</ele>
        <time>1970-01-01T01:00:00Z</time>
      </trkpt>
      <trkpt lat="63.42438533" lon="10.30319367">
        <ele>271.275</ele>
        <time>1970-01-01T01:00:00Z</time>
      </trkpt>
      <trkpt lat="63.42439233" lon="10.303174">
        <ele>271.275</ele>
        <time>1970-01-01T01:00:00Z</time>
      </trkpt>
      <trkpt lat="63.4243985" lon="10.3031545">
        <ele>271.428</ele>
        <time>1970-01-01T01:00:00Z</time>
      </trkpt>
      <trkpt lat="63.424404" lon="10.30313383">
        <ele>271.428</ele>
        <time>1970-01-01T01:00:00Z</time>
      </trkpt>
      <trkpt lat="63.424411" lon="10.303111">
        <ele>271.732</ele>
        <time>1970-01-01T01:00:00Z</time>
      </trkpt>
      <trkpt lat="63.42441933" lon="10.30308767">
        <ele>271.732</ele>
        <time>1970-01-01T01:00:00Z</time>
      </trkpt>
      <trkpt lat="63.4244285" lon="10.303064">
        <ele>271.885</ele>
        <time>1970-01-01T01:00:00Z</time>
      </trkpt>
      <trkpt lat="63.42443733" lon="10.30304217">
        <ele>271.885</ele>
        <time>1970-01-01T01:00:00Z</time>
      </trkpt>
      <trkpt lat="63.42444567" lon="10.30301967">
        <ele>272.037</ele>
        <time>1970-01-01T01:00:00Z</time>
      </trkpt>
      <trkpt lat="63.4244545" lon="10.30299867">
        <ele>272.037</ele>
        <time>1970-01-01T01:00:00Z</time>
      </trkpt>
      <trkpt lat="63.42446317" lon="10.30297917">
        <ele>272.19</ele>
        <time>1970-01-01T01:00:00Z</time>
      </trkpt>
      <trkpt lat="63.42447233" lon="10.30296217">
        <ele>272.19</ele>
        <time>1970-01-01T01:00:00Z</time>
      </trkpt>
      <trkpt lat="63.42448133" lon="10.3029455">
        <ele>272.495</ele>
        <time>1970-01-01T01:00:00Z</time>
      </trkpt>
      <trkpt lat="63.42448983" lon="10.30292833">
        <ele>272.495</ele>
        <time>1970-01-01T01:00:00Z</time>
      </trkpt>
      <trkpt lat="63.424498" lon="10.3029095">
        <ele>272.647</ele>
        <time>1970-01-01T01:00:00Z</time>
      </trkpt>
      <trkpt lat="63.42450567" lon="10.3028885">
        <ele>272.647</ele>
        <time>1970-01-01T01:00:00Z</time>
      </trkpt>
      <trkpt lat="63.4245135" lon="10.30286533">
        <ele>272.952</ele>
        <time>1970-01-01T01:00:00Z</time>
      </trkpt>
      <trkpt lat="63.4245195" lon="10.30284467">
        <ele>272.952</ele>
        <time>1970-01-01T01:00:00Z</time>
      </trkpt>
      <trkpt lat="63.424525" lon="10.30282533">
        <ele>273.104</ele>
        <time>1970-01-01T01:00:00Z</time>
      </trkpt>
      <trkpt lat="63.4245305" lon="10.302807">
        <ele>273.104</ele>
        <time>1970-01-01T01:00:00Z</time>
      </trkpt>
      <trkpt lat="63.4245365" lon="10.3027855">
        <ele>273.409</ele>
        <time>1970-01-01T01:00:00Z</time>
      </trkpt>
      <trkpt lat="63.42454283" lon="10.3027645">
        <ele>273.409</ele>
        <time>1970-01-01T01:00:00Z</time>
      </trkpt>
      <trkpt lat="63.4245495" lon="10.30274383">
        <ele>273.561</ele>
        <time>1970-01-01T01:00:00Z</time>
      </trkpt>
      <trkpt lat="63.42455733" lon="10.30272333">
        <ele>273.561</ele>
        <time>1970-01-01T01:00:00Z</time>
      </trkpt>
      <trkpt lat="63.42456567" lon="10.30270033">
        <ele>273.714</ele>
        <time>1970-01-01T01:00:00Z</time>
      </trkpt>
      <trkpt lat="63.42457367" lon="10.30267617">
        <ele>273.714</ele>
        <time>1970-01-01T01:00:00Z</time>
      </trkpt>
      <trkpt lat="63.424582" lon="10.3026525">
        <ele>273.866</ele>
        <time>1970-01-01T01:00:00Z</time>
      </trkpt>
      <trkpt lat="63.4245905" lon="10.30262867">
        <ele>273.866</ele>
        <time>1970-01-01T01:00:00Z</time>
      </trkpt>
      <trkpt lat="63.42460017" lon="10.30260567">
        <ele>274.171</ele>
        <time>1970-01-01T01:00:00Z</time>
      </trkpt>
      <trkpt lat="63.42461067" lon="10.3025835">
        <ele>274.171</ele>
        <time>1970-01-01T01:00:00Z</time>
      </trkpt>
      <trkpt lat="63.42462117" lon="10.302564">
        <ele>274.323</ele>
        <time>1970-01-01T01:00:00Z</time>
      </trkpt>
      <trkpt lat="63.4246315" lon="10.3025455">
        <ele>274.323</ele>
        <time>1970-01-01T01:00:00Z</time>
      </trkpt>
      <trkpt lat="63.424642" lon="10.30252833">
        <ele>274.476</ele>
        <time>1970-01-01T01:00:00Z</time>
      </trkpt>
      <trkpt lat="63.424653" lon="10.30251067">
        <ele>274.476</ele>
        <time>1970-01-01T01:00:00Z</time>
      </trkpt>
      <trkpt lat="63.42466433" lon="10.30249183">
        <ele>274.628</ele>
        <time>1970-01-01T01:00:00Z</time>
      </trkpt>
      <trkpt lat="63.42467533" lon="10.30247333">
        <ele>274.628</ele>
        <time>1970-01-01T01:00:00Z</time>
      </trkpt>
      <trkpt lat="63.42468617" lon="10.30245417">
        <ele>274.781</ele>
        <time>1970-01-01T01:00:00Z</time>
      </trkpt>
      <trkpt lat="63.42469633" lon="10.302434">
        <ele>274.781</ele>
        <time>1970-01-01T01:00:00Z</time>
      </trkpt>
      <trkpt lat="63.42470567" lon="10.30241117">
        <ele>274.933</ele>
        <time>1970-01-01T01:00:00Z</time>
      </trkpt>
      <trkpt lat="63.42471483" lon="10.302386">
        <ele>274.933</ele>
        <time>1970-01-01T01:00:00Z</time>
      </trkpt>
      <trkpt lat="63.4247235" lon="10.3023615">
        <ele>275.238</ele>
        <time>1970-01-01T01:00:00Z</time>
      </trkpt>
      <trkpt lat="63.42473233" lon="10.30233883">
        <ele>275.238</ele>
        <time>1970-01-01T01:00:00Z</time>
      </trkpt>
      <trkpt lat="63.42474117" lon="10.30231933">
        <ele>275.39</ele>
        <time>1970-01-01T01:00:00Z</time>
      </trkpt>
      <trkpt lat="63.42475017" lon="10.30229817">
        <ele>275.39</ele>
        <time>1970-01-01T01:00:00Z</time>
      </trkpt>
      <trkpt lat="63.42475867" lon="10.30227417">
        <ele>275.543</ele>
        <time>1970-01-01T01:00:00Z</time>
      </trkpt>
      <trkpt lat="63.42476633" lon="10.30224833">
        <ele>275.543</ele>
        <time>1970-01-01T01:00:00Z</time>
      </trkpt>
      <trkpt lat="63.42477383" lon="10.302225">
        <ele>275.695</ele>
        <time>1970-01-01T01:00:00Z</time>
      </trkpt>
      <trkpt lat="63.42478133" lon="10.302204">
        <ele>275.695</ele>
        <time>1970-01-01T01:00:00Z</time>
      </trkpt>
      <trkpt lat="63.42478883" lon="10.30218333">
        <ele>275.847</ele>
        <time>1970-01-01T01:00:00Z</time>
      </trkpt>
      <trkpt lat="63.4247965" lon="10.30216183">
        <ele>275.847</ele>
        <time>1970-01-01T01:00:00Z</time>
      </trkpt>
      <trkpt lat="63.42480433" lon="10.30213917">
        <ele>276</ele>
        <time>1970-01-01T01:00:00Z</time>
      </trkpt>
      <trkpt lat="63.42481217" lon="10.30211683">
        <ele>276</ele>
        <time>1970-01-01T01:00:00Z</time>
      </trkpt>
      <trkpt lat="63.42481917" lon="10.30209683">
        <ele>276.152</ele>
        <time>1970-01-01T01:00:00Z</time>
      </trkpt>
      <trkpt lat="63.4248255" lon="10.3020795">
        <ele>276.152</ele>
        <time>1970-01-01T01:00:00Z</time>
      </trkpt>
      <trkpt lat="63.42483167" lon="10.30206483">
        <ele>276.305</ele>
        <time>1970-01-01T01:00:00Z</time>
      </trkpt>
      <trkpt lat="63.42483767" lon="10.30205383">
        <ele>276.305</ele>
        <time>1970-01-01T01:00:00Z</time>
      </trkpt>
      <trkpt lat="63.424842" lon="10.302048">
        <ele>276.305</ele>
        <time>1970-01-01T01:00:00Z</time>
      </trkpt>
      <trkpt lat="63.42484483" lon="10.3020445">
        <ele>276.305</ele>
        <time>1970-01-01T01:00:00Z</time>
      </trkpt>
      <trkpt lat="63.4248465" lon="10.30204167">
        <ele>276.457</ele>
        <time>1970-01-01T01:00:00Z</time>
      </trkpt>
      <trkpt lat="63.42484767" lon="10.302039">
        <ele>276.457</ele>
        <time>1970-01-01T01:00:00Z</time>
      </trkpt>
      <trkpt lat="63.42484667" lon="10.30203617">
        <ele>276.609</ele>
        <time>1970-01-01T01:00:00Z</time>
      </trkpt>
      <trkpt lat="63.42484533" lon="10.30203417">
        <ele>276.609</ele>
        <time>1970-01-01T01:00:00Z</time>
      </trkpt>
      <trkpt lat="63.42484383" lon="10.30203217">
        <ele>276.762</ele>
        <time>1970-01-01T01:00:00Z</time>
      </trkpt>
      <trkpt lat="63.42484367" lon="10.30202867">
        <ele>276.762</ele>
        <time>1970-01-01T01:00:00Z</time>
      </trkpt>
      <trkpt lat="63.42484467" lon="10.30202067">
        <ele>276.914</ele>
        <time>1970-01-01T01:00:00Z</time>
      </trkpt>
      <trkpt lat="63.42484733" lon="10.302007">
        <ele>276.914</ele>
        <time>1970-01-01T01:00:00Z</time>
      </trkpt>
      <trkpt lat="63.42485183" lon="10.30199183">
        <ele>277.067</ele>
        <time>1970-01-01T01:00:00Z</time>
      </trkpt>
      <trkpt lat="63.42485583" lon="10.30197667">
        <ele>277.067</ele>
        <time>1970-01-01T01:00:00Z</time>
      </trkpt>
      <trkpt lat="63.42486067" lon="10.30196367">
        <ele>277.219</ele>
        <time>1970-01-01T01:00:00Z</time>
      </trkpt>
      <trkpt lat="63.42486567" lon="10.3019515">
        <ele>277.219</ele>
        <time>1970-01-01T01:00:00Z</time>
      </trkpt>
      <trkpt lat="63.424872" lon="10.30194167">
        <ele>277.371</ele>
        <time>1970-01-01T01:00:00Z</time>
      </trkpt>
      <trkpt lat="63.424879" lon="10.30193083">
        <ele>277.371</ele>
        <time>1970-01-01T01:00:00Z</time>
      </trkpt>
      <trkpt lat="63.42488667" lon="10.301918">
        <ele>277.524</ele>
        <time>1970-01-01T01:00:00Z</time>
      </trkpt>
      <trkpt lat="63.4248955" lon="10.30190317">
        <ele>277.524</ele>
        <time>1970-01-01T01:00:00Z</time>
      </trkpt>
      <trkpt lat="63.42490417" lon="10.30188917">
        <ele>277.676</ele>
        <time>1970-01-01T01:00:00Z</time>
      </trkpt>
      <trkpt lat="63.424913" lon="10.30187783">
        <ele>277.676</ele>
        <time>1970-01-01T01:00:00Z</time>
      </trkpt>
      <trkpt lat="63.42492133" lon="10.3018655">
        <ele>277.676</ele>
        <time>1970-01-01T01:00:00Z</time>
      </trkpt>
      <trkpt lat="63.42492917" lon="10.30185183">
        <ele>277.676</ele>
        <time>1970-01-01T01:00:00Z</time>
      </trkpt>
      <trkpt lat="63.424937" lon="10.3018355">
        <ele>277.829</ele>
        <time>1970-01-01T01:00:00Z</time>
      </trkpt>
      <trkpt lat="63.42494533" lon="10.301819">
        <ele>277.829</ele>
        <time>1970-01-01T01:00:00Z</time>
      </trkpt>
      <trkpt lat="63.42495433" lon="10.30180217">
        <ele>277.981</ele>
        <time>1970-01-01T01:00:00Z</time>
      </trkpt>
      <trkpt lat="63.42496317" lon="10.301786">
        <ele>277.981</ele>
        <time>1970-01-01T01:00:00Z</time>
      </trkpt>
      <trkpt lat="63.42497167" lon="10.30177067">
        <ele>277.981</ele>
        <time>1970-01-01T01:00:00Z</time>
      </trkpt>
      <trkpt lat="63.42498" lon="10.301755">
        <ele>277.981</ele>
        <time>1970-01-01T01:00:00Z</time>
      </trkpt>
      <trkpt lat="63.424989" lon="10.30173817">
        <ele>278.133</ele>
        <time>1970-01-01T01:00:00Z</time>
      </trkpt>
      <trkpt lat="63.4249985" lon="10.30172217">
        <ele>278.133</ele>
        <time>1970-01-01T01:00:00Z</time>
      </trkpt>
      <trkpt lat="63.42500833" lon="10.3017055">
        <ele>278.286</ele>
        <time>1970-01-01T01:00:00Z</time>
      </trkpt>
      <trkpt lat="63.42501817" lon="10.301687">
        <ele>278.286</ele>
        <time>1970-01-01T01:00:00Z</time>
      </trkpt>
      <trkpt lat="63.42502833" lon="10.30166617">
        <ele>278.286</ele>
        <time>1970-01-01T01:00:00Z</time>
      </trkpt>
      <trkpt lat="63.42503883" lon="10.30164633">
        <ele>278.286</ele>
        <time>1970-01-01T01:00:00Z</time>
      </trkpt>
      <trkpt lat="63.425049" lon="10.30162983">
        <ele>278.438</ele>
        <time>1970-01-01T01:00:00Z</time>
      </trkpt>
      <trkpt lat="63.42505867" lon="10.3016145">
        <ele>278.438</ele>
        <time>1970-01-01T01:00:00Z</time>
      </trkpt>
      <trkpt lat="63.42506783" lon="10.30159733">
        <ele>278.438</ele>
        <time>1970-01-01T01:00:00Z</time>
      </trkpt>
      <trkpt lat="63.425077" lon="10.3015815">
        <ele>278.438</ele>
        <time>1970-01-01T01:00:00Z</time>
      </trkpt>
      <trkpt lat="63.42508667" lon="10.301567">
        <ele>278.591</ele>
        <time>1970-01-01T01:00:00Z</time>
      </trkpt>
      <trkpt lat="63.42509633" lon="10.30155283">
        <ele>278.591</ele>
        <time>1970-01-01T01:00:00Z</time>
      </trkpt>
      <trkpt lat="63.4251055" lon="10.301537">
        <ele>278.591</ele>
        <time>1970-01-01T01:00:00Z</time>
      </trkpt>
      <trkpt lat="63.425114" lon="10.30152133">
        <ele>278.591</ele>
        <time>1970-01-01T01:00:00Z</time>
      </trkpt>
      <trkpt lat="63.4251225" lon="10.30150683">
        <ele>278.743</ele>
        <time>1970-01-01T01:00:00Z</time>
      </trkpt>
      <trkpt lat="63.4251315" lon="10.30149333">
        <ele>278.743</ele>
        <time>1970-01-01T01:00:00Z</time>
      </trkpt>
      <trkpt lat="63.42514067" lon="10.3014805">
        <ele>278.743</ele>
        <time>1970-01-01T01:00:00Z</time>
      </trkpt>
      <trkpt lat="63.42515" lon="10.3014675">
        <ele>278.743</ele>
        <time>1970-01-01T01:00:00Z</time>
      </trkpt>
      <trkpt lat="63.425159" lon="10.30145583">
        <ele>278.743</ele>
        <time>1970-01-01T01:00:00Z</time>
      </trkpt>
      <trkpt lat="63.4251685" lon="10.30144217">
        <ele>278.743</ele>
        <time>1970-01-01T01:00:00Z</time>
      </trkpt>
      <trkpt lat="63.42517833" lon="10.3014285">
        <ele>278.895</ele>
        <time>1970-01-01T01:00:00Z</time>
      </trkpt>
      <trkpt lat="63.42518833" lon="10.3014125">
        <ele>278.895</ele>
        <time>1970-01-01T01:00:00Z</time>
      </trkpt>
      <trkpt lat="63.42519817" lon="10.3014005">
        <ele>278.895</ele>
        <time>1970-01-01T01:00:00Z</time>
      </trkpt>
      <trkpt lat="63.42520833" lon="10.30138833">
        <ele>278.895</ele>
        <time>1970-01-01T01:00:00Z</time>
      </trkpt>
      <trkpt lat="63.42521817" lon="10.30137567">
        <ele>279.048</ele>
        <time>1970-01-01T01:00:00Z</time>
      </trkpt>
      <trkpt lat="63.42522783" lon="10.30135783">
        <ele>279.048</ele>
        <time>1970-01-01T01:00:00Z</time>
      </trkpt>
      <trkpt lat="63.425237" lon="10.301338">
        <ele>279.048</ele>
        <time>1970-01-01T01:00:00Z</time>
      </trkpt>
      <trkpt lat="63.42524567" lon="10.30131717">
        <ele>279.048</ele>
        <time>1970-01-01T01:00:00Z</time>
      </trkpt>
      <trkpt lat="63.4252535" lon="10.301296">
        <ele>279.2</ele>
        <time>1970-01-01T01:00:00Z</time>
      </trkpt>
      <trkpt lat="63.4252615" lon="10.3012745">
        <ele>279.2</ele>
        <time>1970-01-01T01:00:00Z</time>
      </trkpt>
      <trkpt lat="63.42526983" lon="10.30125217">
        <ele>279.2</ele>
        <time>1970-01-01T01:00:00Z</time>
      </trkpt>
      <trkpt lat="63.42527817" lon="10.30122933">
        <ele>279.2</ele>
        <time>1970-01-01T01:00:00Z</time>
      </trkpt>
      <trkpt lat="63.42528633" lon="10.30120783">
        <ele>279.353</ele>
        <time>1970-01-01T01:00:00Z</time>
      </trkpt>
      <trkpt lat="63.4252945" lon="10.301186">
        <ele>279.353</ele>
        <time>1970-01-01T01:00:00Z</time>
      </trkpt>
      <trkpt lat="63.42530417" lon="10.30116483">
        <ele>279.505</ele>
        <time>1970-01-01T01:00:00Z</time>
      </trkpt>
      <trkpt lat="63.42531433" lon="10.30114317">
        <ele>279.505</ele>
        <time>1970-01-01T01:00:00Z</time>
      </trkpt>
      <trkpt lat="63.42532383" lon="10.30112333">
        <ele>279.505</ele>
        <time>1970-01-01T01:00:00Z</time>
      </trkpt>
      <trkpt lat="63.42533283" lon="10.30110267">
        <ele>279.505</ele>
        <time>1970-01-01T01:00:00Z</time>
      </trkpt>
      <trkpt lat="63.425341" lon="10.30108183">
        <ele>279.657</ele>
        <time>1970-01-01T01:00:00Z</time>
      </trkpt>
      <trkpt lat="63.42534983" lon="10.301061">
        <ele>279.657</ele>
        <time>1970-01-01T01:00:00Z</time>
      </trkpt>
      <trkpt lat="63.42535717" lon="10.30104483">
        <ele>279.81</ele>
        <time>1970-01-01T01:00:00Z</time>
      </trkpt>
      <trkpt lat="63.42536483" lon="10.3010285">
        <ele>279.81</ele>
        <time>1970-01-01T01:00:00Z</time>
      </trkpt>
      <trkpt lat="63.425371" lon="10.301011">
        <ele>279.962</ele>
        <time>1970-01-01T01:00:00Z</time>
      </trkpt>
      <trkpt lat="63.42538067" lon="10.30098683">
        <ele>279.962</ele>
        <time>1970-01-01T01:00:00Z</time>
      </trkpt>
      <trkpt lat="63.425392" lon="10.30096417">
        <ele>280.115</ele>
        <time>1970-01-01T01:00:00Z</time>
      </trkpt>
      <trkpt lat="63.42540467" lon="10.30094183">
        <ele>280.115</ele>
        <time>1970-01-01T01:00:00Z</time>
      </trkpt>
      <trkpt lat="63.42541617" lon="10.30092333">
        <ele>280.267</ele>
        <time>1970-01-01T01:00:00Z</time>
      </trkpt>
      <trkpt lat="63.42542783" lon="10.3009035">
        <ele>280.267</ele>
        <time>1970-01-01T01:00:00Z</time>
      </trkpt>
      <trkpt lat="63.4254405" lon="10.30088283">
        <ele>280.419</ele>
        <time>1970-01-01T01:00:00Z</time>
      </trkpt>
      <trkpt lat="63.425453" lon="10.3008595">
        <ele>280.419</ele>
        <time>1970-01-01T01:00:00Z</time>
      </trkpt>
      <trkpt lat="63.42546467" lon="10.300835">
        <ele>280.724</ele>
        <time>1970-01-01T01:00:00Z</time>
      </trkpt>
      <trkpt lat="63.42547567" lon="10.3008095">
        <ele>280.724</ele>
        <time>1970-01-01T01:00:00Z</time>
      </trkpt>
      <trkpt lat="63.42548617" lon="10.30078383">
        <ele>280.877</ele>
        <time>1970-01-01T01:00:00Z</time>
      </trkpt>
      <trkpt lat="63.42549517" lon="10.3007595">
        <ele>280.877</ele>
        <time>1970-01-01T01:00:00Z</time>
      </trkpt>
      <trkpt lat="63.42550383" lon="10.30073567">
        <ele>281.181</ele>
        <time>1970-01-01T01:00:00Z</time>
      </trkpt>
      <trkpt lat="63.42551167" lon="10.300714">
        <ele>281.181</ele>
        <time>1970-01-01T01:00:00Z</time>
      </trkpt>
      <trkpt lat="63.42551933" lon="10.30069217">
        <ele>281.486</ele>
        <time>1970-01-01T01:00:00Z</time>
      </trkpt>
      <trkpt lat="63.42552767" lon="10.30066917">
        <ele>281.486</ele>
        <time>1970-01-01T01:00:00Z</time>
      </trkpt>
      <trkpt lat="63.42553467" lon="10.300641">
        <ele>281.639</ele>
        <time>1970-01-01T01:00:00Z</time>
      </trkpt>
      <trkpt lat="63.42554267" lon="10.30061117">
        <ele>281.639</ele>
        <time>1970-01-01T01:00:00Z</time>
      </trkpt>
      <trkpt lat="63.42554983" lon="10.3005745">
        <ele>281.943</ele>
        <time>1970-01-01T01:00:00Z</time>
      </trkpt>
      <trkpt lat="63.42555717" lon="10.30053617">
        <ele>281.943</ele>
        <time>1970-01-01T01:00:00Z</time>
      </trkpt>
      <trkpt lat="63.42556317" lon="10.30050117">
        <ele>282.096</ele>
        <time>1970-01-01T01:00:00Z</time>
      </trkpt>
      <trkpt lat="63.42556967" lon="10.30047383">
        <ele>282.096</ele>
        <time>1970-01-01T01:00:00Z</time>
      </trkpt>
      <trkpt lat="63.42557667" lon="10.30045217">
        <ele>282.401</ele>
        <time>1970-01-01T01:00:00Z</time>
      </trkpt>
      <trkpt lat="63.42558383" lon="10.30042983">
        <ele>282.401</ele>
        <time>1970-01-01T01:00:00Z</time>
      </trkpt>
      <trkpt lat="63.42559017" lon="10.3004095">
        <ele>282.553</ele>
        <time>1970-01-01T01:00:00Z</time>
      </trkpt>
      <trkpt lat="63.42559633" lon="10.3003905">
        <ele>282.553</ele>
        <time>1970-01-01T01:00:00Z</time>
      </trkpt>
      <trkpt lat="63.425604" lon="10.30037383">
        <ele>282.705</ele>
        <time>1970-01-01T01:00:00Z</time>
      </trkpt>
      <trkpt lat="63.42561067" lon="10.30035667">
        <ele>282.705</ele>
        <time>1970-01-01T01:00:00Z</time>
      </trkpt>
      <trkpt lat="63.42561717" lon="10.300339">
        <ele>283.01</ele>
        <time>1970-01-01T01:00:00Z</time>
      </trkpt>
      <trkpt lat="63.42562433" lon="10.30032133">
        <ele>283.01</ele>
        <time>1970-01-01T01:00:00Z</time>
      </trkpt>
      <trkpt lat="63.42563233" lon="10.30030733">
        <ele>283.163</ele>
        <time>1970-01-01T01:00:00Z</time>
      </trkpt>
      <trkpt lat="63.42564133" lon="10.30029417">
        <ele>283.163</ele>
        <time>1970-01-01T01:00:00Z</time>
      </trkpt>
      <trkpt lat="63.42565067" lon="10.30027917">
        <ele>283.315</ele>
        <time>1970-01-01T01:00:00Z</time>
      </trkpt>
      <trkpt lat="63.425661" lon="10.300263">
        <ele>283.315</ele>
        <time>1970-01-01T01:00:00Z</time>
      </trkpt>
      <trkpt lat="63.4256705" lon="10.30024617">
        <ele>283.467</ele>
        <time>1970-01-01T01:00:00Z</time>
      </trkpt>
      <trkpt lat="63.42567767" lon="10.30022967">
        <ele>283.467</ele>
        <time>1970-01-01T01:00:00Z</time>
      </trkpt>
      <trkpt lat="63.42568333" lon="10.30021133">
        <ele>283.62</ele>
        <time>1970-01-01T01:00:00Z</time>
      </trkpt>
      <trkpt lat="63.42568867" lon="10.300193">
        <ele>283.62</ele>
        <time>1970-01-01T01:00:00Z</time>
      </trkpt>
      <trkpt lat="63.42569483" lon="10.30017517">
        <ele>283.772</ele>
        <time>1970-01-01T01:00:00Z</time>
      </trkpt>
      <trkpt lat="63.42570383" lon="10.300157">
        <ele>283.772</ele>
        <time>1970-01-01T01:00:00Z</time>
      </trkpt>
      <trkpt lat="63.42571367" lon="10.30014017">
        <ele>283.925</ele>
        <time>1970-01-01T01:00:00Z</time>
      </trkpt>
      <trkpt lat="63.42572417" lon="10.30012383">
        <ele>283.925</ele>
        <time>1970-01-01T01:00:00Z</time>
      </trkpt>
      <trkpt lat="63.42573383" lon="10.300111">
        <ele>284.077</ele>
        <time>1970-01-01T01:00:00Z</time>
      </trkpt>
      <trkpt lat="63.42574267" lon="10.30009717">
        <ele>284.077</ele>
        <time>1970-01-01T01:00:00Z</time>
      </trkpt>
      <trkpt lat="63.42575" lon="10.30008367">
        <ele>284.229</ele>
        <time>1970-01-01T01:00:00Z</time>
      </trkpt>
      <trkpt lat="63.4257555" lon="10.30007083">
        <ele>284.229</ele>
        <time>1970-01-01T01:00:00Z</time>
      </trkpt>
      <trkpt lat="63.42576333" lon="10.3000605">
        <ele>284.382</ele>
        <time>1970-01-01T01:00:00Z</time>
      </trkpt>
      <trkpt lat="63.42577483" lon="10.30005317">
        <ele>284.382</ele>
        <time>1970-01-01T01:00:00Z</time>
      </trkpt>
      <trkpt lat="63.42578733" lon="10.3000425">
        <ele>284.534</ele>
        <time>1970-01-01T01:00:00Z</time>
      </trkpt>
      <trkpt lat="63.42579867" lon="10.30003083">
        <ele>284.534</ele>
        <time>1970-01-01T01:00:00Z</time>
      </trkpt>
      <trkpt lat="63.42580583" lon="10.300015">
        <ele>284.839</ele>
        <time>1970-01-01T01:00:00Z</time>
      </trkpt>
      <trkpt lat="63.42581217" lon="10.29999967">
        <ele>284.839</ele>
        <time>1970-01-01T01:00:00Z</time>
      </trkpt>
      <trkpt lat="63.4258165" lon="10.29998383">
        <ele>284.991</ele>
        <time>1970-01-01T01:00:00Z</time>
      </trkpt>
      <trkpt lat="63.42582033" lon="10.29996683">
        <ele>284.991</ele>
        <time>1970-01-01T01:00:00Z</time>
      </trkpt>
      <trkpt lat="63.42582433" lon="10.299948">
        <ele>285.144</ele>
        <time>1970-01-01T01:00:00Z</time>
      </trkpt>
      <trkpt lat="63.4258295" lon="10.29992833">
        <ele>285.144</ele>
        <time>1970-01-01T01:00:00Z</time>
      </trkpt>
      <trkpt lat="63.42583533" lon="10.29990833">
        <ele>285.296</ele>
        <time>1970-01-01T01:00:00Z</time>
      </trkpt>
      <trkpt lat="63.42584083" lon="10.29988867">
        <ele>285.296</ele>
        <time>1970-01-01T01:00:00Z</time>
      </trkpt>
      <trkpt lat="63.425846" lon="10.29987033">
        <ele>285.601</ele>
        <time>1970-01-01T01:00:00Z</time>
      </trkpt>
      <trkpt lat="63.42585" lon="10.2998525">
        <ele>285.601</ele>
        <time>1970-01-01T01:00:00Z</time>
      </trkpt>
      <trkpt lat="63.425853" lon="10.299836">
        <ele>285.753</ele>
        <time>1970-01-01T01:00:00Z</time>
      </trkpt>
      <trkpt lat="63.4258545" lon="10.2998195">
        <ele>285.753</ele>
        <time>1970-01-01T01:00:00Z</time>
      </trkpt>
      <trkpt lat="63.42585717" lon="10.29980467">
        <ele>286.058</ele>
        <time>1970-01-01T01:00:00Z</time>
      </trkpt>
      <trkpt lat="63.4258655" lon="10.29979117">
        <ele>286.058</ele>
        <time>1970-01-01T01:00:00Z</time>
      </trkpt>
      <trkpt lat="63.4258755" lon="10.2997775">
        <ele>286.363</ele>
        <time>1970-01-01T01:00:00Z</time>
      </trkpt>
      <trkpt lat="63.425886" lon="10.29976517">
        <ele>286.363</ele>
        <time>1970-01-01T01:00:00Z</time>
      </trkpt>
      <trkpt lat="63.42589233" lon="10.2997515">
        <ele>286.668</ele>
        <time>1970-01-01T01:00:00Z</time>
      </trkpt>
      <trkpt lat="63.425898" lon="10.2997395">
        <ele>286.668</ele>
        <time>1970-01-01T01:00:00Z</time>
      </trkpt>
      <trkpt lat="63.42590233" lon="10.29972633">
        <ele>286.973</ele>
        <time>1970-01-01T01:00:00Z</time>
      </trkpt>
      <trkpt lat="63.4259065" lon="10.29971233">
        <ele>286.973</ele>
        <time>1970-01-01T01:00:00Z</time>
      </trkpt>
      <trkpt lat="63.42590917" lon="10.29969733">
        <ele>287.277</ele>
        <time>1970-01-01T01:00:00Z</time>
      </trkpt>
      <trkpt lat="63.4259125" lon="10.29968317">
        <ele>287.277</ele>
        <time>1970-01-01T01:00:00Z</time>
      </trkpt>
      <trkpt lat="63.4259155" lon="10.29967217">
        <ele>287.582</ele>
        <time>1970-01-01T01:00:00Z</time>
      </trkpt>
      <trkpt lat="63.42592417" lon="10.29965917">
        <ele>287.582</ele>
        <time>1970-01-01T01:00:00Z</time>
      </trkpt>
      <trkpt lat="63.42593933" lon="10.29964267">
        <ele>288.039</ele>
        <time>1970-01-01T01:00:00Z</time>
      </trkpt>
      <trkpt lat="63.42595817" lon="10.29962683">
        <ele>288.039</ele>
        <time>1970-01-01T01:00:00Z</time>
      </trkpt>
      <trkpt lat="63.42597233" lon="10.29961283">
        <ele>288.344</ele>
        <time>1970-01-01T01:00:00Z</time>
      </trkpt>
      <trkpt lat="63.42598033" lon="10.29960433">
        <ele>288.344</ele>
        <time>1970-01-01T01:00:00Z</time>
      </trkpt>
      <trkpt lat="63.425985" lon="10.29959467">
        <ele>288.802</ele>
        <time>1970-01-01T01:00:00Z</time>
      </trkpt>
      <trkpt lat="63.42599033" lon="10.299583">
        <ele>288.802</ele>
        <time>1970-01-01T01:00:00Z</time>
      </trkpt>
      <trkpt lat="63.426001" lon="10.29956867">
        <ele>289.106</ele>
        <time>1970-01-01T01:00:00Z</time>
      </trkpt>
      <trkpt lat="63.426016" lon="10.299553">
        <ele>289.106</ele>
        <time>1970-01-01T01:00:00Z</time>
      </trkpt>
      <trkpt lat="63.42603183" lon="10.29953933">
        <ele>289.564</ele>
        <time>1970-01-01T01:00:00Z</time>
      </trkpt>
      <trkpt lat="63.42604317" lon="10.29952533">
        <ele>289.564</ele>
        <time>1970-01-01T01:00:00Z</time>
      </trkpt>
      <trkpt lat="63.42605067" lon="10.29951333">
        <ele>289.868</ele>
        <time>1970-01-01T01:00:00Z</time>
      </trkpt>
      <trkpt lat="63.42605883" lon="10.29950067">
        <ele>289.868</ele>
        <time>1970-01-01T01:00:00Z</time>
      </trkpt>
      <trkpt lat="63.42606833" lon="10.29948833">
        <ele>290.173</ele>
        <time>1970-01-01T01:00:00Z</time>
      </trkpt>
      <trkpt lat="63.42607783" lon="10.29947383">
        <ele>290.173</ele>
        <time>1970-01-01T01:00:00Z</time>
      </trkpt>
      <trkpt lat="63.4260865" lon="10.29946067">
        <ele>290.478</ele>
        <time>1970-01-01T01:00:00Z</time>
      </trkpt>
      <trkpt lat="63.426093" lon="10.29944817">
        <ele>290.478</ele>
        <time>1970-01-01T01:00:00Z</time>
      </trkpt>
      <trkpt lat="63.42609883" lon="10.2994365">
        <ele>290.783</ele>
        <time>1970-01-01T01:00:00Z</time>
      </trkpt>
      <trkpt lat="63.42610483" lon="10.299423">
        <ele>290.783</ele>
        <time>1970-01-01T01:00:00Z</time>
      </trkpt>
      <trkpt lat="63.4261125" lon="10.29940783">
        <ele>291.088</ele>
        <time>1970-01-01T01:00:00Z</time>
      </trkpt>
      <trkpt lat="63.426123" lon="10.2993935">
        <ele>291.088</ele>
        <time>1970-01-01T01:00:00Z</time>
      </trkpt>
      <trkpt lat="63.42613367" lon="10.29938017">
        <ele>291.392</ele>
        <time>1970-01-01T01:00:00Z</time>
      </trkpt>
      <trkpt lat="63.4261435" lon="10.29936883">
        <ele>291.392</ele>
        <time>1970-01-01T01:00:00Z</time>
      </trkpt>
      <trkpt lat="63.42615183" lon="10.299358">
        <ele>291.545</ele>
        <time>1970-01-01T01:00:00Z</time>
      </trkpt>
      <trkpt lat="63.42615933" lon="10.29934883">
        <ele>291.545</ele>
        <time>1970-01-01T01:00:00Z</time>
      </trkpt>
      <trkpt lat="63.42616783" lon="10.299339">
        <ele>291.85</ele>
        <time>1970-01-01T01:00:00Z</time>
      </trkpt>
      <trkpt lat="63.42617567" lon="10.29932583">
        <ele>291.85</ele>
        <time>1970-01-01T01:00:00Z</time>
      </trkpt>
      <trkpt lat="63.4261845" lon="10.2993095">
        <ele>292.002</ele>
        <time>1970-01-01T01:00:00Z</time>
      </trkpt>
      <trkpt lat="63.42619217" lon="10.299293">
        <ele>292.002</ele>
        <time>1970-01-01T01:00:00Z</time>
      </trkpt>
      <trkpt lat="63.4261995" lon="10.29927917">
        <ele>292.154</ele>
        <time>1970-01-01T01:00:00Z</time>
      </trkpt>
      <trkpt lat="63.42620683" lon="10.29926833">
        <ele>292.154</ele>
        <time>1970-01-01T01:00:00Z</time>
      </trkpt>
      <trkpt lat="63.4262145" lon="10.29925833">
        <ele>292.307</ele>
        <time>1970-01-01T01:00:00Z</time>
      </trkpt>
      <trkpt lat="63.42622183" lon="10.299247">
        <ele>292.307</ele>
        <time>1970-01-01T01:00:00Z</time>
      </trkpt>
      <trkpt lat="63.42622933" lon="10.299234">
        <ele>292.459</ele>
        <time>1970-01-01T01:00:00Z</time>
      </trkpt>
      <trkpt lat="63.426238" lon="10.2992195">
        <ele>292.459</ele>
        <time>1970-01-01T01:00:00Z</time>
      </trkpt>
      <trkpt lat="63.42624917" lon="10.299205">
        <ele>292.612</ele>
        <time>1970-01-01T01:00:00Z</time>
      </trkpt>
      <trkpt lat="63.42626183" lon="10.2991945">
        <ele>292.612</ele>
        <time>1970-01-01T01:00:00Z</time>
      </trkpt>
      <trkpt lat="63.42627367" lon="10.29918433">
        <ele>292.764</ele>
        <time>1970-01-01T01:00:00Z</time>
      </trkpt>
      <trkpt lat="63.42628367" lon="10.29917583">
        <ele>292.764</ele>
        <time>1970-01-01T01:00:00Z</time>
      </trkpt>
      <trkpt lat="63.4262925" lon="10.29916317">
        <ele>292.916</ele>
        <time>1970-01-01T01:00:00Z</time>
      </trkpt>
      <trkpt lat="63.42630217" lon="10.299148">
        <ele>292.916</ele>
        <time>1970-01-01T01:00:00Z</time>
      </trkpt>
      <trkpt lat="63.42631267" lon="10.2991295">
        <ele>293.069</ele>
        <time>1970-01-01T01:00:00Z</time>
      </trkpt>
      <trkpt lat="63.42632217" lon="10.29911267">
        <ele>293.069</ele>
        <time>1970-01-01T01:00:00Z</time>
      </trkpt>
      <trkpt lat="63.4263305" lon="10.2990995">
        <ele>293.221</ele>
        <time>1970-01-01T01:00:00Z</time>
      </trkpt>
      <trkpt lat="63.42633767" lon="10.29909033">
        <ele>293.221</ele>
        <time>1970-01-01T01:00:00Z</time>
      </trkpt>
      <trkpt lat="63.42634517" lon="10.29908183">
        <ele>293.526</ele>
        <time>1970-01-01T01:00:00Z</time>
      </trkpt>
      <trkpt lat="63.42635267" lon="10.29907167">
        <ele>293.526</ele>
        <time>1970-01-01T01:00:00Z</time>
      </trkpt>
      <trkpt lat="63.42636" lon="10.299061">
        <ele>293.678</ele>
        <time>1970-01-01T01:00:00Z</time>
      </trkpt>
      <trkpt lat="63.426367" lon="10.29904717">
        <ele>293.678</ele>
        <time>1970-01-01T01:00:00Z</time>
      </trkpt>
      <trkpt lat="63.42637483" lon="10.29903483">
        <ele>293.831</ele>
        <time>1970-01-01T01:00:00Z</time>
      </trkpt>
      <trkpt lat="63.42638333" lon="10.29902183">
        <ele>293.831</ele>
        <time>1970-01-01T01:00:00Z</time>
      </trkpt>
      <trkpt lat="63.42639133" lon="10.29901083">
        <ele>293.983</ele>
        <time>1970-01-01T01:00:00Z</time>
      </trkpt>
      <trkpt lat="63.42639833" lon="10.29899967">
        <ele>293.983</ele>
        <time>1970-01-01T01:00:00Z</time>
      </trkpt>
      <trkpt lat="63.42640383" lon="10.29898533">
        <ele>294.288</ele>
        <time>1970-01-01T01:00:00Z</time>
      </trkpt>
      <trkpt lat="63.42640783" lon="10.29896833">
        <ele>294.288</ele>
        <time>1970-01-01T01:00:00Z</time>
      </trkpt>
      <trkpt lat="63.42641433" lon="10.298948">
        <ele>294.44</ele>
        <time>1970-01-01T01:00:00Z</time>
      </trkpt>
      <trkpt lat="63.426422" lon="10.29892933">
        <ele>294.44</ele>
        <time>1970-01-01T01:00:00Z</time>
      </trkpt>
      <trkpt lat="63.42642967" lon="10.29891217">
        <ele>294.593</ele>
        <time>1970-01-01T01:00:00Z</time>
      </trkpt>
      <trkpt lat="63.42643433" lon="10.29889683">
        <ele>294.593</ele>
        <time>1970-01-01T01:00:00Z</time>
      </trkpt>
      <trkpt lat="63.42643967" lon="10.29887917">
        <ele>294.898</ele>
        <time>1970-01-01T01:00:00Z</time>
      </trkpt>
      <trkpt lat="63.4264485" lon="10.29886133">
        <ele>294.898</ele>
        <time>1970-01-01T01:00:00Z</time>
      </trkpt>
      <trkpt lat="63.426458" lon="10.29884617">
        <ele>295.05</ele>
        <time>1970-01-01T01:00:00Z</time>
      </trkpt>
      <trkpt lat="63.4264655" lon="10.29883317">
        <ele>295.05</ele>
        <time>1970-01-01T01:00:00Z</time>
      </trkpt>
      <trkpt lat="63.42647133" lon="10.29882083">
        <ele>295.202</ele>
        <time>1970-01-01T01:00:00Z</time>
      </trkpt>
      <trkpt lat="63.42647767" lon="10.29880617">
        <ele>295.202</ele>
        <time>1970-01-01T01:00:00Z</time>
      </trkpt>
      <trkpt lat="63.42648617" lon="10.2987915">
        <ele>295.507</ele>
        <time>1970-01-01T01:00:00Z</time>
      </trkpt>
      <trkpt lat="63.42649567" lon="10.29877617">
        <ele>295.507</ele>
        <time>1970-01-01T01:00:00Z</time>
      </trkpt>
      <trkpt lat="63.426505" lon="10.29876">
        <ele>295.812</ele>
        <time>1970-01-01T01:00:00Z</time>
      </trkpt>
      <trkpt lat="63.42651367" lon="10.29874383">
        <ele>295.812</ele>
        <time>1970-01-01T01:00:00Z</time>
      </trkpt>
      <trkpt lat="63.42652183" lon="10.2987285">
        <ele>295.964</ele>
        <time>1970-01-01T01:00:00Z</time>
      </trkpt>
      <trkpt lat="63.42653033" lon="10.29871717">
        <ele>295.964</ele>
        <time>1970-01-01T01:00:00Z</time>
      </trkpt>
      <trkpt lat="63.42653733" lon="10.29870683">
        <ele>296.269</ele>
        <time>1970-01-01T01:00:00Z</time>
      </trkpt>
      <trkpt lat="63.42654417" lon="10.29869817">
        <ele>296.269</ele>
        <time>1970-01-01T01:00:00Z</time>
      </trkpt>
      <trkpt lat="63.426551" lon="10.29868867">
        <ele>296.574</ele>
        <time>1970-01-01T01:00:00Z</time>
      </trkpt>
      <trkpt lat="63.426559" lon="10.29867867">
        <ele>296.574</ele>
        <time>1970-01-01T01:00:00Z</time>
      </trkpt>
      <trkpt lat="63.4265655" lon="10.2986695">
        <ele>296.726</ele>
        <time>1970-01-01T01:00:00Z</time>
      </trkpt>
      <trkpt lat="63.42657233" lon="10.29865933">
        <ele>296.726</ele>
        <time>1970-01-01T01:00:00Z</time>
      </trkpt>
      <trkpt lat="63.42657833" lon="10.2986455">
        <ele>297.031</ele>
        <time>1970-01-01T01:00:00Z</time>
      </trkpt>
      <trkpt lat="63.42658683" lon="10.298632">
        <ele>297.031</ele>
        <time>1970-01-01T01:00:00Z</time>
      </trkpt>
      <trkpt lat="63.42659467" lon="10.29861533">
        <ele>297.336</ele>
        <time>1970-01-01T01:00:00Z</time>
      </trkpt>
      <trkpt lat="63.42660283" lon="10.29860217">
        <ele>297.336</ele>
        <time>1970-01-01T01:00:00Z</time>
      </trkpt>
      <trkpt lat="63.426607" lon="10.29858567">
        <ele>297.488</ele>
        <time>1970-01-01T01:00:00Z</time>
      </trkpt>
      <trkpt lat="63.426612" lon="10.298573">
        <ele>297.488</ele>
        <time>1970-01-01T01:00:00Z</time>
      </trkpt>
      <trkpt lat="63.42661633" lon="10.29856">
        <ele>297.793</ele>
        <time>1970-01-01T01:00:00Z</time>
      </trkpt>
      <trkpt lat="63.42662283" lon="10.29854783">
        <ele>297.793</ele>
        <time>1970-01-01T01:00:00Z</time>
      </trkpt>
      <trkpt lat="63.42662733" lon="10.29853267">
        <ele>298.098</ele>
        <time>1970-01-01T01:00:00Z</time>
      </trkpt>
      <trkpt lat="63.4266315" lon="10.298517">
        <ele>298.098</ele>
        <time>1970-01-01T01:00:00Z</time>
      </trkpt>
      <trkpt lat="63.42663417" lon="10.29850117">
        <ele>298.25</ele>
        <time>1970-01-01T01:00:00Z</time>
      </trkpt>
      <trkpt lat="63.4266375" lon="10.29848583">
        <ele>298.25</ele>
        <time>1970-01-01T01:00:00Z</time>
      </trkpt>
      <trkpt lat="63.42664267" lon="10.298471">
        <ele>298.555</ele>
        <time>1970-01-01T01:00:00Z</time>
      </trkpt>
      <trkpt lat="63.42664783" lon="10.29845733">
        <ele>298.555</ele>
        <time>1970-01-01T01:00:00Z</time>
      </trkpt>
      <trkpt lat="63.42665267" lon="10.29844267">
        <ele>298.708</ele>
        <time>1970-01-01T01:00:00Z</time>
      </trkpt>
      <trkpt lat="63.42665783" lon="10.29842617">
        <ele>298.708</ele>
        <time>1970-01-01T01:00:00Z</time>
      </trkpt>
      <trkpt lat="63.42666483" lon="10.29840917">
        <ele>299.012</ele>
        <time>1970-01-01T01:00:00Z</time>
      </trkpt>
      <trkpt lat="63.42667067" lon="10.29839317">
        <ele>299.012</ele>
        <time>1970-01-01T01:00:00Z</time>
      </trkpt>
      <trkpt lat="63.426675" lon="10.29837983">
        <ele>299.165</ele>
        <time>1970-01-01T01:00:00Z</time>
      </trkpt>
      <trkpt lat="63.42667917" lon="10.29836633">
        <ele>299.165</ele>
        <time>1970-01-01T01:00:00Z</time>
      </trkpt>
      <trkpt lat="63.42668217" lon="10.2983525">
        <ele>299.47</ele>
        <time>1970-01-01T01:00:00Z</time>
      </trkpt>
      <trkpt lat="63.42668733" lon="10.29833767">
        <ele>299.47</ele>
        <time>1970-01-01T01:00:00Z</time>
      </trkpt>
      <trkpt lat="63.42669083" lon="10.29832233">
        <ele>299.622</ele>
        <time>1970-01-01T01:00:00Z</time>
      </trkpt>
      <trkpt lat="63.42669783" lon="10.29830533">
        <ele>299.622</ele>
        <time>1970-01-01T01:00:00Z</time>
      </trkpt>
      <trkpt lat="63.42670283" lon="10.29828817">
        <ele>299.927</ele>
        <time>1970-01-01T01:00:00Z</time>
      </trkpt>
      <trkpt lat="63.426708" lon="10.29826967">
        <ele>299.927</ele>
        <time>1970-01-01T01:00:00Z</time>
      </trkpt>
      <trkpt lat="63.4267135" lon="10.2982505">
        <ele>300.232</ele>
        <time>1970-01-01T01:00:00Z</time>
      </trkpt>
      <trkpt lat="63.4267195" lon="10.29823133">
        <ele>300.232</ele>
        <time>1970-01-01T01:00:00Z</time>
      </trkpt>
      <trkpt lat="63.426727" lon="10.2982115">
        <ele>300.536</ele>
        <time>1970-01-01T01:00:00Z</time>
      </trkpt>
      <trkpt lat="63.42673433" lon="10.298194">
        <ele>300.536</ele>
        <time>1970-01-01T01:00:00Z</time>
      </trkpt>
      <trkpt lat="63.42674067" lon="10.29817733">
        <ele>300.841</ele>
        <time>1970-01-01T01:00:00Z</time>
      </trkpt>
      <trkpt lat="63.42674767" lon="10.29816167">
        <ele>300.841</ele>
        <time>1970-01-01T01:00:00Z</time>
      </trkpt>
      <trkpt lat="63.42675767" lon="10.2981435">
        <ele>301.146</ele>
        <time>1970-01-01T01:00:00Z</time>
      </trkpt>
      <trkpt lat="63.42677017" lon="10.298124">
        <ele>301.146</ele>
        <time>1970-01-01T01:00:00Z</time>
      </trkpt>
      <trkpt lat="63.4267805" lon="10.29810367">
        <ele>301.451</ele>
        <time>1970-01-01T01:00:00Z</time>
      </trkpt>
      <trkpt lat="63.42678683" lon="10.29808367">
        <ele>301.451</ele>
        <time>1970-01-01T01:00:00Z</time>
      </trkpt>
      <trkpt lat="63.42679133" lon="10.2980635">
        <ele>301.756</ele>
        <time>1970-01-01T01:00:00Z</time>
      </trkpt>
      <trkpt lat="63.42679767" lon="10.298043">
        <ele>301.756</ele>
        <time>1970-01-01T01:00:00Z</time>
      </trkpt>
      <trkpt lat="63.42680483" lon="10.298023">
        <ele>301.908</ele>
        <time>1970-01-01T01:00:00Z</time>
      </trkpt>
      <trkpt lat="63.4268115" lon="10.29800117">
        <ele>301.908</ele>
        <time>1970-01-01T01:00:00Z</time>
      </trkpt>
      <trkpt lat="63.426817" lon="10.2979815">
        <ele>302.213</ele>
        <time>1970-01-01T01:00:00Z</time>
      </trkpt>
      <trkpt lat="63.42682167" lon="10.29796167">
        <ele>302.213</ele>
        <time>1970-01-01T01:00:00Z</time>
      </trkpt>
      <trkpt lat="63.42682683" lon="10.29794433">
        <ele>302.518</ele>
        <time>1970-01-01T01:00:00Z</time>
      </trkpt>
      <trkpt lat="63.42683167" lon="10.2979275">
        <ele>302.518</ele>
        <time>1970-01-01T01:00:00Z</time>
      </trkpt>
      <trkpt lat="63.42683833" lon="10.29791267">
        <ele>302.822</ele>
        <time>1970-01-01T01:00:00Z</time>
      </trkpt>
      <trkpt lat="63.42684867" lon="10.29789917">
        <ele>302.822</ele>
        <time>1970-01-01T01:00:00Z</time>
      </trkpt>
      <trkpt lat="63.42686" lon="10.29788617">
        <ele>302.975</ele>
        <time>1970-01-01T01:00:00Z</time>
      </trkpt>
      <trkpt lat="63.42687483" lon="10.2978735">
        <ele>302.975</ele>
        <time>1970-01-01T01:00:00Z</time>
      </trkpt>
      <trkpt lat="63.42688567" lon="10.29785483">
        <ele>303.28</ele>
        <time>1970-01-01T01:00:00Z</time>
      </trkpt>
      <trkpt lat="63.4268965" lon="10.29783217">
        <ele>303.28</ele>
        <time>1970-01-01T01:00:00Z</time>
      </trkpt>
      <trkpt lat="63.426903" lon="10.29780667">
        <ele>303.584</ele>
        <time>1970-01-01T01:00:00Z</time>
      </trkpt>
      <trkpt lat="63.42691017" lon="10.29778617">
        <ele>303.584</ele>
        <time>1970-01-01T01:00:00Z</time>
      </trkpt>
      <trkpt lat="63.42691567" lon="10.29776433">
        <ele>303.737</ele>
        <time>1970-01-01T01:00:00Z</time>
      </trkpt>
      <trkpt lat="63.426919" lon="10.29774283">
        <ele>303.737</ele>
        <time>1970-01-01T01:00:00Z</time>
      </trkpt>
      <trkpt lat="63.42692133" lon="10.29772033">
        <ele>304.042</ele>
        <time>1970-01-01T01:00:00Z</time>
      </trkpt>
      <trkpt lat="63.42692267" lon="10.29769933">
        <ele>304.042</ele>
        <time>1970-01-01T01:00:00Z</time>
      </trkpt>
      <trkpt lat="63.42692717" lon="10.297679">
        <ele>304.346</ele>
        <time>1970-01-01T01:00:00Z</time>
      </trkpt>
      <trkpt lat="63.42693117" lon="10.29765917">
        <ele>304.346</ele>
        <time>1970-01-01T01:00:00Z</time>
      </trkpt>
      <trkpt lat="63.42693583" lon="10.29764283">
        <ele>304.499</ele>
        <time>1970-01-01T01:00:00Z</time>
      </trkpt>
      <trkpt lat="63.42693833" lon="10.29762767">
        <ele>304.499</ele>
        <time>1970-01-01T01:00:00Z</time>
      </trkpt>
      <trkpt lat="63.4269395" lon="10.29760917">
        <ele>304.804</ele>
        <time>1970-01-01T01:00:00Z</time>
      </trkpt>
      <trkpt lat="63.42693983" lon="10.2975895">
        <ele>304.804</ele>
        <time>1970-01-01T01:00:00Z</time>
      </trkpt>
      <trkpt lat="63.42694517" lon="10.29756667">
        <ele>305.108</ele>
        <time>1970-01-01T01:00:00Z</time>
      </trkpt>
      <trkpt lat="63.4269545" lon="10.29754233">
        <ele>305.108</ele>
        <time>1970-01-01T01:00:00Z</time>
      </trkpt>
      <trkpt lat="63.42696733" lon="10.29751767">
        <ele>305.261</ele>
        <time>1970-01-01T01:00:00Z</time>
      </trkpt>
      <trkpt lat="63.42697867" lon="10.29749683">
        <ele>305.261</ele>
        <time>1970-01-01T01:00:00Z</time>
      </trkpt>
      <trkpt lat="63.42699017" lon="10.29748017">
        <ele>305.566</ele>
        <time>1970-01-01T01:00:00Z</time>
      </trkpt>
      <trkpt lat="63.42700333" lon="10.29745983">
        <ele>305.566</ele>
        <time>1970-01-01T01:00:00Z</time>
      </trkpt>
      <trkpt lat="63.42701517" lon="10.29743583">
        <ele>305.718</ele>
        <time>1970-01-01T01:00:00Z</time>
      </trkpt>
      <trkpt lat="63.42702517" lon="10.29741083">
        <ele>305.718</ele>
        <time>1970-01-01T01:00:00Z</time>
      </trkpt>
      <trkpt lat="63.42703233" lon="10.29738833">
        <ele>306.023</ele>
        <time>1970-01-01T01:00:00Z</time>
      </trkpt>
      <trkpt lat="63.42703867" lon="10.2973655">
        <ele>306.023</ele>
        <time>1970-01-01T01:00:00Z</time>
      </trkpt>
      <trkpt lat="63.4270465" lon="10.29733967">
        <ele>306.175</ele>
        <time>1970-01-01T01:00:00Z</time>
      </trkpt>
      <trkpt lat="63.42705417" lon="10.29731183">
        <ele>306.175</ele>
        <time>1970-01-01T01:00:00Z</time>
      </trkpt>
      <trkpt lat="63.42706167" lon="10.297286">
        <ele>306.48</ele>
        <time>1970-01-01T01:00:00Z</time>
      </trkpt>
      <trkpt lat="63.4270685" lon="10.29726333">
        <ele>306.48</ele>
        <time>1970-01-01T01:00:00Z</time>
      </trkpt>
      <trkpt lat="63.42707583" lon="10.29724033">
        <ele>306.633</ele>
        <time>1970-01-01T01:00:00Z</time>
      </trkpt>
      <trkpt lat="63.42708383" lon="10.29721767">
        <ele>306.633</ele>
        <time>1970-01-01T01:00:00Z</time>
      </trkpt>
      <trkpt lat="63.42708933" lon="10.29719517">
        <ele>306.937</ele>
        <time>1970-01-01T01:00:00Z</time>
      </trkpt>
      <trkpt lat="63.427094" lon="10.29717433">
        <ele>306.937</ele>
        <time>1970-01-01T01:00:00Z</time>
      </trkpt>
      <trkpt lat="63.42709867" lon="10.29715267">
        <ele>307.09</ele>
        <time>1970-01-01T01:00:00Z</time>
      </trkpt>
      <trkpt lat="63.42710483" lon="10.29713167">
        <ele>307.09</ele>
        <time>1970-01-01T01:00:00Z</time>
      </trkpt>
      <trkpt lat="63.42711067" lon="10.2971125">
        <ele>307.242</ele>
        <time>1970-01-01T01:00:00Z</time>
      </trkpt>
      <trkpt lat="63.42711533" lon="10.29709083">
        <ele>307.242</ele>
        <time>1970-01-01T01:00:00Z</time>
      </trkpt>
      <trkpt lat="63.42712317" lon="10.297066">
        <ele>307.547</ele>
        <time>1970-01-01T01:00:00Z</time>
      </trkpt>
      <trkpt lat="63.4271325" lon="10.29703667">
        <ele>307.547</ele>
        <time>1970-01-01T01:00:00Z</time>
      </trkpt>
      <trkpt lat="63.42714333" lon="10.29700983">
        <ele>307.699</ele>
        <time>1970-01-01T01:00:00Z</time>
      </trkpt>
      <trkpt lat="63.42715183" lon="10.296987">
        <ele>307.699</ele>
        <time>1970-01-01T01:00:00Z</time>
      </trkpt>
      <trkpt lat="63.42715917" lon="10.2969695">
        <ele>308.004</ele>
        <time>1970-01-01T01:00:00Z</time>
      </trkpt>
      <trkpt lat="63.4271655" lon="10.29695">
        <ele>308.004</ele>
        <time>1970-01-01T01:00:00Z</time>
      </trkpt>
      <trkpt lat="63.42717083" lon="10.29692567">
        <ele>308.157</ele>
        <time>1970-01-01T01:00:00Z</time>
      </trkpt>
      <trkpt lat="63.427176" lon="10.29689917">
        <ele>308.157</ele>
        <time>1970-01-01T01:00:00Z</time>
      </trkpt>
      <trkpt lat="63.4271815" lon="10.296876">
        <ele>308.461</ele>
        <time>1970-01-01T01:00:00Z</time>
      </trkpt>
      <trkpt lat="63.42718717" lon="10.29685683">
        <ele>308.461</ele>
        <time>1970-01-01T01:00:00Z</time>
      </trkpt>
      <trkpt lat="63.42719367" lon="10.29683633">
        <ele>308.766</ele>
        <time>1970-01-01T01:00:00Z</time>
      </trkpt>
      <trkpt lat="63.4271995" lon="10.29681417">
        <ele>308.766</ele>
        <time>1970-01-01T01:00:00Z</time>
      </trkpt>
      <trkpt lat="63.4272055" lon="10.2967905">
        <ele>309.071</ele>
        <time>1970-01-01T01:00:00Z</time>
      </trkpt>
      <trkpt lat="63.42721017" lon="10.29676767">
        <ele>309.071</ele>
        <time>1970-01-01T01:00:00Z</time>
      </trkpt>
      <trkpt lat="63.42721533" lon="10.29674517">
        <ele>309.223</ele>
        <time>1970-01-01T01:00:00Z</time>
      </trkpt>
      <trkpt lat="63.42722017" lon="10.296725">
        <ele>309.223</ele>
        <time>1970-01-01T01:00:00Z</time>
      </trkpt>
      <trkpt lat="63.4272265" lon="10.29670483">
        <ele>309.528</ele>
        <time>1970-01-01T01:00:00Z</time>
      </trkpt>
      <trkpt lat="63.42723267" lon="10.2966855">
        <ele>309.528</ele>
        <time>1970-01-01T01:00:00Z</time>
      </trkpt>
      <trkpt lat="63.42723883" lon="10.296666">
        <ele>309.833</ele>
        <time>1970-01-01T01:00:00Z</time>
      </trkpt>
      <trkpt lat="63.42724317" lon="10.29664933">
        <ele>309.833</ele>
        <time>1970-01-01T01:00:00Z</time>
      </trkpt>
      <trkpt lat="63.427246" lon="10.29663183">
        <ele>310.138</ele>
        <time>1970-01-01T01:00:00Z</time>
      </trkpt>
      <trkpt lat="63.42724733" lon="10.2966125">
        <ele>310.138</ele>
        <time>1970-01-01T01:00:00Z</time>
      </trkpt>
      <trkpt lat="63.42724917" lon="10.29659033">
        <ele>310.443</ele>
        <time>1970-01-01T01:00:00Z</time>
      </trkpt>
      <trkpt lat="63.42725167" lon="10.29656717">
        <ele>310.443</ele>
        <time>1970-01-01T01:00:00Z</time>
      </trkpt>
      <trkpt lat="63.42725583" lon="10.29654333">
        <ele>310.747</ele>
        <time>1970-01-01T01:00:00Z</time>
      </trkpt>
      <trkpt lat="63.42726017" lon="10.29651867">
        <ele>310.747</ele>
        <time>1970-01-01T01:00:00Z</time>
      </trkpt>
      <trkpt lat="63.427264" lon="10.29649467">
        <ele>311.052</ele>
        <time>1970-01-01T01:00:00Z</time>
      </trkpt>
      <trkpt lat="63.42726733" lon="10.29647133">
        <ele>311.052</ele>
        <time>1970-01-01T01:00:00Z</time>
      </trkpt>
      <trkpt lat="63.42727017" lon="10.296449">
        <ele>311.205</ele>
        <time>1970-01-01T01:00:00Z</time>
      </trkpt>
      <trkpt lat="63.427277" lon="10.29641833">
        <ele>311.205</ele>
        <time>1970-01-01T01:00:00Z</time>
      </trkpt>
      <trkpt lat="63.42728183" lon="10.296391">
        <ele>311.509</ele>
        <time>1970-01-01T01:00:00Z</time>
      </trkpt>
      <trkpt lat="63.42728617" lon="10.29636083">
        <ele>311.509</ele>
        <time>1970-01-01T01:00:00Z</time>
      </trkpt>
      <trkpt lat="63.42728817" lon="10.29633883">
        <ele>311.662</ele>
        <time>1970-01-01T01:00:00Z</time>
      </trkpt>
      <trkpt lat="63.42729133" lon="10.2963125">
        <ele>311.662</ele>
        <time>1970-01-01T01:00:00Z</time>
      </trkpt>
      <trkpt lat="63.42729567" lon="10.296289">
        <ele>311.814</ele>
        <time>1970-01-01T01:00:00Z</time>
      </trkpt>
      <trkpt lat="63.42730017" lon="10.296263">
        <ele>311.814</ele>
        <time>1970-01-01T01:00:00Z</time>
      </trkpt>
      <trkpt lat="63.4273055" lon="10.29623917">
        <ele>311.967</ele>
        <time>1970-01-01T01:00:00Z</time>
      </trkpt>
      <trkpt lat="63.42731" lon="10.29621433">
        <ele>311.967</ele>
        <time>1970-01-01T01:00:00Z</time>
      </trkpt>
      <trkpt lat="63.42731417" lon="10.29619333">
        <ele>312.119</ele>
        <time>1970-01-01T01:00:00Z</time>
      </trkpt>
      <trkpt lat="63.42731833" lon="10.296171">
        <ele>312.119</ele>
        <time>1970-01-01T01:00:00Z</time>
      </trkpt>
      <trkpt lat="63.427322" lon="10.2961475">
        <ele>312.271</ele>
        <time>1970-01-01T01:00:00Z</time>
      </trkpt>
      <trkpt lat="63.4273285" lon="10.29612217">
        <ele>312.271</ele>
        <time>1970-01-01T01:00:00Z</time>
      </trkpt>
      <trkpt lat="63.42733983" lon="10.2960925">
        <ele>312.424</ele>
        <time>1970-01-01T01:00:00Z</time>
      </trkpt>
      <trkpt lat="63.42735367" lon="10.29606467">
        <ele>312.424</ele>
        <time>1970-01-01T01:00:00Z</time>
      </trkpt>
      <trkpt lat="63.42736833" lon="10.296036">
        <ele>312.424</ele>
        <time>1970-01-01T01:00:00Z</time>
      </trkpt>
      <trkpt lat="63.42737933" lon="10.29601167">
        <ele>312.424</ele>
        <time>1970-01-01T01:00:00Z</time>
      </trkpt>
      <trkpt lat="63.42739033" lon="10.29599417">
        <ele>312.576</ele>
        <time>1970-01-01T01:00:00Z</time>
      </trkpt>
      <trkpt lat="63.42739817" lon="10.29598617">
        <ele>312.576</ele>
        <time>1970-01-01T01:00:00Z</time>
      </trkpt>
      <trkpt lat="63.42740583" lon="10.29598683">
        <ele>312.729</ele>
        <time>1970-01-01T01:00:00Z</time>
      </trkpt>
      <trkpt lat="63.4274135" lon="10.2959895">
        <ele>312.729</ele>
        <time>1970-01-01T01:00:00Z</time>
      </trkpt>
      <trkpt lat="63.42742133" lon="10.2959925">
        <ele>312.729</ele>
        <time>1970-01-01T01:00:00Z</time>
      </trkpt>
      <trkpt lat="63.427428" lon="10.29599567">
        <ele>312.729</ele>
        <time>1970-01-01T01:00:00Z</time>
      </trkpt>
      <trkpt lat="63.4274335" lon="10.29600033">
        <ele>312.881</ele>
        <time>1970-01-01T01:00:00Z</time>
      </trkpt>
      <trkpt lat="63.4274375" lon="10.296006">
        <ele>312.881</ele>
        <time>1970-01-01T01:00:00Z</time>
      </trkpt>
      <trkpt lat="63.427441" lon="10.2960105">
        <ele>312.881</ele>
        <time>1970-01-01T01:00:00Z</time>
      </trkpt>
      <trkpt lat="63.42744317" lon="10.2960135">
        <ele>312.881</ele>
        <time>1970-01-01T01:00:00Z</time>
      </trkpt>
      <trkpt lat="63.42744433" lon="10.296014">
        <ele>313.033</ele>
        <time>1970-01-01T01:00:00Z</time>
      </trkpt>
      <trkpt lat="63.42744483" lon="10.29601367">
        <ele>313.033</ele>
        <time>1970-01-01T01:00:00Z</time>
      </trkpt>
      <trkpt lat="63.42744533" lon="10.2960135">
        <ele>313.033</ele>
        <time>1970-01-01T01:00:00Z</time>
      </trkpt>
      <trkpt lat="63.42744633" lon="10.29601417">
        <ele>313.033</ele>
        <time>1970-01-01T01:00:00Z</time>
      </trkpt>
      <trkpt lat="63.42744717" lon="10.29601483">
        <ele>313.186</ele>
        <time>1970-01-01T01:00:00Z</time>
      </trkpt>
      <trkpt lat="63.427448" lon="10.29601483">
        <ele>313.186</ele>
        <time>1970-01-01T01:00:00Z</time>
      </trkpt>
      <trkpt lat="63.42744867" lon="10.29601433">
        <ele>313.186</ele>
        <time>1970-01-01T01:00:00Z</time>
      </trkpt>
      <trkpt lat="63.4274495" lon="10.29601267">
        <ele>313.186</ele>
        <time>1970-01-01T01:00:00Z</time>
      </trkpt>
      <trkpt lat="63.42745067" lon="10.296012">
        <ele>313.338</ele>
        <time>1970-01-01T01:00:00Z</time>
      </trkpt>
      <trkpt lat="63.42745183" lon="10.29601183">
        <ele>313.338</ele>
        <time>1970-01-01T01:00:00Z</time>
      </trkpt>
      <trkpt lat="63.42745267" lon="10.29601267">
        <ele>313.338</ele>
        <time>1970-01-01T01:00:00Z</time>
      </trkpt>
      <trkpt lat="63.42745333" lon="10.29601233">
        <ele>313.338</ele>
        <time>1970-01-01T01:00:00Z</time>
      </trkpt>
      <trkpt lat="63.42745383" lon="10.29601183">
        <ele>313.338</ele>
        <time>1970-01-01T01:00:00Z</time>
      </trkpt>
      <trkpt lat="63.42745433" lon="10.2960115">
        <ele>313.338</ele>
        <time>1970-01-01T01:00:00Z</time>
      </trkpt>
      <trkpt lat="63.42745533" lon="10.29601083">
        <ele>313.491</ele>
        <time>1970-01-01T01:00:00Z</time>
      </trkpt>
      <trkpt lat="63.42745667" lon="10.2960105">
        <ele>313.491</ele>
        <time>1970-01-01T01:00:00Z</time>
      </trkpt>
      <trkpt lat="63.42745833" lon="10.29600967">
        <ele>313.491</ele>
        <time>1970-01-01T01:00:00Z</time>
      </trkpt>
      <trkpt lat="63.42746" lon="10.29601033">
        <ele>313.491</ele>
        <time>1970-01-01T01:00:00Z</time>
      </trkpt>
      <trkpt lat="63.42746117" lon="10.29601">
        <ele>313.643</ele>
        <time>1970-01-01T01:00:00Z</time>
      </trkpt>
      <trkpt lat="63.427461" lon="10.29600483">
        <ele>313.643</ele>
        <time>1970-01-01T01:00:00Z</time>
      </trkpt>
      <trkpt lat="63.42745983" lon="10.29599383">
        <ele>313.795</ele>
        <time>1970-01-01T01:00:00Z</time>
      </trkpt>
      <trkpt lat="63.42746017" lon="10.29597767">
        <ele>313.795</ele>
        <time>1970-01-01T01:00:00Z</time>
      </trkpt>
      <trkpt lat="63.42746183" lon="10.2959595">
        <ele>313.948</ele>
        <time>1970-01-01T01:00:00Z</time>
      </trkpt>
      <trkpt lat="63.42746467" lon="10.29594033">
        <ele>313.948</ele>
        <time>1970-01-01T01:00:00Z</time>
      </trkpt>
      <trkpt lat="63.427468" lon="10.29591833">
        <ele>313.948</ele>
        <time>1970-01-01T01:00:00Z</time>
      </trkpt>
      <trkpt lat="63.42747283" lon="10.29589417">
        <ele>313.948</ele>
        <time>1970-01-01T01:00:00Z</time>
      </trkpt>
      <trkpt lat="63.4274785" lon="10.29586833">
        <ele>314.1</ele>
        <time>1970-01-01T01:00:00Z</time>
      </trkpt>
      <trkpt lat="63.42748383" lon="10.29584217">
        <ele>314.1</ele>
        <time>1970-01-01T01:00:00Z</time>
      </trkpt>
      <trkpt lat="63.42748783" lon="10.295818">
        <ele>314.253</ele>
        <time>1970-01-01T01:00:00Z</time>
      </trkpt>
      <trkpt lat="63.427492" lon="10.29579517">
        <ele>314.253</ele>
        <time>1970-01-01T01:00:00Z</time>
      </trkpt>
      <trkpt lat="63.427496" lon="10.29577317">
        <ele>314.253</ele>
        <time>1970-01-01T01:00:00Z</time>
      </trkpt>
      <trkpt lat="63.42750083" lon="10.29574867">
        <ele>314.253</ele>
        <time>1970-01-01T01:00:00Z</time>
      </trkpt>
      <trkpt lat="63.42750517" lon="10.29572067">
        <ele>314.405</ele>
        <time>1970-01-01T01:00:00Z</time>
      </trkpt>
      <trkpt lat="63.42751" lon="10.29569367">
        <ele>314.405</ele>
        <time>1970-01-01T01:00:00Z</time>
      </trkpt>
      <trkpt lat="63.42751533" lon="10.2956675">
        <ele>314.405</ele>
        <time>1970-01-01T01:00:00Z</time>
      </trkpt>
      <trkpt lat="63.4275205" lon="10.29564217">
        <ele>314.405</ele>
        <time>1970-01-01T01:00:00Z</time>
      </trkpt>
      <trkpt lat="63.42752417" lon="10.29561667">
        <ele>314.557</ele>
        <time>1970-01-01T01:00:00Z</time>
      </trkpt>
      <trkpt lat="63.42752883" lon="10.29559183">
        <ele>314.557</ele>
        <time>1970-01-01T01:00:00Z</time>
      </trkpt>
      <trkpt lat="63.42753383" lon="10.2955695">
        <ele>314.557</ele>
        <time>1970-01-01T01:00:00Z</time>
      </trkpt>
      <trkpt lat="63.42753983" lon="10.29554567">
        <ele>314.557</ele>
        <time>1970-01-01T01:00:00Z</time>
      </trkpt>
      <trkpt lat="63.427549" lon="10.2955195">
        <ele>314.557</ele>
        <time>1970-01-01T01:00:00Z</time>
      </trkpt>
      <trkpt lat="63.427559" lon="10.29549533">
        <ele>314.557</ele>
        <time>1970-01-01T01:00:00Z</time>
      </trkpt>
      <trkpt lat="63.427574" lon="10.29546483">
        <ele>314.557</ele>
        <time>1970-01-01T01:00:00Z</time>
      </trkpt>
      <trkpt lat="63.42758783" lon="10.29543333">
        <ele>314.557</ele>
        <time>1970-01-01T01:00:00Z</time>
      </trkpt>
      <trkpt lat="63.42760317" lon="10.2953985">
        <ele>314.557</ele>
        <time>1970-01-01T01:00:00Z</time>
      </trkpt>
      <trkpt lat="63.4276155" lon="10.29536667">
        <ele>314.557</ele>
        <time>1970-01-01T01:00:00Z</time>
      </trkpt>
      <trkpt lat="63.4276255" lon="10.295338">
        <ele>314.557</ele>
        <time>1970-01-01T01:00:00Z</time>
      </trkpt>
      <trkpt lat="63.4276355" lon="10.2953095">
        <ele>314.557</ele>
        <time>1970-01-01T01:00:00Z</time>
      </trkpt>
      <trkpt lat="63.427644" lon="10.29528567">
        <ele>314.71</ele>
        <time>1970-01-01T01:00:00Z</time>
      </trkpt>
      <trkpt lat="63.42765483" lon="10.29526167">
        <ele>314.71</ele>
        <time>1970-01-01T01:00:00Z</time>
      </trkpt>
      <trkpt lat="63.4276645" lon="10.29523767">
        <ele>314.71</ele>
        <time>1970-01-01T01:00:00Z</time>
      </trkpt>
      <trkpt lat="63.4276735" lon="10.29521117">
        <ele>314.71</ele>
        <time>1970-01-01T01:00:00Z</time>
      </trkpt>
      <trkpt lat="63.42767917" lon="10.295186">
        <ele>314.71</ele>
        <time>1970-01-01T01:00:00Z</time>
      </trkpt>
      <trkpt lat="63.427685" lon="10.29515933">
        <ele>314.71</ele>
        <time>1970-01-01T01:00:00Z</time>
      </trkpt>
      <trkpt lat="63.42769283" lon="10.295134">
        <ele>314.71</ele>
        <time>1970-01-01T01:00:00Z</time>
      </trkpt>
      <trkpt lat="63.42770167" lon="10.2951095">
        <ele>314.71</ele>
        <time>1970-01-01T01:00:00Z</time>
      </trkpt>
      <trkpt lat="63.42771233" lon="10.2950865">
        <ele>314.862</ele>
        <time>1970-01-01T01:00:00Z</time>
      </trkpt>
      <trkpt lat="63.42772133" lon="10.295065">
        <ele>314.862</ele>
        <time>1970-01-01T01:00:00Z</time>
      </trkpt>
      <trkpt lat="63.427729" lon="10.29503917">
        <ele>314.862</ele>
        <time>1970-01-01T01:00:00Z</time>
      </trkpt>
      <trkpt lat="63.42773283" lon="10.295013">
        <ele>314.862</ele>
        <time>1970-01-01T01:00:00Z</time>
      </trkpt>
      <trkpt lat="63.42773733" lon="10.29498383">
        <ele>315.015</ele>
        <time>1970-01-01T01:00:00Z</time>
      </trkpt>
      <trkpt lat="63.42774267" lon="10.2949595">
        <ele>315.015</ele>
        <time>1970-01-01T01:00:00Z</time>
      </trkpt>
      <trkpt lat="63.42774917" lon="10.29493517">
        <ele>315.167</ele>
        <time>1970-01-01T01:00:00Z</time>
      </trkpt>
      <trkpt lat="63.42775533" lon="10.294913">
        <ele>315.167</ele>
        <time>1970-01-01T01:00:00Z</time>
      </trkpt>
      <trkpt lat="63.42776233" lon="10.29489183">
        <ele>315.319</ele>
        <time>1970-01-01T01:00:00Z</time>
      </trkpt>
      <trkpt lat="63.4277695" lon="10.29486667">
        <ele>315.319</ele>
        <time>1970-01-01T01:00:00Z</time>
      </trkpt>
      <trkpt lat="63.4277775" lon="10.29484033">
        <ele>315.472</ele>
        <time>1970-01-01T01:00:00Z</time>
      </trkpt>
      <trkpt lat="63.42778367" lon="10.2948105">
        <ele>315.472</ele>
        <time>1970-01-01T01:00:00Z</time>
      </trkpt>
      <trkpt lat="63.42778867" lon="10.29478017">
        <ele>315.624</ele>
        <time>1970-01-01T01:00:00Z</time>
      </trkpt>
      <trkpt lat="63.4277925" lon="10.2947555">
        <ele>315.624</ele>
        <time>1970-01-01T01:00:00Z</time>
      </trkpt>
      <trkpt lat="63.42779667" lon="10.29472283">
        <ele>315.777</ele>
        <time>1970-01-01T01:00:00Z</time>
      </trkpt>
      <trkpt lat="63.427804" lon="10.294691">
        <ele>315.777</ele>
        <time>1970-01-01T01:00:00Z</time>
      </trkpt>
      <trkpt lat="63.42781167" lon="10.29465533">
        <ele>315.929</ele>
        <time>1970-01-01T01:00:00Z</time>
      </trkpt>
      <trkpt lat="63.42782333" lon="10.2946285">
        <ele>315.929</ele>
        <time>1970-01-01T01:00:00Z</time>
      </trkpt>
      <trkpt lat="63.4278345" lon="10.294603">
        <ele>316.081</ele>
        <time>1970-01-01T01:00:00Z</time>
      </trkpt>
      <trkpt lat="63.42784533" lon="10.29457383">
        <ele>316.081</ele>
        <time>1970-01-01T01:00:00Z</time>
      </trkpt>
      <trkpt lat="63.42785167" lon="10.29454433">
        <ele>316.234</ele>
        <time>1970-01-01T01:00:00Z</time>
      </trkpt>
      <trkpt lat="63.42785683" lon="10.2945255">
        <ele>316.234</ele>
        <time>1970-01-01T01:00:00Z</time>
      </trkpt>
      <trkpt lat="63.42786383" lon="10.29450933">
        <ele>316.234</ele>
        <time>1970-01-01T01:00:00Z</time>
      </trkpt>
      <trkpt lat="63.42787667" lon="10.29449567">
        <ele>316.234</ele>
        <time>1970-01-01T01:00:00Z</time>
      </trkpt>
      <trkpt lat="63.4278885" lon="10.29447367">
        <ele>316.386</ele>
        <time>1970-01-01T01:00:00Z</time>
      </trkpt>
      <trkpt lat="63.42789417" lon="10.2944455">
        <ele>316.386</ele>
        <time>1970-01-01T01:00:00Z</time>
      </trkpt>
      <trkpt lat="63.427895" lon="10.29441333">
        <ele>316.386</ele>
        <time>1970-01-01T01:00:00Z</time>
      </trkpt>
      <trkpt lat="63.42789817" lon="10.29438083">
        <ele>316.386</ele>
        <time>1970-01-01T01:00:00Z</time>
      </trkpt>
      <trkpt lat="63.42790583" lon="10.29435333">
        <ele>316.386</ele>
        <time>1970-01-01T01:00:00Z</time>
      </trkpt>
      <trkpt lat="63.42791383" lon="10.29432833">
        <ele>316.386</ele>
        <time>1970-01-01T01:00:00Z</time>
      </trkpt>
      <trkpt lat="63.427921" lon="10.29430267">
        <ele>316.234</ele>
        <time>1970-01-01T01:00:00Z</time>
      </trkpt>
      <trkpt lat="63.42792917" lon="10.29427833">
        <ele>316.234</ele>
        <time>1970-01-01T01:00:00Z</time>
      </trkpt>
      <trkpt lat="63.42793833" lon="10.2942455">
        <ele>316.234</ele>
        <time>1970-01-01T01:00:00Z</time>
      </trkpt>
      <trkpt lat="63.427947" lon="10.29420933">
        <ele>316.234</ele>
        <time>1970-01-01T01:00:00Z</time>
      </trkpt>
      <trkpt lat="63.42795567" lon="10.29417333">
        <ele>316.081</ele>
        <time>1970-01-01T01:00:00Z</time>
      </trkpt>
      <trkpt lat="63.42796217" lon="10.29414167">
        <ele>316.081</ele>
        <time>1970-01-01T01:00:00Z</time>
      </trkpt>
      <trkpt lat="63.427968" lon="10.294114">
        <ele>316.081</ele>
        <time>1970-01-01T01:00:00Z</time>
      </trkpt>
      <trkpt lat="63.42797083" lon="10.294083">
        <ele>316.081</ele>
        <time>1970-01-01T01:00:00Z</time>
      </trkpt>
      <trkpt lat="63.4279755" lon="10.29405567">
        <ele>315.929</ele>
        <time>1970-01-01T01:00:00Z</time>
      </trkpt>
      <trkpt lat="63.42798083" lon="10.29402667">
        <ele>315.929</ele>
        <time>1970-01-01T01:00:00Z</time>
      </trkpt>
      <trkpt lat="63.4279865" lon="10.29400067">
        <ele>315.929</ele>
        <time>1970-01-01T01:00:00Z</time>
      </trkpt>
      <trkpt lat="63.42799317" lon="10.2939705">
        <ele>315.929</ele>
        <time>1970-01-01T01:00:00Z</time>
      </trkpt>
      <trkpt lat="63.42800067" lon="10.29394233">
        <ele>315.777</ele>
        <time>1970-01-01T01:00:00Z</time>
      </trkpt>
      <trkpt lat="63.42801117" lon="10.29391117">
        <ele>315.777</ele>
        <time>1970-01-01T01:00:00Z</time>
      </trkpt>
      <trkpt lat="63.42802133" lon="10.29387883">
        <ele>315.624</ele>
        <time>1970-01-01T01:00:00Z</time>
      </trkpt>
      <trkpt lat="63.42803233" lon="10.29384517">
        <ele>315.624</ele>
        <time>1970-01-01T01:00:00Z</time>
      </trkpt>
      <trkpt lat="63.42804333" lon="10.293812">
        <ele>315.472</ele>
        <time>1970-01-01T01:00:00Z</time>
      </trkpt>
      <trkpt lat="63.42805417" lon="10.2937805">
        <ele>315.472</ele>
        <time>1970-01-01T01:00:00Z</time>
      </trkpt>
      <trkpt lat="63.42806383" lon="10.29374817">
        <ele>315.472</ele>
        <time>1970-01-01T01:00:00Z</time>
      </trkpt>
      <trkpt lat="63.42807233" lon="10.29371667">
        <ele>315.472</ele>
        <time>1970-01-01T01:00:00Z</time>
      </trkpt>
      <trkpt lat="63.42808067" lon="10.29368567">
        <ele>315.319</ele>
        <time>1970-01-01T01:00:00Z</time>
      </trkpt>
      <trkpt lat="63.42809233" lon="10.29365383">
        <ele>315.319</ele>
        <time>1970-01-01T01:00:00Z</time>
      </trkpt>
      <trkpt lat="63.4281035" lon="10.29362467">
        <ele>315.319</ele>
        <time>1970-01-01T01:00:00Z</time>
      </trkpt>
      <trkpt lat="63.42811317" lon="10.29359983">
        <ele>315.319</ele>
        <time>1970-01-01T01:00:00Z</time>
      </trkpt>
      <trkpt lat="63.42811833" lon="10.2935805">
        <ele>315.167</ele>
        <time>1970-01-01T01:00:00Z</time>
      </trkpt>
      <trkpt lat="63.42812417" lon="10.29356033">
        <ele>315.167</ele>
        <time>1970-01-01T01:00:00Z</time>
      </trkpt>
      <trkpt lat="63.42813167" lon="10.29353833">
        <ele>315.167</ele>
        <time>1970-01-01T01:00:00Z</time>
      </trkpt>
      <trkpt lat="63.42814167" lon="10.29351467">
        <ele>315.167</ele>
        <time>1970-01-01T01:00:00Z</time>
      </trkpt>
      <trkpt lat="63.42815383" lon="10.2934905">
        <ele>315.167</ele>
        <time>1970-01-01T01:00:00Z</time>
      </trkpt>
      <trkpt lat="63.428166" lon="10.29346717">
        <ele>315.167</ele>
        <time>1970-01-01T01:00:00Z</time>
      </trkpt>
      <trkpt lat="63.4281775" lon="10.29344333">
        <ele>315.015</ele>
        <time>1970-01-01T01:00:00Z</time>
      </trkpt>
      <trkpt lat="63.428186" lon="10.293418">
        <ele>315.015</ele>
        <time>1970-01-01T01:00:00Z</time>
      </trkpt>
      <trkpt lat="63.42819483" lon="10.293389">
        <ele>315.015</ele>
        <time>1970-01-01T01:00:00Z</time>
      </trkpt>
      <trkpt lat="63.42820183" lon="10.293359">
        <ele>315.015</ele>
        <time>1970-01-01T01:00:00Z</time>
      </trkpt>
      <trkpt lat="63.42821033" lon="10.29332817">
        <ele>314.862</ele>
        <time>1970-01-01T01:00:00Z</time>
      </trkpt>
      <trkpt lat="63.4282185" lon="10.2933">
        <ele>314.862</ele>
        <time>1970-01-01T01:00:00Z</time>
      </trkpt>
      <trkpt lat="63.42822717" lon="10.29327233">
        <ele>314.862</ele>
        <time>1970-01-01T01:00:00Z</time>
      </trkpt>
      <trkpt lat="63.42823467" lon="10.2932455">
        <ele>314.862</ele>
        <time>1970-01-01T01:00:00Z</time>
      </trkpt>
      <trkpt lat="63.428241" lon="10.29321667">
        <ele>314.71</ele>
        <time>1970-01-01T01:00:00Z</time>
      </trkpt>
      <trkpt lat="63.4282475" lon="10.2931865">
        <ele>314.71</ele>
        <time>1970-01-01T01:00:00Z</time>
      </trkpt>
      <trkpt lat="63.4282545" lon="10.2931585">
        <ele>314.71</ele>
        <time>1970-01-01T01:00:00Z</time>
      </trkpt>
      <trkpt lat="63.42826233" lon="10.293131">
        <ele>314.71</ele>
        <time>1970-01-01T01:00:00Z</time>
      </trkpt>
      <trkpt lat="63.42826967" lon="10.29310267">
        <ele>314.71</ele>
        <time>1970-01-01T01:00:00Z</time>
      </trkpt>
      <trkpt lat="63.4282785" lon="10.29307567">
        <ele>314.71</ele>
        <time>1970-01-01T01:00:00Z</time>
      </trkpt>
      <trkpt lat="63.42828683" lon="10.29305033">
        <ele>314.557</ele>
        <time>1970-01-01T01:00:00Z</time>
      </trkpt>
      <trkpt lat="63.42829533" lon="10.29302867">
        <ele>314.557</ele>
        <time>1970-01-01T01:00:00Z</time>
      </trkpt>
      <trkpt lat="63.42830283" lon="10.29300717">
        <ele>314.557</ele>
        <time>1970-01-01T01:00:00Z</time>
      </trkpt>
      <trkpt lat="63.42831067" lon="10.29298567">
        <ele>314.557</ele>
        <time>1970-01-01T01:00:00Z</time>
      </trkpt>
      <trkpt lat="63.42831933" lon="10.29296383">
        <ele>314.557</ele>
        <time>1970-01-01T01:00:00Z</time>
      </trkpt>
      <trkpt lat="63.42832683" lon="10.29294033">
        <ele>314.557</ele>
        <time>1970-01-01T01:00:00Z</time>
      </trkpt>
      <trkpt lat="63.42833433" lon="10.29291683">
        <ele>314.557</ele>
        <time>1970-01-01T01:00:00Z</time>
      </trkpt>
      <trkpt lat="63.42834217" lon="10.29289133">
        <ele>314.557</ele>
        <time>1970-01-01T01:00:00Z</time>
      </trkpt>
      <trkpt lat="63.42835" lon="10.29286517">
        <ele>314.557</ele>
        <time>1970-01-01T01:00:00Z</time>
      </trkpt>
      <trkpt lat="63.4283575" lon="10.29283783">
        <ele>314.557</ele>
        <time>1970-01-01T01:00:00Z</time>
      </trkpt>
      <trkpt lat="63.42836467" lon="10.292811">
        <ele>314.557</ele>
        <time>1970-01-01T01:00:00Z</time>
      </trkpt>
      <trkpt lat="63.428372" lon="10.29278433">
        <ele>314.557</ele>
        <time>1970-01-01T01:00:00Z</time>
      </trkpt>
      <trkpt lat="63.42837983" lon="10.292759">
        <ele>314.405</ele>
        <time>1970-01-01T01:00:00Z</time>
      </trkpt>
      <trkpt lat="63.42838833" lon="10.29273217">
        <ele>314.405</ele>
        <time>1970-01-01T01:00:00Z</time>
      </trkpt>
      <trkpt lat="63.42839767" lon="10.29270433">
        <ele>314.405</ele>
        <time>1970-01-01T01:00:00Z</time>
      </trkpt>
      <trkpt lat="63.42840667" lon="10.29267567">
        <ele>314.405</ele>
        <time>1970-01-01T01:00:00Z</time>
      </trkpt>
      <trkpt lat="63.42841317" lon="10.292651">
        <ele>314.405</ele>
        <time>1970-01-01T01:00:00Z</time>
      </trkpt>
      <trkpt lat="63.4284185" lon="10.29262967">
        <ele>314.405</ele>
        <time>1970-01-01T01:00:00Z</time>
      </trkpt>
      <trkpt lat="63.42842383" lon="10.29260583">
        <ele>314.405</ele>
        <time>1970-01-01T01:00:00Z</time>
      </trkpt>
      <trkpt lat="63.42842967" lon="10.29258">
        <ele>314.405</ele>
        <time>1970-01-01T01:00:00Z</time>
      </trkpt>
      <trkpt lat="63.42843667" lon="10.2925535">
        <ele>314.253</ele>
        <time>1970-01-01T01:00:00Z</time>
      </trkpt>
      <trkpt lat="63.42844467" lon="10.29253183">
        <ele>314.253</ele>
        <time>1970-01-01T01:00:00Z</time>
      </trkpt>
      <trkpt lat="63.42845583" lon="10.29250817">
        <ele>314.253</ele>
        <time>1970-01-01T01:00:00Z</time>
      </trkpt>
      <trkpt lat="63.42846767" lon="10.29248183">
        <ele>314.253</ele>
        <time>1970-01-01T01:00:00Z</time>
      </trkpt>
      <trkpt lat="63.42847833" lon="10.292453">
        <ele>314.253</ele>
        <time>1970-01-01T01:00:00Z</time>
      </trkpt>
      <trkpt lat="63.4284875" lon="10.2924245">
        <ele>314.253</ele>
        <time>1970-01-01T01:00:00Z</time>
      </trkpt>
      <trkpt lat="63.42849617" lon="10.29239833">
        <ele>314.1</ele>
        <time>1970-01-01T01:00:00Z</time>
      </trkpt>
      <trkpt lat="63.42850533" lon="10.29237233">
        <ele>314.1</ele>
        <time>1970-01-01T01:00:00Z</time>
      </trkpt>
      <trkpt lat="63.42851383" lon="10.29234783">
        <ele>314.1</ele>
        <time>1970-01-01T01:00:00Z</time>
      </trkpt>
      <trkpt lat="63.42852117" lon="10.29232217">
        <ele>314.1</ele>
        <time>1970-01-01T01:00:00Z</time>
      </trkpt>
      <trkpt lat="63.42852867" lon="10.29229317">
        <ele>313.948</ele>
        <time>1970-01-01T01:00:00Z</time>
      </trkpt>
      <trkpt lat="63.42853617" lon="10.292264">
        <ele>313.948</ele>
        <time>1970-01-01T01:00:00Z</time>
      </trkpt>
      <trkpt lat="63.42854317" lon="10.2922365">
        <ele>313.948</ele>
        <time>1970-01-01T01:00:00Z</time>
      </trkpt>
      <trkpt lat="63.42855" lon="10.29221083">
        <ele>313.948</ele>
        <time>1970-01-01T01:00:00Z</time>
      </trkpt>
      <trkpt lat="63.42855517" lon="10.2921845">
        <ele>313.948</ele>
        <time>1970-01-01T01:00:00Z</time>
      </trkpt>
      <trkpt lat="63.4285625" lon="10.292157">
        <ele>313.948</ele>
        <time>1970-01-01T01:00:00Z</time>
      </trkpt>
      <trkpt lat="63.42856983" lon="10.29213217">
        <ele>313.795</ele>
        <time>1970-01-01T01:00:00Z</time>
      </trkpt>
      <trkpt lat="63.42857867" lon="10.29210733">
        <ele>313.795</ele>
        <time>1970-01-01T01:00:00Z</time>
      </trkpt>
      <trkpt lat="63.42858533" lon="10.292081">
        <ele>313.795</ele>
        <time>1970-01-01T01:00:00Z</time>
      </trkpt>
      <trkpt lat="63.4285935" lon="10.29205317">
        <ele>313.795</ele>
        <time>1970-01-01T01:00:00Z</time>
      </trkpt>
      <trkpt lat="63.428601" lon="10.29202833">
        <ele>313.643</ele>
        <time>1970-01-01T01:00:00Z</time>
      </trkpt>
      <trkpt lat="63.42860783" lon="10.2920045">
        <ele>313.643</ele>
        <time>1970-01-01T01:00:00Z</time>
      </trkpt>
      <trkpt lat="63.42861217" lon="10.2919825">
        <ele>313.643</ele>
        <time>1970-01-01T01:00:00Z</time>
      </trkpt>
      <trkpt lat="63.42861783" lon="10.2919595">
        <ele>313.643</ele>
        <time>1970-01-01T01:00:00Z</time>
      </trkpt>
      <trkpt lat="63.42862467" lon="10.2919355">
        <ele>313.643</ele>
        <time>1970-01-01T01:00:00Z</time>
      </trkpt>
      <trkpt lat="63.42863233" lon="10.291911">
        <ele>313.643</ele>
        <time>1970-01-01T01:00:00Z</time>
      </trkpt>
      <trkpt lat="63.4286405" lon="10.29188733">
        <ele>313.491</ele>
        <time>1970-01-01T01:00:00Z</time>
      </trkpt>
      <trkpt lat="63.42864883" lon="10.291864">
        <ele>313.491</ele>
        <time>1970-01-01T01:00:00Z</time>
      </trkpt>
      <trkpt lat="63.42865533" lon="10.29183867">
        <ele>313.491</ele>
        <time>1970-01-01T01:00:00Z</time>
      </trkpt>
      <trkpt lat="63.4286595" lon="10.2918135">
        <ele>313.491</ele>
        <time>1970-01-01T01:00:00Z</time>
      </trkpt>
      <trkpt lat="63.42866067" lon="10.291787">
        <ele>313.491</ele>
        <time>1970-01-01T01:00:00Z</time>
      </trkpt>
      <trkpt lat="63.428664" lon="10.29176267">
        <ele>313.491</ele>
        <time>1970-01-01T01:00:00Z</time>
      </trkpt>
      <trkpt lat="63.4286715" lon="10.29173817">
        <ele>313.491</ele>
        <time>1970-01-01T01:00:00Z</time>
      </trkpt>
      <trkpt lat="63.4286815" lon="10.29171733">
        <ele>313.491</ele>
        <time>1970-01-01T01:00:00Z</time>
      </trkpt>
      <trkpt lat="63.4286915" lon="10.29169717">
        <ele>313.338</ele>
        <time>1970-01-01T01:00:00Z</time>
      </trkpt>
      <trkpt lat="63.42869833" lon="10.2916775">
        <ele>313.338</ele>
        <time>1970-01-01T01:00:00Z</time>
      </trkpt>
      <trkpt lat="63.4287045" lon="10.291658">
        <ele>313.338</ele>
        <time>1970-01-01T01:00:00Z</time>
      </trkpt>
      <trkpt lat="63.42871067" lon="10.2916375">
        <ele>313.338</ele>
        <time>1970-01-01T01:00:00Z</time>
      </trkpt>
      <trkpt lat="63.4287165" lon="10.29161683">
        <ele>313.338</ele>
        <time>1970-01-01T01:00:00Z</time>
      </trkpt>
      <trkpt lat="63.42872233" lon="10.291596">
        <ele>313.338</ele>
        <time>1970-01-01T01:00:00Z</time>
      </trkpt>
      <trkpt lat="63.42872633" lon="10.29157633">
        <ele>313.186</ele>
        <time>1970-01-01T01:00:00Z</time>
      </trkpt>
      <trkpt lat="63.42872883" lon="10.29155517">
        <ele>313.186</ele>
        <time>1970-01-01T01:00:00Z</time>
      </trkpt>
      <trkpt lat="63.4287305" lon="10.29153383">
        <ele>313.033</ele>
        <time>1970-01-01T01:00:00Z</time>
      </trkpt>
      <trkpt lat="63.42873217" lon="10.2915105">
        <ele>313.033</ele>
        <time>1970-01-01T01:00:00Z</time>
      </trkpt>
      <trkpt lat="63.4287335" lon="10.2914845">
        <ele>313.033</ele>
        <time>1970-01-01T01:00:00Z</time>
      </trkpt>
      <trkpt lat="63.42873383" lon="10.29145517">
        <ele>313.033</ele>
        <time>1970-01-01T01:00:00Z</time>
      </trkpt>
      <trkpt lat="63.42873333" lon="10.29142617">
        <ele>312.881</ele>
        <time>1970-01-01T01:00:00Z</time>
      </trkpt>
      <trkpt lat="63.42873283" lon="10.29139783">
        <ele>312.881</ele>
        <time>1970-01-01T01:00:00Z</time>
      </trkpt>
      <trkpt lat="63.42873317" lon="10.29137083">
        <ele>312.729</ele>
        <time>1970-01-01T01:00:00Z</time>
      </trkpt>
      <trkpt lat="63.42873183" lon="10.29134183">
        <ele>312.729</ele>
        <time>1970-01-01T01:00:00Z</time>
      </trkpt>
      <trkpt lat="63.4287285" lon="10.29131517">
        <ele>312.729</ele>
        <time>1970-01-01T01:00:00Z</time>
      </trkpt>
      <trkpt lat="63.42872517" lon="10.29128533">
        <ele>312.729</ele>
        <time>1970-01-01T01:00:00Z</time>
      </trkpt>
      <trkpt lat="63.428722" lon="10.291253">
        <ele>312.576</ele>
        <time>1970-01-01T01:00:00Z</time>
      </trkpt>
      <trkpt lat="63.42871933" lon="10.29121817">
        <ele>312.576</ele>
        <time>1970-01-01T01:00:00Z</time>
      </trkpt>
      <trkpt lat="63.42871533" lon="10.2911845">
        <ele>312.576</ele>
        <time>1970-01-01T01:00:00Z</time>
      </trkpt>
      <trkpt lat="63.42871" lon="10.29115317">
        <ele>312.576</ele>
        <time>1970-01-01T01:00:00Z</time>
      </trkpt>
      <trkpt lat="63.42870433" lon="10.29112167">
        <ele>312.424</ele>
        <time>1970-01-01T01:00:00Z</time>
      </trkpt>
      <trkpt lat="63.42869833" lon="10.2910885">
        <ele>312.424</ele>
        <time>1970-01-01T01:00:00Z</time>
      </trkpt>
      <trkpt lat="63.4286955" lon="10.29105433">
        <ele>312.424</ele>
        <time>1970-01-01T01:00:00Z</time>
      </trkpt>
      <trkpt lat="63.4286935" lon="10.29102333">
        <ele>312.424</ele>
        <time>1970-01-01T01:00:00Z</time>
      </trkpt>
      <trkpt lat="63.428692" lon="10.29099333">
        <ele>312.271</ele>
        <time>1970-01-01T01:00:00Z</time>
      </trkpt>
      <trkpt lat="63.42868883" lon="10.29096167">
        <ele>312.271</ele>
        <time>1970-01-01T01:00:00Z</time>
      </trkpt>
      <trkpt lat="63.42868267" lon="10.2909305">
        <ele>312.271</ele>
        <time>1970-01-01T01:00:00Z</time>
      </trkpt>
      <trkpt lat="63.42867433" lon="10.29089983">
        <ele>312.271</ele>
        <time>1970-01-01T01:00:00Z</time>
      </trkpt>
      <trkpt lat="63.4286635" lon="10.29087517">
        <ele>312.271</ele>
        <time>1970-01-01T01:00:00Z</time>
      </trkpt>
      <trkpt lat="63.4286545" lon="10.29084917">
        <ele>312.271</ele>
        <time>1970-01-01T01:00:00Z</time>
      </trkpt>
      <trkpt lat="63.42864667" lon="10.29082467">
        <ele>312.119</ele>
        <time>1970-01-01T01:00:00Z</time>
      </trkpt>
      <trkpt lat="63.4286395" lon="10.2907975">
        <ele>312.119</ele>
        <time>1970-01-01T01:00:00Z</time>
      </trkpt>
      <trkpt lat="63.42863083" lon="10.2907715">
        <ele>312.119</ele>
        <time>1970-01-01T01:00:00Z</time>
      </trkpt>
      <trkpt lat="63.42862183" lon="10.290746">
        <ele>312.119</ele>
        <time>1970-01-01T01:00:00Z</time>
      </trkpt>
      <trkpt lat="63.42861433" lon="10.29072167">
        <ele>312.119</ele>
        <time>1970-01-01T01:00:00Z</time>
      </trkpt>
      <trkpt lat="63.42860867" lon="10.290697">
        <ele>312.119</ele>
        <time>1970-01-01T01:00:00Z</time>
      </trkpt>
      <trkpt lat="63.42860417" lon="10.2906745">
        <ele>311.967</ele>
        <time>1970-01-01T01:00:00Z</time>
      </trkpt>
      <trkpt lat="63.42860067" lon="10.29065033">
        <ele>311.967</ele>
        <time>1970-01-01T01:00:00Z</time>
      </trkpt>
      <trkpt lat="63.42859667" lon="10.29062533">
        <ele>311.967</ele>
        <time>1970-01-01T01:00:00Z</time>
      </trkpt>
      <trkpt lat="63.42859117" lon="10.29059667">
        <ele>311.967</ele>
        <time>1970-01-01T01:00:00Z</time>
      </trkpt>
      <trkpt lat="63.42858417" lon="10.2905685">
        <ele>311.814</ele>
        <time>1970-01-01T01:00:00Z</time>
      </trkpt>
      <trkpt lat="63.42857767" lon="10.2905415">
        <ele>311.814</ele>
        <time>1970-01-01T01:00:00Z</time>
      </trkpt>
      <trkpt lat="63.42857067" lon="10.29051617">
        <ele>311.814</ele>
        <time>1970-01-01T01:00:00Z</time>
      </trkpt>
      <trkpt lat="63.42856333" lon="10.290492">
        <ele>311.814</ele>
        <time>1970-01-01T01:00:00Z</time>
      </trkpt>
      <trkpt lat="63.42855617" lon="10.2904665">
        <ele>311.814</ele>
        <time>1970-01-01T01:00:00Z</time>
      </trkpt>
      <trkpt lat="63.42855017" lon="10.290441">
        <ele>311.814</ele>
        <time>1970-01-01T01:00:00Z</time>
      </trkpt>
      <trkpt lat="63.42854383" lon="10.2904135">
        <ele>311.662</ele>
        <time>1970-01-01T01:00:00Z</time>
      </trkpt>
      <trkpt lat="63.428535" lon="10.29038717">
        <ele>311.662</ele>
        <time>1970-01-01T01:00:00Z</time>
      </trkpt>
      <trkpt lat="63.42852617" lon="10.29035967">
        <ele>311.662</ele>
        <time>1970-01-01T01:00:00Z</time>
      </trkpt>
      <trkpt lat="63.42851817" lon="10.29033233">
        <ele>311.662</ele>
        <time>1970-01-01T01:00:00Z</time>
      </trkpt>
      <trkpt lat="63.42851433" lon="10.29030233">
        <ele>311.662</ele>
        <time>1970-01-01T01:00:00Z</time>
      </trkpt>
      <trkpt lat="63.42851117" lon="10.29027333">
        <ele>311.662</ele>
        <time>1970-01-01T01:00:00Z</time>
      </trkpt>
      <trkpt lat="63.428508" lon="10.29024583">
        <ele>311.662</ele>
        <time>1970-01-01T01:00:00Z</time>
      </trkpt>
      <trkpt lat="63.42850067" lon="10.2902235">
        <ele>311.662</ele>
        <time>1970-01-01T01:00:00Z</time>
      </trkpt>
      <trkpt lat="63.42849" lon="10.29020167">
        <ele>311.662</ele>
        <time>1970-01-01T01:00:00Z</time>
      </trkpt>
      <trkpt lat="63.42847833" lon="10.29018">
        <ele>311.662</ele>
        <time>1970-01-01T01:00:00Z</time>
      </trkpt>
      <trkpt lat="63.42846883" lon="10.29015567">
        <ele>311.509</ele>
        <time>1970-01-01T01:00:00Z</time>
      </trkpt>
      <trkpt lat="63.42846117" lon="10.29012883">
        <ele>311.509</ele>
        <time>1970-01-01T01:00:00Z</time>
      </trkpt>
      <trkpt lat="63.42845283" lon="10.2901035">
        <ele>311.509</ele>
        <time>1970-01-01T01:00:00Z</time>
      </trkpt>
      <trkpt lat="63.428445" lon="10.29007717">
        <ele>311.509</ele>
        <time>1970-01-01T01:00:00Z</time>
      </trkpt>
      <trkpt lat="63.42843667" lon="10.29005283">
        <ele>311.509</ele>
        <time>1970-01-01T01:00:00Z</time>
      </trkpt>
      <trkpt lat="63.42843033" lon="10.29002583">
        <ele>311.509</ele>
        <time>1970-01-01T01:00:00Z</time>
      </trkpt>
      <trkpt lat="63.428423" lon="10.2900005">
        <ele>311.509</ele>
        <time>1970-01-01T01:00:00Z</time>
      </trkpt>
      <trkpt lat="63.42841567" lon="10.28997433">
        <ele>311.509</ele>
        <time>1970-01-01T01:00:00Z</time>
      </trkpt>
      <trkpt lat="63.4284085" lon="10.28994733">
        <ele>311.509</ele>
        <time>1970-01-01T01:00:00Z</time>
      </trkpt>
      <trkpt lat="63.428402" lon="10.28991883">
        <ele>311.509</ele>
        <time>1970-01-01T01:00:00Z</time>
      </trkpt>
      <trkpt lat="63.42839717" lon="10.28988983">
        <ele>311.357</ele>
        <time>1970-01-01T01:00:00Z</time>
      </trkpt>
      <trkpt lat="63.4283915" lon="10.28986267">
        <ele>311.357</ele>
        <time>1970-01-01T01:00:00Z</time>
      </trkpt>
      <trkpt lat="63.42838767" lon="10.289833">
        <ele>311.357</ele>
        <time>1970-01-01T01:00:00Z</time>
      </trkpt>
      <trkpt lat="63.428383" lon="10.2897985">
        <ele>311.357</ele>
        <time>1970-01-01T01:00:00Z</time>
      </trkpt>
      <trkpt lat="63.4283775" lon="10.28976267">
        <ele>311.357</ele>
        <time>1970-01-01T01:00:00Z</time>
      </trkpt>
      <trkpt lat="63.428369" lon="10.28973083">
        <ele>311.357</ele>
        <time>1970-01-01T01:00:00Z</time>
      </trkpt>
      <trkpt lat="63.42836167" lon="10.28970667">
        <ele>311.509</ele>
        <time>1970-01-01T01:00:00Z</time>
      </trkpt>
      <trkpt lat="63.42835333" lon="10.28968167">
        <ele>311.509</ele>
        <time>1970-01-01T01:00:00Z</time>
      </trkpt>
      <trkpt lat="63.428344" lon="10.28965483">
        <ele>311.509</ele>
        <time>1970-01-01T01:00:00Z</time>
      </trkpt>
      <trkpt lat="63.42833533" lon="10.28962717">
        <ele>311.509</ele>
        <time>1970-01-01T01:00:00Z</time>
      </trkpt>
      <trkpt lat="63.4283275" lon="10.28960133">
        <ele>311.509</ele>
        <time>1970-01-01T01:00:00Z</time>
      </trkpt>
      <trkpt lat="63.4283215" lon="10.2895765">
        <ele>311.509</ele>
        <time>1970-01-01T01:00:00Z</time>
      </trkpt>
      <trkpt lat="63.42831267" lon="10.28955233">
        <ele>311.509</ele>
        <time>1970-01-01T01:00:00Z</time>
      </trkpt>
      <trkpt lat="63.42830267" lon="10.28953">
        <ele>311.509</ele>
        <time>1970-01-01T01:00:00Z</time>
      </trkpt>
      <trkpt lat="63.428293" lon="10.28950833">
        <ele>311.662</ele>
        <time>1970-01-01T01:00:00Z</time>
      </trkpt>
      <trkpt lat="63.42828483" lon="10.28948217">
        <ele>311.662</ele>
        <time>1970-01-01T01:00:00Z</time>
      </trkpt>
      <trkpt lat="63.4282785" lon="10.289453">
        <ele>311.662</ele>
        <time>1970-01-01T01:00:00Z</time>
      </trkpt>
      <trkpt lat="63.42827483" lon="10.28942133">
        <ele>311.662</ele>
        <time>1970-01-01T01:00:00Z</time>
      </trkpt>
      <trkpt lat="63.42827267" lon="10.28939017">
        <ele>311.662</ele>
        <time>1970-01-01T01:00:00Z</time>
      </trkpt>
      <trkpt lat="63.42826917" lon="10.28936483">
        <ele>311.662</ele>
        <time>1970-01-01T01:00:00Z</time>
      </trkpt>
      <trkpt lat="63.42826383" lon="10.28934367">
        <ele>311.662</ele>
        <time>1970-01-01T01:00:00Z</time>
      </trkpt>
      <trkpt lat="63.42825833" lon="10.28932567">
        <ele>311.662</ele>
        <time>1970-01-01T01:00:00Z</time>
      </trkpt>
      <trkpt lat="63.428255" lon="10.2893025">
        <ele>311.814</ele>
        <time>1970-01-01T01:00:00Z</time>
      </trkpt>
      <trkpt lat="63.428252" lon="10.28927733">
        <ele>311.814</ele>
        <time>1970-01-01T01:00:00Z</time>
      </trkpt>
      <trkpt lat="63.42824667" lon="10.28925067">
        <ele>311.814</ele>
        <time>1970-01-01T01:00:00Z</time>
      </trkpt>
      <trkpt lat="63.42824133" lon="10.289227">
        <ele>311.814</ele>
        <time>1970-01-01T01:00:00Z</time>
      </trkpt>
      <trkpt lat="63.42823583" lon="10.289202">
        <ele>311.967</ele>
        <time>1970-01-01T01:00:00Z</time>
      </trkpt>
      <trkpt lat="63.42823067" lon="10.289177">
        <ele>311.967</ele>
        <time>1970-01-01T01:00:00Z</time>
      </trkpt>
      <trkpt lat="63.4282245" lon="10.28915">
        <ele>311.967</ele>
        <time>1970-01-01T01:00:00Z</time>
      </trkpt>
      <trkpt lat="63.4282195" lon="10.28912233">
        <ele>311.967</ele>
        <time>1970-01-01T01:00:00Z</time>
      </trkpt>
      <trkpt lat="63.42821467" lon="10.28909433">
        <ele>312.119</ele>
        <time>1970-01-01T01:00:00Z</time>
      </trkpt>
      <trkpt lat="63.42820967" lon="10.289064">
        <ele>312.119</ele>
        <time>1970-01-01T01:00:00Z</time>
      </trkpt>
      <trkpt lat="63.42820467" lon="10.2890345">
        <ele>312.119</ele>
        <time>1970-01-01T01:00:00Z</time>
      </trkpt>
      <trkpt lat="63.42819983" lon="10.28900583">
        <ele>312.119</ele>
        <time>1970-01-01T01:00:00Z</time>
      </trkpt>
      <trkpt lat="63.42819617" lon="10.28898">
        <ele>312.271</ele>
        <time>1970-01-01T01:00:00Z</time>
      </trkpt>
      <trkpt lat="63.42819067" lon="10.28895717">
        <ele>312.271</ele>
        <time>1970-01-01T01:00:00Z</time>
      </trkpt>
      <trkpt lat="63.428186" lon="10.28893533">
        <ele>312.424</ele>
        <time>1970-01-01T01:00:00Z</time>
      </trkpt>
      <trkpt lat="63.42818233" lon="10.2889125">
        <ele>312.424</ele>
        <time>1970-01-01T01:00:00Z</time>
      </trkpt>
      <trkpt lat="63.4281785" lon="10.28888833">
        <ele>312.576</ele>
        <time>1970-01-01T01:00:00Z</time>
      </trkpt>
      <trkpt lat="63.4281735" lon="10.2888625">
        <ele>312.576</ele>
        <time>1970-01-01T01:00:00Z</time>
      </trkpt>
      <trkpt lat="63.42816633" lon="10.28883667">
        <ele>312.729</ele>
        <time>1970-01-01T01:00:00Z</time>
      </trkpt>
      <trkpt lat="63.42815917" lon="10.28881033">
        <ele>312.729</ele>
        <time>1970-01-01T01:00:00Z</time>
      </trkpt>
      <trkpt lat="63.42815017" lon="10.28878433">
        <ele>312.881</ele>
        <time>1970-01-01T01:00:00Z</time>
      </trkpt>
      <trkpt lat="63.42814" lon="10.28876033">
        <ele>312.881</ele>
        <time>1970-01-01T01:00:00Z</time>
      </trkpt>
      <trkpt lat="63.428129" lon="10.28873783">
        <ele>313.033</ele>
        <time>1970-01-01T01:00:00Z</time>
      </trkpt>
      <trkpt lat="63.42812067" lon="10.28871583">
        <ele>313.033</ele>
        <time>1970-01-01T01:00:00Z</time>
      </trkpt>
      <trkpt lat="63.42811667" lon="10.28868967">
        <ele>313.186</ele>
        <time>1970-01-01T01:00:00Z</time>
      </trkpt>
      <trkpt lat="63.4281135" lon="10.288662">
        <ele>313.186</ele>
        <time>1970-01-01T01:00:00Z</time>
      </trkpt>
      <trkpt lat="63.428107" lon="10.28863683">
        <ele>313.338</ele>
        <time>1970-01-01T01:00:00Z</time>
      </trkpt>
      <trkpt lat="63.42809733" lon="10.28861617">
        <ele>313.338</ele>
        <time>1970-01-01T01:00:00Z</time>
      </trkpt>
      <trkpt lat="63.42808483" lon="10.28859567">
        <ele>313.491</ele>
        <time>1970-01-01T01:00:00Z</time>
      </trkpt>
      <trkpt lat="63.42807367" lon="10.2885725">
        <ele>313.491</ele>
        <time>1970-01-01T01:00:00Z</time>
      </trkpt>
      <trkpt lat="63.428061" lon="10.2885465">
        <ele>313.643</ele>
        <time>1970-01-01T01:00:00Z</time>
      </trkpt>
      <trkpt lat="63.42805117" lon="10.28852">
        <ele>313.643</ele>
        <time>1970-01-01T01:00:00Z</time>
      </trkpt>
      <trkpt lat="63.42803833" lon="10.2884925">
        <ele>313.795</ele>
        <time>1970-01-01T01:00:00Z</time>
      </trkpt>
      <trkpt lat="63.42802017" lon="10.288465">
        <ele>313.795</ele>
        <time>1970-01-01T01:00:00Z</time>
      </trkpt>
      <trkpt lat="63.42800367" lon="10.28843833">
        <ele>313.795</ele>
        <time>1970-01-01T01:00:00Z</time>
      </trkpt>
      <trkpt lat="63.4279935" lon="10.288409">
        <ele>313.795</ele>
        <time>1970-01-01T01:00:00Z</time>
      </trkpt>
      <trkpt lat="63.42799233" lon="10.28838">
        <ele>313.795</ele>
        <time>1970-01-01T01:00:00Z</time>
      </trkpt>
      <trkpt lat="63.4279925" lon="10.2883495">
        <ele>313.795</ele>
        <time>1970-01-01T01:00:00Z</time>
      </trkpt>
      <trkpt lat="63.4279915" lon="10.28832133">
        <ele>313.948</ele>
        <time>1970-01-01T01:00:00Z</time>
      </trkpt>
      <trkpt lat="63.42799033" lon="10.28829317">
        <ele>313.948</ele>
        <time>1970-01-01T01:00:00Z</time>
      </trkpt>
      <trkpt lat="63.427987" lon="10.28826667">
        <ele>313.948</ele>
        <time>1970-01-01T01:00:00Z</time>
      </trkpt>
      <trkpt lat="63.42798517" lon="10.28824017">
        <ele>313.948</ele>
        <time>1970-01-01T01:00:00Z</time>
      </trkpt>
      <trkpt lat="63.4279855" lon="10.2882105">
        <ele>314.1</ele>
        <time>1970-01-01T01:00:00Z</time>
      </trkpt>
      <trkpt lat="63.427985" lon="10.28818017">
        <ele>314.1</ele>
        <time>1970-01-01T01:00:00Z</time>
      </trkpt>
      <trkpt lat="63.42797917" lon="10.28815233">
        <ele>314.253</ele>
        <time>1970-01-01T01:00:00Z</time>
      </trkpt>
      <trkpt lat="63.42796783" lon="10.288128">
        <ele>314.253</ele>
        <time>1970-01-01T01:00:00Z</time>
      </trkpt>
      <trkpt lat="63.427953" lon="10.2881035">
        <ele>314.405</ele>
        <time>1970-01-01T01:00:00Z</time>
      </trkpt>
      <trkpt lat="63.42793217" lon="10.28807633">
        <ele>314.405</ele>
        <time>1970-01-01T01:00:00Z</time>
      </trkpt>
      <trkpt lat="63.4279115" lon="10.28804717">
        <ele>314.405</ele>
        <time>1970-01-01T01:00:00Z</time>
      </trkpt>
      <trkpt lat="63.427885" lon="10.28802317">
        <ele>314.405</ele>
        <time>1970-01-01T01:00:00Z</time>
      </trkpt>
      <trkpt lat="63.42786533" lon="10.28799883">
        <ele>314.405</ele>
        <time>1970-01-01T01:00:00Z</time>
      </trkpt>
      <trkpt lat="63.42784767" lon="10.28797617">
        <ele>314.405</ele>
        <time>1970-01-01T01:00:00Z</time>
      </trkpt>
      <trkpt lat="63.42783483" lon="10.28794933">
        <ele>314.1</ele>
        <time>1970-01-01T01:00:00Z</time>
      </trkpt>
      <trkpt lat="63.42782533" lon="10.2879235">
        <ele>314.1</ele>
        <time>1970-01-01T01:00:00Z</time>
      </trkpt>
      <trkpt lat="63.427816" lon="10.2878945">
        <ele>313.948</ele>
        <time>1970-01-01T01:00:00Z</time>
      </trkpt>
      <trkpt lat="63.42781" lon="10.28786667">
        <ele>313.948</ele>
        <time>1970-01-01T01:00:00Z</time>
      </trkpt>
      <trkpt lat="63.42780233" lon="10.28784">
        <ele>313.643</ele>
        <time>1970-01-01T01:00:00Z</time>
      </trkpt>
      <trkpt lat="63.42779367" lon="10.287818">
        <ele>313.643</ele>
        <time>1970-01-01T01:00:00Z</time>
      </trkpt>
      <trkpt lat="63.42778617" lon="10.28779133">
        <ele>313.338</ele>
        <time>1970-01-01T01:00:00Z</time>
      </trkpt>
      <trkpt lat="63.427781" lon="10.287766">
        <ele>313.338</ele>
        <time>1970-01-01T01:00:00Z</time>
      </trkpt>
      <trkpt lat="63.427775" lon="10.28774017">
        <ele>313.033</ele>
        <time>1970-01-01T01:00:00Z</time>
      </trkpt>
      <trkpt lat="63.42776717" lon="10.28771467">
        <ele>313.033</ele>
        <time>1970-01-01T01:00:00Z</time>
      </trkpt>
      <trkpt lat="63.42775867" lon="10.28768983">
        <ele>312.729</ele>
        <time>1970-01-01T01:00:00Z</time>
      </trkpt>
      <trkpt lat="63.42775033" lon="10.28766533">
        <ele>312.729</ele>
        <time>1970-01-01T01:00:00Z</time>
      </trkpt>
      <trkpt lat="63.42774267" lon="10.287643">
        <ele>312.424</ele>
        <time>1970-01-01T01:00:00Z</time>
      </trkpt>
      <trkpt lat="63.42773267" lon="10.2876165">
        <ele>312.424</ele>
        <time>1970-01-01T01:00:00Z</time>
      </trkpt>
      <trkpt lat="63.42772533" lon="10.28758783">
        <ele>312.119</ele>
        <time>1970-01-01T01:00:00Z</time>
      </trkpt>
      <trkpt lat="63.427719" lon="10.28756333">
        <ele>312.119</ele>
        <time>1970-01-01T01:00:00Z</time>
      </trkpt>
      <trkpt lat="63.4277135" lon="10.28754033">
        <ele>311.967</ele>
        <time>1970-01-01T01:00:00Z</time>
      </trkpt>
      <trkpt lat="63.4277055" lon="10.287519">
        <ele>311.967</ele>
        <time>1970-01-01T01:00:00Z</time>
      </trkpt>
      <trkpt lat="63.4276995" lon="10.287493">
        <ele>311.662</ele>
        <time>1970-01-01T01:00:00Z</time>
      </trkpt>
      <trkpt lat="63.42769533" lon="10.28746233">
        <ele>311.662</ele>
        <time>1970-01-01T01:00:00Z</time>
      </trkpt>
      <trkpt lat="63.42769583" lon="10.28743117">
        <ele>311.509</ele>
        <time>1970-01-01T01:00:00Z</time>
      </trkpt>
      <trkpt lat="63.42769417" lon="10.28740133">
        <ele>311.509</ele>
        <time>1970-01-01T01:00:00Z</time>
      </trkpt>
      <trkpt lat="63.42768983" lon="10.2873745">
        <ele>311.357</ele>
        <time>1970-01-01T01:00:00Z</time>
      </trkpt>
      <trkpt lat="63.42768517" lon="10.28734667">
        <ele>311.357</ele>
        <time>1970-01-01T01:00:00Z</time>
      </trkpt>
      <trkpt lat="63.42768217" lon="10.28731933">
        <ele>311.205</ele>
        <time>1970-01-01T01:00:00Z</time>
      </trkpt>
      <trkpt lat="63.42768467" lon="10.28729033">
        <ele>311.205</ele>
        <time>1970-01-01T01:00:00Z</time>
      </trkpt>
      <trkpt lat="63.42768567" lon="10.28726233">
        <ele>311.205</ele>
        <time>1970-01-01T01:00:00Z</time>
      </trkpt>
      <trkpt lat="63.4276865" lon="10.287232">
        <ele>311.205</ele>
        <time>1970-01-01T01:00:00Z</time>
      </trkpt>
      <trkpt lat="63.42768167" lon="10.287205">
        <ele>311.052</ele>
        <time>1970-01-01T01:00:00Z</time>
      </trkpt>
      <trkpt lat="63.42767267" lon="10.287177">
        <ele>311.052</ele>
        <time>1970-01-01T01:00:00Z</time>
      </trkpt>
      <trkpt lat="63.42766117" lon="10.28715033">
        <ele>311.052</ele>
        <time>1970-01-01T01:00:00Z</time>
      </trkpt>
      <trkpt lat="63.4276505" lon="10.28712217">
        <ele>311.052</ele>
        <time>1970-01-01T01:00:00Z</time>
      </trkpt>
      <trkpt lat="63.42764017" lon="10.28709483">
        <ele>311.052</ele>
        <time>1970-01-01T01:00:00Z</time>
      </trkpt>
      <trkpt lat="63.4276285" lon="10.28706833">
        <ele>311.052</ele>
        <time>1970-01-01T01:00:00Z</time>
      </trkpt>
      <trkpt lat="63.427616" lon="10.2870435">
        <ele>310.9</ele>
        <time>1970-01-01T01:00:00Z</time>
      </trkpt>
      <trkpt lat="63.4276065" lon="10.28702033">
        <ele>310.9</ele>
        <time>1970-01-01T01:00:00Z</time>
      </trkpt>
      <trkpt lat="63.4275995" lon="10.28699533">
        <ele>310.747</ele>
        <time>1970-01-01T01:00:00Z</time>
      </trkpt>
      <trkpt lat="63.42759417" lon="10.286966">
        <ele>310.747</ele>
        <time>1970-01-01T01:00:00Z</time>
      </trkpt>
      <trkpt lat="63.4275885" lon="10.286934">
        <ele>310.595</ele>
        <time>1970-01-01T01:00:00Z</time>
      </trkpt>
      <trkpt lat="63.4275855" lon="10.28690067">
        <ele>310.595</ele>
        <time>1970-01-01T01:00:00Z</time>
      </trkpt>
      <trkpt lat="63.42758167" lon="10.28686733">
        <ele>310.29</ele>
        <time>1970-01-01T01:00:00Z</time>
      </trkpt>
      <trkpt lat="63.42757483" lon="10.2868285">
        <ele>310.29</ele>
        <time>1970-01-01T01:00:00Z</time>
      </trkpt>
      <trkpt lat="63.427565" lon="10.28678617">
        <ele>310.138</ele>
        <time>1970-01-01T01:00:00Z</time>
      </trkpt>
      <trkpt lat="63.42755967" lon="10.28674233">
        <ele>310.138</ele>
        <time>1970-01-01T01:00:00Z</time>
      </trkpt>
      <trkpt lat="63.4275585" lon="10.28670483">
        <ele>309.833</ele>
        <time>1970-01-01T01:00:00Z</time>
      </trkpt>
      <trkpt lat="63.42755933" lon="10.28667217">
        <ele>309.833</ele>
        <time>1970-01-01T01:00:00Z</time>
      </trkpt>
      <trkpt lat="63.4275575" lon="10.28663883">
        <ele>309.681</ele>
        <time>1970-01-01T01:00:00Z</time>
      </trkpt>
      <trkpt lat="63.427557" lon="10.28660417">
        <ele>309.681</ele>
        <time>1970-01-01T01:00:00Z</time>
      </trkpt>
      <trkpt lat="63.4275565" lon="10.2865695">
        <ele>309.376</ele>
        <time>1970-01-01T01:00:00Z</time>
      </trkpt>
      <trkpt lat="63.42755767" lon="10.28653467">
        <ele>309.376</ele>
        <time>1970-01-01T01:00:00Z</time>
      </trkpt>
      <trkpt lat="63.4275565" lon="10.2865005">
        <ele>309.223</ele>
        <time>1970-01-01T01:00:00Z</time>
      </trkpt>
      <trkpt lat="63.427555" lon="10.28646583">
        <ele>309.223</ele>
        <time>1970-01-01T01:00:00Z</time>
      </trkpt>
      <trkpt lat="63.42755333" lon="10.286433">
        <ele>308.919</ele>
        <time>1970-01-01T01:00:00Z</time>
      </trkpt>
      <trkpt lat="63.42755417" lon="10.28640283">
        <ele>308.919</ele>
        <time>1970-01-01T01:00:00Z</time>
      </trkpt>
      <trkpt lat="63.42755717" lon="10.28637467">
        <ele>308.766</ele>
        <time>1970-01-01T01:00:00Z</time>
      </trkpt>
      <trkpt lat="63.42755817" lon="10.28634517">
        <ele>308.766</ele>
        <time>1970-01-01T01:00:00Z</time>
      </trkpt>
      <trkpt lat="63.42756083" lon="10.28631217">
        <ele>308.461</ele>
        <time>1970-01-01T01:00:00Z</time>
      </trkpt>
      <trkpt lat="63.42756167" lon="10.28628017">
        <ele>308.461</ele>
        <time>1970-01-01T01:00:00Z</time>
      </trkpt>
      <trkpt lat="63.42756367" lon="10.2862495">
        <ele>308.309</ele>
        <time>1970-01-01T01:00:00Z</time>
      </trkpt>
      <trkpt lat="63.42756567" lon="10.28621817">
        <ele>308.309</ele>
        <time>1970-01-01T01:00:00Z</time>
      </trkpt>
      <trkpt lat="63.42756867" lon="10.28618517">
        <ele>308.157</ele>
        <time>1970-01-01T01:00:00Z</time>
      </trkpt>
      <trkpt lat="63.42757083" lon="10.28615683">
        <ele>308.157</ele>
        <time>1970-01-01T01:00:00Z</time>
      </trkpt>
      <trkpt lat="63.4275715" lon="10.28612917">
        <ele>308.004</ele>
        <time>1970-01-01T01:00:00Z</time>
      </trkpt>
      <trkpt lat="63.42757217" lon="10.28610133">
        <ele>308.004</ele>
        <time>1970-01-01T01:00:00Z</time>
      </trkpt>
      <trkpt lat="63.4275745" lon="10.286073">
        <ele>307.852</ele>
        <time>1970-01-01T01:00:00Z</time>
      </trkpt>
      <trkpt lat="63.42757917" lon="10.28604483">
        <ele>307.852</ele>
        <time>1970-01-01T01:00:00Z</time>
      </trkpt>
      <trkpt lat="63.427586" lon="10.28601433">
        <ele>307.699</ele>
        <time>1970-01-01T01:00:00Z</time>
      </trkpt>
      <trkpt lat="63.42759217" lon="10.28598533">
        <ele>307.699</ele>
        <time>1970-01-01T01:00:00Z</time>
      </trkpt>
      <trkpt lat="63.427597" lon="10.28595733">
        <ele>307.547</ele>
        <time>1970-01-01T01:00:00Z</time>
      </trkpt>
      <trkpt lat="63.42760117" lon="10.285932">
        <ele>307.547</ele>
        <time>1970-01-01T01:00:00Z</time>
      </trkpt>
      <trkpt lat="63.42760667" lon="10.285908">
        <ele>307.395</ele>
        <time>1970-01-01T01:00:00Z</time>
      </trkpt>
      <trkpt lat="63.42761083" lon="10.28588417">
        <ele>307.395</ele>
        <time>1970-01-01T01:00:00Z</time>
      </trkpt>
      <trkpt lat="63.42761317" lon="10.2858615">
        <ele>307.395</ele>
        <time>1970-01-01T01:00:00Z</time>
      </trkpt>
      <trkpt lat="63.4276115" lon="10.28583767">
        <ele>307.395</ele>
        <time>1970-01-01T01:00:00Z</time>
      </trkpt>
      <trkpt lat="63.4276055" lon="10.28580933">
        <ele>307.242</ele>
        <time>1970-01-01T01:00:00Z</time>
      </trkpt>
      <trkpt lat="63.427597" lon="10.28577417">
        <ele>307.242</ele>
        <time>1970-01-01T01:00:00Z</time>
      </trkpt>
      <trkpt lat="63.4275875" lon="10.28573533">
        <ele>307.09</ele>
        <time>1970-01-01T01:00:00Z</time>
      </trkpt>
      <trkpt lat="63.42758033" lon="10.285699">
        <ele>307.09</ele>
        <time>1970-01-01T01:00:00Z</time>
      </trkpt>
      <trkpt lat="63.4275745" lon="10.2856645">
        <ele>306.937</ele>
        <time>1970-01-01T01:00:00Z</time>
      </trkpt>
      <trkpt lat="63.42757067" lon="10.2856295">
        <ele>306.937</ele>
        <time>1970-01-01T01:00:00Z</time>
      </trkpt>
      <trkpt lat="63.427567" lon="10.28559233">
        <ele>306.785</ele>
        <time>1970-01-01T01:00:00Z</time>
      </trkpt>
      <trkpt lat="63.4275635" lon="10.285561">
        <ele>306.785</ele>
        <time>1970-01-01T01:00:00Z</time>
      </trkpt>
      <trkpt lat="63.4275595" lon="10.28553233">
        <ele>306.633</ele>
        <time>1970-01-01T01:00:00Z</time>
      </trkpt>
      <trkpt lat="63.42755633" lon="10.28550483">
        <ele>306.633</ele>
        <time>1970-01-01T01:00:00Z</time>
      </trkpt>
      <trkpt lat="63.42755383" lon="10.28547">
        <ele>306.48</ele>
        <time>1970-01-01T01:00:00Z</time>
      </trkpt>
      <trkpt lat="63.42754967" lon="10.285438">
        <ele>306.48</ele>
        <time>1970-01-01T01:00:00Z</time>
      </trkpt>
      <trkpt lat="63.42754617" lon="10.28540917">
        <ele>306.48</ele>
        <time>1970-01-01T01:00:00Z</time>
      </trkpt>
      <trkpt lat="63.42754133" lon="10.28538783">
        <ele>306.48</ele>
        <time>1970-01-01T01:00:00Z</time>
      </trkpt>
      <trkpt lat="63.4275405" lon="10.28536667">
        <ele>306.328</ele>
        <time>1970-01-01T01:00:00Z</time>
      </trkpt>
      <trkpt lat="63.42753983" lon="10.28534733">
        <ele>306.328</ele>
        <time>1970-01-01T01:00:00Z</time>
      </trkpt>
      <trkpt lat="63.42754217" lon="10.28532467">
        <ele>306.175</ele>
        <time>1970-01-01T01:00:00Z</time>
      </trkpt>
      <trkpt lat="63.42754367" lon="10.28529833">
        <ele>306.175</ele>
        <time>1970-01-01T01:00:00Z</time>
      </trkpt>
      <trkpt lat="63.4275455" lon="10.28526667">
        <ele>306.175</ele>
        <time>1970-01-01T01:00:00Z</time>
      </trkpt>
      <trkpt lat="63.4275465" lon="10.2852325">
        <ele>306.175</ele>
        <time>1970-01-01T01:00:00Z</time>
      </trkpt>
      <trkpt lat="63.42754833" lon="10.28519633">
        <ele>306.023</ele>
        <time>1970-01-01T01:00:00Z</time>
      </trkpt>
      <trkpt lat="63.4275505" lon="10.28516183">
        <ele>306.023</ele>
        <time>1970-01-01T01:00:00Z</time>
      </trkpt>
      <trkpt lat="63.42755467" lon="10.28512817">
        <ele>306.023</ele>
        <time>1970-01-01T01:00:00Z</time>
      </trkpt>
      <trkpt lat="63.42755967" lon="10.28509767">
        <ele>306.023</ele>
        <time>1970-01-01T01:00:00Z</time>
      </trkpt>
      <trkpt lat="63.42756483" lon="10.28506783">
        <ele>305.871</ele>
        <time>1970-01-01T01:00:00Z</time>
      </trkpt>
      <trkpt lat="63.42757" lon="10.28504183">
        <ele>305.871</ele>
        <time>1970-01-01T01:00:00Z</time>
      </trkpt>
      <trkpt lat="63.427575" lon="10.285018">
        <ele>305.718</ele>
        <time>1970-01-01T01:00:00Z</time>
      </trkpt>
      <trkpt lat="63.42758033" lon="10.28499383">
        <ele>305.718</ele>
        <time>1970-01-01T01:00:00Z</time>
      </trkpt>
      <trkpt lat="63.42758483" lon="10.28496867">
        <ele>305.566</ele>
        <time>1970-01-01T01:00:00Z</time>
      </trkpt>
      <trkpt lat="63.42758967" lon="10.284943">
        <ele>305.566</ele>
        <time>1970-01-01T01:00:00Z</time>
      </trkpt>
      <trkpt lat="63.42759383" lon="10.28491883">
        <ele>305.566</ele>
        <time>1970-01-01T01:00:00Z</time>
      </trkpt>
      <trkpt lat="63.4275975" lon="10.28489583">
        <ele>305.566</ele>
        <time>1970-01-01T01:00:00Z</time>
      </trkpt>
      <trkpt lat="63.42760117" lon="10.28487067">
        <ele>305.413</ele>
        <time>1970-01-01T01:00:00Z</time>
      </trkpt>
      <trkpt lat="63.427606" lon="10.28484433">
        <ele>305.413</ele>
        <time>1970-01-01T01:00:00Z</time>
      </trkpt>
      <trkpt lat="63.4276115" lon="10.28481783">
        <ele>305.261</ele>
        <time>1970-01-01T01:00:00Z</time>
      </trkpt>
      <trkpt lat="63.42761667" lon="10.2847935">
        <ele>305.261</ele>
        <time>1970-01-01T01:00:00Z</time>
      </trkpt>
      <trkpt lat="63.42762183" lon="10.28477017">
        <ele>305.108</ele>
        <time>1970-01-01T01:00:00Z</time>
      </trkpt>
      <trkpt lat="63.42762717" lon="10.284747">
        <ele>305.108</ele>
        <time>1970-01-01T01:00:00Z</time>
      </trkpt>
      <trkpt lat="63.42763283" lon="10.28472267">
        <ele>304.956</ele>
        <time>1970-01-01T01:00:00Z</time>
      </trkpt>
      <trkpt lat="63.42763733" lon="10.28469717">
        <ele>304.956</ele>
        <time>1970-01-01T01:00:00Z</time>
      </trkpt>
      <trkpt lat="63.427643" lon="10.284668">
        <ele>304.804</ele>
        <time>1970-01-01T01:00:00Z</time>
      </trkpt>
      <trkpt lat="63.42764867" lon="10.28463667">
        <ele>304.804</ele>
        <time>1970-01-01T01:00:00Z</time>
      </trkpt>
      <trkpt lat="63.42765517" lon="10.28460517">
        <ele>304.804</ele>
        <time>1970-01-01T01:00:00Z</time>
      </trkpt>
      <trkpt lat="63.42766017" lon="10.28457633">
        <ele>304.804</ele>
        <time>1970-01-01T01:00:00Z</time>
      </trkpt>
      <trkpt lat="63.42766633" lon="10.2845465">
        <ele>304.651</ele>
        <time>1970-01-01T01:00:00Z</time>
      </trkpt>
      <trkpt lat="63.4276735" lon="10.28451667">
        <ele>304.651</ele>
        <time>1970-01-01T01:00:00Z</time>
      </trkpt>
      <trkpt lat="63.42768117" lon="10.2844845">
        <ele>304.499</ele>
        <time>1970-01-01T01:00:00Z</time>
      </trkpt>
      <trkpt lat="63.42768783" lon="10.28445383">
        <ele>304.499</ele>
        <time>1970-01-01T01:00:00Z</time>
      </trkpt>
      <trkpt lat="63.42769283" lon="10.28442217">
        <ele>304.499</ele>
        <time>1970-01-01T01:00:00Z</time>
      </trkpt>
      <trkpt lat="63.427697" lon="10.2843915">
        <ele>304.499</ele>
        <time>1970-01-01T01:00:00Z</time>
      </trkpt>
      <trkpt lat="63.42770233" lon="10.284361">
        <ele>304.499</ele>
        <time>1970-01-01T01:00:00Z</time>
      </trkpt>
      <trkpt lat="63.42770733" lon="10.284329">
        <ele>304.499</ele>
        <time>1970-01-01T01:00:00Z</time>
      </trkpt>
      <trkpt lat="63.42771283" lon="10.28429633">
        <ele>304.346</ele>
        <time>1970-01-01T01:00:00Z</time>
      </trkpt>
      <trkpt lat="63.42771817" lon="10.284263">
        <ele>304.346</ele>
        <time>1970-01-01T01:00:00Z</time>
      </trkpt>
      <trkpt lat="63.42772467" lon="10.284231">
        <ele>304.346</ele>
        <time>1970-01-01T01:00:00Z</time>
      </trkpt>
      <trkpt lat="63.42773" lon="10.28419883">
        <ele>304.346</ele>
        <time>1970-01-01T01:00:00Z</time>
      </trkpt>
      <trkpt lat="63.42773683" lon="10.28416767">
        <ele>304.346</ele>
        <time>1970-01-01T01:00:00Z</time>
      </trkpt>
      <trkpt lat="63.42774283" lon="10.28413883">
        <ele>304.346</ele>
        <time>1970-01-01T01:00:00Z</time>
      </trkpt>
      <trkpt lat="63.42774917" lon="10.2841135">
        <ele>304.194</ele>
        <time>1970-01-01T01:00:00Z</time>
      </trkpt>
      <trkpt lat="63.42775383" lon="10.28408867">
        <ele>304.194</ele>
        <time>1970-01-01T01:00:00Z</time>
      </trkpt>
      <trkpt lat="63.42775983" lon="10.2840655">
        <ele>304.194</ele>
        <time>1970-01-01T01:00:00Z</time>
      </trkpt>
      <trkpt lat="63.42776633" lon="10.28404367">
        <ele>304.194</ele>
        <time>1970-01-01T01:00:00Z</time>
      </trkpt>
      <trkpt lat="63.427775" lon="10.28402">
        <ele>304.194</ele>
        <time>1970-01-01T01:00:00Z</time>
      </trkpt>
      <trkpt lat="63.42778283" lon="10.283993">
        <ele>304.194</ele>
        <time>1970-01-01T01:00:00Z</time>
      </trkpt>
      <trkpt lat="63.427791" lon="10.28396267">
        <ele>304.194</ele>
        <time>1970-01-01T01:00:00Z</time>
      </trkpt>
      <trkpt lat="63.42779517" lon="10.28393167">
        <ele>304.194</ele>
        <time>1970-01-01T01:00:00Z</time>
      </trkpt>
      <trkpt lat="63.42780033" lon="10.28389967">
        <ele>304.194</ele>
        <time>1970-01-01T01:00:00Z</time>
      </trkpt>
      <trkpt lat="63.42780417" lon="10.28386783">
        <ele>304.194</ele>
        <time>1970-01-01T01:00:00Z</time>
      </trkpt>
      <trkpt lat="63.42780867" lon="10.28383933">
        <ele>304.194</ele>
        <time>1970-01-01T01:00:00Z</time>
      </trkpt>
      <trkpt lat="63.4278125" lon="10.28381383">
        <ele>304.194</ele>
        <time>1970-01-01T01:00:00Z</time>
      </trkpt>
      <trkpt lat="63.42781633" lon="10.283788">
        <ele>304.194</ele>
        <time>1970-01-01T01:00:00Z</time>
      </trkpt>
      <trkpt lat="63.42782233" lon="10.283761">
        <ele>304.194</ele>
        <time>1970-01-01T01:00:00Z</time>
      </trkpt>
      <trkpt lat="63.42782767" lon="10.28373267">
        <ele>304.194</ele>
        <time>1970-01-01T01:00:00Z</time>
      </trkpt>
      <trkpt lat="63.42783283" lon="10.28370667">
        <ele>304.194</ele>
        <time>1970-01-01T01:00:00Z</time>
      </trkpt>
      <trkpt lat="63.42783517" lon="10.28368117">
        <ele>304.194</ele>
        <time>1970-01-01T01:00:00Z</time>
      </trkpt>
      <trkpt lat="63.42783733" lon="10.2836565">
        <ele>304.194</ele>
        <time>1970-01-01T01:00:00Z</time>
      </trkpt>
      <trkpt lat="63.4278395" lon="10.28362933">
        <ele>304.194</ele>
        <time>1970-01-01T01:00:00Z</time>
      </trkpt>
      <trkpt lat="63.42784267" lon="10.2836035">
        <ele>304.194</ele>
        <time>1970-01-01T01:00:00Z</time>
      </trkpt>
      <trkpt lat="63.42784567" lon="10.28357833">
        <ele>304.194</ele>
        <time>1970-01-01T01:00:00Z</time>
      </trkpt>
      <trkpt lat="63.42784683" lon="10.28355583">
        <ele>304.194</ele>
        <time>1970-01-01T01:00:00Z</time>
      </trkpt>
      <trkpt lat="63.42784617" lon="10.28353317">
        <ele>304.194</ele>
        <time>1970-01-01T01:00:00Z</time>
      </trkpt>
      <trkpt lat="63.42784217" lon="10.28351217">
        <ele>304.194</ele>
        <time>1970-01-01T01:00:00Z</time>
      </trkpt>
      <trkpt lat="63.42783617" lon="10.283488">
        <ele>304.194</ele>
        <time>1970-01-01T01:00:00Z</time>
      </trkpt>
      <trkpt lat="63.4278295" lon="10.28345933">
        <ele>304.194</ele>
        <time>1970-01-01T01:00:00Z</time>
      </trkpt>
      <trkpt lat="63.427825" lon="10.28342933">
        <ele>304.194</ele>
        <time>1970-01-01T01:00:00Z</time>
      </trkpt>
      <trkpt lat="63.42782083" lon="10.2834">
        <ele>304.194</ele>
        <time>1970-01-01T01:00:00Z</time>
      </trkpt>
      <trkpt lat="63.427817" lon="10.28337083">
        <ele>304.194</ele>
        <time>1970-01-01T01:00:00Z</time>
      </trkpt>
      <trkpt lat="63.42781317" lon="10.28333933">
        <ele>304.194</ele>
        <time>1970-01-01T01:00:00Z</time>
      </trkpt>
      <trkpt lat="63.42780767" lon="10.283309">
        <ele>304.042</ele>
        <time>1970-01-01T01:00:00Z</time>
      </trkpt>
      <trkpt lat="63.42780167" lon="10.28328">
        <ele>304.042</ele>
        <time>1970-01-01T01:00:00Z</time>
      </trkpt>
      <trkpt lat="63.42779333" lon="10.28325417">
        <ele>304.042</ele>
        <time>1970-01-01T01:00:00Z</time>
      </trkpt>
      <trkpt lat="63.4277865" lon="10.28322667">
        <ele>304.042</ele>
        <time>1970-01-01T01:00:00Z</time>
      </trkpt>
      <trkpt lat="63.42778017" lon="10.283199">
        <ele>304.042</ele>
        <time>1970-01-01T01:00:00Z</time>
      </trkpt>
      <trkpt lat="63.42777567" lon="10.2831705">
        <ele>304.042</ele>
        <time>1970-01-01T01:00:00Z</time>
      </trkpt>
      <trkpt lat="63.42777317" lon="10.283143">
        <ele>303.889</ele>
        <time>1970-01-01T01:00:00Z</time>
      </trkpt>
      <trkpt lat="63.42777283" lon="10.28311633">
        <ele>303.889</ele>
        <time>1970-01-01T01:00:00Z</time>
      </trkpt>
      <trkpt lat="63.42777483" lon="10.28308783">
        <ele>303.889</ele>
        <time>1970-01-01T01:00:00Z</time>
      </trkpt>
      <trkpt lat="63.42777917" lon="10.28305983">
        <ele>303.889</ele>
        <time>1970-01-01T01:00:00Z</time>
      </trkpt>
      <trkpt lat="63.42778383" lon="10.2830345">
        <ele>303.889</ele>
        <time>1970-01-01T01:00:00Z</time>
      </trkpt>
      <trkpt lat="63.42778983" lon="10.283012">
        <ele>303.889</ele>
        <time>1970-01-01T01:00:00Z</time>
      </trkpt>
      <trkpt lat="63.42779433" lon="10.28299017">
        <ele>303.737</ele>
        <time>1970-01-01T01:00:00Z</time>
      </trkpt>
      <trkpt lat="63.42779767" lon="10.28296833">
        <ele>303.737</ele>
        <time>1970-01-01T01:00:00Z</time>
      </trkpt>
      <trkpt lat="63.42779883" lon="10.282947">
        <ele>303.737</ele>
        <time>1970-01-01T01:00:00Z</time>
      </trkpt>
      <trkpt lat="63.4277985" lon="10.28292533">
        <ele>303.737</ele>
        <time>1970-01-01T01:00:00Z</time>
      </trkpt>
      <trkpt lat="63.427797" lon="10.28290133">
        <ele>303.737</ele>
        <time>1970-01-01T01:00:00Z</time>
      </trkpt>
      <trkpt lat="63.42779467" lon="10.28287717">
        <ele>303.737</ele>
        <time>1970-01-01T01:00:00Z</time>
      </trkpt>
      <trkpt lat="63.42779183" lon="10.282854">
        <ele>303.737</ele>
        <time>1970-01-01T01:00:00Z</time>
      </trkpt>
      <trkpt lat="63.42778933" lon="10.2828325">
        <ele>303.737</ele>
        <time>1970-01-01T01:00:00Z</time>
      </trkpt>
      <trkpt lat="63.4277855" lon="10.282813">
        <ele>303.737</ele>
        <time>1970-01-01T01:00:00Z</time>
      </trkpt>
      <trkpt lat="63.4277815" lon="10.28279667">
        <ele>303.737</ele>
        <time>1970-01-01T01:00:00Z</time>
      </trkpt>
      <trkpt lat="63.427777" lon="10.2827825">
        <ele>303.737</ele>
        <time>1970-01-01T01:00:00Z</time>
      </trkpt>
      <trkpt lat="63.427772" lon="10.28276683">
        <ele>303.737</ele>
        <time>1970-01-01T01:00:00Z</time>
      </trkpt>
      <trkpt lat="63.42776583" lon="10.28275067">
        <ele>303.584</ele>
        <time>1970-01-01T01:00:00Z</time>
      </trkpt>
      <trkpt lat="63.427759" lon="10.28273283">
        <ele>303.584</ele>
        <time>1970-01-01T01:00:00Z</time>
      </trkpt>
      <trkpt lat="63.42775217" lon="10.28271333">
        <ele>303.737</ele>
        <time>1970-01-01T01:00:00Z</time>
      </trkpt>
      <trkpt lat="63.427746" lon="10.2826895">
        <ele>303.737</ele>
        <time>1970-01-01T01:00:00Z</time>
      </trkpt>
      <trkpt lat="63.42774083" lon="10.282667">
        <ele>303.737</ele>
        <time>1970-01-01T01:00:00Z</time>
      </trkpt>
      <trkpt lat="63.42773533" lon="10.2826445">
        <ele>303.737</ele>
        <time>1970-01-01T01:00:00Z</time>
      </trkpt>
      <trkpt lat="63.42773083" lon="10.28262433">
        <ele>303.737</ele>
        <time>1970-01-01T01:00:00Z</time>
      </trkpt>
      <trkpt lat="63.42772183" lon="10.28260383">
        <ele>303.737</ele>
        <time>1970-01-01T01:00:00Z</time>
      </trkpt>
      <trkpt lat="63.42771167" lon="10.282584">
        <ele>303.737</ele>
        <time>1970-01-01T01:00:00Z</time>
      </trkpt>
      <trkpt lat="63.427701" lon="10.28256167">
        <ele>303.737</ele>
        <time>1970-01-01T01:00:00Z</time>
      </trkpt>
      <trkpt lat="63.42769283" lon="10.28253633">
        <ele>303.889</ele>
        <time>1970-01-01T01:00:00Z</time>
      </trkpt>
      <trkpt lat="63.42768633" lon="10.28250867">
        <ele>303.889</ele>
        <time>1970-01-01T01:00:00Z</time>
      </trkpt>
      <trkpt lat="63.42767967" lon="10.28248083">
        <ele>303.889</ele>
        <time>1970-01-01T01:00:00Z</time>
      </trkpt>
      <trkpt lat="63.4276735" lon="10.2824535">
        <ele>303.889</ele>
        <time>1970-01-01T01:00:00Z</time>
      </trkpt>
      <trkpt lat="63.4276695" lon="10.282427">
        <ele>303.889</ele>
        <time>1970-01-01T01:00:00Z</time>
      </trkpt>
      <trkpt lat="63.4276625" lon="10.28240017">
        <ele>303.889</ele>
        <time>1970-01-01T01:00:00Z</time>
      </trkpt>
      <trkpt lat="63.4276555" lon="10.2823725">
        <ele>303.889</ele>
        <time>1970-01-01T01:00:00Z</time>
      </trkpt>
      <trkpt lat="63.42764683" lon="10.28234617">
        <ele>303.889</ele>
        <time>1970-01-01T01:00:00Z</time>
      </trkpt>
      <trkpt lat="63.42764017" lon="10.28231967">
        <ele>303.889</ele>
        <time>1970-01-01T01:00:00Z</time>
      </trkpt>
      <trkpt lat="63.427631" lon="10.282291">
        <ele>303.889</ele>
        <time>1970-01-01T01:00:00Z</time>
      </trkpt>
      <trkpt lat="63.427621" lon="10.282263">
        <ele>303.737</ele>
        <time>1970-01-01T01:00:00Z</time>
      </trkpt>
      <trkpt lat="63.427609" lon="10.28223967">
        <ele>303.737</ele>
        <time>1970-01-01T01:00:00Z</time>
      </trkpt>
      <trkpt lat="63.42759783" lon="10.2822175">
        <ele>303.737</ele>
        <time>1970-01-01T01:00:00Z</time>
      </trkpt>
      <trkpt lat="63.4275875" lon="10.28219433">
        <ele>303.737</ele>
        <time>1970-01-01T01:00:00Z</time>
      </trkpt>
      <trkpt lat="63.427578" lon="10.2821735">
        <ele>303.737</ele>
        <time>1970-01-01T01:00:00Z</time>
      </trkpt>
      <trkpt lat="63.42757133" lon="10.28215933">
        <ele>303.737</ele>
        <time>1970-01-01T01:00:00Z</time>
      </trkpt>
      <trkpt lat="63.427563" lon="10.28215233">
        <ele>303.737</ele>
        <time>1970-01-01T01:00:00Z</time>
      </trkpt>
      <trkpt lat="63.4275535" lon="10.28214867">
        <ele>303.737</ele>
        <time>1970-01-01T01:00:00Z</time>
      </trkpt>
      <trkpt lat="63.4275415" lon="10.28214883">
        <ele>303.584</ele>
        <time>1970-01-01T01:00:00Z</time>
      </trkpt>
      <trkpt lat="63.42753033" lon="10.2821505">
        <ele>303.584</ele>
        <time>1970-01-01T01:00:00Z</time>
      </trkpt>
      <trkpt lat="63.4275195" lon="10.28215333">
        <ele>303.584</ele>
        <time>1970-01-01T01:00:00Z</time>
      </trkpt>
      <trkpt lat="63.427509" lon="10.28215383">
        <ele>303.584</ele>
        <time>1970-01-01T01:00:00Z</time>
      </trkpt>
      <trkpt lat="63.42749833" lon="10.28215317">
        <ele>303.584</ele>
        <time>1970-01-01T01:00:00Z</time>
      </trkpt>
      <trkpt lat="63.42749067" lon="10.28214967">
        <ele>303.584</ele>
        <time>1970-01-01T01:00:00Z</time>
      </trkpt>
      <trkpt lat="63.42748167" lon="10.28214883">
        <ele>303.584</ele>
        <time>1970-01-01T01:00:00Z</time>
      </trkpt>
      <trkpt lat="63.4274725" lon="10.282149">
        <ele>303.584</ele>
        <time>1970-01-01T01:00:00Z</time>
      </trkpt>
      <trkpt lat="63.427461" lon="10.28215">
        <ele>303.432</ele>
        <time>1970-01-01T01:00:00Z</time>
      </trkpt>
      <trkpt lat="63.42744967" lon="10.2821495">
        <ele>303.432</ele>
        <time>1970-01-01T01:00:00Z</time>
      </trkpt>
      <trkpt lat="63.4274385" lon="10.282148">
        <ele>303.432</ele>
        <time>1970-01-01T01:00:00Z</time>
      </trkpt>
      <trkpt lat="63.4274285" lon="10.28214867">
        <ele>303.432</ele>
        <time>1970-01-01T01:00:00Z</time>
      </trkpt>
      <trkpt lat="63.42741967" lon="10.282153">
        <ele>303.432</ele>
        <time>1970-01-01T01:00:00Z</time>
      </trkpt>
      <trkpt lat="63.42741067" lon="10.28216133">
        <ele>303.432</ele>
        <time>1970-01-01T01:00:00Z</time>
      </trkpt>
      <trkpt lat="63.42740133" lon="10.28216883">
        <ele>303.432</ele>
        <time>1970-01-01T01:00:00Z</time>
      </trkpt>
      <trkpt lat="63.42739267" lon="10.2821765">
        <ele>303.432</ele>
        <time>1970-01-01T01:00:00Z</time>
      </trkpt>
      <trkpt lat="63.4273845" lon="10.28218533">
        <ele>303.28</ele>
        <time>1970-01-01T01:00:00Z</time>
      </trkpt>
      <trkpt lat="63.42737517" lon="10.28219667">
        <ele>303.28</ele>
        <time>1970-01-01T01:00:00Z</time>
      </trkpt>
      <trkpt lat="63.42736533" lon="10.28220967">
        <ele>303.28</ele>
        <time>1970-01-01T01:00:00Z</time>
      </trkpt>
      <trkpt lat="63.42735617" lon="10.282221">
        <ele>303.28</ele>
        <time>1970-01-01T01:00:00Z</time>
      </trkpt>
      <trkpt lat="63.427347" lon="10.2822325">
        <ele>303.28</ele>
        <time>1970-01-01T01:00:00Z</time>
      </trkpt>
      <trkpt lat="63.42733417" lon="10.28224617">
        <ele>303.28</ele>
        <time>1970-01-01T01:00:00Z</time>
      </trkpt>
      <trkpt lat="63.42732167" lon="10.282259">
        <ele>303.28</ele>
        <time>1970-01-01T01:00:00Z</time>
      </trkpt>
      <trkpt lat="63.4273095" lon="10.28227367">
        <ele>303.28</ele>
        <time>1970-01-01T01:00:00Z</time>
      </trkpt>
      <trkpt lat="63.4272985" lon="10.28228633">
        <ele>303.28</ele>
        <time>1970-01-01T01:00:00Z</time>
      </trkpt>
      <trkpt lat="63.427283" lon="10.2823035">
        <ele>303.28</ele>
        <time>1970-01-01T01:00:00Z</time>
      </trkpt>
      <trkpt lat="63.4272665" lon="10.28232383">
        <ele>303.28</ele>
        <time>1970-01-01T01:00:00Z</time>
      </trkpt>
      <trkpt lat="63.42725267" lon="10.282344">
        <ele>303.28</ele>
        <time>1970-01-01T01:00:00Z</time>
      </trkpt>
      <trkpt lat="63.42724083" lon="10.28236183">
        <ele>303.28</ele>
        <time>1970-01-01T01:00:00Z</time>
      </trkpt>
      <trkpt lat="63.427231" lon="10.28237517">
        <ele>303.28</ele>
        <time>1970-01-01T01:00:00Z</time>
      </trkpt>
      <trkpt lat="63.427219" lon="10.282387">
        <ele>303.28</ele>
        <time>1970-01-01T01:00:00Z</time>
      </trkpt>
      <trkpt lat="63.427208" lon="10.28240383">
        <ele>303.28</ele>
        <time>1970-01-01T01:00:00Z</time>
      </trkpt>
      <trkpt lat="63.42719483" lon="10.28242117">
        <ele>303.28</ele>
        <time>1970-01-01T01:00:00Z</time>
      </trkpt>
      <trkpt lat="63.42718133" lon="10.282441">
        <ele>303.28</ele>
        <time>1970-01-01T01:00:00Z</time>
      </trkpt>
      <trkpt lat="63.427168" lon="10.2824575">
        <ele>303.28</ele>
        <time>1970-01-01T01:00:00Z</time>
      </trkpt>
      <trkpt lat="63.42715633" lon="10.282475">
        <ele>303.28</ele>
        <time>1970-01-01T01:00:00Z</time>
      </trkpt>
      <trkpt lat="63.42714583" lon="10.28249">
        <ele>303.28</ele>
        <time>1970-01-01T01:00:00Z</time>
      </trkpt>
      <trkpt lat="63.42713567" lon="10.28250417">
        <ele>303.28</ele>
        <time>1970-01-01T01:00:00Z</time>
      </trkpt>
      <trkpt lat="63.4271245" lon="10.282517">
        <ele>303.28</ele>
        <time>1970-01-01T01:00:00Z</time>
      </trkpt>
      <trkpt lat="63.427114" lon="10.28253133">
        <ele>303.28</ele>
        <time>1970-01-01T01:00:00Z</time>
      </trkpt>
      <trkpt lat="63.42710433" lon="10.28254583">
        <ele>303.127</ele>
        <time>1970-01-01T01:00:00Z</time>
      </trkpt>
      <trkpt lat="63.4270955" lon="10.28256">
        <ele>303.127</ele>
        <time>1970-01-01T01:00:00Z</time>
      </trkpt>
      <trkpt lat="63.42708767" lon="10.28257867">
        <ele>302.975</ele>
        <time>1970-01-01T01:00:00Z</time>
      </trkpt>
      <trkpt lat="63.4270785" lon="10.28259833">
        <ele>302.975</ele>
        <time>1970-01-01T01:00:00Z</time>
      </trkpt>
      <trkpt lat="63.42707" lon="10.28262033">
        <ele>302.975</ele>
        <time>1970-01-01T01:00:00Z</time>
      </trkpt>
      <trkpt lat="63.427059" lon="10.28263717">
        <ele>302.975</ele>
        <time>1970-01-01T01:00:00Z</time>
      </trkpt>
      <trkpt lat="63.427049" lon="10.2826535">
        <ele>302.822</ele>
        <time>1970-01-01T01:00:00Z</time>
      </trkpt>
      <trkpt lat="63.42703883" lon="10.28267117">
        <ele>302.822</ele>
        <time>1970-01-01T01:00:00Z</time>
      </trkpt>
      <trkpt lat="63.42703017" lon="10.28269017">
        <ele>302.822</ele>
        <time>1970-01-01T01:00:00Z</time>
      </trkpt>
      <trkpt lat="63.42702133" lon="10.282707">
        <ele>302.822</ele>
        <time>1970-01-01T01:00:00Z</time>
      </trkpt>
      <trkpt lat="63.4270125" lon="10.2827205">
        <ele>302.67</ele>
        <time>1970-01-01T01:00:00Z</time>
      </trkpt>
      <trkpt lat="63.42700417" lon="10.282734">
        <ele>302.67</ele>
        <time>1970-01-01T01:00:00Z</time>
      </trkpt>
      <trkpt lat="63.42699433" lon="10.28274283">
        <ele>302.518</ele>
        <time>1970-01-01T01:00:00Z</time>
      </trkpt>
      <trkpt lat="63.42698433" lon="10.28274783">
        <ele>302.518</ele>
        <time>1970-01-01T01:00:00Z</time>
      </trkpt>
      <trkpt lat="63.42697083" lon="10.282747">
        <ele>302.518</ele>
        <time>1970-01-01T01:00:00Z</time>
      </trkpt>
      <trkpt lat="63.42695867" lon="10.28275217">
        <ele>302.518</ele>
        <time>1970-01-01T01:00:00Z</time>
      </trkpt>
      <trkpt lat="63.42694733" lon="10.282761">
        <ele>302.365</ele>
        <time>1970-01-01T01:00:00Z</time>
      </trkpt>
      <trkpt lat="63.42693867" lon="10.28277767">
        <ele>302.365</ele>
        <time>1970-01-01T01:00:00Z</time>
      </trkpt>
      <trkpt lat="63.426931" lon="10.28279583">
        <ele>302.213</ele>
        <time>1970-01-01T01:00:00Z</time>
      </trkpt>
      <trkpt lat="63.42692" lon="10.28281667">
        <ele>302.213</ele>
        <time>1970-01-01T01:00:00Z</time>
      </trkpt>
      <trkpt lat="63.42691033" lon="10.282835">
        <ele>302.06</ele>
        <time>1970-01-01T01:00:00Z</time>
      </trkpt>
      <trkpt lat="63.42690133" lon="10.2828575">
        <ele>302.06</ele>
        <time>1970-01-01T01:00:00Z</time>
      </trkpt>
      <trkpt lat="63.426896" lon="10.28288133">
        <ele>302.06</ele>
        <time>1970-01-01T01:00:00Z</time>
      </trkpt>
      <trkpt lat="63.42689083" lon="10.28290967">
        <ele>302.06</ele>
        <time>1970-01-01T01:00:00Z</time>
      </trkpt>
      <trkpt lat="63.42688367" lon="10.28293467">
        <ele>301.908</ele>
        <time>1970-01-01T01:00:00Z</time>
      </trkpt>
      <trkpt lat="63.4268765" lon="10.28295883">
        <ele>301.908</ele>
        <time>1970-01-01T01:00:00Z</time>
      </trkpt>
      <trkpt lat="63.42686867" lon="10.28298367">
        <ele>301.756</ele>
        <time>1970-01-01T01:00:00Z</time>
      </trkpt>
      <trkpt lat="63.42686217" lon="10.28300917">
        <ele>301.756</ele>
        <time>1970-01-01T01:00:00Z</time>
      </trkpt>
      <trkpt lat="63.4268565" lon="10.28304067">
        <ele>301.756</ele>
        <time>1970-01-01T01:00:00Z</time>
      </trkpt>
      <trkpt lat="63.426853" lon="10.283074">
        <ele>301.756</ele>
        <time>1970-01-01T01:00:00Z</time>
      </trkpt>
      <trkpt lat="63.42685117" lon="10.28310633">
        <ele>301.756</ele>
        <time>1970-01-01T01:00:00Z</time>
      </trkpt>
      <trkpt lat="63.4268505" lon="10.2831315">
        <ele>301.756</ele>
        <time>1970-01-01T01:00:00Z</time>
      </trkpt>
      <trkpt lat="63.42684917" lon="10.28315133">
        <ele>301.603</ele>
        <time>1970-01-01T01:00:00Z</time>
      </trkpt>
      <trkpt lat="63.426849" lon="10.28316883">
        <ele>301.603</ele>
        <time>1970-01-01T01:00:00Z</time>
      </trkpt>
      <trkpt lat="63.426845" lon="10.28318467">
        <ele>301.603</ele>
        <time>1970-01-01T01:00:00Z</time>
      </trkpt>
      <trkpt lat="63.42684" lon="10.28320083">
        <ele>301.603</ele>
        <time>1970-01-01T01:00:00Z</time>
      </trkpt>
      <trkpt lat="63.426834" lon="10.28321883">
        <ele>301.603</ele>
        <time>1970-01-01T01:00:00Z</time>
      </trkpt>
      <trkpt lat="63.42683133" lon="10.28323717">
        <ele>301.603</ele>
        <time>1970-01-01T01:00:00Z</time>
      </trkpt>
      <trkpt lat="63.4268285" lon="10.28325533">
        <ele>301.603</ele>
        <time>1970-01-01T01:00:00Z</time>
      </trkpt>
      <trkpt lat="63.426824" lon="10.28327117">
        <ele>301.603</ele>
        <time>1970-01-01T01:00:00Z</time>
      </trkpt>
      <trkpt lat="63.42681667" lon="10.283285">
        <ele>301.756</ele>
        <time>1970-01-01T01:00:00Z</time>
      </trkpt>
      <trkpt lat="63.426805" lon="10.283298">
        <ele>301.756</ele>
        <time>1970-01-01T01:00:00Z</time>
      </trkpt>
      <trkpt lat="63.42679467" lon="10.28331183">
        <ele>301.756</ele>
        <time>1970-01-01T01:00:00Z</time>
      </trkpt>
      <trkpt lat="63.42678433" lon="10.28332667">
        <ele>301.756</ele>
        <time>1970-01-01T01:00:00Z</time>
      </trkpt>
      <trkpt lat="63.42677267" lon="10.283345">
        <ele>301.756</ele>
        <time>1970-01-01T01:00:00Z</time>
      </trkpt>
      <trkpt lat="63.42675783" lon="10.28336633">
        <ele>301.756</ele>
        <time>1970-01-01T01:00:00Z</time>
      </trkpt>
      <trkpt lat="63.42674283" lon="10.28338767">
        <ele>301.756</ele>
        <time>1970-01-01T01:00:00Z</time>
      </trkpt>
      <trkpt lat="63.42673183" lon="10.28340533">
        <ele>301.756</ele>
        <time>1970-01-01T01:00:00Z</time>
      </trkpt>
      <trkpt lat="63.42672267" lon="10.2834185">
        <ele>301.756</ele>
        <time>1970-01-01T01:00:00Z</time>
      </trkpt>
      <trkpt lat="63.42671283" lon="10.2834335">
        <ele>301.756</ele>
        <time>1970-01-01T01:00:00Z</time>
      </trkpt>
      <trkpt lat="63.42670433" lon="10.28344817">
        <ele>301.756</ele>
        <time>1970-01-01T01:00:00Z</time>
      </trkpt>
      <trkpt lat="63.42669567" lon="10.28346617">
        <ele>301.756</ele>
        <time>1970-01-01T01:00:00Z</time>
      </trkpt>
      <trkpt lat="63.42668533" lon="10.28347867">
        <ele>301.908</ele>
        <time>1970-01-01T01:00:00Z</time>
      </trkpt>
      <trkpt lat="63.42667317" lon="10.283492">
        <ele>301.908</ele>
        <time>1970-01-01T01:00:00Z</time>
      </trkpt>
      <trkpt lat="63.4266595" lon="10.283505">
        <ele>301.908</ele>
        <time>1970-01-01T01:00:00Z</time>
      </trkpt>
      <trkpt lat="63.42664717" lon="10.2835185">
        <ele>301.908</ele>
        <time>1970-01-01T01:00:00Z</time>
      </trkpt>
      <trkpt lat="63.42663667" lon="10.2835305">
        <ele>301.908</ele>
        <time>1970-01-01T01:00:00Z</time>
      </trkpt>
      <trkpt lat="63.4266265" lon="10.28353833">
        <ele>301.908</ele>
        <time>1970-01-01T01:00:00Z</time>
      </trkpt>
      <trkpt lat="63.42661683" lon="10.28354683">
        <ele>302.06</ele>
        <time>1970-01-01T01:00:00Z</time>
      </trkpt>
      <trkpt lat="63.4266055" lon="10.28354983">
        <ele>302.06</ele>
        <time>1970-01-01T01:00:00Z</time>
      </trkpt>
      <trkpt lat="63.4265935" lon="10.2835535">
        <ele>302.06</ele>
        <time>1970-01-01T01:00:00Z</time>
      </trkpt>
      <trkpt lat="63.426582" lon="10.28355917">
        <ele>302.06</ele>
        <time>1970-01-01T01:00:00Z</time>
      </trkpt>
      <trkpt lat="63.4265705" lon="10.28357033">
        <ele>302.213</ele>
        <time>1970-01-01T01:00:00Z</time>
      </trkpt>
      <trkpt lat="63.42655867" lon="10.28358367">
        <ele>302.213</ele>
        <time>1970-01-01T01:00:00Z</time>
      </trkpt>
      <trkpt lat="63.4265475" lon="10.28359533">
        <ele>302.213</ele>
        <time>1970-01-01T01:00:00Z</time>
      </trkpt>
      <trkpt lat="63.42653433" lon="10.28360767">
        <ele>302.213</ele>
        <time>1970-01-01T01:00:00Z</time>
      </trkpt>
      <trkpt lat="63.42652067" lon="10.28361817">
        <ele>302.213</ele>
        <time>1970-01-01T01:00:00Z</time>
      </trkpt>
      <trkpt lat="63.4265065" lon="10.28362983">
        <ele>302.213</ele>
        <time>1970-01-01T01:00:00Z</time>
      </trkpt>
      <trkpt lat="63.426495" lon="10.28364083">
        <ele>302.213</ele>
        <time>1970-01-01T01:00:00Z</time>
      </trkpt>
      <trkpt lat="63.426485" lon="10.283653">
        <ele>302.213</ele>
        <time>1970-01-01T01:00:00Z</time>
      </trkpt>
      <trkpt lat="63.42647467" lon="10.2836645">
        <ele>302.213</ele>
        <time>1970-01-01T01:00:00Z</time>
      </trkpt>
      <trkpt lat="63.42646383" lon="10.28367467">
        <ele>302.213</ele>
        <time>1970-01-01T01:00:00Z</time>
      </trkpt>
      <trkpt lat="63.4264535" lon="10.28368083">
        <ele>302.213</ele>
        <time>1970-01-01T01:00:00Z</time>
      </trkpt>
      <trkpt lat="63.42644117" lon="10.28368817">
        <ele>302.213</ele>
        <time>1970-01-01T01:00:00Z</time>
      </trkpt>
      <trkpt lat="63.42642917" lon="10.2836945">
        <ele>302.213</ele>
        <time>1970-01-01T01:00:00Z</time>
      </trkpt>
      <trkpt lat="63.4264175" lon="10.2837045">
        <ele>302.213</ele>
        <time>1970-01-01T01:00:00Z</time>
      </trkpt>
      <trkpt lat="63.42640867" lon="10.2837125">
        <ele>302.06</ele>
        <time>1970-01-01T01:00:00Z</time>
      </trkpt>
      <trkpt lat="63.42640117" lon="10.28371967">
        <ele>302.06</ele>
        <time>1970-01-01T01:00:00Z</time>
      </trkpt>
      <trkpt lat="63.4263935" lon="10.283724">
        <ele>302.06</ele>
        <time>1970-01-01T01:00:00Z</time>
      </trkpt>
      <trkpt lat="63.42638433" lon="10.283727">
        <ele>302.06</ele>
        <time>1970-01-01T01:00:00Z</time>
      </trkpt>
      <trkpt lat="63.4263745" lon="10.28373233">
        <ele>302.06</ele>
        <time>1970-01-01T01:00:00Z</time>
      </trkpt>
      <trkpt lat="63.42636717" lon="10.283738">
        <ele>302.06</ele>
        <time>1970-01-01T01:00:00Z</time>
      </trkpt>
      <trkpt lat="63.42636617" lon="10.28375283">
        <ele>302.06</ele>
        <time>1970-01-01T01:00:00Z</time>
      </trkpt>
      <trkpt lat="63.42636833" lon="10.28377083">
        <ele>302.06</ele>
        <time>1970-01-01T01:00:00Z</time>
      </trkpt>
      <trkpt lat="63.42637017" lon="10.28379417">
        <ele>301.908</ele>
        <time>1970-01-01T01:00:00Z</time>
      </trkpt>
      <trkpt lat="63.4263695" lon="10.2838135">
        <ele>301.908</ele>
        <time>1970-01-01T01:00:00Z</time>
      </trkpt>
      <trkpt lat="63.42636817" lon="10.28383417">
        <ele>301.908</ele>
        <time>1970-01-01T01:00:00Z</time>
      </trkpt>
      <trkpt lat="63.4263675" lon="10.28385733">
        <ele>301.908</ele>
        <time>1970-01-01T01:00:00Z</time>
      </trkpt>
      <trkpt lat="63.42636683" lon="10.28388183">
        <ele>301.756</ele>
        <time>1970-01-01T01:00:00Z</time>
      </trkpt>
      <trkpt lat="63.426367" lon="10.2839095">
        <ele>301.756</ele>
        <time>1970-01-01T01:00:00Z</time>
      </trkpt>
      <trkpt lat="63.42636917" lon="10.28393533">
        <ele>301.756</ele>
        <time>1970-01-01T01:00:00Z</time>
      </trkpt>
      <trkpt lat="63.42637217" lon="10.28396">
        <ele>301.756</ele>
        <time>1970-01-01T01:00:00Z</time>
      </trkpt>
      <trkpt lat="63.4263735" lon="10.2839825">
        <ele>301.603</ele>
        <time>1970-01-01T01:00:00Z</time>
      </trkpt>
      <trkpt lat="63.4263725" lon="10.2840055">
        <ele>301.603</ele>
        <time>1970-01-01T01:00:00Z</time>
      </trkpt>
      <trkpt lat="63.42637067" lon="10.28402867">
        <ele>301.451</ele>
        <time>1970-01-01T01:00:00Z</time>
      </trkpt>
      <trkpt lat="63.42636983" lon="10.2840505">
        <ele>301.451</ele>
        <time>1970-01-01T01:00:00Z</time>
      </trkpt>
      <trkpt lat="63.42636817" lon="10.2840715">
        <ele>301.451</ele>
        <time>1970-01-01T01:00:00Z</time>
      </trkpt>
      <trkpt lat="63.42636867" lon="10.28409367">
        <ele>301.451</ele>
        <time>1970-01-01T01:00:00Z</time>
      </trkpt>
      <trkpt lat="63.4263675" lon="10.2841155">
        <ele>301.298</ele>
        <time>1970-01-01T01:00:00Z</time>
      </trkpt>
      <trkpt lat="63.42636783" lon="10.284135">
        <ele>301.298</ele>
        <time>1970-01-01T01:00:00Z</time>
      </trkpt>
      <trkpt lat="63.42636467" lon="10.28415083">
        <ele>301.298</ele>
        <time>1970-01-01T01:00:00Z</time>
      </trkpt>
      <trkpt lat="63.42636083" lon="10.28416417">
        <ele>301.298</ele>
        <time>1970-01-01T01:00:00Z</time>
      </trkpt>
      <trkpt lat="63.42635467" lon="10.2841775">
        <ele>301.146</ele>
        <time>1970-01-01T01:00:00Z</time>
      </trkpt>
      <trkpt lat="63.42634583" lon="10.284198">
        <ele>301.146</ele>
        <time>1970-01-01T01:00:00Z</time>
      </trkpt>
      <trkpt lat="63.4263355" lon="10.28422483">
        <ele>301.146</ele>
        <time>1970-01-01T01:00:00Z</time>
      </trkpt>
      <trkpt lat="63.4263205" lon="10.284255">
        <ele>301.146</ele>
        <time>1970-01-01T01:00:00Z</time>
      </trkpt>
      <trkpt lat="63.426307" lon="10.28427917">
        <ele>300.994</ele>
        <time>1970-01-01T01:00:00Z</time>
      </trkpt>
      <trkpt lat="63.42629667" lon="10.28429367">
        <ele>300.994</ele>
        <time>1970-01-01T01:00:00Z</time>
      </trkpt>
      <trkpt lat="63.42629167" lon="10.284303">
        <ele>300.994</ele>
        <time>1970-01-01T01:00:00Z</time>
      </trkpt>
      <trkpt lat="63.426286" lon="10.28431267">
        <ele>300.994</ele>
        <time>1970-01-01T01:00:00Z</time>
      </trkpt>
      <trkpt lat="63.42627817" lon="10.284325">
        <ele>300.841</ele>
        <time>1970-01-01T01:00:00Z</time>
      </trkpt>
      <trkpt lat="63.42626683" lon="10.28434">
        <ele>300.841</ele>
        <time>1970-01-01T01:00:00Z</time>
      </trkpt>
      <trkpt lat="63.426256" lon="10.2843545">
        <ele>300.689</ele>
        <time>1970-01-01T01:00:00Z</time>
      </trkpt>
      <trkpt lat="63.42624267" lon="10.2843685">
        <ele>300.689</ele>
        <time>1970-01-01T01:00:00Z</time>
      </trkpt>
      <trkpt lat="63.4262275" lon="10.28438083">
        <ele>300.536</ele>
        <time>1970-01-01T01:00:00Z</time>
      </trkpt>
      <trkpt lat="63.42621067" lon="10.284393">
        <ele>300.536</ele>
        <time>1970-01-01T01:00:00Z</time>
      </trkpt>
      <trkpt lat="63.426196" lon="10.2844025">
        <ele>300.384</ele>
        <time>1970-01-01T01:00:00Z</time>
      </trkpt>
      <trkpt lat="63.42618083" lon="10.28441267">
        <ele>300.384</ele>
        <time>1970-01-01T01:00:00Z</time>
      </trkpt>
      <trkpt lat="63.42616417" lon="10.28442317">
        <ele>300.079</ele>
        <time>1970-01-01T01:00:00Z</time>
      </trkpt>
      <trkpt lat="63.42614083" lon="10.28443917">
        <ele>300.079</ele>
        <time>1970-01-01T01:00:00Z</time>
      </trkpt>
      <trkpt lat="63.42612" lon="10.28445133">
        <ele>299.774</ele>
        <time>1970-01-01T01:00:00Z</time>
      </trkpt>
      <trkpt lat="63.42609883" lon="10.28445817">
        <ele>299.774</ele>
        <time>1970-01-01T01:00:00Z</time>
      </trkpt>
      <trkpt lat="63.426083" lon="10.28446067">
        <ele>299.622</ele>
        <time>1970-01-01T01:00:00Z</time>
      </trkpt>
      <trkpt lat="63.42606617" lon="10.28446267">
        <ele>299.622</ele>
        <time>1970-01-01T01:00:00Z</time>
      </trkpt>
      <trkpt lat="63.42605167" lon="10.28446483">
        <ele>299.317</ele>
        <time>1970-01-01T01:00:00Z</time>
      </trkpt>
      <trkpt lat="63.42603783" lon="10.28446567">
        <ele>299.317</ele>
        <time>1970-01-01T01:00:00Z</time>
      </trkpt>
      <trkpt lat="63.4260225" lon="10.2844715">
        <ele>299.012</ele>
        <time>1970-01-01T01:00:00Z</time>
      </trkpt>
      <trkpt lat="63.4260075" lon="10.2844795">
        <ele>299.012</ele>
        <time>1970-01-01T01:00:00Z</time>
      </trkpt>
      <trkpt lat="63.42599133" lon="10.28448867">
        <ele>298.708</ele>
        <time>1970-01-01T01:00:00Z</time>
      </trkpt>
      <trkpt lat="63.4259815" lon="10.284492">
        <ele>298.708</ele>
        <time>1970-01-01T01:00:00Z</time>
      </trkpt>
      <trkpt lat="63.42596917" lon="10.28449483">
        <ele>298.403</ele>
        <time>1970-01-01T01:00:00Z</time>
      </trkpt>
      <trkpt lat="63.42595767" lon="10.2844975">
        <ele>298.403</ele>
        <time>1970-01-01T01:00:00Z</time>
      </trkpt>
      <trkpt lat="63.42594433" lon="10.28449933">
        <ele>298.098</ele>
        <time>1970-01-01T01:00:00Z</time>
      </trkpt>
      <trkpt lat="63.42593183" lon="10.2845">
        <ele>298.098</ele>
        <time>1970-01-01T01:00:00Z</time>
      </trkpt>
      <trkpt lat="63.4259225" lon="10.2844865">
        <ele>297.793</ele>
        <time>1970-01-01T01:00:00Z</time>
      </trkpt>
      <trkpt lat="63.425913" lon="10.28447267">
        <ele>297.793</ele>
        <time>1970-01-01T01:00:00Z</time>
      </trkpt>
      <trkpt lat="63.42590533" lon="10.284456">
        <ele>297.641</ele>
        <time>1970-01-01T01:00:00Z</time>
      </trkpt>
      <trkpt lat="63.42589367" lon="10.284454">
        <ele>297.641</ele>
        <time>1970-01-01T01:00:00Z</time>
      </trkpt>
      <trkpt lat="63.42588033" lon="10.28445367">
        <ele>297.336</ele>
        <time>1970-01-01T01:00:00Z</time>
      </trkpt>
      <trkpt lat="63.42586583" lon="10.28445517">
        <ele>297.336</ele>
        <time>1970-01-01T01:00:00Z</time>
      </trkpt>
      <trkpt lat="63.42584917" lon="10.2844595">
        <ele>297.184</ele>
        <time>1970-01-01T01:00:00Z</time>
      </trkpt>
      <trkpt lat="63.42583383" lon="10.28446733">
        <ele>297.184</ele>
        <time>1970-01-01T01:00:00Z</time>
      </trkpt>
      <trkpt lat="63.42582183" lon="10.28447317">
        <ele>296.879</ele>
        <time>1970-01-01T01:00:00Z</time>
      </trkpt>
      <trkpt lat="63.42581433" lon="10.2844725">
        <ele>296.879</ele>
        <time>1970-01-01T01:00:00Z</time>
      </trkpt>
      <trkpt lat="63.425807" lon="10.28446817">
        <ele>296.726</ele>
        <time>1970-01-01T01:00:00Z</time>
      </trkpt>
      <trkpt lat="63.425799" lon="10.28446517">
        <ele>296.726</ele>
        <time>1970-01-01T01:00:00Z</time>
      </trkpt>
      <trkpt lat="63.42579267" lon="10.28446017">
        <ele>296.574</ele>
        <time>1970-01-01T01:00:00Z</time>
      </trkpt>
      <trkpt lat="63.4257855" lon="10.284454">
        <ele>296.574</ele>
        <time>1970-01-01T01:00:00Z</time>
      </trkpt>
      <trkpt lat="63.425778" lon="10.28444867">
        <ele>296.422</ele>
        <time>1970-01-01T01:00:00Z</time>
      </trkpt>
      <trkpt lat="63.4257675" lon="10.2844495">
        <ele>296.422</ele>
        <time>1970-01-01T01:00:00Z</time>
      </trkpt>
      <trkpt lat="63.4257605" lon="10.28445117">
        <ele>296.269</ele>
        <time>1970-01-01T01:00:00Z</time>
      </trkpt>
      <trkpt lat="63.42575083" lon="10.28444933">
        <ele>296.269</ele>
        <time>1970-01-01T01:00:00Z</time>
      </trkpt>
      <trkpt lat="63.4257425" lon="10.284446">
        <ele>295.964</ele>
        <time>1970-01-01T01:00:00Z</time>
      </trkpt>
      <trkpt lat="63.4257315" lon="10.28443233">
        <ele>295.964</ele>
        <time>1970-01-01T01:00:00Z</time>
      </trkpt>
      <trkpt lat="63.42571817" lon="10.28441933">
        <ele>295.812</ele>
        <time>1970-01-01T01:00:00Z</time>
      </trkpt>
      <trkpt lat="63.42570617" lon="10.28440717">
        <ele>295.812</ele>
        <time>1970-01-01T01:00:00Z</time>
      </trkpt>
      <trkpt lat="63.42569117" lon="10.28440267">
        <ele>295.66</ele>
        <time>1970-01-01T01:00:00Z</time>
      </trkpt>
      <trkpt lat="63.42567967" lon="10.28440167">
        <ele>295.66</ele>
        <time>1970-01-01T01:00:00Z</time>
      </trkpt>
      <trkpt lat="63.425667" lon="10.28440583">
        <ele>295.507</ele>
        <time>1970-01-01T01:00:00Z</time>
      </trkpt>
      <trkpt lat="63.4256565" lon="10.28441483">
        <ele>295.507</ele>
        <time>1970-01-01T01:00:00Z</time>
      </trkpt>
      <trkpt lat="63.42564783" lon="10.28441967">
        <ele>295.355</ele>
        <time>1970-01-01T01:00:00Z</time>
      </trkpt>
      <trkpt lat="63.42563867" lon="10.2844175">
        <ele>295.355</ele>
        <time>1970-01-01T01:00:00Z</time>
      </trkpt>
      <trkpt lat="63.42563033" lon="10.28441333">
        <ele>295.05</ele>
        <time>1970-01-01T01:00:00Z</time>
      </trkpt>
      <trkpt lat="63.42562017" lon="10.28440967">
        <ele>295.05</ele>
        <time>1970-01-01T01:00:00Z</time>
      </trkpt>
      <trkpt lat="63.42561167" lon="10.28440467">
        <ele>294.898</ele>
        <time>1970-01-01T01:00:00Z</time>
      </trkpt>
      <trkpt lat="63.42559833" lon="10.2844015">
        <ele>294.898</ele>
        <time>1970-01-01T01:00:00Z</time>
      </trkpt>
      <trkpt lat="63.42558483" lon="10.28440183">
        <ele>294.593</ele>
        <time>1970-01-01T01:00:00Z</time>
      </trkpt>
      <trkpt lat="63.4255705" lon="10.28440583">
        <ele>294.593</ele>
        <time>1970-01-01T01:00:00Z</time>
      </trkpt>
      <trkpt lat="63.42556383" lon="10.28440567">
        <ele>294.288</ele>
        <time>1970-01-01T01:00:00Z</time>
      </trkpt>
      <trkpt lat="63.42555717" lon="10.28440833">
        <ele>294.288</ele>
        <time>1970-01-01T01:00:00Z</time>
      </trkpt>
      <trkpt lat="63.4255525" lon="10.28440933">
        <ele>293.983</ele>
        <time>1970-01-01T01:00:00Z</time>
      </trkpt>
      <trkpt lat="63.42554533" lon="10.28441517">
        <ele>293.983</ele>
        <time>1970-01-01T01:00:00Z</time>
      </trkpt>
      <trkpt lat="63.4255405" lon="10.28441567">
        <ele>293.526</ele>
        <time>1970-01-01T01:00:00Z</time>
      </trkpt>
      <trkpt lat="63.425536" lon="10.284414">
        <ele>293.526</ele>
        <time>1970-01-01T01:00:00Z</time>
      </trkpt>
      <trkpt lat="63.42553283" lon="10.28440783">
        <ele>293.221</ele>
        <time>1970-01-01T01:00:00Z</time>
      </trkpt>
      <trkpt lat="63.42552817" lon="10.28440083">
        <ele>293.221</ele>
        <time>1970-01-01T01:00:00Z</time>
      </trkpt>
      <trkpt lat="63.4255215" lon="10.28439567">
        <ele>292.916</ele>
        <time>1970-01-01T01:00:00Z</time>
      </trkpt>
      <trkpt lat="63.42551567" lon="10.28439317">
        <ele>292.916</ele>
        <time>1970-01-01T01:00:00Z</time>
      </trkpt>
      <trkpt lat="63.42551067" lon="10.284393">
        <ele>292.612</ele>
        <time>1970-01-01T01:00:00Z</time>
      </trkpt>
      <trkpt lat="63.4255045" lon="10.2843915">
        <ele>292.612</ele>
        <time>1970-01-01T01:00:00Z</time>
      </trkpt>
      <trkpt lat="63.42549667" lon="10.28439017">
        <ele>292.307</ele>
        <time>1970-01-01T01:00:00Z</time>
      </trkpt>
      <trkpt lat="63.4254885" lon="10.28438967">
        <ele>292.307</ele>
        <time>1970-01-01T01:00:00Z</time>
      </trkpt>
      <trkpt lat="63.42548117" lon="10.284391">
        <ele>292.154</ele>
        <time>1970-01-01T01:00:00Z</time>
      </trkpt>
      <trkpt lat="63.42547067" lon="10.2843935">
        <ele>292.154</ele>
        <time>1970-01-01T01:00:00Z</time>
      </trkpt>
      <trkpt lat="63.425459" lon="10.28439583">
        <ele>291.85</ele>
        <time>1970-01-01T01:00:00Z</time>
      </trkpt>
      <trkpt lat="63.42544783" lon="10.28440033">
        <ele>291.85</ele>
        <time>1970-01-01T01:00:00Z</time>
      </trkpt>
      <trkpt lat="63.42543733" lon="10.28440183">
        <ele>291.697</ele>
        <time>1970-01-01T01:00:00Z</time>
      </trkpt>
      <trkpt lat="63.42542733" lon="10.28440433">
        <ele>291.697</ele>
        <time>1970-01-01T01:00:00Z</time>
      </trkpt>
      <trkpt lat="63.42541717" lon="10.28440333">
        <ele>291.392</ele>
        <time>1970-01-01T01:00:00Z</time>
      </trkpt>
      <trkpt lat="63.42541" lon="10.28440233">
        <ele>291.392</ele>
        <time>1970-01-01T01:00:00Z</time>
      </trkpt>
      <trkpt lat="63.42540183" lon="10.28439933">
        <ele>291.24</ele>
        <time>1970-01-01T01:00:00Z</time>
      </trkpt>
      <trkpt lat="63.42538883" lon="10.2844005">
        <ele>291.24</ele>
        <time>1970-01-01T01:00:00Z</time>
      </trkpt>
      <trkpt lat="63.42537433" lon="10.28439883">
        <ele>291.088</ele>
        <time>1970-01-01T01:00:00Z</time>
      </trkpt>
      <trkpt lat="63.42535933" lon="10.28439633">
        <ele>291.088</ele>
        <time>1970-01-01T01:00:00Z</time>
      </trkpt>
      <trkpt lat="63.425347" lon="10.284398">
        <ele>291.088</ele>
        <time>1970-01-01T01:00:00Z</time>
      </trkpt>
      <trkpt lat="63.4253345" lon="10.28440233">
        <ele>291.088</ele>
        <time>1970-01-01T01:00:00Z</time>
      </trkpt>
      <trkpt lat="63.42532367" lon="10.28440783">
        <ele>290.935</ele>
        <time>1970-01-01T01:00:00Z</time>
      </trkpt>
      <trkpt lat="63.425313" lon="10.28440517">
        <ele>290.935</ele>
        <time>1970-01-01T01:00:00Z</time>
      </trkpt>
      <trkpt lat="63.425301" lon="10.2844025">
        <ele>290.935</ele>
        <time>1970-01-01T01:00:00Z</time>
      </trkpt>
      <trkpt lat="63.425284" lon="10.28439683">
        <ele>290.935</ele>
        <time>1970-01-01T01:00:00Z</time>
      </trkpt>
      <trkpt lat="63.42526883" lon="10.284394">
        <ele>290.783</ele>
        <time>1970-01-01T01:00:00Z</time>
      </trkpt>
      <trkpt lat="63.42525567" lon="10.2843905">
        <ele>290.783</ele>
        <time>1970-01-01T01:00:00Z</time>
      </trkpt>
      <trkpt lat="63.4252465" lon="10.28439">
        <ele>290.783</ele>
        <time>1970-01-01T01:00:00Z</time>
      </trkpt>
      <trkpt lat="63.42523733" lon="10.2843895">
        <ele>290.783</ele>
        <time>1970-01-01T01:00:00Z</time>
      </trkpt>
      <trkpt lat="63.42522883" lon="10.2843895">
        <ele>290.783</ele>
        <time>1970-01-01T01:00:00Z</time>
      </trkpt>
      <trkpt lat="63.4252225" lon="10.28438867">
        <ele>290.783</ele>
        <time>1970-01-01T01:00:00Z</time>
      </trkpt>
      <trkpt lat="63.42521967" lon="10.28438917">
        <ele>290.783</ele>
        <time>1970-01-01T01:00:00Z</time>
      </trkpt>
      <trkpt lat="63.42521567" lon="10.28439067">
        <ele>290.783</ele>
        <time>1970-01-01T01:00:00Z</time>
      </trkpt>
      <trkpt lat="63.42521067" lon="10.28439233">
        <ele>290.935</ele>
        <time>1970-01-01T01:00:00Z</time>
      </trkpt>
      <trkpt lat="63.42520133" lon="10.28439017">
        <ele>290.935</ele>
        <time>1970-01-01T01:00:00Z</time>
      </trkpt>
      <trkpt lat="63.42519083" lon="10.28438833">
        <ele>291.088</ele>
        <time>1970-01-01T01:00:00Z</time>
      </trkpt>
      <trkpt lat="63.425178" lon="10.2843955">
        <ele>291.088</ele>
        <time>1970-01-01T01:00:00Z</time>
      </trkpt>
      <trkpt lat="63.42516567" lon="10.28440283">
        <ele>291.24</ele>
        <time>1970-01-01T01:00:00Z</time>
      </trkpt>
      <trkpt lat="63.4251495" lon="10.28441283">
        <ele>291.24</ele>
        <time>1970-01-01T01:00:00Z</time>
      </trkpt>
      <trkpt lat="63.42513317" lon="10.28441917">
        <ele>291.392</ele>
        <time>1970-01-01T01:00:00Z</time>
      </trkpt>
      <trkpt lat="63.42511483" lon="10.28443233">
        <ele>291.392</ele>
        <time>1970-01-01T01:00:00Z</time>
      </trkpt>
      <trkpt lat="63.425102" lon="10.2844455">
        <ele>291.392</ele>
        <time>1970-01-01T01:00:00Z</time>
      </trkpt>
      <trkpt lat="63.425092" lon="10.284453">
        <ele>291.392</ele>
        <time>1970-01-01T01:00:00Z</time>
      </trkpt>
      <trkpt lat="63.42508417" lon="10.28445667">
        <ele>291.545</ele>
        <time>1970-01-01T01:00:00Z</time>
      </trkpt>
      <trkpt lat="63.42507633" lon="10.28445967">
        <ele>291.545</ele>
        <time>1970-01-01T01:00:00Z</time>
      </trkpt>
      <trkpt lat="63.42506633" lon="10.28446383">
        <ele>291.697</ele>
        <time>1970-01-01T01:00:00Z</time>
      </trkpt>
      <trkpt lat="63.425056" lon="10.28446933">
        <ele>291.697</ele>
        <time>1970-01-01T01:00:00Z</time>
      </trkpt>
      <trkpt lat="63.42504733" lon="10.28447667">
        <ele>291.85</ele>
        <time>1970-01-01T01:00:00Z</time>
      </trkpt>
      <trkpt lat="63.42504183" lon="10.2844855">
        <ele>291.85</ele>
        <time>1970-01-01T01:00:00Z</time>
      </trkpt>
      <trkpt lat="63.42503683" lon="10.2844895">
        <ele>291.85</ele>
        <time>1970-01-01T01:00:00Z</time>
      </trkpt>
      <trkpt lat="63.42503267" lon="10.28448667">
        <ele>291.85</ele>
        <time>1970-01-01T01:00:00Z</time>
      </trkpt>
      <trkpt lat="63.42502567" lon="10.2844795">
        <ele>292.002</ele>
        <time>1970-01-01T01:00:00Z</time>
      </trkpt>
      <trkpt lat="63.42501767" lon="10.284468">
        <ele>292.002</ele>
        <time>1970-01-01T01:00:00Z</time>
      </trkpt>
      <trkpt lat="63.42500667" lon="10.284455">
        <ele>292.002</ele>
        <time>1970-01-01T01:00:00Z</time>
      </trkpt>
      <trkpt lat="63.424998" lon="10.28443833">
        <ele>292.002</ele>
        <time>1970-01-01T01:00:00Z</time>
      </trkpt>
      <trkpt lat="63.42499483" lon="10.28441633">
        <ele>292.002</ele>
        <time>1970-01-01T01:00:00Z</time>
      </trkpt>
      <trkpt lat="63.42499483" lon="10.28438967">
        <ele>292.002</ele>
        <time>1970-01-01T01:00:00Z</time>
      </trkpt>
      <trkpt lat="63.4249945" lon="10.2843585">
        <ele>291.85</ele>
        <time>1970-01-01T01:00:00Z</time>
      </trkpt>
      <trkpt lat="63.42499133" lon="10.28432733">
        <ele>291.85</ele>
        <time>1970-01-01T01:00:00Z</time>
      </trkpt>
      <trkpt lat="63.42498667" lon="10.28429317">
        <ele>291.85</ele>
        <time>1970-01-01T01:00:00Z</time>
      </trkpt>
      <trkpt lat="63.424983" lon="10.28425667">
        <ele>291.85</ele>
        <time>1970-01-01T01:00:00Z</time>
      </trkpt>
      <trkpt lat="63.424979" lon="10.28422217">
        <ele>291.85</ele>
        <time>1970-01-01T01:00:00Z</time>
      </trkpt>
      <trkpt lat="63.424974" lon="10.28419033">
        <ele>291.85</ele>
        <time>1970-01-01T01:00:00Z</time>
      </trkpt>
      <trkpt lat="63.42496883" lon="10.28416567">
        <ele>291.697</ele>
        <time>1970-01-01T01:00:00Z</time>
      </trkpt>
      <trkpt lat="63.42496567" lon="10.28414083">
        <ele>291.697</ele>
        <time>1970-01-01T01:00:00Z</time>
      </trkpt>
      <trkpt lat="63.4249665" lon="10.28411983">
        <ele>291.545</ele>
        <time>1970-01-01T01:00:00Z</time>
      </trkpt>
      <trkpt lat="63.42496767" lon="10.28409683">
        <ele>291.545</ele>
        <time>1970-01-01T01:00:00Z</time>
      </trkpt>
      <trkpt lat="63.42496867" lon="10.28407017">
        <ele>291.392</ele>
        <time>1970-01-01T01:00:00Z</time>
      </trkpt>
      <trkpt lat="63.424969" lon="10.28404">
        <ele>291.392</ele>
        <time>1970-01-01T01:00:00Z</time>
      </trkpt>
      <trkpt lat="63.42497" lon="10.28400883">
        <ele>291.24</ele>
        <time>1970-01-01T01:00:00Z</time>
      </trkpt>
      <trkpt lat="63.4249715" lon="10.28397967">
        <ele>291.24</ele>
        <time>1970-01-01T01:00:00Z</time>
      </trkpt>
      <trkpt lat="63.42497117" lon="10.28395267">
        <ele>291.088</ele>
        <time>1970-01-01T01:00:00Z</time>
      </trkpt>
      <trkpt lat="63.42496917" lon="10.28392867">
        <ele>291.088</ele>
        <time>1970-01-01T01:00:00Z</time>
      </trkpt>
      <trkpt lat="63.424965" lon="10.28390733">
        <ele>290.935</ele>
        <time>1970-01-01T01:00:00Z</time>
      </trkpt>
      <trkpt lat="63.42495833" lon="10.283887">
        <ele>290.935</ele>
        <time>1970-01-01T01:00:00Z</time>
      </trkpt>
      <trkpt lat="63.424953" lon="10.28386433">
        <ele>290.783</ele>
        <time>1970-01-01T01:00:00Z</time>
      </trkpt>
      <trkpt lat="63.42494867" lon="10.28384083">
        <ele>290.783</ele>
        <time>1970-01-01T01:00:00Z</time>
      </trkpt>
      <trkpt lat="63.42494467" lon="10.28381883">
        <ele>290.63</ele>
        <time>1970-01-01T01:00:00Z</time>
      </trkpt>
      <trkpt lat="63.424939" lon="10.28379583">
        <ele>290.63</ele>
        <time>1970-01-01T01:00:00Z</time>
      </trkpt>
      <trkpt lat="63.42493067" lon="10.28377317">
        <ele>290.478</ele>
        <time>1970-01-01T01:00:00Z</time>
      </trkpt>
      <trkpt lat="63.42492183" lon="10.28375083">
        <ele>290.478</ele>
        <time>1970-01-01T01:00:00Z</time>
      </trkpt>
      <trkpt lat="63.42491283" lon="10.283735">
        <ele>290.478</ele>
        <time>1970-01-01T01:00:00Z</time>
      </trkpt>
      <trkpt lat="63.42490617" lon="10.28372017">
        <ele>290.478</ele>
        <time>1970-01-01T01:00:00Z</time>
      </trkpt>
      <trkpt lat="63.42490183" lon="10.283703">
        <ele>290.326</ele>
        <time>1970-01-01T01:00:00Z</time>
      </trkpt>
      <trkpt lat="63.42489817" lon="10.28368217">
        <ele>290.326</ele>
        <time>1970-01-01T01:00:00Z</time>
      </trkpt>
      <trkpt lat="63.424893" lon="10.28366283">
        <ele>290.326</ele>
        <time>1970-01-01T01:00:00Z</time>
      </trkpt>
      <trkpt lat="63.424887" lon="10.28364517">
        <ele>290.326</ele>
        <time>1970-01-01T01:00:00Z</time>
      </trkpt>
      <trkpt lat="63.424881" lon="10.283626">
        <ele>290.173</ele>
        <time>1970-01-01T01:00:00Z</time>
      </trkpt>
      <trkpt lat="63.42487583" lon="10.28360683">
        <ele>290.173</ele>
        <time>1970-01-01T01:00:00Z</time>
      </trkpt>
      <trkpt lat="63.424869" lon="10.28358967">
        <ele>290.173</ele>
        <time>1970-01-01T01:00:00Z</time>
      </trkpt>
      <trkpt lat="63.42486083" lon="10.28357617">
        <ele>290.173</ele>
        <time>1970-01-01T01:00:00Z</time>
      </trkpt>
      <trkpt lat="63.4248535" lon="10.28356167">
        <ele>290.021</ele>
        <time>1970-01-01T01:00:00Z</time>
      </trkpt>
      <trkpt lat="63.42484917" lon="10.283547">
        <ele>290.021</ele>
        <time>1970-01-01T01:00:00Z</time>
      </trkpt>
      <trkpt lat="63.42484467" lon="10.28353317">
        <ele>290.021</ele>
        <time>1970-01-01T01:00:00Z</time>
      </trkpt>
      <trkpt lat="63.42483783" lon="10.28352067">
        <ele>290.021</ele>
        <time>1970-01-01T01:00:00Z</time>
      </trkpt>
      <trkpt lat="63.424827" lon="10.28350867">
        <ele>289.868</ele>
        <time>1970-01-01T01:00:00Z</time>
      </trkpt>
      <trkpt lat="63.42481517" lon="10.28349733">
        <ele>289.868</ele>
        <time>1970-01-01T01:00:00Z</time>
      </trkpt>
      <trkpt lat="63.42480067" lon="10.28349033">
        <ele>289.716</ele>
        <time>1970-01-01T01:00:00Z</time>
      </trkpt>
      <trkpt lat="63.424787" lon="10.28348383">
        <ele>289.716</ele>
        <time>1970-01-01T01:00:00Z</time>
      </trkpt>
      <trkpt lat="63.42477" lon="10.28347317">
        <ele>289.716</ele>
        <time>1970-01-01T01:00:00Z</time>
      </trkpt>
      <trkpt lat="63.424752" lon="10.2834575">
        <ele>289.716</ele>
        <time>1970-01-01T01:00:00Z</time>
      </trkpt>
      <trkpt lat="63.42473483" lon="10.28343983">
        <ele>289.564</ele>
        <time>1970-01-01T01:00:00Z</time>
      </trkpt>
      <trkpt lat="63.424726" lon="10.28341533">
        <ele>289.564</ele>
        <time>1970-01-01T01:00:00Z</time>
      </trkpt>
      <trkpt lat="63.42472167" lon="10.28338667">
        <ele>289.411</ele>
        <time>1970-01-01T01:00:00Z</time>
      </trkpt>
      <trkpt lat="63.42471817" lon="10.28335217">
        <ele>289.411</ele>
        <time>1970-01-01T01:00:00Z</time>
      </trkpt>
      <trkpt lat="63.42471117" lon="10.28332317">
        <ele>289.106</ele>
        <time>1970-01-01T01:00:00Z</time>
      </trkpt>
      <trkpt lat="63.4247065" lon="10.28329417">
        <ele>289.106</ele>
        <time>1970-01-01T01:00:00Z</time>
      </trkpt>
      <trkpt lat="63.42470117" lon="10.2832705">
        <ele>288.954</ele>
        <time>1970-01-01T01:00:00Z</time>
      </trkpt>
      <trkpt lat="63.42469733" lon="10.28324317">
        <ele>288.954</ele>
        <time>1970-01-01T01:00:00Z</time>
      </trkpt>
      <trkpt lat="63.42469217" lon="10.28321617">
        <ele>288.802</ele>
        <time>1970-01-01T01:00:00Z</time>
      </trkpt>
      <trkpt lat="63.4246895" lon="10.283185">
        <ele>288.802</ele>
        <time>1970-01-01T01:00:00Z</time>
      </trkpt>
      <trkpt lat="63.42468567" lon="10.2831595">
        <ele>288.802</ele>
        <time>1970-01-01T01:00:00Z</time>
      </trkpt>
      <trkpt lat="63.4246815" lon="10.28313617">
        <ele>288.802</ele>
        <time>1970-01-01T01:00:00Z</time>
      </trkpt>
      <trkpt lat="63.424678" lon="10.28311083">
        <ele>288.649</ele>
        <time>1970-01-01T01:00:00Z</time>
      </trkpt>
      <trkpt lat="63.4246735" lon="10.28308483">
        <ele>288.649</ele>
        <time>1970-01-01T01:00:00Z</time>
      </trkpt>
      <trkpt lat="63.42466733" lon="10.28305733">
        <ele>288.649</ele>
        <time>1970-01-01T01:00:00Z</time>
      </trkpt>
      <trkpt lat="63.42465917" lon="10.28303317">
        <ele>288.649</ele>
        <time>1970-01-01T01:00:00Z</time>
      </trkpt>
      <trkpt lat="63.42465083" lon="10.283009">
        <ele>288.497</ele>
        <time>1970-01-01T01:00:00Z</time>
      </trkpt>
      <trkpt lat="63.42464267" lon="10.282987">
        <ele>288.497</ele>
        <time>1970-01-01T01:00:00Z</time>
      </trkpt>
      <trkpt lat="63.4246345" lon="10.28296617">
        <ele>288.497</ele>
        <time>1970-01-01T01:00:00Z</time>
      </trkpt>
      <trkpt lat="63.42462733" lon="10.28294467">
        <ele>288.497</ele>
        <time>1970-01-01T01:00:00Z</time>
      </trkpt>
      <trkpt lat="63.4246215" lon="10.2829235">
        <ele>288.497</ele>
        <time>1970-01-01T01:00:00Z</time>
      </trkpt>
      <trkpt lat="63.42461667" lon="10.28290967">
        <ele>288.497</ele>
        <time>1970-01-01T01:00:00Z</time>
      </trkpt>
      <trkpt lat="63.42461417" lon="10.28290117">
        <ele>288.497</ele>
        <time>1970-01-01T01:00:00Z</time>
      </trkpt>
      <trkpt lat="63.4246125" lon="10.28289817">
        <ele>288.497</ele>
        <time>1970-01-01T01:00:00Z</time>
      </trkpt>
      <trkpt lat="63.424612" lon="10.2828935">
        <ele>288.497</ele>
        <time>1970-01-01T01:00:00Z</time>
      </trkpt>
      <trkpt lat="63.42460833" lon="10.28289217">
        <ele>288.497</ele>
        <time>1970-01-01T01:00:00Z</time>
      </trkpt>
      <trkpt lat="63.42460383" lon="10.28289083">
        <ele>288.497</ele>
        <time>1970-01-01T01:00:00Z</time>
      </trkpt>
      <trkpt lat="63.42459917" lon="10.28289117">
        <ele>288.497</ele>
        <time>1970-01-01T01:00:00Z</time>
      </trkpt>
      <trkpt lat="63.42459683" lon="10.28289">
        <ele>288.497</ele>
        <time>1970-01-01T01:00:00Z</time>
      </trkpt>
      <trkpt lat="63.42459483" lon="10.28288917">
        <ele>288.497</ele>
        <time>1970-01-01T01:00:00Z</time>
      </trkpt>
      <trkpt lat="63.42459267" lon="10.28288633">
        <ele>288.497</ele>
        <time>1970-01-01T01:00:00Z</time>
      </trkpt>
      <trkpt lat="63.42459067" lon="10.28288017">
        <ele>288.497</ele>
        <time>1970-01-01T01:00:00Z</time>
      </trkpt>
      <trkpt lat="63.42458867" lon="10.2828705">
        <ele>288.649</ele>
        <time>1970-01-01T01:00:00Z</time>
      </trkpt>
      <trkpt lat="63.4245865" lon="10.28285867">
        <ele>288.649</ele>
        <time>1970-01-01T01:00:00Z</time>
      </trkpt>
      <trkpt lat="63.42458333" lon="10.28284317">
        <ele>288.649</ele>
        <time>1970-01-01T01:00:00Z</time>
      </trkpt>
      <trkpt lat="63.42457867" lon="10.28282133">
        <ele>288.649</ele>
        <time>1970-01-01T01:00:00Z</time>
      </trkpt>
      <trkpt lat="63.42457267" lon="10.28279517">
        <ele>288.649</ele>
        <time>1970-01-01T01:00:00Z</time>
      </trkpt>
      <trkpt lat="63.42456583" lon="10.282767">
        <ele>288.649</ele>
        <time>1970-01-01T01:00:00Z</time>
      </trkpt>
      <trkpt lat="63.4245595" lon="10.28274033">
        <ele>288.649</ele>
        <time>1970-01-01T01:00:00Z</time>
      </trkpt>
      <trkpt lat="63.42455283" lon="10.28271833">
        <ele>288.649</ele>
        <time>1970-01-01T01:00:00Z</time>
      </trkpt>
      <trkpt lat="63.42454683" lon="10.28270067">
        <ele>288.649</ele>
        <time>1970-01-01T01:00:00Z</time>
      </trkpt>
      <trkpt lat="63.42454067" lon="10.28268383">
        <ele>288.649</ele>
        <time>1970-01-01T01:00:00Z</time>
      </trkpt>
      <trkpt lat="63.42453333" lon="10.282665">
        <ele>288.649</ele>
        <time>1970-01-01T01:00:00Z</time>
      </trkpt>
      <trkpt lat="63.42452483" lon="10.28264783">
        <ele>288.649</ele>
        <time>1970-01-01T01:00:00Z</time>
      </trkpt>
      <trkpt lat="63.42451517" lon="10.28263233">
        <ele>288.649</ele>
        <time>1970-01-01T01:00:00Z</time>
      </trkpt>
      <trkpt lat="63.42450683" lon="10.28261783">
        <ele>288.649</ele>
        <time>1970-01-01T01:00:00Z</time>
      </trkpt>
      <trkpt lat="63.42450033" lon="10.28260217">
        <ele>288.649</ele>
        <time>1970-01-01T01:00:00Z</time>
      </trkpt>
      <trkpt lat="63.42449283" lon="10.2825875">
        <ele>288.649</ele>
        <time>1970-01-01T01:00:00Z</time>
      </trkpt>
      <trkpt lat="63.4244845" lon="10.2825735">
        <ele>288.649</ele>
        <time>1970-01-01T01:00:00Z</time>
      </trkpt>
      <trkpt lat="63.4244735" lon="10.2825615">
        <ele>288.649</ele>
        <time>1970-01-01T01:00:00Z</time>
      </trkpt>
      <trkpt lat="63.4244625" lon="10.2825495">
        <ele>288.649</ele>
        <time>1970-01-01T01:00:00Z</time>
      </trkpt>
      <trkpt lat="63.42445083" lon="10.28253933">
        <ele>288.649</ele>
        <time>1970-01-01T01:00:00Z</time>
      </trkpt>
      <trkpt lat="63.42443817" lon="10.28252783">
        <ele>288.649</ele>
        <time>1970-01-01T01:00:00Z</time>
      </trkpt>
      <trkpt lat="63.4244265" lon="10.2825155">
        <ele>288.649</ele>
        <time>1970-01-01T01:00:00Z</time>
      </trkpt>
      <trkpt lat="63.42441617" lon="10.2825">
        <ele>288.649</ele>
        <time>1970-01-01T01:00:00Z</time>
      </trkpt>
      <trkpt lat="63.4244065" lon="10.282487">
        <ele>288.649</ele>
        <time>1970-01-01T01:00:00Z</time>
      </trkpt>
      <trkpt lat="63.42439583" lon="10.2824745">
        <ele>288.649</ele>
        <time>1970-01-01T01:00:00Z</time>
      </trkpt>
      <trkpt lat="63.4243865" lon="10.28246717">
        <ele>288.649</ele>
        <time>1970-01-01T01:00:00Z</time>
      </trkpt>
      <trkpt lat="63.4243805" lon="10.28246317">
        <ele>288.497</ele>
        <time>1970-01-01T01:00:00Z</time>
      </trkpt>
      <trkpt lat="63.42437817" lon="10.282465">
        <ele>288.497</ele>
        <time>1970-01-01T01:00:00Z</time>
      </trkpt>
      <trkpt lat="63.42437617" lon="10.2824675">
        <ele>288.497</ele>
        <time>1970-01-01T01:00:00Z</time>
      </trkpt>
      <trkpt lat="63.424373" lon="10.28246883">
        <ele>288.497</ele>
        <time>1970-01-01T01:00:00Z</time>
      </trkpt>
      <trkpt lat="63.424368" lon="10.28246933">
        <ele>288.344</ele>
        <time>1970-01-01T01:00:00Z</time>
      </trkpt>
      <trkpt lat="63.42436317" lon="10.28246917">
        <ele>288.344</ele>
        <time>1970-01-01T01:00:00Z</time>
      </trkpt>
      <trkpt lat="63.4243565" lon="10.28246733">
        <ele>288.344</ele>
        <time>1970-01-01T01:00:00Z</time>
      </trkpt>
      <trkpt lat="63.4243505" lon="10.28246467">
        <ele>288.344</ele>
        <time>1970-01-01T01:00:00Z</time>
      </trkpt>
      <trkpt lat="63.42434317" lon="10.28245983">
        <ele>288.192</ele>
        <time>1970-01-01T01:00:00Z</time>
      </trkpt>
      <trkpt lat="63.424337" lon="10.282456">
        <ele>288.192</ele>
        <time>1970-01-01T01:00:00Z</time>
      </trkpt>
      <trkpt lat="63.42433067" lon="10.28245167">
        <ele>288.039</ele>
        <time>1970-01-01T01:00:00Z</time>
      </trkpt>
      <trkpt lat="63.4243245" lon="10.28244717">
        <ele>288.039</ele>
        <time>1970-01-01T01:00:00Z</time>
      </trkpt>
      <trkpt lat="63.42431917" lon="10.28244033">
        <ele>288.039</ele>
        <time>1970-01-01T01:00:00Z</time>
      </trkpt>
      <trkpt lat="63.42431333" lon="10.28243283">
        <ele>288.039</ele>
        <time>1970-01-01T01:00:00Z</time>
      </trkpt>
      <trkpt lat="63.42430633" lon="10.282428">
        <ele>287.887</ele>
        <time>1970-01-01T01:00:00Z</time>
      </trkpt>
      <trkpt lat="63.42429883" lon="10.28242183">
        <ele>287.887</ele>
        <time>1970-01-01T01:00:00Z</time>
      </trkpt>
      <trkpt lat="63.42429183" lon="10.2824145">
        <ele>287.887</ele>
        <time>1970-01-01T01:00:00Z</time>
      </trkpt>
      <trkpt lat="63.42428333" lon="10.28240217">
        <ele>287.887</ele>
        <time>1970-01-01T01:00:00Z</time>
      </trkpt>
      <trkpt lat="63.42427133" lon="10.28238983">
        <ele>287.735</ele>
        <time>1970-01-01T01:00:00Z</time>
      </trkpt>
      <trkpt lat="63.42425833" lon="10.28237817">
        <ele>287.735</ele>
        <time>1970-01-01T01:00:00Z</time>
      </trkpt>
      <trkpt lat="63.42424533" lon="10.28237333">
        <ele>287.735</ele>
        <time>1970-01-01T01:00:00Z</time>
      </trkpt>
      <trkpt lat="63.424231" lon="10.28237417">
        <ele>287.735</ele>
        <time>1970-01-01T01:00:00Z</time>
      </trkpt>
      <trkpt lat="63.4242155" lon="10.28237667">
        <ele>287.735</ele>
        <time>1970-01-01T01:00:00Z</time>
      </trkpt>
      <trkpt lat="63.424201" lon="10.2823745">
        <ele>287.735</ele>
        <time>1970-01-01T01:00:00Z</time>
      </trkpt>
      <trkpt lat="63.424189" lon="10.28236617">
        <ele>287.887</ele>
        <time>1970-01-01T01:00:00Z</time>
      </trkpt>
      <trkpt lat="63.42417733" lon="10.28235817">
        <ele>287.887</ele>
        <time>1970-01-01T01:00:00Z</time>
      </trkpt>
      <trkpt lat="63.42416667" lon="10.28235417">
        <ele>287.887</ele>
        <time>1970-01-01T01:00:00Z</time>
      </trkpt>
      <trkpt lat="63.424157" lon="10.282354">
        <ele>287.887</ele>
        <time>1970-01-01T01:00:00Z</time>
      </trkpt>
      <trkpt lat="63.42414517" lon="10.28235217">
        <ele>287.887</ele>
        <time>1970-01-01T01:00:00Z</time>
      </trkpt>
      <trkpt lat="63.42413117" lon="10.282347">
        <ele>287.887</ele>
        <time>1970-01-01T01:00:00Z</time>
      </trkpt>
      <trkpt lat="63.42411583" lon="10.28234417">
        <ele>288.039</ele>
        <time>1970-01-01T01:00:00Z</time>
      </trkpt>
      <trkpt lat="63.42410217" lon="10.2823435">
        <ele>288.039</ele>
        <time>1970-01-01T01:00:00Z</time>
      </trkpt>
      <trkpt lat="63.42408833" lon="10.2823425">
        <ele>288.192</ele>
        <time>1970-01-01T01:00:00Z</time>
      </trkpt>
      <trkpt lat="63.42407333" lon="10.28233433">
        <ele>288.192</ele>
        <time>1970-01-01T01:00:00Z</time>
      </trkpt>
      <trkpt lat="63.42405633" lon="10.28232817">
        <ele>288.192</ele>
        <time>1970-01-01T01:00:00Z</time>
      </trkpt>
      <trkpt lat="63.42403583" lon="10.28232733">
        <ele>288.192</ele>
        <time>1970-01-01T01:00:00Z</time>
      </trkpt>
      <trkpt lat="63.4240165" lon="10.28233317">
        <ele>288.344</ele>
        <time>1970-01-01T01:00:00Z</time>
      </trkpt>
      <trkpt lat="63.42400033" lon="10.28233717">
        <ele>288.344</ele>
        <time>1970-01-01T01:00:00Z</time>
      </trkpt>
      <trkpt lat="63.42399067" lon="10.28233667">
        <ele>288.497</ele>
        <time>1970-01-01T01:00:00Z</time>
      </trkpt>
      <trkpt lat="63.423982" lon="10.28233483">
        <ele>288.497</ele>
        <time>1970-01-01T01:00:00Z</time>
      </trkpt>
      <trkpt lat="63.42397333" lon="10.28233367">
        <ele>288.497</ele>
        <time>1970-01-01T01:00:00Z</time>
      </trkpt>
      <trkpt lat="63.4239635" lon="10.28233467">
        <ele>288.497</ele>
        <time>1970-01-01T01:00:00Z</time>
      </trkpt>
      <trkpt lat="63.4239525" lon="10.28234017">
        <ele>288.497</ele>
        <time>1970-01-01T01:00:00Z</time>
      </trkpt>
      <trkpt lat="63.42394133" lon="10.2823455">
        <ele>288.497</ele>
        <time>1970-01-01T01:00:00Z</time>
      </trkpt>
      <trkpt lat="63.42392833" lon="10.28234867">
        <ele>288.649</ele>
        <time>1970-01-01T01:00:00Z</time>
      </trkpt>
      <trkpt lat="63.42391483" lon="10.28234433">
        <ele>288.649</ele>
        <time>1970-01-01T01:00:00Z</time>
      </trkpt>
      <trkpt lat="63.423903" lon="10.28233567">
        <ele>288.649</ele>
        <time>1970-01-01T01:00:00Z</time>
      </trkpt>
      <trkpt lat="63.42389317" lon="10.28232483">
        <ele>288.649</ele>
        <time>1970-01-01T01:00:00Z</time>
      </trkpt>
      <trkpt lat="63.42388517" lon="10.28231417">
        <ele>288.649</ele>
        <time>1970-01-01T01:00:00Z</time>
      </trkpt>
      <trkpt lat="63.4238725" lon="10.282305">
        <ele>288.649</ele>
        <time>1970-01-01T01:00:00Z</time>
      </trkpt>
      <trkpt lat="63.423861" lon="10.28229067">
        <ele>288.649</ele>
        <time>1970-01-01T01:00:00Z</time>
      </trkpt>
      <trkpt lat="63.423851" lon="10.28227217">
        <ele>288.649</ele>
        <time>1970-01-01T01:00:00Z</time>
      </trkpt>
      <trkpt lat="63.42384617" lon="10.28225083">
        <ele>288.649</ele>
        <time>1970-01-01T01:00:00Z</time>
      </trkpt>
      <trkpt lat="63.42384233" lon="10.2822345">
        <ele>288.649</ele>
        <time>1970-01-01T01:00:00Z</time>
      </trkpt>
      <trkpt lat="63.42383667" lon="10.282223">
        <ele>288.649</ele>
        <time>1970-01-01T01:00:00Z</time>
      </trkpt>
      <trkpt lat="63.423831" lon="10.282212">
        <ele>288.649</ele>
        <time>1970-01-01T01:00:00Z</time>
      </trkpt>
      <trkpt lat="63.42382483" lon="10.28219917">
        <ele>288.649</ele>
        <time>1970-01-01T01:00:00Z</time>
      </trkpt>
      <trkpt lat="63.42382083" lon="10.28218783">
        <ele>288.649</ele>
        <time>1970-01-01T01:00:00Z</time>
      </trkpt>
      <trkpt lat="63.42382167" lon="10.28217983">
        <ele>288.802</ele>
        <time>1970-01-01T01:00:00Z</time>
      </trkpt>
      <trkpt lat="63.42382533" lon="10.282177">
        <ele>288.802</ele>
        <time>1970-01-01T01:00:00Z</time>
      </trkpt>
      <trkpt lat="63.42383167" lon="10.28217333">
        <ele>288.802</ele>
        <time>1970-01-01T01:00:00Z</time>
      </trkpt>
      <trkpt lat="63.42383567" lon="10.28216683">
        <ele>288.802</ele>
        <time>1970-01-01T01:00:00Z</time>
      </trkpt>
      <trkpt lat="63.423838" lon="10.282156">
        <ele>288.954</ele>
        <time>1970-01-01T01:00:00Z</time>
      </trkpt>
      <trkpt lat="63.423835" lon="10.28214317">
        <ele>288.954</ele>
        <time>1970-01-01T01:00:00Z</time>
      </trkpt>
      <trkpt lat="63.42383217" lon="10.28212967">
        <ele>288.954</ele>
        <time>1970-01-01T01:00:00Z</time>
      </trkpt>
      <trkpt lat="63.42382933" lon="10.28211633">
        <ele>288.954</ele>
        <time>1970-01-01T01:00:00Z</time>
      </trkpt>
      <trkpt lat="63.42382983" lon="10.28210617">
        <ele>289.106</ele>
        <time>1970-01-01T01:00:00Z</time>
      </trkpt>
      <trkpt lat="63.42382867" lon="10.28209833">
        <ele>289.106</ele>
        <time>1970-01-01T01:00:00Z</time>
      </trkpt>
      <trkpt lat="63.4238275" lon="10.282092">
        <ele>289.106</ele>
        <time>1970-01-01T01:00:00Z</time>
      </trkpt>
      <trkpt lat="63.42382683" lon="10.28208583">
        <ele>289.106</ele>
        <time>1970-01-01T01:00:00Z</time>
      </trkpt>
      <trkpt lat="63.4238265" lon="10.28208017">
        <ele>289.106</ele>
        <time>1970-01-01T01:00:00Z</time>
      </trkpt>
      <trkpt lat="63.42382583" lon="10.2820775">
        <ele>289.106</ele>
        <time>1970-01-01T01:00:00Z</time>
      </trkpt>
      <trkpt lat="63.4238255" lon="10.28207517">
        <ele>289.259</ele>
        <time>1970-01-01T01:00:00Z</time>
      </trkpt>
      <trkpt lat="63.42382567" lon="10.28207333">
        <ele>289.259</ele>
        <time>1970-01-01T01:00:00Z</time>
      </trkpt>
      <trkpt lat="63.42382633" lon="10.28207117">
        <ele>289.259</ele>
        <time>1970-01-01T01:00:00Z</time>
      </trkpt>
      <trkpt lat="63.423827" lon="10.28206933">
        <ele>289.259</ele>
        <time>1970-01-01T01:00:00Z</time>
      </trkpt>
      <trkpt lat="63.42382767" lon="10.28206783">
        <ele>289.411</ele>
        <time>1970-01-01T01:00:00Z</time>
      </trkpt>
      <trkpt lat="63.42382817" lon="10.28206567">
        <ele>289.411</ele>
        <time>1970-01-01T01:00:00Z</time>
      </trkpt>
      <trkpt lat="63.42382867" lon="10.28206433">
        <ele>289.411</ele>
        <time>1970-01-01T01:00:00Z</time>
      </trkpt>
      <trkpt lat="63.42382883" lon="10.2820625">
        <ele>289.411</ele>
        <time>1970-01-01T01:00:00Z</time>
      </trkpt>
      <trkpt lat="63.4238285" lon="10.282062">
        <ele>289.564</ele>
        <time>1970-01-01T01:00:00Z</time>
      </trkpt>
      <trkpt lat="63.42382733" lon="10.28206183">
        <ele>289.564</ele>
        <time>1970-01-01T01:00:00Z</time>
      </trkpt>
      <trkpt lat="63.42382517" lon="10.28206233">
        <ele>289.564</ele>
        <time>1970-01-01T01:00:00Z</time>
      </trkpt>
      <trkpt lat="63.42382233" lon="10.2820625">
        <ele>289.564</ele>
        <time>1970-01-01T01:00:00Z</time>
      </trkpt>
      <trkpt lat="63.42382" lon="10.28206117">
        <ele>289.716</ele>
        <time>1970-01-01T01:00:00Z</time>
      </trkpt>
      <trkpt lat="63.42381917" lon="10.28205867">
        <ele>289.716</ele>
        <time>1970-01-01T01:00:00Z</time>
      </trkpt>
      <trkpt lat="63.42381917" lon="10.28205717">
        <ele>289.716</ele>
        <time>1970-01-01T01:00:00Z</time>
      </trkpt>
      <trkpt lat="63.42381983" lon="10.282056">
        <ele>289.716</ele>
        <time>1970-01-01T01:00:00Z</time>
      </trkpt>
      <trkpt lat="63.4238205" lon="10.28205667">
        <ele>289.716</ele>
        <time>1970-01-01T01:00:00Z</time>
      </trkpt>
      <trkpt lat="63.42382183" lon="10.2820565">
        <ele>289.716</ele>
        <time>1970-01-01T01:00:00Z</time>
      </trkpt>
      <trkpt lat="63.42382317" lon="10.28205683">
        <ele>289.868</ele>
        <time>1970-01-01T01:00:00Z</time>
      </trkpt>
      <trkpt lat="63.42382467" lon="10.28205717">
        <ele>289.868</ele>
        <time>1970-01-01T01:00:00Z</time>
      </trkpt>
      <trkpt lat="63.423826" lon="10.28205817">
        <ele>289.868</ele>
        <time>1970-01-01T01:00:00Z</time>
      </trkpt>
      <trkpt lat="63.42382767" lon="10.28205983">
        <ele>289.868</ele>
        <time>1970-01-01T01:00:00Z</time>
      </trkpt>
      <trkpt lat="63.42382933" lon="10.28206017">
        <ele>289.868</ele>
        <time>1970-01-01T01:00:00Z</time>
      </trkpt>
      <trkpt lat="63.4238305" lon="10.28205883">
        <ele>289.868</ele>
        <time>1970-01-01T01:00:00Z</time>
      </trkpt>
      <trkpt lat="63.42383117" lon="10.28205883">
        <ele>290.021</ele>
        <time>1970-01-01T01:00:00Z</time>
      </trkpt>
      <trkpt lat="63.42383167" lon="10.28206">
        <ele>290.021</ele>
        <time>1970-01-01T01:00:00Z</time>
      </trkpt>
      <trkpt lat="63.42383233" lon="10.282062">
        <ele>290.021</ele>
        <time>1970-01-01T01:00:00Z</time>
      </trkpt>
      <trkpt lat="63.42383317" lon="10.282061">
        <ele>290.021</ele>
        <time>1970-01-01T01:00:00Z</time>
      </trkpt>
      <trkpt lat="63.42383383" lon="10.2820585">
        <ele>290.173</ele>
        <time>1970-01-01T01:00:00Z</time>
      </trkpt>
      <trkpt lat="63.42383467" lon="10.28205533">
        <ele>290.173</ele>
        <time>1970-01-01T01:00:00Z</time>
      </trkpt>
      <trkpt lat="63.423836" lon="10.282052">
        <ele>290.326</ele>
        <time>1970-01-01T01:00:00Z</time>
      </trkpt>
      <trkpt lat="63.42383817" lon="10.282048">
        <ele>290.326</ele>
        <time>1970-01-01T01:00:00Z</time>
      </trkpt>
      <trkpt lat="63.42384067" lon="10.28204417">
        <ele>290.478</ele>
        <time>1970-01-01T01:00:00Z</time>
      </trkpt>
      <trkpt lat="63.42384333" lon="10.2820405">
        <ele>290.478</ele>
        <time>1970-01-01T01:00:00Z</time>
      </trkpt>
      <trkpt lat="63.42384483" lon="10.2820385">
        <ele>290.783</ele>
        <time>1970-01-01T01:00:00Z</time>
      </trkpt>
      <trkpt lat="63.42384533" lon="10.28203817">
        <ele>290.783</ele>
        <time>1970-01-01T01:00:00Z</time>
      </trkpt>
      <trkpt lat="63.42384467" lon="10.282039">
        <ele>291.088</ele>
        <time>1970-01-01T01:00:00Z</time>
      </trkpt>
      <trkpt lat="63.42384367" lon="10.28204033">
        <ele>291.088</ele>
        <time>1970-01-01T01:00:00Z</time>
      </trkpt>
      <trkpt lat="63.42384283" lon="10.2820415">
        <ele>291.392</ele>
        <time>1970-01-01T01:00:00Z</time>
      </trkpt>
      <trkpt lat="63.42384233" lon="10.282043">
        <ele>291.392</ele>
        <time>1970-01-01T01:00:00Z</time>
      </trkpt>
      <trkpt lat="63.42384217" lon="10.28204467">
        <ele>291.545</ele>
        <time>1970-01-01T01:00:00Z</time>
      </trkpt>
      <trkpt lat="63.42384217" lon="10.28204617">
        <ele>291.545</ele>
        <time>1970-01-01T01:00:00Z</time>
      </trkpt>
      <trkpt lat="63.42384217" lon="10.28204717">
        <ele>291.85</ele>
        <time>1970-01-01T01:00:00Z</time>
      </trkpt>
      <trkpt lat="63.42384233" lon="10.282048">
        <ele>291.85</ele>
        <time>1970-01-01T01:00:00Z</time>
      </trkpt>
      <trkpt lat="63.423842" lon="10.2820485">
        <ele>292.154</ele>
        <time>1970-01-01T01:00:00Z</time>
      </trkpt>
      <trkpt lat="63.4238415" lon="10.28205">
        <ele>292.154</ele>
        <time>1970-01-01T01:00:00Z</time>
      </trkpt>
      <trkpt lat="63.423841" lon="10.28205183">
        <ele>292.459</ele>
        <time>1970-01-01T01:00:00Z</time>
      </trkpt>
      <trkpt lat="63.42384133" lon="10.28205383">
        <ele>292.459</ele>
        <time>1970-01-01T01:00:00Z</time>
      </trkpt>
      <trkpt lat="63.42384117" lon="10.282055">
        <ele>292.764</ele>
        <time>1970-01-01T01:00:00Z</time>
      </trkpt>
      <trkpt lat="63.42384" lon="10.28205533">
        <ele>292.764</ele>
        <time>1970-01-01T01:00:00Z</time>
      </trkpt>
      <trkpt lat="63.423839" lon="10.28205383">
        <ele>292.916</ele>
        <time>1970-01-01T01:00:00Z</time>
      </trkpt>
      <trkpt lat="63.42383817" lon="10.28205333">
        <ele>292.916</ele>
        <time>1970-01-01T01:00:00Z</time>
      </trkpt>
      <trkpt lat="63.4238395" lon="10.2820535">
        <ele>293.221</ele>
        <time>1970-01-01T01:00:00Z</time>
      </trkpt>
      <trkpt lat="63.4238415" lon="10.28205717">
        <ele>293.221</ele>
        <time>1970-01-01T01:00:00Z</time>
      </trkpt>
      <trkpt lat="63.42384417" lon="10.28206033">
        <ele>293.526</ele>
        <time>1970-01-01T01:00:00Z</time>
      </trkpt>
      <trkpt lat="63.4238455" lon="10.28206167">
        <ele>293.526</ele>
        <time>1970-01-01T01:00:00Z</time>
      </trkpt>
      <trkpt lat="63.42384567" lon="10.282062">
        <ele>293.678</ele>
        <time>1970-01-01T01:00:00Z</time>
      </trkpt>
      <trkpt lat="63.42384467" lon="10.28206217">
        <ele>293.678</ele>
        <time>1970-01-01T01:00:00Z</time>
      </trkpt>
      <trkpt lat="63.42384333" lon="10.28206283">
        <ele>293.831</ele>
        <time>1970-01-01T01:00:00Z</time>
      </trkpt>
      <trkpt lat="63.42384233" lon="10.28206417">
        <ele>293.831</ele>
        <time>1970-01-01T01:00:00Z</time>
      </trkpt>
      <trkpt lat="63.423842" lon="10.28206517">
        <ele>294.136</ele>
        <time>1970-01-01T01:00:00Z</time>
      </trkpt>
      <trkpt lat="63.42384017" lon="10.28206617">
        <ele>294.136</ele>
        <time>1970-01-01T01:00:00Z</time>
      </trkpt>
      <trkpt lat="63.42383617" lon="10.28206533">
        <ele>294.288</ele>
        <time>1970-01-01T01:00:00Z</time>
      </trkpt>
      <trkpt lat="63.42383167" lon="10.282068">
        <ele>294.288</ele>
        <time>1970-01-01T01:00:00Z</time>
      </trkpt>
      <trkpt lat="63.42382817" lon="10.28207383">
        <ele>294.44</ele>
        <time>1970-01-01T01:00:00Z</time>
      </trkpt>
      <trkpt lat="63.42382417" lon="10.282081">
        <ele>294.44</ele>
        <time>1970-01-01T01:00:00Z</time>
      </trkpt>
      <trkpt lat="63.4238195" lon="10.2820875">
        <ele>294.593</ele>
        <time>1970-01-01T01:00:00Z</time>
      </trkpt>
      <trkpt lat="63.4238135" lon="10.28209417">
        <ele>294.593</ele>
        <time>1970-01-01T01:00:00Z</time>
      </trkpt>
      <trkpt lat="63.42380817" lon="10.28210167">
        <ele>294.745</ele>
        <time>1970-01-01T01:00:00Z</time>
      </trkpt>
      <trkpt lat="63.42380183" lon="10.28210483">
        <ele>294.745</ele>
        <time>1970-01-01T01:00:00Z</time>
      </trkpt>
      <trkpt lat="63.42379533" lon="10.28210117">
        <ele>294.745</ele>
        <time>1970-01-01T01:00:00Z</time>
      </trkpt>
      <trkpt lat="63.4237885" lon="10.28209183">
        <ele>294.745</ele>
        <time>1970-01-01T01:00:00Z</time>
      </trkpt>
      <trkpt lat="63.42378117" lon="10.2820815">
        <ele>294.898</ele>
        <time>1970-01-01T01:00:00Z</time>
      </trkpt>
      <trkpt lat="63.423773" lon="10.282074">
        <ele>294.898</ele>
        <time>1970-01-01T01:00:00Z</time>
      </trkpt>
      <trkpt lat="63.42376417" lon="10.28206883">
        <ele>295.05</ele>
        <time>1970-01-01T01:00:00Z</time>
      </trkpt>
      <trkpt lat="63.42375683" lon="10.282066">
        <ele>295.05</ele>
        <time>1970-01-01T01:00:00Z</time>
      </trkpt>
      <trkpt lat="63.42375" lon="10.2820655">
        <ele>295.05</ele>
        <time>1970-01-01T01:00:00Z</time>
      </trkpt>
      <trkpt lat="63.423743" lon="10.28206767">
        <ele>295.05</ele>
        <time>1970-01-01T01:00:00Z</time>
      </trkpt>
      <trkpt lat="63.4237325" lon="10.28207017">
        <ele>295.202</ele>
        <time>1970-01-01T01:00:00Z</time>
      </trkpt>
      <trkpt lat="63.42371933" lon="10.2820735">
        <ele>295.202</ele>
        <time>1970-01-01T01:00:00Z</time>
      </trkpt>
      <trkpt lat="63.42370683" lon="10.28207867">
        <ele>295.202</ele>
        <time>1970-01-01T01:00:00Z</time>
      </trkpt>
      <trkpt lat="63.4236955" lon="10.28208817">
        <ele>295.202</ele>
        <time>1970-01-01T01:00:00Z</time>
      </trkpt>
      <trkpt lat="63.42368617" lon="10.2820975">
        <ele>295.202</ele>
        <time>1970-01-01T01:00:00Z</time>
      </trkpt>
      <trkpt lat="63.42367567" lon="10.2821055">
        <ele>295.202</ele>
        <time>1970-01-01T01:00:00Z</time>
      </trkpt>
      <trkpt lat="63.42366633" lon="10.28211117">
        <ele>295.202</ele>
        <time>1970-01-01T01:00:00Z</time>
      </trkpt>
      <trkpt lat="63.42365717" lon="10.28211483">
        <ele>295.202</ele>
        <time>1970-01-01T01:00:00Z</time>
      </trkpt>
      <trkpt lat="63.42364817" lon="10.28211733">
        <ele>295.05</ele>
        <time>1970-01-01T01:00:00Z</time>
      </trkpt>
      <trkpt lat="63.423639" lon="10.28212267">
        <ele>295.05</ele>
        <time>1970-01-01T01:00:00Z</time>
      </trkpt>
      <trkpt lat="63.42362933" lon="10.28212983">
        <ele>295.05</ele>
        <time>1970-01-01T01:00:00Z</time>
      </trkpt>
      <trkpt lat="63.42361833" lon="10.2821345">
        <ele>295.05</ele>
        <time>1970-01-01T01:00:00Z</time>
      </trkpt>
      <trkpt lat="63.4236065" lon="10.2821375">
        <ele>294.898</ele>
        <time>1970-01-01T01:00:00Z</time>
      </trkpt>
      <trkpt lat="63.4235945" lon="10.28214067">
        <ele>294.898</ele>
        <time>1970-01-01T01:00:00Z</time>
      </trkpt>
      <trkpt lat="63.42358367" lon="10.282146">
        <ele>294.745</ele>
        <time>1970-01-01T01:00:00Z</time>
      </trkpt>
      <trkpt lat="63.42357283" lon="10.28215017">
        <ele>294.745</ele>
        <time>1970-01-01T01:00:00Z</time>
      </trkpt>
      <trkpt lat="63.42356233" lon="10.282154">
        <ele>294.593</ele>
        <time>1970-01-01T01:00:00Z</time>
      </trkpt>
      <trkpt lat="63.4235525" lon="10.28215717">
        <ele>294.593</ele>
        <time>1970-01-01T01:00:00Z</time>
      </trkpt>
      <trkpt lat="63.42354033" lon="10.28215733">
        <ele>294.593</ele>
        <time>1970-01-01T01:00:00Z</time>
      </trkpt>
      <trkpt lat="63.423528" lon="10.28215783">
        <ele>294.593</ele>
        <time>1970-01-01T01:00:00Z</time>
      </trkpt>
      <trkpt lat="63.42351583" lon="10.282156">
        <ele>294.44</ele>
        <time>1970-01-01T01:00:00Z</time>
      </trkpt>
      <trkpt lat="63.423507" lon="10.28215383">
        <ele>294.44</ele>
        <time>1970-01-01T01:00:00Z</time>
      </trkpt>
      <trkpt lat="63.4235" lon="10.282151">
        <ele>294.44</ele>
        <time>1970-01-01T01:00:00Z</time>
      </trkpt>
      <trkpt lat="63.42349367" lon="10.28215">
        <ele>294.44</ele>
        <time>1970-01-01T01:00:00Z</time>
      </trkpt>
      <trkpt lat="63.4234865" lon="10.28215067">
        <ele>294.288</ele>
        <time>1970-01-01T01:00:00Z</time>
      </trkpt>
      <trkpt lat="63.42347717" lon="10.28215267">
        <ele>294.288</ele>
        <time>1970-01-01T01:00:00Z</time>
      </trkpt>
      <trkpt lat="63.42346583" lon="10.2821545">
        <ele>294.288</ele>
        <time>1970-01-01T01:00:00Z</time>
      </trkpt>
      <trkpt lat="63.423451" lon="10.28216017">
        <ele>294.288</ele>
        <time>1970-01-01T01:00:00Z</time>
      </trkpt>
      <trkpt lat="63.42343533" lon="10.2821685">
        <ele>294.288</ele>
        <time>1970-01-01T01:00:00Z</time>
      </trkpt>
      <trkpt lat="63.42342083" lon="10.282178">
        <ele>294.288</ele>
        <time>1970-01-01T01:00:00Z</time>
      </trkpt>
      <trkpt lat="63.42340833" lon="10.28218617">
        <ele>294.136</ele>
        <time>1970-01-01T01:00:00Z</time>
      </trkpt>
      <trkpt lat="63.42339667" lon="10.28219667">
        <ele>294.136</ele>
        <time>1970-01-01T01:00:00Z</time>
      </trkpt>
      <trkpt lat="63.423386" lon="10.2822115">
        <ele>293.983</ele>
        <time>1970-01-01T01:00:00Z</time>
      </trkpt>
      <trkpt lat="63.4233755" lon="10.28221917">
        <ele>293.983</ele>
        <time>1970-01-01T01:00:00Z</time>
      </trkpt>
      <trkpt lat="63.42336467" lon="10.28222167">
        <ele>293.831</ele>
        <time>1970-01-01T01:00:00Z</time>
      </trkpt>
      <trkpt lat="63.4233525" lon="10.28222217">
        <ele>293.831</ele>
        <time>1970-01-01T01:00:00Z</time>
      </trkpt>
      <trkpt lat="63.42334217" lon="10.28222983">
        <ele>293.678</ele>
        <time>1970-01-01T01:00:00Z</time>
      </trkpt>
      <trkpt lat="63.42333383" lon="10.28223883">
        <ele>293.678</ele>
        <time>1970-01-01T01:00:00Z</time>
      </trkpt>
      <trkpt lat="63.423326" lon="10.28224517">
        <ele>293.374</ele>
        <time>1970-01-01T01:00:00Z</time>
      </trkpt>
      <trkpt lat="63.42331883" lon="10.28225117">
        <ele>293.374</ele>
        <time>1970-01-01T01:00:00Z</time>
      </trkpt>
      <trkpt lat="63.42331067" lon="10.28225517">
        <ele>293.221</ele>
        <time>1970-01-01T01:00:00Z</time>
      </trkpt>
      <trkpt lat="63.42330183" lon="10.28225833">
        <ele>293.221</ele>
        <time>1970-01-01T01:00:00Z</time>
      </trkpt>
      <trkpt lat="63.42328917" lon="10.28226383">
        <ele>292.916</ele>
        <time>1970-01-01T01:00:00Z</time>
      </trkpt>
      <trkpt lat="63.42327483" lon="10.28227317">
        <ele>292.916</ele>
        <time>1970-01-01T01:00:00Z</time>
      </trkpt>
      <trkpt lat="63.42326067" lon="10.2822825">
        <ele>292.764</ele>
        <time>1970-01-01T01:00:00Z</time>
      </trkpt>
      <trkpt lat="63.4232505" lon="10.28228667">
        <ele>292.764</ele>
        <time>1970-01-01T01:00:00Z</time>
      </trkpt>
      <trkpt lat="63.42324433" lon="10.28229167">
        <ele>292.612</ele>
        <time>1970-01-01T01:00:00Z</time>
      </trkpt>
      <trkpt lat="63.423241" lon="10.28230017">
        <ele>292.612</ele>
        <time>1970-01-01T01:00:00Z</time>
      </trkpt>
      <trkpt lat="63.42323883" lon="10.28230933">
        <ele>292.459</ele>
        <time>1970-01-01T01:00:00Z</time>
      </trkpt>
      <trkpt lat="63.42323683" lon="10.28231433">
        <ele>292.459</ele>
        <time>1970-01-01T01:00:00Z</time>
      </trkpt>
      <trkpt lat="63.42323417" lon="10.282316">
        <ele>292.307</ele>
        <time>1970-01-01T01:00:00Z</time>
      </trkpt>
      <trkpt lat="63.42323117" lon="10.2823185">
        <ele>292.307</ele>
        <time>1970-01-01T01:00:00Z</time>
      </trkpt>
      <trkpt lat="63.42322883" lon="10.28232017">
        <ele>292.154</ele>
        <time>1970-01-01T01:00:00Z</time>
      </trkpt>
      <trkpt lat="63.42322733" lon="10.28232233">
        <ele>292.154</ele>
        <time>1970-01-01T01:00:00Z</time>
      </trkpt>
      <trkpt lat="63.42322633" lon="10.28232367">
        <ele>292.154</ele>
        <time>1970-01-01T01:00:00Z</time>
      </trkpt>
      <trkpt lat="63.42322583" lon="10.282325">
        <ele>292.154</ele>
        <time>1970-01-01T01:00:00Z</time>
      </trkpt>
      <trkpt lat="63.42322617" lon="10.2823265">
        <ele>292.002</ele>
        <time>1970-01-01T01:00:00Z</time>
      </trkpt>
      <trkpt lat="63.42322683" lon="10.28232833">
        <ele>292.002</ele>
        <time>1970-01-01T01:00:00Z</time>
      </trkpt>
      <trkpt lat="63.423227" lon="10.2823305">
        <ele>291.85</ele>
        <time>1970-01-01T01:00:00Z</time>
      </trkpt>
      <trkpt lat="63.42322667" lon="10.28233183">
        <ele>291.85</ele>
        <time>1970-01-01T01:00:00Z</time>
      </trkpt>
      <trkpt lat="63.42322617" lon="10.28233367">
        <ele>291.85</ele>
        <time>1970-01-01T01:00:00Z</time>
      </trkpt>
      <trkpt lat="63.4232255" lon="10.28233517">
        <ele>291.85</ele>
        <time>1970-01-01T01:00:00Z</time>
      </trkpt>
      <trkpt lat="63.42322483" lon="10.28233717">
        <ele>291.697</ele>
        <time>1970-01-01T01:00:00Z</time>
      </trkpt>
      <trkpt lat="63.42322417" lon="10.28234167">
        <ele>291.697</ele>
        <time>1970-01-01T01:00:00Z</time>
      </trkpt>
      <trkpt lat="63.423223" lon="10.28234617">
        <ele>291.545</ele>
        <time>1970-01-01T01:00:00Z</time>
      </trkpt>
      <trkpt lat="63.42321917" lon="10.28235083">
        <ele>291.545</ele>
        <time>1970-01-01T01:00:00Z</time>
      </trkpt>
      <trkpt lat="63.42321367" lon="10.28235317">
        <ele>291.545</ele>
        <time>1970-01-01T01:00:00Z</time>
      </trkpt>
      <trkpt lat="63.42320733" lon="10.28235583">
        <ele>291.545</ele>
        <time>1970-01-01T01:00:00Z</time>
      </trkpt>
      <trkpt lat="63.42320217" lon="10.28236183">
        <ele>291.392</ele>
        <time>1970-01-01T01:00:00Z</time>
      </trkpt>
      <trkpt lat="63.4231965" lon="10.28236833">
        <ele>291.392</ele>
        <time>1970-01-01T01:00:00Z</time>
      </trkpt>
      <trkpt lat="63.42318883" lon="10.28238133">
        <ele>291.24</ele>
        <time>1970-01-01T01:00:00Z</time>
      </trkpt>
      <trkpt lat="63.42317967" lon="10.28240067">
        <ele>291.24</ele>
        <time>1970-01-01T01:00:00Z</time>
      </trkpt>
      <trkpt lat="63.4231705" lon="10.28242683">
        <ele>291.24</ele>
        <time>1970-01-01T01:00:00Z</time>
      </trkpt>
      <trkpt lat="63.423162" lon="10.2824515">
        <ele>291.24</ele>
        <time>1970-01-01T01:00:00Z</time>
      </trkpt>
      <trkpt lat="63.423155" lon="10.282472">
        <ele>291.088</ele>
        <time>1970-01-01T01:00:00Z</time>
      </trkpt>
      <trkpt lat="63.4231495" lon="10.282491">
        <ele>291.088</ele>
        <time>1970-01-01T01:00:00Z</time>
      </trkpt>
      <trkpt lat="63.42314367" lon="10.28250717">
        <ele>291.088</ele>
        <time>1970-01-01T01:00:00Z</time>
      </trkpt>
      <trkpt lat="63.42313667" lon="10.2825215">
        <ele>291.088</ele>
        <time>1970-01-01T01:00:00Z</time>
      </trkpt>
      <trkpt lat="63.42312783" lon="10.28253167">
        <ele>290.935</ele>
        <time>1970-01-01T01:00:00Z</time>
      </trkpt>
      <trkpt lat="63.4231205" lon="10.28254067">
        <ele>290.935</ele>
        <time>1970-01-01T01:00:00Z</time>
      </trkpt>
      <trkpt lat="63.42311267" lon="10.28254867">
        <ele>290.783</ele>
        <time>1970-01-01T01:00:00Z</time>
      </trkpt>
      <trkpt lat="63.4231055" lon="10.28255983">
        <ele>290.783</ele>
        <time>1970-01-01T01:00:00Z</time>
      </trkpt>
      <trkpt lat="63.42309767" lon="10.2825755">
        <ele>290.783</ele>
        <time>1970-01-01T01:00:00Z</time>
      </trkpt>
      <trkpt lat="63.4230905" lon="10.28259633">
        <ele>290.783</ele>
        <time>1970-01-01T01:00:00Z</time>
      </trkpt>
      <trkpt lat="63.42308417" lon="10.2826225">
        <ele>290.63</ele>
        <time>1970-01-01T01:00:00Z</time>
      </trkpt>
      <trkpt lat="63.4230795" lon="10.28265">
        <ele>290.63</ele>
        <time>1970-01-01T01:00:00Z</time>
      </trkpt>
      <trkpt lat="63.423076" lon="10.282677">
        <ele>290.63</ele>
        <time>1970-01-01T01:00:00Z</time>
      </trkpt>
      <trkpt lat="63.42307333" lon="10.28270033">
        <ele>290.63</ele>
        <time>1970-01-01T01:00:00Z</time>
      </trkpt>
      <trkpt lat="63.42307167" lon="10.28272467">
        <ele>290.478</ele>
        <time>1970-01-01T01:00:00Z</time>
      </trkpt>
      <trkpt lat="63.42306867" lon="10.28274867">
        <ele>290.478</ele>
        <time>1970-01-01T01:00:00Z</time>
      </trkpt>
      <trkpt lat="63.423066" lon="10.2827725">
        <ele>290.326</ele>
        <time>1970-01-01T01:00:00Z</time>
      </trkpt>
      <trkpt lat="63.4230625" lon="10.28279533">
        <ele>290.326</ele>
        <time>1970-01-01T01:00:00Z</time>
      </trkpt>
      <trkpt lat="63.42306183" lon="10.28281917">
        <ele>290.326</ele>
        <time>1970-01-01T01:00:00Z</time>
      </trkpt>
      <trkpt lat="63.423061" lon="10.28284633">
        <ele>290.326</ele>
        <time>1970-01-01T01:00:00Z</time>
      </trkpt>
      <trkpt lat="63.42306067" lon="10.28287467">
        <ele>290.173</ele>
        <time>1970-01-01T01:00:00Z</time>
      </trkpt>
      <trkpt lat="63.42306033" lon="10.2829045">
        <ele>290.173</ele>
        <time>1970-01-01T01:00:00Z</time>
      </trkpt>
      <trkpt lat="63.42306167" lon="10.28293133">
        <ele>290.021</ele>
        <time>1970-01-01T01:00:00Z</time>
      </trkpt>
      <trkpt lat="63.423064" lon="10.28296067">
        <ele>290.021</ele>
        <time>1970-01-01T01:00:00Z</time>
      </trkpt>
      <trkpt lat="63.423066" lon="10.2829875">
        <ele>290.021</ele>
        <time>1970-01-01T01:00:00Z</time>
      </trkpt>
      <trkpt lat="63.42306483" lon="10.28301967">
        <ele>290.021</ele>
        <time>1970-01-01T01:00:00Z</time>
      </trkpt>
      <trkpt lat="63.42306133" lon="10.28304967">
        <ele>290.021</ele>
        <time>1970-01-01T01:00:00Z</time>
      </trkpt>
      <trkpt lat="63.423057" lon="10.28307917">
        <ele>290.021</ele>
        <time>1970-01-01T01:00:00Z</time>
      </trkpt>
      <trkpt lat="63.42305567" lon="10.283106">
        <ele>290.021</ele>
        <time>1970-01-01T01:00:00Z</time>
      </trkpt>
      <trkpt lat="63.4230545" lon="10.283133">
        <ele>290.021</ele>
        <time>1970-01-01T01:00:00Z</time>
      </trkpt>
      <trkpt lat="63.42305517" lon="10.28316083">
        <ele>290.021</ele>
        <time>1970-01-01T01:00:00Z</time>
      </trkpt>
      <trkpt lat="63.42305533" lon="10.28318967">
        <ele>290.021</ele>
        <time>1970-01-01T01:00:00Z</time>
      </trkpt>
      <trkpt lat="63.42305517" lon="10.28321717">
        <ele>290.173</ele>
        <time>1970-01-01T01:00:00Z</time>
      </trkpt>
      <trkpt lat="63.42305217" lon="10.28324467">
        <ele>290.173</ele>
        <time>1970-01-01T01:00:00Z</time>
      </trkpt>
      <trkpt lat="63.4230485" lon="10.28326883">
        <ele>290.173</ele>
        <time>1970-01-01T01:00:00Z</time>
      </trkpt>
      <trkpt lat="63.423046" lon="10.28329367">
        <ele>290.173</ele>
        <time>1970-01-01T01:00:00Z</time>
      </trkpt>
      <trkpt lat="63.4230455" lon="10.28331667">
        <ele>290.326</ele>
        <time>1970-01-01T01:00:00Z</time>
      </trkpt>
      <trkpt lat="63.42304567" lon="10.28333667">
        <ele>290.326</ele>
        <time>1970-01-01T01:00:00Z</time>
      </trkpt>
      <trkpt lat="63.42304617" lon="10.2833535">
        <ele>290.326</ele>
        <time>1970-01-01T01:00:00Z</time>
      </trkpt>
      <trkpt lat="63.42304583" lon="10.28336983">
        <ele>290.326</ele>
        <time>1970-01-01T01:00:00Z</time>
      </trkpt>
      <trkpt lat="63.4230445" lon="10.28339233">
        <ele>290.478</ele>
        <time>1970-01-01T01:00:00Z</time>
      </trkpt>
      <trkpt lat="63.42304267" lon="10.28342567">
        <ele>290.478</ele>
        <time>1970-01-01T01:00:00Z</time>
      </trkpt>
      <trkpt lat="63.42304417" lon="10.2834635">
        <ele>290.478</ele>
        <time>1970-01-01T01:00:00Z</time>
      </trkpt>
      <trkpt lat="63.42304967" lon="10.283502">
        <ele>290.478</ele>
        <time>1970-01-01T01:00:00Z</time>
      </trkpt>
      <trkpt lat="63.423057" lon="10.28353417">
        <ele>290.63</ele>
        <time>1970-01-01T01:00:00Z</time>
      </trkpt>
      <trkpt lat="63.42306367" lon="10.28356317">
        <ele>290.63</ele>
        <time>1970-01-01T01:00:00Z</time>
      </trkpt>
      <trkpt lat="63.4230705" lon="10.28359067">
        <ele>290.63</ele>
        <time>1970-01-01T01:00:00Z</time>
      </trkpt>
      <trkpt lat="63.42307767" lon="10.28361817">
        <ele>290.63</ele>
        <time>1970-01-01T01:00:00Z</time>
      </trkpt>
      <trkpt lat="63.4230845" lon="10.28364217">
        <ele>290.783</ele>
        <time>1970-01-01T01:00:00Z</time>
      </trkpt>
      <trkpt lat="63.42309017" lon="10.2836665">
        <ele>290.783</ele>
        <time>1970-01-01T01:00:00Z</time>
      </trkpt>
      <trkpt lat="63.423096" lon="10.2836845">
        <ele>290.783</ele>
        <time>1970-01-01T01:00:00Z</time>
      </trkpt>
      <trkpt lat="63.42310417" lon="10.28370483">
        <ele>290.783</ele>
        <time>1970-01-01T01:00:00Z</time>
      </trkpt>
      <trkpt lat="63.42311233" lon="10.28372433">
        <ele>290.935</ele>
        <time>1970-01-01T01:00:00Z</time>
      </trkpt>
      <trkpt lat="63.42311917" lon="10.28374633">
        <ele>290.935</ele>
        <time>1970-01-01T01:00:00Z</time>
      </trkpt>
      <trkpt lat="63.42312467" lon="10.2837685">
        <ele>291.088</ele>
        <time>1970-01-01T01:00:00Z</time>
      </trkpt>
      <trkpt lat="63.42312717" lon="10.28379117">
        <ele>291.088</ele>
        <time>1970-01-01T01:00:00Z</time>
      </trkpt>
      <trkpt lat="63.42312733" lon="10.28382233">
        <ele>291.24</ele>
        <time>1970-01-01T01:00:00Z</time>
      </trkpt>
      <trkpt lat="63.42312467" lon="10.283859">
        <ele>291.24</ele>
        <time>1970-01-01T01:00:00Z</time>
      </trkpt>
      <trkpt lat="63.42312417" lon="10.28389917">
        <ele>291.392</ele>
        <time>1970-01-01T01:00:00Z</time>
      </trkpt>
      <trkpt lat="63.42312617" lon="10.28393633">
        <ele>291.392</ele>
        <time>1970-01-01T01:00:00Z</time>
      </trkpt>
      <trkpt lat="63.4231305" lon="10.28397283">
        <ele>291.545</ele>
        <time>1970-01-01T01:00:00Z</time>
      </trkpt>
      <trkpt lat="63.42313633" lon="10.284008">
        <ele>291.545</ele>
        <time>1970-01-01T01:00:00Z</time>
      </trkpt>
      <trkpt lat="63.42314367" lon="10.28404017">
        <ele>291.697</ele>
        <time>1970-01-01T01:00:00Z</time>
      </trkpt>
      <trkpt lat="63.42315183" lon="10.28407233">
        <ele>291.697</ele>
        <time>1970-01-01T01:00:00Z</time>
      </trkpt>
      <trkpt lat="63.42315933" lon="10.28409833">
        <ele>291.85</ele>
        <time>1970-01-01T01:00:00Z</time>
      </trkpt>
      <trkpt lat="63.42316533" lon="10.28412317">
        <ele>291.85</ele>
        <time>1970-01-01T01:00:00Z</time>
      </trkpt>
      <trkpt lat="63.4231685" lon="10.2841445">
        <ele>291.85</ele>
        <time>1970-01-01T01:00:00Z</time>
      </trkpt>
      <trkpt lat="63.42317083" lon="10.28416817">
        <ele>291.85</ele>
        <time>1970-01-01T01:00:00Z</time>
      </trkpt>
      <trkpt lat="63.42317333" lon="10.284192">
        <ele>292.002</ele>
        <time>1970-01-01T01:00:00Z</time>
      </trkpt>
      <trkpt lat="63.42317717" lon="10.2842175">
        <ele>292.002</ele>
        <time>1970-01-01T01:00:00Z</time>
      </trkpt>
      <trkpt lat="63.42317933" lon="10.2842415">
        <ele>292.154</ele>
        <time>1970-01-01T01:00:00Z</time>
      </trkpt>
      <trkpt lat="63.4231795" lon="10.2842665">
        <ele>292.154</ele>
        <time>1970-01-01T01:00:00Z</time>
      </trkpt>
      <trkpt lat="63.42317917" lon="10.28428867">
        <ele>292.154</ele>
        <time>1970-01-01T01:00:00Z</time>
      </trkpt>
      <trkpt lat="63.42317917" lon="10.28431283">
        <ele>292.154</ele>
        <time>1970-01-01T01:00:00Z</time>
      </trkpt>
      <trkpt lat="63.4231815" lon="10.28433783">
        <ele>292.307</ele>
        <time>1970-01-01T01:00:00Z</time>
      </trkpt>
      <trkpt lat="63.42318433" lon="10.2843645">
        <ele>292.307</ele>
        <time>1970-01-01T01:00:00Z</time>
      </trkpt>
      <trkpt lat="63.42318917" lon="10.28439383">
        <ele>292.307</ele>
        <time>1970-01-01T01:00:00Z</time>
      </trkpt>
      <trkpt lat="63.4231945" lon="10.28442183">
        <ele>292.307</ele>
        <time>1970-01-01T01:00:00Z</time>
      </trkpt>
      <trkpt lat="63.42320017" lon="10.2844505">
        <ele>292.307</ele>
        <time>1970-01-01T01:00:00Z</time>
      </trkpt>
      <trkpt lat="63.423208" lon="10.28447767">
        <ele>292.307</ele>
        <time>1970-01-01T01:00:00Z</time>
      </trkpt>
      <trkpt lat="63.42321383" lon="10.28450383">
        <ele>292.307</ele>
        <time>1970-01-01T01:00:00Z</time>
      </trkpt>
      <trkpt lat="63.42322233" lon="10.2845355">
        <ele>292.307</ele>
        <time>1970-01-01T01:00:00Z</time>
      </trkpt>
      <trkpt lat="63.42322867" lon="10.28456567">
        <ele>292.154</ele>
        <time>1970-01-01T01:00:00Z</time>
      </trkpt>
      <trkpt lat="63.4232385" lon="10.28459917">
        <ele>292.154</ele>
        <time>1970-01-01T01:00:00Z</time>
      </trkpt>
      <trkpt lat="63.4232445" lon="10.28462633">
        <ele>292.154</ele>
        <time>1970-01-01T01:00:00Z</time>
      </trkpt>
      <trkpt lat="63.42324983" lon="10.284654">
        <ele>292.154</ele>
        <time>1970-01-01T01:00:00Z</time>
      </trkpt>
      <trkpt lat="63.42325333" lon="10.28467983">
        <ele>292.002</ele>
        <time>1970-01-01T01:00:00Z</time>
      </trkpt>
      <trkpt lat="63.423257" lon="10.284707">
        <ele>292.002</ele>
        <time>1970-01-01T01:00:00Z</time>
      </trkpt>
      <trkpt lat="63.4232605" lon="10.28473433">
        <ele>291.85</ele>
        <time>1970-01-01T01:00:00Z</time>
      </trkpt>
      <trkpt lat="63.4232635" lon="10.284762">
        <ele>291.85</ele>
        <time>1970-01-01T01:00:00Z</time>
      </trkpt>
      <trkpt lat="63.42326567" lon="10.28479">
        <ele>291.697</ele>
        <time>1970-01-01T01:00:00Z</time>
      </trkpt>
      <trkpt lat="63.4232675" lon="10.28481917">
        <ele>291.697</ele>
        <time>1970-01-01T01:00:00Z</time>
      </trkpt>
      <trkpt lat="63.42326983" lon="10.284849">
        <ele>291.545</ele>
        <time>1970-01-01T01:00:00Z</time>
      </trkpt>
      <trkpt lat="63.42327317" lon="10.2848795">
        <ele>291.545</ele>
        <time>1970-01-01T01:00:00Z</time>
      </trkpt>
      <trkpt lat="63.42327567" lon="10.284909">
        <ele>291.392</ele>
        <time>1970-01-01T01:00:00Z</time>
      </trkpt>
      <trkpt lat="63.423278" lon="10.28493817">
        <ele>291.392</ele>
        <time>1970-01-01T01:00:00Z</time>
      </trkpt>
      <trkpt lat="63.42328083" lon="10.284962">
        <ele>291.088</ele>
        <time>1970-01-01T01:00:00Z</time>
      </trkpt>
      <trkpt lat="63.42328667" lon="10.2849865">
        <ele>291.088</ele>
        <time>1970-01-01T01:00:00Z</time>
      </trkpt>
      <trkpt lat="63.4232925" lon="10.28501167">
        <ele>290.935</ele>
        <time>1970-01-01T01:00:00Z</time>
      </trkpt>
      <trkpt lat="63.4232985" lon="10.28504033">
        <ele>290.935</ele>
        <time>1970-01-01T01:00:00Z</time>
      </trkpt>
      <trkpt lat="63.42330133" lon="10.28506767">
        <ele>290.63</ele>
        <time>1970-01-01T01:00:00Z</time>
      </trkpt>
      <trkpt lat="63.4233055" lon="10.28509333">
        <ele>290.63</ele>
        <time>1970-01-01T01:00:00Z</time>
      </trkpt>
      <trkpt lat="63.42331067" lon="10.28511583">
        <ele>290.326</ele>
        <time>1970-01-01T01:00:00Z</time>
      </trkpt>
      <trkpt lat="63.42331767" lon="10.28513617">
        <ele>290.326</ele>
        <time>1970-01-01T01:00:00Z</time>
      </trkpt>
      <trkpt lat="63.4233245" lon="10.28515417">
        <ele>290.021</ele>
        <time>1970-01-01T01:00:00Z</time>
      </trkpt>
      <trkpt lat="63.42332783" lon="10.2851685">
        <ele>290.021</ele>
        <time>1970-01-01T01:00:00Z</time>
      </trkpt>
      <trkpt lat="63.42332933" lon="10.28517883">
        <ele>289.716</ele>
        <time>1970-01-01T01:00:00Z</time>
      </trkpt>
      <trkpt lat="63.42332967" lon="10.28518433">
        <ele>289.716</ele>
        <time>1970-01-01T01:00:00Z</time>
      </trkpt>
      <trkpt lat="63.423331" lon="10.28518833">
        <ele>289.411</ele>
        <time>1970-01-01T01:00:00Z</time>
      </trkpt>
      <trkpt lat="63.42333183" lon="10.28519133">
        <ele>289.411</ele>
        <time>1970-01-01T01:00:00Z</time>
      </trkpt>
      <trkpt lat="63.423331" lon="10.28519417">
        <ele>289.106</ele>
        <time>1970-01-01T01:00:00Z</time>
      </trkpt>
      <trkpt lat="63.4233305" lon="10.28519683">
        <ele>289.106</ele>
        <time>1970-01-01T01:00:00Z</time>
      </trkpt>
      <trkpt lat="63.42333333" lon="10.285205">
        <ele>288.954</ele>
        <time>1970-01-01T01:00:00Z</time>
      </trkpt>
      <trkpt lat="63.423339" lon="10.28521933">
        <ele>288.954</ele>
        <time>1970-01-01T01:00:00Z</time>
      </trkpt>
      <trkpt lat="63.4233445" lon="10.28523617">
        <ele>288.649</ele>
        <time>1970-01-01T01:00:00Z</time>
      </trkpt>
      <trkpt lat="63.4233485" lon="10.28524983">
        <ele>288.649</ele>
        <time>1970-01-01T01:00:00Z</time>
      </trkpt>
      <trkpt lat="63.42335083" lon="10.28525833">
        <ele>288.497</ele>
        <time>1970-01-01T01:00:00Z</time>
      </trkpt>
      <trkpt lat="63.423352" lon="10.28526883">
        <ele>288.497</ele>
        <time>1970-01-01T01:00:00Z</time>
      </trkpt>
      <trkpt lat="63.4233515" lon="10.28527683">
        <ele>288.192</ele>
        <time>1970-01-01T01:00:00Z</time>
      </trkpt>
      <trkpt lat="63.42335083" lon="10.2852835">
        <ele>288.192</ele>
        <time>1970-01-01T01:00:00Z</time>
      </trkpt>
      <trkpt lat="63.42334983" lon="10.28528483">
        <ele>288.039</ele>
        <time>1970-01-01T01:00:00Z</time>
      </trkpt>
      <trkpt lat="63.42335" lon="10.28528467">
        <ele>288.039</ele>
        <time>1970-01-01T01:00:00Z</time>
      </trkpt>
      <trkpt lat="63.42335133" lon="10.28528267">
        <ele>287.887</ele>
        <time>1970-01-01T01:00:00Z</time>
      </trkpt>
      <trkpt lat="63.423357" lon="10.28528233">
        <ele>287.887</ele>
        <time>1970-01-01T01:00:00Z</time>
      </trkpt>
      <trkpt lat="63.423364" lon="10.28528583">
        <ele>287.735</ele>
        <time>1970-01-01T01:00:00Z</time>
      </trkpt>
      <trkpt lat="63.4233715" lon="10.2852955">
        <ele>287.735</ele>
        <time>1970-01-01T01:00:00Z</time>
      </trkpt>
      <trkpt lat="63.42337733" lon="10.2853115">
        <ele>287.43</ele>
        <time>1970-01-01T01:00:00Z</time>
      </trkpt>
      <trkpt lat="63.42338433" lon="10.2853325">
        <ele>287.43</ele>
        <time>1970-01-01T01:00:00Z</time>
      </trkpt>
      <trkpt lat="63.42339033" lon="10.28535617">
        <ele>287.277</ele>
        <time>1970-01-01T01:00:00Z</time>
      </trkpt>
      <trkpt lat="63.42339717" lon="10.28537717">
        <ele>287.277</ele>
        <time>1970-01-01T01:00:00Z</time>
      </trkpt>
      <trkpt lat="63.42340233" lon="10.285398">
        <ele>287.125</ele>
        <time>1970-01-01T01:00:00Z</time>
      </trkpt>
      <trkpt lat="63.42340583" lon="10.28541933">
        <ele>287.125</ele>
        <time>1970-01-01T01:00:00Z</time>
      </trkpt>
      <trkpt lat="63.42340617" lon="10.28544267">
        <ele>286.973</ele>
        <time>1970-01-01T01:00:00Z</time>
      </trkpt>
      <trkpt lat="63.42340617" lon="10.28546767">
        <ele>286.973</ele>
        <time>1970-01-01T01:00:00Z</time>
      </trkpt>
      <trkpt lat="63.42340683" lon="10.285492">
        <ele>286.668</ele>
        <time>1970-01-01T01:00:00Z</time>
      </trkpt>
      <trkpt lat="63.423409" lon="10.2855185">
        <ele>286.668</ele>
        <time>1970-01-01T01:00:00Z</time>
      </trkpt>
      <trkpt lat="63.42341233" lon="10.28554433">
        <ele>286.515</ele>
        <time>1970-01-01T01:00:00Z</time>
      </trkpt>
      <trkpt lat="63.423417" lon="10.28557167">
        <ele>286.515</ele>
        <time>1970-01-01T01:00:00Z</time>
      </trkpt>
      <trkpt lat="63.423422" lon="10.2855995">
        <ele>286.363</ele>
        <time>1970-01-01T01:00:00Z</time>
      </trkpt>
      <trkpt lat="63.42342683" lon="10.28562567">
        <ele>286.363</ele>
        <time>1970-01-01T01:00:00Z</time>
      </trkpt>
      <trkpt lat="63.423432" lon="10.28565633">
        <ele>286.211</ele>
        <time>1970-01-01T01:00:00Z</time>
      </trkpt>
      <trkpt lat="63.423437" lon="10.28568467">
        <ele>286.211</ele>
        <time>1970-01-01T01:00:00Z</time>
      </trkpt>
      <trkpt lat="63.42344133" lon="10.285713">
        <ele>285.906</ele>
        <time>1970-01-01T01:00:00Z</time>
      </trkpt>
      <trkpt lat="63.42344567" lon="10.28573483">
        <ele>285.906</ele>
        <time>1970-01-01T01:00:00Z</time>
      </trkpt>
      <trkpt lat="63.42345217" lon="10.28575883">
        <ele>285.753</ele>
        <time>1970-01-01T01:00:00Z</time>
      </trkpt>
      <trkpt lat="63.42345933" lon="10.28578283">
        <ele>285.753</ele>
        <time>1970-01-01T01:00:00Z</time>
      </trkpt>
      <trkpt lat="63.42346683" lon="10.285809">
        <ele>285.601</ele>
        <time>1970-01-01T01:00:00Z</time>
      </trkpt>
      <trkpt lat="63.42347117" lon="10.28583717">
        <ele>285.601</ele>
        <time>1970-01-01T01:00:00Z</time>
      </trkpt>
      <trkpt lat="63.42347367" lon="10.28586583">
        <ele>285.449</ele>
        <time>1970-01-01T01:00:00Z</time>
      </trkpt>
      <trkpt lat="63.42347383" lon="10.2858925">
        <ele>285.449</ele>
        <time>1970-01-01T01:00:00Z</time>
      </trkpt>
      <trkpt lat="63.423473" lon="10.28591883">
        <ele>285.296</ele>
        <time>1970-01-01T01:00:00Z</time>
      </trkpt>
      <trkpt lat="63.423474" lon="10.28594583">
        <ele>285.296</ele>
        <time>1970-01-01T01:00:00Z</time>
      </trkpt>
      <trkpt lat="63.4234745" lon="10.28597417">
        <ele>285.144</ele>
        <time>1970-01-01T01:00:00Z</time>
      </trkpt>
      <trkpt lat="63.423473" lon="10.2860025">
        <ele>285.144</ele>
        <time>1970-01-01T01:00:00Z</time>
      </trkpt>
      <trkpt lat="63.423468" lon="10.28603">
        <ele>284.991</ele>
        <time>1970-01-01T01:00:00Z</time>
      </trkpt>
      <trkpt lat="63.42345967" lon="10.2860555">
        <ele>284.991</ele>
        <time>1970-01-01T01:00:00Z</time>
      </trkpt>
      <trkpt lat="63.4234515" lon="10.28607717">
        <ele>284.839</ele>
        <time>1970-01-01T01:00:00Z</time>
      </trkpt>
      <trkpt lat="63.42344383" lon="10.28609817">
        <ele>284.839</ele>
        <time>1970-01-01T01:00:00Z</time>
      </trkpt>
      <trkpt lat="63.4234385" lon="10.28611983">
        <ele>284.687</ele>
        <time>1970-01-01T01:00:00Z</time>
      </trkpt>
      <trkpt lat="63.423435" lon="10.28614367">
        <ele>284.687</ele>
        <time>1970-01-01T01:00:00Z</time>
      </trkpt>
      <trkpt lat="63.42343133" lon="10.28616767">
        <ele>284.534</ele>
        <time>1970-01-01T01:00:00Z</time>
      </trkpt>
      <trkpt lat="63.423427" lon="10.28619183">
        <ele>284.534</ele>
        <time>1970-01-01T01:00:00Z</time>
      </trkpt>
      <trkpt lat="63.4234225" lon="10.2862105">
        <ele>284.229</ele>
        <time>1970-01-01T01:00:00Z</time>
      </trkpt>
      <trkpt lat="63.4234195" lon="10.28622583">
        <ele>284.229</ele>
        <time>1970-01-01T01:00:00Z</time>
      </trkpt>
      <trkpt lat="63.4234165" lon="10.2862365">
        <ele>284.077</ele>
        <time>1970-01-01T01:00:00Z</time>
      </trkpt>
      <trkpt lat="63.4234125" lon="10.28624417">
        <ele>284.077</ele>
        <time>1970-01-01T01:00:00Z</time>
      </trkpt>
      <trkpt lat="63.423408" lon="10.28624783">
        <ele>283.925</ele>
        <time>1970-01-01T01:00:00Z</time>
      </trkpt>
      <trkpt lat="63.4234045" lon="10.2862485">
        <ele>283.925</ele>
        <time>1970-01-01T01:00:00Z</time>
      </trkpt>
      <trkpt lat="63.42340283" lon="10.28624933">
        <ele>283.62</ele>
        <time>1970-01-01T01:00:00Z</time>
      </trkpt>
      <trkpt lat="63.42340233" lon="10.28625117">
        <ele>283.62</ele>
        <time>1970-01-01T01:00:00Z</time>
      </trkpt>
      <trkpt lat="63.42340267" lon="10.2862555">
        <ele>283.467</ele>
        <time>1970-01-01T01:00:00Z</time>
      </trkpt>
      <trkpt lat="63.423404" lon="10.2862625">
        <ele>283.467</ele>
        <time>1970-01-01T01:00:00Z</time>
      </trkpt>
      <trkpt lat="63.423406" lon="10.28627133">
        <ele>283.315</ele>
        <time>1970-01-01T01:00:00Z</time>
      </trkpt>
      <trkpt lat="63.42340733" lon="10.28628083">
        <ele>283.315</ele>
        <time>1970-01-01T01:00:00Z</time>
      </trkpt>
      <trkpt lat="63.4234075" lon="10.28628833">
        <ele>283.163</ele>
        <time>1970-01-01T01:00:00Z</time>
      </trkpt>
      <trkpt lat="63.42340617" lon="10.28629317">
        <ele>283.163</ele>
        <time>1970-01-01T01:00:00Z</time>
      </trkpt>
      <trkpt lat="63.42340467" lon="10.28629683">
        <ele>282.858</ele>
        <time>1970-01-01T01:00:00Z</time>
      </trkpt>
      <trkpt lat="63.4234025" lon="10.28630083">
        <ele>282.858</ele>
        <time>1970-01-01T01:00:00Z</time>
      </trkpt>
      <trkpt lat="63.42339933" lon="10.28631">
        <ele>282.705</ele>
        <time>1970-01-01T01:00:00Z</time>
      </trkpt>
      <trkpt lat="63.42339617" lon="10.28632267">
        <ele>282.705</ele>
        <time>1970-01-01T01:00:00Z</time>
      </trkpt>
      <trkpt lat="63.42339433" lon="10.28633967">
        <ele>282.553</ele>
        <time>1970-01-01T01:00:00Z</time>
      </trkpt>
      <trkpt lat="63.42339317" lon="10.28635667">
        <ele>282.553</ele>
        <time>1970-01-01T01:00:00Z</time>
      </trkpt>
      <trkpt lat="63.42339217" lon="10.28637567">
        <ele>282.248</ele>
        <time>1970-01-01T01:00:00Z</time>
      </trkpt>
      <trkpt lat="63.42339033" lon="10.28639917">
        <ele>282.248</ele>
        <time>1970-01-01T01:00:00Z</time>
      </trkpt>
      <trkpt lat="63.42338717" lon="10.28642617">
        <ele>282.096</ele>
        <time>1970-01-01T01:00:00Z</time>
      </trkpt>
      <trkpt lat="63.423383" lon="10.28645383">
        <ele>282.096</ele>
        <time>1970-01-01T01:00:00Z</time>
      </trkpt>
      <trkpt lat="63.42337867" lon="10.28647933">
        <ele>281.943</ele>
        <time>1970-01-01T01:00:00Z</time>
      </trkpt>
      <trkpt lat="63.42337583" lon="10.28650633">
        <ele>281.943</ele>
        <time>1970-01-01T01:00:00Z</time>
      </trkpt>
      <trkpt lat="63.4233745" lon="10.286536">
        <ele>281.791</ele>
        <time>1970-01-01T01:00:00Z</time>
      </trkpt>
      <trkpt lat="63.423373" lon="10.2865645">
        <ele>281.791</ele>
        <time>1970-01-01T01:00:00Z</time>
      </trkpt>
      <trkpt lat="63.42337067" lon="10.28659067">
        <ele>281.486</ele>
        <time>1970-01-01T01:00:00Z</time>
      </trkpt>
      <trkpt lat="63.4233675" lon="10.28661333">
        <ele>281.486</ele>
        <time>1970-01-01T01:00:00Z</time>
      </trkpt>
      <trkpt lat="63.42336483" lon="10.286637">
        <ele>281.334</ele>
        <time>1970-01-01T01:00:00Z</time>
      </trkpt>
      <trkpt lat="63.42336433" lon="10.286665">
        <ele>281.334</ele>
        <time>1970-01-01T01:00:00Z</time>
      </trkpt>
      <trkpt lat="63.4233645" lon="10.28669733">
        <ele>281.181</ele>
        <time>1970-01-01T01:00:00Z</time>
      </trkpt>
      <trkpt lat="63.42336517" lon="10.28673">
        <ele>281.181</ele>
        <time>1970-01-01T01:00:00Z</time>
      </trkpt>
      <trkpt lat="63.423364" lon="10.28676017">
        <ele>280.877</ele>
        <time>1970-01-01T01:00:00Z</time>
      </trkpt>
      <trkpt lat="63.42336167" lon="10.2867885">
        <ele>280.877</ele>
        <time>1970-01-01T01:00:00Z</time>
      </trkpt>
      <trkpt lat="63.4233595" lon="10.28681133">
        <ele>280.724</ele>
        <time>1970-01-01T01:00:00Z</time>
      </trkpt>
      <trkpt lat="63.42335783" lon="10.28683033">
        <ele>280.724</ele>
        <time>1970-01-01T01:00:00Z</time>
      </trkpt>
      <trkpt lat="63.42335583" lon="10.28684333">
        <ele>280.572</ele>
        <time>1970-01-01T01:00:00Z</time>
      </trkpt>
      <trkpt lat="63.42335333" lon="10.28685267">
        <ele>280.572</ele>
        <time>1970-01-01T01:00:00Z</time>
      </trkpt>
      <trkpt lat="63.42335" lon="10.28685833">
        <ele>280.267</ele>
        <time>1970-01-01T01:00:00Z</time>
      </trkpt>
      <trkpt lat="63.42334633" lon="10.2868645">
        <ele>280.267</ele>
        <time>1970-01-01T01:00:00Z</time>
      </trkpt>
      <trkpt lat="63.4233425" lon="10.286879">
        <ele>280.115</ele>
        <time>1970-01-01T01:00:00Z</time>
      </trkpt>
      <trkpt lat="63.42333817" lon="10.2868985">
        <ele>280.115</ele>
        <time>1970-01-01T01:00:00Z</time>
      </trkpt>
      <trkpt lat="63.4233335" lon="10.28692083">
        <ele>279.962</ele>
        <time>1970-01-01T01:00:00Z</time>
      </trkpt>
      <trkpt lat="63.42332833" lon="10.28694067">
        <ele>279.962</ele>
        <time>1970-01-01T01:00:00Z</time>
      </trkpt>
      <trkpt lat="63.42332267" lon="10.286961">
        <ele>279.657</ele>
        <time>1970-01-01T01:00:00Z</time>
      </trkpt>
      <trkpt lat="63.423317" lon="10.28698183">
        <ele>279.657</ele>
        <time>1970-01-01T01:00:00Z</time>
      </trkpt>
      <trkpt lat="63.42331017" lon="10.28700383">
        <ele>279.353</ele>
        <time>1970-01-01T01:00:00Z</time>
      </trkpt>
      <trkpt lat="63.4233035" lon="10.28702583">
        <ele>279.353</ele>
        <time>1970-01-01T01:00:00Z</time>
      </trkpt>
      <trkpt lat="63.42329767" lon="10.28704833">
        <ele>279.2</ele>
        <time>1970-01-01T01:00:00Z</time>
      </trkpt>
      <trkpt lat="63.423292" lon="10.28707467">
        <ele>279.2</ele>
        <time>1970-01-01T01:00:00Z</time>
      </trkpt>
      <trkpt lat="63.4232875" lon="10.2871035">
        <ele>278.895</ele>
        <time>1970-01-01T01:00:00Z</time>
      </trkpt>
      <trkpt lat="63.423283" lon="10.28713167">
        <ele>278.895</ele>
        <time>1970-01-01T01:00:00Z</time>
      </trkpt>
      <trkpt lat="63.423278" lon="10.28715767">
        <ele>278.591</ele>
        <time>1970-01-01T01:00:00Z</time>
      </trkpt>
      <trkpt lat="63.42327233" lon="10.2871805">
        <ele>278.591</ele>
        <time>1970-01-01T01:00:00Z</time>
      </trkpt>
      <trkpt lat="63.4232665" lon="10.28720217">
        <ele>278.286</ele>
        <time>1970-01-01T01:00:00Z</time>
      </trkpt>
      <trkpt lat="63.423262" lon="10.2872235">
        <ele>278.286</ele>
        <time>1970-01-01T01:00:00Z</time>
      </trkpt>
      <trkpt lat="63.4232585" lon="10.287244">
        <ele>277.981</ele>
        <time>1970-01-01T01:00:00Z</time>
      </trkpt>
      <trkpt lat="63.4232555" lon="10.287267">
        <ele>277.981</ele>
        <time>1970-01-01T01:00:00Z</time>
      </trkpt>
      <trkpt lat="63.423252" lon="10.28729167">
        <ele>277.676</ele>
        <time>1970-01-01T01:00:00Z</time>
      </trkpt>
      <trkpt lat="63.423248" lon="10.28731867">
        <ele>277.676</ele>
        <time>1970-01-01T01:00:00Z</time>
      </trkpt>
      <trkpt lat="63.42324367" lon="10.28734683">
        <ele>277.371</ele>
        <time>1970-01-01T01:00:00Z</time>
      </trkpt>
      <trkpt lat="63.42323917" lon="10.28737667">
        <ele>277.371</ele>
        <time>1970-01-01T01:00:00Z</time>
      </trkpt>
      <trkpt lat="63.4232355" lon="10.28741">
        <ele>277.067</ele>
        <time>1970-01-01T01:00:00Z</time>
      </trkpt>
      <trkpt lat="63.42323317" lon="10.28744367">
        <ele>277.067</ele>
        <time>1970-01-01T01:00:00Z</time>
      </trkpt>
      <trkpt lat="63.42323133" lon="10.287475">
        <ele>276.762</ele>
        <time>1970-01-01T01:00:00Z</time>
      </trkpt>
      <trkpt lat="63.42322867" lon="10.28750483">
        <ele>276.762</ele>
        <time>1970-01-01T01:00:00Z</time>
      </trkpt>
      <trkpt lat="63.42322483" lon="10.2875335">
        <ele>276.609</ele>
        <time>1970-01-01T01:00:00Z</time>
      </trkpt>
      <trkpt lat="63.42322083" lon="10.2875605">
        <ele>276.609</ele>
        <time>1970-01-01T01:00:00Z</time>
      </trkpt>
      <trkpt lat="63.42321517" lon="10.28758633">
        <ele>276.305</ele>
        <time>1970-01-01T01:00:00Z</time>
      </trkpt>
      <trkpt lat="63.42320867" lon="10.28761167">
        <ele>276.305</ele>
        <time>1970-01-01T01:00:00Z</time>
      </trkpt>
      <trkpt lat="63.42320233" lon="10.28763883">
        <ele>276</ele>
        <time>1970-01-01T01:00:00Z</time>
      </trkpt>
      <trkpt lat="63.42319717" lon="10.28766467">
        <ele>276</ele>
        <time>1970-01-01T01:00:00Z</time>
      </trkpt>
      <trkpt lat="63.42319317" lon="10.28769033">
        <ele>275.847</ele>
        <time>1970-01-01T01:00:00Z</time>
      </trkpt>
      <trkpt lat="63.423189" lon="10.287718">
        <ele>275.847</ele>
        <time>1970-01-01T01:00:00Z</time>
      </trkpt>
      <trkpt lat="63.4231855" lon="10.28774717">
        <ele>275.543</ele>
        <time>1970-01-01T01:00:00Z</time>
      </trkpt>
      <trkpt lat="63.423182" lon="10.287775">
        <ele>275.543</ele>
        <time>1970-01-01T01:00:00Z</time>
      </trkpt>
      <trkpt lat="63.42317883" lon="10.287798">
        <ele>275.238</ele>
        <time>1970-01-01T01:00:00Z</time>
      </trkpt>
      <trkpt lat="63.42317633" lon="10.28782433">
        <ele>275.238</ele>
        <time>1970-01-01T01:00:00Z</time>
      </trkpt>
      <trkpt lat="63.42317633" lon="10.28785433">
        <ele>275.085</ele>
        <time>1970-01-01T01:00:00Z</time>
      </trkpt>
      <trkpt lat="63.42317717" lon="10.287888">
        <ele>275.085</ele>
        <time>1970-01-01T01:00:00Z</time>
      </trkpt>
      <trkpt lat="63.42317767" lon="10.287918">
        <ele>274.781</ele>
        <time>1970-01-01T01:00:00Z</time>
      </trkpt>
      <trkpt lat="63.42317433" lon="10.28794767">
        <ele>274.781</ele>
        <time>1970-01-01T01:00:00Z</time>
      </trkpt>
      <trkpt lat="63.4231695" lon="10.287977">
        <ele>274.628</ele>
        <time>1970-01-01T01:00:00Z</time>
      </trkpt>
      <trkpt lat="63.4231625" lon="10.28800733">
        <ele>274.628</ele>
        <time>1970-01-01T01:00:00Z</time>
      </trkpt>
      <trkpt lat="63.423156" lon="10.28803333">
        <ele>274.323</ele>
        <time>1970-01-01T01:00:00Z</time>
      </trkpt>
      <trkpt lat="63.423149" lon="10.28805733">
        <ele>274.323</ele>
        <time>1970-01-01T01:00:00Z</time>
      </trkpt>
      <trkpt lat="63.42314317" lon="10.288081">
        <ele>274.171</ele>
        <time>1970-01-01T01:00:00Z</time>
      </trkpt>
      <trkpt lat="63.4231385" lon="10.28810067">
        <ele>274.171</ele>
        <time>1970-01-01T01:00:00Z</time>
      </trkpt>
      <trkpt lat="63.42313517" lon="10.2881175">
        <ele>273.866</ele>
        <time>1970-01-01T01:00:00Z</time>
      </trkpt>
      <trkpt lat="63.42313267" lon="10.28812717">
        <ele>273.866</ele>
        <time>1970-01-01T01:00:00Z</time>
      </trkpt>
      <trkpt lat="63.42313083" lon="10.28813617">
        <ele>273.714</ele>
        <time>1970-01-01T01:00:00Z</time>
      </trkpt>
      <trkpt lat="63.42313033" lon="10.28814117">
        <ele>273.714</ele>
        <time>1970-01-01T01:00:00Z</time>
      </trkpt>
      <trkpt lat="63.4231305" lon="10.28814767">
        <ele>273.561</ele>
        <time>1970-01-01T01:00:00Z</time>
      </trkpt>
      <trkpt lat="63.42313033" lon="10.2881575">
        <ele>273.561</ele>
        <time>1970-01-01T01:00:00Z</time>
      </trkpt>
      <trkpt lat="63.42312933" lon="10.28816883">
        <ele>273.257</ele>
        <time>1970-01-01T01:00:00Z</time>
      </trkpt>
      <trkpt lat="63.42312883" lon="10.28817833">
        <ele>273.257</ele>
        <time>1970-01-01T01:00:00Z</time>
      </trkpt>
      <trkpt lat="63.4231285" lon="10.288188">
        <ele>273.104</ele>
        <time>1970-01-01T01:00:00Z</time>
      </trkpt>
      <trkpt lat="63.42312933" lon="10.2882035">
        <ele>273.104</ele>
        <time>1970-01-01T01:00:00Z</time>
      </trkpt>
      <trkpt lat="63.42313" lon="10.28822417">
        <ele>272.952</ele>
        <time>1970-01-01T01:00:00Z</time>
      </trkpt>
      <trkpt lat="63.42313233" lon="10.28824833">
        <ele>272.952</ele>
        <time>1970-01-01T01:00:00Z</time>
      </trkpt>
      <trkpt lat="63.423134" lon="10.28827267">
        <ele>272.647</ele>
        <time>1970-01-01T01:00:00Z</time>
      </trkpt>
      <trkpt lat="63.42313633" lon="10.2882985">
        <ele>272.647</ele>
        <time>1970-01-01T01:00:00Z</time>
      </trkpt>
      <trkpt lat="63.42313767" lon="10.288324">
        <ele>272.495</ele>
        <time>1970-01-01T01:00:00Z</time>
      </trkpt>
      <trkpt lat="63.42314017" lon="10.28834817">
        <ele>272.495</ele>
        <time>1970-01-01T01:00:00Z</time>
      </trkpt>
      <trkpt lat="63.42314267" lon="10.288373">
        <ele>272.19</ele>
        <time>1970-01-01T01:00:00Z</time>
      </trkpt>
      <trkpt lat="63.42314683" lon="10.28839783">
        <ele>272.19</ele>
        <time>1970-01-01T01:00:00Z</time>
      </trkpt>
      <trkpt lat="63.42315067" lon="10.28842467">
        <ele>272.037</ele>
        <time>1970-01-01T01:00:00Z</time>
      </trkpt>
      <trkpt lat="63.42315367" lon="10.28845033">
        <ele>272.037</ele>
        <time>1970-01-01T01:00:00Z</time>
      </trkpt>
      <trkpt lat="63.42315517" lon="10.2884755">
        <ele>271.732</ele>
        <time>1970-01-01T01:00:00Z</time>
      </trkpt>
      <trkpt lat="63.42315567" lon="10.2885005">
        <ele>271.732</ele>
        <time>1970-01-01T01:00:00Z</time>
      </trkpt>
      <trkpt lat="63.4231565" lon="10.28852617">
        <ele>271.58</ele>
        <time>1970-01-01T01:00:00Z</time>
      </trkpt>
      <trkpt lat="63.42315733" lon="10.28855267">
        <ele>271.58</ele>
        <time>1970-01-01T01:00:00Z</time>
      </trkpt>
      <trkpt lat="63.42315767" lon="10.28858">
        <ele>271.275</ele>
        <time>1970-01-01T01:00:00Z</time>
      </trkpt>
      <trkpt lat="63.423156" lon="10.28860767">
        <ele>271.275</ele>
        <time>1970-01-01T01:00:00Z</time>
      </trkpt>
      <trkpt lat="63.42315483" lon="10.288632">
        <ele>271.123</ele>
        <time>1970-01-01T01:00:00Z</time>
      </trkpt>
      <trkpt lat="63.42315433" lon="10.2886575">
        <ele>271.123</ele>
        <time>1970-01-01T01:00:00Z</time>
      </trkpt>
      <trkpt lat="63.42315517" lon="10.28868283">
        <ele>270.818</ele>
        <time>1970-01-01T01:00:00Z</time>
      </trkpt>
      <trkpt lat="63.42315517" lon="10.28871167">
        <ele>270.818</ele>
        <time>1970-01-01T01:00:00Z</time>
      </trkpt>
      <trkpt lat="63.42315533" lon="10.288739">
        <ele>270.666</ele>
        <time>1970-01-01T01:00:00Z</time>
      </trkpt>
      <trkpt lat="63.42315517" lon="10.28876633">
        <ele>270.666</ele>
        <time>1970-01-01T01:00:00Z</time>
      </trkpt>
      <trkpt lat="63.42315583" lon="10.28879583">
        <ele>270.361</ele>
        <time>1970-01-01T01:00:00Z</time>
      </trkpt>
      <trkpt lat="63.423155" lon="10.28882267">
        <ele>270.361</ele>
        <time>1970-01-01T01:00:00Z</time>
      </trkpt>
      <trkpt lat="63.42315283" lon="10.2888505">
        <ele>270.208</ele>
        <time>1970-01-01T01:00:00Z</time>
      </trkpt>
      <trkpt lat="63.42314817" lon="10.288875">
        <ele>270.208</ele>
        <time>1970-01-01T01:00:00Z</time>
      </trkpt>
      <trkpt lat="63.4231435" lon="10.28889933">
        <ele>270.056</ele>
        <time>1970-01-01T01:00:00Z</time>
      </trkpt>
      <trkpt lat="63.42314033" lon="10.28892217">
        <ele>270.056</ele>
        <time>1970-01-01T01:00:00Z</time>
      </trkpt>
      <trkpt lat="63.423139" lon="10.28894383">
        <ele>269.751</ele>
        <time>1970-01-01T01:00:00Z</time>
      </trkpt>
      <trkpt lat="63.4231385" lon="10.28896467">
        <ele>269.751</ele>
        <time>1970-01-01T01:00:00Z</time>
      </trkpt>
      <trkpt lat="63.42313733" lon="10.28898467">
        <ele>269.599</ele>
        <time>1970-01-01T01:00:00Z</time>
      </trkpt>
      <trkpt lat="63.42313467" lon="10.289005">
        <ele>269.599</ele>
        <time>1970-01-01T01:00:00Z</time>
      </trkpt>
      <trkpt lat="63.42313" lon="10.28902917">
        <ele>269.446</ele>
        <time>1970-01-01T01:00:00Z</time>
      </trkpt>
      <trkpt lat="63.42312417" lon="10.28904833">
        <ele>269.446</ele>
        <time>1970-01-01T01:00:00Z</time>
      </trkpt>
      <trkpt lat="63.4231195" lon="10.2890675">
        <ele>269.294</ele>
        <time>1970-01-01T01:00:00Z</time>
      </trkpt>
      <trkpt lat="63.4231165" lon="10.2890845">
        <ele>269.294</ele>
        <time>1970-01-01T01:00:00Z</time>
      </trkpt>
      <trkpt lat="63.42311517" lon="10.28910917">
        <ele>269.142</ele>
        <time>1970-01-01T01:00:00Z</time>
      </trkpt>
      <trkpt lat="63.42311517" lon="10.28913583">
        <ele>269.142</ele>
        <time>1970-01-01T01:00:00Z</time>
      </trkpt>
      <trkpt lat="63.423117" lon="10.289164">
        <ele>268.989</ele>
        <time>1970-01-01T01:00:00Z</time>
      </trkpt>
      <trkpt lat="63.42311917" lon="10.28918833">
        <ele>268.989</ele>
        <time>1970-01-01T01:00:00Z</time>
      </trkpt>
      <trkpt lat="63.42312133" lon="10.28921033">
        <ele>268.837</ele>
        <time>1970-01-01T01:00:00Z</time>
      </trkpt>
      <trkpt lat="63.4231255" lon="10.28923783">
        <ele>268.837</ele>
        <time>1970-01-01T01:00:00Z</time>
      </trkpt>
      <trkpt lat="63.42312983" lon="10.28926783">
        <ele>268.684</ele>
        <time>1970-01-01T01:00:00Z</time>
      </trkpt>
      <trkpt lat="63.4231345" lon="10.28930067">
        <ele>268.684</ele>
        <time>1970-01-01T01:00:00Z</time>
      </trkpt>
      <trkpt lat="63.423136" lon="10.28933067">
        <ele>268.532</ele>
        <time>1970-01-01T01:00:00Z</time>
      </trkpt>
      <trkpt lat="63.42313333" lon="10.28935933">
        <ele>268.532</ele>
        <time>1970-01-01T01:00:00Z</time>
      </trkpt>
      <trkpt lat="63.42312917" lon="10.28938267">
        <ele>268.38</ele>
        <time>1970-01-01T01:00:00Z</time>
      </trkpt>
      <trkpt lat="63.42312367" lon="10.289399">
        <ele>268.38</ele>
        <time>1970-01-01T01:00:00Z</time>
      </trkpt>
      <trkpt lat="63.42312233" lon="10.28941217">
        <ele>268.075</ele>
        <time>1970-01-01T01:00:00Z</time>
      </trkpt>
      <trkpt lat="63.42312" lon="10.2894195">
        <ele>268.075</ele>
        <time>1970-01-01T01:00:00Z</time>
      </trkpt>
      <trkpt lat="63.4231185" lon="10.28942267">
        <ele>267.922</ele>
        <time>1970-01-01T01:00:00Z</time>
      </trkpt>
      <trkpt lat="63.42311733" lon="10.2894265">
        <ele>267.922</ele>
        <time>1970-01-01T01:00:00Z</time>
      </trkpt>
      <trkpt lat="63.423117" lon="10.28943483">
        <ele>267.618</ele>
        <time>1970-01-01T01:00:00Z</time>
      </trkpt>
      <trkpt lat="63.42311633" lon="10.289445">
        <ele>267.618</ele>
        <time>1970-01-01T01:00:00Z</time>
      </trkpt>
      <trkpt lat="63.42311417" lon="10.28945433">
        <ele>267.465</ele>
        <time>1970-01-01T01:00:00Z</time>
      </trkpt>
      <trkpt lat="63.42311183" lon="10.28946283">
        <ele>267.465</ele>
        <time>1970-01-01T01:00:00Z</time>
      </trkpt>
      <trkpt lat="63.42311083" lon="10.28947167">
        <ele>267.313</ele>
        <time>1970-01-01T01:00:00Z</time>
      </trkpt>
      <trkpt lat="63.42310967" lon="10.28948017">
        <ele>267.313</ele>
        <time>1970-01-01T01:00:00Z</time>
      </trkpt>
      <trkpt lat="63.42310817" lon="10.28948733">
        <ele>267.008</ele>
        <time>1970-01-01T01:00:00Z</time>
      </trkpt>
      <trkpt lat="63.4231065" lon="10.2894925">
        <ele>267.008</ele>
        <time>1970-01-01T01:00:00Z</time>
      </trkpt>
      <trkpt lat="63.42310517" lon="10.28949483">
        <ele>266.856</ele>
        <time>1970-01-01T01:00:00Z</time>
      </trkpt>
      <trkpt lat="63.42310467" lon="10.289496">
        <ele>266.856</ele>
        <time>1970-01-01T01:00:00Z</time>
      </trkpt>
      <trkpt lat="63.42310417" lon="10.289498">
        <ele>266.703</ele>
        <time>1970-01-01T01:00:00Z</time>
      </trkpt>
      <trkpt lat="63.42310367" lon="10.2895005">
        <ele>266.703</ele>
        <time>1970-01-01T01:00:00Z</time>
      </trkpt>
      <trkpt lat="63.42310267" lon="10.289504">
        <ele>266.398</ele>
        <time>1970-01-01T01:00:00Z</time>
      </trkpt>
      <trkpt lat="63.42310167" lon="10.28950933">
        <ele>266.398</ele>
        <time>1970-01-01T01:00:00Z</time>
      </trkpt>
      <trkpt lat="63.42310083" lon="10.28951883">
        <ele>266.246</ele>
        <time>1970-01-01T01:00:00Z</time>
      </trkpt>
      <trkpt lat="63.42309967" lon="10.28952833">
        <ele>266.246</ele>
        <time>1970-01-01T01:00:00Z</time>
      </trkpt>
      <trkpt lat="63.42309883" lon="10.28953667">
        <ele>266.094</ele>
        <time>1970-01-01T01:00:00Z</time>
      </trkpt>
      <trkpt lat="63.42309817" lon="10.28954233">
        <ele>266.094</ele>
        <time>1970-01-01T01:00:00Z</time>
      </trkpt>
      <trkpt lat="63.42309817" lon="10.28954733">
        <ele>265.789</ele>
        <time>1970-01-01T01:00:00Z</time>
      </trkpt>
      <trkpt lat="63.42309767" lon="10.289556">
        <ele>265.789</ele>
        <time>1970-01-01T01:00:00Z</time>
      </trkpt>
      <trkpt lat="63.42309717" lon="10.289563">
        <ele>265.636</ele>
        <time>1970-01-01T01:00:00Z</time>
      </trkpt>
      <trkpt lat="63.42309717" lon="10.28957367">
        <ele>265.636</ele>
        <time>1970-01-01T01:00:00Z</time>
      </trkpt>
      <trkpt lat="63.423098" lon="10.289583">
        <ele>265.484</ele>
        <time>1970-01-01T01:00:00Z</time>
      </trkpt>
      <trkpt lat="63.42309917" lon="10.289596">
        <ele>265.484</ele>
        <time>1970-01-01T01:00:00Z</time>
      </trkpt>
      <trkpt lat="63.42309983" lon="10.289607">
        <ele>265.179</ele>
        <time>1970-01-01T01:00:00Z</time>
      </trkpt>
      <trkpt lat="63.423101" lon="10.28961683">
        <ele>265.179</ele>
        <time>1970-01-01T01:00:00Z</time>
      </trkpt>
      <trkpt lat="63.423102" lon="10.28962933">
        <ele>265.027</ele>
        <time>1970-01-01T01:00:00Z</time>
      </trkpt>
      <trkpt lat="63.423104" lon="10.28964683">
        <ele>265.027</ele>
        <time>1970-01-01T01:00:00Z</time>
      </trkpt>
      <trkpt lat="63.42310667" lon="10.28966767">
        <ele>264.874</ele>
        <time>1970-01-01T01:00:00Z</time>
      </trkpt>
      <trkpt lat="63.42310933" lon="10.289688">
        <ele>264.874</ele>
        <time>1970-01-01T01:00:00Z</time>
      </trkpt>
      <trkpt lat="63.42311083" lon="10.28970783">
        <ele>264.722</ele>
        <time>1970-01-01T01:00:00Z</time>
      </trkpt>
      <trkpt lat="63.42310967" lon="10.2897285">
        <ele>264.722</ele>
        <time>1970-01-01T01:00:00Z</time>
      </trkpt>
      <trkpt lat="63.423107" lon="10.28974933">
        <ele>264.417</ele>
        <time>1970-01-01T01:00:00Z</time>
      </trkpt>
      <trkpt lat="63.4231045" lon="10.28976833">
        <ele>264.417</ele>
        <time>1970-01-01T01:00:00Z</time>
      </trkpt>
      <trkpt lat="63.42310283" lon="10.289788">
        <ele>264.265</ele>
        <time>1970-01-01T01:00:00Z</time>
      </trkpt>
      <trkpt lat="63.42309983" lon="10.28980567">
        <ele>264.265</ele>
        <time>1970-01-01T01:00:00Z</time>
      </trkpt>
      <trkpt lat="63.42309533" lon="10.28982483">
        <ele>263.96</ele>
        <time>1970-01-01T01:00:00Z</time>
      </trkpt>
      <trkpt lat="63.42309067" lon="10.2898405">
        <ele>263.96</ele>
        <time>1970-01-01T01:00:00Z</time>
      </trkpt>
      <trkpt lat="63.4230875" lon="10.28985883">
        <ele>263.655</ele>
        <time>1970-01-01T01:00:00Z</time>
      </trkpt>
      <trkpt lat="63.423085" lon="10.289876">
        <ele>263.655</ele>
        <time>1970-01-01T01:00:00Z</time>
      </trkpt>
      <trkpt lat="63.42308267" lon="10.28989583">
        <ele>263.35</ele>
        <time>1970-01-01T01:00:00Z</time>
      </trkpt>
      <trkpt lat="63.42308117" lon="10.28991567">
        <ele>263.35</ele>
        <time>1970-01-01T01:00:00Z</time>
      </trkpt>
      <trkpt lat="63.423081" lon="10.28993667">
        <ele>263.046</ele>
        <time>1970-01-01T01:00:00Z</time>
      </trkpt>
      <trkpt lat="63.42308233" lon="10.2899605">
        <ele>263.046</ele>
        <time>1970-01-01T01:00:00Z</time>
      </trkpt>
      <trkpt lat="63.42308317" lon="10.28998567">
        <ele>262.741</ele>
        <time>1970-01-01T01:00:00Z</time>
      </trkpt>
      <trkpt lat="63.42308483" lon="10.29001367">
        <ele>262.741</ele>
        <time>1970-01-01T01:00:00Z</time>
      </trkpt>
      <trkpt lat="63.42308667" lon="10.29004117">
        <ele>262.284</ele>
        <time>1970-01-01T01:00:00Z</time>
      </trkpt>
      <trkpt lat="63.42309017" lon="10.29006767">
        <ele>262.284</ele>
        <time>1970-01-01T01:00:00Z</time>
      </trkpt>
      <trkpt lat="63.423094" lon="10.29009517">
        <ele>261.979</ele>
        <time>1970-01-01T01:00:00Z</time>
      </trkpt>
      <trkpt lat="63.42309917" lon="10.2901235">
        <ele>261.979</ele>
        <time>1970-01-01T01:00:00Z</time>
      </trkpt>
      <trkpt lat="63.42310517" lon="10.29015617">
        <ele>261.674</ele>
        <time>1970-01-01T01:00:00Z</time>
      </trkpt>
      <trkpt lat="63.423112" lon="10.29018683">
        <ele>261.674</ele>
        <time>1970-01-01T01:00:00Z</time>
      </trkpt>
      <trkpt lat="63.42311883" lon="10.29021267">
        <ele>261.369</ele>
        <time>1970-01-01T01:00:00Z</time>
      </trkpt>
      <trkpt lat="63.42312567" lon="10.29023267">
        <ele>261.369</ele>
        <time>1970-01-01T01:00:00Z</time>
      </trkpt>
      <trkpt lat="63.42313183" lon="10.29024967">
        <ele>261.064</ele>
        <time>1970-01-01T01:00:00Z</time>
      </trkpt>
      <trkpt lat="63.42313683" lon="10.2902675">
        <ele>261.064</ele>
        <time>1970-01-01T01:00:00Z</time>
      </trkpt>
      <trkpt lat="63.42314183" lon="10.29029">
        <ele>260.76</ele>
        <time>1970-01-01T01:00:00Z</time>
      </trkpt>
      <trkpt lat="63.423149" lon="10.29031333">
        <ele>260.76</ele>
        <time>1970-01-01T01:00:00Z</time>
      </trkpt>
      <trkpt lat="63.4231575" lon="10.29033883">
        <ele>260.455</ele>
        <time>1970-01-01T01:00:00Z</time>
      </trkpt>
      <trkpt lat="63.42316533" lon="10.2903605">
        <ele>260.455</ele>
        <time>1970-01-01T01:00:00Z</time>
      </trkpt>
      <trkpt lat="63.4231725" lon="10.29038417">
        <ele>260.302</ele>
        <time>1970-01-01T01:00:00Z</time>
      </trkpt>
      <trkpt lat="63.4231785" lon="10.290409">
        <ele>260.302</ele>
        <time>1970-01-01T01:00:00Z</time>
      </trkpt>
      <trkpt lat="63.42318517" lon="10.2904335">
        <ele>260.15</ele>
        <time>1970-01-01T01:00:00Z</time>
      </trkpt>
      <trkpt lat="63.42319133" lon="10.2904575">
        <ele>260.15</ele>
        <time>1970-01-01T01:00:00Z</time>
      </trkpt>
      <trkpt lat="63.42319833" lon="10.29048233">
        <ele>259.845</ele>
        <time>1970-01-01T01:00:00Z</time>
      </trkpt>
      <trkpt lat="63.42320667" lon="10.2905065">
        <ele>259.845</ele>
        <time>1970-01-01T01:00:00Z</time>
      </trkpt>
      <trkpt lat="63.4232145" lon="10.29053067">
        <ele>259.693</ele>
        <time>1970-01-01T01:00:00Z</time>
      </trkpt>
      <trkpt lat="63.4232215" lon="10.29055183">
        <ele>259.693</ele>
        <time>1970-01-01T01:00:00Z</time>
      </trkpt>
      <trkpt lat="63.42322783" lon="10.290574">
        <ele>259.54</ele>
        <time>1970-01-01T01:00:00Z</time>
      </trkpt>
      <trkpt lat="63.42323417" lon="10.29059517">
        <ele>259.54</ele>
        <time>1970-01-01T01:00:00Z</time>
      </trkpt>
      <trkpt lat="63.4232405" lon="10.2906175">
        <ele>259.54</ele>
        <time>1970-01-01T01:00:00Z</time>
      </trkpt>
      <trkpt lat="63.423245" lon="10.29064233">
        <ele>259.54</ele>
        <time>1970-01-01T01:00:00Z</time>
      </trkpt>
      <trkpt lat="63.42324817" lon="10.290668">
        <ele>259.388</ele>
        <time>1970-01-01T01:00:00Z</time>
      </trkpt>
      <trkpt lat="63.42325183" lon="10.29069483">
        <ele>259.388</ele>
        <time>1970-01-01T01:00:00Z</time>
      </trkpt>
      <trkpt lat="63.42325717" lon="10.29072033">
        <ele>259.236</ele>
        <time>1970-01-01T01:00:00Z</time>
      </trkpt>
      <trkpt lat="63.42326417" lon="10.29074717">
        <ele>259.236</ele>
        <time>1970-01-01T01:00:00Z</time>
      </trkpt>
      <trkpt lat="63.42327033" lon="10.29077583">
        <ele>259.083</ele>
        <time>1970-01-01T01:00:00Z</time>
      </trkpt>
      <trkpt lat="63.42327467" lon="10.29080917">
        <ele>259.083</ele>
        <time>1970-01-01T01:00:00Z</time>
      </trkpt>
      <trkpt lat="63.42327717" lon="10.29084267">
        <ele>259.083</ele>
        <time>1970-01-01T01:00:00Z</time>
      </trkpt>
      <trkpt lat="63.42327967" lon="10.2908735">
        <ele>259.083</ele>
        <time>1970-01-01T01:00:00Z</time>
      </trkpt>
      <trkpt lat="63.42328183" lon="10.2909035">
        <ele>258.931</ele>
        <time>1970-01-01T01:00:00Z</time>
      </trkpt>
      <trkpt lat="63.42328317" lon="10.290933">
        <ele>258.931</ele>
        <time>1970-01-01T01:00:00Z</time>
      </trkpt>
      <trkpt lat="63.42328217" lon="10.29096133">
        <ele>258.931</ele>
        <time>1970-01-01T01:00:00Z</time>
      </trkpt>
      <trkpt lat="63.42328183" lon="10.29098817">
        <ele>258.931</ele>
        <time>1970-01-01T01:00:00Z</time>
      </trkpt>
      <trkpt lat="63.42327883" lon="10.29101567">
        <ele>258.778</ele>
        <time>1970-01-01T01:00:00Z</time>
      </trkpt>
      <trkpt lat="63.42327533" lon="10.29104433">
        <ele>258.778</ele>
        <time>1970-01-01T01:00:00Z</time>
      </trkpt>
      <trkpt lat="63.4232695" lon="10.29107117">
        <ele>258.626</ele>
        <time>1970-01-01T01:00:00Z</time>
      </trkpt>
      <trkpt lat="63.42326517" lon="10.291097">
        <ele>258.626</ele>
        <time>1970-01-01T01:00:00Z</time>
      </trkpt>
      <trkpt lat="63.4232615" lon="10.29112467">
        <ele>258.474</ele>
        <time>1970-01-01T01:00:00Z</time>
      </trkpt>
      <trkpt lat="63.42325783" lon="10.29115367">
        <ele>258.474</ele>
        <time>1970-01-01T01:00:00Z</time>
      </trkpt>
      <trkpt lat="63.4232555" lon="10.29118267">
        <ele>258.321</ele>
        <time>1970-01-01T01:00:00Z</time>
      </trkpt>
      <trkpt lat="63.42325117" lon="10.29120917">
        <ele>258.321</ele>
        <time>1970-01-01T01:00:00Z</time>
      </trkpt>
      <trkpt lat="63.42324883" lon="10.29123383">
        <ele>258.016</ele>
        <time>1970-01-01T01:00:00Z</time>
      </trkpt>
      <trkpt lat="63.42324567" lon="10.29126">
        <ele>258.016</ele>
        <time>1970-01-01T01:00:00Z</time>
      </trkpt>
      <trkpt lat="63.4232435" lon="10.29128583">
        <ele>257.864</ele>
        <time>1970-01-01T01:00:00Z</time>
      </trkpt>
      <trkpt lat="63.42323917" lon="10.291312">
        <ele>257.864</ele>
        <time>1970-01-01T01:00:00Z</time>
      </trkpt>
      <trkpt lat="63.42323467" lon="10.29133733">
        <ele>257.559</ele>
        <time>1970-01-01T01:00:00Z</time>
      </trkpt>
      <trkpt lat="63.42322917" lon="10.29136133">
        <ele>257.559</ele>
        <time>1970-01-01T01:00:00Z</time>
      </trkpt>
      <trkpt lat="63.42322367" lon="10.2913855">
        <ele>257.407</ele>
        <time>1970-01-01T01:00:00Z</time>
      </trkpt>
      <trkpt lat="63.42321667" lon="10.2914095">
        <ele>257.407</ele>
        <time>1970-01-01T01:00:00Z</time>
      </trkpt>
      <trkpt lat="63.42321067" lon="10.291436">
        <ele>257.102</ele>
        <time>1970-01-01T01:00:00Z</time>
      </trkpt>
      <trkpt lat="63.42320467" lon="10.29146383">
        <ele>257.102</ele>
        <time>1970-01-01T01:00:00Z</time>
      </trkpt>
      <trkpt lat="63.4232" lon="10.291494">
        <ele>256.797</ele>
        <time>1970-01-01T01:00:00Z</time>
      </trkpt>
      <trkpt lat="63.42319433" lon="10.29152483">
        <ele>256.797</ele>
        <time>1970-01-01T01:00:00Z</time>
      </trkpt>
      <trkpt lat="63.4231895" lon="10.291556">
        <ele>256.492</ele>
        <time>1970-01-01T01:00:00Z</time>
      </trkpt>
      <trkpt lat="63.42318383" lon="10.29158567">
        <ele>256.492</ele>
        <time>1970-01-01T01:00:00Z</time>
      </trkpt>
      <trkpt lat="63.42317767" lon="10.29161417">
        <ele>256.34</ele>
        <time>1970-01-01T01:00:00Z</time>
      </trkpt>
      <trkpt lat="63.42317" lon="10.29164367">
        <ele>256.34</ele>
        <time>1970-01-01T01:00:00Z</time>
      </trkpt>
      <trkpt lat="63.4231615" lon="10.29167117">
        <ele>256.035</ele>
        <time>1970-01-01T01:00:00Z</time>
      </trkpt>
      <trkpt lat="63.42315383" lon="10.29169833">
        <ele>256.035</ele>
        <time>1970-01-01T01:00:00Z</time>
      </trkpt>
      <trkpt lat="63.4231465" lon="10.29172217">
        <ele>255.883</ele>
        <time>1970-01-01T01:00:00Z</time>
      </trkpt>
      <trkpt lat="63.42314017" lon="10.291748">
        <ele>255.883</ele>
        <time>1970-01-01T01:00:00Z</time>
      </trkpt>
      <trkpt lat="63.423132" lon="10.29177067">
        <ele>255.578</ele>
        <time>1970-01-01T01:00:00Z</time>
      </trkpt>
      <trkpt lat="63.4231245" lon="10.29179233">
        <ele>255.578</ele>
        <time>1970-01-01T01:00:00Z</time>
      </trkpt>
      <trkpt lat="63.423116" lon="10.291811">
        <ele>255.425</ele>
        <time>1970-01-01T01:00:00Z</time>
      </trkpt>
      <trkpt lat="63.42310583" lon="10.29183183">
        <ele>255.425</ele>
        <time>1970-01-01T01:00:00Z</time>
      </trkpt>
      <trkpt lat="63.4230935" lon="10.29185283">
        <ele>255.121</ele>
        <time>1970-01-01T01:00:00Z</time>
      </trkpt>
      <trkpt lat="63.42308167" lon="10.29187317">
        <ele>255.121</ele>
        <time>1970-01-01T01:00:00Z</time>
      </trkpt>
      <trkpt lat="63.42307133" lon="10.29189067">
        <ele>254.968</ele>
        <time>1970-01-01T01:00:00Z</time>
      </trkpt>
      <trkpt lat="63.42306" lon="10.29190533">
        <ele>254.968</ele>
        <time>1970-01-01T01:00:00Z</time>
      </trkpt>
      <trkpt lat="63.42304767" lon="10.29191633">
        <ele>254.663</ele>
        <time>1970-01-01T01:00:00Z</time>
      </trkpt>
      <trkpt lat="63.42303433" lon="10.29192867">
        <ele>254.663</ele>
        <time>1970-01-01T01:00:00Z</time>
      </trkpt>
      <trkpt lat="63.42302067" lon="10.29194367">
        <ele>254.511</ele>
        <time>1970-01-01T01:00:00Z</time>
      </trkpt>
      <trkpt lat="63.42300667" lon="10.2919615">
        <ele>254.511</ele>
        <time>1970-01-01T01:00:00Z</time>
      </trkpt>
      <trkpt lat="63.4229915" lon="10.29197967">
        <ele>254.359</ele>
        <time>1970-01-01T01:00:00Z</time>
      </trkpt>
      <trkpt lat="63.4229775" lon="10.29199383">
        <ele>254.359</ele>
        <time>1970-01-01T01:00:00Z</time>
      </trkpt>
      <trkpt lat="63.422964" lon="10.29200483">
        <ele>254.206</ele>
        <time>1970-01-01T01:00:00Z</time>
      </trkpt>
      <trkpt lat="63.4229525" lon="10.292012">
        <ele>254.206</ele>
        <time>1970-01-01T01:00:00Z</time>
      </trkpt>
      <trkpt lat="63.4229395" lon="10.29201967">
        <ele>253.901</ele>
        <time>1970-01-01T01:00:00Z</time>
      </trkpt>
      <trkpt lat="63.42292517" lon="10.2920265">
        <ele>253.901</ele>
        <time>1970-01-01T01:00:00Z</time>
      </trkpt>
      <trkpt lat="63.4229105" lon="10.292032">
        <ele>253.749</ele>
        <time>1970-01-01T01:00:00Z</time>
      </trkpt>
      <trkpt lat="63.42289567" lon="10.29203533">
        <ele>253.749</ele>
        <time>1970-01-01T01:00:00Z</time>
      </trkpt>
      <trkpt lat="63.422882" lon="10.29204117">
        <ele>253.597</ele>
        <time>1970-01-01T01:00:00Z</time>
      </trkpt>
      <trkpt lat="63.42286683" lon="10.2920495">
        <ele>253.597</ele>
        <time>1970-01-01T01:00:00Z</time>
      </trkpt>
      <trkpt lat="63.42285233" lon="10.29205833">
        <ele>253.444</ele>
        <time>1970-01-01T01:00:00Z</time>
      </trkpt>
      <trkpt lat="63.42283733" lon="10.29206617">
        <ele>253.444</ele>
        <time>1970-01-01T01:00:00Z</time>
      </trkpt>
      <trkpt lat="63.42282483" lon="10.29207367">
        <ele>253.292</ele>
        <time>1970-01-01T01:00:00Z</time>
      </trkpt>
      <trkpt lat="63.42281233" lon="10.29208383">
        <ele>253.292</ele>
        <time>1970-01-01T01:00:00Z</time>
      </trkpt>
      <trkpt lat="63.422802" lon="10.29209683">
        <ele>253.139</ele>
        <time>1970-01-01T01:00:00Z</time>
      </trkpt>
      <trkpt lat="63.42279133" lon="10.29211467">
        <ele>253.139</ele>
        <time>1970-01-01T01:00:00Z</time>
      </trkpt>
      <trkpt lat="63.4227815" lon="10.2921345">
        <ele>252.987</ele>
        <time>1970-01-01T01:00:00Z</time>
      </trkpt>
      <trkpt lat="63.42276917" lon="10.292154">
        <ele>252.987</ele>
        <time>1970-01-01T01:00:00Z</time>
      </trkpt>
      <trkpt lat="63.422758" lon="10.29217033">
        <ele>252.835</ele>
        <time>1970-01-01T01:00:00Z</time>
      </trkpt>
      <trkpt lat="63.422747" lon="10.29218683">
        <ele>252.835</ele>
        <time>1970-01-01T01:00:00Z</time>
      </trkpt>
      <trkpt lat="63.422736" lon="10.29220483">
        <ele>252.682</ele>
        <time>1970-01-01T01:00:00Z</time>
      </trkpt>
      <trkpt lat="63.42272383" lon="10.29222417">
        <ele>252.682</ele>
        <time>1970-01-01T01:00:00Z</time>
      </trkpt>
      <trkpt lat="63.42271117" lon="10.2922435">
        <ele>252.53</ele>
        <time>1970-01-01T01:00:00Z</time>
      </trkpt>
      <trkpt lat="63.4227" lon="10.29226083">
        <ele>252.53</ele>
        <time>1970-01-01T01:00:00Z</time>
      </trkpt>
      <trkpt lat="63.422688" lon="10.292278">
        <ele>252.377</ele>
        <time>1970-01-01T01:00:00Z</time>
      </trkpt>
      <trkpt lat="63.422676" lon="10.2922935">
        <ele>252.377</ele>
        <time>1970-01-01T01:00:00Z</time>
      </trkpt>
      <trkpt lat="63.4226635" lon="10.292309">
        <ele>252.225</ele>
        <time>1970-01-01T01:00:00Z</time>
      </trkpt>
      <trkpt lat="63.42265017" lon="10.2923235">
        <ele>252.225</ele>
        <time>1970-01-01T01:00:00Z</time>
      </trkpt>
      <trkpt lat="63.42263567" lon="10.29233867">
        <ele>251.92</ele>
        <time>1970-01-01T01:00:00Z</time>
      </trkpt>
      <trkpt lat="63.42262167" lon="10.292357">
        <ele>251.92</ele>
        <time>1970-01-01T01:00:00Z</time>
      </trkpt>
      <trkpt lat="63.422611" lon="10.29237467">
        <ele>251.768</ele>
        <time>1970-01-01T01:00:00Z</time>
      </trkpt>
      <trkpt lat="63.42260233" lon="10.29239717">
        <ele>251.768</ele>
        <time>1970-01-01T01:00:00Z</time>
      </trkpt>
      <trkpt lat="63.42259417" lon="10.29241917">
        <ele>251.615</ele>
        <time>1970-01-01T01:00:00Z</time>
      </trkpt>
      <trkpt lat="63.4225845" lon="10.2924435">
        <ele>251.615</ele>
        <time>1970-01-01T01:00:00Z</time>
      </trkpt>
      <trkpt lat="63.42257583" lon="10.292465">
        <ele>251.463</ele>
        <time>1970-01-01T01:00:00Z</time>
      </trkpt>
      <trkpt lat="63.422568" lon="10.29248767">
        <ele>251.463</ele>
        <time>1970-01-01T01:00:00Z</time>
      </trkpt>
      <trkpt lat="63.42256183" lon="10.29251233">
        <ele>251.158</ele>
        <time>1970-01-01T01:00:00Z</time>
      </trkpt>
      <trkpt lat="63.422555" lon="10.29253733">
        <ele>251.158</ele>
        <time>1970-01-01T01:00:00Z</time>
      </trkpt>
      <trkpt lat="63.422547" lon="10.29256283">
        <ele>251.006</ele>
        <time>1970-01-01T01:00:00Z</time>
      </trkpt>
      <trkpt lat="63.4225375" lon="10.29258833">
        <ele>251.006</ele>
        <time>1970-01-01T01:00:00Z</time>
      </trkpt>
      <trkpt lat="63.42252717" lon="10.2926125">
        <ele>250.853</ele>
        <time>1970-01-01T01:00:00Z</time>
      </trkpt>
      <trkpt lat="63.42251783" lon="10.29263517">
        <ele>250.853</ele>
        <time>1970-01-01T01:00:00Z</time>
      </trkpt>
      <trkpt lat="63.42250933" lon="10.292656">
        <ele>250.701</ele>
        <time>1970-01-01T01:00:00Z</time>
      </trkpt>
      <trkpt lat="63.422501" lon="10.2926735">
        <ele>250.701</ele>
        <time>1970-01-01T01:00:00Z</time>
      </trkpt>
      <trkpt lat="63.4224885" lon="10.29268733">
        <ele>250.549</ele>
        <time>1970-01-01T01:00:00Z</time>
      </trkpt>
      <trkpt lat="63.42247333" lon="10.2926985">
        <ele>250.549</ele>
        <time>1970-01-01T01:00:00Z</time>
      </trkpt>
      <trkpt lat="63.42245733" lon="10.2927115">
        <ele>250.549</ele>
        <time>1970-01-01T01:00:00Z</time>
      </trkpt>
      <trkpt lat="63.4224445" lon="10.2927275">
        <ele>250.549</ele>
        <time>1970-01-01T01:00:00Z</time>
      </trkpt>
      <trkpt lat="63.42243267" lon="10.29274583">
        <ele>250.396</ele>
        <time>1970-01-01T01:00:00Z</time>
      </trkpt>
      <trkpt lat="63.42242283" lon="10.29276683">
        <ele>250.396</ele>
        <time>1970-01-01T01:00:00Z</time>
      </trkpt>
      <trkpt lat="63.4224125" lon="10.292787">
        <ele>250.244</ele>
        <time>1970-01-01T01:00:00Z</time>
      </trkpt>
      <trkpt lat="63.42240283" lon="10.29280467">
        <ele>250.244</ele>
        <time>1970-01-01T01:00:00Z</time>
      </trkpt>
      <trkpt lat="63.42239183" lon="10.29282417">
        <ele>250.091</ele>
        <time>1970-01-01T01:00:00Z</time>
      </trkpt>
      <trkpt lat="63.422381" lon="10.29284517">
        <ele>250.091</ele>
        <time>1970-01-01T01:00:00Z</time>
      </trkpt>
      <trkpt lat="63.42237" lon="10.29286483">
        <ele>249.939</ele>
        <time>1970-01-01T01:00:00Z</time>
      </trkpt>
      <trkpt lat="63.422358" lon="10.292879">
        <ele>249.939</ele>
        <time>1970-01-01T01:00:00Z</time>
      </trkpt>
      <trkpt lat="63.42234467" lon="10.29289233">
        <ele>249.939</ele>
        <time>1970-01-01T01:00:00Z</time>
      </trkpt>
      <trkpt lat="63.422331" lon="10.292909">
        <ele>249.939</ele>
        <time>1970-01-01T01:00:00Z</time>
      </trkpt>
      <trkpt lat="63.42231667" lon="10.2929275">
        <ele>249.787</ele>
        <time>1970-01-01T01:00:00Z</time>
      </trkpt>
      <trkpt lat="63.42230433" lon="10.29294583">
        <ele>249.787</ele>
        <time>1970-01-01T01:00:00Z</time>
      </trkpt>
      <trkpt lat="63.422294" lon="10.29296517">
        <ele>249.634</ele>
        <time>1970-01-01T01:00:00Z</time>
      </trkpt>
      <trkpt lat="63.42228317" lon="10.29298583">
        <ele>249.634</ele>
        <time>1970-01-01T01:00:00Z</time>
      </trkpt>
      <trkpt lat="63.422271" lon="10.29300683">
        <ele>249.482</ele>
        <time>1970-01-01T01:00:00Z</time>
      </trkpt>
      <trkpt lat="63.42225933" lon="10.29302617">
        <ele>249.482</ele>
        <time>1970-01-01T01:00:00Z</time>
      </trkpt>
      <trkpt lat="63.42225133" lon="10.2930405">
        <ele>249.329</ele>
        <time>1970-01-01T01:00:00Z</time>
      </trkpt>
      <trkpt lat="63.422245" lon="10.29305467">
        <ele>249.329</ele>
        <time>1970-01-01T01:00:00Z</time>
      </trkpt>
      <trkpt lat="63.42223633" lon="10.29307017">
        <ele>249.177</ele>
        <time>1970-01-01T01:00:00Z</time>
      </trkpt>
      <trkpt lat="63.4222265" lon="10.29308983">
        <ele>249.177</ele>
        <time>1970-01-01T01:00:00Z</time>
      </trkpt>
      <trkpt lat="63.42221583" lon="10.29310917">
        <ele>249.025</ele>
        <time>1970-01-01T01:00:00Z</time>
      </trkpt>
      <trkpt lat="63.4222075" lon="10.29312983">
        <ele>249.025</ele>
        <time>1970-01-01T01:00:00Z</time>
      </trkpt>
      <trkpt lat="63.4221995" lon="10.2931505">
        <ele>248.872</ele>
        <time>1970-01-01T01:00:00Z</time>
      </trkpt>
      <trkpt lat="63.42219167" lon="10.29316883">
        <ele>248.872</ele>
        <time>1970-01-01T01:00:00Z</time>
      </trkpt>
      <trkpt lat="63.42218133" lon="10.29318333">
        <ele>248.72</ele>
        <time>1970-01-01T01:00:00Z</time>
      </trkpt>
      <trkpt lat="63.42217083" lon="10.2931975">
        <ele>248.72</ele>
        <time>1970-01-01T01:00:00Z</time>
      </trkpt>
      <trkpt lat="63.4221585" lon="10.2932155">
        <ele>248.567</ele>
        <time>1970-01-01T01:00:00Z</time>
      </trkpt>
      <trkpt lat="63.42214567" lon="10.29323517">
        <ele>248.567</ele>
        <time>1970-01-01T01:00:00Z</time>
      </trkpt>
      <trkpt lat="63.422133" lon="10.293256">
        <ele>248.415</ele>
        <time>1970-01-01T01:00:00Z</time>
      </trkpt>
      <trkpt lat="63.42212167" lon="10.2932745">
        <ele>248.415</ele>
        <time>1970-01-01T01:00:00Z</time>
      </trkpt>
      <trkpt lat="63.42211183" lon="10.29329317">
        <ele>248.263</ele>
        <time>1970-01-01T01:00:00Z</time>
      </trkpt>
      <trkpt lat="63.42210267" lon="10.2933135">
        <ele>248.263</ele>
        <time>1970-01-01T01:00:00Z</time>
      </trkpt>
      <trkpt lat="63.422095" lon="10.29333283">
        <ele>248.11</ele>
        <time>1970-01-01T01:00:00Z</time>
      </trkpt>
      <trkpt lat="63.42208467" lon="10.293358">
        <ele>248.11</ele>
        <time>1970-01-01T01:00:00Z</time>
      </trkpt>
      <trkpt lat="63.42207367" lon="10.293385">
        <ele>247.958</ele>
        <time>1970-01-01T01:00:00Z</time>
      </trkpt>
      <trkpt lat="63.42206267" lon="10.2934165">
        <ele>247.958</ele>
        <time>1970-01-01T01:00:00Z</time>
      </trkpt>
      <trkpt lat="63.42205417" lon="10.2934415">
        <ele>247.653</ele>
        <time>1970-01-01T01:00:00Z</time>
      </trkpt>
      <trkpt lat="63.4220455" lon="10.29346267">
        <ele>247.653</ele>
        <time>1970-01-01T01:00:00Z</time>
      </trkpt>
      <trkpt lat="63.42203583" lon="10.2934845">
        <ele>247.501</ele>
        <time>1970-01-01T01:00:00Z</time>
      </trkpt>
      <trkpt lat="63.42202617" lon="10.29350933">
        <ele>247.501</ele>
        <time>1970-01-01T01:00:00Z</time>
      </trkpt>
      <trkpt lat="63.4220175" lon="10.29353683">
        <ele>247.196</ele>
        <time>1970-01-01T01:00:00Z</time>
      </trkpt>
      <trkpt lat="63.42200917" lon="10.293565">
        <ele>247.196</ele>
        <time>1970-01-01T01:00:00Z</time>
      </trkpt>
      <trkpt lat="63.42199933" lon="10.29359083">
        <ele>247.043</ele>
        <time>1970-01-01T01:00:00Z</time>
      </trkpt>
      <trkpt lat="63.4219885" lon="10.29361667">
        <ele>247.043</ele>
        <time>1970-01-01T01:00:00Z</time>
      </trkpt>
      <trkpt lat="63.42197733" lon="10.29364117">
        <ele>246.891</ele>
        <time>1970-01-01T01:00:00Z</time>
      </trkpt>
      <trkpt lat="63.4219685" lon="10.293667">
        <ele>246.891</ele>
        <time>1970-01-01T01:00:00Z</time>
      </trkpt>
      <trkpt lat="63.42195883" lon="10.29369367">
        <ele>246.739</ele>
        <time>1970-01-01T01:00:00Z</time>
      </trkpt>
      <trkpt lat="63.421951" lon="10.29372017">
        <ele>246.739</ele>
        <time>1970-01-01T01:00:00Z</time>
      </trkpt>
      <trkpt lat="63.42194083" lon="10.2937485">
        <ele>246.434</ele>
        <time>1970-01-01T01:00:00Z</time>
      </trkpt>
      <trkpt lat="63.4219345" lon="10.29377733">
        <ele>246.434</ele>
        <time>1970-01-01T01:00:00Z</time>
      </trkpt>
      <trkpt lat="63.42192633" lon="10.29380633">
        <ele>246.281</ele>
        <time>1970-01-01T01:00:00Z</time>
      </trkpt>
      <trkpt lat="63.42192017" lon="10.29383383">
        <ele>246.281</ele>
        <time>1970-01-01T01:00:00Z</time>
      </trkpt>
      <trkpt lat="63.42191233" lon="10.29385933">
        <ele>246.129</ele>
        <time>1970-01-01T01:00:00Z</time>
      </trkpt>
      <trkpt lat="63.42190567" lon="10.293883">
        <ele>246.129</ele>
        <time>1970-01-01T01:00:00Z</time>
      </trkpt>
      <trkpt lat="63.42189967" lon="10.29390617">
        <ele>245.977</ele>
        <time>1970-01-01T01:00:00Z</time>
      </trkpt>
      <trkpt lat="63.42189333" lon="10.29392917">
        <ele>245.977</ele>
        <time>1970-01-01T01:00:00Z</time>
      </trkpt>
      <trkpt lat="63.42188583" lon="10.29395133">
        <ele>245.672</ele>
        <time>1970-01-01T01:00:00Z</time>
      </trkpt>
      <trkpt lat="63.421878" lon="10.29397317">
        <ele>245.672</ele>
        <time>1970-01-01T01:00:00Z</time>
      </trkpt>
      <trkpt lat="63.42187183" lon="10.293993">
        <ele>245.519</ele>
        <time>1970-01-01T01:00:00Z</time>
      </trkpt>
      <trkpt lat="63.42186767" lon="10.2940125">
        <ele>245.519</ele>
        <time>1970-01-01T01:00:00Z</time>
      </trkpt>
      <trkpt lat="63.4218635" lon="10.2940295">
        <ele>245.367</ele>
        <time>1970-01-01T01:00:00Z</time>
      </trkpt>
      <trkpt lat="63.4218595" lon="10.2940445">
        <ele>245.367</ele>
        <time>1970-01-01T01:00:00Z</time>
      </trkpt>
      <trkpt lat="63.421854" lon="10.294063">
        <ele>245.215</ele>
        <time>1970-01-01T01:00:00Z</time>
      </trkpt>
      <trkpt lat="63.42184983" lon="10.294074">
        <ele>245.215</ele>
        <time>1970-01-01T01:00:00Z</time>
      </trkpt>
      <trkpt lat="63.421845" lon="10.29408033">
        <ele>244.91</ele>
        <time>1970-01-01T01:00:00Z</time>
      </trkpt>
      <trkpt lat="63.4218415" lon="10.294072">
        <ele>244.91</ele>
        <time>1970-01-01T01:00:00Z</time>
      </trkpt>
      <trkpt lat="63.42183767" lon="10.29406633">
        <ele>244.757</ele>
        <time>1970-01-01T01:00:00Z</time>
      </trkpt>
      <trkpt lat="63.42183433" lon="10.29405983">
        <ele>244.757</ele>
        <time>1970-01-01T01:00:00Z</time>
      </trkpt>
      <trkpt lat="63.42183117" lon="10.29405817">
        <ele>244.453</ele>
        <time>1970-01-01T01:00:00Z</time>
      </trkpt>
      <trkpt lat="63.42182883" lon="10.294059">
        <ele>244.453</ele>
        <time>1970-01-01T01:00:00Z</time>
      </trkpt>
      <trkpt lat="63.42182767" lon="10.29406567">
        <ele>244.3</ele>
        <time>1970-01-01T01:00:00Z</time>
      </trkpt>
      <trkpt lat="63.4218275" lon="10.29407717">
        <ele>244.3</ele>
        <time>1970-01-01T01:00:00Z</time>
      </trkpt>
      <trkpt lat="63.4218275" lon="10.29408633">
        <ele>244.148</ele>
        <time>1970-01-01T01:00:00Z</time>
      </trkpt>
      <trkpt lat="63.42182633" lon="10.29408917">
        <ele>244.148</ele>
        <time>1970-01-01T01:00:00Z</time>
      </trkpt>
      <trkpt lat="63.42182583" lon="10.29408733">
        <ele>243.995</ele>
        <time>1970-01-01T01:00:00Z</time>
      </trkpt>
      <trkpt lat="63.421825" lon="10.29408817">
        <ele>243.995</ele>
        <time>1970-01-01T01:00:00Z</time>
      </trkpt>
      <trkpt lat="63.42182517" lon="10.29409267">
        <ele>243.843</ele>
        <time>1970-01-01T01:00:00Z</time>
      </trkpt>
      <trkpt lat="63.42182583" lon="10.29409883">
        <ele>243.843</ele>
        <time>1970-01-01T01:00:00Z</time>
      </trkpt>
      <trkpt lat="63.421827" lon="10.29410233">
        <ele>243.691</ele>
        <time>1970-01-01T01:00:00Z</time>
      </trkpt>
      <trkpt lat="63.42182817" lon="10.2941065">
        <ele>243.691</ele>
        <time>1970-01-01T01:00:00Z</time>
      </trkpt>
      <trkpt lat="63.421829" lon="10.29411283">
        <ele>243.538</ele>
        <time>1970-01-01T01:00:00Z</time>
      </trkpt>
      <trkpt lat="63.42182967" lon="10.29412383">
        <ele>243.538</ele>
        <time>1970-01-01T01:00:00Z</time>
      </trkpt>
      <trkpt lat="63.421829" lon="10.2941355">
        <ele>243.538</ele>
        <time>1970-01-01T01:00:00Z</time>
      </trkpt>
      <trkpt lat="63.421827" lon="10.2941485">
        <ele>243.538</ele>
        <time>1970-01-01T01:00:00Z</time>
      </trkpt>
      <trkpt lat="63.42182467" lon="10.2941635">
        <ele>243.386</ele>
        <time>1970-01-01T01:00:00Z</time>
      </trkpt>
      <trkpt lat="63.42182283" lon="10.29417967">
        <ele>243.386</ele>
        <time>1970-01-01T01:00:00Z</time>
      </trkpt>
      <trkpt lat="63.42182117" lon="10.29419483">
        <ele>243.386</ele>
        <time>1970-01-01T01:00:00Z</time>
      </trkpt>
      <trkpt lat="63.421819" lon="10.2942095">
        <ele>243.386</ele>
        <time>1970-01-01T01:00:00Z</time>
      </trkpt>
      <trkpt lat="63.421816" lon="10.29422617">
        <ele>243.233</ele>
        <time>1970-01-01T01:00:00Z</time>
      </trkpt>
      <trkpt lat="63.42181183" lon="10.294245">
        <ele>243.233</ele>
        <time>1970-01-01T01:00:00Z</time>
      </trkpt>
      <trkpt lat="63.42180583" lon="10.29426167">
        <ele>243.081</ele>
        <time>1970-01-01T01:00:00Z</time>
      </trkpt>
      <trkpt lat="63.42180083" lon="10.29427983">
        <ele>243.081</ele>
        <time>1970-01-01T01:00:00Z</time>
      </trkpt>
      <trkpt lat="63.42179633" lon="10.294299">
        <ele>243.081</ele>
        <time>1970-01-01T01:00:00Z</time>
      </trkpt>
      <trkpt lat="63.4217935" lon="10.2943195">
        <ele>243.081</ele>
        <time>1970-01-01T01:00:00Z</time>
      </trkpt>
      <trkpt lat="63.42178867" lon="10.29434017">
        <ele>242.929</ele>
        <time>1970-01-01T01:00:00Z</time>
      </trkpt>
      <trkpt lat="63.42178267" lon="10.29436033">
        <ele>242.929</ele>
        <time>1970-01-01T01:00:00Z</time>
      </trkpt>
      <trkpt lat="63.4217755" lon="10.29438333">
        <ele>242.776</ele>
        <time>1970-01-01T01:00:00Z</time>
      </trkpt>
      <trkpt lat="63.42176933" lon="10.2944075">
        <ele>242.776</ele>
        <time>1970-01-01T01:00:00Z</time>
      </trkpt>
      <trkpt lat="63.421766" lon="10.29443333">
        <ele>242.624</ele>
        <time>1970-01-01T01:00:00Z</time>
      </trkpt>
      <trkpt lat="63.42176317" lon="10.29445967">
        <ele>242.624</ele>
        <time>1970-01-01T01:00:00Z</time>
      </trkpt>
      <trkpt lat="63.4217595" lon="10.29448983">
        <ele>242.471</ele>
        <time>1970-01-01T01:00:00Z</time>
      </trkpt>
      <trkpt lat="63.421756" lon="10.294525">
        <ele>242.471</ele>
        <time>1970-01-01T01:00:00Z</time>
      </trkpt>
      <trkpt lat="63.42175183" lon="10.29456067">
        <ele>242.471</ele>
        <time>1970-01-01T01:00:00Z</time>
      </trkpt>
      <trkpt lat="63.4217485" lon="10.2945915">
        <ele>242.471</ele>
        <time>1970-01-01T01:00:00Z</time>
      </trkpt>
      <trkpt lat="63.4217435" lon="10.29461867">
        <ele>242.319</ele>
        <time>1970-01-01T01:00:00Z</time>
      </trkpt>
      <trkpt lat="63.42173817" lon="10.29464783">
        <ele>242.319</ele>
        <time>1970-01-01T01:00:00Z</time>
      </trkpt>
      <trkpt lat="63.42173133" lon="10.29467817">
        <ele>242.167</ele>
        <time>1970-01-01T01:00:00Z</time>
      </trkpt>
      <trkpt lat="63.421724" lon="10.294707">
        <ele>242.167</ele>
        <time>1970-01-01T01:00:00Z</time>
      </trkpt>
      <trkpt lat="63.42171833" lon="10.29473217">
        <ele>242.014</ele>
        <time>1970-01-01T01:00:00Z</time>
      </trkpt>
      <trkpt lat="63.42171283" lon="10.29475667">
        <ele>242.014</ele>
        <time>1970-01-01T01:00:00Z</time>
      </trkpt>
      <trkpt lat="63.42170883" lon="10.294784">
        <ele>242.014</ele>
        <time>1970-01-01T01:00:00Z</time>
      </trkpt>
      <trkpt lat="63.42170267" lon="10.29481717">
        <ele>242.014</ele>
        <time>1970-01-01T01:00:00Z</time>
      </trkpt>
      <trkpt lat="63.421698" lon="10.2948515">
        <ele>241.862</ele>
        <time>1970-01-01T01:00:00Z</time>
      </trkpt>
      <trkpt lat="63.4216935" lon="10.294884">
        <ele>241.862</ele>
        <time>1970-01-01T01:00:00Z</time>
      </trkpt>
      <trkpt lat="63.421692" lon="10.2949125">
        <ele>241.709</ele>
        <time>1970-01-01T01:00:00Z</time>
      </trkpt>
      <trkpt lat="63.42169217" lon="10.29494067">
        <ele>241.709</ele>
        <time>1970-01-01T01:00:00Z</time>
      </trkpt>
      <trkpt lat="63.42169267" lon="10.29496633">
        <ele>241.709</ele>
        <time>1970-01-01T01:00:00Z</time>
      </trkpt>
      <trkpt lat="63.42169383" lon="10.2949925">
        <ele>241.709</ele>
        <time>1970-01-01T01:00:00Z</time>
      </trkpt>
      <trkpt lat="63.42169333" lon="10.2950165">
        <ele>241.557</ele>
        <time>1970-01-01T01:00:00Z</time>
      </trkpt>
      <trkpt lat="63.42169467" lon="10.29504217">
        <ele>241.557</ele>
        <time>1970-01-01T01:00:00Z</time>
      </trkpt>
      <trkpt lat="63.42169667" lon="10.2950685">
        <ele>241.405</ele>
        <time>1970-01-01T01:00:00Z</time>
      </trkpt>
      <trkpt lat="63.42170117" lon="10.29509533">
        <ele>241.405</ele>
        <time>1970-01-01T01:00:00Z</time>
      </trkpt>
      <trkpt lat="63.42170567" lon="10.29512217">
        <ele>241.405</ele>
        <time>1970-01-01T01:00:00Z</time>
      </trkpt>
      <trkpt lat="63.42170983" lon="10.2951495">
        <ele>241.405</ele>
        <time>1970-01-01T01:00:00Z</time>
      </trkpt>
      <trkpt lat="63.42171283" lon="10.29517717">
        <ele>241.252</ele>
        <time>1970-01-01T01:00:00Z</time>
      </trkpt>
      <trkpt lat="63.42171633" lon="10.295205">
        <ele>241.252</ele>
        <time>1970-01-01T01:00:00Z</time>
      </trkpt>
      <trkpt lat="63.421719" lon="10.29523433">
        <ele>241.252</ele>
        <time>1970-01-01T01:00:00Z</time>
      </trkpt>
      <trkpt lat="63.421725" lon="10.2952595">
        <ele>241.252</ele>
        <time>1970-01-01T01:00:00Z</time>
      </trkpt>
      <trkpt lat="63.42172967" lon="10.29528583">
        <ele>241.1</ele>
        <time>1970-01-01T01:00:00Z</time>
      </trkpt>
      <trkpt lat="63.42173567" lon="10.2953065">
        <ele>241.1</ele>
        <time>1970-01-01T01:00:00Z</time>
      </trkpt>
      <trkpt lat="63.42173883" lon="10.295334">
        <ele>241.252</ele>
        <time>1970-01-01T01:00:00Z</time>
      </trkpt>
      <trkpt lat="63.42174" lon="10.295361">
        <ele>241.252</ele>
        <time>1970-01-01T01:00:00Z</time>
      </trkpt>
      <trkpt lat="63.421739" lon="10.29539083">
        <ele>241.252</ele>
        <time>1970-01-01T01:00:00Z</time>
      </trkpt>
      <trkpt lat="63.42173567" lon="10.29542333">
        <ele>241.252</ele>
        <time>1970-01-01T01:00:00Z</time>
      </trkpt>
      <trkpt lat="63.4217345" lon="10.29545683">
        <ele>241.252</ele>
        <time>1970-01-01T01:00:00Z</time>
      </trkpt>
      <trkpt lat="63.42173533" lon="10.29549267">
        <ele>241.252</ele>
        <time>1970-01-01T01:00:00Z</time>
      </trkpt>
      <trkpt lat="63.4217375" lon="10.295524">
        <ele>241.405</ele>
        <time>1970-01-01T01:00:00Z</time>
      </trkpt>
      <trkpt lat="63.42173983" lon="10.29555433">
        <ele>241.405</ele>
        <time>1970-01-01T01:00:00Z</time>
      </trkpt>
      <trkpt lat="63.42174167" lon="10.2955805">
        <ele>241.557</ele>
        <time>1970-01-01T01:00:00Z</time>
      </trkpt>
      <trkpt lat="63.42174467" lon="10.295605">
        <ele>241.557</ele>
        <time>1970-01-01T01:00:00Z</time>
      </trkpt>
      <trkpt lat="63.42174767" lon="10.29562933">
        <ele>241.557</ele>
        <time>1970-01-01T01:00:00Z</time>
      </trkpt>
      <trkpt lat="63.42175117" lon="10.29565617">
        <ele>241.557</ele>
        <time>1970-01-01T01:00:00Z</time>
      </trkpt>
      <trkpt lat="63.421755" lon="10.29568533">
        <ele>241.709</ele>
        <time>1970-01-01T01:00:00Z</time>
      </trkpt>
      <trkpt lat="63.4217585" lon="10.29571367">
        <ele>241.709</ele>
        <time>1970-01-01T01:00:00Z</time>
      </trkpt>
      <trkpt lat="63.42176217" lon="10.29573967">
        <ele>241.862</ele>
        <time>1970-01-01T01:00:00Z</time>
      </trkpt>
      <trkpt lat="63.42176633" lon="10.29576517">
        <ele>241.862</ele>
        <time>1970-01-01T01:00:00Z</time>
      </trkpt>
      <trkpt lat="63.42177233" lon="10.29579283">
        <ele>242.014</ele>
        <time>1970-01-01T01:00:00Z</time>
      </trkpt>
      <trkpt lat="63.42177717" lon="10.295819">
        <ele>242.014</ele>
        <time>1970-01-01T01:00:00Z</time>
      </trkpt>
      <trkpt lat="63.42178183" lon="10.2958435">
        <ele>242.014</ele>
        <time>1970-01-01T01:00:00Z</time>
      </trkpt>
      <trkpt lat="63.4217855" lon="10.295871">
        <ele>242.014</ele>
        <time>1970-01-01T01:00:00Z</time>
      </trkpt>
      <trkpt lat="63.42179083" lon="10.29589583">
        <ele>242.167</ele>
        <time>1970-01-01T01:00:00Z</time>
      </trkpt>
      <trkpt lat="63.4217945" lon="10.29592583">
        <ele>242.167</ele>
        <time>1970-01-01T01:00:00Z</time>
      </trkpt>
      <trkpt lat="63.42179867" lon="10.29595317">
        <ele>242.319</ele>
        <time>1970-01-01T01:00:00Z</time>
      </trkpt>
      <trkpt lat="63.42180333" lon="10.29598483">
        <ele>242.319</ele>
        <time>1970-01-01T01:00:00Z</time>
      </trkpt>
      <trkpt lat="63.42180867" lon="10.29601567">
        <ele>242.319</ele>
        <time>1970-01-01T01:00:00Z</time>
      </trkpt>
      <trkpt lat="63.4218115" lon="10.29604717">
        <ele>242.319</ele>
        <time>1970-01-01T01:00:00Z</time>
      </trkpt>
      <trkpt lat="63.42181333" lon="10.29608033">
        <ele>242.471</ele>
        <time>1970-01-01T01:00:00Z</time>
      </trkpt>
      <trkpt lat="63.42181567" lon="10.29611383">
        <ele>242.471</ele>
        <time>1970-01-01T01:00:00Z</time>
      </trkpt>
      <trkpt lat="63.4218185" lon="10.296148">
        <ele>242.624</ele>
        <time>1970-01-01T01:00:00Z</time>
      </trkpt>
      <trkpt lat="63.421821" lon="10.29618117">
        <ele>242.624</ele>
        <time>1970-01-01T01:00:00Z</time>
      </trkpt>
      <trkpt lat="63.42182433" lon="10.29621033">
        <ele>242.624</ele>
        <time>1970-01-01T01:00:00Z</time>
      </trkpt>
      <trkpt lat="63.421829" lon="10.296237">
        <ele>242.624</ele>
        <time>1970-01-01T01:00:00Z</time>
      </trkpt>
      <trkpt lat="63.42183233" lon="10.296261">
        <ele>242.776</ele>
        <time>1970-01-01T01:00:00Z</time>
      </trkpt>
      <trkpt lat="63.42183533" lon="10.29628617">
        <ele>242.776</ele>
        <time>1970-01-01T01:00:00Z</time>
      </trkpt>
      <trkpt lat="63.42183683" lon="10.2963105">
        <ele>243.081</ele>
        <time>1970-01-01T01:00:00Z</time>
      </trkpt>
      <trkpt lat="63.42184" lon="10.29633733">
        <ele>243.081</ele>
        <time>1970-01-01T01:00:00Z</time>
      </trkpt>
      <trkpt lat="63.42184183" lon="10.296362">
        <ele>243.233</ele>
        <time>1970-01-01T01:00:00Z</time>
      </trkpt>
      <trkpt lat="63.4218435" lon="10.29638567">
        <ele>243.233</ele>
        <time>1970-01-01T01:00:00Z</time>
      </trkpt>
      <trkpt lat="63.4218465" lon="10.29640967">
        <ele>243.386</ele>
        <time>1970-01-01T01:00:00Z</time>
      </trkpt>
      <trkpt lat="63.42185133" lon="10.296433">
        <ele>243.386</ele>
        <time>1970-01-01T01:00:00Z</time>
      </trkpt>
      <trkpt lat="63.42185833" lon="10.29646017">
        <ele>243.538</ele>
        <time>1970-01-01T01:00:00Z</time>
      </trkpt>
      <trkpt lat="63.42186433" lon="10.29648817">
        <ele>243.538</ele>
        <time>1970-01-01T01:00:00Z</time>
      </trkpt>
      <trkpt lat="63.42187233" lon="10.2965205">
        <ele>243.691</ele>
        <time>1970-01-01T01:00:00Z</time>
      </trkpt>
      <trkpt lat="63.42188133" lon="10.296554">
        <ele>243.691</ele>
        <time>1970-01-01T01:00:00Z</time>
      </trkpt>
      <trkpt lat="63.42189133" lon="10.29658617">
        <ele>243.995</ele>
        <time>1970-01-01T01:00:00Z</time>
      </trkpt>
      <trkpt lat="63.4219015" lon="10.2966155">
        <ele>243.995</ele>
        <time>1970-01-01T01:00:00Z</time>
      </trkpt>
      <trkpt lat="63.42190983" lon="10.29664367">
        <ele>244.148</ele>
        <time>1970-01-01T01:00:00Z</time>
      </trkpt>
      <trkpt lat="63.42191683" lon="10.2966745">
        <ele>244.148</ele>
        <time>1970-01-01T01:00:00Z</time>
      </trkpt>
      <trkpt lat="63.42191917" lon="10.29670967">
        <ele>244.3</ele>
        <time>1970-01-01T01:00:00Z</time>
      </trkpt>
      <trkpt lat="63.42191967" lon="10.296745">
        <ele>244.3</ele>
        <time>1970-01-01T01:00:00Z</time>
      </trkpt>
      <trkpt lat="63.42192033" lon="10.296779">
        <ele>244.3</ele>
        <time>1970-01-01T01:00:00Z</time>
      </trkpt>
      <trkpt lat="63.42192333" lon="10.29681">
        <ele>244.3</ele>
        <time>1970-01-01T01:00:00Z</time>
      </trkpt>
      <trkpt lat="63.421927" lon="10.29684">
        <ele>244.453</ele>
        <time>1970-01-01T01:00:00Z</time>
      </trkpt>
      <trkpt lat="63.42193133" lon="10.29686917">
        <ele>244.453</ele>
        <time>1970-01-01T01:00:00Z</time>
      </trkpt>
      <trkpt lat="63.42193617" lon="10.2968975">
        <ele>244.453</ele>
        <time>1970-01-01T01:00:00Z</time>
      </trkpt>
      <trkpt lat="63.42194067" lon="10.296925">
        <ele>244.453</ele>
        <time>1970-01-01T01:00:00Z</time>
      </trkpt>
      <trkpt lat="63.42194367" lon="10.29695333">
        <ele>244.453</ele>
        <time>1970-01-01T01:00:00Z</time>
      </trkpt>
      <trkpt lat="63.42194517" lon="10.296981">
        <ele>244.453</ele>
        <time>1970-01-01T01:00:00Z</time>
      </trkpt>
      <trkpt lat="63.421947" lon="10.29700883">
        <ele>244.605</ele>
        <time>1970-01-01T01:00:00Z</time>
      </trkpt>
      <trkpt lat="63.42194883" lon="10.2970345">
        <ele>244.605</ele>
        <time>1970-01-01T01:00:00Z</time>
      </trkpt>
      <trkpt lat="63.42195117" lon="10.297061">
        <ele>244.605</ele>
        <time>1970-01-01T01:00:00Z</time>
      </trkpt>
      <trkpt lat="63.42195483" lon="10.2970885">
        <ele>244.605</ele>
        <time>1970-01-01T01:00:00Z</time>
      </trkpt>
      <trkpt lat="63.42196033" lon="10.29711733">
        <ele>244.605</ele>
        <time>1970-01-01T01:00:00Z</time>
      </trkpt>
      <trkpt lat="63.4219655" lon="10.29714467">
        <ele>244.605</ele>
        <time>1970-01-01T01:00:00Z</time>
      </trkpt>
      <trkpt lat="63.42196933" lon="10.29717267">
        <ele>244.605</ele>
        <time>1970-01-01T01:00:00Z</time>
      </trkpt>
      <trkpt lat="63.42197217" lon="10.29720083">
        <ele>244.605</ele>
        <time>1970-01-01T01:00:00Z</time>
      </trkpt>
      <trkpt lat="63.421975" lon="10.2972305">
        <ele>244.605</ele>
        <time>1970-01-01T01:00:00Z</time>
      </trkpt>
      <trkpt lat="63.421979" lon="10.29725983">
        <ele>244.605</ele>
        <time>1970-01-01T01:00:00Z</time>
      </trkpt>
      <trkpt lat="63.42198267" lon="10.2972905">
        <ele>244.605</ele>
        <time>1970-01-01T01:00:00Z</time>
      </trkpt>
      <trkpt lat="63.42198533" lon="10.29732167">
        <ele>244.605</ele>
        <time>1970-01-01T01:00:00Z</time>
      </trkpt>
      <trkpt lat="63.421988" lon="10.29735533">
        <ele>244.605</ele>
        <time>1970-01-01T01:00:00Z</time>
      </trkpt>
      <trkpt lat="63.421992" lon="10.29738833">
        <ele>244.605</ele>
        <time>1970-01-01T01:00:00Z</time>
      </trkpt>
      <trkpt lat="63.42199617" lon="10.29741867">
        <ele>244.605</ele>
        <time>1970-01-01T01:00:00Z</time>
      </trkpt>
      <trkpt lat="63.42199983" lon="10.29744867">
        <ele>244.605</ele>
        <time>1970-01-01T01:00:00Z</time>
      </trkpt>
      <trkpt lat="63.42200267" lon="10.29747683">
        <ele>244.605</ele>
        <time>1970-01-01T01:00:00Z</time>
      </trkpt>
      <trkpt lat="63.42200683" lon="10.29750567">
        <ele>244.605</ele>
        <time>1970-01-01T01:00:00Z</time>
      </trkpt>
      <trkpt lat="63.4220105" lon="10.29753067">
        <ele>244.605</ele>
        <time>1970-01-01T01:00:00Z</time>
      </trkpt>
      <trkpt lat="63.42201367" lon="10.29755767">
        <ele>244.605</ele>
        <time>1970-01-01T01:00:00Z</time>
      </trkpt>
      <trkpt lat="63.422015" lon="10.29758767">
        <ele>244.605</ele>
        <time>1970-01-01T01:00:00Z</time>
      </trkpt>
      <trkpt lat="63.42201633" lon="10.29761817">
        <ele>244.605</ele>
        <time>1970-01-01T01:00:00Z</time>
      </trkpt>
      <trkpt lat="63.42201733" lon="10.29765">
        <ele>244.605</ele>
        <time>1970-01-01T01:00:00Z</time>
      </trkpt>
      <trkpt lat="63.42202033" lon="10.29768133">
        <ele>244.605</ele>
        <time>1970-01-01T01:00:00Z</time>
      </trkpt>
      <trkpt lat="63.42202333" lon="10.297712">
        <ele>244.605</ele>
        <time>1970-01-01T01:00:00Z</time>
      </trkpt>
      <trkpt lat="63.4220255" lon="10.29774217">
        <ele>244.605</ele>
        <time>1970-01-01T01:00:00Z</time>
      </trkpt>
      <trkpt lat="63.42202717" lon="10.29777">
        <ele>244.453</ele>
        <time>1970-01-01T01:00:00Z</time>
      </trkpt>
      <trkpt lat="63.4220285" lon="10.29779867">
        <ele>244.453</ele>
        <time>1970-01-01T01:00:00Z</time>
      </trkpt>
      <trkpt lat="63.422031" lon="10.2978245">
        <ele>244.453</ele>
        <time>1970-01-01T01:00:00Z</time>
      </trkpt>
      <trkpt lat="63.42203417" lon="10.29785183">
        <ele>244.453</ele>
        <time>1970-01-01T01:00:00Z</time>
      </trkpt>
      <trkpt lat="63.4220385" lon="10.29788083">
        <ele>244.3</ele>
        <time>1970-01-01T01:00:00Z</time>
      </trkpt>
      <trkpt lat="63.42204283" lon="10.29791117">
        <ele>244.3</ele>
        <time>1970-01-01T01:00:00Z</time>
      </trkpt>
      <trkpt lat="63.4220465" lon="10.29794183">
        <ele>244.3</ele>
        <time>1970-01-01T01:00:00Z</time>
      </trkpt>
      <trkpt lat="63.42204883" lon="10.2979725">
        <ele>244.3</ele>
        <time>1970-01-01T01:00:00Z</time>
      </trkpt>
      <trkpt lat="63.4220505" lon="10.298004">
        <ele>244.148</ele>
        <time>1970-01-01T01:00:00Z</time>
      </trkpt>
      <trkpt lat="63.42205083" lon="10.29803517">
        <ele>244.148</ele>
        <time>1970-01-01T01:00:00Z</time>
      </trkpt>
      <trkpt lat="63.42205183" lon="10.29806667">
        <ele>243.995</ele>
        <time>1970-01-01T01:00:00Z</time>
      </trkpt>
      <trkpt lat="63.4220535" lon="10.29809633">
        <ele>243.995</ele>
        <time>1970-01-01T01:00:00Z</time>
      </trkpt>
      <trkpt lat="63.422055" lon="10.29812467">
        <ele>243.995</ele>
        <time>1970-01-01T01:00:00Z</time>
      </trkpt>
      <trkpt lat="63.4220575" lon="10.298151">
        <ele>243.995</ele>
        <time>1970-01-01T01:00:00Z</time>
      </trkpt>
      <trkpt lat="63.42205833" lon="10.29817833">
        <ele>243.995</ele>
        <time>1970-01-01T01:00:00Z</time>
      </trkpt>
      <trkpt lat="63.42206167" lon="10.29820517">
        <ele>243.995</ele>
        <time>1970-01-01T01:00:00Z</time>
      </trkpt>
      <trkpt lat="63.42206517" lon="10.29823133">
        <ele>243.843</ele>
        <time>1970-01-01T01:00:00Z</time>
      </trkpt>
      <trkpt lat="63.42207083" lon="10.29825733">
        <ele>243.843</ele>
        <time>1970-01-01T01:00:00Z</time>
      </trkpt>
      <trkpt lat="63.42207583" lon="10.29828383">
        <ele>243.843</ele>
        <time>1970-01-01T01:00:00Z</time>
      </trkpt>
      <trkpt lat="63.42207983" lon="10.29831167">
        <ele>243.843</ele>
        <time>1970-01-01T01:00:00Z</time>
      </trkpt>
      <trkpt lat="63.42208267" lon="10.29834017">
        <ele>243.995</ele>
        <time>1970-01-01T01:00:00Z</time>
      </trkpt>
      <trkpt lat="63.42208183" lon="10.29837017">
        <ele>243.995</ele>
        <time>1970-01-01T01:00:00Z</time>
      </trkpt>
      <trkpt lat="63.42208167" lon="10.298401">
        <ele>243.995</ele>
        <time>1970-01-01T01:00:00Z</time>
      </trkpt>
      <trkpt lat="63.4220825" lon="10.29843117">
        <ele>243.995</ele>
        <time>1970-01-01T01:00:00Z</time>
      </trkpt>
      <trkpt lat="63.422087" lon="10.2984605">
        <ele>243.995</ele>
        <time>1970-01-01T01:00:00Z</time>
      </trkpt>
      <trkpt lat="63.42209117" lon="10.2984895">
        <ele>243.995</ele>
        <time>1970-01-01T01:00:00Z</time>
      </trkpt>
      <trkpt lat="63.42209467" lon="10.2985195">
        <ele>244.148</ele>
        <time>1970-01-01T01:00:00Z</time>
      </trkpt>
      <trkpt lat="63.42209817" lon="10.2985495">
        <ele>244.148</ele>
        <time>1970-01-01T01:00:00Z</time>
      </trkpt>
      <trkpt lat="63.42210367" lon="10.29857883">
        <ele>244.148</ele>
        <time>1970-01-01T01:00:00Z</time>
      </trkpt>
      <trkpt lat="63.42210917" lon="10.298607">
        <ele>244.148</ele>
        <time>1970-01-01T01:00:00Z</time>
      </trkpt>
      <trkpt lat="63.42211567" lon="10.2986365">
        <ele>244.3</ele>
        <time>1970-01-01T01:00:00Z</time>
      </trkpt>
      <trkpt lat="63.42212233" lon="10.29866233">
        <ele>244.3</ele>
        <time>1970-01-01T01:00:00Z</time>
      </trkpt>
      <trkpt lat="63.42213" lon="10.29868967">
        <ele>244.3</ele>
        <time>1970-01-01T01:00:00Z</time>
      </trkpt>
      <trkpt lat="63.4221365" lon="10.29871383">
        <ele>244.3</ele>
        <time>1970-01-01T01:00:00Z</time>
      </trkpt>
      <trkpt lat="63.42214183" lon="10.2987405">
        <ele>244.453</ele>
        <time>1970-01-01T01:00:00Z</time>
      </trkpt>
      <trkpt lat="63.42214433" lon="10.29876833">
        <ele>244.453</ele>
        <time>1970-01-01T01:00:00Z</time>
      </trkpt>
      <trkpt lat="63.42214667" lon="10.29879867">
        <ele>244.605</ele>
        <time>1970-01-01T01:00:00Z</time>
      </trkpt>
      <trkpt lat="63.42214717" lon="10.29883233">
        <ele>244.605</ele>
        <time>1970-01-01T01:00:00Z</time>
      </trkpt>
      <trkpt lat="63.42214917" lon="10.2988635">
        <ele>244.605</ele>
        <time>1970-01-01T01:00:00Z</time>
      </trkpt>
      <trkpt lat="63.42214717" lon="10.29889817">
        <ele>244.605</ele>
        <time>1970-01-01T01:00:00Z</time>
      </trkpt>
      <trkpt lat="63.42214267" lon="10.2989335">
        <ele>244.757</ele>
        <time>1970-01-01T01:00:00Z</time>
      </trkpt>
      <trkpt lat="63.42213517" lon="10.2989705">
        <ele>244.757</ele>
        <time>1970-01-01T01:00:00Z</time>
      </trkpt>
      <trkpt lat="63.4221295" lon="10.29900283">
        <ele>244.91</ele>
        <time>1970-01-01T01:00:00Z</time>
      </trkpt>
      <trkpt lat="63.42212417" lon="10.2990325">
        <ele>244.91</ele>
        <time>1970-01-01T01:00:00Z</time>
      </trkpt>
      <trkpt lat="63.42212017" lon="10.2990605">
        <ele>244.91</ele>
        <time>1970-01-01T01:00:00Z</time>
      </trkpt>
      <trkpt lat="63.42211617" lon="10.29908767">
        <ele>244.91</ele>
        <time>1970-01-01T01:00:00Z</time>
      </trkpt>
      <trkpt lat="63.42211317" lon="10.29911067">
        <ele>245.062</ele>
        <time>1970-01-01T01:00:00Z</time>
      </trkpt>
      <trkpt lat="63.4221105" lon="10.29913033">
        <ele>245.062</ele>
        <time>1970-01-01T01:00:00Z</time>
      </trkpt>
      <trkpt lat="63.4221085" lon="10.299149">
        <ele>245.215</ele>
        <time>1970-01-01T01:00:00Z</time>
      </trkpt>
      <trkpt lat="63.42210883" lon="10.299171">
        <ele>245.215</ele>
        <time>1970-01-01T01:00:00Z</time>
      </trkpt>
      <trkpt lat="63.42211" lon="10.29919517">
        <ele>245.215</ele>
        <time>1970-01-01T01:00:00Z</time>
      </trkpt>
      <trkpt lat="63.42211367" lon="10.29922183">
        <ele>245.215</ele>
        <time>1970-01-01T01:00:00Z</time>
      </trkpt>
      <trkpt lat="63.42211667" lon="10.29924983">
        <ele>245.367</ele>
        <time>1970-01-01T01:00:00Z</time>
      </trkpt>
      <trkpt lat="63.42212067" lon="10.29927833">
        <ele>245.367</ele>
        <time>1970-01-01T01:00:00Z</time>
      </trkpt>
      <trkpt lat="63.42212167" lon="10.29930917">
        <ele>245.367</ele>
        <time>1970-01-01T01:00:00Z</time>
      </trkpt>
      <trkpt lat="63.42211883" lon="10.29934167">
        <ele>245.367</ele>
        <time>1970-01-01T01:00:00Z</time>
      </trkpt>
      <trkpt lat="63.42211383" lon="10.29937167">
        <ele>245.367</ele>
        <time>1970-01-01T01:00:00Z</time>
      </trkpt>
      <trkpt lat="63.4221115" lon="10.29940333">
        <ele>245.367</ele>
        <time>1970-01-01T01:00:00Z</time>
      </trkpt>
      <trkpt lat="63.42211267" lon="10.29943267">
        <ele>245.519</ele>
        <time>1970-01-01T01:00:00Z</time>
      </trkpt>
      <trkpt lat="63.42211633" lon="10.29946517">
        <ele>245.519</ele>
        <time>1970-01-01T01:00:00Z</time>
      </trkpt>
      <trkpt lat="63.4221195" lon="10.2994935">
        <ele>245.519</ele>
        <time>1970-01-01T01:00:00Z</time>
      </trkpt>
      <trkpt lat="63.42212183" lon="10.2995195">
        <ele>245.519</ele>
        <time>1970-01-01T01:00:00Z</time>
      </trkpt>
      <trkpt lat="63.42212233" lon="10.29954517">
        <ele>245.519</ele>
        <time>1970-01-01T01:00:00Z</time>
      </trkpt>
      <trkpt lat="63.42212283" lon="10.29956933">
        <ele>245.519</ele>
        <time>1970-01-01T01:00:00Z</time>
      </trkpt>
      <trkpt lat="63.42212317" lon="10.29959667">
        <ele>245.519</ele>
        <time>1970-01-01T01:00:00Z</time>
      </trkpt>
      <trkpt lat="63.4221235" lon="10.2996265">
        <ele>245.519</ele>
        <time>1970-01-01T01:00:00Z</time>
      </trkpt>
      <trkpt lat="63.42212183" lon="10.29965633">
        <ele>245.672</ele>
        <time>1970-01-01T01:00:00Z</time>
      </trkpt>
      <trkpt lat="63.42212117" lon="10.29968783">
        <ele>245.672</ele>
        <time>1970-01-01T01:00:00Z</time>
      </trkpt>
      <trkpt lat="63.42211983" lon="10.29971867">
        <ele>245.672</ele>
        <time>1970-01-01T01:00:00Z</time>
      </trkpt>
      <trkpt lat="63.42211867" lon="10.29975217">
        <ele>245.672</ele>
        <time>1970-01-01T01:00:00Z</time>
      </trkpt>
      <trkpt lat="63.4221165" lon="10.29978467">
        <ele>245.824</ele>
        <time>1970-01-01T01:00:00Z</time>
      </trkpt>
      <trkpt lat="63.422116" lon="10.29981733">
        <ele>245.824</ele>
        <time>1970-01-01T01:00:00Z</time>
      </trkpt>
      <trkpt lat="63.4221165" lon="10.29984583">
        <ele>245.824</ele>
        <time>1970-01-01T01:00:00Z</time>
      </trkpt>
      <trkpt lat="63.42211917" lon="10.29987233">
        <ele>245.824</ele>
        <time>1970-01-01T01:00:00Z</time>
      </trkpt>
      <trkpt lat="63.42212233" lon="10.29989833">
        <ele>245.977</ele>
        <time>1970-01-01T01:00:00Z</time>
      </trkpt>
      <trkpt lat="63.42212617" lon="10.29992733">
        <ele>245.977</ele>
        <time>1970-01-01T01:00:00Z</time>
      </trkpt>
      <trkpt lat="63.42212767" lon="10.2999555">
        <ele>245.977</ele>
        <time>1970-01-01T01:00:00Z</time>
      </trkpt>
      <trkpt lat="63.422129" lon="10.29998117">
        <ele>245.977</ele>
        <time>1970-01-01T01:00:00Z</time>
      </trkpt>
      <trkpt lat="63.42212783" lon="10.300006">
        <ele>246.129</ele>
        <time>1970-01-01T01:00:00Z</time>
      </trkpt>
      <trkpt lat="63.42212617" lon="10.30003033">
        <ele>246.129</ele>
        <time>1970-01-01T01:00:00Z</time>
      </trkpt>
      <trkpt lat="63.42212333" lon="10.30005367">
        <ele>246.129</ele>
        <time>1970-01-01T01:00:00Z</time>
      </trkpt>
      <trkpt lat="63.42212167" lon="10.300079">
        <ele>246.129</ele>
        <time>1970-01-01T01:00:00Z</time>
      </trkpt>
      <trkpt lat="63.42212183" lon="10.30010783">
        <ele>246.281</ele>
        <time>1970-01-01T01:00:00Z</time>
      </trkpt>
      <trkpt lat="63.42212117" lon="10.3001405">
        <ele>246.281</ele>
        <time>1970-01-01T01:00:00Z</time>
      </trkpt>
      <trkpt lat="63.4221205" lon="10.30017317">
        <ele>246.281</ele>
        <time>1970-01-01T01:00:00Z</time>
      </trkpt>
      <trkpt lat="63.42211817" lon="10.30020617">
        <ele>246.281</ele>
        <time>1970-01-01T01:00:00Z</time>
      </trkpt>
      <trkpt lat="63.42211817" lon="10.30023767">
        <ele>246.434</ele>
        <time>1970-01-01T01:00:00Z</time>
      </trkpt>
      <trkpt lat="63.42212033" lon="10.30026767">
        <ele>246.434</ele>
        <time>1970-01-01T01:00:00Z</time>
      </trkpt>
      <trkpt lat="63.42212217" lon="10.300295">
        <ele>246.434</ele>
        <time>1970-01-01T01:00:00Z</time>
      </trkpt>
      <trkpt lat="63.42212267" lon="10.30032183">
        <ele>246.434</ele>
        <time>1970-01-01T01:00:00Z</time>
      </trkpt>
      <trkpt lat="63.42212083" lon="10.3003475">
        <ele>246.586</ele>
        <time>1970-01-01T01:00:00Z</time>
      </trkpt>
      <trkpt lat="63.42211983" lon="10.3003725">
        <ele>246.586</ele>
        <time>1970-01-01T01:00:00Z</time>
      </trkpt>
      <trkpt lat="63.4221185" lon="10.30039833">
        <ele>246.586</ele>
        <time>1970-01-01T01:00:00Z</time>
      </trkpt>
      <trkpt lat="63.42211867" lon="10.300426">
        <ele>246.586</ele>
        <time>1970-01-01T01:00:00Z</time>
      </trkpt>
      <trkpt lat="63.422119" lon="10.30045567">
        <ele>246.739</ele>
        <time>1970-01-01T01:00:00Z</time>
      </trkpt>
      <trkpt lat="63.4221195" lon="10.300485">
        <ele>246.739</ele>
        <time>1970-01-01T01:00:00Z</time>
      </trkpt>
      <trkpt lat="63.42211933" lon="10.300512">
        <ele>246.891</ele>
        <time>1970-01-01T01:00:00Z</time>
      </trkpt>
      <trkpt lat="63.42211933" lon="10.30053467">
        <ele>246.891</ele>
        <time>1970-01-01T01:00:00Z</time>
      </trkpt>
      <trkpt lat="63.42212" lon="10.30055367">
        <ele>247.043</ele>
        <time>1970-01-01T01:00:00Z</time>
      </trkpt>
      <trkpt lat="63.422121" lon="10.300571">
        <ele>247.043</ele>
        <time>1970-01-01T01:00:00Z</time>
      </trkpt>
      <trkpt lat="63.4221215" lon="10.3005855">
        <ele>247.348</ele>
        <time>1970-01-01T01:00:00Z</time>
      </trkpt>
      <trkpt lat="63.42212067" lon="10.3005975">
        <ele>247.348</ele>
        <time>1970-01-01T01:00:00Z</time>
      </trkpt>
      <trkpt lat="63.42212" lon="10.30060533">
        <ele>247.501</ele>
        <time>1970-01-01T01:00:00Z</time>
      </trkpt>
      <trkpt lat="63.42212067" lon="10.30061233">
        <ele>247.501</ele>
        <time>1970-01-01T01:00:00Z</time>
      </trkpt>
      <trkpt lat="63.422122" lon="10.30062417">
        <ele>247.653</ele>
        <time>1970-01-01T01:00:00Z</time>
      </trkpt>
      <trkpt lat="63.4221235" lon="10.300643">
        <ele>247.653</ele>
        <time>1970-01-01T01:00:00Z</time>
      </trkpt>
      <trkpt lat="63.42212517" lon="10.30066517">
        <ele>247.805</ele>
        <time>1970-01-01T01:00:00Z</time>
      </trkpt>
      <trkpt lat="63.422124" lon="10.30068933">
        <ele>247.805</ele>
        <time>1970-01-01T01:00:00Z</time>
      </trkpt>
      <trkpt lat="63.4221245" lon="10.300716">
        <ele>247.958</ele>
        <time>1970-01-01T01:00:00Z</time>
      </trkpt>
      <trkpt lat="63.42212483" lon="10.3007475">
        <ele>247.958</ele>
        <time>1970-01-01T01:00:00Z</time>
      </trkpt>
      <trkpt lat="63.42212917" lon="10.30077967">
        <ele>248.11</ele>
        <time>1970-01-01T01:00:00Z</time>
      </trkpt>
      <trkpt lat="63.42213183" lon="10.30081233">
        <ele>248.11</ele>
        <time>1970-01-01T01:00:00Z</time>
      </trkpt>
      <trkpt lat="63.422134" lon="10.30084233">
        <ele>248.11</ele>
        <time>1970-01-01T01:00:00Z</time>
      </trkpt>
      <trkpt lat="63.42213417" lon="10.300871">
        <ele>248.11</ele>
        <time>1970-01-01T01:00:00Z</time>
      </trkpt>
      <trkpt lat="63.42213467" lon="10.30089717">
        <ele>248.263</ele>
        <time>1970-01-01T01:00:00Z</time>
      </trkpt>
      <trkpt lat="63.4221355" lon="10.3009235">
        <ele>248.263</ele>
        <time>1970-01-01T01:00:00Z</time>
      </trkpt>
      <trkpt lat="63.42213767" lon="10.30094917">
        <ele>248.263</ele>
        <time>1970-01-01T01:00:00Z</time>
      </trkpt>
      <trkpt lat="63.42213933" lon="10.30097667">
        <ele>248.263</ele>
        <time>1970-01-01T01:00:00Z</time>
      </trkpt>
      <trkpt lat="63.42214033" lon="10.30100783">
        <ele>248.415</ele>
        <time>1970-01-01T01:00:00Z</time>
      </trkpt>
      <trkpt lat="63.4221405" lon="10.30103833">
        <ele>248.415</ele>
        <time>1970-01-01T01:00:00Z</time>
      </trkpt>
      <trkpt lat="63.42214283" lon="10.301071">
        <ele>248.415</ele>
        <time>1970-01-01T01:00:00Z</time>
      </trkpt>
      <trkpt lat="63.4221475" lon="10.30110233">
        <ele>248.415</ele>
        <time>1970-01-01T01:00:00Z</time>
      </trkpt>
      <trkpt lat="63.4221545" lon="10.30113267">
        <ele>248.415</ele>
        <time>1970-01-01T01:00:00Z</time>
      </trkpt>
      <trkpt lat="63.42215917" lon="10.30116067">
        <ele>248.415</ele>
        <time>1970-01-01T01:00:00Z</time>
      </trkpt>
      <trkpt lat="63.42216233" lon="10.3011875">
        <ele>248.415</ele>
        <time>1970-01-01T01:00:00Z</time>
      </trkpt>
      <trkpt lat="63.42216467" lon="10.3012165">
        <ele>248.415</ele>
        <time>1970-01-01T01:00:00Z</time>
      </trkpt>
      <trkpt lat="63.42216767" lon="10.301244">
        <ele>248.415</ele>
        <time>1970-01-01T01:00:00Z</time>
      </trkpt>
      <trkpt lat="63.42217183" lon="10.30127217">
        <ele>248.415</ele>
        <time>1970-01-01T01:00:00Z</time>
      </trkpt>
      <trkpt lat="63.42217617" lon="10.30129867">
        <ele>248.415</ele>
        <time>1970-01-01T01:00:00Z</time>
      </trkpt>
      <trkpt lat="63.42218" lon="10.30132567">
        <ele>248.415</ele>
        <time>1970-01-01T01:00:00Z</time>
      </trkpt>
      <trkpt lat="63.422184" lon="10.3013495">
        <ele>248.415</ele>
        <time>1970-01-01T01:00:00Z</time>
      </trkpt>
      <trkpt lat="63.4221885" lon="10.301374">
        <ele>248.415</ele>
        <time>1970-01-01T01:00:00Z</time>
      </trkpt>
      <trkpt lat="63.42219333" lon="10.30139767">
        <ele>248.263</ele>
        <time>1970-01-01T01:00:00Z</time>
      </trkpt>
      <trkpt lat="63.4221985" lon="10.301424">
        <ele>248.263</ele>
        <time>1970-01-01T01:00:00Z</time>
      </trkpt>
      <trkpt lat="63.42220333" lon="10.30145017">
        <ele>248.263</ele>
        <time>1970-01-01T01:00:00Z</time>
      </trkpt>
      <trkpt lat="63.42220867" lon="10.30147567">
        <ele>248.263</ele>
        <time>1970-01-01T01:00:00Z</time>
      </trkpt>
      <trkpt lat="63.4222135" lon="10.30150183">
        <ele>248.263</ele>
        <time>1970-01-01T01:00:00Z</time>
      </trkpt>
      <trkpt lat="63.42221867" lon="10.3015285">
        <ele>248.263</ele>
        <time>1970-01-01T01:00:00Z</time>
      </trkpt>
      <trkpt lat="63.42222433" lon="10.30155717">
        <ele>248.263</ele>
        <time>1970-01-01T01:00:00Z</time>
      </trkpt>
      <trkpt lat="63.42223083" lon="10.3015855">
        <ele>248.263</ele>
        <time>1970-01-01T01:00:00Z</time>
      </trkpt>
      <trkpt lat="63.422238" lon="10.30161467">
        <ele>248.263</ele>
        <time>1970-01-01T01:00:00Z</time>
      </trkpt>
      <trkpt lat="63.4222445" lon="10.30164167">
        <ele>248.263</ele>
        <time>1970-01-01T01:00:00Z</time>
      </trkpt>
      <trkpt lat="63.42225133" lon="10.30166717">
        <ele>248.263</ele>
        <time>1970-01-01T01:00:00Z</time>
      </trkpt>
      <trkpt lat="63.42225767" lon="10.30169067">
        <ele>248.263</ele>
        <time>1970-01-01T01:00:00Z</time>
      </trkpt>
      <trkpt lat="63.42226733" lon="10.301712">
        <ele>248.263</ele>
        <time>1970-01-01T01:00:00Z</time>
      </trkpt>
      <trkpt lat="63.42227667" lon="10.30173533">
        <ele>248.263</ele>
        <time>1970-01-01T01:00:00Z</time>
      </trkpt>
      <trkpt lat="63.42228567" lon="10.30175867">
        <ele>248.263</ele>
        <time>1970-01-01T01:00:00Z</time>
      </trkpt>
      <trkpt lat="63.42229217" lon="10.3017845">
        <ele>248.263</ele>
        <time>1970-01-01T01:00:00Z</time>
      </trkpt>
      <trkpt lat="63.42230033" lon="10.30181">
        <ele>248.263</ele>
        <time>1970-01-01T01:00:00Z</time>
      </trkpt>
      <trkpt lat="63.42230867" lon="10.30183883">
        <ele>248.263</ele>
        <time>1970-01-01T01:00:00Z</time>
      </trkpt>
      <trkpt lat="63.42231617" lon="10.30186917">
        <ele>248.263</ele>
        <time>1970-01-01T01:00:00Z</time>
      </trkpt>
      <trkpt lat="63.42232233" lon="10.30189983">
        <ele>248.263</ele>
        <time>1970-01-01T01:00:00Z</time>
      </trkpt>
      <trkpt lat="63.4223285" lon="10.301928">
        <ele>248.263</ele>
        <time>1970-01-01T01:00:00Z</time>
      </trkpt>
      <trkpt lat="63.42233483" lon="10.30195417">
        <ele>248.263</ele>
        <time>1970-01-01T01:00:00Z</time>
      </trkpt>
      <trkpt lat="63.42234083" lon="10.30198017">
        <ele>248.263</ele>
        <time>1970-01-01T01:00:00Z</time>
      </trkpt>
      <trkpt lat="63.4223465" lon="10.30200783">
        <ele>248.263</ele>
        <time>1970-01-01T01:00:00Z</time>
      </trkpt>
      <trkpt lat="63.42235217" lon="10.30203817">
        <ele>248.263</ele>
        <time>1970-01-01T01:00:00Z</time>
      </trkpt>
      <trkpt lat="63.42235733" lon="10.30206933">
        <ele>248.263</ele>
        <time>1970-01-01T01:00:00Z</time>
      </trkpt>
      <trkpt lat="63.422363" lon="10.30210067">
        <ele>248.263</ele>
        <time>1970-01-01T01:00:00Z</time>
      </trkpt>
      <trkpt lat="63.4223675" lon="10.30212867">
        <ele>248.263</ele>
        <time>1970-01-01T01:00:00Z</time>
      </trkpt>
      <trkpt lat="63.42237233" lon="10.30215417">
        <ele>248.263</ele>
        <time>1970-01-01T01:00:00Z</time>
      </trkpt>
      <trkpt lat="63.42237633" lon="10.302178">
        <ele>248.263</ele>
        <time>1970-01-01T01:00:00Z</time>
      </trkpt>
      <trkpt lat="63.42238033" lon="10.30220367">
        <ele>248.263</ele>
        <time>1970-01-01T01:00:00Z</time>
      </trkpt>
      <trkpt lat="63.422384" lon="10.30223083">
        <ele>248.263</ele>
        <time>1970-01-01T01:00:00Z</time>
      </trkpt>
      <trkpt lat="63.42238667" lon="10.30225983">
        <ele>248.263</ele>
        <time>1970-01-01T01:00:00Z</time>
      </trkpt>
      <trkpt lat="63.42239" lon="10.30228967">
        <ele>248.263</ele>
        <time>1970-01-01T01:00:00Z</time>
      </trkpt>
      <trkpt lat="63.42239383" lon="10.30231867">
        <ele>248.263</ele>
        <time>1970-01-01T01:00:00Z</time>
      </trkpt>
      <trkpt lat="63.422399" lon="10.30234967">
        <ele>248.263</ele>
        <time>1970-01-01T01:00:00Z</time>
      </trkpt>
      <trkpt lat="63.42240333" lon="10.30238083">
        <ele>248.263</ele>
        <time>1970-01-01T01:00:00Z</time>
      </trkpt>
      <trkpt lat="63.42240767" lon="10.302414">
        <ele>248.263</ele>
        <time>1970-01-01T01:00:00Z</time>
      </trkpt>
      <trkpt lat="63.422411" lon="10.30244417">
        <ele>248.263</ele>
        <time>1970-01-01T01:00:00Z</time>
      </trkpt>
      <trkpt lat="63.42241467" lon="10.3024755">
        <ele>248.263</ele>
        <time>1970-01-01T01:00:00Z</time>
      </trkpt>
      <trkpt lat="63.42241733" lon="10.30250567">
        <ele>248.263</ele>
        <time>1970-01-01T01:00:00Z</time>
      </trkpt>
      <trkpt lat="63.42241983" lon="10.30253717">
        <ele>248.263</ele>
        <time>1970-01-01T01:00:00Z</time>
      </trkpt>
      <trkpt lat="63.42242233" lon="10.30256717">
        <ele>248.11</ele>
        <time>1970-01-01T01:00:00Z</time>
      </trkpt>
      <trkpt lat="63.42242483" lon="10.30259667">
        <ele>248.11</ele>
        <time>1970-01-01T01:00:00Z</time>
      </trkpt>
      <trkpt lat="63.4224275" lon="10.3026225">
        <ele>248.11</ele>
        <time>1970-01-01T01:00:00Z</time>
      </trkpt>
      <trkpt lat="63.42243017" lon="10.30264783">
        <ele>248.11</ele>
        <time>1970-01-01T01:00:00Z</time>
      </trkpt>
      <trkpt lat="63.42243267" lon="10.302673">
        <ele>248.11</ele>
        <time>1970-01-01T01:00:00Z</time>
      </trkpt>
      <trkpt lat="63.42243533" lon="10.30269933">
        <ele>248.11</ele>
        <time>1970-01-01T01:00:00Z</time>
      </trkpt>
      <trkpt lat="63.42243733" lon="10.30272267">
        <ele>247.958</ele>
        <time>1970-01-01T01:00:00Z</time>
      </trkpt>
      <trkpt lat="63.4224405" lon="10.30274617">
        <ele>247.958</ele>
        <time>1970-01-01T01:00:00Z</time>
      </trkpt>
      <trkpt lat="63.422445" lon="10.30277283">
        <ele>247.958</ele>
        <time>1970-01-01T01:00:00Z</time>
      </trkpt>
      <trkpt lat="63.4224495" lon="10.30280233">
        <ele>247.958</ele>
        <time>1970-01-01T01:00:00Z</time>
      </trkpt>
      <trkpt lat="63.42245233" lon="10.3028315">
        <ele>247.958</ele>
        <time>1970-01-01T01:00:00Z</time>
      </trkpt>
      <trkpt lat="63.42245433" lon="10.302858">
        <ele>247.958</ele>
        <time>1970-01-01T01:00:00Z</time>
      </trkpt>
      <trkpt lat="63.42245783" lon="10.3028835">
        <ele>247.958</ele>
        <time>1970-01-01T01:00:00Z</time>
      </trkpt>
      <trkpt lat="63.42246083" lon="10.30290717">
        <ele>247.958</ele>
        <time>1970-01-01T01:00:00Z</time>
      </trkpt>
      <trkpt lat="63.42246533" lon="10.3029315">
        <ele>247.958</ele>
        <time>1970-01-01T01:00:00Z</time>
      </trkpt>
      <trkpt lat="63.4224675" lon="10.302957">
        <ele>247.958</ele>
        <time>1970-01-01T01:00:00Z</time>
      </trkpt>
      <trkpt lat="63.42247117" lon="10.3029825">
        <ele>247.958</ele>
        <time>1970-01-01T01:00:00Z</time>
      </trkpt>
      <trkpt lat="63.42247233" lon="10.30300767">
        <ele>247.958</ele>
        <time>1970-01-01T01:00:00Z</time>
      </trkpt>
      <trkpt lat="63.42247533" lon="10.3030305">
        <ele>247.958</ele>
        <time>1970-01-01T01:00:00Z</time>
      </trkpt>
      <trkpt lat="63.42247833" lon="10.30305617">
        <ele>247.958</ele>
        <time>1970-01-01T01:00:00Z</time>
      </trkpt>
      <trkpt lat="63.42248133" lon="10.303082">
        <ele>248.11</ele>
        <time>1970-01-01T01:00:00Z</time>
      </trkpt>
      <trkpt lat="63.422484" lon="10.30310933">
        <ele>248.11</ele>
        <time>1970-01-01T01:00:00Z</time>
      </trkpt>
      <trkpt lat="63.42248633" lon="10.30313883">
        <ele>248.11</ele>
        <time>1970-01-01T01:00:00Z</time>
      </trkpt>
      <trkpt lat="63.4224905" lon="10.3031695">
        <ele>248.11</ele>
        <time>1970-01-01T01:00:00Z</time>
      </trkpt>
      <trkpt lat="63.422496" lon="10.30320467">
        <ele>248.263</ele>
        <time>1970-01-01T01:00:00Z</time>
      </trkpt>
      <trkpt lat="63.42250117" lon="10.30323917">
        <ele>248.263</ele>
        <time>1970-01-01T01:00:00Z</time>
      </trkpt>
      <trkpt lat="63.422505" lon="10.30327317">
        <ele>248.415</ele>
        <time>1970-01-01T01:00:00Z</time>
      </trkpt>
      <trkpt lat="63.42250667" lon="10.30330433">
        <ele>248.415</ele>
        <time>1970-01-01T01:00:00Z</time>
      </trkpt>
      <trkpt lat="63.4225075" lon="10.30333483">
        <ele>248.72</ele>
        <time>1970-01-01T01:00:00Z</time>
      </trkpt>
      <trkpt lat="63.42250817" lon="10.303365">
        <ele>248.72</ele>
        <time>1970-01-01T01:00:00Z</time>
      </trkpt>
      <trkpt lat="63.42251" lon="10.30339483">
        <ele>248.872</ele>
        <time>1970-01-01T01:00:00Z</time>
      </trkpt>
      <trkpt lat="63.4225125" lon="10.30342483">
        <ele>248.872</ele>
        <time>1970-01-01T01:00:00Z</time>
      </trkpt>
      <trkpt lat="63.42251467" lon="10.30345667">
        <ele>249.025</ele>
        <time>1970-01-01T01:00:00Z</time>
      </trkpt>
      <trkpt lat="63.422517" lon="10.3034885">
        <ele>249.025</ele>
        <time>1970-01-01T01:00:00Z</time>
      </trkpt>
      <trkpt lat="63.42252017" lon="10.3035205">
        <ele>249.177</ele>
        <time>1970-01-01T01:00:00Z</time>
      </trkpt>
      <trkpt lat="63.42252367" lon="10.30355233">
        <ele>249.177</ele>
        <time>1970-01-01T01:00:00Z</time>
      </trkpt>
      <trkpt lat="63.42252833" lon="10.30358433">
        <ele>249.329</ele>
        <time>1970-01-01T01:00:00Z</time>
      </trkpt>
      <trkpt lat="63.42253233" lon="10.30361517">
        <ele>249.329</ele>
        <time>1970-01-01T01:00:00Z</time>
      </trkpt>
      <trkpt lat="63.42253617" lon="10.30364433">
        <ele>249.482</ele>
        <time>1970-01-01T01:00:00Z</time>
      </trkpt>
      <trkpt lat="63.422538" lon="10.30367267">
        <ele>249.482</ele>
        <time>1970-01-01T01:00:00Z</time>
      </trkpt>
      <trkpt lat="63.42253967" lon="10.30370133">
        <ele>249.787</ele>
        <time>1970-01-01T01:00:00Z</time>
      </trkpt>
      <trkpt lat="63.42254117" lon="10.30373133">
        <ele>249.787</ele>
        <time>1970-01-01T01:00:00Z</time>
      </trkpt>
      <trkpt lat="63.4225425" lon="10.30376167">
        <ele>249.939</ele>
        <time>1970-01-01T01:00:00Z</time>
      </trkpt>
      <trkpt lat="63.42254367" lon="10.30379217">
        <ele>249.939</ele>
        <time>1970-01-01T01:00:00Z</time>
      </trkpt>
      <trkpt lat="63.4225445" lon="10.30382433">
        <ele>250.091</ele>
        <time>1970-01-01T01:00:00Z</time>
      </trkpt>
      <trkpt lat="63.42254617" lon="10.303858">
        <ele>250.091</ele>
        <time>1970-01-01T01:00:00Z</time>
      </trkpt>
      <trkpt lat="63.42254917" lon="10.30389217">
        <ele>250.396</ele>
        <time>1970-01-01T01:00:00Z</time>
      </trkpt>
      <trkpt lat="63.42255283" lon="10.30392367">
        <ele>250.396</ele>
        <time>1970-01-01T01:00:00Z</time>
      </trkpt>
      <trkpt lat="63.42255567" lon="10.303955">
        <ele>250.549</ele>
        <time>1970-01-01T01:00:00Z</time>
      </trkpt>
      <trkpt lat="63.422558" lon="10.30398683">
        <ele>250.549</ele>
        <time>1970-01-01T01:00:00Z</time>
      </trkpt>
      <trkpt lat="63.42256017" lon="10.30401933">
        <ele>250.701</ele>
        <time>1970-01-01T01:00:00Z</time>
      </trkpt>
      <trkpt lat="63.42256317" lon="10.30405183">
        <ele>250.701</ele>
        <time>1970-01-01T01:00:00Z</time>
      </trkpt>
      <trkpt lat="63.42256483" lon="10.30408283">
        <ele>250.853</ele>
        <time>1970-01-01T01:00:00Z</time>
      </trkpt>
      <trkpt lat="63.42256583" lon="10.30411383">
        <ele>250.853</ele>
        <time>1970-01-01T01:00:00Z</time>
      </trkpt>
      <trkpt lat="63.42256567" lon="10.30414433">
        <ele>251.006</ele>
        <time>1970-01-01T01:00:00Z</time>
      </trkpt>
      <trkpt lat="63.422566" lon="10.3041755">
        <ele>251.006</ele>
        <time>1970-01-01T01:00:00Z</time>
      </trkpt>
      <trkpt lat="63.42256617" lon="10.30420683">
        <ele>251.158</ele>
        <time>1970-01-01T01:00:00Z</time>
      </trkpt>
      <trkpt lat="63.42256617" lon="10.30423967">
        <ele>251.158</ele>
        <time>1970-01-01T01:00:00Z</time>
      </trkpt>
      <trkpt lat="63.42256517" lon="10.30427583">
        <ele>251.311</ele>
        <time>1970-01-01T01:00:00Z</time>
      </trkpt>
      <trkpt lat="63.42256317" lon="10.304313">
        <ele>251.311</ele>
        <time>1970-01-01T01:00:00Z</time>
      </trkpt>
      <trkpt lat="63.4225605" lon="10.30434467">
        <ele>251.311</ele>
        <time>1970-01-01T01:00:00Z</time>
      </trkpt>
      <trkpt lat="63.42255817" lon="10.30437283">
        <ele>251.311</ele>
        <time>1970-01-01T01:00:00Z</time>
      </trkpt>
      <trkpt lat="63.42255567" lon="10.304399">
        <ele>251.463</ele>
        <time>1970-01-01T01:00:00Z</time>
      </trkpt>
      <trkpt lat="63.42255317" lon="10.30442767">
        <ele>251.463</ele>
        <time>1970-01-01T01:00:00Z</time>
      </trkpt>
      <trkpt lat="63.4225505" lon="10.3044545">
        <ele>251.615</ele>
        <time>1970-01-01T01:00:00Z</time>
      </trkpt>
      <trkpt lat="63.42254817" lon="10.304481">
        <ele>251.615</ele>
        <time>1970-01-01T01:00:00Z</time>
      </trkpt>
      <trkpt lat="63.42254633" lon="10.3045085">
        <ele>251.615</ele>
        <time>1970-01-01T01:00:00Z</time>
      </trkpt>
      <trkpt lat="63.4225435" lon="10.30453683">
        <ele>251.615</ele>
        <time>1970-01-01T01:00:00Z</time>
      </trkpt>
      <trkpt lat="63.42253833" lon="10.30456617">
        <ele>251.768</ele>
        <time>1970-01-01T01:00:00Z</time>
      </trkpt>
      <trkpt lat="63.422532" lon="10.30459417">
        <ele>251.768</ele>
        <time>1970-01-01T01:00:00Z</time>
      </trkpt>
      <trkpt lat="63.422527" lon="10.30462333">
        <ele>251.768</ele>
        <time>1970-01-01T01:00:00Z</time>
      </trkpt>
      <trkpt lat="63.422523" lon="10.30465267">
        <ele>251.768</ele>
        <time>1970-01-01T01:00:00Z</time>
      </trkpt>
      <trkpt lat="63.422519" lon="10.30467967">
        <ele>251.768</ele>
        <time>1970-01-01T01:00:00Z</time>
      </trkpt>
      <trkpt lat="63.422515" lon="10.30470717">
        <ele>251.768</ele>
        <time>1970-01-01T01:00:00Z</time>
      </trkpt>
      <trkpt lat="63.42251333" lon="10.30473517">
        <ele>251.768</ele>
        <time>1970-01-01T01:00:00Z</time>
      </trkpt>
      <trkpt lat="63.42251217" lon="10.30476683">
        <ele>251.768</ele>
        <time>1970-01-01T01:00:00Z</time>
      </trkpt>
      <trkpt lat="63.42250983" lon="10.30479317">
        <ele>251.768</ele>
        <time>1970-01-01T01:00:00Z</time>
      </trkpt>
      <trkpt lat="63.42250617" lon="10.30481317">
        <ele>251.768</ele>
        <time>1970-01-01T01:00:00Z</time>
      </trkpt>
      <trkpt lat="63.4225035" lon="10.3048255">
        <ele>251.768</ele>
        <time>1970-01-01T01:00:00Z</time>
      </trkpt>
      <trkpt lat="63.4225015" lon="10.30483383">
        <ele>251.768</ele>
        <time>1970-01-01T01:00:00Z</time>
      </trkpt>
      <trkpt lat="63.42249967" lon="10.30483733">
        <ele>251.768</ele>
        <time>1970-01-01T01:00:00Z</time>
      </trkpt>
      <trkpt lat="63.422498" lon="10.30483667">
        <ele>251.768</ele>
        <time>1970-01-01T01:00:00Z</time>
      </trkpt>
      <trkpt lat="63.42249733" lon="10.30483417">
        <ele>251.768</ele>
        <time>1970-01-01T01:00:00Z</time>
      </trkpt>
      <trkpt lat="63.422497" lon="10.30483183">
        <ele>251.768</ele>
        <time>1970-01-01T01:00:00Z</time>
      </trkpt>
      <trkpt lat="63.42249517" lon="10.304834">
        <ele>251.768</ele>
        <time>1970-01-01T01:00:00Z</time>
      </trkpt>
      <trkpt lat="63.42248983" lon="10.30484117">
        <ele>251.768</ele>
        <time>1970-01-01T01:00:00Z</time>
      </trkpt>
      <trkpt lat="63.42248167" lon="10.3048545">
        <ele>251.768</ele>
        <time>1970-01-01T01:00:00Z</time>
      </trkpt>
      <trkpt lat="63.42247233" lon="10.30487033">
        <ele>251.768</ele>
        <time>1970-01-01T01:00:00Z</time>
      </trkpt>
      <trkpt lat="63.4224635" lon="10.30488817">
        <ele>251.768</ele>
        <time>1970-01-01T01:00:00Z</time>
      </trkpt>
      <trkpt lat="63.422455" lon="10.30490767">
        <ele>251.768</ele>
        <time>1970-01-01T01:00:00Z</time>
      </trkpt>
      <trkpt lat="63.42244683" lon="10.3049275">
        <ele>251.768</ele>
        <time>1970-01-01T01:00:00Z</time>
      </trkpt>
      <trkpt lat="63.42243867" lon="10.30494733">
        <ele>251.768</ele>
        <time>1970-01-01T01:00:00Z</time>
      </trkpt>
      <trkpt lat="63.42243033" lon="10.30496533">
        <ele>251.768</ele>
        <time>1970-01-01T01:00:00Z</time>
      </trkpt>
      <trkpt lat="63.42242183" lon="10.30498367">
        <ele>251.768</ele>
        <time>1970-01-01T01:00:00Z</time>
      </trkpt>
      <trkpt lat="63.42241317" lon="10.30500233">
        <ele>251.768</ele>
        <time>1970-01-01T01:00:00Z</time>
      </trkpt>
      <trkpt lat="63.42240483" lon="10.3050205">
        <ele>251.768</ele>
        <time>1970-01-01T01:00:00Z</time>
      </trkpt>
      <trkpt lat="63.42239583" lon="10.30503833">
        <ele>251.768</ele>
        <time>1970-01-01T01:00:00Z</time>
      </trkpt>
      <trkpt lat="63.422387" lon="10.30505517">
        <ele>251.768</ele>
        <time>1970-01-01T01:00:00Z</time>
      </trkpt>
      <trkpt lat="63.42237767" lon="10.30507167">
        <ele>251.768</ele>
        <time>1970-01-01T01:00:00Z</time>
      </trkpt>
      <trkpt lat="63.4223685" lon="10.30509183">
        <ele>251.768</ele>
        <time>1970-01-01T01:00:00Z</time>
      </trkpt>
      <trkpt lat="63.42235917" lon="10.30511283">
        <ele>251.768</ele>
        <time>1970-01-01T01:00:00Z</time>
      </trkpt>
      <trkpt lat="63.42235083" lon="10.30513517">
        <ele>251.768</ele>
        <time>1970-01-01T01:00:00Z</time>
      </trkpt>
      <trkpt lat="63.42234317" lon="10.30515483">
        <ele>251.768</ele>
        <time>1970-01-01T01:00:00Z</time>
      </trkpt>
      <trkpt lat="63.42233617" lon="10.30517317">
        <ele>251.768</ele>
        <time>1970-01-01T01:00:00Z</time>
      </trkpt>
      <trkpt lat="63.422329" lon="10.30519133">
        <ele>251.615</ele>
        <time>1970-01-01T01:00:00Z</time>
      </trkpt>
      <trkpt lat="63.422322" lon="10.30521117">
        <ele>251.615</ele>
        <time>1970-01-01T01:00:00Z</time>
      </trkpt>
      <trkpt lat="63.42231433" lon="10.305239">
        <ele>251.615</ele>
        <time>1970-01-01T01:00:00Z</time>
      </trkpt>
      <trkpt lat="63.42230683" lon="10.305266">
        <ele>251.615</ele>
        <time>1970-01-01T01:00:00Z</time>
      </trkpt>
      <trkpt lat="63.42229783" lon="10.30529117">
        <ele>251.615</ele>
        <time>1970-01-01T01:00:00Z</time>
      </trkpt>
      <trkpt lat="63.422287" lon="10.30530717">
        <ele>251.615</ele>
        <time>1970-01-01T01:00:00Z</time>
      </trkpt>
      <trkpt lat="63.42227517" lon="10.30532467">
        <ele>251.615</ele>
        <time>1970-01-01T01:00:00Z</time>
      </trkpt>
      <trkpt lat="63.42226333" lon="10.30534517">
        <ele>251.615</ele>
        <time>1970-01-01T01:00:00Z</time>
      </trkpt>
      <trkpt lat="63.42225333" lon="10.30537033">
        <ele>251.615</ele>
        <time>1970-01-01T01:00:00Z</time>
      </trkpt>
      <trkpt lat="63.42224367" lon="10.30539633">
        <ele>251.615</ele>
        <time>1970-01-01T01:00:00Z</time>
      </trkpt>
      <trkpt lat="63.42223283" lon="10.30542617">
        <ele>251.463</ele>
        <time>1970-01-01T01:00:00Z</time>
      </trkpt>
      <trkpt lat="63.4222225" lon="10.30544983">
        <ele>251.463</ele>
        <time>1970-01-01T01:00:00Z</time>
      </trkpt>
      <trkpt lat="63.42221167" lon="10.30547467">
        <ele>251.463</ele>
        <time>1970-01-01T01:00:00Z</time>
      </trkpt>
      <trkpt lat="63.42220367" lon="10.3054885">
        <ele>251.463</ele>
        <time>1970-01-01T01:00:00Z</time>
      </trkpt>
      <trkpt lat="63.42219533" lon="10.30550583">
        <ele>251.311</ele>
        <time>1970-01-01T01:00:00Z</time>
      </trkpt>
      <trkpt lat="63.42218817" lon="10.30552167">
        <ele>251.311</ele>
        <time>1970-01-01T01:00:00Z</time>
      </trkpt>
      <trkpt lat="63.42218017" lon="10.305541">
        <ele>251.311</ele>
        <time>1970-01-01T01:00:00Z</time>
      </trkpt>
      <trkpt lat="63.42217217" lon="10.30555883">
        <ele>251.311</ele>
        <time>1970-01-01T01:00:00Z</time>
      </trkpt>
      <trkpt lat="63.42216367" lon="10.30557283">
        <ele>251.158</ele>
        <time>1970-01-01T01:00:00Z</time>
      </trkpt>
      <trkpt lat="63.42215417" lon="10.3055875">
        <ele>251.158</ele>
        <time>1970-01-01T01:00:00Z</time>
      </trkpt>
      <trkpt lat="63.4221425" lon="10.3056065">
        <ele>251.158</ele>
        <time>1970-01-01T01:00:00Z</time>
      </trkpt>
      <trkpt lat="63.42213017" lon="10.30562733">
        <ele>251.158</ele>
        <time>1970-01-01T01:00:00Z</time>
      </trkpt>
      <trkpt lat="63.4221175" lon="10.3056485">
        <ele>251.006</ele>
        <time>1970-01-01T01:00:00Z</time>
      </trkpt>
      <trkpt lat="63.42210533" lon="10.30566933">
        <ele>251.006</ele>
        <time>1970-01-01T01:00:00Z</time>
      </trkpt>
      <trkpt lat="63.422094" lon="10.30569033">
        <ele>250.853</ele>
        <time>1970-01-01T01:00:00Z</time>
      </trkpt>
      <trkpt lat="63.42208217" lon="10.30571233">
        <ele>250.853</ele>
        <time>1970-01-01T01:00:00Z</time>
      </trkpt>
      <trkpt lat="63.42207233" lon="10.30573283">
        <ele>250.853</ele>
        <time>1970-01-01T01:00:00Z</time>
      </trkpt>
      <trkpt lat="63.42206317" lon="10.305754">
        <ele>250.853</ele>
        <time>1970-01-01T01:00:00Z</time>
      </trkpt>
      <trkpt lat="63.42205583" lon="10.3057735">
        <ele>250.701</ele>
        <time>1970-01-01T01:00:00Z</time>
      </trkpt>
      <trkpt lat="63.42204767" lon="10.30579333">
        <ele>250.701</ele>
        <time>1970-01-01T01:00:00Z</time>
      </trkpt>
      <trkpt lat="63.42203917" lon="10.30581217">
        <ele>250.701</ele>
        <time>1970-01-01T01:00:00Z</time>
      </trkpt>
      <trkpt lat="63.42203017" lon="10.30583267">
        <ele>250.701</ele>
        <time>1970-01-01T01:00:00Z</time>
      </trkpt>
      <trkpt lat="63.42202167" lon="10.305852">
        <ele>250.549</ele>
        <time>1970-01-01T01:00:00Z</time>
      </trkpt>
      <trkpt lat="63.42201367" lon="10.30587233">
        <ele>250.549</ele>
        <time>1970-01-01T01:00:00Z</time>
      </trkpt>
      <trkpt lat="63.422006" lon="10.30589233">
        <ele>250.396</ele>
        <time>1970-01-01T01:00:00Z</time>
      </trkpt>
      <trkpt lat="63.42199817" lon="10.3059125">
        <ele>250.396</ele>
        <time>1970-01-01T01:00:00Z</time>
      </trkpt>
      <trkpt lat="63.42199" lon="10.30593017">
        <ele>250.396</ele>
        <time>1970-01-01T01:00:00Z</time>
      </trkpt>
      <trkpt lat="63.42198083" lon="10.305951">
        <ele>250.396</ele>
        <time>1970-01-01T01:00:00Z</time>
      </trkpt>
      <trkpt lat="63.421971" lon="10.30597367">
        <ele>250.244</ele>
        <time>1970-01-01T01:00:00Z</time>
      </trkpt>
      <trkpt lat="63.4219605" lon="10.305999">
        <ele>250.244</ele>
        <time>1970-01-01T01:00:00Z</time>
      </trkpt>
      <trkpt lat="63.42195033" lon="10.30601883">
        <ele>250.091</ele>
        <time>1970-01-01T01:00:00Z</time>
      </trkpt>
      <trkpt lat="63.42194" lon="10.30603567">
        <ele>250.091</ele>
        <time>1970-01-01T01:00:00Z</time>
      </trkpt>
      <trkpt lat="63.4219295" lon="10.306053">
        <ele>249.939</ele>
        <time>1970-01-01T01:00:00Z</time>
      </trkpt>
      <trkpt lat="63.42191683" lon="10.30607283">
        <ele>249.939</ele>
        <time>1970-01-01T01:00:00Z</time>
      </trkpt>
      <trkpt lat="63.42190467" lon="10.30609267">
        <ele>249.787</ele>
        <time>1970-01-01T01:00:00Z</time>
      </trkpt>
      <trkpt lat="63.42189283" lon="10.30610917">
        <ele>249.787</ele>
        <time>1970-01-01T01:00:00Z</time>
      </trkpt>
      <trkpt lat="63.421882" lon="10.30612433">
        <ele>249.787</ele>
        <time>1970-01-01T01:00:00Z</time>
      </trkpt>
      <trkpt lat="63.42187083" lon="10.30613983">
        <ele>249.787</ele>
        <time>1970-01-01T01:00:00Z</time>
      </trkpt>
      <trkpt lat="63.42185983" lon="10.30615567">
        <ele>249.634</ele>
        <time>1970-01-01T01:00:00Z</time>
      </trkpt>
      <trkpt lat="63.42184917" lon="10.30617267">
        <ele>249.634</ele>
        <time>1970-01-01T01:00:00Z</time>
      </trkpt>
      <trkpt lat="63.42183867" lon="10.30618983">
        <ele>249.482</ele>
        <time>1970-01-01T01:00:00Z</time>
      </trkpt>
      <trkpt lat="63.42182867" lon="10.30620833">
        <ele>249.482</ele>
        <time>1970-01-01T01:00:00Z</time>
      </trkpt>
      <trkpt lat="63.42181933" lon="10.30622683">
        <ele>249.329</ele>
        <time>1970-01-01T01:00:00Z</time>
      </trkpt>
      <trkpt lat="63.42181017" lon="10.30624433">
        <ele>249.329</ele>
        <time>1970-01-01T01:00:00Z</time>
      </trkpt>
      <trkpt lat="63.4218005" lon="10.30626333">
        <ele>249.177</ele>
        <time>1970-01-01T01:00:00Z</time>
      </trkpt>
      <trkpt lat="63.42179017" lon="10.30628233">
        <ele>249.177</ele>
        <time>1970-01-01T01:00:00Z</time>
      </trkpt>
      <trkpt lat="63.42177967" lon="10.30630083">
        <ele>249.025</ele>
        <time>1970-01-01T01:00:00Z</time>
      </trkpt>
      <trkpt lat="63.4217685" lon="10.3063195">
        <ele>249.025</ele>
        <time>1970-01-01T01:00:00Z</time>
      </trkpt>
      <trkpt lat="63.421757" lon="10.30633933">
        <ele>248.872</ele>
        <time>1970-01-01T01:00:00Z</time>
      </trkpt>
      <trkpt lat="63.421746" lon="10.30636183">
        <ele>248.872</ele>
        <time>1970-01-01T01:00:00Z</time>
      </trkpt>
      <trkpt lat="63.42173633" lon="10.30638067">
        <ele>248.72</ele>
        <time>1970-01-01T01:00:00Z</time>
      </trkpt>
      <trkpt lat="63.42172767" lon="10.306396">
        <ele>248.72</ele>
        <time>1970-01-01T01:00:00Z</time>
      </trkpt>
      <trkpt lat="63.42171717" lon="10.3064135">
        <ele>248.415</ele>
        <time>1970-01-01T01:00:00Z</time>
      </trkpt>
      <trkpt lat="63.42170617" lon="10.30643367">
        <ele>248.415</ele>
        <time>1970-01-01T01:00:00Z</time>
      </trkpt>
      <trkpt lat="63.421695" lon="10.30645467">
        <ele>248.263</ele>
        <time>1970-01-01T01:00:00Z</time>
      </trkpt>
      <trkpt lat="63.42168567" lon="10.3064735">
        <ele>248.263</ele>
        <time>1970-01-01T01:00:00Z</time>
      </trkpt>
      <trkpt lat="63.42167733" lon="10.306493">
        <ele>248.11</ele>
        <time>1970-01-01T01:00:00Z</time>
      </trkpt>
      <trkpt lat="63.42167" lon="10.306513">
        <ele>248.11</ele>
        <time>1970-01-01T01:00:00Z</time>
      </trkpt>
      <trkpt lat="63.42166117" lon="10.3065345">
        <ele>247.805</ele>
        <time>1970-01-01T01:00:00Z</time>
      </trkpt>
      <trkpt lat="63.42165117" lon="10.3065555">
        <ele>247.805</ele>
        <time>1970-01-01T01:00:00Z</time>
      </trkpt>
      <trkpt lat="63.4216395" lon="10.30657683">
        <ele>247.653</ele>
        <time>1970-01-01T01:00:00Z</time>
      </trkpt>
      <trkpt lat="63.42162783" lon="10.30659767">
        <ele>247.653</ele>
        <time>1970-01-01T01:00:00Z</time>
      </trkpt>
      <trkpt lat="63.4216165" lon="10.3066195">
        <ele>247.348</ele>
        <time>1970-01-01T01:00:00Z</time>
      </trkpt>
      <trkpt lat="63.42160467" lon="10.3066435">
        <ele>247.348</ele>
        <time>1970-01-01T01:00:00Z</time>
      </trkpt>
      <trkpt lat="63.421594" lon="10.30666617">
        <ele>247.196</ele>
        <time>1970-01-01T01:00:00Z</time>
      </trkpt>
      <trkpt lat="63.42158317" lon="10.30668733">
        <ele>247.196</ele>
        <time>1970-01-01T01:00:00Z</time>
      </trkpt>
      <trkpt lat="63.42157317" lon="10.3067045">
        <ele>246.891</ele>
        <time>1970-01-01T01:00:00Z</time>
      </trkpt>
      <trkpt lat="63.42156317" lon="10.30672033">
        <ele>246.891</ele>
        <time>1970-01-01T01:00:00Z</time>
      </trkpt>
      <trkpt lat="63.42155367" lon="10.30673767">
        <ele>246.739</ele>
        <time>1970-01-01T01:00:00Z</time>
      </trkpt>
      <trkpt lat="63.421544" lon="10.30675617">
        <ele>246.739</ele>
        <time>1970-01-01T01:00:00Z</time>
      </trkpt>
      <trkpt lat="63.421534" lon="10.30677667">
        <ele>246.434</ele>
        <time>1970-01-01T01:00:00Z</time>
      </trkpt>
      <trkpt lat="63.42152417" lon="10.30679567">
        <ele>246.434</ele>
        <time>1970-01-01T01:00:00Z</time>
      </trkpt>
      <trkpt lat="63.42151483" lon="10.30681467">
        <ele>246.129</ele>
        <time>1970-01-01T01:00:00Z</time>
      </trkpt>
      <trkpt lat="63.421506" lon="10.30683417">
        <ele>246.129</ele>
        <time>1970-01-01T01:00:00Z</time>
      </trkpt>
      <trkpt lat="63.42149717" lon="10.30685567">
        <ele>245.977</ele>
        <time>1970-01-01T01:00:00Z</time>
      </trkpt>
      <trkpt lat="63.4214885" lon="10.30687933">
        <ele>245.977</ele>
        <time>1970-01-01T01:00:00Z</time>
      </trkpt>
      <trkpt lat="63.42148083" lon="10.30690267">
        <ele>245.824</ele>
        <time>1970-01-01T01:00:00Z</time>
      </trkpt>
      <trkpt lat="63.42147433" lon="10.3069235">
        <ele>245.824</ele>
        <time>1970-01-01T01:00:00Z</time>
      </trkpt>
      <trkpt lat="63.42146617" lon="10.3069465">
        <ele>245.519</ele>
        <time>1970-01-01T01:00:00Z</time>
      </trkpt>
      <trkpt lat="63.42145767" lon="10.30696933">
        <ele>245.519</ele>
        <time>1970-01-01T01:00:00Z</time>
      </trkpt>
      <trkpt lat="63.42144867" lon="10.306994">
        <ele>245.367</ele>
        <time>1970-01-01T01:00:00Z</time>
      </trkpt>
      <trkpt lat="63.42144067" lon="10.3070165">
        <ele>245.367</ele>
        <time>1970-01-01T01:00:00Z</time>
      </trkpt>
      <trkpt lat="63.42143333" lon="10.30704033">
        <ele>245.215</ele>
        <time>1970-01-01T01:00:00Z</time>
      </trkpt>
      <trkpt lat="63.421426" lon="10.30706533">
        <ele>245.215</ele>
        <time>1970-01-01T01:00:00Z</time>
      </trkpt>
      <trkpt lat="63.4214185" lon="10.30709117">
        <ele>245.062</ele>
        <time>1970-01-01T01:00:00Z</time>
      </trkpt>
      <trkpt lat="63.42141017" lon="10.30711417">
        <ele>245.062</ele>
        <time>1970-01-01T01:00:00Z</time>
      </trkpt>
      <trkpt lat="63.42140217" lon="10.30713667">
        <ele>244.91</ele>
        <time>1970-01-01T01:00:00Z</time>
      </trkpt>
      <trkpt lat="63.421395" lon="10.3071585">
        <ele>244.91</ele>
        <time>1970-01-01T01:00:00Z</time>
      </trkpt>
      <trkpt lat="63.42138933" lon="10.307181">
        <ele>244.757</ele>
        <time>1970-01-01T01:00:00Z</time>
      </trkpt>
      <trkpt lat="63.42138433" lon="10.3072035">
        <ele>244.757</ele>
        <time>1970-01-01T01:00:00Z</time>
      </trkpt>
      <trkpt lat="63.42137983" lon="10.30722483">
        <ele>244.605</ele>
        <time>1970-01-01T01:00:00Z</time>
      </trkpt>
      <trkpt lat="63.42137533" lon="10.307244">
        <ele>244.605</ele>
        <time>1970-01-01T01:00:00Z</time>
      </trkpt>
      <trkpt lat="63.42137183" lon="10.30725783">
        <ele>244.453</ele>
        <time>1970-01-01T01:00:00Z</time>
      </trkpt>
      <trkpt lat="63.42136883" lon="10.30726783">
        <ele>244.453</ele>
        <time>1970-01-01T01:00:00Z</time>
      </trkpt>
      <trkpt lat="63.4213665" lon="10.30727233">
        <ele>244.3</ele>
        <time>1970-01-01T01:00:00Z</time>
      </trkpt>
      <trkpt lat="63.42136367" lon="10.30727467">
        <ele>244.3</ele>
        <time>1970-01-01T01:00:00Z</time>
      </trkpt>
      <trkpt lat="63.421362" lon="10.30727383">
        <ele>244.148</ele>
        <time>1970-01-01T01:00:00Z</time>
      </trkpt>
      <trkpt lat="63.42136" lon="10.30727583">
        <ele>244.148</ele>
        <time>1970-01-01T01:00:00Z</time>
      </trkpt>
      <trkpt lat="63.42135783" lon="10.3072785">
        <ele>243.995</ele>
        <time>1970-01-01T01:00:00Z</time>
      </trkpt>
      <trkpt lat="63.42135467" lon="10.30728433">
        <ele>243.995</ele>
        <time>1970-01-01T01:00:00Z</time>
      </trkpt>
      <trkpt lat="63.4213505" lon="10.3072955">
        <ele>243.843</ele>
        <time>1970-01-01T01:00:00Z</time>
      </trkpt>
      <trkpt lat="63.42134583" lon="10.307313">
        <ele>243.843</ele>
        <time>1970-01-01T01:00:00Z</time>
      </trkpt>
      <trkpt lat="63.42134033" lon="10.30733367">
        <ele>243.691</ele>
        <time>1970-01-01T01:00:00Z</time>
      </trkpt>
      <trkpt lat="63.421335" lon="10.30735483">
        <ele>243.691</ele>
        <time>1970-01-01T01:00:00Z</time>
      </trkpt>
      <trkpt lat="63.42132983" lon="10.30737433">
        <ele>243.538</ele>
        <time>1970-01-01T01:00:00Z</time>
      </trkpt>
      <trkpt lat="63.421325" lon="10.30739367">
        <ele>243.538</ele>
        <time>1970-01-01T01:00:00Z</time>
      </trkpt>
      <trkpt lat="63.421319" lon="10.30741467">
        <ele>243.386</ele>
        <time>1970-01-01T01:00:00Z</time>
      </trkpt>
      <trkpt lat="63.42131283" lon="10.307437">
        <ele>243.386</ele>
        <time>1970-01-01T01:00:00Z</time>
      </trkpt>
      <trkpt lat="63.421306" lon="10.30746033">
        <ele>243.233</ele>
        <time>1970-01-01T01:00:00Z</time>
      </trkpt>
      <trkpt lat="63.421299" lon="10.30748217">
        <ele>243.233</ele>
        <time>1970-01-01T01:00:00Z</time>
      </trkpt>
      <trkpt lat="63.42129167" lon="10.30750367">
        <ele>243.081</ele>
        <time>1970-01-01T01:00:00Z</time>
      </trkpt>
      <trkpt lat="63.421285" lon="10.3075255">
        <ele>243.081</ele>
        <time>1970-01-01T01:00:00Z</time>
      </trkpt>
      <trkpt lat="63.421279" lon="10.30754733">
        <ele>242.929</ele>
        <time>1970-01-01T01:00:00Z</time>
      </trkpt>
      <trkpt lat="63.42127317" lon="10.30757267">
        <ele>242.929</ele>
        <time>1970-01-01T01:00:00Z</time>
      </trkpt>
      <trkpt lat="63.42126667" lon="10.30760083">
        <ele>242.624</ele>
        <time>1970-01-01T01:00:00Z</time>
      </trkpt>
      <trkpt lat="63.42125983" lon="10.30763117">
        <ele>242.624</ele>
        <time>1970-01-01T01:00:00Z</time>
      </trkpt>
      <trkpt lat="63.42125367" lon="10.307658">
        <ele>242.471</ele>
        <time>1970-01-01T01:00:00Z</time>
      </trkpt>
      <trkpt lat="63.4212475" lon="10.307684">
        <ele>242.471</ele>
        <time>1970-01-01T01:00:00Z</time>
      </trkpt>
      <trkpt lat="63.4212395" lon="10.30771217">
        <ele>242.319</ele>
        <time>1970-01-01T01:00:00Z</time>
      </trkpt>
      <trkpt lat="63.42123083" lon="10.307742">
        <ele>242.319</ele>
        <time>1970-01-01T01:00:00Z</time>
      </trkpt>
      <trkpt lat="63.421222" lon="10.30777083">
        <ele>242.014</ele>
        <time>1970-01-01T01:00:00Z</time>
      </trkpt>
      <trkpt lat="63.42121517" lon="10.30779533">
        <ele>242.014</ele>
        <time>1970-01-01T01:00:00Z</time>
      </trkpt>
      <trkpt lat="63.42120767" lon="10.307821">
        <ele>241.709</ele>
        <time>1970-01-01T01:00:00Z</time>
      </trkpt>
      <trkpt lat="63.42119933" lon="10.30784717">
        <ele>241.709</ele>
        <time>1970-01-01T01:00:00Z</time>
      </trkpt>
      <trkpt lat="63.42119133" lon="10.30787267">
        <ele>241.557</ele>
        <time>1970-01-01T01:00:00Z</time>
      </trkpt>
      <trkpt lat="63.42118467" lon="10.30789167">
        <ele>241.557</ele>
        <time>1970-01-01T01:00:00Z</time>
      </trkpt>
      <trkpt lat="63.421179" lon="10.30790867">
        <ele>241.405</ele>
        <time>1970-01-01T01:00:00Z</time>
      </trkpt>
      <trkpt lat="63.42117267" lon="10.30792633">
        <ele>241.405</ele>
        <time>1970-01-01T01:00:00Z</time>
      </trkpt>
      <trkpt lat="63.4211655" lon="10.307949">
        <ele>241.1</ele>
        <time>1970-01-01T01:00:00Z</time>
      </trkpt>
      <trkpt lat="63.42115833" lon="10.307972">
        <ele>241.1</ele>
        <time>1970-01-01T01:00:00Z</time>
      </trkpt>
      <trkpt lat="63.4211515" lon="10.30799633">
        <ele>240.947</ele>
        <time>1970-01-01T01:00:00Z</time>
      </trkpt>
      <trkpt lat="63.42114583" lon="10.3080205">
        <ele>240.947</ele>
        <time>1970-01-01T01:00:00Z</time>
      </trkpt>
      <trkpt lat="63.42114067" lon="10.30804517">
        <ele>240.795</ele>
        <time>1970-01-01T01:00:00Z</time>
      </trkpt>
      <trkpt lat="63.42113533" lon="10.30807167">
        <ele>240.795</ele>
        <time>1970-01-01T01:00:00Z</time>
      </trkpt>
      <trkpt lat="63.42113033" lon="10.308098">
        <ele>240.49</ele>
        <time>1970-01-01T01:00:00Z</time>
      </trkpt>
      <trkpt lat="63.42112583" lon="10.3081245">
        <ele>240.49</ele>
        <time>1970-01-01T01:00:00Z</time>
      </trkpt>
      <trkpt lat="63.421122" lon="10.30814883">
        <ele>240.338</ele>
        <time>1970-01-01T01:00:00Z</time>
      </trkpt>
      <trkpt lat="63.42111717" lon="10.3081715">
        <ele>240.338</ele>
        <time>1970-01-01T01:00:00Z</time>
      </trkpt>
      <trkpt lat="63.421112" lon="10.3081935">
        <ele>240.185</ele>
        <time>1970-01-01T01:00:00Z</time>
      </trkpt>
      <trkpt lat="63.42110667" lon="10.308216">
        <ele>240.185</ele>
        <time>1970-01-01T01:00:00Z</time>
      </trkpt>
      <trkpt lat="63.42110083" lon="10.308239">
        <ele>240.033</ele>
        <time>1970-01-01T01:00:00Z</time>
      </trkpt>
      <trkpt lat="63.4210945" lon="10.308263">
        <ele>240.033</ele>
        <time>1970-01-01T01:00:00Z</time>
      </trkpt>
      <trkpt lat="63.42108733" lon="10.30828533">
        <ele>239.728</ele>
        <time>1970-01-01T01:00:00Z</time>
      </trkpt>
      <trkpt lat="63.42107967" lon="10.308307">
        <ele>239.728</ele>
        <time>1970-01-01T01:00:00Z</time>
      </trkpt>
      <trkpt lat="63.42107033" lon="10.30832667">
        <ele>239.576</ele>
        <time>1970-01-01T01:00:00Z</time>
      </trkpt>
      <trkpt lat="63.42106067" lon="10.30834667">
        <ele>239.576</ele>
        <time>1970-01-01T01:00:00Z</time>
      </trkpt>
      <trkpt lat="63.4210505" lon="10.30836917">
        <ele>239.423</ele>
        <time>1970-01-01T01:00:00Z</time>
      </trkpt>
      <trkpt lat="63.4210415" lon="10.308392">
        <ele>239.423</ele>
        <time>1970-01-01T01:00:00Z</time>
      </trkpt>
      <trkpt lat="63.42103283" lon="10.30841483">
        <ele>239.271</ele>
        <time>1970-01-01T01:00:00Z</time>
      </trkpt>
      <trkpt lat="63.421024" lon="10.3084345">
        <ele>239.271</ele>
        <time>1970-01-01T01:00:00Z</time>
      </trkpt>
      <trkpt lat="63.42101467" lon="10.308454">
        <ele>238.966</ele>
        <time>1970-01-01T01:00:00Z</time>
      </trkpt>
      <trkpt lat="63.42100617" lon="10.3084695">
        <ele>238.966</ele>
        <time>1970-01-01T01:00:00Z</time>
      </trkpt>
      <trkpt lat="63.42099783" lon="10.30848583">
        <ele>238.814</ele>
        <time>1970-01-01T01:00:00Z</time>
      </trkpt>
      <trkpt lat="63.42098967" lon="10.3085035">
        <ele>238.814</ele>
        <time>1970-01-01T01:00:00Z</time>
      </trkpt>
      <trkpt lat="63.42098083" lon="10.30852417">
        <ele>238.509</ele>
        <time>1970-01-01T01:00:00Z</time>
      </trkpt>
      <trkpt lat="63.4209725" lon="10.308545">
        <ele>238.509</ele>
        <time>1970-01-01T01:00:00Z</time>
      </trkpt>
      <trkpt lat="63.42096417" lon="10.3085635">
        <ele>238.356</ele>
        <time>1970-01-01T01:00:00Z</time>
      </trkpt>
      <trkpt lat="63.4209565" lon="10.30858317">
        <ele>238.356</ele>
        <time>1970-01-01T01:00:00Z</time>
      </trkpt>
      <trkpt lat="63.42094933" lon="10.30860333">
        <ele>238.052</ele>
        <time>1970-01-01T01:00:00Z</time>
      </trkpt>
      <trkpt lat="63.4209425" lon="10.3086255">
        <ele>238.052</ele>
        <time>1970-01-01T01:00:00Z</time>
      </trkpt>
      <trkpt lat="63.4209355" lon="10.3086475">
        <ele>237.747</ele>
        <time>1970-01-01T01:00:00Z</time>
      </trkpt>
      <trkpt lat="63.4209285" lon="10.308671">
        <ele>237.747</ele>
        <time>1970-01-01T01:00:00Z</time>
      </trkpt>
      <trkpt lat="63.420921" lon="10.30869333">
        <ele>237.594</ele>
        <time>1970-01-01T01:00:00Z</time>
      </trkpt>
      <trkpt lat="63.42091317" lon="10.30871633">
        <ele>237.594</ele>
        <time>1970-01-01T01:00:00Z</time>
      </trkpt>
      <trkpt lat="63.42090483" lon="10.30873867">
        <ele>237.29</ele>
        <time>1970-01-01T01:00:00Z</time>
      </trkpt>
      <trkpt lat="63.42089667" lon="10.3087615">
        <ele>237.29</ele>
        <time>1970-01-01T01:00:00Z</time>
      </trkpt>
      <trkpt lat="63.42088817" lon="10.30878217">
        <ele>236.985</ele>
        <time>1970-01-01T01:00:00Z</time>
      </trkpt>
      <trkpt lat="63.4208795" lon="10.30880167">
        <ele>236.985</ele>
        <time>1970-01-01T01:00:00Z</time>
      </trkpt>
      <trkpt lat="63.42087033" lon="10.30882067">
        <ele>236.68</ele>
        <time>1970-01-01T01:00:00Z</time>
      </trkpt>
      <trkpt lat="63.42086083" lon="10.3088375">
        <ele>236.68</ele>
        <time>1970-01-01T01:00:00Z</time>
      </trkpt>
      <trkpt lat="63.42085133" lon="10.30885367">
        <ele>236.528</ele>
        <time>1970-01-01T01:00:00Z</time>
      </trkpt>
      <trkpt lat="63.420842" lon="10.308869">
        <ele>236.528</ele>
        <time>1970-01-01T01:00:00Z</time>
      </trkpt>
      <trkpt lat="63.420833" lon="10.30888383">
        <ele>236.223</ele>
        <time>1970-01-01T01:00:00Z</time>
      </trkpt>
      <trkpt lat="63.420825" lon="10.30889983">
        <ele>236.223</ele>
        <time>1970-01-01T01:00:00Z</time>
      </trkpt>
      <trkpt lat="63.420818" lon="10.308917">
        <ele>235.918</ele>
        <time>1970-01-01T01:00:00Z</time>
      </trkpt>
      <trkpt lat="63.42081167" lon="10.30893767">
        <ele>235.918</ele>
        <time>1970-01-01T01:00:00Z</time>
      </trkpt>
      <trkpt lat="63.4208055" lon="10.30895617">
        <ele>235.613</ele>
        <time>1970-01-01T01:00:00Z</time>
      </trkpt>
      <trkpt lat="63.42079867" lon="10.30897433">
        <ele>235.613</ele>
        <time>1970-01-01T01:00:00Z</time>
      </trkpt>
      <trkpt lat="63.42079167" lon="10.30899033">
        <ele>235.308</ele>
        <time>1970-01-01T01:00:00Z</time>
      </trkpt>
      <trkpt lat="63.4207835" lon="10.30900667">
        <ele>235.308</ele>
        <time>1970-01-01T01:00:00Z</time>
      </trkpt>
      <trkpt lat="63.42077533" lon="10.309021">
        <ele>235.004</ele>
        <time>1970-01-01T01:00:00Z</time>
      </trkpt>
      <trkpt lat="63.42076683" lon="10.30903483">
        <ele>235.004</ele>
        <time>1970-01-01T01:00:00Z</time>
      </trkpt>
      <trkpt lat="63.420758" lon="10.30904717">
        <ele>234.699</ele>
        <time>1970-01-01T01:00:00Z</time>
      </trkpt>
      <trkpt lat="63.4207485" lon="10.3090585">
        <ele>234.699</ele>
        <time>1970-01-01T01:00:00Z</time>
      </trkpt>
      <trkpt lat="63.42073767" lon="10.30906767">
        <ele>234.394</ele>
        <time>1970-01-01T01:00:00Z</time>
      </trkpt>
      <trkpt lat="63.42072717" lon="10.3090765">
        <ele>234.394</ele>
        <time>1970-01-01T01:00:00Z</time>
      </trkpt>
      <trkpt lat="63.420716" lon="10.3090855">
        <ele>234.089</ele>
        <time>1970-01-01T01:00:00Z</time>
      </trkpt>
      <trkpt lat="63.42070467" lon="10.3090925">
        <ele>234.089</ele>
        <time>1970-01-01T01:00:00Z</time>
      </trkpt>
      <trkpt lat="63.420693" lon="10.30909883">
        <ele>233.784</ele>
        <time>1970-01-01T01:00:00Z</time>
      </trkpt>
      <trkpt lat="63.42068133" lon="10.3091045">
        <ele>233.784</ele>
        <time>1970-01-01T01:00:00Z</time>
      </trkpt>
      <trkpt lat="63.42066867" lon="10.30911217">
        <ele>233.48</ele>
        <time>1970-01-01T01:00:00Z</time>
      </trkpt>
      <trkpt lat="63.420655" lon="10.309119">
        <ele>233.48</ele>
        <time>1970-01-01T01:00:00Z</time>
      </trkpt>
      <trkpt lat="63.42064083" lon="10.30912483">
        <ele>233.022</ele>
        <time>1970-01-01T01:00:00Z</time>
      </trkpt>
      <trkpt lat="63.42062767" lon="10.30912867">
        <ele>233.022</ele>
        <time>1970-01-01T01:00:00Z</time>
      </trkpt>
      <trkpt lat="63.42061483" lon="10.30913167">
        <ele>232.718</ele>
        <time>1970-01-01T01:00:00Z</time>
      </trkpt>
      <trkpt lat="63.42060183" lon="10.30913767">
        <ele>232.718</ele>
        <time>1970-01-01T01:00:00Z</time>
      </trkpt>
      <trkpt lat="63.42058817" lon="10.30914617">
        <ele>232.413</ele>
        <time>1970-01-01T01:00:00Z</time>
      </trkpt>
      <trkpt lat="63.42057533" lon="10.30915667">
        <ele>232.413</ele>
        <time>1970-01-01T01:00:00Z</time>
      </trkpt>
      <trkpt lat="63.420561" lon="10.30916967">
        <ele>232.108</ele>
        <time>1970-01-01T01:00:00Z</time>
      </trkpt>
      <trkpt lat="63.42054667" lon="10.309181">
        <ele>232.108</ele>
        <time>1970-01-01T01:00:00Z</time>
      </trkpt>
      <trkpt lat="63.42053133" lon="10.30919367">
        <ele>231.651</ele>
        <time>1970-01-01T01:00:00Z</time>
      </trkpt>
      <trkpt lat="63.420518" lon="10.309201">
        <ele>231.651</ele>
        <time>1970-01-01T01:00:00Z</time>
      </trkpt>
      <trkpt lat="63.42050317" lon="10.3092085">
        <ele>231.346</ele>
        <time>1970-01-01T01:00:00Z</time>
      </trkpt>
      <trkpt lat="63.42048833" lon="10.30921317">
        <ele>231.346</ele>
        <time>1970-01-01T01:00:00Z</time>
      </trkpt>
      <trkpt lat="63.4204745" lon="10.30921867">
        <ele>231.041</ele>
        <time>1970-01-01T01:00:00Z</time>
      </trkpt>
      <trkpt lat="63.42046267" lon="10.309225">
        <ele>231.041</ele>
        <time>1970-01-01T01:00:00Z</time>
      </trkpt>
      <trkpt lat="63.42045167" lon="10.30923183">
        <ele>230.584</ele>
        <time>1970-01-01T01:00:00Z</time>
      </trkpt>
      <trkpt lat="63.420439" lon="10.30923967">
        <ele>230.584</ele>
        <time>1970-01-01T01:00:00Z</time>
      </trkpt>
      <trkpt lat="63.4204265" lon="10.309248">
        <ele>230.279</ele>
        <time>1970-01-01T01:00:00Z</time>
      </trkpt>
      <trkpt lat="63.420413" lon="10.309258">
        <ele>230.279</ele>
        <time>1970-01-01T01:00:00Z</time>
      </trkpt>
      <trkpt lat="63.42040117" lon="10.30927">
        <ele>229.822</ele>
        <time>1970-01-01T01:00:00Z</time>
      </trkpt>
      <trkpt lat="63.42038967" lon="10.30928733">
        <ele>229.822</ele>
        <time>1970-01-01T01:00:00Z</time>
      </trkpt>
      <trkpt lat="63.42038" lon="10.3093045">
        <ele>229.517</ele>
        <time>1970-01-01T01:00:00Z</time>
      </trkpt>
      <trkpt lat="63.42037233" lon="10.30932617">
        <ele>229.517</ele>
        <time>1970-01-01T01:00:00Z</time>
      </trkpt>
      <trkpt lat="63.42036617" lon="10.309348">
        <ele>229.06</ele>
        <time>1970-01-01T01:00:00Z</time>
      </trkpt>
      <trkpt lat="63.42036183" lon="10.30937233">
        <ele>229.06</ele>
        <time>1970-01-01T01:00:00Z</time>
      </trkpt>
      <trkpt lat="63.42035817" lon="10.30939983">
        <ele>228.755</ele>
        <time>1970-01-01T01:00:00Z</time>
      </trkpt>
      <trkpt lat="63.42035633" lon="10.30942467">
        <ele>228.755</ele>
        <time>1970-01-01T01:00:00Z</time>
      </trkpt>
      <trkpt lat="63.42035517" lon="10.30945767">
        <ele>228.298</ele>
        <time>1970-01-01T01:00:00Z</time>
      </trkpt>
      <trkpt lat="63.42035517" lon="10.30948833">
        <ele>228.298</ele>
        <time>1970-01-01T01:00:00Z</time>
      </trkpt>
      <trkpt lat="63.4203555" lon="10.30952417">
        <ele>227.993</ele>
        <time>1970-01-01T01:00:00Z</time>
      </trkpt>
      <trkpt lat="63.420358" lon="10.309558">
        <ele>227.993</ele>
        <time>1970-01-01T01:00:00Z</time>
      </trkpt>
      <trkpt lat="63.42036017" lon="10.30959117">
        <ele>227.688</ele>
        <time>1970-01-01T01:00:00Z</time>
      </trkpt>
      <trkpt lat="63.42036333" lon="10.30962233">
        <ele>227.688</ele>
        <time>1970-01-01T01:00:00Z</time>
      </trkpt>
      <trkpt lat="63.42036417" lon="10.30965183">
        <ele>227.384</ele>
        <time>1970-01-01T01:00:00Z</time>
      </trkpt>
      <trkpt lat="63.42036417" lon="10.30967817">
        <ele>227.384</ele>
        <time>1970-01-01T01:00:00Z</time>
      </trkpt>
      <trkpt lat="63.42036467" lon="10.309706">
        <ele>227.079</ele>
        <time>1970-01-01T01:00:00Z</time>
      </trkpt>
      <trkpt lat="63.42036667" lon="10.30973333">
        <ele>227.079</ele>
        <time>1970-01-01T01:00:00Z</time>
      </trkpt>
      <trkpt lat="63.42037" lon="10.30976233">
        <ele>226.926</ele>
        <time>1970-01-01T01:00:00Z</time>
      </trkpt>
      <trkpt lat="63.42037167" lon="10.30979083">
        <ele>226.926</ele>
        <time>1970-01-01T01:00:00Z</time>
      </trkpt>
      <trkpt lat="63.42037133" lon="10.30982017">
        <ele>226.622</ele>
        <time>1970-01-01T01:00:00Z</time>
      </trkpt>
      <trkpt lat="63.42036983" lon="10.30985083">
        <ele>226.622</ele>
        <time>1970-01-01T01:00:00Z</time>
      </trkpt>
      <trkpt lat="63.42036917" lon="10.30988067">
        <ele>226.317</ele>
        <time>1970-01-01T01:00:00Z</time>
      </trkpt>
      <trkpt lat="63.4203685" lon="10.30990883">
        <ele>226.317</ele>
        <time>1970-01-01T01:00:00Z</time>
      </trkpt>
      <trkpt lat="63.42036783" lon="10.3099365">
        <ele>226.012</ele>
        <time>1970-01-01T01:00:00Z</time>
      </trkpt>
      <trkpt lat="63.42036783" lon="10.3099645">
        <ele>226.012</ele>
        <time>1970-01-01T01:00:00Z</time>
      </trkpt>
      <trkpt lat="63.420369" lon="10.30999467">
        <ele>225.86</ele>
        <time>1970-01-01T01:00:00Z</time>
      </trkpt>
      <trkpt lat="63.42037033" lon="10.31002617">
        <ele>225.86</ele>
        <time>1970-01-01T01:00:00Z</time>
      </trkpt>
      <trkpt lat="63.4203705" lon="10.31005783">
        <ele>225.555</ele>
        <time>1970-01-01T01:00:00Z</time>
      </trkpt>
      <trkpt lat="63.4203695" lon="10.31009">
        <ele>225.555</ele>
        <time>1970-01-01T01:00:00Z</time>
      </trkpt>
      <trkpt lat="63.4203685" lon="10.31012233">
        <ele>225.402</ele>
        <time>1970-01-01T01:00:00Z</time>
      </trkpt>
      <trkpt lat="63.42036817" lon="10.3101535">
        <ele>225.402</ele>
        <time>1970-01-01T01:00:00Z</time>
      </trkpt>
      <trkpt lat="63.42036817" lon="10.31018333">
        <ele>225.098</ele>
        <time>1970-01-01T01:00:00Z</time>
      </trkpt>
      <trkpt lat="63.42036783" lon="10.31021233">
        <ele>225.098</ele>
        <time>1970-01-01T01:00:00Z</time>
      </trkpt>
      <trkpt lat="63.4203685" lon="10.31024217">
        <ele>224.793</ele>
        <time>1970-01-01T01:00:00Z</time>
      </trkpt>
      <trkpt lat="63.42036883" lon="10.31027383">
        <ele>224.793</ele>
        <time>1970-01-01T01:00:00Z</time>
      </trkpt>
      <trkpt lat="63.42036917" lon="10.31030583">
        <ele>224.64</ele>
        <time>1970-01-01T01:00:00Z</time>
      </trkpt>
      <trkpt lat="63.42036833" lon="10.3103375">
        <ele>224.64</ele>
        <time>1970-01-01T01:00:00Z</time>
      </trkpt>
      <trkpt lat="63.42036783" lon="10.31036617">
        <ele>224.336</ele>
        <time>1970-01-01T01:00:00Z</time>
      </trkpt>
      <trkpt lat="63.4203675" lon="10.310394">
        <ele>224.336</ele>
        <time>1970-01-01T01:00:00Z</time>
      </trkpt>
      <trkpt lat="63.4203675" lon="10.3104225">
        <ele>224.031</ele>
        <time>1970-01-01T01:00:00Z</time>
      </trkpt>
      <trkpt lat="63.4203675" lon="10.31045167">
        <ele>224.031</ele>
        <time>1970-01-01T01:00:00Z</time>
      </trkpt>
      <trkpt lat="63.42036667" lon="10.31048083">
        <ele>223.878</ele>
        <time>1970-01-01T01:00:00Z</time>
      </trkpt>
      <trkpt lat="63.42036767" lon="10.31050983">
        <ele>223.878</ele>
        <time>1970-01-01T01:00:00Z</time>
      </trkpt>
      <trkpt lat="63.42036983" lon="10.31054033">
        <ele>223.574</ele>
        <time>1970-01-01T01:00:00Z</time>
      </trkpt>
      <trkpt lat="63.42037317" lon="10.31057217">
        <ele>223.574</ele>
        <time>1970-01-01T01:00:00Z</time>
      </trkpt>
      <trkpt lat="63.42037417" lon="10.31060683">
        <ele>223.421</ele>
        <time>1970-01-01T01:00:00Z</time>
      </trkpt>
      <trkpt lat="63.420375" lon="10.31063917">
        <ele>223.421</ele>
        <time>1970-01-01T01:00:00Z</time>
      </trkpt>
      <trkpt lat="63.4203765" lon="10.310671">
        <ele>223.116</ele>
        <time>1970-01-01T01:00:00Z</time>
      </trkpt>
      <trkpt lat="63.4203785" lon="10.31070033">
        <ele>223.116</ele>
        <time>1970-01-01T01:00:00Z</time>
      </trkpt>
      <trkpt lat="63.42037917" lon="10.310732">
        <ele>222.964</ele>
        <time>1970-01-01T01:00:00Z</time>
      </trkpt>
      <trkpt lat="63.42037967" lon="10.310764">
        <ele>222.964</ele>
        <time>1970-01-01T01:00:00Z</time>
      </trkpt>
      <trkpt lat="63.42038033" lon="10.31079467">
        <ele>222.812</ele>
        <time>1970-01-01T01:00:00Z</time>
      </trkpt>
      <trkpt lat="63.42038183" lon="10.31082383">
        <ele>222.812</ele>
        <time>1970-01-01T01:00:00Z</time>
      </trkpt>
      <trkpt lat="63.420383" lon="10.31085083">
        <ele>222.507</ele>
        <time>1970-01-01T01:00:00Z</time>
      </trkpt>
      <trkpt lat="63.420384" lon="10.31087967">
        <ele>222.507</ele>
        <time>1970-01-01T01:00:00Z</time>
      </trkpt>
      <trkpt lat="63.42038617" lon="10.310908">
        <ele>222.354</ele>
        <time>1970-01-01T01:00:00Z</time>
      </trkpt>
      <trkpt lat="63.42038917" lon="10.31093883">
        <ele>222.354</ele>
        <time>1970-01-01T01:00:00Z</time>
      </trkpt>
      <trkpt lat="63.42039117" lon="10.31096517">
        <ele>222.202</ele>
        <time>1970-01-01T01:00:00Z</time>
      </trkpt>
      <trkpt lat="63.42039267" lon="10.310994">
        <ele>222.202</ele>
        <time>1970-01-01T01:00:00Z</time>
      </trkpt>
      <trkpt lat="63.42039533" lon="10.31101983">
        <ele>222.049</ele>
        <time>1970-01-01T01:00:00Z</time>
      </trkpt>
      <trkpt lat="63.42039933" lon="10.31104883">
        <ele>222.049</ele>
        <time>1970-01-01T01:00:00Z</time>
      </trkpt>
      <trkpt lat="63.4204035" lon="10.3110785">
        <ele>221.745</ele>
        <time>1970-01-01T01:00:00Z</time>
      </trkpt>
      <trkpt lat="63.42040567" lon="10.311111">
        <ele>221.745</ele>
        <time>1970-01-01T01:00:00Z</time>
      </trkpt>
      <trkpt lat="63.4204075" lon="10.31114383">
        <ele>221.592</ele>
        <time>1970-01-01T01:00:00Z</time>
      </trkpt>
      <trkpt lat="63.420408" lon="10.311173">
        <ele>221.592</ele>
        <time>1970-01-01T01:00:00Z</time>
      </trkpt>
      <trkpt lat="63.42040933" lon="10.31119933">
        <ele>221.44</ele>
        <time>1970-01-01T01:00:00Z</time>
      </trkpt>
      <trkpt lat="63.42041" lon="10.31122567">
        <ele>221.44</ele>
        <time>1970-01-01T01:00:00Z</time>
      </trkpt>
      <trkpt lat="63.42041033" lon="10.31125617">
        <ele>221.287</ele>
        <time>1970-01-01T01:00:00Z</time>
      </trkpt>
      <trkpt lat="63.4204095" lon="10.31128883">
        <ele>221.287</ele>
        <time>1970-01-01T01:00:00Z</time>
      </trkpt>
      <trkpt lat="63.4204105" lon="10.31132117">
        <ele>221.135</ele>
        <time>1970-01-01T01:00:00Z</time>
      </trkpt>
      <trkpt lat="63.42041217" lon="10.311351">
        <ele>221.135</ele>
        <time>1970-01-01T01:00:00Z</time>
      </trkpt>
      <trkpt lat="63.420414" lon="10.31137967">
        <ele>220.983</ele>
        <time>1970-01-01T01:00:00Z</time>
      </trkpt>
      <trkpt lat="63.42041633" lon="10.31140683">
        <ele>220.983</ele>
        <time>1970-01-01T01:00:00Z</time>
      </trkpt>
      <trkpt lat="63.420419" lon="10.311431">
        <ele>220.983</ele>
        <time>1970-01-01T01:00:00Z</time>
      </trkpt>
      <trkpt lat="63.42042333" lon="10.31145483">
        <ele>220.983</ele>
        <time>1970-01-01T01:00:00Z</time>
      </trkpt>
      <trkpt lat="63.42042717" lon="10.3114795">
        <ele>220.83</ele>
        <time>1970-01-01T01:00:00Z</time>
      </trkpt>
      <trkpt lat="63.4204325" lon="10.3115145">
        <ele>220.83</ele>
        <time>1970-01-01T01:00:00Z</time>
      </trkpt>
      <trkpt lat="63.42043683" lon="10.311551">
        <ele>220.83</ele>
        <time>1970-01-01T01:00:00Z</time>
      </trkpt>
      <trkpt lat="63.42044133" lon="10.31159">
        <ele>220.83</ele>
        <time>1970-01-01T01:00:00Z</time>
      </trkpt>
      <trkpt lat="63.420444" lon="10.31162183">
        <ele>220.83</ele>
        <time>1970-01-01T01:00:00Z</time>
      </trkpt>
      <trkpt lat="63.4204465" lon="10.31165233">
        <ele>220.83</ele>
        <time>1970-01-01T01:00:00Z</time>
      </trkpt>
      <trkpt lat="63.42044733" lon="10.311681">
        <ele>220.83</ele>
        <time>1970-01-01T01:00:00Z</time>
      </trkpt>
      <trkpt lat="63.4204495" lon="10.311711">
        <ele>220.83</ele>
        <time>1970-01-01T01:00:00Z</time>
      </trkpt>
      <trkpt lat="63.420449" lon="10.31174233">
        <ele>220.983</ele>
        <time>1970-01-01T01:00:00Z</time>
      </trkpt>
      <trkpt lat="63.42044733" lon="10.31177533">
        <ele>220.983</ele>
        <time>1970-01-01T01:00:00Z</time>
      </trkpt>
      <trkpt lat="63.42044367" lon="10.31180767">
        <ele>220.983</ele>
        <time>1970-01-01T01:00:00Z</time>
      </trkpt>
      <trkpt lat="63.4204435" lon="10.31183817">
        <ele>220.983</ele>
        <time>1970-01-01T01:00:00Z</time>
      </trkpt>
      <trkpt lat="63.42044533" lon="10.31186783">
        <ele>220.983</ele>
        <time>1970-01-01T01:00:00Z</time>
      </trkpt>
      <trkpt lat="63.42044733" lon="10.31189733">
        <ele>220.983</ele>
        <time>1970-01-01T01:00:00Z</time>
      </trkpt>
      <trkpt lat="63.4204485" lon="10.3119275">
        <ele>220.983</ele>
        <time>1970-01-01T01:00:00Z</time>
      </trkpt>
      <trkpt lat="63.42045117" lon="10.31195767">
        <ele>220.983</ele>
        <time>1970-01-01T01:00:00Z</time>
      </trkpt>
      <trkpt lat="63.42045433" lon="10.311987">
        <ele>220.983</ele>
        <time>1970-01-01T01:00:00Z</time>
      </trkpt>
      <trkpt lat="63.42046" lon="10.3120145">
        <ele>220.983</ele>
        <time>1970-01-01T01:00:00Z</time>
      </trkpt>
      <trkpt lat="63.420463" lon="10.31203983">
        <ele>220.983</ele>
        <time>1970-01-01T01:00:00Z</time>
      </trkpt>
      <trkpt lat="63.420466" lon="10.31206417">
        <ele>220.983</ele>
        <time>1970-01-01T01:00:00Z</time>
      </trkpt>
      <trkpt lat="63.42046367" lon="10.31209217">
        <ele>220.983</ele>
        <time>1970-01-01T01:00:00Z</time>
      </trkpt>
      <trkpt lat="63.4204625" lon="10.31212167">
        <ele>220.983</ele>
        <time>1970-01-01T01:00:00Z</time>
      </trkpt>
      <trkpt lat="63.420462" lon="10.3121535">
        <ele>220.83</ele>
        <time>1970-01-01T01:00:00Z</time>
      </trkpt>
      <trkpt lat="63.42046367" lon="10.31218433">
        <ele>220.83</ele>
        <time>1970-01-01T01:00:00Z</time>
      </trkpt>
      <trkpt lat="63.42046467" lon="10.31221467">
        <ele>220.83</ele>
        <time>1970-01-01T01:00:00Z</time>
      </trkpt>
      <trkpt lat="63.42046683" lon="10.31224383">
        <ele>220.83</ele>
        <time>1970-01-01T01:00:00Z</time>
      </trkpt>
      <trkpt lat="63.42046867" lon="10.31227183">
        <ele>220.678</ele>
        <time>1970-01-01T01:00:00Z</time>
      </trkpt>
      <trkpt lat="63.4204715" lon="10.31229883">
        <ele>220.678</ele>
        <time>1970-01-01T01:00:00Z</time>
      </trkpt>
      <trkpt lat="63.42047133" lon="10.3123235">
        <ele>220.678</ele>
        <time>1970-01-01T01:00:00Z</time>
      </trkpt>
      <trkpt lat="63.42047383" lon="10.31235083">
        <ele>220.678</ele>
        <time>1970-01-01T01:00:00Z</time>
      </trkpt>
      <trkpt lat="63.420478" lon="10.31237833">
        <ele>220.678</ele>
        <time>1970-01-01T01:00:00Z</time>
      </trkpt>
      <trkpt lat="63.42048483" lon="10.3124105">
        <ele>220.678</ele>
        <time>1970-01-01T01:00:00Z</time>
      </trkpt>
      <trkpt lat="63.42049217" lon="10.312442">
        <ele>220.678</ele>
        <time>1970-01-01T01:00:00Z</time>
      </trkpt>
      <trkpt lat="63.42049733" lon="10.31247483">
        <ele>220.678</ele>
        <time>1970-01-01T01:00:00Z</time>
      </trkpt>
      <trkpt lat="63.420502" lon="10.3125045">
        <ele>220.678</ele>
        <time>1970-01-01T01:00:00Z</time>
      </trkpt>
      <trkpt lat="63.42050533" lon="10.31253217">
        <ele>220.678</ele>
        <time>1970-01-01T01:00:00Z</time>
      </trkpt>
      <trkpt lat="63.420507" lon="10.31255967">
        <ele>220.678</ele>
        <time>1970-01-01T01:00:00Z</time>
      </trkpt>
      <trkpt lat="63.42050683" lon="10.31258767">
        <ele>220.678</ele>
        <time>1970-01-01T01:00:00Z</time>
      </trkpt>
      <trkpt lat="63.42050683" lon="10.3126175">
        <ele>220.678</ele>
        <time>1970-01-01T01:00:00Z</time>
      </trkpt>
      <trkpt lat="63.42050967" lon="10.31264783">
        <ele>220.678</ele>
        <time>1970-01-01T01:00:00Z</time>
      </trkpt>
      <trkpt lat="63.420511" lon="10.31267933">
        <ele>220.678</ele>
        <time>1970-01-01T01:00:00Z</time>
      </trkpt>
      <trkpt lat="63.42050833" lon="10.312712">
        <ele>220.678</ele>
        <time>1970-01-01T01:00:00Z</time>
      </trkpt>
      <trkpt lat="63.420504" lon="10.3127445">
        <ele>220.678</ele>
        <time>1970-01-01T01:00:00Z</time>
      </trkpt>
      <trkpt lat="63.4205015" lon="10.31277583">
        <ele>220.678</ele>
        <time>1970-01-01T01:00:00Z</time>
      </trkpt>
      <trkpt lat="63.42050233" lon="10.31280567">
        <ele>220.678</ele>
        <time>1970-01-01T01:00:00Z</time>
      </trkpt>
      <trkpt lat="63.42050333" lon="10.31283483">
        <ele>220.678</ele>
        <time>1970-01-01T01:00:00Z</time>
      </trkpt>
      <trkpt lat="63.42050467" lon="10.31286533">
        <ele>220.678</ele>
        <time>1970-01-01T01:00:00Z</time>
      </trkpt>
      <trkpt lat="63.42050333" lon="10.31289233">
        <ele>220.678</ele>
        <time>1970-01-01T01:00:00Z</time>
      </trkpt>
      <trkpt lat="63.420503" lon="10.31291767">
        <ele>220.678</ele>
        <time>1970-01-01T01:00:00Z</time>
      </trkpt>
      <trkpt lat="63.4205005" lon="10.31294167">
        <ele>220.678</ele>
        <time>1970-01-01T01:00:00Z</time>
      </trkpt>
      <trkpt lat="63.42049983" lon="10.31296917">
        <ele>220.525</ele>
        <time>1970-01-01T01:00:00Z</time>
      </trkpt>
      <trkpt lat="63.42049867" lon="10.31299633">
        <ele>220.525</ele>
        <time>1970-01-01T01:00:00Z</time>
      </trkpt>
      <trkpt lat="63.42049833" lon="10.31302417">
        <ele>220.525</ele>
        <time>1970-01-01T01:00:00Z</time>
      </trkpt>
      <trkpt lat="63.420498" lon="10.31305133">
        <ele>220.525</ele>
        <time>1970-01-01T01:00:00Z</time>
      </trkpt>
      <trkpt lat="63.42049883" lon="10.31307917">
        <ele>220.373</ele>
        <time>1970-01-01T01:00:00Z</time>
      </trkpt>
      <trkpt lat="63.42050067" lon="10.313108">
        <ele>220.373</ele>
        <time>1970-01-01T01:00:00Z</time>
      </trkpt>
      <trkpt lat="63.42050117" lon="10.31314017">
        <ele>220.373</ele>
        <time>1970-01-01T01:00:00Z</time>
      </trkpt>
      <trkpt lat="63.42050033" lon="10.31317617">
        <ele>220.373</ele>
        <time>1970-01-01T01:00:00Z</time>
      </trkpt>
      <trkpt lat="63.4205" lon="10.31320933">
        <ele>220.221</ele>
        <time>1970-01-01T01:00:00Z</time>
      </trkpt>
      <trkpt lat="63.42049983" lon="10.31324">
        <ele>220.221</ele>
        <time>1970-01-01T01:00:00Z</time>
      </trkpt>
      <trkpt lat="63.42049867" lon="10.31326883">
        <ele>220.221</ele>
        <time>1970-01-01T01:00:00Z</time>
      </trkpt>
      <trkpt lat="63.42049683" lon="10.31329833">
        <ele>220.221</ele>
        <time>1970-01-01T01:00:00Z</time>
      </trkpt>
      <trkpt lat="63.42049583" lon="10.31332633">
        <ele>220.221</ele>
        <time>1970-01-01T01:00:00Z</time>
      </trkpt>
      <trkpt lat="63.42049583" lon="10.313356">
        <ele>220.221</ele>
        <time>1970-01-01T01:00:00Z</time>
      </trkpt>
      <trkpt lat="63.420495" lon="10.31338783">
        <ele>220.221</ele>
        <time>1970-01-01T01:00:00Z</time>
      </trkpt>
      <trkpt lat="63.42049067" lon="10.3134205">
        <ele>220.221</ele>
        <time>1970-01-01T01:00:00Z</time>
      </trkpt>
      <trkpt lat="63.42048267" lon="10.31345133">
        <ele>220.221</ele>
        <time>1970-01-01T01:00:00Z</time>
      </trkpt>
      <trkpt lat="63.42047283" lon="10.31348167">
        <ele>220.221</ele>
        <time>1970-01-01T01:00:00Z</time>
      </trkpt>
      <trkpt lat="63.42046333" lon="10.313511">
        <ele>220.221</ele>
        <time>1970-01-01T01:00:00Z</time>
      </trkpt>
      <trkpt lat="63.420455" lon="10.3135405">
        <ele>220.221</ele>
        <time>1970-01-01T01:00:00Z</time>
      </trkpt>
      <trkpt lat="63.42044717" lon="10.3135695">
        <ele>220.221</ele>
        <time>1970-01-01T01:00:00Z</time>
      </trkpt>
      <trkpt lat="63.42044067" lon="10.31359733">
        <ele>220.221</ele>
        <time>1970-01-01T01:00:00Z</time>
      </trkpt>
      <trkpt lat="63.420435" lon="10.31362533">
        <ele>220.068</ele>
        <time>1970-01-01T01:00:00Z</time>
      </trkpt>
      <trkpt lat="63.42043033" lon="10.31365167">
        <ele>220.068</ele>
        <time>1970-01-01T01:00:00Z</time>
      </trkpt>
      <trkpt lat="63.42042517" lon="10.313679">
        <ele>220.068</ele>
        <time>1970-01-01T01:00:00Z</time>
      </trkpt>
      <trkpt lat="63.42041883" lon="10.31370517">
        <ele>220.068</ele>
        <time>1970-01-01T01:00:00Z</time>
      </trkpt>
      <trkpt lat="63.42041183" lon="10.31373067">
        <ele>219.916</ele>
        <time>1970-01-01T01:00:00Z</time>
      </trkpt>
      <trkpt lat="63.42040467" lon="10.31375567">
        <ele>219.916</ele>
        <time>1970-01-01T01:00:00Z</time>
      </trkpt>
      <trkpt lat="63.42039817" lon="10.3137815">
        <ele>219.916</ele>
        <time>1970-01-01T01:00:00Z</time>
      </trkpt>
      <trkpt lat="63.42039217" lon="10.31380633">
        <ele>219.916</ele>
        <time>1970-01-01T01:00:00Z</time>
      </trkpt>
      <trkpt lat="63.42038583" lon="10.31383133">
        <ele>219.916</ele>
        <time>1970-01-01T01:00:00Z</time>
      </trkpt>
      <trkpt lat="63.4203795" lon="10.3138545">
        <ele>219.916</ele>
        <time>1970-01-01T01:00:00Z</time>
      </trkpt>
      <trkpt lat="63.42037267" lon="10.31387933">
        <ele>219.763</ele>
        <time>1970-01-01T01:00:00Z</time>
      </trkpt>
      <trkpt lat="63.42036633" lon="10.31390433">
        <ele>219.763</ele>
        <time>1970-01-01T01:00:00Z</time>
      </trkpt>
      <trkpt lat="63.420359" lon="10.31392917">
        <ele>219.763</ele>
        <time>1970-01-01T01:00:00Z</time>
      </trkpt>
      <trkpt lat="63.42035183" lon="10.313955">
        <ele>219.763</ele>
        <time>1970-01-01T01:00:00Z</time>
      </trkpt>
      <trkpt lat="63.42034433" lon="10.31397983">
        <ele>219.611</ele>
        <time>1970-01-01T01:00:00Z</time>
      </trkpt>
      <trkpt lat="63.4203385" lon="10.31400433">
        <ele>219.611</ele>
        <time>1970-01-01T01:00:00Z</time>
      </trkpt>
      <trkpt lat="63.42033333" lon="10.31402817">
        <ele>219.611</ele>
        <time>1970-01-01T01:00:00Z</time>
      </trkpt>
      <trkpt lat="63.42032933" lon="10.31405333">
        <ele>219.611</ele>
        <time>1970-01-01T01:00:00Z</time>
      </trkpt>
      <trkpt lat="63.42032567" lon="10.31408">
        <ele>219.459</ele>
        <time>1970-01-01T01:00:00Z</time>
      </trkpt>
      <trkpt lat="63.4203215" lon="10.314106">
        <ele>219.459</ele>
        <time>1970-01-01T01:00:00Z</time>
      </trkpt>
      <trkpt lat="63.42031717" lon="10.31413117">
        <ele>219.306</ele>
        <time>1970-01-01T01:00:00Z</time>
      </trkpt>
      <trkpt lat="63.42031367" lon="10.31415517">
        <ele>219.306</ele>
        <time>1970-01-01T01:00:00Z</time>
      </trkpt>
      <trkpt lat="63.42031067" lon="10.31418017">
        <ele>219.154</ele>
        <time>1970-01-01T01:00:00Z</time>
      </trkpt>
      <trkpt lat="63.420309" lon="10.31420683">
        <ele>219.154</ele>
        <time>1970-01-01T01:00:00Z</time>
      </trkpt>
      <trkpt lat="63.420307" lon="10.3142345">
        <ele>219.154</ele>
        <time>1970-01-01T01:00:00Z</time>
      </trkpt>
      <trkpt lat="63.420305" lon="10.31426117">
        <ele>219.154</ele>
        <time>1970-01-01T01:00:00Z</time>
      </trkpt>
      <trkpt lat="63.4203025" lon="10.31428683">
        <ele>219.001</ele>
        <time>1970-01-01T01:00:00Z</time>
      </trkpt>
      <trkpt lat="63.4203005" lon="10.3143135">
        <ele>219.001</ele>
        <time>1970-01-01T01:00:00Z</time>
      </trkpt>
      <trkpt lat="63.4202995" lon="10.31434233">
        <ele>218.849</ele>
        <time>1970-01-01T01:00:00Z</time>
      </trkpt>
      <trkpt lat="63.420299" lon="10.31437217">
        <ele>218.849</ele>
        <time>1970-01-01T01:00:00Z</time>
      </trkpt>
      <trkpt lat="63.4202985" lon="10.31440183">
        <ele>218.697</ele>
        <time>1970-01-01T01:00:00Z</time>
      </trkpt>
      <trkpt lat="63.4203" lon="10.31443267">
        <ele>218.697</ele>
        <time>1970-01-01T01:00:00Z</time>
      </trkpt>
      <trkpt lat="63.42030333" lon="10.31446567">
        <ele>218.544</ele>
        <time>1970-01-01T01:00:00Z</time>
      </trkpt>
      <trkpt lat="63.42030717" lon="10.31450217">
        <ele>218.544</ele>
        <time>1970-01-01T01:00:00Z</time>
      </trkpt>
      <trkpt lat="63.42031017" lon="10.314539">
        <ele>218.392</ele>
        <time>1970-01-01T01:00:00Z</time>
      </trkpt>
      <trkpt lat="63.420312" lon="10.31457233">
        <ele>218.392</ele>
        <time>1970-01-01T01:00:00Z</time>
      </trkpt>
      <trkpt lat="63.42031417" lon="10.3146055">
        <ele>218.239</ele>
        <time>1970-01-01T01:00:00Z</time>
      </trkpt>
      <trkpt lat="63.42031417" lon="10.31463767">
        <ele>218.239</ele>
        <time>1970-01-01T01:00:00Z</time>
      </trkpt>
      <trkpt lat="63.42031233" lon="10.31467133">
        <ele>218.087</ele>
        <time>1970-01-01T01:00:00Z</time>
      </trkpt>
      <trkpt lat="63.42031217" lon="10.31469817">
        <ele>218.087</ele>
        <time>1970-01-01T01:00:00Z</time>
      </trkpt>
      <trkpt lat="63.42031033" lon="10.31472517">
        <ele>217.935</ele>
        <time>1970-01-01T01:00:00Z</time>
      </trkpt>
      <trkpt lat="63.42030883" lon="10.31475133">
        <ele>217.935</ele>
        <time>1970-01-01T01:00:00Z</time>
      </trkpt>
      <trkpt lat="63.42030383" lon="10.3147775">
        <ele>217.935</ele>
        <time>1970-01-01T01:00:00Z</time>
      </trkpt>
      <trkpt lat="63.42030033" lon="10.314802">
        <ele>217.935</ele>
        <time>1970-01-01T01:00:00Z</time>
      </trkpt>
      <trkpt lat="63.42029733" lon="10.31482517">
        <ele>217.782</ele>
        <time>1970-01-01T01:00:00Z</time>
      </trkpt>
      <trkpt lat="63.42029467" lon="10.314855">
        <ele>217.782</ele>
        <time>1970-01-01T01:00:00Z</time>
      </trkpt>
      <trkpt lat="63.42029167" lon="10.31488967">
        <ele>217.63</ele>
        <time>1970-01-01T01:00:00Z</time>
      </trkpt>
      <trkpt lat="63.42028617" lon="10.31493">
        <ele>217.63</ele>
        <time>1970-01-01T01:00:00Z</time>
      </trkpt>
      <trkpt lat="63.4202805" lon="10.31497317">
        <ele>217.477</ele>
        <time>1970-01-01T01:00:00Z</time>
      </trkpt>
      <trkpt lat="63.420276" lon="10.31501567">
        <ele>217.477</ele>
        <time>1970-01-01T01:00:00Z</time>
      </trkpt>
      <trkpt lat="63.42027283" lon="10.31505467">
        <ele>217.477</ele>
        <time>1970-01-01T01:00:00Z</time>
      </trkpt>
      <trkpt lat="63.42027033" lon="10.31508933">
        <ele>217.477</ele>
        <time>1970-01-01T01:00:00Z</time>
      </trkpt>
      <trkpt lat="63.42026717" lon="10.31512333">
        <ele>217.325</ele>
        <time>1970-01-01T01:00:00Z</time>
      </trkpt>
      <trkpt lat="63.42026583" lon="10.31515533">
        <ele>217.325</ele>
        <time>1970-01-01T01:00:00Z</time>
      </trkpt>
      <trkpt lat="63.42026417" lon="10.31518533">
        <ele>217.02</ele>
        <time>1970-01-01T01:00:00Z</time>
      </trkpt>
      <trkpt lat="63.420262" lon="10.315213">
        <ele>217.02</ele>
        <time>1970-01-01T01:00:00Z</time>
      </trkpt>
      <trkpt lat="63.42025883" lon="10.315242">
        <ele>216.868</ele>
        <time>1970-01-01T01:00:00Z</time>
      </trkpt>
      <trkpt lat="63.420256" lon="10.31527117">
        <ele>216.868</ele>
        <time>1970-01-01T01:00:00Z</time>
      </trkpt>
      <trkpt lat="63.42025333" lon="10.31529833">
        <ele>216.715</ele>
        <time>1970-01-01T01:00:00Z</time>
      </trkpt>
      <trkpt lat="63.420251" lon="10.31532567">
        <ele>216.715</ele>
        <time>1970-01-01T01:00:00Z</time>
      </trkpt>
      <trkpt lat="63.42024767" lon="10.31535217">
        <ele>216.563</ele>
        <time>1970-01-01T01:00:00Z</time>
      </trkpt>
      <trkpt lat="63.4202435" lon="10.31537967">
        <ele>216.563</ele>
        <time>1970-01-01T01:00:00Z</time>
      </trkpt>
      <trkpt lat="63.42023917" lon="10.31540767">
        <ele>216.258</ele>
        <time>1970-01-01T01:00:00Z</time>
      </trkpt>
      <trkpt lat="63.420234" lon="10.31543617">
        <ele>216.258</ele>
        <time>1970-01-01T01:00:00Z</time>
      </trkpt>
      <trkpt lat="63.42023" lon="10.3154705">
        <ele>216.106</ele>
        <time>1970-01-01T01:00:00Z</time>
      </trkpt>
      <trkpt lat="63.42022667" lon="10.3155045">
        <ele>216.106</ele>
        <time>1970-01-01T01:00:00Z</time>
      </trkpt>
      <trkpt lat="63.42022367" lon="10.31553833">
        <ele>215.953</ele>
        <time>1970-01-01T01:00:00Z</time>
      </trkpt>
      <trkpt lat="63.42022033" lon="10.31556567">
        <ele>215.953</ele>
        <time>1970-01-01T01:00:00Z</time>
      </trkpt>
      <trkpt lat="63.4202175" lon="10.31558883">
        <ele>215.649</ele>
        <time>1970-01-01T01:00:00Z</time>
      </trkpt>
      <trkpt lat="63.42021533" lon="10.31561217">
        <ele>215.649</ele>
        <time>1970-01-01T01:00:00Z</time>
      </trkpt>
      <trkpt lat="63.4202125" lon="10.31563917">
        <ele>215.496</ele>
        <time>1970-01-01T01:00:00Z</time>
      </trkpt>
      <trkpt lat="63.42020867" lon="10.315668">
        <ele>215.496</ele>
        <time>1970-01-01T01:00:00Z</time>
      </trkpt>
      <trkpt lat="63.420204" lon="10.3156965">
        <ele>215.344</ele>
        <time>1970-01-01T01:00:00Z</time>
      </trkpt>
      <trkpt lat="63.420199" lon="10.31572033">
        <ele>215.344</ele>
        <time>1970-01-01T01:00:00Z</time>
      </trkpt>
      <trkpt lat="63.42019317" lon="10.3157445">
        <ele>215.191</ele>
        <time>1970-01-01T01:00:00Z</time>
      </trkpt>
      <trkpt lat="63.42018833" lon="10.31576817">
        <ele>215.191</ele>
        <time>1970-01-01T01:00:00Z</time>
      </trkpt>
      <trkpt lat="63.42018383" lon="10.315793">
        <ele>215.039</ele>
        <time>1970-01-01T01:00:00Z</time>
      </trkpt>
      <trkpt lat="63.4201795" lon="10.31582317">
        <ele>215.039</ele>
        <time>1970-01-01T01:00:00Z</time>
      </trkpt>
      <trkpt lat="63.420175" lon="10.3158535">
        <ele>214.887</ele>
        <time>1970-01-01T01:00:00Z</time>
      </trkpt>
      <trkpt lat="63.42017117" lon="10.3158855">
        <ele>214.887</ele>
        <time>1970-01-01T01:00:00Z</time>
      </trkpt>
      <trkpt lat="63.420167" lon="10.31591367">
        <ele>214.734</ele>
        <time>1970-01-01T01:00:00Z</time>
      </trkpt>
      <trkpt lat="63.42016267" lon="10.31594133">
        <ele>214.734</ele>
        <time>1970-01-01T01:00:00Z</time>
      </trkpt>
      <trkpt lat="63.42015833" lon="10.3159695">
        <ele>214.582</ele>
        <time>1970-01-01T01:00:00Z</time>
      </trkpt>
      <trkpt lat="63.420154" lon="10.31599633">
        <ele>214.582</ele>
        <time>1970-01-01T01:00:00Z</time>
      </trkpt>
      <trkpt lat="63.42014917" lon="10.316025">
        <ele>214.277</ele>
        <time>1970-01-01T01:00:00Z</time>
      </trkpt>
      <trkpt lat="63.420144" lon="10.31605317">
        <ele>214.277</ele>
        <time>1970-01-01T01:00:00Z</time>
      </trkpt>
      <trkpt lat="63.42013917" lon="10.31608383">
        <ele>214.125</ele>
        <time>1970-01-01T01:00:00Z</time>
      </trkpt>
      <trkpt lat="63.420135" lon="10.31611367">
        <ele>214.125</ele>
        <time>1970-01-01T01:00:00Z</time>
      </trkpt>
      <trkpt lat="63.42013133" lon="10.3161435">
        <ele>213.972</ele>
        <time>1970-01-01T01:00:00Z</time>
      </trkpt>
      <trkpt lat="63.42012783" lon="10.31617317">
        <ele>213.972</ele>
        <time>1970-01-01T01:00:00Z</time>
      </trkpt>
      <trkpt lat="63.42012517" lon="10.31620517">
        <ele>213.82</ele>
        <time>1970-01-01T01:00:00Z</time>
      </trkpt>
      <trkpt lat="63.42012267" lon="10.3162415">
        <ele>213.82</ele>
        <time>1970-01-01T01:00:00Z</time>
      </trkpt>
      <trkpt lat="63.42012033" lon="10.3162775">
        <ele>213.667</ele>
        <time>1970-01-01T01:00:00Z</time>
      </trkpt>
      <trkpt lat="63.4201175" lon="10.316314">
        <ele>213.667</ele>
        <time>1970-01-01T01:00:00Z</time>
      </trkpt>
      <trkpt lat="63.420116" lon="10.31634633">
        <ele>213.515</ele>
        <time>1970-01-01T01:00:00Z</time>
      </trkpt>
      <trkpt lat="63.420116" lon="10.3163765">
        <ele>213.515</ele>
        <time>1970-01-01T01:00:00Z</time>
      </trkpt>
      <trkpt lat="63.42011633" lon="10.31640217">
        <ele>213.363</ele>
        <time>1970-01-01T01:00:00Z</time>
      </trkpt>
      <trkpt lat="63.42011767" lon="10.31643017">
        <ele>213.363</ele>
        <time>1970-01-01T01:00:00Z</time>
      </trkpt>
      <trkpt lat="63.42011917" lon="10.31645683">
        <ele>213.21</ele>
        <time>1970-01-01T01:00:00Z</time>
      </trkpt>
      <trkpt lat="63.42012133" lon="10.3164885">
        <ele>213.21</ele>
        <time>1970-01-01T01:00:00Z</time>
      </trkpt>
      <trkpt lat="63.42012233" lon="10.316517">
        <ele>213.058</ele>
        <time>1970-01-01T01:00:00Z</time>
      </trkpt>
      <trkpt lat="63.4201235" lon="10.31655017">
        <ele>213.058</ele>
        <time>1970-01-01T01:00:00Z</time>
      </trkpt>
      <trkpt lat="63.42012517" lon="10.31658083">
        <ele>212.905</ele>
        <time>1970-01-01T01:00:00Z</time>
      </trkpt>
      <trkpt lat="63.42012817" lon="10.31661133">
        <ele>212.905</ele>
        <time>1970-01-01T01:00:00Z</time>
      </trkpt>
      <trkpt lat="63.42013117" lon="10.31664133">
        <ele>212.753</ele>
        <time>1970-01-01T01:00:00Z</time>
      </trkpt>
      <trkpt lat="63.42013433" lon="10.31667017">
        <ele>212.753</ele>
        <time>1970-01-01T01:00:00Z</time>
      </trkpt>
      <trkpt lat="63.42013683" lon="10.31669833">
        <ele>212.601</ele>
        <time>1970-01-01T01:00:00Z</time>
      </trkpt>
      <trkpt lat="63.42014017" lon="10.31672383">
        <ele>212.601</ele>
        <time>1970-01-01T01:00:00Z</time>
      </trkpt>
      <trkpt lat="63.4201455" lon="10.31675117">
        <ele>212.448</ele>
        <time>1970-01-01T01:00:00Z</time>
      </trkpt>
      <trkpt lat="63.4201525" lon="10.3167795">
        <ele>212.448</ele>
        <time>1970-01-01T01:00:00Z</time>
      </trkpt>
      <trkpt lat="63.42015983" lon="10.31681217">
        <ele>212.296</ele>
        <time>1970-01-01T01:00:00Z</time>
      </trkpt>
      <trkpt lat="63.42016583" lon="10.31684383">
        <ele>212.296</ele>
        <time>1970-01-01T01:00:00Z</time>
      </trkpt>
      <trkpt lat="63.420172" lon="10.31687483">
        <ele>212.143</ele>
        <time>1970-01-01T01:00:00Z</time>
      </trkpt>
      <trkpt lat="63.42017783" lon="10.316901">
        <ele>212.143</ele>
        <time>1970-01-01T01:00:00Z</time>
      </trkpt>
      <trkpt lat="63.4201835" lon="10.31692783">
        <ele>211.991</ele>
        <time>1970-01-01T01:00:00Z</time>
      </trkpt>
      <trkpt lat="63.42018783" lon="10.31695383">
        <ele>211.991</ele>
        <time>1970-01-01T01:00:00Z</time>
      </trkpt>
      <trkpt lat="63.42019233" lon="10.3169785">
        <ele>211.839</ele>
        <time>1970-01-01T01:00:00Z</time>
      </trkpt>
      <trkpt lat="63.42019517" lon="10.31700383">
        <ele>211.839</ele>
        <time>1970-01-01T01:00:00Z</time>
      </trkpt>
      <trkpt lat="63.4201975" lon="10.31702917">
        <ele>211.686</ele>
        <time>1970-01-01T01:00:00Z</time>
      </trkpt>
      <trkpt lat="63.42019717" lon="10.31705683">
        <ele>211.686</ele>
        <time>1970-01-01T01:00:00Z</time>
      </trkpt>
      <trkpt lat="63.4201975" lon="10.31708367">
        <ele>211.534</ele>
        <time>1970-01-01T01:00:00Z</time>
      </trkpt>
      <trkpt lat="63.42019583" lon="10.31710833">
        <ele>211.534</ele>
        <time>1970-01-01T01:00:00Z</time>
      </trkpt>
      <trkpt lat="63.42019217" lon="10.3171365">
        <ele>211.381</ele>
        <time>1970-01-01T01:00:00Z</time>
      </trkpt>
      <trkpt lat="63.42018383" lon="10.31716567">
        <ele>211.381</ele>
        <time>1970-01-01T01:00:00Z</time>
      </trkpt>
      <trkpt lat="63.420174" lon="10.31719717">
        <ele>211.229</ele>
        <time>1970-01-01T01:00:00Z</time>
      </trkpt>
      <trkpt lat="63.4201645" lon="10.3172275">
        <ele>211.229</ele>
        <time>1970-01-01T01:00:00Z</time>
      </trkpt>
      <trkpt lat="63.42015583" lon="10.317256">
        <ele>211.077</ele>
        <time>1970-01-01T01:00:00Z</time>
      </trkpt>
      <trkpt lat="63.420146" lon="10.317285">
        <ele>211.077</ele>
        <time>1970-01-01T01:00:00Z</time>
      </trkpt>
      <trkpt lat="63.42013567" lon="10.31731183">
        <ele>210.924</ele>
        <time>1970-01-01T01:00:00Z</time>
      </trkpt>
      <trkpt lat="63.42012533" lon="10.31733733">
        <ele>210.924</ele>
        <time>1970-01-01T01:00:00Z</time>
      </trkpt>
      <trkpt lat="63.42011617" lon="10.3173635">
        <ele>210.619</ele>
        <time>1970-01-01T01:00:00Z</time>
      </trkpt>
      <trkpt lat="63.42010783" lon="10.3173895">
        <ele>210.619</ele>
        <time>1970-01-01T01:00:00Z</time>
      </trkpt>
      <trkpt lat="63.42010017" lon="10.31741533">
        <ele>210.467</ele>
        <time>1970-01-01T01:00:00Z</time>
      </trkpt>
      <trkpt lat="63.42009133" lon="10.31744117">
        <ele>210.467</ele>
        <time>1970-01-01T01:00:00Z</time>
      </trkpt>
      <trkpt lat="63.420081" lon="10.31746883">
        <ele>210.315</ele>
        <time>1970-01-01T01:00:00Z</time>
      </trkpt>
      <trkpt lat="63.42006983" lon="10.317498">
        <ele>210.315</ele>
        <time>1970-01-01T01:00:00Z</time>
      </trkpt>
      <trkpt lat="63.4200595" lon="10.317526">
        <ele>210.162</ele>
        <time>1970-01-01T01:00:00Z</time>
      </trkpt>
      <trkpt lat="63.42005117" lon="10.3175525">
        <ele>210.162</ele>
        <time>1970-01-01T01:00:00Z</time>
      </trkpt>
      <trkpt lat="63.420044" lon="10.31757833">
        <ele>210.01</ele>
        <time>1970-01-01T01:00:00Z</time>
      </trkpt>
      <trkpt lat="63.4200375" lon="10.31760217">
        <ele>210.01</ele>
        <time>1970-01-01T01:00:00Z</time>
      </trkpt>
      <trkpt lat="63.42003033" lon="10.31762467">
        <ele>209.857</ele>
        <time>1970-01-01T01:00:00Z</time>
      </trkpt>
      <trkpt lat="63.42002367" lon="10.3176455">
        <ele>209.857</ele>
        <time>1970-01-01T01:00:00Z</time>
      </trkpt>
      <trkpt lat="63.42001883" lon="10.3176655">
        <ele>209.705</ele>
        <time>1970-01-01T01:00:00Z</time>
      </trkpt>
      <trkpt lat="63.4200155" lon="10.31768483">
        <ele>209.705</ele>
        <time>1970-01-01T01:00:00Z</time>
      </trkpt>
      <trkpt lat="63.42001283" lon="10.31770433">
        <ele>209.553</ele>
        <time>1970-01-01T01:00:00Z</time>
      </trkpt>
      <trkpt lat="63.42001" lon="10.31772517">
        <ele>209.553</ele>
        <time>1970-01-01T01:00:00Z</time>
      </trkpt>
      <trkpt lat="63.42000583" lon="10.31774717">
        <ele>209.248</ele>
        <time>1970-01-01T01:00:00Z</time>
      </trkpt>
      <trkpt lat="63.42000167" lon="10.31776967">
        <ele>209.248</ele>
        <time>1970-01-01T01:00:00Z</time>
      </trkpt>
      <trkpt lat="63.41999683" lon="10.317791">
        <ele>209.095</ele>
        <time>1970-01-01T01:00:00Z</time>
      </trkpt>
      <trkpt lat="63.41999267" lon="10.31780783">
        <ele>209.095</ele>
        <time>1970-01-01T01:00:00Z</time>
      </trkpt>
      <trkpt lat="63.41998833" lon="10.31782433">
        <ele>208.791</ele>
        <time>1970-01-01T01:00:00Z</time>
      </trkpt>
      <trkpt lat="63.41998483" lon="10.31784367">
        <ele>208.791</ele>
        <time>1970-01-01T01:00:00Z</time>
      </trkpt>
      <trkpt lat="63.419982" lon="10.31786867">
        <ele>208.638</ele>
        <time>1970-01-01T01:00:00Z</time>
      </trkpt>
      <trkpt lat="63.41997883" lon="10.31789383">
        <ele>208.638</ele>
        <time>1970-01-01T01:00:00Z</time>
      </trkpt>
      <trkpt lat="63.4199745" lon="10.3179185">
        <ele>208.333</ele>
        <time>1970-01-01T01:00:00Z</time>
      </trkpt>
      <trkpt lat="63.419971" lon="10.31794417">
        <ele>208.333</ele>
        <time>1970-01-01T01:00:00Z</time>
      </trkpt>
      <trkpt lat="63.41996883" lon="10.317971">
        <ele>208.181</ele>
        <time>1970-01-01T01:00:00Z</time>
      </trkpt>
      <trkpt lat="63.41996867" lon="10.31799817">
        <ele>208.181</ele>
        <time>1970-01-01T01:00:00Z</time>
      </trkpt>
      <trkpt lat="63.41996967" lon="10.3180235">
        <ele>208.029</ele>
        <time>1970-01-01T01:00:00Z</time>
      </trkpt>
      <trkpt lat="63.41997267" lon="10.31805">
        <ele>208.029</ele>
        <time>1970-01-01T01:00:00Z</time>
      </trkpt>
      <trkpt lat="63.41997667" lon="10.31807417">
        <ele>207.724</ele>
        <time>1970-01-01T01:00:00Z</time>
      </trkpt>
      <trkpt lat="63.41998033" lon="10.31809783">
        <ele>207.724</ele>
        <time>1970-01-01T01:00:00Z</time>
      </trkpt>
      <trkpt lat="63.41998383" lon="10.3181215">
        <ele>207.571</ele>
        <time>1970-01-01T01:00:00Z</time>
      </trkpt>
      <trkpt lat="63.41998633" lon="10.31814617">
        <ele>207.571</ele>
        <time>1970-01-01T01:00:00Z</time>
      </trkpt>
      <trkpt lat="63.41999083" lon="10.31817667">
        <ele>207.267</ele>
        <time>1970-01-01T01:00:00Z</time>
      </trkpt>
      <trkpt lat="63.41999517" lon="10.318208">
        <ele>207.267</ele>
        <time>1970-01-01T01:00:00Z</time>
      </trkpt>
      <trkpt lat="63.42000133" lon="10.31824133">
        <ele>207.114</ele>
        <time>1970-01-01T01:00:00Z</time>
      </trkpt>
      <trkpt lat="63.42000683" lon="10.31827367">
        <ele>207.114</ele>
        <time>1970-01-01T01:00:00Z</time>
      </trkpt>
      <trkpt lat="63.4200125" lon="10.318307">
        <ele>206.962</ele>
        <time>1970-01-01T01:00:00Z</time>
      </trkpt>
      <trkpt lat="63.42002017" lon="10.318336">
        <ele>206.962</ele>
        <time>1970-01-01T01:00:00Z</time>
      </trkpt>
      <trkpt lat="63.4200275" lon="10.31836217">
        <ele>206.809</ele>
        <time>1970-01-01T01:00:00Z</time>
      </trkpt>
      <trkpt lat="63.42003283" lon="10.3183865">
        <ele>206.809</ele>
        <time>1970-01-01T01:00:00Z</time>
      </trkpt>
      <trkpt lat="63.42003583" lon="10.31841433">
        <ele>206.657</ele>
        <time>1970-01-01T01:00:00Z</time>
      </trkpt>
      <trkpt lat="63.420037" lon="10.31843917">
        <ele>206.657</ele>
        <time>1970-01-01T01:00:00Z</time>
      </trkpt>
      <trkpt lat="63.42003883" lon="10.31846217">
        <ele>206.505</ele>
        <time>1970-01-01T01:00:00Z</time>
      </trkpt>
      <trkpt lat="63.42004" lon="10.31848583">
        <ele>206.505</ele>
        <time>1970-01-01T01:00:00Z</time>
      </trkpt>
      <trkpt lat="63.4200415" lon="10.31851283">
        <ele>206.505</ele>
        <time>1970-01-01T01:00:00Z</time>
      </trkpt>
      <trkpt lat="63.42004383" lon="10.31853817">
        <ele>206.505</ele>
        <time>1970-01-01T01:00:00Z</time>
      </trkpt>
      <trkpt lat="63.42004717" lon="10.318563">
        <ele>206.352</ele>
        <time>1970-01-01T01:00:00Z</time>
      </trkpt>
      <trkpt lat="63.42005017" lon="10.318585">
        <ele>206.352</ele>
        <time>1970-01-01T01:00:00Z</time>
      </trkpt>
      <trkpt lat="63.42005467" lon="10.31860767">
        <ele>206.2</ele>
        <time>1970-01-01T01:00:00Z</time>
      </trkpt>
      <trkpt lat="63.42005967" lon="10.3186295">
        <ele>206.2</ele>
        <time>1970-01-01T01:00:00Z</time>
      </trkpt>
      <trkpt lat="63.420066" lon="10.318651">
        <ele>206.2</ele>
        <time>1970-01-01T01:00:00Z</time>
      </trkpt>
      <trkpt lat="63.42007083" lon="10.3186745">
        <ele>206.2</ele>
        <time>1970-01-01T01:00:00Z</time>
      </trkpt>
      <trkpt lat="63.4200765" lon="10.31869933">
        <ele>206.2</ele>
        <time>1970-01-01T01:00:00Z</time>
      </trkpt>
      <trkpt lat="63.42008233" lon="10.31872567">
        <ele>206.2</ele>
        <time>1970-01-01T01:00:00Z</time>
      </trkpt>
      <trkpt lat="63.42008933" lon="10.31875417">
        <ele>206.2</ele>
        <time>1970-01-01T01:00:00Z</time>
      </trkpt>
      <trkpt lat="63.420094" lon="10.31878333">
        <ele>206.2</ele>
        <time>1970-01-01T01:00:00Z</time>
      </trkpt>
      <trkpt lat="63.420097" lon="10.31881283">
        <ele>206.2</ele>
        <time>1970-01-01T01:00:00Z</time>
      </trkpt>
      <trkpt lat="63.4200975" lon="10.31883933">
        <ele>206.2</ele>
        <time>1970-01-01T01:00:00Z</time>
      </trkpt>
      <trkpt lat="63.4200985" lon="10.31886233">
        <ele>206.047</ele>
        <time>1970-01-01T01:00:00Z</time>
      </trkpt>
      <trkpt lat="63.42009983" lon="10.318886">
        <ele>206.047</ele>
        <time>1970-01-01T01:00:00Z</time>
      </trkpt>
      <trkpt lat="63.42010283" lon="10.31890983">
        <ele>206.047</ele>
        <time>1970-01-01T01:00:00Z</time>
      </trkpt>
      <trkpt lat="63.42010683" lon="10.31893567">
        <ele>206.047</ele>
        <time>1970-01-01T01:00:00Z</time>
      </trkpt>
      <trkpt lat="63.42011033" lon="10.31895883">
        <ele>205.895</ele>
        <time>1970-01-01T01:00:00Z</time>
      </trkpt>
      <trkpt lat="63.4201125" lon="10.31898083">
        <ele>205.895</ele>
        <time>1970-01-01T01:00:00Z</time>
      </trkpt>
      <trkpt lat="63.42011333" lon="10.31900183">
        <ele>205.895</ele>
        <time>1970-01-01T01:00:00Z</time>
      </trkpt>
      <trkpt lat="63.42011467" lon="10.319026">
        <ele>205.895</ele>
        <time>1970-01-01T01:00:00Z</time>
      </trkpt>
      <trkpt lat="63.420113" lon="10.31904967">
        <ele>205.742</ele>
        <time>1970-01-01T01:00:00Z</time>
      </trkpt>
      <trkpt lat="63.4201085" lon="10.31906717">
        <ele>205.742</ele>
        <time>1970-01-01T01:00:00Z</time>
      </trkpt>
      <trkpt lat="63.42010017" lon="10.31907983">
        <ele>205.59</ele>
        <time>1970-01-01T01:00:00Z</time>
      </trkpt>
      <trkpt lat="63.42009283" lon="10.319093">
        <ele>205.59</ele>
        <time>1970-01-01T01:00:00Z</time>
      </trkpt>
      <trkpt lat="63.42008633" lon="10.319109">
        <ele>205.438</ele>
        <time>1970-01-01T01:00:00Z</time>
      </trkpt>
      <trkpt lat="63.42008083" lon="10.31912333">
        <ele>205.438</ele>
        <time>1970-01-01T01:00:00Z</time>
      </trkpt>
      <trkpt lat="63.420075" lon="10.319133">
        <ele>205.285</ele>
        <time>1970-01-01T01:00:00Z</time>
      </trkpt>
      <trkpt lat="63.42007" lon="10.31914117">
        <ele>205.285</ele>
        <time>1970-01-01T01:00:00Z</time>
      </trkpt>
      <trkpt lat="63.42006567" lon="10.31914867">
        <ele>205.133</ele>
        <time>1970-01-01T01:00:00Z</time>
      </trkpt>
      <trkpt lat="63.4200615" lon="10.31915367">
        <ele>205.133</ele>
        <time>1970-01-01T01:00:00Z</time>
      </trkpt>
      <trkpt lat="63.42005733" lon="10.319157">
        <ele>204.828</ele>
        <time>1970-01-01T01:00:00Z</time>
      </trkpt>
      <trkpt lat="63.4200555" lon="10.31915783">
        <ele>204.828</ele>
        <time>1970-01-01T01:00:00Z</time>
      </trkpt>
      <trkpt lat="63.42005767" lon="10.31916167">
        <ele>204.676</ele>
        <time>1970-01-01T01:00:00Z</time>
      </trkpt>
      <trkpt lat="63.42006133" lon="10.31916733">
        <ele>204.676</ele>
        <time>1970-01-01T01:00:00Z</time>
      </trkpt>
      <trkpt lat="63.420064" lon="10.319174">
        <ele>204.371</ele>
        <time>1970-01-01T01:00:00Z</time>
      </trkpt>
      <trkpt lat="63.42006533" lon="10.319179">
        <ele>204.371</ele>
        <time>1970-01-01T01:00:00Z</time>
      </trkpt>
      <trkpt lat="63.42006583" lon="10.31918117">
        <ele>204.218</ele>
        <time>1970-01-01T01:00:00Z</time>
      </trkpt>
      <trkpt lat="63.42006617" lon="10.319183">
        <ele>204.218</ele>
        <time>1970-01-01T01:00:00Z</time>
      </trkpt>
      <trkpt lat="63.42006567" lon="10.31918567">
        <ele>203.914</ele>
        <time>1970-01-01T01:00:00Z</time>
      </trkpt>
      <trkpt lat="63.4200645" lon="10.319189">
        <ele>203.914</ele>
        <time>1970-01-01T01:00:00Z</time>
      </trkpt>
      <trkpt lat="63.42006317" lon="10.3191915">
        <ele>203.761</ele>
        <time>1970-01-01T01:00:00Z</time>
      </trkpt>
      <trkpt lat="63.42006217" lon="10.319192">
        <ele>203.761</ele>
        <time>1970-01-01T01:00:00Z</time>
      </trkpt>
      <trkpt lat="63.420062" lon="10.319192">
        <ele>203.609</ele>
        <time>1970-01-01T01:00:00Z</time>
      </trkpt>
      <trkpt lat="63.42006267" lon="10.319192">
        <ele>203.609</ele>
        <time>1970-01-01T01:00:00Z</time>
      </trkpt>
      <trkpt lat="63.42006367" lon="10.31919317">
        <ele>203.456</ele>
        <time>1970-01-01T01:00:00Z</time>
      </trkpt>
      <trkpt lat="63.42006433" lon="10.3191945">
        <ele>203.456</ele>
        <time>1970-01-01T01:00:00Z</time>
      </trkpt>
      <trkpt lat="63.4200645" lon="10.3191965">
        <ele>203.304</ele>
        <time>1970-01-01T01:00:00Z</time>
      </trkpt>
      <trkpt lat="63.42006383" lon="10.319199">
        <ele>203.304</ele>
        <time>1970-01-01T01:00:00Z</time>
      </trkpt>
      <trkpt lat="63.42006283" lon="10.31920167">
        <ele>203.152</ele>
        <time>1970-01-01T01:00:00Z</time>
      </trkpt>
      <trkpt lat="63.42006133" lon="10.3192045">
        <ele>203.152</ele>
        <time>1970-01-01T01:00:00Z</time>
      </trkpt>
      <trkpt lat="63.42005967" lon="10.31920683">
        <ele>203.152</ele>
        <time>1970-01-01T01:00:00Z</time>
      </trkpt>
      <trkpt lat="63.420058" lon="10.31920933">
        <ele>203.152</ele>
        <time>1970-01-01T01:00:00Z</time>
      </trkpt>
      <trkpt lat="63.42005717" lon="10.319211">
        <ele>203.152</ele>
        <time>1970-01-01T01:00:00Z</time>
      </trkpt>
      <trkpt lat="63.420057" lon="10.31921267">
        <ele>203.152</ele>
        <time>1970-01-01T01:00:00Z</time>
      </trkpt>
      <trkpt lat="63.42005717" lon="10.319215">
        <ele>203.152</ele>
        <time>1970-01-01T01:00:00Z</time>
      </trkpt>
      <trkpt lat="63.4200565" lon="10.319218">
        <ele>203.152</ele>
        <time>1970-01-01T01:00:00Z</time>
      </trkpt>
      <trkpt lat="63.42005567" lon="10.31922117">
        <ele>203.152</ele>
        <time>1970-01-01T01:00:00Z</time>
      </trkpt>
      <trkpt lat="63.42005517" lon="10.319223">
        <ele>203.152</ele>
        <time>1970-01-01T01:00:00Z</time>
      </trkpt>
      <trkpt lat="63.420055" lon="10.31922467">
        <ele>203.152</ele>
        <time>1970-01-01T01:00:00Z</time>
      </trkpt>
      <trkpt lat="63.42005517" lon="10.31922617">
        <ele>203.152</ele>
        <time>1970-01-01T01:00:00Z</time>
      </trkpt>
      <trkpt lat="63.42005567" lon="10.31922817">
        <ele>203.304</ele>
        <time>1970-01-01T01:00:00Z</time>
      </trkpt>
      <trkpt lat="63.4200565" lon="10.31922983">
        <ele>203.304</ele>
        <time>1970-01-01T01:00:00Z</time>
      </trkpt>
      <trkpt lat="63.42005683" lon="10.3192325">
        <ele>203.304</ele>
        <time>1970-01-01T01:00:00Z</time>
      </trkpt>
      <trkpt lat="63.42005717" lon="10.31923367">
        <ele>203.304</ele>
        <time>1970-01-01T01:00:00Z</time>
      </trkpt>
      <trkpt lat="63.42005733" lon="10.31923317">
        <ele>203.456</ele>
        <time>1970-01-01T01:00:00Z</time>
      </trkpt>
      <trkpt lat="63.42005717" lon="10.319231">
        <ele>203.456</ele>
        <time>1970-01-01T01:00:00Z</time>
      </trkpt>
      <trkpt lat="63.42005583" lon="10.31923017">
        <ele>203.456</ele>
        <time>1970-01-01T01:00:00Z</time>
      </trkpt>
      <trkpt lat="63.42005383" lon="10.31923117">
        <ele>203.456</ele>
        <time>1970-01-01T01:00:00Z</time>
      </trkpt>
      <trkpt lat="63.420052" lon="10.319233">
        <ele>203.609</ele>
        <time>1970-01-01T01:00:00Z</time>
      </trkpt>
      <trkpt lat="63.42005033" lon="10.31923567">
        <ele>203.609</ele>
        <time>1970-01-01T01:00:00Z</time>
      </trkpt>
      <trkpt lat="63.42004867" lon="10.319239">
        <ele>203.609</ele>
        <time>1970-01-01T01:00:00Z</time>
      </trkpt>
      <trkpt lat="63.420047" lon="10.31924267">
        <ele>203.609</ele>
        <time>1970-01-01T01:00:00Z</time>
      </trkpt>
      <trkpt lat="63.42004567" lon="10.3192465">
        <ele>203.761</ele>
        <time>1970-01-01T01:00:00Z</time>
      </trkpt>
      <trkpt lat="63.42004383" lon="10.31924883">
        <ele>203.761</ele>
        <time>1970-01-01T01:00:00Z</time>
      </trkpt>
      <trkpt lat="63.42004567" lon="10.31924683">
        <ele>203.761</ele>
        <time>1970-01-01T01:00:00Z</time>
      </trkpt>
      <trkpt lat="63.42005133" lon="10.31923883">
        <ele>203.761</ele>
        <time>1970-01-01T01:00:00Z</time>
      </trkpt>
      <trkpt lat="63.420061" lon="10.31922817">
        <ele>203.761</ele>
        <time>1970-01-01T01:00:00Z</time>
      </trkpt>
      <trkpt lat="63.42007083" lon="10.31921933">
        <ele>203.761</ele>
        <time>1970-01-01T01:00:00Z</time>
      </trkpt>
      <trkpt lat="63.42008033" lon="10.31921667">
        <ele>203.761</ele>
        <time>1970-01-01T01:00:00Z</time>
      </trkpt>
      <trkpt lat="63.42008883" lon="10.31921817">
        <ele>203.761</ele>
        <time>1970-01-01T01:00:00Z</time>
      </trkpt>
      <trkpt lat="63.42009783" lon="10.31922867">
        <ele>203.761</ele>
        <time>1970-01-01T01:00:00Z</time>
      </trkpt>
      <trkpt lat="63.42010417" lon="10.31924117">
        <ele>203.761</ele>
        <time>1970-01-01T01:00:00Z</time>
      </trkpt>
      <trkpt lat="63.42011217" lon="10.31925683">
        <ele>203.761</ele>
        <time>1970-01-01T01:00:00Z</time>
      </trkpt>
      <trkpt lat="63.42011833" lon="10.319272">
        <ele>203.761</ele>
        <time>1970-01-01T01:00:00Z</time>
      </trkpt>
      <trkpt lat="63.4201275" lon="10.31928883">
        <ele>203.761</ele>
        <time>1970-01-01T01:00:00Z</time>
      </trkpt>
      <trkpt lat="63.42013483" lon="10.31930883">
        <ele>203.761</ele>
        <time>1970-01-01T01:00:00Z</time>
      </trkpt>
      <trkpt lat="63.4201445" lon="10.31932833">
        <ele>203.609</ele>
        <time>1970-01-01T01:00:00Z</time>
      </trkpt>
      <trkpt lat="63.42015367" lon="10.31934833">
        <ele>203.609</ele>
        <time>1970-01-01T01:00:00Z</time>
      </trkpt>
      <trkpt lat="63.4201625" lon="10.31936667">
        <ele>203.456</ele>
        <time>1970-01-01T01:00:00Z</time>
      </trkpt>
      <trkpt lat="63.42016917" lon="10.31938433">
        <ele>203.456</ele>
        <time>1970-01-01T01:00:00Z</time>
      </trkpt>
      <trkpt lat="63.420175" lon="10.31940117">
        <ele>203.304</ele>
        <time>1970-01-01T01:00:00Z</time>
      </trkpt>
      <trkpt lat="63.42018117" lon="10.31941917">
        <ele>203.304</ele>
        <time>1970-01-01T01:00:00Z</time>
      </trkpt>
      <trkpt lat="63.4201885" lon="10.31943917">
        <ele>203.152</ele>
        <time>1970-01-01T01:00:00Z</time>
      </trkpt>
      <trkpt lat="63.42019517" lon="10.31946117">
        <ele>203.152</ele>
        <time>1970-01-01T01:00:00Z</time>
      </trkpt>
      <trkpt lat="63.420203" lon="10.319483">
        <ele>202.999</ele>
        <time>1970-01-01T01:00:00Z</time>
      </trkpt>
      <trkpt lat="63.42021083" lon="10.31950367">
        <ele>202.999</ele>
        <time>1970-01-01T01:00:00Z</time>
      </trkpt>
      <trkpt lat="63.420218" lon="10.319524">
        <ele>202.847</ele>
        <time>1970-01-01T01:00:00Z</time>
      </trkpt>
      <trkpt lat="63.42022517" lon="10.31954467">
        <ele>202.847</ele>
        <time>1970-01-01T01:00:00Z</time>
      </trkpt>
      <trkpt lat="63.42023117" lon="10.3195655">
        <ele>202.694</ele>
        <time>1970-01-01T01:00:00Z</time>
      </trkpt>
      <trkpt lat="63.4202385" lon="10.31958733">
        <ele>202.694</ele>
        <time>1970-01-01T01:00:00Z</time>
      </trkpt>
      <trkpt lat="63.42024517" lon="10.31960917">
        <ele>202.542</ele>
        <time>1970-01-01T01:00:00Z</time>
      </trkpt>
      <trkpt lat="63.42025183" lon="10.3196295">
        <ele>202.542</ele>
        <time>1970-01-01T01:00:00Z</time>
      </trkpt>
      <trkpt lat="63.42025767" lon="10.319649">
        <ele>202.39</ele>
        <time>1970-01-01T01:00:00Z</time>
      </trkpt>
      <trkpt lat="63.4202625" lon="10.31967317">
        <ele>202.39</ele>
        <time>1970-01-01T01:00:00Z</time>
      </trkpt>
      <trkpt lat="63.4202655" lon="10.31969733">
        <ele>202.237</ele>
        <time>1970-01-01T01:00:00Z</time>
      </trkpt>
      <trkpt lat="63.42026683" lon="10.31972367">
        <ele>202.237</ele>
        <time>1970-01-01T01:00:00Z</time>
      </trkpt>
      <trkpt lat="63.4202685" lon="10.319749">
        <ele>202.085</ele>
        <time>1970-01-01T01:00:00Z</time>
      </trkpt>
      <trkpt lat="63.4202715" lon="10.31977717">
        <ele>202.085</ele>
        <time>1970-01-01T01:00:00Z</time>
      </trkpt>
      <trkpt lat="63.420276" lon="10.31980467">
        <ele>201.932</ele>
        <time>1970-01-01T01:00:00Z</time>
      </trkpt>
      <trkpt lat="63.4202805" lon="10.31982783">
        <ele>201.932</ele>
        <time>1970-01-01T01:00:00Z</time>
      </trkpt>
      <trkpt lat="63.420285" lon="10.31984967">
        <ele>201.78</ele>
        <time>1970-01-01T01:00:00Z</time>
      </trkpt>
      <trkpt lat="63.4202895" lon="10.31986867">
        <ele>201.78</ele>
        <time>1970-01-01T01:00:00Z</time>
      </trkpt>
      <trkpt lat="63.42029283" lon="10.31988617">
        <ele>201.78</ele>
        <time>1970-01-01T01:00:00Z</time>
      </trkpt>
      <trkpt lat="63.42029567" lon="10.319902">
        <ele>201.78</ele>
        <time>1970-01-01T01:00:00Z</time>
      </trkpt>
      <trkpt lat="63.42030033" lon="10.31991933">
        <ele>201.628</ele>
        <time>1970-01-01T01:00:00Z</time>
      </trkpt>
      <trkpt lat="63.420305" lon="10.319936">
        <ele>201.628</ele>
        <time>1970-01-01T01:00:00Z</time>
      </trkpt>
      <trkpt lat="63.42031033" lon="10.31995167">
        <ele>201.628</ele>
        <time>1970-01-01T01:00:00Z</time>
      </trkpt>
      <trkpt lat="63.4203155" lon="10.3199675">
        <ele>201.628</ele>
        <time>1970-01-01T01:00:00Z</time>
      </trkpt>
      <trkpt lat="63.42032083" lon="10.31998483">
        <ele>201.78</ele>
        <time>1970-01-01T01:00:00Z</time>
      </trkpt>
      <trkpt lat="63.42032667" lon="10.32000267">
        <ele>201.78</ele>
        <time>1970-01-01T01:00:00Z</time>
      </trkpt>
      <trkpt lat="63.42033117" lon="10.32002217">
        <ele>201.78</ele>
        <time>1970-01-01T01:00:00Z</time>
      </trkpt>
      <trkpt lat="63.42033833" lon="10.320042">
        <ele>201.78</ele>
        <time>1970-01-01T01:00:00Z</time>
      </trkpt>
      <trkpt lat="63.4203455" lon="10.3200655">
        <ele>201.78</ele>
        <time>1970-01-01T01:00:00Z</time>
      </trkpt>
      <trkpt lat="63.42035283" lon="10.3200865">
        <ele>201.78</ele>
        <time>1970-01-01T01:00:00Z</time>
      </trkpt>
      <trkpt lat="63.42035733" lon="10.32010733">
        <ele>201.932</ele>
        <time>1970-01-01T01:00:00Z</time>
      </trkpt>
      <trkpt lat="63.42036217" lon="10.320125">
        <ele>201.932</ele>
        <time>1970-01-01T01:00:00Z</time>
      </trkpt>
      <trkpt lat="63.42036733" lon="10.3201405">
        <ele>202.085</ele>
        <time>1970-01-01T01:00:00Z</time>
      </trkpt>
      <trkpt lat="63.42037317" lon="10.32015717">
        <ele>202.085</ele>
        <time>1970-01-01T01:00:00Z</time>
      </trkpt>
      <trkpt lat="63.42037783" lon="10.32017333">
        <ele>202.085</ele>
        <time>1970-01-01T01:00:00Z</time>
      </trkpt>
      <trkpt lat="63.42038217" lon="10.32019167">
        <ele>202.085</ele>
        <time>1970-01-01T01:00:00Z</time>
      </trkpt>
      <trkpt lat="63.42038767" lon="10.3202095">
        <ele>202.237</ele>
        <time>1970-01-01T01:00:00Z</time>
      </trkpt>
      <trkpt lat="63.42039333" lon="10.32022933">
        <ele>202.237</ele>
        <time>1970-01-01T01:00:00Z</time>
      </trkpt>
      <trkpt lat="63.420399" lon="10.32025183">
        <ele>202.237</ele>
        <time>1970-01-01T01:00:00Z</time>
      </trkpt>
      <trkpt lat="63.42040483" lon="10.320275">
        <ele>202.237</ele>
        <time>1970-01-01T01:00:00Z</time>
      </trkpt>
      <trkpt lat="63.42041067" lon="10.3202985">
        <ele>202.237</ele>
        <time>1970-01-01T01:00:00Z</time>
      </trkpt>
      <trkpt lat="63.42041617" lon="10.32032333">
        <ele>202.237</ele>
        <time>1970-01-01T01:00:00Z</time>
      </trkpt>
      <trkpt lat="63.42042167" lon="10.32034717">
        <ele>202.39</ele>
        <time>1970-01-01T01:00:00Z</time>
      </trkpt>
      <trkpt lat="63.42042867" lon="10.32036967">
        <ele>202.39</ele>
        <time>1970-01-01T01:00:00Z</time>
      </trkpt>
      <trkpt lat="63.42043483" lon="10.32038917">
        <ele>202.39</ele>
        <time>1970-01-01T01:00:00Z</time>
      </trkpt>
      <trkpt lat="63.42044017" lon="10.320406">
        <ele>202.39</ele>
        <time>1970-01-01T01:00:00Z</time>
      </trkpt>
      <trkpt lat="63.42044467" lon="10.32042083">
        <ele>202.39</ele>
        <time>1970-01-01T01:00:00Z</time>
      </trkpt>
      <trkpt lat="63.4204505" lon="10.32043567">
        <ele>202.39</ele>
        <time>1970-01-01T01:00:00Z</time>
      </trkpt>
      <trkpt lat="63.420458" lon="10.32045833">
        <ele>202.542</ele>
        <time>1970-01-01T01:00:00Z</time>
      </trkpt>
      <trkpt lat="63.42046533" lon="10.32048633">
        <ele>202.542</ele>
        <time>1970-01-01T01:00:00Z</time>
      </trkpt>
      <trkpt lat="63.42047367" lon="10.3205145">
        <ele>202.542</ele>
        <time>1970-01-01T01:00:00Z</time>
      </trkpt>
      <trkpt lat="63.42048183" lon="10.32053883">
        <ele>202.542</ele>
        <time>1970-01-01T01:00:00Z</time>
      </trkpt>
      <trkpt lat="63.420491" lon="10.32056217">
        <ele>202.542</ele>
        <time>1970-01-01T01:00:00Z</time>
      </trkpt>
      <trkpt lat="63.42049883" lon="10.32058483">
        <ele>202.542</ele>
        <time>1970-01-01T01:00:00Z</time>
      </trkpt>
      <trkpt lat="63.42050783" lon="10.32060867">
        <ele>202.542</ele>
        <time>1970-01-01T01:00:00Z</time>
      </trkpt>
      <trkpt lat="63.420516" lon="10.3206305">
        <ele>202.542</ele>
        <time>1970-01-01T01:00:00Z</time>
      </trkpt>
      <trkpt lat="63.42052433" lon="10.32065267">
        <ele>202.542</ele>
        <time>1970-01-01T01:00:00Z</time>
      </trkpt>
      <trkpt lat="63.420528" lon="10.32067317">
        <ele>202.542</ele>
        <time>1970-01-01T01:00:00Z</time>
      </trkpt>
      <trkpt lat="63.42052883" lon="10.32069417">
        <ele>202.542</ele>
        <time>1970-01-01T01:00:00Z</time>
      </trkpt>
      <trkpt lat="63.42052683" lon="10.320715">
        <ele>202.542</ele>
        <time>1970-01-01T01:00:00Z</time>
      </trkpt>
      <trkpt lat="63.4205265" lon="10.32073483">
        <ele>202.542</ele>
        <time>1970-01-01T01:00:00Z</time>
      </trkpt>
      <trkpt lat="63.42052683" lon="10.32075517">
        <ele>202.542</ele>
        <time>1970-01-01T01:00:00Z</time>
      </trkpt>
      <trkpt lat="63.42052733" lon="10.32077767">
        <ele>202.542</ele>
        <time>1970-01-01T01:00:00Z</time>
      </trkpt>
      <trkpt lat="63.42052583" lon="10.320802">
        <ele>202.542</ele>
        <time>1970-01-01T01:00:00Z</time>
      </trkpt>
      <trkpt lat="63.42052317" lon="10.3208265">
        <ele>202.542</ele>
        <time>1970-01-01T01:00:00Z</time>
      </trkpt>
      <trkpt lat="63.42052117" lon="10.3208505">
        <ele>202.542</ele>
        <time>1970-01-01T01:00:00Z</time>
      </trkpt>
      <trkpt lat="63.420519" lon="10.32087633">
        <ele>202.39</ele>
        <time>1970-01-01T01:00:00Z</time>
      </trkpt>
      <trkpt lat="63.42051633" lon="10.32090167">
        <ele>202.39</ele>
        <time>1970-01-01T01:00:00Z</time>
      </trkpt>
      <trkpt lat="63.42051017" lon="10.32092783">
        <ele>202.39</ele>
        <time>1970-01-01T01:00:00Z</time>
      </trkpt>
      <trkpt lat="63.420504" lon="10.32095233">
        <ele>202.39</ele>
        <time>1970-01-01T01:00:00Z</time>
      </trkpt>
      <trkpt lat="63.4204985" lon="10.320978">
        <ele>202.237</ele>
        <time>1970-01-01T01:00:00Z</time>
      </trkpt>
      <trkpt lat="63.42049583" lon="10.32100183">
        <ele>202.237</ele>
        <time>1970-01-01T01:00:00Z</time>
      </trkpt>
      <trkpt lat="63.420493" lon="10.3210235">
        <ele>202.085</ele>
        <time>1970-01-01T01:00:00Z</time>
      </trkpt>
      <trkpt lat="63.42048967" lon="10.32104333">
        <ele>202.085</ele>
        <time>1970-01-01T01:00:00Z</time>
      </trkpt>
      <trkpt lat="63.42048517" lon="10.321064">
        <ele>201.932</ele>
        <time>1970-01-01T01:00:00Z</time>
      </trkpt>
      <trkpt lat="63.42048167" lon="10.32108467">
        <ele>201.932</ele>
        <time>1970-01-01T01:00:00Z</time>
      </trkpt>
      <trkpt lat="63.42047933" lon="10.3211035">
        <ele>201.78</ele>
        <time>1970-01-01T01:00:00Z</time>
      </trkpt>
      <trkpt lat="63.4204775" lon="10.3211185">
        <ele>201.78</ele>
        <time>1970-01-01T01:00:00Z</time>
      </trkpt>
      <trkpt lat="63.42047533" lon="10.32113317">
        <ele>201.475</ele>
        <time>1970-01-01T01:00:00Z</time>
      </trkpt>
      <trkpt lat="63.4204725" lon="10.32114933">
        <ele>201.475</ele>
        <time>1970-01-01T01:00:00Z</time>
      </trkpt>
      <trkpt lat="63.42047267" lon="10.32116667">
        <ele>201.323</ele>
        <time>1970-01-01T01:00:00Z</time>
      </trkpt>
      <trkpt lat="63.42047383" lon="10.32119033">
        <ele>201.323</ele>
        <time>1970-01-01T01:00:00Z</time>
      </trkpt>
      <trkpt lat="63.42047383" lon="10.32121583">
        <ele>201.018</ele>
        <time>1970-01-01T01:00:00Z</time>
      </trkpt>
      <trkpt lat="63.420471" lon="10.32124133">
        <ele>201.018</ele>
        <time>1970-01-01T01:00:00Z</time>
      </trkpt>
      <trkpt lat="63.42046633" lon="10.32126667">
        <ele>200.713</ele>
        <time>1970-01-01T01:00:00Z</time>
      </trkpt>
      <trkpt lat="63.42046283" lon="10.32129683">
        <ele>200.713</ele>
        <time>1970-01-01T01:00:00Z</time>
      </trkpt>
      <trkpt lat="63.4204555" lon="10.321329">
        <ele>200.408</ele>
        <time>1970-01-01T01:00:00Z</time>
      </trkpt>
      <trkpt lat="63.42044967" lon="10.32135683">
        <ele>200.408</ele>
        <time>1970-01-01T01:00:00Z</time>
      </trkpt>
      <trkpt lat="63.4204425" lon="10.32137983">
        <ele>200.104</ele>
        <time>1970-01-01T01:00:00Z</time>
      </trkpt>
      <trkpt lat="63.42044083" lon="10.321405">
        <ele>200.104</ele>
        <time>1970-01-01T01:00:00Z</time>
      </trkpt>
      <trkpt lat="63.42043767" lon="10.32142733">
        <ele>199.799</ele>
        <time>1970-01-01T01:00:00Z</time>
      </trkpt>
      <trkpt lat="63.42043517" lon="10.3214455">
        <ele>199.799</ele>
        <time>1970-01-01T01:00:00Z</time>
      </trkpt>
      <trkpt lat="63.42043067" lon="10.3214595">
        <ele>199.494</ele>
        <time>1970-01-01T01:00:00Z</time>
      </trkpt>
      <trkpt lat="63.420426" lon="10.32147383">
        <ele>199.494</ele>
        <time>1970-01-01T01:00:00Z</time>
      </trkpt>
      <trkpt lat="63.4204205" lon="10.32149033">
        <ele>199.189</ele>
        <time>1970-01-01T01:00:00Z</time>
      </trkpt>
      <trkpt lat="63.42041383" lon="10.32150883">
        <ele>199.189</ele>
        <time>1970-01-01T01:00:00Z</time>
      </trkpt>
      <trkpt lat="63.42040617" lon="10.32152733">
        <ele>198.884</ele>
        <time>1970-01-01T01:00:00Z</time>
      </trkpt>
      <trkpt lat="63.42039733" lon="10.32154533">
        <ele>198.884</ele>
        <time>1970-01-01T01:00:00Z</time>
      </trkpt>
      <trkpt lat="63.42038733" lon="10.3215655">
        <ele>198.58</ele>
        <time>1970-01-01T01:00:00Z</time>
      </trkpt>
      <trkpt lat="63.42037617" lon="10.32158683">
        <ele>198.58</ele>
        <time>1970-01-01T01:00:00Z</time>
      </trkpt>
      <trkpt lat="63.42036517" lon="10.3216095">
        <ele>198.427</ele>
        <time>1970-01-01T01:00:00Z</time>
      </trkpt>
      <trkpt lat="63.420357" lon="10.32162833">
        <ele>198.427</ele>
        <time>1970-01-01T01:00:00Z</time>
      </trkpt>
      <trkpt lat="63.42035133" lon="10.3216495">
        <ele>198.122</ele>
        <time>1970-01-01T01:00:00Z</time>
      </trkpt>
      <trkpt lat="63.420346" lon="10.32167233">
        <ele>198.122</ele>
        <time>1970-01-01T01:00:00Z</time>
      </trkpt>
      <trkpt lat="63.42034383" lon="10.32170467">
        <ele>197.97</ele>
        <time>1970-01-01T01:00:00Z</time>
      </trkpt>
      <trkpt lat="63.42034067" lon="10.3217345">
        <ele>197.97</ele>
        <time>1970-01-01T01:00:00Z</time>
      </trkpt>
      <trkpt lat="63.42033667" lon="10.32176733">
        <ele>197.818</ele>
        <time>1970-01-01T01:00:00Z</time>
      </trkpt>
      <trkpt lat="63.42032983" lon="10.32179283">
        <ele>197.818</ele>
        <time>1970-01-01T01:00:00Z</time>
      </trkpt>
      <trkpt lat="63.420324" lon="10.32181767">
        <ele>197.665</ele>
        <time>1970-01-01T01:00:00Z</time>
      </trkpt>
      <trkpt lat="63.4203195" lon="10.321837">
        <ele>197.665</ele>
        <time>1970-01-01T01:00:00Z</time>
      </trkpt>
      <trkpt lat="63.420315" lon="10.32186767">
        <ele>197.513</ele>
        <time>1970-01-01T01:00:00Z</time>
      </trkpt>
      <trkpt lat="63.42031" lon="10.32189933">
        <ele>197.513</ele>
        <time>1970-01-01T01:00:00Z</time>
      </trkpt>
      <trkpt lat="63.42030467" lon="10.32193633">
        <ele>197.513</ele>
        <time>1970-01-01T01:00:00Z</time>
      </trkpt>
      <trkpt lat="63.42029867" lon="10.321959">
        <ele>197.513</ele>
        <time>1970-01-01T01:00:00Z</time>
      </trkpt>
      <trkpt lat="63.42029233" lon="10.3219825">
        <ele>197.36</ele>
        <time>1970-01-01T01:00:00Z</time>
      </trkpt>
      <trkpt lat="63.42028367" lon="10.3220005">
        <ele>197.36</ele>
        <time>1970-01-01T01:00:00Z</time>
      </trkpt>
      <trkpt lat="63.4202735" lon="10.32202267">
        <ele>197.208</ele>
        <time>1970-01-01T01:00:00Z</time>
      </trkpt>
      <trkpt lat="63.42026283" lon="10.32204267">
        <ele>197.208</ele>
        <time>1970-01-01T01:00:00Z</time>
      </trkpt>
      <trkpt lat="63.42025367" lon="10.32206467">
        <ele>197.208</ele>
        <time>1970-01-01T01:00:00Z</time>
      </trkpt>
      <trkpt lat="63.4202435" lon="10.32208317">
        <ele>197.208</ele>
        <time>1970-01-01T01:00:00Z</time>
      </trkpt>
      <trkpt lat="63.42023367" lon="10.32210617">
        <ele>197.056</ele>
        <time>1970-01-01T01:00:00Z</time>
      </trkpt>
      <trkpt lat="63.4202225" lon="10.32212817">
        <ele>197.056</ele>
        <time>1970-01-01T01:00:00Z</time>
      </trkpt>
      <trkpt lat="63.4202115" lon="10.322149">
        <ele>196.903</ele>
        <time>1970-01-01T01:00:00Z</time>
      </trkpt>
      <trkpt lat="63.4202015" lon="10.32216417">
        <ele>196.903</ele>
        <time>1970-01-01T01:00:00Z</time>
      </trkpt>
      <trkpt lat="63.4201925" lon="10.32217483">
        <ele>196.903</ele>
        <time>1970-01-01T01:00:00Z</time>
      </trkpt>
      <trkpt lat="63.42018367" lon="10.32218583">
        <ele>196.903</ele>
        <time>1970-01-01T01:00:00Z</time>
      </trkpt>
      <trkpt lat="63.42017217" lon="10.3221955">
        <ele>196.903</ele>
        <time>1970-01-01T01:00:00Z</time>
      </trkpt>
      <trkpt lat="63.4201605" lon="10.322205">
        <ele>196.903</ele>
        <time>1970-01-01T01:00:00Z</time>
      </trkpt>
      <trkpt lat="63.42014833" lon="10.32221133">
        <ele>196.751</ele>
        <time>1970-01-01T01:00:00Z</time>
      </trkpt>
      <trkpt lat="63.420137" lon="10.32221767">
        <ele>196.751</ele>
        <time>1970-01-01T01:00:00Z</time>
      </trkpt>
      <trkpt lat="63.42012533" lon="10.32222417">
        <ele>196.751</ele>
        <time>1970-01-01T01:00:00Z</time>
      </trkpt>
      <trkpt lat="63.42011233" lon="10.32222867">
        <ele>196.751</ele>
        <time>1970-01-01T01:00:00Z</time>
      </trkpt>
      <trkpt lat="63.42009933" lon="10.32223083">
        <ele>196.598</ele>
        <time>1970-01-01T01:00:00Z</time>
      </trkpt>
      <trkpt lat="63.4200875" lon="10.3222325">
        <ele>196.598</ele>
        <time>1970-01-01T01:00:00Z</time>
      </trkpt>
      <trkpt lat="63.42007783" lon="10.32224067">
        <ele>196.598</ele>
        <time>1970-01-01T01:00:00Z</time>
      </trkpt>
      <trkpt lat="63.4200695" lon="10.32225183">
        <ele>196.598</ele>
        <time>1970-01-01T01:00:00Z</time>
      </trkpt>
      <trkpt lat="63.42005667" lon="10.32226383">
        <ele>196.446</ele>
        <time>1970-01-01T01:00:00Z</time>
      </trkpt>
      <trkpt lat="63.420042" lon="10.322273">
        <ele>196.446</ele>
        <time>1970-01-01T01:00:00Z</time>
      </trkpt>
      <trkpt lat="63.42002683" lon="10.32228383">
        <ele>196.446</ele>
        <time>1970-01-01T01:00:00Z</time>
      </trkpt>
      <trkpt lat="63.42001433" lon="10.32229683">
        <ele>196.446</ele>
        <time>1970-01-01T01:00:00Z</time>
      </trkpt>
      <trkpt lat="63.42000333" lon="10.32231167">
        <ele>196.446</ele>
        <time>1970-01-01T01:00:00Z</time>
      </trkpt>
      <trkpt lat="63.41999067" lon="10.32232817">
        <ele>196.446</ele>
        <time>1970-01-01T01:00:00Z</time>
      </trkpt>
      <trkpt lat="63.41997817" lon="10.322346">
        <ele>196.446</ele>
        <time>1970-01-01T01:00:00Z</time>
      </trkpt>
      <trkpt lat="63.41996317" lon="10.32236317">
        <ele>196.446</ele>
        <time>1970-01-01T01:00:00Z</time>
      </trkpt>
      <trkpt lat="63.41994933" lon="10.32237633">
        <ele>196.446</ele>
        <time>1970-01-01T01:00:00Z</time>
      </trkpt>
      <trkpt lat="63.41993583" lon="10.322389">
        <ele>196.446</ele>
        <time>1970-01-01T01:00:00Z</time>
      </trkpt>
      <trkpt lat="63.41992433" lon="10.32240167">
        <ele>196.446</ele>
        <time>1970-01-01T01:00:00Z</time>
      </trkpt>
      <trkpt lat="63.41991267" lon="10.322418">
        <ele>196.446</ele>
        <time>1970-01-01T01:00:00Z</time>
      </trkpt>
      <trkpt lat="63.41989917" lon="10.32243633">
        <ele>196.446</ele>
        <time>1970-01-01T01:00:00Z</time>
      </trkpt>
      <trkpt lat="63.419886" lon="10.32245567">
        <ele>196.446</ele>
        <time>1970-01-01T01:00:00Z</time>
      </trkpt>
      <trkpt lat="63.41987283" lon="10.3224735">
        <ele>196.446</ele>
        <time>1970-01-01T01:00:00Z</time>
      </trkpt>
      <trkpt lat="63.419862" lon="10.322491">
        <ele>196.446</ele>
        <time>1970-01-01T01:00:00Z</time>
      </trkpt>
      <trkpt lat="63.41984983" lon="10.322513">
        <ele>196.446</ele>
        <time>1970-01-01T01:00:00Z</time>
      </trkpt>
      <trkpt lat="63.41983883" lon="10.32253517">
        <ele>196.446</ele>
        <time>1970-01-01T01:00:00Z</time>
      </trkpt>
      <trkpt lat="63.41982783" lon="10.32256083">
        <ele>196.598</ele>
        <time>1970-01-01T01:00:00Z</time>
      </trkpt>
      <trkpt lat="63.41981867" lon="10.3225845">
        <ele>196.598</ele>
        <time>1970-01-01T01:00:00Z</time>
      </trkpt>
      <trkpt lat="63.41980783" lon="10.3226125">
        <ele>196.598</ele>
        <time>1970-01-01T01:00:00Z</time>
      </trkpt>
      <trkpt lat="63.41979867" lon="10.32263867">
        <ele>196.598</ele>
        <time>1970-01-01T01:00:00Z</time>
      </trkpt>
      <trkpt lat="63.41978983" lon="10.32266983">
        <ele>196.751</ele>
        <time>1970-01-01T01:00:00Z</time>
      </trkpt>
      <trkpt lat="63.41978317" lon="10.32269617">
        <ele>196.751</ele>
        <time>1970-01-01T01:00:00Z</time>
      </trkpt>
      <trkpt lat="63.419779" lon="10.3227215">
        <ele>196.903</ele>
        <time>1970-01-01T01:00:00Z</time>
      </trkpt>
      <trkpt lat="63.41977633" lon="10.32274217">
        <ele>196.903</ele>
        <time>1970-01-01T01:00:00Z</time>
      </trkpt>
      <trkpt lat="63.41977417" lon="10.3227665">
        <ele>197.208</ele>
        <time>1970-01-01T01:00:00Z</time>
      </trkpt>
      <trkpt lat="63.41977017" lon="10.32279233">
        <ele>197.208</ele>
        <time>1970-01-01T01:00:00Z</time>
      </trkpt>
      <trkpt lat="63.41976683" lon="10.3228165">
        <ele>197.36</ele>
        <time>1970-01-01T01:00:00Z</time>
      </trkpt>
      <trkpt lat="63.4197645" lon="10.32284067">
        <ele>197.36</ele>
        <time>1970-01-01T01:00:00Z</time>
      </trkpt>
      <trkpt lat="63.419762" lon="10.32286383">
        <ele>197.513</ele>
        <time>1970-01-01T01:00:00Z</time>
      </trkpt>
      <trkpt lat="63.41975867" lon="10.32288767">
        <ele>197.513</ele>
        <time>1970-01-01T01:00:00Z</time>
      </trkpt>
      <trkpt lat="63.41975267" lon="10.32290733">
        <ele>197.665</ele>
        <time>1970-01-01T01:00:00Z</time>
      </trkpt>
      <trkpt lat="63.41974417" lon="10.3229255">
        <ele>197.665</ele>
        <time>1970-01-01T01:00:00Z</time>
      </trkpt>
      <trkpt lat="63.41973517" lon="10.32294367">
        <ele>197.818</ele>
        <time>1970-01-01T01:00:00Z</time>
      </trkpt>
      <trkpt lat="63.419728" lon="10.3229655">
        <ele>197.818</ele>
        <time>1970-01-01T01:00:00Z</time>
      </trkpt>
      <trkpt lat="63.41972067" lon="10.3229895">
        <ele>197.97</ele>
        <time>1970-01-01T01:00:00Z</time>
      </trkpt>
      <trkpt lat="63.419712" lon="10.32301">
        <ele>197.97</ele>
        <time>1970-01-01T01:00:00Z</time>
      </trkpt>
      <trkpt lat="63.4197015" lon="10.32302983">
        <ele>198.122</ele>
        <time>1970-01-01T01:00:00Z</time>
      </trkpt>
      <trkpt lat="63.41969233" lon="10.32304767">
        <ele>198.122</ele>
        <time>1970-01-01T01:00:00Z</time>
      </trkpt>
      <trkpt lat="63.41968517" lon="10.32307017">
        <ele>198.275</ele>
        <time>1970-01-01T01:00:00Z</time>
      </trkpt>
      <trkpt lat="63.41967917" lon="10.32309667">
        <ele>198.275</ele>
        <time>1970-01-01T01:00:00Z</time>
      </trkpt>
      <trkpt lat="63.41967283" lon="10.32312633">
        <ele>198.427</ele>
        <time>1970-01-01T01:00:00Z</time>
      </trkpt>
      <trkpt lat="63.41966533" lon="10.323156">
        <ele>198.427</ele>
        <time>1970-01-01T01:00:00Z</time>
      </trkpt>
      <trkpt lat="63.4196595" lon="10.32318367">
        <ele>198.427</ele>
        <time>1970-01-01T01:00:00Z</time>
      </trkpt>
      <trkpt lat="63.419656" lon="10.32321017">
        <ele>198.427</ele>
        <time>1970-01-01T01:00:00Z</time>
      </trkpt>
      <trkpt lat="63.41965483" lon="10.32323417">
        <ele>198.58</ele>
        <time>1970-01-01T01:00:00Z</time>
      </trkpt>
      <trkpt lat="63.419655" lon="10.3232585">
        <ele>198.58</ele>
        <time>1970-01-01T01:00:00Z</time>
      </trkpt>
      <trkpt lat="63.41965617" lon="10.3232805">
        <ele>198.58</ele>
        <time>1970-01-01T01:00:00Z</time>
      </trkpt>
      <trkpt lat="63.4196565" lon="10.3233025">
        <ele>198.58</ele>
        <time>1970-01-01T01:00:00Z</time>
      </trkpt>
      <trkpt lat="63.419656" lon="10.32331933">
        <ele>198.58</ele>
        <time>1970-01-01T01:00:00Z</time>
      </trkpt>
      <trkpt lat="63.41965567" lon="10.323336">
        <ele>198.58</ele>
        <time>1970-01-01T01:00:00Z</time>
      </trkpt>
      <trkpt lat="63.4196565" lon="10.32335567">
        <ele>198.427</ele>
        <time>1970-01-01T01:00:00Z</time>
      </trkpt>
      <trkpt lat="63.41965717" lon="10.32337767">
        <ele>198.427</ele>
        <time>1970-01-01T01:00:00Z</time>
      </trkpt>
      <trkpt lat="63.41965817" lon="10.3234">
        <ele>198.427</ele>
        <time>1970-01-01T01:00:00Z</time>
      </trkpt>
      <trkpt lat="63.41965917" lon="10.32342083">
        <ele>198.427</ele>
        <time>1970-01-01T01:00:00Z</time>
      </trkpt>
      <trkpt lat="63.4196605" lon="10.32344033">
        <ele>198.275</ele>
        <time>1970-01-01T01:00:00Z</time>
      </trkpt>
      <trkpt lat="63.41966117" lon="10.3234585">
        <ele>198.275</ele>
        <time>1970-01-01T01:00:00Z</time>
      </trkpt>
      <trkpt lat="63.4196635" lon="10.32348083">
        <ele>198.275</ele>
        <time>1970-01-01T01:00:00Z</time>
      </trkpt>
      <trkpt lat="63.41966583" lon="10.32350417">
        <ele>198.275</ele>
        <time>1970-01-01T01:00:00Z</time>
      </trkpt>
      <trkpt lat="63.41966633" lon="10.32352867">
        <ele>198.122</ele>
        <time>1970-01-01T01:00:00Z</time>
      </trkpt>
      <trkpt lat="63.41966367" lon="10.32354383">
        <ele>198.122</ele>
        <time>1970-01-01T01:00:00Z</time>
      </trkpt>
      <trkpt lat="63.41965733" lon="10.32355733">
        <ele>198.122</ele>
        <time>1970-01-01T01:00:00Z</time>
      </trkpt>
      <trkpt lat="63.41965017" lon="10.32356983">
        <ele>198.122</ele>
        <time>1970-01-01T01:00:00Z</time>
      </trkpt>
      <trkpt lat="63.419639" lon="10.32358767">
        <ele>198.122</ele>
        <time>1970-01-01T01:00:00Z</time>
      </trkpt>
      <trkpt lat="63.41962433" lon="10.32361283">
        <ele>198.122</ele>
        <time>1970-01-01T01:00:00Z</time>
      </trkpt>
      <trkpt lat="63.4196075" lon="10.32363883">
        <ele>198.122</ele>
        <time>1970-01-01T01:00:00Z</time>
      </trkpt>
      <trkpt lat="63.41959267" lon="10.32366333">
        <ele>198.122</ele>
        <time>1970-01-01T01:00:00Z</time>
      </trkpt>
      <trkpt lat="63.41958267" lon="10.32368167">
        <ele>198.122</ele>
        <time>1970-01-01T01:00:00Z</time>
      </trkpt>
      <trkpt lat="63.41957467" lon="10.323702">
        <ele>198.122</ele>
        <time>1970-01-01T01:00:00Z</time>
      </trkpt>
      <trkpt lat="63.41956833" lon="10.32372317">
        <ele>197.97</ele>
        <time>1970-01-01T01:00:00Z</time>
      </trkpt>
      <trkpt lat="63.41956333" lon="10.3237445">
        <ele>197.97</ele>
        <time>1970-01-01T01:00:00Z</time>
      </trkpt>
      <trkpt lat="63.41955967" lon="10.32376617">
        <ele>197.97</ele>
        <time>1970-01-01T01:00:00Z</time>
      </trkpt>
      <trkpt lat="63.41955583" lon="10.32379017">
        <ele>197.97</ele>
        <time>1970-01-01T01:00:00Z</time>
      </trkpt>
      <trkpt lat="63.41955317" lon="10.32381567">
        <ele>197.818</ele>
        <time>1970-01-01T01:00:00Z</time>
      </trkpt>
      <trkpt lat="63.41955267" lon="10.32384967">
        <ele>197.818</ele>
        <time>1970-01-01T01:00:00Z</time>
      </trkpt>
      <trkpt lat="63.41955467" lon="10.3238835">
        <ele>197.818</ele>
        <time>1970-01-01T01:00:00Z</time>
      </trkpt>
      <trkpt lat="63.41955533" lon="10.32391617">
        <ele>197.818</ele>
        <time>1970-01-01T01:00:00Z</time>
      </trkpt>
      <trkpt lat="63.41955367" lon="10.32393983">
        <ele>197.665</ele>
        <time>1970-01-01T01:00:00Z</time>
      </trkpt>
      <trkpt lat="63.41955033" lon="10.32396417">
        <ele>197.665</ele>
        <time>1970-01-01T01:00:00Z</time>
      </trkpt>
      <trkpt lat="63.4195475" lon="10.3239925">
        <ele>197.665</ele>
        <time>1970-01-01T01:00:00Z</time>
      </trkpt>
      <trkpt lat="63.41954733" lon="10.32402533">
        <ele>197.665</ele>
        <time>1970-01-01T01:00:00Z</time>
      </trkpt>
      <trkpt lat="63.4195465" lon="10.32405833">
        <ele>197.513</ele>
        <time>1970-01-01T01:00:00Z</time>
      </trkpt>
      <trkpt lat="63.419544" lon="10.324095">
        <ele>197.513</ele>
        <time>1970-01-01T01:00:00Z</time>
      </trkpt>
      <trkpt lat="63.41954083" lon="10.3241295">
        <ele>197.513</ele>
        <time>1970-01-01T01:00:00Z</time>
      </trkpt>
      <trkpt lat="63.41954017" lon="10.3241625">
        <ele>197.513</ele>
        <time>1970-01-01T01:00:00Z</time>
      </trkpt>
      <trkpt lat="63.41954233" lon="10.324188">
        <ele>197.513</ele>
        <time>1970-01-01T01:00:00Z</time>
      </trkpt>
      <trkpt lat="63.41954717" lon="10.32421483">
        <ele>197.513</ele>
        <time>1970-01-01T01:00:00Z</time>
      </trkpt>
      <trkpt lat="63.4195525" lon="10.32424317">
        <ele>197.36</ele>
        <time>1970-01-01T01:00:00Z</time>
      </trkpt>
      <trkpt lat="63.41955833" lon="10.32427433">
        <ele>197.36</ele>
        <time>1970-01-01T01:00:00Z</time>
      </trkpt>
      <trkpt lat="63.419563" lon="10.324306">
        <ele>197.36</ele>
        <time>1970-01-01T01:00:00Z</time>
      </trkpt>
      <trkpt lat="63.4195675" lon="10.324338">
        <ele>197.36</ele>
        <time>1970-01-01T01:00:00Z</time>
      </trkpt>
      <trkpt lat="63.41957233" lon="10.3243705">
        <ele>197.36</ele>
        <time>1970-01-01T01:00:00Z</time>
      </trkpt>
      <trkpt lat="63.41957583" lon="10.3244005">
        <ele>197.36</ele>
        <time>1970-01-01T01:00:00Z</time>
      </trkpt>
      <trkpt lat="63.41957767" lon="10.32443">
        <ele>197.208</ele>
        <time>1970-01-01T01:00:00Z</time>
      </trkpt>
      <trkpt lat="63.4195785" lon="10.32445933">
        <ele>197.208</ele>
        <time>1970-01-01T01:00:00Z</time>
      </trkpt>
      <trkpt lat="63.41957917" lon="10.32448833">
        <ele>197.208</ele>
        <time>1970-01-01T01:00:00Z</time>
      </trkpt>
      <trkpt lat="63.4195805" lon="10.32451483">
        <ele>197.208</ele>
        <time>1970-01-01T01:00:00Z</time>
      </trkpt>
      <trkpt lat="63.41957967" lon="10.32454417">
        <ele>197.056</ele>
        <time>1970-01-01T01:00:00Z</time>
      </trkpt>
      <trkpt lat="63.41957833" lon="10.324573">
        <ele>197.056</ele>
        <time>1970-01-01T01:00:00Z</time>
      </trkpt>
      <trkpt lat="63.41957583" lon="10.32460283">
        <ele>197.056</ele>
        <time>1970-01-01T01:00:00Z</time>
      </trkpt>
      <trkpt lat="63.4195745" lon="10.32462833">
        <ele>197.056</ele>
        <time>1970-01-01T01:00:00Z</time>
      </trkpt>
      <trkpt lat="63.41957317" lon="10.32465483">
        <ele>196.903</ele>
        <time>1970-01-01T01:00:00Z</time>
      </trkpt>
      <trkpt lat="63.4195725" lon="10.32468067">
        <ele>196.903</ele>
        <time>1970-01-01T01:00:00Z</time>
      </trkpt>
      <trkpt lat="63.41957317" lon="10.32470967">
        <ele>196.903</ele>
        <time>1970-01-01T01:00:00Z</time>
      </trkpt>
      <trkpt lat="63.41957383" lon="10.32473517">
        <ele>196.903</ele>
        <time>1970-01-01T01:00:00Z</time>
      </trkpt>
      <trkpt lat="63.4195735" lon="10.32476067">
        <ele>196.751</ele>
        <time>1970-01-01T01:00:00Z</time>
      </trkpt>
      <trkpt lat="63.4195705" lon="10.324782">
        <ele>196.751</ele>
        <time>1970-01-01T01:00:00Z</time>
      </trkpt>
      <trkpt lat="63.41956433" lon="10.32480633">
        <ele>196.446</ele>
        <time>1970-01-01T01:00:00Z</time>
      </trkpt>
      <trkpt lat="63.419558" lon="10.32483183">
        <ele>196.446</ele>
        <time>1970-01-01T01:00:00Z</time>
      </trkpt>
      <trkpt lat="63.41955267" lon="10.32486117">
        <ele>196.294</ele>
        <time>1970-01-01T01:00:00Z</time>
      </trkpt>
      <trkpt lat="63.41954783" lon="10.32489517">
        <ele>196.294</ele>
        <time>1970-01-01T01:00:00Z</time>
      </trkpt>
      <trkpt lat="63.419543" lon="10.32493333">
        <ele>196.141</ele>
        <time>1970-01-01T01:00:00Z</time>
      </trkpt>
      <trkpt lat="63.4195375" lon="10.324967">
        <ele>196.141</ele>
        <time>1970-01-01T01:00:00Z</time>
      </trkpt>
      <trkpt lat="63.41953367" lon="10.32499583">
        <ele>195.989</ele>
        <time>1970-01-01T01:00:00Z</time>
      </trkpt>
      <trkpt lat="63.41953133" lon="10.32502267">
        <ele>195.989</ele>
        <time>1970-01-01T01:00:00Z</time>
      </trkpt>
      <trkpt lat="63.41953217" lon="10.32505283">
        <ele>195.836</ele>
        <time>1970-01-01T01:00:00Z</time>
      </trkpt>
      <trkpt lat="63.41953467" lon="10.32508417">
        <ele>195.836</ele>
        <time>1970-01-01T01:00:00Z</time>
      </trkpt>
      <trkpt lat="63.41953583" lon="10.32511283">
        <ele>195.684</ele>
        <time>1970-01-01T01:00:00Z</time>
      </trkpt>
      <trkpt lat="63.419535" lon="10.32514">
        <ele>195.684</ele>
        <time>1970-01-01T01:00:00Z</time>
      </trkpt>
      <trkpt lat="63.419534" lon="10.32516767">
        <ele>195.532</ele>
        <time>1970-01-01T01:00:00Z</time>
      </trkpt>
      <trkpt lat="63.41953567" lon="10.32520083">
        <ele>195.532</ele>
        <time>1970-01-01T01:00:00Z</time>
      </trkpt>
      <trkpt lat="63.41954033" lon="10.32523583">
        <ele>195.379</ele>
        <time>1970-01-01T01:00:00Z</time>
      </trkpt>
      <trkpt lat="63.41954683" lon="10.32527067">
        <ele>195.379</ele>
        <time>1970-01-01T01:00:00Z</time>
      </trkpt>
      <trkpt lat="63.4195545" lon="10.3253025">
        <ele>195.379</ele>
        <time>1970-01-01T01:00:00Z</time>
      </trkpt>
      <trkpt lat="63.419562" lon="10.32533283">
        <ele>195.379</ele>
        <time>1970-01-01T01:00:00Z</time>
      </trkpt>
      <trkpt lat="63.41957" lon="10.325365">
        <ele>195.227</ele>
        <time>1970-01-01T01:00:00Z</time>
      </trkpt>
      <trkpt lat="63.41957533" lon="10.325395">
        <ele>195.227</ele>
        <time>1970-01-01T01:00:00Z</time>
      </trkpt>
      <trkpt lat="63.41957917" lon="10.32542683">
        <ele>195.074</ele>
        <time>1970-01-01T01:00:00Z</time>
      </trkpt>
      <trkpt lat="63.41958033" lon="10.325457">
        <ele>195.074</ele>
        <time>1970-01-01T01:00:00Z</time>
      </trkpt>
      <trkpt lat="63.41958183" lon="10.32548917">
        <ele>194.922</ele>
        <time>1970-01-01T01:00:00Z</time>
      </trkpt>
      <trkpt lat="63.41958267" lon="10.3255205">
        <ele>194.922</ele>
        <time>1970-01-01T01:00:00Z</time>
      </trkpt>
      <trkpt lat="63.41958317" lon="10.3255535">
        <ele>194.77</ele>
        <time>1970-01-01T01:00:00Z</time>
      </trkpt>
      <trkpt lat="63.419583" lon="10.325583">
        <ele>194.77</ele>
        <time>1970-01-01T01:00:00Z</time>
      </trkpt>
      <trkpt lat="63.41958417" lon="10.32560967">
        <ele>194.465</ele>
        <time>1970-01-01T01:00:00Z</time>
      </trkpt>
      <trkpt lat="63.41958633" lon="10.325635">
        <ele>194.465</ele>
        <time>1970-01-01T01:00:00Z</time>
      </trkpt>
      <trkpt lat="63.41958983" lon="10.32566433">
        <ele>194.312</ele>
        <time>1970-01-01T01:00:00Z</time>
      </trkpt>
      <trkpt lat="63.4195935" lon="10.32569433">
        <ele>194.312</ele>
        <time>1970-01-01T01:00:00Z</time>
      </trkpt>
      <trkpt lat="63.4195985" lon="10.3257225">
        <ele>194.312</ele>
        <time>1970-01-01T01:00:00Z</time>
      </trkpt>
      <trkpt lat="63.41960117" lon="10.325751">
        <ele>194.312</ele>
        <time>1970-01-01T01:00:00Z</time>
      </trkpt>
      <trkpt lat="63.4196005" lon="10.32578367">
        <ele>194.16</ele>
        <time>1970-01-01T01:00:00Z</time>
      </trkpt>
      <trkpt lat="63.41959633" lon="10.32581867">
        <ele>194.16</ele>
        <time>1970-01-01T01:00:00Z</time>
      </trkpt>
      <trkpt lat="63.4195905" lon="10.32585033">
        <ele>194.008</ele>
        <time>1970-01-01T01:00:00Z</time>
      </trkpt>
      <trkpt lat="63.41958217" lon="10.32587233">
        <ele>194.008</ele>
        <time>1970-01-01T01:00:00Z</time>
      </trkpt>
      <trkpt lat="63.41957333" lon="10.32588917">
        <ele>194.008</ele>
        <time>1970-01-01T01:00:00Z</time>
      </trkpt>
      <trkpt lat="63.41956333" lon="10.32590233">
        <ele>194.008</ele>
        <time>1970-01-01T01:00:00Z</time>
      </trkpt>
      <trkpt lat="63.4195555" lon="10.325918">
        <ele>193.855</ele>
        <time>1970-01-01T01:00:00Z</time>
      </trkpt>
      <trkpt lat="63.41954417" lon="10.325933">
        <ele>193.855</ele>
        <time>1970-01-01T01:00:00Z</time>
      </trkpt>
      <trkpt lat="63.41953417" lon="10.32594933">
        <ele>193.855</ele>
        <time>1970-01-01T01:00:00Z</time>
      </trkpt>
      <trkpt lat="63.41952233" lon="10.32596733">
        <ele>193.855</ele>
        <time>1970-01-01T01:00:00Z</time>
      </trkpt>
      <trkpt lat="63.4195135" lon="10.3259885">
        <ele>193.855</ele>
        <time>1970-01-01T01:00:00Z</time>
      </trkpt>
      <trkpt lat="63.41950267" lon="10.32600883">
        <ele>193.855</ele>
        <time>1970-01-01T01:00:00Z</time>
      </trkpt>
      <trkpt lat="63.41949233" lon="10.326027">
        <ele>193.855</ele>
        <time>1970-01-01T01:00:00Z</time>
      </trkpt>
      <trkpt lat="63.4194805" lon="10.326044">
        <ele>193.855</ele>
        <time>1970-01-01T01:00:00Z</time>
      </trkpt>
      <trkpt lat="63.41946933" lon="10.32606017">
        <ele>193.703</ele>
        <time>1970-01-01T01:00:00Z</time>
      </trkpt>
      <trkpt lat="63.41945783" lon="10.32607767">
        <ele>193.703</ele>
        <time>1970-01-01T01:00:00Z</time>
      </trkpt>
      <trkpt lat="63.41944567" lon="10.32609333">
        <ele>193.703</ele>
        <time>1970-01-01T01:00:00Z</time>
      </trkpt>
      <trkpt lat="63.419432" lon="10.32610883">
        <ele>193.703</ele>
        <time>1970-01-01T01:00:00Z</time>
      </trkpt>
      <trkpt lat="63.4194185" lon="10.326123">
        <ele>193.55</ele>
        <time>1970-01-01T01:00:00Z</time>
      </trkpt>
      <trkpt lat="63.41940717" lon="10.32613483">
        <ele>193.55</ele>
        <time>1970-01-01T01:00:00Z</time>
      </trkpt>
      <trkpt lat="63.41939667" lon="10.326144">
        <ele>193.398</ele>
        <time>1970-01-01T01:00:00Z</time>
      </trkpt>
      <trkpt lat="63.41938717" lon="10.32614833">
        <ele>193.398</ele>
        <time>1970-01-01T01:00:00Z</time>
      </trkpt>
      <trkpt lat="63.4193775" lon="10.3261535">
        <ele>193.398</ele>
        <time>1970-01-01T01:00:00Z</time>
      </trkpt>
      <trkpt lat="63.41936783" lon="10.32616033">
        <ele>193.398</ele>
        <time>1970-01-01T01:00:00Z</time>
      </trkpt>
      <trkpt lat="63.41935717" lon="10.326169">
        <ele>193.246</ele>
        <time>1970-01-01T01:00:00Z</time>
      </trkpt>
      <trkpt lat="63.419347" lon="10.32617567">
        <ele>193.246</ele>
        <time>1970-01-01T01:00:00Z</time>
      </trkpt>
      <trkpt lat="63.41933683" lon="10.32618067">
        <ele>193.093</ele>
        <time>1970-01-01T01:00:00Z</time>
      </trkpt>
      <trkpt lat="63.41932633" lon="10.326183">
        <ele>193.093</ele>
        <time>1970-01-01T01:00:00Z</time>
      </trkpt>
      <trkpt lat="63.41931333" lon="10.326184">
        <ele>192.941</ele>
        <time>1970-01-01T01:00:00Z</time>
      </trkpt>
      <trkpt lat="63.419301" lon="10.32618267">
        <ele>192.941</ele>
        <time>1970-01-01T01:00:00Z</time>
      </trkpt>
      <trkpt lat="63.41929017" lon="10.326181">
        <ele>192.788</ele>
        <time>1970-01-01T01:00:00Z</time>
      </trkpt>
      <trkpt lat="63.41928117" lon="10.32617867">
        <ele>192.788</ele>
        <time>1970-01-01T01:00:00Z</time>
      </trkpt>
      <trkpt lat="63.41927267" lon="10.3261765">
        <ele>192.636</ele>
        <time>1970-01-01T01:00:00Z</time>
      </trkpt>
      <trkpt lat="63.41926217" lon="10.32617633">
        <ele>192.636</ele>
        <time>1970-01-01T01:00:00Z</time>
      </trkpt>
      <trkpt lat="63.4192505" lon="10.32617983">
        <ele>192.484</ele>
        <time>1970-01-01T01:00:00Z</time>
      </trkpt>
      <trkpt lat="63.41923633" lon="10.32618183">
        <ele>192.484</ele>
        <time>1970-01-01T01:00:00Z</time>
      </trkpt>
      <trkpt lat="63.41922317" lon="10.326184">
        <ele>192.484</ele>
        <time>1970-01-01T01:00:00Z</time>
      </trkpt>
      <trkpt lat="63.41920983" lon="10.32618083">
        <ele>192.484</ele>
        <time>1970-01-01T01:00:00Z</time>
      </trkpt>
      <trkpt lat="63.41919667" lon="10.32617733">
        <ele>192.331</ele>
        <time>1970-01-01T01:00:00Z</time>
      </trkpt>
      <trkpt lat="63.41918117" lon="10.32617133">
        <ele>192.331</ele>
        <time>1970-01-01T01:00:00Z</time>
      </trkpt>
      <trkpt lat="63.41916333" lon="10.32616867">
        <ele>192.331</ele>
        <time>1970-01-01T01:00:00Z</time>
      </trkpt>
      <trkpt lat="63.41914567" lon="10.32617133">
        <ele>192.331</ele>
        <time>1970-01-01T01:00:00Z</time>
      </trkpt>
      <trkpt lat="63.41912967" lon="10.32617583">
        <ele>192.484</ele>
        <time>1970-01-01T01:00:00Z</time>
      </trkpt>
      <trkpt lat="63.41911467" lon="10.32617867">
        <ele>192.484</ele>
        <time>1970-01-01T01:00:00Z</time>
      </trkpt>
      <trkpt lat="63.41909667" lon="10.3261755">
        <ele>192.484</ele>
        <time>1970-01-01T01:00:00Z</time>
      </trkpt>
      <trkpt lat="63.41907333" lon="10.32617317">
        <ele>192.484</ele>
        <time>1970-01-01T01:00:00Z</time>
      </trkpt>
      <trkpt lat="63.419051" lon="10.32617133">
        <ele>192.484</ele>
        <time>1970-01-01T01:00:00Z</time>
      </trkpt>
      <trkpt lat="63.4190315" lon="10.32617167">
        <ele>192.484</ele>
        <time>1970-01-01T01:00:00Z</time>
      </trkpt>
      <trkpt lat="63.41901733" lon="10.32616983">
        <ele>192.484</ele>
        <time>1970-01-01T01:00:00Z</time>
      </trkpt>
      <trkpt lat="63.419004" lon="10.32616617">
        <ele>192.484</ele>
        <time>1970-01-01T01:00:00Z</time>
      </trkpt>
      <trkpt lat="63.4189875" lon="10.32616567">
        <ele>192.484</ele>
        <time>1970-01-01T01:00:00Z</time>
      </trkpt>
      <trkpt lat="63.41897117" lon="10.32616417">
        <ele>192.484</ele>
        <time>1970-01-01T01:00:00Z</time>
      </trkpt>
      <trkpt lat="63.41895567" lon="10.32616567">
        <ele>192.484</ele>
        <time>1970-01-01T01:00:00Z</time>
      </trkpt>
      <trkpt lat="63.418945" lon="10.32616533">
        <ele>192.484</ele>
        <time>1970-01-01T01:00:00Z</time>
      </trkpt>
      <trkpt lat="63.41893567" lon="10.32616667">
        <ele>192.331</ele>
        <time>1970-01-01T01:00:00Z</time>
      </trkpt>
      <trkpt lat="63.41892567" lon="10.3261685">
        <ele>192.331</ele>
        <time>1970-01-01T01:00:00Z</time>
      </trkpt>
      <trkpt lat="63.41891283" lon="10.32617433">
        <ele>192.331</ele>
        <time>1970-01-01T01:00:00Z</time>
      </trkpt>
      <trkpt lat="63.4188985" lon="10.32618567">
        <ele>192.331</ele>
        <time>1970-01-01T01:00:00Z</time>
      </trkpt>
      <trkpt lat="63.41888467" lon="10.32619783">
        <ele>192.331</ele>
        <time>1970-01-01T01:00:00Z</time>
      </trkpt>
      <trkpt lat="63.4188735" lon="10.3262095">
        <ele>192.331</ele>
        <time>1970-01-01T01:00:00Z</time>
      </trkpt>
      <trkpt lat="63.41886233" lon="10.3262175">
        <ele>192.179</ele>
        <time>1970-01-01T01:00:00Z</time>
      </trkpt>
      <trkpt lat="63.41885083" lon="10.326226">
        <ele>192.179</ele>
        <time>1970-01-01T01:00:00Z</time>
      </trkpt>
      <trkpt lat="63.41883933" lon="10.3262345">
        <ele>192.179</ele>
        <time>1970-01-01T01:00:00Z</time>
      </trkpt>
      <trkpt lat="63.418829" lon="10.32624667">
        <ele>192.179</ele>
        <time>1970-01-01T01:00:00Z</time>
      </trkpt>
      <trkpt lat="63.41881983" lon="10.32625933">
        <ele>192.026</ele>
        <time>1970-01-01T01:00:00Z</time>
      </trkpt>
      <trkpt lat="63.418813" lon="10.3262715">
        <ele>192.026</ele>
        <time>1970-01-01T01:00:00Z</time>
      </trkpt>
      <trkpt lat="63.4188065" lon="10.32628517">
        <ele>191.874</ele>
        <time>1970-01-01T01:00:00Z</time>
      </trkpt>
      <trkpt lat="63.41879917" lon="10.32630083">
        <ele>191.874</ele>
        <time>1970-01-01T01:00:00Z</time>
      </trkpt>
      <trkpt lat="63.41878967" lon="10.32631583">
        <ele>191.722</ele>
        <time>1970-01-01T01:00:00Z</time>
      </trkpt>
      <trkpt lat="63.41877883" lon="10.32632817">
        <ele>191.722</ele>
        <time>1970-01-01T01:00:00Z</time>
      </trkpt>
      <trkpt lat="63.41876717" lon="10.3263385">
        <ele>191.722</ele>
        <time>1970-01-01T01:00:00Z</time>
      </trkpt>
      <trkpt lat="63.41875583" lon="10.326354">
        <ele>191.722</ele>
        <time>1970-01-01T01:00:00Z</time>
      </trkpt>
      <trkpt lat="63.418742" lon="10.32637317">
        <ele>191.569</ele>
        <time>1970-01-01T01:00:00Z</time>
      </trkpt>
      <trkpt lat="63.41872767" lon="10.32639333">
        <ele>191.569</ele>
        <time>1970-01-01T01:00:00Z</time>
      </trkpt>
      <trkpt lat="63.41871117" lon="10.32641817">
        <ele>191.417</ele>
        <time>1970-01-01T01:00:00Z</time>
      </trkpt>
      <trkpt lat="63.41869517" lon="10.326447">
        <ele>191.417</ele>
        <time>1970-01-01T01:00:00Z</time>
      </trkpt>
      <trkpt lat="63.41868067" lon="10.32647733">
        <ele>191.264</ele>
        <time>1970-01-01T01:00:00Z</time>
      </trkpt>
      <trkpt lat="63.41866867" lon="10.32650483">
        <ele>191.264</ele>
        <time>1970-01-01T01:00:00Z</time>
      </trkpt>
      <trkpt lat="63.41865967" lon="10.326531">
        <ele>191.112</ele>
        <time>1970-01-01T01:00:00Z</time>
      </trkpt>
      <trkpt lat="63.41865" lon="10.32656333">
        <ele>191.112</ele>
        <time>1970-01-01T01:00:00Z</time>
      </trkpt>
      <trkpt lat="63.41864" lon="10.32659367">
        <ele>190.96</ele>
        <time>1970-01-01T01:00:00Z</time>
      </trkpt>
      <trkpt lat="63.41863117" lon="10.32662683">
        <ele>190.96</ele>
        <time>1970-01-01T01:00:00Z</time>
      </trkpt>
      <trkpt lat="63.41862633" lon="10.3266565">
        <ele>190.96</ele>
        <time>1970-01-01T01:00:00Z</time>
      </trkpt>
      <trkpt lat="63.418622" lon="10.3266865">
        <ele>190.96</ele>
        <time>1970-01-01T01:00:00Z</time>
      </trkpt>
      <trkpt lat="63.41861817" lon="10.326713">
        <ele>190.96</ele>
        <time>1970-01-01T01:00:00Z</time>
      </trkpt>
      <trkpt lat="63.41861383" lon="10.32674067">
        <ele>190.96</ele>
        <time>1970-01-01T01:00:00Z</time>
      </trkpt>
      <trkpt lat="63.41861033" lon="10.32676667">
        <ele>190.807</ele>
        <time>1970-01-01T01:00:00Z</time>
      </trkpt>
      <trkpt lat="63.41860483" lon="10.32679">
        <ele>190.807</ele>
        <time>1970-01-01T01:00:00Z</time>
      </trkpt>
      <trkpt lat="63.41859733" lon="10.32680683">
        <ele>190.807</ele>
        <time>1970-01-01T01:00:00Z</time>
      </trkpt>
      <trkpt lat="63.41858967" lon="10.3268245">
        <ele>190.807</ele>
        <time>1970-01-01T01:00:00Z</time>
      </trkpt>
      <trkpt lat="63.41858133" lon="10.32683967">
        <ele>190.655</ele>
        <time>1970-01-01T01:00:00Z</time>
      </trkpt>
      <trkpt lat="63.41857167" lon="10.32685533">
        <ele>190.655</ele>
        <time>1970-01-01T01:00:00Z</time>
      </trkpt>
      <trkpt lat="63.4185595" lon="10.326869">
        <ele>190.502</ele>
        <time>1970-01-01T01:00:00Z</time>
      </trkpt>
      <trkpt lat="63.4185475" lon="10.3268845">
        <ele>190.502</ele>
        <time>1970-01-01T01:00:00Z</time>
      </trkpt>
      <trkpt lat="63.41853467" lon="10.326902">
        <ele>190.35</ele>
        <time>1970-01-01T01:00:00Z</time>
      </trkpt>
      <trkpt lat="63.4185185" lon="10.32691767">
        <ele>190.35</ele>
        <time>1970-01-01T01:00:00Z</time>
      </trkpt>
      <trkpt lat="63.41849967" lon="10.32692867">
        <ele>190.198</ele>
        <time>1970-01-01T01:00:00Z</time>
      </trkpt>
      <trkpt lat="63.41848167" lon="10.32693733">
        <ele>190.198</ele>
        <time>1970-01-01T01:00:00Z</time>
      </trkpt>
      <trkpt lat="63.4184655" lon="10.32694883">
        <ele>189.893</ele>
        <time>1970-01-01T01:00:00Z</time>
      </trkpt>
      <trkpt lat="63.41845067" lon="10.32696333">
        <ele>189.893</ele>
        <time>1970-01-01T01:00:00Z</time>
      </trkpt>
      <trkpt lat="63.41843733" lon="10.32697833">
        <ele>189.74</ele>
        <time>1970-01-01T01:00:00Z</time>
      </trkpt>
      <trkpt lat="63.41842683" lon="10.32699217">
        <ele>189.74</ele>
        <time>1970-01-01T01:00:00Z</time>
      </trkpt>
      <trkpt lat="63.41842017" lon="10.32701383">
        <ele>189.436</ele>
        <time>1970-01-01T01:00:00Z</time>
      </trkpt>
      <trkpt lat="63.41841517" lon="10.32703767">
        <ele>189.436</ele>
        <time>1970-01-01T01:00:00Z</time>
      </trkpt>
      <trkpt lat="63.41841183" lon="10.32706517">
        <ele>189.131</ele>
        <time>1970-01-01T01:00:00Z</time>
      </trkpt>
      <trkpt lat="63.41841017" lon="10.32708683">
        <ele>189.131</ele>
        <time>1970-01-01T01:00:00Z</time>
      </trkpt>
      <trkpt lat="63.418408" lon="10.3271105">
        <ele>188.826</ele>
        <time>1970-01-01T01:00:00Z</time>
      </trkpt>
      <trkpt lat="63.41840517" lon="10.3271325">
        <ele>188.826</ele>
        <time>1970-01-01T01:00:00Z</time>
      </trkpt>
      <trkpt lat="63.41839967" lon="10.32715767">
        <ele>188.521</ele>
        <time>1970-01-01T01:00:00Z</time>
      </trkpt>
      <trkpt lat="63.41839417" lon="10.32718333">
        <ele>188.521</ele>
        <time>1970-01-01T01:00:00Z</time>
      </trkpt>
      <trkpt lat="63.41838817" lon="10.3272095">
        <ele>188.216</ele>
        <time>1970-01-01T01:00:00Z</time>
      </trkpt>
      <trkpt lat="63.41838333" lon="10.32723267">
        <ele>188.216</ele>
        <time>1970-01-01T01:00:00Z</time>
      </trkpt>
      <trkpt lat="63.418378" lon="10.32725317">
        <ele>187.911</ele>
        <time>1970-01-01T01:00:00Z</time>
      </trkpt>
      <trkpt lat="63.418374" lon="10.32727167">
        <ele>187.911</ele>
        <time>1970-01-01T01:00:00Z</time>
      </trkpt>
      <trkpt lat="63.41837117" lon="10.32728867">
        <ele>187.607</ele>
        <time>1970-01-01T01:00:00Z</time>
      </trkpt>
      <trkpt lat="63.41836983" lon="10.32731067">
        <ele>187.607</ele>
        <time>1970-01-01T01:00:00Z</time>
      </trkpt>
      <trkpt lat="63.41837017" lon="10.32734567">
        <ele>187.302</ele>
        <time>1970-01-01T01:00:00Z</time>
      </trkpt>
      <trkpt lat="63.41836817" lon="10.32738983">
        <ele>187.302</ele>
        <time>1970-01-01T01:00:00Z</time>
      </trkpt>
      <trkpt lat="63.41836483" lon="10.32743417">
        <ele>187.149</ele>
        <time>1970-01-01T01:00:00Z</time>
      </trkpt>
      <trkpt lat="63.4183575" lon="10.3274715">
        <ele>187.149</ele>
        <time>1970-01-01T01:00:00Z</time>
      </trkpt>
      <trkpt lat="63.41834967" lon="10.3275035">
        <ele>186.845</ele>
        <time>1970-01-01T01:00:00Z</time>
      </trkpt>
      <trkpt lat="63.41834033" lon="10.3275335">
        <ele>186.845</ele>
        <time>1970-01-01T01:00:00Z</time>
      </trkpt>
      <trkpt lat="63.41833033" lon="10.32755933">
        <ele>186.692</ele>
        <time>1970-01-01T01:00:00Z</time>
      </trkpt>
      <trkpt lat="63.41831983" lon="10.32758633">
        <ele>186.692</ele>
        <time>1970-01-01T01:00:00Z</time>
      </trkpt>
      <trkpt lat="63.41830983" lon="10.32761367">
        <ele>186.387</ele>
        <time>1970-01-01T01:00:00Z</time>
      </trkpt>
      <trkpt lat="63.4182995" lon="10.32764133">
        <ele>186.387</ele>
        <time>1970-01-01T01:00:00Z</time>
      </trkpt>
      <trkpt lat="63.41828917" lon="10.3276685">
        <ele>186.235</ele>
        <time>1970-01-01T01:00:00Z</time>
      </trkpt>
      <trkpt lat="63.4182765" lon="10.32768883">
        <ele>186.235</ele>
        <time>1970-01-01T01:00:00Z</time>
      </trkpt>
      <trkpt lat="63.41826333" lon="10.327711">
        <ele>186.083</ele>
        <time>1970-01-01T01:00:00Z</time>
      </trkpt>
      <trkpt lat="63.41824917" lon="10.32773317">
        <ele>186.083</ele>
        <time>1970-01-01T01:00:00Z</time>
      </trkpt>
      <trkpt lat="63.418237" lon="10.3277585">
        <ele>185.778</ele>
        <time>1970-01-01T01:00:00Z</time>
      </trkpt>
      <trkpt lat="63.41822617" lon="10.327784">
        <ele>185.778</ele>
        <time>1970-01-01T01:00:00Z</time>
      </trkpt>
      <trkpt lat="63.41821683" lon="10.32780917">
        <ele>185.473</ele>
        <time>1970-01-01T01:00:00Z</time>
      </trkpt>
      <trkpt lat="63.41821" lon="10.32784217">
        <ele>185.473</ele>
        <time>1970-01-01T01:00:00Z</time>
      </trkpt>
      <trkpt lat="63.41820467" lon="10.32787383">
        <ele>185.321</ele>
        <time>1970-01-01T01:00:00Z</time>
      </trkpt>
      <trkpt lat="63.4182015" lon="10.32790517">
        <ele>185.321</ele>
        <time>1970-01-01T01:00:00Z</time>
      </trkpt>
      <trkpt lat="63.41819683" lon="10.32793283">
        <ele>185.016</ele>
        <time>1970-01-01T01:00:00Z</time>
      </trkpt>
      <trkpt lat="63.41819133" lon="10.327964">
        <ele>185.016</ele>
        <time>1970-01-01T01:00:00Z</time>
      </trkpt>
      <trkpt lat="63.418184" lon="10.32799967">
        <ele>184.863</ele>
        <time>1970-01-01T01:00:00Z</time>
      </trkpt>
      <trkpt lat="63.418178" lon="10.32803483">
        <ele>184.863</ele>
        <time>1970-01-01T01:00:00Z</time>
      </trkpt>
      <trkpt lat="63.41817383" lon="10.32806683">
        <ele>184.711</ele>
        <time>1970-01-01T01:00:00Z</time>
      </trkpt>
      <trkpt lat="63.41816967" lon="10.32809817">
        <ele>184.711</ele>
        <time>1970-01-01T01:00:00Z</time>
      </trkpt>
      <trkpt lat="63.4181655" lon="10.32813067">
        <ele>184.559</ele>
        <time>1970-01-01T01:00:00Z</time>
      </trkpt>
      <trkpt lat="63.4181605" lon="10.3281635">
        <ele>184.559</ele>
        <time>1970-01-01T01:00:00Z</time>
      </trkpt>
      <trkpt lat="63.418157" lon="10.32819567">
        <ele>184.406</ele>
        <time>1970-01-01T01:00:00Z</time>
      </trkpt>
      <trkpt lat="63.418153" lon="10.32822617">
        <ele>184.406</ele>
        <time>1970-01-01T01:00:00Z</time>
      </trkpt>
      <trkpt lat="63.41814733" lon="10.32825967">
        <ele>184.254</ele>
        <time>1970-01-01T01:00:00Z</time>
      </trkpt>
      <trkpt lat="63.41814133" lon="10.32828967">
        <ele>184.254</ele>
        <time>1970-01-01T01:00:00Z</time>
      </trkpt>
      <trkpt lat="63.41813433" lon="10.328318">
        <ele>184.254</ele>
        <time>1970-01-01T01:00:00Z</time>
      </trkpt>
      <trkpt lat="63.4181285" lon="10.32834383">
        <ele>184.254</ele>
        <time>1970-01-01T01:00:00Z</time>
      </trkpt>
      <trkpt lat="63.418123" lon="10.32837333">
        <ele>184.101</ele>
        <time>1970-01-01T01:00:00Z</time>
      </trkpt>
      <trkpt lat="63.41811867" lon="10.32840733">
        <ele>184.101</ele>
        <time>1970-01-01T01:00:00Z</time>
      </trkpt>
      <trkpt lat="63.418115" lon="10.3284445">
        <ele>183.949</ele>
        <time>1970-01-01T01:00:00Z</time>
      </trkpt>
      <trkpt lat="63.4181115" lon="10.32848017">
        <ele>183.949</ele>
        <time>1970-01-01T01:00:00Z</time>
      </trkpt>
      <trkpt lat="63.41810783" lon="10.32851433">
        <ele>183.949</ele>
        <time>1970-01-01T01:00:00Z</time>
      </trkpt>
      <trkpt lat="63.41810417" lon="10.32854433">
        <ele>183.949</ele>
        <time>1970-01-01T01:00:00Z</time>
      </trkpt>
      <trkpt lat="63.41809983" lon="10.32857533">
        <ele>183.797</ele>
        <time>1970-01-01T01:00:00Z</time>
      </trkpt>
      <trkpt lat="63.418098" lon="10.3286065">
        <ele>183.797</ele>
        <time>1970-01-01T01:00:00Z</time>
      </trkpt>
      <trkpt lat="63.4180955" lon="10.32863967">
        <ele>183.797</ele>
        <time>1970-01-01T01:00:00Z</time>
      </trkpt>
      <trkpt lat="63.41809567" lon="10.328669">
        <ele>183.797</ele>
        <time>1970-01-01T01:00:00Z</time>
      </trkpt>
      <trkpt lat="63.418095" lon="10.32869317">
        <ele>183.644</ele>
        <time>1970-01-01T01:00:00Z</time>
      </trkpt>
      <trkpt lat="63.41809467" lon="10.32871667">
        <ele>183.644</ele>
        <time>1970-01-01T01:00:00Z</time>
      </trkpt>
      <trkpt lat="63.4180935" lon="10.32874217">
        <ele>183.644</ele>
        <time>1970-01-01T01:00:00Z</time>
      </trkpt>
      <trkpt lat="63.4180925" lon="10.32877267">
        <ele>183.644</ele>
        <time>1970-01-01T01:00:00Z</time>
      </trkpt>
      <trkpt lat="63.41809217" lon="10.32880067">
        <ele>183.644</ele>
        <time>1970-01-01T01:00:00Z</time>
      </trkpt>
      <trkpt lat="63.418092" lon="10.328829">
        <ele>183.644</ele>
        <time>1970-01-01T01:00:00Z</time>
      </trkpt>
      <trkpt lat="63.41809267" lon="10.32885867">
        <ele>183.492</ele>
        <time>1970-01-01T01:00:00Z</time>
      </trkpt>
      <trkpt lat="63.41809433" lon="10.32889083">
        <ele>183.492</ele>
        <time>1970-01-01T01:00:00Z</time>
      </trkpt>
      <trkpt lat="63.4180955" lon="10.32892483">
        <ele>183.492</ele>
        <time>1970-01-01T01:00:00Z</time>
      </trkpt>
      <trkpt lat="63.41809533" lon="10.32895633">
        <ele>183.492</ele>
        <time>1970-01-01T01:00:00Z</time>
      </trkpt>
      <trkpt lat="63.41809417" lon="10.32898283">
        <ele>183.339</ele>
        <time>1970-01-01T01:00:00Z</time>
      </trkpt>
      <trkpt lat="63.41809367" lon="10.32900483">
        <ele>183.339</ele>
        <time>1970-01-01T01:00:00Z</time>
      </trkpt>
      <trkpt lat="63.418093" lon="10.32902383">
        <ele>183.339</ele>
        <time>1970-01-01T01:00:00Z</time>
      </trkpt>
      <trkpt lat="63.4180925" lon="10.3290445">
        <ele>183.339</ele>
        <time>1970-01-01T01:00:00Z</time>
      </trkpt>
      <trkpt lat="63.418093" lon="10.32906783">
        <ele>183.187</ele>
        <time>1970-01-01T01:00:00Z</time>
      </trkpt>
      <trkpt lat="63.41809367" lon="10.329092">
        <ele>183.187</ele>
        <time>1970-01-01T01:00:00Z</time>
      </trkpt>
      <trkpt lat="63.41809383" lon="10.32911967">
        <ele>183.187</ele>
        <time>1970-01-01T01:00:00Z</time>
      </trkpt>
      <trkpt lat="63.41809283" lon="10.32914783">
        <ele>183.187</ele>
        <time>1970-01-01T01:00:00Z</time>
      </trkpt>
      <trkpt lat="63.41809183" lon="10.32918317">
        <ele>183.035</ele>
        <time>1970-01-01T01:00:00Z</time>
      </trkpt>
      <trkpt lat="63.41809017" lon="10.32922083">
        <ele>183.035</ele>
        <time>1970-01-01T01:00:00Z</time>
      </trkpt>
      <trkpt lat="63.418088" lon="10.3292605">
        <ele>182.882</ele>
        <time>1970-01-01T01:00:00Z</time>
      </trkpt>
      <trkpt lat="63.4180845" lon="10.3292905">
        <ele>182.882</ele>
        <time>1970-01-01T01:00:00Z</time>
      </trkpt>
      <trkpt lat="63.4180795" lon="10.32931767">
        <ele>182.73</ele>
        <time>1970-01-01T01:00:00Z</time>
      </trkpt>
      <trkpt lat="63.41807367" lon="10.32934117">
        <ele>182.73</ele>
        <time>1970-01-01T01:00:00Z</time>
      </trkpt>
      <trkpt lat="63.418067" lon="10.32937267">
        <ele>182.73</ele>
        <time>1970-01-01T01:00:00Z</time>
      </trkpt>
      <trkpt lat="63.418061" lon="10.32940233">
        <ele>182.73</ele>
        <time>1970-01-01T01:00:00Z</time>
      </trkpt>
      <trkpt lat="63.41805533" lon="10.32943167">
        <ele>182.577</ele>
        <time>1970-01-01T01:00:00Z</time>
      </trkpt>
      <trkpt lat="63.41805" lon="10.32945983">
        <ele>182.577</ele>
        <time>1970-01-01T01:00:00Z</time>
      </trkpt>
      <trkpt lat="63.4180445" lon="10.32948633">
        <ele>182.577</ele>
        <time>1970-01-01T01:00:00Z</time>
      </trkpt>
      <trkpt lat="63.41803833" lon="10.32951083">
        <ele>182.577</ele>
        <time>1970-01-01T01:00:00Z</time>
      </trkpt>
      <trkpt lat="63.41803217" lon="10.329533">
        <ele>182.425</ele>
        <time>1970-01-01T01:00:00Z</time>
      </trkpt>
      <trkpt lat="63.418025" lon="10.329556">
        <ele>182.425</ele>
        <time>1970-01-01T01:00:00Z</time>
      </trkpt>
      <trkpt lat="63.41801667" lon="10.32958067">
        <ele>182.425</ele>
        <time>1970-01-01T01:00:00Z</time>
      </trkpt>
      <trkpt lat="63.4180075" lon="10.32960217">
        <ele>182.425</ele>
        <time>1970-01-01T01:00:00Z</time>
      </trkpt>
      <trkpt lat="63.41799767" lon="10.32962233">
        <ele>182.273</ele>
        <time>1970-01-01T01:00:00Z</time>
      </trkpt>
      <trkpt lat="63.41798783" lon="10.32964083">
        <ele>182.273</ele>
        <time>1970-01-01T01:00:00Z</time>
      </trkpt>
      <trkpt lat="63.41797717" lon="10.32965917">
        <ele>182.12</ele>
        <time>1970-01-01T01:00:00Z</time>
      </trkpt>
      <trkpt lat="63.417969" lon="10.32967767">
        <ele>182.12</ele>
        <time>1970-01-01T01:00:00Z</time>
      </trkpt>
      <trkpt lat="63.417961" lon="10.3296995">
        <ele>181.968</ele>
        <time>1970-01-01T01:00:00Z</time>
      </trkpt>
      <trkpt lat="63.41795333" lon="10.32972333">
        <ele>181.968</ele>
        <time>1970-01-01T01:00:00Z</time>
      </trkpt>
      <trkpt lat="63.41794433" lon="10.3297465">
        <ele>181.815</ele>
        <time>1970-01-01T01:00:00Z</time>
      </trkpt>
      <trkpt lat="63.41793333" lon="10.329765">
        <ele>181.815</ele>
        <time>1970-01-01T01:00:00Z</time>
      </trkpt>
      <trkpt lat="63.41792383" lon="10.32978117">
        <ele>181.663</ele>
        <time>1970-01-01T01:00:00Z</time>
      </trkpt>
      <trkpt lat="63.417912" lon="10.32980033">
        <ele>181.663</ele>
        <time>1970-01-01T01:00:00Z</time>
      </trkpt>
      <trkpt lat="63.4179015" lon="10.329824">
        <ele>181.511</ele>
        <time>1970-01-01T01:00:00Z</time>
      </trkpt>
      <trkpt lat="63.41789117" lon="10.32984867">
        <ele>181.511</ele>
        <time>1970-01-01T01:00:00Z</time>
      </trkpt>
      <trkpt lat="63.41788433" lon="10.3298705">
        <ele>181.358</ele>
        <time>1970-01-01T01:00:00Z</time>
      </trkpt>
      <trkpt lat="63.417879" lon="10.32989067">
        <ele>181.358</ele>
        <time>1970-01-01T01:00:00Z</time>
      </trkpt>
      <trkpt lat="63.417872" lon="10.3299125">
        <ele>181.053</ele>
        <time>1970-01-01T01:00:00Z</time>
      </trkpt>
      <trkpt lat="63.417865" lon="10.32993233">
        <ele>181.053</ele>
        <time>1970-01-01T01:00:00Z</time>
      </trkpt>
      <trkpt lat="63.41785933" lon="10.329955">
        <ele>180.901</ele>
        <time>1970-01-01T01:00:00Z</time>
      </trkpt>
      <trkpt lat="63.4178555" lon="10.32997417">
        <ele>180.901</ele>
        <time>1970-01-01T01:00:00Z</time>
      </trkpt>
      <trkpt lat="63.4178505" lon="10.329999">
        <ele>180.596</ele>
        <time>1970-01-01T01:00:00Z</time>
      </trkpt>
      <trkpt lat="63.41784433" lon="10.330023">
        <ele>180.596</ele>
        <time>1970-01-01T01:00:00Z</time>
      </trkpt>
      <trkpt lat="63.41783767" lon="10.33005167">
        <ele>180.291</ele>
        <time>1970-01-01T01:00:00Z</time>
      </trkpt>
      <trkpt lat="63.41782933" lon="10.33008583">
        <ele>180.291</ele>
        <time>1970-01-01T01:00:00Z</time>
      </trkpt>
      <trkpt lat="63.41782267" lon="10.33012267">
        <ele>179.987</ele>
        <time>1970-01-01T01:00:00Z</time>
      </trkpt>
      <trkpt lat="63.41781617" lon="10.33016017">
        <ele>179.987</ele>
        <time>1970-01-01T01:00:00Z</time>
      </trkpt>
      <trkpt lat="63.41781183" lon="10.33018983">
        <ele>179.682</ele>
        <time>1970-01-01T01:00:00Z</time>
      </trkpt>
      <trkpt lat="63.41780417" lon="10.33021617">
        <ele>179.682</ele>
        <time>1970-01-01T01:00:00Z</time>
      </trkpt>
      <trkpt lat="63.417796" lon="10.33024083">
        <ele>179.225</ele>
        <time>1970-01-01T01:00:00Z</time>
      </trkpt>
      <trkpt lat="63.4177885" lon="10.33026617">
        <ele>179.225</ele>
        <time>1970-01-01T01:00:00Z</time>
      </trkpt>
      <trkpt lat="63.41778383" lon="10.33029267">
        <ele>178.92</ele>
        <time>1970-01-01T01:00:00Z</time>
      </trkpt>
      <trkpt lat="63.4177805" lon="10.330325">
        <ele>178.92</ele>
        <time>1970-01-01T01:00:00Z</time>
      </trkpt>
      <trkpt lat="63.4177785" lon="10.33035867">
        <ele>178.615</ele>
        <time>1970-01-01T01:00:00Z</time>
      </trkpt>
      <trkpt lat="63.41777617" lon="10.330391">
        <ele>178.615</ele>
        <time>1970-01-01T01:00:00Z</time>
      </trkpt>
      <trkpt lat="63.41777617" lon="10.33042033">
        <ele>178.31</ele>
        <time>1970-01-01T01:00:00Z</time>
      </trkpt>
      <trkpt lat="63.41777783" lon="10.33044867">
        <ele>178.31</ele>
        <time>1970-01-01T01:00:00Z</time>
      </trkpt>
      <trkpt lat="63.4177785" lon="10.3304775">
        <ele>178.005</ele>
        <time>1970-01-01T01:00:00Z</time>
      </trkpt>
      <trkpt lat="63.41777733" lon="10.33050533">
        <ele>178.005</ele>
        <time>1970-01-01T01:00:00Z</time>
      </trkpt>
      <trkpt lat="63.41777367" lon="10.33053583">
        <ele>177.701</ele>
        <time>1970-01-01T01:00:00Z</time>
      </trkpt>
      <trkpt lat="63.41777083" lon="10.33056833">
        <ele>177.701</ele>
        <time>1970-01-01T01:00:00Z</time>
      </trkpt>
      <trkpt lat="63.41776833" lon="10.33059967">
        <ele>177.396</ele>
        <time>1970-01-01T01:00:00Z</time>
      </trkpt>
      <trkpt lat="63.41776467" lon="10.33063333">
        <ele>177.396</ele>
        <time>1970-01-01T01:00:00Z</time>
      </trkpt>
      <trkpt lat="63.41775917" lon="10.33066633">
        <ele>177.091</ele>
        <time>1970-01-01T01:00:00Z</time>
      </trkpt>
      <trkpt lat="63.4177525" lon="10.33070217">
        <ele>177.091</ele>
        <time>1970-01-01T01:00:00Z</time>
      </trkpt>
      <trkpt lat="63.41774517" lon="10.33073767">
        <ele>176.786</ele>
        <time>1970-01-01T01:00:00Z</time>
      </trkpt>
      <trkpt lat="63.417737" lon="10.33077233">
        <ele>176.786</ele>
        <time>1970-01-01T01:00:00Z</time>
      </trkpt>
      <trkpt lat="63.41772483" lon="10.33080033">
        <ele>176.481</ele>
        <time>1970-01-01T01:00:00Z</time>
      </trkpt>
      <trkpt lat="63.41771233" lon="10.33082233">
        <ele>176.481</ele>
        <time>1970-01-01T01:00:00Z</time>
      </trkpt>
      <trkpt lat="63.41769983" lon="10.33084167">
        <ele>176.329</ele>
        <time>1970-01-01T01:00:00Z</time>
      </trkpt>
      <trkpt lat="63.417691" lon="10.33086083">
        <ele>176.329</ele>
        <time>1970-01-01T01:00:00Z</time>
      </trkpt>
      <trkpt lat="63.417684" lon="10.33087767">
        <ele>176.024</ele>
        <time>1970-01-01T01:00:00Z</time>
      </trkpt>
      <trkpt lat="63.41767717" lon="10.33089533">
        <ele>176.024</ele>
        <time>1970-01-01T01:00:00Z</time>
      </trkpt>
      <trkpt lat="63.41767017" lon="10.330915">
        <ele>175.719</ele>
        <time>1970-01-01T01:00:00Z</time>
      </trkpt>
      <trkpt lat="63.417661" lon="10.33093617">
        <ele>175.719</ele>
        <time>1970-01-01T01:00:00Z</time>
      </trkpt>
      <trkpt lat="63.41765217" lon="10.33095667">
        <ele>175.415</ele>
        <time>1970-01-01T01:00:00Z</time>
      </trkpt>
      <trkpt lat="63.41764483" lon="10.3309815">
        <ele>175.415</ele>
        <time>1970-01-01T01:00:00Z</time>
      </trkpt>
      <trkpt lat="63.41763983" lon="10.33101383">
        <ele>175.11</ele>
        <time>1970-01-01T01:00:00Z</time>
      </trkpt>
      <trkpt lat="63.417636" lon="10.331052">
        <ele>175.11</ele>
        <time>1970-01-01T01:00:00Z</time>
      </trkpt>
      <trkpt lat="63.41763167" lon="10.33109217">
        <ele>174.653</ele>
        <time>1970-01-01T01:00:00Z</time>
      </trkpt>
      <trkpt lat="63.4176305" lon="10.33113267">
        <ele>174.653</ele>
        <time>1970-01-01T01:00:00Z</time>
      </trkpt>
      <trkpt lat="63.417631" lon="10.33116933">
        <ele>174.5</ele>
        <time>1970-01-01T01:00:00Z</time>
      </trkpt>
      <trkpt lat="63.41763383" lon="10.331201">
        <ele>174.5</ele>
        <time>1970-01-01T01:00:00Z</time>
      </trkpt>
      <trkpt lat="63.41763717" lon="10.33122667">
        <ele>174.195</ele>
        <time>1970-01-01T01:00:00Z</time>
      </trkpt>
      <trkpt lat="63.41764217" lon="10.33125083">
        <ele>174.195</ele>
        <time>1970-01-01T01:00:00Z</time>
      </trkpt>
      <trkpt lat="63.41764833" lon="10.33127517">
        <ele>173.891</ele>
        <time>1970-01-01T01:00:00Z</time>
      </trkpt>
      <trkpt lat="63.41765267" lon="10.331298">
        <ele>173.891</ele>
        <time>1970-01-01T01:00:00Z</time>
      </trkpt>
      <trkpt lat="63.41765917" lon="10.3313265">
        <ele>173.586</ele>
        <time>1970-01-01T01:00:00Z</time>
      </trkpt>
      <trkpt lat="63.41766417" lon="10.33135433">
        <ele>173.586</ele>
        <time>1970-01-01T01:00:00Z</time>
      </trkpt>
      <trkpt lat="63.417671" lon="10.33138633">
        <ele>173.281</ele>
        <time>1970-01-01T01:00:00Z</time>
      </trkpt>
      <trkpt lat="63.4176735" lon="10.3314115">
        <ele>173.281</ele>
        <time>1970-01-01T01:00:00Z</time>
      </trkpt>
      <trkpt lat="63.41767617" lon="10.33143867">
        <ele>172.976</ele>
        <time>1970-01-01T01:00:00Z</time>
      </trkpt>
      <trkpt lat="63.41767767" lon="10.331465">
        <ele>172.976</ele>
        <time>1970-01-01T01:00:00Z</time>
      </trkpt>
      <trkpt lat="63.4176785" lon="10.33149367">
        <ele>172.671</ele>
        <time>1970-01-01T01:00:00Z</time>
      </trkpt>
      <trkpt lat="63.41767933" lon="10.33152367">
        <ele>172.671</ele>
        <time>1970-01-01T01:00:00Z</time>
      </trkpt>
      <trkpt lat="63.41767683" lon="10.331552">
        <ele>172.519</ele>
        <time>1970-01-01T01:00:00Z</time>
      </trkpt>
      <trkpt lat="63.41767567" lon="10.3315825">
        <ele>172.519</ele>
        <time>1970-01-01T01:00:00Z</time>
      </trkpt>
      <trkpt lat="63.41767433" lon="10.33161233">
        <ele>172.214</ele>
        <time>1970-01-01T01:00:00Z</time>
      </trkpt>
      <trkpt lat="63.41767667" lon="10.33164567">
        <ele>172.214</ele>
        <time>1970-01-01T01:00:00Z</time>
      </trkpt>
      <trkpt lat="63.41767983" lon="10.33167917">
        <ele>172.062</ele>
        <time>1970-01-01T01:00:00Z</time>
      </trkpt>
      <trkpt lat="63.41767933" lon="10.331714">
        <ele>172.062</ele>
        <time>1970-01-01T01:00:00Z</time>
      </trkpt>
      <trkpt lat="63.41767833" lon="10.33174667">
        <ele>171.909</ele>
        <time>1970-01-01T01:00:00Z</time>
      </trkpt>
      <trkpt lat="63.41767617" lon="10.33177583">
        <ele>171.909</ele>
        <time>1970-01-01T01:00:00Z</time>
      </trkpt>
      <trkpt lat="63.41767683" lon="10.33180133">
        <ele>171.757</ele>
        <time>1970-01-01T01:00:00Z</time>
      </trkpt>
      <trkpt lat="63.41767433" lon="10.33182883">
        <ele>171.757</ele>
        <time>1970-01-01T01:00:00Z</time>
      </trkpt>
      <trkpt lat="63.41767283" lon="10.33186267">
        <ele>171.604</ele>
        <time>1970-01-01T01:00:00Z</time>
      </trkpt>
      <trkpt lat="63.41766933" lon="10.33189783">
        <ele>171.604</ele>
        <time>1970-01-01T01:00:00Z</time>
      </trkpt>
      <trkpt lat="63.41766767" lon="10.33192867">
        <ele>171.452</ele>
        <time>1970-01-01T01:00:00Z</time>
      </trkpt>
      <trkpt lat="63.4176625" lon="10.33195667">
        <ele>171.452</ele>
        <time>1970-01-01T01:00:00Z</time>
      </trkpt>
      <trkpt lat="63.41765767" lon="10.331986">
        <ele>171.3</ele>
        <time>1970-01-01T01:00:00Z</time>
      </trkpt>
      <trkpt lat="63.417652" lon="10.3320175">
        <ele>171.3</ele>
        <time>1970-01-01T01:00:00Z</time>
      </trkpt>
      <trkpt lat="63.41764667" lon="10.33205">
        <ele>171.147</ele>
        <time>1970-01-01T01:00:00Z</time>
      </trkpt>
      <trkpt lat="63.4176425" lon="10.33208417">
        <ele>171.147</ele>
        <time>1970-01-01T01:00:00Z</time>
      </trkpt>
      <trkpt lat="63.41764083" lon="10.33211867">
        <ele>170.995</ele>
        <time>1970-01-01T01:00:00Z</time>
      </trkpt>
      <trkpt lat="63.417642" lon="10.33215217">
        <ele>170.995</ele>
        <time>1970-01-01T01:00:00Z</time>
      </trkpt>
      <trkpt lat="63.41764383" lon="10.3321825">
        <ele>170.842</ele>
        <time>1970-01-01T01:00:00Z</time>
      </trkpt>
      <trkpt lat="63.4176435" lon="10.33221183">
        <ele>170.842</ele>
        <time>1970-01-01T01:00:00Z</time>
      </trkpt>
      <trkpt lat="63.41764083" lon="10.332241">
        <ele>170.69</ele>
        <time>1970-01-01T01:00:00Z</time>
      </trkpt>
      <trkpt lat="63.4176375" lon="10.332269">
        <ele>170.69</ele>
        <time>1970-01-01T01:00:00Z</time>
      </trkpt>
      <trkpt lat="63.41763467" lon="10.33229817">
        <ele>170.69</ele>
        <time>1970-01-01T01:00:00Z</time>
      </trkpt>
      <trkpt lat="63.41762983" lon="10.33232767">
        <ele>170.69</ele>
        <time>1970-01-01T01:00:00Z</time>
      </trkpt>
      <trkpt lat="63.41762433" lon="10.3323575">
        <ele>170.69</ele>
        <time>1970-01-01T01:00:00Z</time>
      </trkpt>
      <trkpt lat="63.41762" lon="10.33238933">
        <ele>170.69</ele>
        <time>1970-01-01T01:00:00Z</time>
      </trkpt>
      <trkpt lat="63.41761733" lon="10.33241683">
        <ele>170.538</ele>
        <time>1970-01-01T01:00:00Z</time>
      </trkpt>
      <trkpt lat="63.417615" lon="10.33244517">
        <ele>170.538</ele>
        <time>1970-01-01T01:00:00Z</time>
      </trkpt>
      <trkpt lat="63.4176115" lon="10.33246817">
        <ele>170.538</ele>
        <time>1970-01-01T01:00:00Z</time>
      </trkpt>
      <trkpt lat="63.41761033" lon="10.332494">
        <ele>170.538</ele>
        <time>1970-01-01T01:00:00Z</time>
      </trkpt>
      <trkpt lat="63.41761067" lon="10.33252183">
        <ele>170.538</ele>
        <time>1970-01-01T01:00:00Z</time>
      </trkpt>
      <trkpt lat="63.41761333" lon="10.3325525">
        <ele>170.538</ele>
        <time>1970-01-01T01:00:00Z</time>
      </trkpt>
      <trkpt lat="63.41761633" lon="10.33258317">
        <ele>170.538</ele>
        <time>1970-01-01T01:00:00Z</time>
      </trkpt>
      <trkpt lat="63.41761817" lon="10.33261033">
        <ele>170.538</ele>
        <time>1970-01-01T01:00:00Z</time>
      </trkpt>
      <trkpt lat="63.4176175" lon="10.3326375">
        <ele>170.538</ele>
        <time>1970-01-01T01:00:00Z</time>
      </trkpt>
      <trkpt lat="63.41761617" lon="10.33266383">
        <ele>170.538</ele>
        <time>1970-01-01T01:00:00Z</time>
      </trkpt>
      <trkpt lat="63.41761617" lon="10.33268767">
        <ele>170.385</ele>
        <time>1970-01-01T01:00:00Z</time>
      </trkpt>
      <trkpt lat="63.4176175" lon="10.33271067">
        <ele>170.385</ele>
        <time>1970-01-01T01:00:00Z</time>
      </trkpt>
      <trkpt lat="63.4176205" lon="10.33273283">
        <ele>170.385</ele>
        <time>1970-01-01T01:00:00Z</time>
      </trkpt>
      <trkpt lat="63.41762367" lon="10.33275817">
        <ele>170.385</ele>
        <time>1970-01-01T01:00:00Z</time>
      </trkpt>
      <trkpt lat="63.41762683" lon="10.3327845">
        <ele>170.233</ele>
        <time>1970-01-01T01:00:00Z</time>
      </trkpt>
      <trkpt lat="63.41763083" lon="10.33281483">
        <ele>170.233</ele>
        <time>1970-01-01T01:00:00Z</time>
      </trkpt>
      <trkpt lat="63.417632" lon="10.33285183">
        <ele>170.233</ele>
        <time>1970-01-01T01:00:00Z</time>
      </trkpt>
      <trkpt lat="63.417635" lon="10.3328935">
        <ele>170.233</ele>
        <time>1970-01-01T01:00:00Z</time>
      </trkpt>
      <trkpt lat="63.417638" lon="10.33293717">
        <ele>170.233</ele>
        <time>1970-01-01T01:00:00Z</time>
      </trkpt>
      <trkpt lat="63.41764067" lon="10.332978">
        <ele>170.233</ele>
        <time>1970-01-01T01:00:00Z</time>
      </trkpt>
      <trkpt lat="63.41764233" lon="10.33301367">
        <ele>170.233</ele>
        <time>1970-01-01T01:00:00Z</time>
      </trkpt>
      <trkpt lat="63.4176425" lon="10.33304617">
        <ele>170.233</ele>
        <time>1970-01-01T01:00:00Z</time>
      </trkpt>
      <trkpt lat="63.41764333" lon="10.33307217">
        <ele>170.385</ele>
        <time>1970-01-01T01:00:00Z</time>
      </trkpt>
      <trkpt lat="63.41764317" lon="10.3331">
        <ele>170.385</ele>
        <time>1970-01-01T01:00:00Z</time>
      </trkpt>
      <trkpt lat="63.4176415" lon="10.33312967">
        <ele>170.385</ele>
        <time>1970-01-01T01:00:00Z</time>
      </trkpt>
      <trkpt lat="63.4176405" lon="10.33316017">
        <ele>170.385</ele>
        <time>1970-01-01T01:00:00Z</time>
      </trkpt>
      <trkpt lat="63.4176385" lon="10.33318883">
        <ele>170.385</ele>
        <time>1970-01-01T01:00:00Z</time>
      </trkpt>
      <trkpt lat="63.4176365" lon="10.3332115">
        <ele>170.385</ele>
        <time>1970-01-01T01:00:00Z</time>
      </trkpt>
      <trkpt lat="63.41763633" lon="10.33323567">
        <ele>170.538</ele>
        <time>1970-01-01T01:00:00Z</time>
      </trkpt>
      <trkpt lat="63.417638" lon="10.3332595">
        <ele>170.538</ele>
        <time>1970-01-01T01:00:00Z</time>
      </trkpt>
      <trkpt lat="63.41763983" lon="10.3332845">
        <ele>170.538</ele>
        <time>1970-01-01T01:00:00Z</time>
      </trkpt>
      <trkpt lat="63.41764017" lon="10.3333215">
        <ele>170.538</ele>
        <time>1970-01-01T01:00:00Z</time>
      </trkpt>
      <trkpt lat="63.41763983" lon="10.33335983">
        <ele>170.69</ele>
        <time>1970-01-01T01:00:00Z</time>
      </trkpt>
      <trkpt lat="63.41763733" lon="10.33340033">
        <ele>170.69</ele>
        <time>1970-01-01T01:00:00Z</time>
      </trkpt>
      <trkpt lat="63.4176315" lon="10.3334325">
        <ele>170.842</ele>
        <time>1970-01-01T01:00:00Z</time>
      </trkpt>
      <trkpt lat="63.41762" lon="10.33347267">
        <ele>170.842</ele>
        <time>1970-01-01T01:00:00Z</time>
      </trkpt>
      <trkpt lat="63.417608" lon="10.33351467">
        <ele>170.995</ele>
        <time>1970-01-01T01:00:00Z</time>
      </trkpt>
      <trkpt lat="63.4175965" lon="10.33355133">
        <ele>170.995</ele>
        <time>1970-01-01T01:00:00Z</time>
      </trkpt>
      <trkpt lat="63.41758733" lon="10.33358033">
        <ele>170.995</ele>
        <time>1970-01-01T01:00:00Z</time>
      </trkpt>
      <trkpt lat="63.417578" lon="10.33361117">
        <ele>170.995</ele>
        <time>1970-01-01T01:00:00Z</time>
      </trkpt>
      <trkpt lat="63.417569" lon="10.3336455">
        <ele>170.995</ele>
        <time>1970-01-01T01:00:00Z</time>
      </trkpt>
      <trkpt lat="63.417561" lon="10.33367983">
        <ele>170.995</ele>
        <time>1970-01-01T01:00:00Z</time>
      </trkpt>
      <trkpt lat="63.417553" lon="10.333712">
        <ele>170.995</ele>
        <time>1970-01-01T01:00:00Z</time>
      </trkpt>
      <trkpt lat="63.41754667" lon="10.33374517">
        <ele>170.995</ele>
        <time>1970-01-01T01:00:00Z</time>
      </trkpt>
      <trkpt lat="63.4175425" lon="10.33377717">
        <ele>170.842</ele>
        <time>1970-01-01T01:00:00Z</time>
      </trkpt>
      <trkpt lat="63.4175405" lon="10.333809">
        <ele>170.842</ele>
        <time>1970-01-01T01:00:00Z</time>
      </trkpt>
      <trkpt lat="63.41753817" lon="10.33384167">
        <ele>170.842</ele>
        <time>1970-01-01T01:00:00Z</time>
      </trkpt>
      <trkpt lat="63.417536" lon="10.33387267">
        <ele>170.842</ele>
        <time>1970-01-01T01:00:00Z</time>
      </trkpt>
      <trkpt lat="63.41753383" lon="10.333906">
        <ele>170.842</ele>
        <time>1970-01-01T01:00:00Z</time>
      </trkpt>
      <trkpt lat="63.41753283" lon="10.333941">
        <ele>170.842</ele>
        <time>1970-01-01T01:00:00Z</time>
      </trkpt>
      <trkpt lat="63.41753183" lon="10.333982">
        <ele>170.842</ele>
        <time>1970-01-01T01:00:00Z</time>
      </trkpt>
      <trkpt lat="63.41753067" lon="10.334019">
        <ele>170.842</ele>
        <time>1970-01-01T01:00:00Z</time>
      </trkpt>
      <trkpt lat="63.41752767" lon="10.3340575">
        <ele>170.842</ele>
        <time>1970-01-01T01:00:00Z</time>
      </trkpt>
      <trkpt lat="63.41752467" lon="10.33409">
        <ele>170.842</ele>
        <time>1970-01-01T01:00:00Z</time>
      </trkpt>
      <trkpt lat="63.417524" lon="10.33412833">
        <ele>170.995</ele>
        <time>1970-01-01T01:00:00Z</time>
      </trkpt>
      <trkpt lat="63.417527" lon="10.33415633">
        <ele>170.995</ele>
        <time>1970-01-01T01:00:00Z</time>
      </trkpt>
      <trkpt lat="63.41753183" lon="10.33418767">
        <ele>170.995</ele>
        <time>1970-01-01T01:00:00Z</time>
      </trkpt>
      <trkpt lat="63.41753917" lon="10.33420933">
        <ele>170.995</ele>
        <time>1970-01-01T01:00:00Z</time>
      </trkpt>
      <trkpt lat="63.41754717" lon="10.33423417">
        <ele>170.995</ele>
        <time>1970-01-01T01:00:00Z</time>
      </trkpt>
      <trkpt lat="63.41755683" lon="10.33425567">
        <ele>170.995</ele>
        <time>1970-01-01T01:00:00Z</time>
      </trkpt>
      <trkpt lat="63.417565" lon="10.334288">
        <ele>170.995</ele>
        <time>1970-01-01T01:00:00Z</time>
      </trkpt>
      <trkpt lat="63.417574" lon="10.33431983">
        <ele>170.995</ele>
        <time>1970-01-01T01:00:00Z</time>
      </trkpt>
      <trkpt lat="63.4175825" lon="10.33435167">
        <ele>170.995</ele>
        <time>1970-01-01T01:00:00Z</time>
      </trkpt>
      <trkpt lat="63.41759033" lon="10.33437433">
        <ele>170.995</ele>
        <time>1970-01-01T01:00:00Z</time>
      </trkpt>
      <trkpt lat="63.417596" lon="10.33440033">
        <ele>170.995</ele>
        <time>1970-01-01T01:00:00Z</time>
      </trkpt>
      <trkpt lat="63.41759983" lon="10.33442783">
        <ele>170.995</ele>
        <time>1970-01-01T01:00:00Z</time>
      </trkpt>
      <trkpt lat="63.41760433" lon="10.33446433">
        <ele>170.842</ele>
        <time>1970-01-01T01:00:00Z</time>
      </trkpt>
      <trkpt lat="63.41760817" lon="10.3344995">
        <ele>170.842</ele>
        <time>1970-01-01T01:00:00Z</time>
      </trkpt>
      <trkpt lat="63.41761283" lon="10.3345365">
        <ele>170.842</ele>
        <time>1970-01-01T01:00:00Z</time>
      </trkpt>
      <trkpt lat="63.4176165" lon="10.33456883">
        <ele>170.842</ele>
        <time>1970-01-01T01:00:00Z</time>
      </trkpt>
      <trkpt lat="63.41761983" lon="10.3346055">
        <ele>170.842</ele>
        <time>1970-01-01T01:00:00Z</time>
      </trkpt>
      <trkpt lat="63.4176225" lon="10.334643">
        <ele>170.842</ele>
        <time>1970-01-01T01:00:00Z</time>
      </trkpt>
      <trkpt lat="63.417625" lon="10.33467783">
        <ele>170.842</ele>
        <time>1970-01-01T01:00:00Z</time>
      </trkpt>
      <trkpt lat="63.41762967" lon="10.33470833">
        <ele>170.842</ele>
        <time>1970-01-01T01:00:00Z</time>
      </trkpt>
      <trkpt lat="63.41763417" lon="10.334743">
        <ele>170.842</ele>
        <time>1970-01-01T01:00:00Z</time>
      </trkpt>
      <trkpt lat="63.41763733" lon="10.334782">
        <ele>170.842</ele>
        <time>1970-01-01T01:00:00Z</time>
      </trkpt>
      <trkpt lat="63.417638" lon="10.33482233">
        <ele>170.995</ele>
        <time>1970-01-01T01:00:00Z</time>
      </trkpt>
      <trkpt lat="63.41763467" lon="10.33486117">
        <ele>170.995</ele>
        <time>1970-01-01T01:00:00Z</time>
      </trkpt>
      <trkpt lat="63.41763133" lon="10.3348965">
        <ele>170.995</ele>
        <time>1970-01-01T01:00:00Z</time>
      </trkpt>
      <trkpt lat="63.41762867" lon="10.334933">
        <ele>170.995</ele>
        <time>1970-01-01T01:00:00Z</time>
      </trkpt>
      <trkpt lat="63.41762867" lon="10.3349655">
        <ele>171.147</ele>
        <time>1970-01-01T01:00:00Z</time>
      </trkpt>
      <trkpt lat="63.4176315" lon="10.335004">
        <ele>171.147</ele>
        <time>1970-01-01T01:00:00Z</time>
      </trkpt>
      <trkpt lat="63.41763167" lon="10.33504117">
        <ele>171.147</ele>
        <time>1970-01-01T01:00:00Z</time>
      </trkpt>
      <trkpt lat="63.41763317" lon="10.33507917">
        <ele>171.147</ele>
        <time>1970-01-01T01:00:00Z</time>
      </trkpt>
      <trkpt lat="63.41763233" lon="10.335113">
        <ele>171.3</ele>
        <time>1970-01-01T01:00:00Z</time>
      </trkpt>
      <trkpt lat="63.41763333" lon="10.33514717">
        <ele>171.3</ele>
        <time>1970-01-01T01:00:00Z</time>
      </trkpt>
      <trkpt lat="63.41763333" lon="10.33518117">
        <ele>171.3</ele>
        <time>1970-01-01T01:00:00Z</time>
      </trkpt>
      <trkpt lat="63.41763567" lon="10.33521567">
        <ele>171.3</ele>
        <time>1970-01-01T01:00:00Z</time>
      </trkpt>
      <trkpt lat="63.41763767" lon="10.33525217">
        <ele>171.452</ele>
        <time>1970-01-01T01:00:00Z</time>
      </trkpt>
      <trkpt lat="63.4176405" lon="10.33528817">
        <ele>171.452</ele>
        <time>1970-01-01T01:00:00Z</time>
      </trkpt>
      <trkpt lat="63.41764117" lon="10.3353205">
        <ele>171.604</ele>
        <time>1970-01-01T01:00:00Z</time>
      </trkpt>
      <trkpt lat="63.4176415" lon="10.33534883">
        <ele>171.604</ele>
        <time>1970-01-01T01:00:00Z</time>
      </trkpt>
      <trkpt lat="63.41764033" lon="10.33537583">
        <ele>171.604</ele>
        <time>1970-01-01T01:00:00Z</time>
      </trkpt>
      <trkpt lat="63.41764067" lon="10.33540383">
        <ele>171.604</ele>
        <time>1970-01-01T01:00:00Z</time>
      </trkpt>
      <trkpt lat="63.41764017" lon="10.33543017">
        <ele>171.757</ele>
        <time>1970-01-01T01:00:00Z</time>
      </trkpt>
      <trkpt lat="63.41764183" lon="10.3354585">
        <ele>171.757</ele>
        <time>1970-01-01T01:00:00Z</time>
      </trkpt>
      <trkpt lat="63.4176415" lon="10.33548867">
        <ele>171.909</ele>
        <time>1970-01-01T01:00:00Z</time>
      </trkpt>
      <trkpt lat="63.41764283" lon="10.33551933">
        <ele>171.909</ele>
        <time>1970-01-01T01:00:00Z</time>
      </trkpt>
      <trkpt lat="63.41764067" lon="10.33554983">
        <ele>172.062</ele>
        <time>1970-01-01T01:00:00Z</time>
      </trkpt>
      <trkpt lat="63.41763883" lon="10.335581">
        <ele>172.062</ele>
        <time>1970-01-01T01:00:00Z</time>
      </trkpt>
      <trkpt lat="63.41763583" lon="10.33561067">
        <ele>172.062</ele>
        <time>1970-01-01T01:00:00Z</time>
      </trkpt>
      <trkpt lat="63.417636" lon="10.335638">
        <ele>172.062</ele>
        <time>1970-01-01T01:00:00Z</time>
      </trkpt>
      <trkpt lat="63.41763667" lon="10.33566233">
        <ele>172.214</ele>
        <time>1970-01-01T01:00:00Z</time>
      </trkpt>
      <trkpt lat="63.41764183" lon="10.3356955">
        <ele>172.214</ele>
        <time>1970-01-01T01:00:00Z</time>
      </trkpt>
      <trkpt lat="63.41764717" lon="10.33573067">
        <ele>172.214</ele>
        <time>1970-01-01T01:00:00Z</time>
      </trkpt>
      <trkpt lat="63.4176535" lon="10.33577033">
        <ele>172.214</ele>
        <time>1970-01-01T01:00:00Z</time>
      </trkpt>
      <trkpt lat="63.4176565" lon="10.33580667">
        <ele>172.214</ele>
        <time>1970-01-01T01:00:00Z</time>
      </trkpt>
      <trkpt lat="63.41765933" lon="10.335847">
        <ele>172.214</ele>
        <time>1970-01-01T01:00:00Z</time>
      </trkpt>
      <trkpt lat="63.41766183" lon="10.335885">
        <ele>172.214</ele>
        <time>1970-01-01T01:00:00Z</time>
      </trkpt>
      <trkpt lat="63.41766483" lon="10.33592083">
        <ele>172.214</ele>
        <time>1970-01-01T01:00:00Z</time>
      </trkpt>
      <trkpt lat="63.41766417" lon="10.33595567">
        <ele>172.366</ele>
        <time>1970-01-01T01:00:00Z</time>
      </trkpt>
      <trkpt lat="63.41766367" lon="10.33598817">
        <ele>172.366</ele>
        <time>1970-01-01T01:00:00Z</time>
      </trkpt>
      <trkpt lat="63.41766467" lon="10.33602033">
        <ele>172.366</ele>
        <time>1970-01-01T01:00:00Z</time>
      </trkpt>
      <trkpt lat="63.41766833" lon="10.3360495">
        <ele>172.366</ele>
        <time>1970-01-01T01:00:00Z</time>
      </trkpt>
      <trkpt lat="63.41767267" lon="10.33608033">
        <ele>172.366</ele>
        <time>1970-01-01T01:00:00Z</time>
      </trkpt>
      <trkpt lat="63.41767267" lon="10.33611183">
        <ele>172.366</ele>
        <time>1970-01-01T01:00:00Z</time>
      </trkpt>
      <trkpt lat="63.417672" lon="10.33614367">
        <ele>172.519</ele>
        <time>1970-01-01T01:00:00Z</time>
      </trkpt>
      <trkpt lat="63.41767217" lon="10.33617433">
        <ele>172.519</ele>
        <time>1970-01-01T01:00:00Z</time>
      </trkpt>
      <trkpt lat="63.41767467" lon="10.33620433">
        <ele>172.519</ele>
        <time>1970-01-01T01:00:00Z</time>
      </trkpt>
      <trkpt lat="63.41767533" lon="10.33623517">
        <ele>172.519</ele>
        <time>1970-01-01T01:00:00Z</time>
      </trkpt>
      <trkpt lat="63.41767533" lon="10.33627117">
        <ele>172.519</ele>
        <time>1970-01-01T01:00:00Z</time>
      </trkpt>
      <trkpt lat="63.41767383" lon="10.33630733">
        <ele>172.519</ele>
        <time>1970-01-01T01:00:00Z</time>
      </trkpt>
      <trkpt lat="63.41767583" lon="10.33634033">
        <ele>172.519</ele>
        <time>1970-01-01T01:00:00Z</time>
      </trkpt>
      <trkpt lat="63.4176785" lon="10.336372">
        <ele>172.519</ele>
        <time>1970-01-01T01:00:00Z</time>
      </trkpt>
      <trkpt lat="63.41768333" lon="10.33640417">
        <ele>172.519</ele>
        <time>1970-01-01T01:00:00Z</time>
      </trkpt>
      <trkpt lat="63.41768967" lon="10.3364385">
        <ele>172.519</ele>
        <time>1970-01-01T01:00:00Z</time>
      </trkpt>
      <trkpt lat="63.41769533" lon="10.33646883">
        <ele>172.366</ele>
        <time>1970-01-01T01:00:00Z</time>
      </trkpt>
      <trkpt lat="63.41770233" lon="10.3365">
        <ele>172.366</ele>
        <time>1970-01-01T01:00:00Z</time>
      </trkpt>
      <trkpt lat="63.41770667" lon="10.33652833">
        <ele>172.366</ele>
        <time>1970-01-01T01:00:00Z</time>
      </trkpt>
      <trkpt lat="63.41771367" lon="10.33656117">
        <ele>172.366</ele>
        <time>1970-01-01T01:00:00Z</time>
      </trkpt>
      <trkpt lat="63.41771933" lon="10.336592">
        <ele>172.366</ele>
        <time>1970-01-01T01:00:00Z</time>
      </trkpt>
      <trkpt lat="63.41772883" lon="10.33662333">
        <ele>172.366</ele>
        <time>1970-01-01T01:00:00Z</time>
      </trkpt>
      <trkpt lat="63.4177355" lon="10.3366495">
        <ele>172.214</ele>
        <time>1970-01-01T01:00:00Z</time>
      </trkpt>
      <trkpt lat="63.4177425" lon="10.33667367">
        <ele>172.214</ele>
        <time>1970-01-01T01:00:00Z</time>
      </trkpt>
      <trkpt lat="63.41774867" lon="10.33669733">
        <ele>172.214</ele>
        <time>1970-01-01T01:00:00Z</time>
      </trkpt>
      <trkpt lat="63.41775483" lon="10.3367245">
        <ele>172.214</ele>
        <time>1970-01-01T01:00:00Z</time>
      </trkpt>
      <trkpt lat="63.41776217" lon="10.33675383">
        <ele>172.214</ele>
        <time>1970-01-01T01:00:00Z</time>
      </trkpt>
      <trkpt lat="63.41776733" lon="10.336786">
        <ele>172.214</ele>
        <time>1970-01-01T01:00:00Z</time>
      </trkpt>
      <trkpt lat="63.417773" lon="10.336816">
        <ele>172.214</ele>
        <time>1970-01-01T01:00:00Z</time>
      </trkpt>
      <trkpt lat="63.41777833" lon="10.33684817">
        <ele>172.214</ele>
        <time>1970-01-01T01:00:00Z</time>
      </trkpt>
      <trkpt lat="63.41778483" lon="10.33688017">
        <ele>172.214</ele>
        <time>1970-01-01T01:00:00Z</time>
      </trkpt>
      <trkpt lat="63.4177905" lon="10.33690967">
        <ele>172.214</ele>
        <time>1970-01-01T01:00:00Z</time>
      </trkpt>
      <trkpt lat="63.417795" lon="10.33693833">
        <ele>172.214</ele>
        <time>1970-01-01T01:00:00Z</time>
      </trkpt>
      <trkpt lat="63.4178005" lon="10.33696567">
        <ele>172.214</ele>
        <time>1970-01-01T01:00:00Z</time>
      </trkpt>
      <trkpt lat="63.4178075" lon="10.336995">
        <ele>172.214</ele>
        <time>1970-01-01T01:00:00Z</time>
      </trkpt>
      <trkpt lat="63.41781633" lon="10.33702333">
        <ele>172.214</ele>
        <time>1970-01-01T01:00:00Z</time>
      </trkpt>
      <trkpt lat="63.417824" lon="10.33704783">
        <ele>172.214</ele>
        <time>1970-01-01T01:00:00Z</time>
      </trkpt>
      <trkpt lat="63.4178285" lon="10.3370755">
        <ele>172.214</ele>
        <time>1970-01-01T01:00:00Z</time>
      </trkpt>
      <trkpt lat="63.41783133" lon="10.33710767">
        <ele>172.366</ele>
        <time>1970-01-01T01:00:00Z</time>
      </trkpt>
      <trkpt lat="63.417834" lon="10.33714567">
        <ele>172.366</ele>
        <time>1970-01-01T01:00:00Z</time>
      </trkpt>
      <trkpt lat="63.417839" lon="10.33718033">
        <ele>172.366</ele>
        <time>1970-01-01T01:00:00Z</time>
      </trkpt>
      <trkpt lat="63.41784667" lon="10.3372155">
        <ele>172.366</ele>
        <time>1970-01-01T01:00:00Z</time>
      </trkpt>
      <trkpt lat="63.41785417" lon="10.33724867">
        <ele>172.366</ele>
        <time>1970-01-01T01:00:00Z</time>
      </trkpt>
      <trkpt lat="63.41786083" lon="10.33728183">
        <ele>172.366</ele>
        <time>1970-01-01T01:00:00Z</time>
      </trkpt>
      <trkpt lat="63.41786767" lon="10.33731033">
        <ele>172.366</ele>
        <time>1970-01-01T01:00:00Z</time>
      </trkpt>
      <trkpt lat="63.41787533" lon="10.3373395">
        <ele>172.366</ele>
        <time>1970-01-01T01:00:00Z</time>
      </trkpt>
      <trkpt lat="63.41788383" lon="10.33737033">
        <ele>172.366</ele>
        <time>1970-01-01T01:00:00Z</time>
      </trkpt>
      <trkpt lat="63.41789067" lon="10.33740083">
        <ele>172.366</ele>
        <time>1970-01-01T01:00:00Z</time>
      </trkpt>
      <trkpt lat="63.41789683" lon="10.337437">
        <ele>172.366</ele>
        <time>1970-01-01T01:00:00Z</time>
      </trkpt>
      <trkpt lat="63.41790283" lon="10.33747233">
        <ele>172.366</ele>
        <time>1970-01-01T01:00:00Z</time>
      </trkpt>
      <trkpt lat="63.41790667" lon="10.33751083">
        <ele>172.366</ele>
        <time>1970-01-01T01:00:00Z</time>
      </trkpt>
      <trkpt lat="63.41791167" lon="10.33754183">
        <ele>172.366</ele>
        <time>1970-01-01T01:00:00Z</time>
      </trkpt>
      <trkpt lat="63.417917" lon="10.3375735">
        <ele>172.519</ele>
        <time>1970-01-01T01:00:00Z</time>
      </trkpt>
      <trkpt lat="63.4179245" lon="10.33760083">
        <ele>172.519</ele>
        <time>1970-01-01T01:00:00Z</time>
      </trkpt>
      <trkpt lat="63.41793033" lon="10.33762733">
        <ele>172.519</ele>
        <time>1970-01-01T01:00:00Z</time>
      </trkpt>
      <trkpt lat="63.41793483" lon="10.337657">
        <ele>172.519</ele>
        <time>1970-01-01T01:00:00Z</time>
      </trkpt>
      <trkpt lat="63.41793867" lon="10.337687">
        <ele>172.671</ele>
        <time>1970-01-01T01:00:00Z</time>
      </trkpt>
      <trkpt lat="63.41794267" lon="10.3377245">
        <ele>172.671</ele>
        <time>1970-01-01T01:00:00Z</time>
      </trkpt>
      <trkpt lat="63.4179485" lon="10.33775883">
        <ele>172.671</ele>
        <time>1970-01-01T01:00:00Z</time>
      </trkpt>
      <trkpt lat="63.41795467" lon="10.33779583">
        <ele>172.671</ele>
        <time>1970-01-01T01:00:00Z</time>
      </trkpt>
      <trkpt lat="63.41796183" lon="10.337826">
        <ele>172.824</ele>
        <time>1970-01-01T01:00:00Z</time>
      </trkpt>
      <trkpt lat="63.41796817" lon="10.33785483">
        <ele>172.824</ele>
        <time>1970-01-01T01:00:00Z</time>
      </trkpt>
      <trkpt lat="63.41797583" lon="10.33788233">
        <ele>172.824</ele>
        <time>1970-01-01T01:00:00Z</time>
      </trkpt>
      <trkpt lat="63.41798383" lon="10.33791017">
        <ele>172.824</ele>
        <time>1970-01-01T01:00:00Z</time>
      </trkpt>
      <trkpt lat="63.4179925" lon="10.33793633">
        <ele>172.824</ele>
        <time>1970-01-01T01:00:00Z</time>
      </trkpt>
      <trkpt lat="63.41800017" lon="10.33796217">
        <ele>172.824</ele>
        <time>1970-01-01T01:00:00Z</time>
      </trkpt>
      <trkpt lat="63.41800683" lon="10.337987">
        <ele>172.824</ele>
        <time>1970-01-01T01:00:00Z</time>
      </trkpt>
      <trkpt lat="63.4180105" lon="10.3380155">
        <ele>172.824</ele>
        <time>1970-01-01T01:00:00Z</time>
      </trkpt>
      <trkpt lat="63.418008" lon="10.33804767">
        <ele>172.824</ele>
        <time>1970-01-01T01:00:00Z</time>
      </trkpt>
      <trkpt lat="63.41799833" lon="10.33808467">
        <ele>172.824</ele>
        <time>1970-01-01T01:00:00Z</time>
      </trkpt>
      <trkpt lat="63.4179865" lon="10.33811883">
        <ele>172.671</ele>
        <time>1970-01-01T01:00:00Z</time>
      </trkpt>
      <trkpt lat="63.417977" lon="10.33814917">
        <ele>172.671</ele>
        <time>1970-01-01T01:00:00Z</time>
      </trkpt>
      <trkpt lat="63.41797" lon="10.3381765">
        <ele>172.671</ele>
        <time>1970-01-01T01:00:00Z</time>
      </trkpt>
      <trkpt lat="63.41796267" lon="10.33820583">
        <ele>172.671</ele>
        <time>1970-01-01T01:00:00Z</time>
      </trkpt>
      <trkpt lat="63.417955" lon="10.338233">
        <ele>172.519</ele>
        <time>1970-01-01T01:00:00Z</time>
      </trkpt>
      <trkpt lat="63.41794833" lon="10.33825983">
        <ele>172.519</ele>
        <time>1970-01-01T01:00:00Z</time>
      </trkpt>
      <trkpt lat="63.41793967" lon="10.33828317">
        <ele>172.366</ele>
        <time>1970-01-01T01:00:00Z</time>
      </trkpt>
      <trkpt lat="63.41793167" lon="10.33830317">
        <ele>172.366</ele>
        <time>1970-01-01T01:00:00Z</time>
      </trkpt>
      <trkpt lat="63.41792383" lon="10.33831867">
        <ele>172.214</ele>
        <time>1970-01-01T01:00:00Z</time>
      </trkpt>
      <trkpt lat="63.41791983" lon="10.338333">
        <ele>172.214</ele>
        <time>1970-01-01T01:00:00Z</time>
      </trkpt>
      <trkpt lat="63.41791433" lon="10.33835267">
        <ele>172.062</ele>
        <time>1970-01-01T01:00:00Z</time>
      </trkpt>
      <trkpt lat="63.4179085" lon="10.33837417">
        <ele>172.062</ele>
        <time>1970-01-01T01:00:00Z</time>
      </trkpt>
      <trkpt lat="63.41790217" lon="10.33840067">
        <ele>171.909</ele>
        <time>1970-01-01T01:00:00Z</time>
      </trkpt>
      <trkpt lat="63.417896" lon="10.3384275">
        <ele>171.909</ele>
        <time>1970-01-01T01:00:00Z</time>
      </trkpt>
      <trkpt lat="63.41789083" lon="10.33845817">
        <ele>171.909</ele>
        <time>1970-01-01T01:00:00Z</time>
      </trkpt>
      <trkpt lat="63.4178865" lon="10.33848733">
        <ele>171.909</ele>
        <time>1970-01-01T01:00:00Z</time>
      </trkpt>
      <trkpt lat="63.41788267" lon="10.33851383">
        <ele>171.757</ele>
        <time>1970-01-01T01:00:00Z</time>
      </trkpt>
      <trkpt lat="63.41787667" lon="10.33853817">
        <ele>171.757</ele>
        <time>1970-01-01T01:00:00Z</time>
      </trkpt>
      <trkpt lat="63.41786883" lon="10.338561">
        <ele>171.604</ele>
        <time>1970-01-01T01:00:00Z</time>
      </trkpt>
      <trkpt lat="63.417862" lon="10.338585">
        <ele>171.604</ele>
        <time>1970-01-01T01:00:00Z</time>
      </trkpt>
      <trkpt lat="63.4178565" lon="10.33860667">
        <ele>171.604</ele>
        <time>1970-01-01T01:00:00Z</time>
      </trkpt>
      <trkpt lat="63.41785033" lon="10.338624">
        <ele>171.604</ele>
        <time>1970-01-01T01:00:00Z</time>
      </trkpt>
      <trkpt lat="63.41784333" lon="10.33863883">
        <ele>171.452</ele>
        <time>1970-01-01T01:00:00Z</time>
      </trkpt>
      <trkpt lat="63.41783483" lon="10.33865567">
        <ele>171.452</ele>
        <time>1970-01-01T01:00:00Z</time>
      </trkpt>
      <trkpt lat="63.4178275" lon="10.33867683">
        <ele>171.452</ele>
        <time>1970-01-01T01:00:00Z</time>
      </trkpt>
      <trkpt lat="63.41782067" lon="10.33870033">
        <ele>171.452</ele>
        <time>1970-01-01T01:00:00Z</time>
      </trkpt>
      <trkpt lat="63.41781683" lon="10.33872333">
        <ele>171.452</ele>
        <time>1970-01-01T01:00:00Z</time>
      </trkpt>
      <trkpt lat="63.417814" lon="10.33874867">
        <ele>171.452</ele>
        <time>1970-01-01T01:00:00Z</time>
      </trkpt>
      <trkpt lat="63.41781267" lon="10.33877417">
        <ele>171.3</ele>
        <time>1970-01-01T01:00:00Z</time>
      </trkpt>
      <trkpt lat="63.41781067" lon="10.3388005">
        <ele>171.3</ele>
        <time>1970-01-01T01:00:00Z</time>
      </trkpt>
      <trkpt lat="63.41781033" lon="10.33882783">
        <ele>171.3</ele>
        <time>1970-01-01T01:00:00Z</time>
      </trkpt>
      <trkpt lat="63.41780967" lon="10.33885533">
        <ele>171.3</ele>
        <time>1970-01-01T01:00:00Z</time>
      </trkpt>
      <trkpt lat="63.41781083" lon="10.33888567">
        <ele>171.3</ele>
        <time>1970-01-01T01:00:00Z</time>
      </trkpt>
      <trkpt lat="63.41781367" lon="10.33891283">
        <ele>171.3</ele>
        <time>1970-01-01T01:00:00Z</time>
      </trkpt>
      <trkpt lat="63.41781767" lon="10.33894183">
        <ele>171.3</ele>
        <time>1970-01-01T01:00:00Z</time>
      </trkpt>
      <trkpt lat="63.41782033" lon="10.33896617">
        <ele>171.3</ele>
        <time>1970-01-01T01:00:00Z</time>
      </trkpt>
      <trkpt lat="63.41782217" lon="10.33899">
        <ele>171.147</ele>
        <time>1970-01-01T01:00:00Z</time>
      </trkpt>
      <trkpt lat="63.41782383" lon="10.33901083">
        <ele>171.147</ele>
        <time>1970-01-01T01:00:00Z</time>
      </trkpt>
      <trkpt lat="63.41782417" lon="10.33903217">
        <ele>171.147</ele>
        <time>1970-01-01T01:00:00Z</time>
      </trkpt>
      <trkpt lat="63.41782267" lon="10.33905083">
        <ele>171.147</ele>
        <time>1970-01-01T01:00:00Z</time>
      </trkpt>
      <trkpt lat="63.41782033" lon="10.33906817">
        <ele>171.147</ele>
        <time>1970-01-01T01:00:00Z</time>
      </trkpt>
      <trkpt lat="63.41781767" lon="10.33908667">
        <ele>171.147</ele>
        <time>1970-01-01T01:00:00Z</time>
      </trkpt>
      <trkpt lat="63.417813" lon="10.33910867">
        <ele>170.995</ele>
        <time>1970-01-01T01:00:00Z</time>
      </trkpt>
      <trkpt lat="63.41780717" lon="10.33912917">
        <ele>170.995</ele>
        <time>1970-01-01T01:00:00Z</time>
      </trkpt>
      <trkpt lat="63.41779983" lon="10.33915133">
        <ele>170.995</ele>
        <time>1970-01-01T01:00:00Z</time>
      </trkpt>
      <trkpt lat="63.41779233" lon="10.3391745">
        <ele>170.995</ele>
        <time>1970-01-01T01:00:00Z</time>
      </trkpt>
      <trkpt lat="63.417785" lon="10.33920017">
        <ele>170.995</ele>
        <time>1970-01-01T01:00:00Z</time>
      </trkpt>
      <trkpt lat="63.41777883" lon="10.3392255">
        <ele>170.995</ele>
        <time>1970-01-01T01:00:00Z</time>
      </trkpt>
      <trkpt lat="63.41777317" lon="10.339251">
        <ele>170.842</ele>
        <time>1970-01-01T01:00:00Z</time>
      </trkpt>
      <trkpt lat="63.41776833" lon="10.3392765">
        <ele>170.842</ele>
        <time>1970-01-01T01:00:00Z</time>
      </trkpt>
      <trkpt lat="63.4177635" lon="10.33930117">
        <ele>170.842</ele>
        <time>1970-01-01T01:00:00Z</time>
      </trkpt>
      <trkpt lat="63.41775917" lon="10.33932667">
        <ele>170.842</ele>
        <time>1970-01-01T01:00:00Z</time>
      </trkpt>
      <trkpt lat="63.41775533" lon="10.3393525">
        <ele>170.842</ele>
        <time>1970-01-01T01:00:00Z</time>
      </trkpt>
      <trkpt lat="63.41775217" lon="10.33937667">
        <ele>170.842</ele>
        <time>1970-01-01T01:00:00Z</time>
      </trkpt>
      <trkpt lat="63.41774917" lon="10.33939817">
        <ele>170.842</ele>
        <time>1970-01-01T01:00:00Z</time>
      </trkpt>
      <trkpt lat="63.417747" lon="10.33941967">
        <ele>170.842</ele>
        <time>1970-01-01T01:00:00Z</time>
      </trkpt>
      <trkpt lat="63.41774483" lon="10.33944417">
        <ele>170.842</ele>
        <time>1970-01-01T01:00:00Z</time>
      </trkpt>
      <trkpt lat="63.4177425" lon="10.339471">
        <ele>170.842</ele>
        <time>1970-01-01T01:00:00Z</time>
      </trkpt>
      <trkpt lat="63.4177385" lon="10.33949967">
        <ele>170.842</ele>
        <time>1970-01-01T01:00:00Z</time>
      </trkpt>
      <trkpt lat="63.41773333" lon="10.3395285">
        <ele>170.842</ele>
        <time>1970-01-01T01:00:00Z</time>
      </trkpt>
      <trkpt lat="63.417727" lon="10.33955567">
        <ele>170.842</ele>
        <time>1970-01-01T01:00:00Z</time>
      </trkpt>
      <trkpt lat="63.41772067" lon="10.3395815">
        <ele>170.842</ele>
        <time>1970-01-01T01:00:00Z</time>
      </trkpt>
      <trkpt lat="63.41771517" lon="10.339606">
        <ele>170.842</ele>
        <time>1970-01-01T01:00:00Z</time>
      </trkpt>
      <trkpt lat="63.41771117" lon="10.33962983">
        <ele>170.842</ele>
        <time>1970-01-01T01:00:00Z</time>
      </trkpt>
      <trkpt lat="63.417708" lon="10.33965383">
        <ele>170.842</ele>
        <time>1970-01-01T01:00:00Z</time>
      </trkpt>
      <trkpt lat="63.41770483" lon="10.33967833">
        <ele>170.842</ele>
        <time>1970-01-01T01:00:00Z</time>
      </trkpt>
      <trkpt lat="63.417701" lon="10.33970133">
        <ele>170.842</ele>
        <time>1970-01-01T01:00:00Z</time>
      </trkpt>
      <trkpt lat="63.41769667" lon="10.33972533">
        <ele>170.842</ele>
        <time>1970-01-01T01:00:00Z</time>
      </trkpt>
      <trkpt lat="63.417692" lon="10.33975083">
        <ele>170.842</ele>
        <time>1970-01-01T01:00:00Z</time>
      </trkpt>
      <trkpt lat="63.41768817" lon="10.33977967">
        <ele>170.842</ele>
        <time>1970-01-01T01:00:00Z</time>
      </trkpt>
      <trkpt lat="63.417684" lon="10.33980817">
        <ele>170.995</ele>
        <time>1970-01-01T01:00:00Z</time>
      </trkpt>
      <trkpt lat="63.41767883" lon="10.339836">
        <ele>170.995</ele>
        <time>1970-01-01T01:00:00Z</time>
      </trkpt>
      <trkpt lat="63.417674" lon="10.339863">
        <ele>170.995</ele>
        <time>1970-01-01T01:00:00Z</time>
      </trkpt>
      <trkpt lat="63.41767017" lon="10.33989017">
        <ele>170.995</ele>
        <time>1970-01-01T01:00:00Z</time>
      </trkpt>
      <trkpt lat="63.4176675" lon="10.33991683">
        <ele>170.995</ele>
        <time>1970-01-01T01:00:00Z</time>
      </trkpt>
      <trkpt lat="63.41766433" lon="10.339943">
        <ele>170.995</ele>
        <time>1970-01-01T01:00:00Z</time>
      </trkpt>
      <trkpt lat="63.41766067" lon="10.3399685">
        <ele>170.995</ele>
        <time>1970-01-01T01:00:00Z</time>
      </trkpt>
      <trkpt lat="63.417657" lon="10.339994">
        <ele>170.995</ele>
        <time>1970-01-01T01:00:00Z</time>
      </trkpt>
      <trkpt lat="63.41765367" lon="10.34002017">
        <ele>171.147</ele>
        <time>1970-01-01T01:00:00Z</time>
      </trkpt>
      <trkpt lat="63.4176515" lon="10.340046">
        <ele>171.147</ele>
        <time>1970-01-01T01:00:00Z</time>
      </trkpt>
      <trkpt lat="63.41764883" lon="10.34007567">
        <ele>171.147</ele>
        <time>1970-01-01T01:00:00Z</time>
      </trkpt>
      <trkpt lat="63.41764583" lon="10.34010717">
        <ele>171.147</ele>
        <time>1970-01-01T01:00:00Z</time>
      </trkpt>
      <trkpt lat="63.41764167" lon="10.34014">
        <ele>171.147</ele>
        <time>1970-01-01T01:00:00Z</time>
      </trkpt>
      <trkpt lat="63.4176375" lon="10.34016967">
        <ele>171.147</ele>
        <time>1970-01-01T01:00:00Z</time>
      </trkpt>
      <trkpt lat="63.41763267" lon="10.34019683">
        <ele>171.147</ele>
        <time>1970-01-01T01:00:00Z</time>
      </trkpt>
      <trkpt lat="63.4176285" lon="10.34022267">
        <ele>171.147</ele>
        <time>1970-01-01T01:00:00Z</time>
      </trkpt>
      <trkpt lat="63.41762367" lon="10.34024833">
        <ele>171.3</ele>
        <time>1970-01-01T01:00:00Z</time>
      </trkpt>
      <trkpt lat="63.41761933" lon="10.34027467">
        <ele>171.3</ele>
        <time>1970-01-01T01:00:00Z</time>
      </trkpt>
      <trkpt lat="63.41761517" lon="10.34030083">
        <ele>171.3</ele>
        <time>1970-01-01T01:00:00Z</time>
      </trkpt>
      <trkpt lat="63.41761167" lon="10.3403275">
        <ele>171.3</ele>
        <time>1970-01-01T01:00:00Z</time>
      </trkpt>
      <trkpt lat="63.4176085" lon="10.34035017">
        <ele>171.3</ele>
        <time>1970-01-01T01:00:00Z</time>
      </trkpt>
      <trkpt lat="63.4176045" lon="10.34037483">
        <ele>171.3</ele>
        <time>1970-01-01T01:00:00Z</time>
      </trkpt>
      <trkpt lat="63.417599" lon="10.34039917">
        <ele>171.452</ele>
        <time>1970-01-01T01:00:00Z</time>
      </trkpt>
      <trkpt lat="63.41759283" lon="10.34042567">
        <ele>171.452</ele>
        <time>1970-01-01T01:00:00Z</time>
      </trkpt>
      <trkpt lat="63.41758783" lon="10.34045083">
        <ele>171.452</ele>
        <time>1970-01-01T01:00:00Z</time>
      </trkpt>
      <trkpt lat="63.41758433" lon="10.3404735">
        <ele>171.452</ele>
        <time>1970-01-01T01:00:00Z</time>
      </trkpt>
      <trkpt lat="63.41758167" lon="10.340497">
        <ele>171.452</ele>
        <time>1970-01-01T01:00:00Z</time>
      </trkpt>
      <trkpt lat="63.41757867" lon="10.34051783">
        <ele>171.452</ele>
        <time>1970-01-01T01:00:00Z</time>
      </trkpt>
      <trkpt lat="63.41757517" lon="10.34054333">
        <ele>171.452</ele>
        <time>1970-01-01T01:00:00Z</time>
      </trkpt>
      <trkpt lat="63.41757117" lon="10.340566">
        <ele>171.452</ele>
        <time>1970-01-01T01:00:00Z</time>
      </trkpt>
      <trkpt lat="63.41756617" lon="10.34058867">
        <ele>171.604</ele>
        <time>1970-01-01T01:00:00Z</time>
      </trkpt>
      <trkpt lat="63.41756183" lon="10.3406075">
        <ele>171.604</ele>
        <time>1970-01-01T01:00:00Z</time>
      </trkpt>
      <trkpt lat="63.417558" lon="10.3406285">
        <ele>171.604</ele>
        <time>1970-01-01T01:00:00Z</time>
      </trkpt>
      <trkpt lat="63.417556" lon="10.34065033">
        <ele>171.604</ele>
        <time>1970-01-01T01:00:00Z</time>
      </trkpt>
      <trkpt lat="63.41755467" lon="10.340671">
        <ele>171.604</ele>
        <time>1970-01-01T01:00:00Z</time>
      </trkpt>
      <trkpt lat="63.4175535" lon="10.34068917">
        <ele>171.604</ele>
        <time>1970-01-01T01:00:00Z</time>
      </trkpt>
      <trkpt lat="63.41755233" lon="10.340705">
        <ele>171.757</ele>
        <time>1970-01-01T01:00:00Z</time>
      </trkpt>
      <trkpt lat="63.41755133" lon="10.34071917">
        <ele>171.757</ele>
        <time>1970-01-01T01:00:00Z</time>
      </trkpt>
      <trkpt lat="63.41755" lon="10.34073283">
        <ele>171.757</ele>
        <time>1970-01-01T01:00:00Z</time>
      </trkpt>
      <trkpt lat="63.41754783" lon="10.34074417">
        <ele>171.757</ele>
        <time>1970-01-01T01:00:00Z</time>
      </trkpt>
      <trkpt lat="63.41754783" lon="10.34075267">
        <ele>171.757</ele>
        <time>1970-01-01T01:00:00Z</time>
      </trkpt>
      <trkpt lat="63.41754933" lon="10.34075633">
        <ele>171.757</ele>
        <time>1970-01-01T01:00:00Z</time>
      </trkpt>
      <trkpt lat="63.41755167" lon="10.3407585">
        <ele>171.757</ele>
        <time>1970-01-01T01:00:00Z</time>
      </trkpt>
      <trkpt lat="63.41755267" lon="10.34075917">
        <ele>171.757</ele>
        <time>1970-01-01T01:00:00Z</time>
      </trkpt>
      <trkpt lat="63.41755317" lon="10.34076083">
        <ele>171.757</ele>
        <time>1970-01-01T01:00:00Z</time>
      </trkpt>
      <trkpt lat="63.41755367" lon="10.3407645">
        <ele>171.757</ele>
        <time>1970-01-01T01:00:00Z</time>
      </trkpt>
      <trkpt lat="63.41755367" lon="10.34077117">
        <ele>171.909</ele>
        <time>1970-01-01T01:00:00Z</time>
      </trkpt>
      <trkpt lat="63.41755333" lon="10.34077917">
        <ele>171.909</ele>
        <time>1970-01-01T01:00:00Z</time>
      </trkpt>
      <trkpt lat="63.417553" lon="10.34078533">
        <ele>171.909</ele>
        <time>1970-01-01T01:00:00Z</time>
      </trkpt>
      <trkpt lat="63.417553" lon="10.340788">
        <ele>171.909</ele>
        <time>1970-01-01T01:00:00Z</time>
      </trkpt>
      <trkpt lat="63.41755333" lon="10.340788">
        <ele>171.909</ele>
        <time>1970-01-01T01:00:00Z</time>
      </trkpt>
      <trkpt lat="63.41755383" lon="10.3407885">
        <ele>171.909</ele>
        <time>1970-01-01T01:00:00Z</time>
      </trkpt>
      <trkpt lat="63.41755367" lon="10.34079033">
        <ele>171.909</ele>
        <time>1970-01-01T01:00:00Z</time>
      </trkpt>
      <trkpt lat="63.41755333" lon="10.34079317">
        <ele>171.909</ele>
        <time>1970-01-01T01:00:00Z</time>
      </trkpt>
      <trkpt lat="63.41755267" lon="10.34079583">
        <ele>171.909</ele>
        <time>1970-01-01T01:00:00Z</time>
      </trkpt>
      <trkpt lat="63.41755233" lon="10.34079817">
        <ele>171.909</ele>
        <time>1970-01-01T01:00:00Z</time>
      </trkpt>
      <trkpt lat="63.41755167" lon="10.3408005">
        <ele>171.909</ele>
        <time>1970-01-01T01:00:00Z</time>
      </trkpt>
      <trkpt lat="63.41755117" lon="10.34080217">
        <ele>171.909</ele>
        <time>1970-01-01T01:00:00Z</time>
      </trkpt>
      <trkpt lat="63.4175505" lon="10.34080333">
        <ele>171.909</ele>
        <time>1970-01-01T01:00:00Z</time>
      </trkpt>
      <trkpt lat="63.41754983" lon="10.340804">
        <ele>171.909</ele>
        <time>1970-01-01T01:00:00Z</time>
      </trkpt>
      <trkpt lat="63.41754933" lon="10.340804">
        <ele>171.909</ele>
        <time>1970-01-01T01:00:00Z</time>
      </trkpt>
      <trkpt lat="63.41754833" lon="10.340803">
        <ele>171.909</ele>
        <time>1970-01-01T01:00:00Z</time>
      </trkpt>
      <trkpt lat="63.41754767" lon="10.34080367">
        <ele>171.909</ele>
        <time>1970-01-01T01:00:00Z</time>
      </trkpt>
      <trkpt lat="63.41754683" lon="10.340807">
        <ele>171.909</ele>
        <time>1970-01-01T01:00:00Z</time>
      </trkpt>
      <trkpt lat="63.41754667" lon="10.3408115">
        <ele>171.909</ele>
        <time>1970-01-01T01:00:00Z</time>
      </trkpt>
      <trkpt lat="63.4175465" lon="10.34081483">
        <ele>171.909</ele>
        <time>1970-01-01T01:00:00Z</time>
      </trkpt>
      <trkpt lat="63.41754617" lon="10.3408185">
        <ele>171.909</ele>
        <time>1970-01-01T01:00:00Z</time>
      </trkpt>
      <trkpt lat="63.4175465" lon="10.34082233">
        <ele>171.909</ele>
        <time>1970-01-01T01:00:00Z</time>
      </trkpt>
      <trkpt lat="63.4175475" lon="10.34082417">
        <ele>171.909</ele>
        <time>1970-01-01T01:00:00Z</time>
      </trkpt>
      <trkpt lat="63.41754817" lon="10.34082433">
        <ele>171.909</ele>
        <time>1970-01-01T01:00:00Z</time>
      </trkpt>
      <trkpt lat="63.417548" lon="10.34082417">
        <ele>171.909</ele>
        <time>1970-01-01T01:00:00Z</time>
      </trkpt>
      <trkpt lat="63.41754733" lon="10.3408245">
        <ele>171.909</ele>
        <time>1970-01-01T01:00:00Z</time>
      </trkpt>
      <trkpt lat="63.41754617" lon="10.34082317">
        <ele>171.909</ele>
        <time>1970-01-01T01:00:00Z</time>
      </trkpt>
      <trkpt lat="63.417545" lon="10.340821">
        <ele>171.909</ele>
        <time>1970-01-01T01:00:00Z</time>
      </trkpt>
      <trkpt lat="63.41754383" lon="10.34081933">
        <ele>171.909</ele>
        <time>1970-01-01T01:00:00Z</time>
      </trkpt>
      <trkpt lat="63.41754333" lon="10.34081817">
        <ele>171.909</ele>
        <time>1970-01-01T01:00:00Z</time>
      </trkpt>
      <trkpt lat="63.4175425" lon="10.34081917">
        <ele>171.909</ele>
        <time>1970-01-01T01:00:00Z</time>
      </trkpt>
      <trkpt lat="63.41754167" lon="10.34082067">
        <ele>171.909</ele>
        <time>1970-01-01T01:00:00Z</time>
      </trkpt>
      <trkpt lat="63.41754167" lon="10.34082267">
        <ele>171.909</ele>
        <time>1970-01-01T01:00:00Z</time>
      </trkpt>
      <trkpt lat="63.4175425" lon="10.3408235">
        <ele>171.909</ele>
        <time>1970-01-01T01:00:00Z</time>
      </trkpt>
      <trkpt lat="63.41754383" lon="10.3408245">
        <ele>171.909</ele>
        <time>1970-01-01T01:00:00Z</time>
      </trkpt>
      <trkpt lat="63.41754517" lon="10.34082567">
        <ele>171.909</ele>
        <time>1970-01-01T01:00:00Z</time>
      </trkpt>
      <trkpt lat="63.41754683" lon="10.34082683">
        <ele>171.909</ele>
        <time>1970-01-01T01:00:00Z</time>
      </trkpt>
      <trkpt lat="63.4175485" lon="10.34082833">
        <ele>171.909</ele>
        <time>1970-01-01T01:00:00Z</time>
      </trkpt>
      <trkpt lat="63.41755" lon="10.34082983">
        <ele>171.909</ele>
        <time>1970-01-01T01:00:00Z</time>
      </trkpt>
      <trkpt lat="63.41755067" lon="10.34083083">
        <ele>171.909</ele>
        <time>1970-01-01T01:00:00Z</time>
      </trkpt>
      <trkpt lat="63.41755083" lon="10.34083083">
        <ele>171.909</ele>
        <time>1970-01-01T01:00:00Z</time>
      </trkpt>
    </trkseg>
  </trk>
</gpx>